<?xml version="1.0" encoding="UTF-8" standalone="no" ?>
<gpx xmlns="http://www.topografix.com/GPX/1/1" xmlns:xsi="http://www.w3.org/2001/XMLSchema-instance" xsi:schemaLocation="http://www.topografix.com/GPX/1/1 http://www.topografix.com/GPX/1/1/gpx.xsd" version="1.1" creator="VisuGPX - https://www.visugpx.com">
  <metadata>
    <name>Agde Montpellier les canaux</name>
    <desc><![CDATA[Apr-s les Aresquiers, travaux sur le canal, boue   ]]></desc>
  </metadata>
  <trk>
    <name><![CDATA[17/4/2016 11:42 Aude Montpellier ]]></name>
    <desc><![CDATA[]]></desc>
    <trkseg>
      <trkpt lat="43.31729" lon="3.47927">
        <ele>63</ele>
        <time>2016-04-17T09:42:29.739Z</time>
      </trkpt>
      <trkpt lat="43.31732" lon="3.47932">
        <ele>75</ele>
        <time>2016-04-17T09:42:36.380Z</time>
      </trkpt>
      <trkpt lat="43.31734" lon="3.4794">
        <ele>65</ele>
        <time>2016-04-17T09:42:36.417Z</time>
      </trkpt>
      <trkpt lat="43.3174" lon="3.47949">
        <ele>69</ele>
        <time>2016-04-17T09:42:38.952Z</time>
      </trkpt>
      <trkpt lat="43.31739" lon="3.47954">
        <ele>69</ele>
        <time>2016-04-17T09:42:39.919Z</time>
      </trkpt>
      <trkpt lat="43.31739" lon="3.47961">
        <ele>67</ele>
        <time>2016-04-17T09:42:40.947Z</time>
      </trkpt>
      <trkpt lat="43.31739" lon="3.47967">
        <ele>69</ele>
        <time>2016-04-17T09:42:41.920Z</time>
      </trkpt>
      <trkpt lat="43.31736" lon="3.47971">
        <ele>68</ele>
        <time>2016-04-17T09:42:42.944Z</time>
      </trkpt>
      <trkpt lat="43.31732" lon="3.47975">
        <ele>67</ele>
        <time>2016-04-17T09:42:43.918Z</time>
      </trkpt>
      <trkpt lat="43.31726" lon="3.47983">
        <ele>69</ele>
        <time>2016-04-17T09:42:45.946Z</time>
      </trkpt>
      <trkpt lat="43.31724" lon="3.47987">
        <ele>68</ele>
        <time>2016-04-17T09:42:46.918Z</time>
      </trkpt>
      <trkpt lat="43.3172" lon="3.47997">
        <ele>66</ele>
        <time>2016-04-17T09:42:48.944Z</time>
      </trkpt>
      <trkpt lat="43.31718" lon="3.48002">
        <ele>67</ele>
        <time>2016-04-17T09:42:49.919Z</time>
      </trkpt>
      <trkpt lat="43.31716" lon="3.48014">
        <ele>66</ele>
        <time>2016-04-17T09:42:51.995Z</time>
      </trkpt>
      <trkpt lat="43.31715" lon="3.4802">
        <ele>66</ele>
        <time>2016-04-17T09:42:52.971Z</time>
      </trkpt>
      <trkpt lat="43.31716" lon="3.48032">
        <ele>64</ele>
        <time>2016-04-17T09:42:54.972Z</time>
      </trkpt>
      <trkpt lat="43.31716" lon="3.48039">
        <ele>64</ele>
        <time>2016-04-17T09:42:55.939Z</time>
      </trkpt>
      <trkpt lat="43.31714" lon="3.48045">
        <ele>62</ele>
        <time>2016-04-17T09:42:56.977Z</time>
      </trkpt>
      <trkpt lat="43.31712" lon="3.48052">
        <ele>61</ele>
        <time>2016-04-17T09:42:57.937Z</time>
      </trkpt>
      <trkpt lat="43.3171" lon="3.48058">
        <ele>61</ele>
        <time>2016-04-17T09:42:58.960Z</time>
      </trkpt>
      <trkpt lat="43.3171" lon="3.48065">
        <ele>61</ele>
        <time>2016-04-17T09:42:59.940Z</time>
      </trkpt>
      <trkpt lat="43.3171" lon="3.48072">
        <ele>61</ele>
        <time>2016-04-17T09:43:00.972Z</time>
      </trkpt>
      <trkpt lat="43.31711" lon="3.48078">
        <ele>61</ele>
        <time>2016-04-17T09:43:01.936Z</time>
      </trkpt>
      <trkpt lat="43.31711" lon="3.48085">
        <ele>58</ele>
        <time>2016-04-17T09:43:03.005Z</time>
      </trkpt>
      <trkpt lat="43.31711" lon="3.4809">
        <ele>59</ele>
        <time>2016-04-17T09:43:03.942Z</time>
      </trkpt>
      <trkpt lat="43.3171" lon="3.48097">
        <ele>59</ele>
        <time>2016-04-17T09:43:04.969Z</time>
      </trkpt>
      <trkpt lat="43.3171" lon="3.48104">
        <ele>60</ele>
        <time>2016-04-17T09:43:05.921Z</time>
      </trkpt>
      <trkpt lat="43.3171" lon="3.4811">
        <ele>61</ele>
        <time>2016-04-17T09:43:06.960Z</time>
      </trkpt>
      <trkpt lat="43.3171" lon="3.48117">
        <ele>61</ele>
        <time>2016-04-17T09:43:07.922Z</time>
      </trkpt>
      <trkpt lat="43.3171" lon="3.48129">
        <ele>62</ele>
        <time>2016-04-17T09:43:09.944Z</time>
      </trkpt>
      <trkpt lat="43.31713" lon="3.48141">
        <ele>60</ele>
        <time>2016-04-17T09:43:11.919Z</time>
      </trkpt>
      <trkpt lat="43.31716" lon="3.48148">
        <ele>61</ele>
        <time>2016-04-17T09:43:13.950Z</time>
      </trkpt>
      <trkpt lat="43.31718" lon="3.48154">
        <ele>62</ele>
        <time>2016-04-17T09:43:14.920Z</time>
      </trkpt>
      <trkpt lat="43.31721" lon="3.48159">
        <ele>63</ele>
        <time>2016-04-17T09:43:15.953Z</time>
      </trkpt>
      <trkpt lat="43.31723" lon="3.48165">
        <ele>64</ele>
        <time>2016-04-17T09:43:16.938Z</time>
      </trkpt>
      <trkpt lat="43.31727" lon="3.48171">
        <ele>64</ele>
        <time>2016-04-17T09:43:17.946Z</time>
      </trkpt>
      <trkpt lat="43.31729" lon="3.48175">
        <ele>65</ele>
        <time>2016-04-17T09:43:18.916Z</time>
      </trkpt>
      <trkpt lat="43.31735" lon="3.48179">
        <ele>66</ele>
        <time>2016-04-17T09:43:20.947Z</time>
      </trkpt>
      <trkpt lat="43.31738" lon="3.48179">
        <ele>68</ele>
        <time>2016-04-17T09:43:21.919Z</time>
      </trkpt>
      <trkpt lat="43.31744" lon="3.48187">
        <ele>71</ele>
        <time>2016-04-17T09:43:23.950Z</time>
      </trkpt>
      <trkpt lat="43.31746" lon="3.48189">
        <ele>71</ele>
        <time>2016-04-17T09:43:24.919Z</time>
      </trkpt>
      <trkpt lat="43.31753" lon="3.48194">
        <ele>73</ele>
        <time>2016-04-17T09:43:26.947Z</time>
      </trkpt>
      <trkpt lat="43.31758" lon="3.48196">
        <ele>73</ele>
        <time>2016-04-17T09:43:27.922Z</time>
      </trkpt>
      <trkpt lat="43.31762" lon="3.48198">
        <ele>73</ele>
        <time>2016-04-17T09:43:28.948Z</time>
      </trkpt>
      <trkpt lat="43.31766" lon="3.48201">
        <ele>73</ele>
        <time>2016-04-17T09:43:29.919Z</time>
      </trkpt>
      <trkpt lat="43.3177" lon="3.48205">
        <ele>75</ele>
        <time>2016-04-17T09:43:30.949Z</time>
      </trkpt>
      <trkpt lat="43.31774" lon="3.48209">
        <ele>75</ele>
        <time>2016-04-17T09:43:31.920Z</time>
      </trkpt>
      <trkpt lat="43.31779" lon="3.48214">
        <ele>75</ele>
        <time>2016-04-17T09:43:32.945Z</time>
      </trkpt>
      <trkpt lat="43.31783" lon="3.48219">
        <ele>75</ele>
        <time>2016-04-17T09:43:33.940Z</time>
      </trkpt>
      <trkpt lat="43.31789" lon="3.48223">
        <ele>74</ele>
        <time>2016-04-17T09:43:34.945Z</time>
      </trkpt>
      <trkpt lat="43.31794" lon="3.48227">
        <ele>74</ele>
        <time>2016-04-17T09:43:35.917Z</time>
      </trkpt>
      <trkpt lat="43.31799" lon="3.48231">
        <ele>74</ele>
        <time>2016-04-17T09:43:36.944Z</time>
      </trkpt>
      <trkpt lat="43.31803" lon="3.48239">
        <ele>73</ele>
        <time>2016-04-17T09:43:37.917Z</time>
      </trkpt>
      <trkpt lat="43.31807" lon="3.48245">
        <ele>72</ele>
        <time>2016-04-17T09:43:38.944Z</time>
      </trkpt>
      <trkpt lat="43.3181" lon="3.48254">
        <ele>72</ele>
        <time>2016-04-17T09:43:39.918Z</time>
      </trkpt>
      <trkpt lat="43.31812" lon="3.48263">
        <ele>71</ele>
        <time>2016-04-17T09:43:41.027Z</time>
      </trkpt>
      <trkpt lat="43.31816" lon="3.48275">
        <ele>68</ele>
        <time>2016-04-17T09:43:41.920Z</time>
      </trkpt>
      <trkpt lat="43.31818" lon="3.48286">
        <ele>67</ele>
        <time>2016-04-17T09:43:42.948Z</time>
      </trkpt>
      <trkpt lat="43.31819" lon="3.483">
        <ele>65</ele>
        <time>2016-04-17T09:43:43.918Z</time>
      </trkpt>
      <trkpt lat="43.3182" lon="3.48312">
        <ele>64</ele>
        <time>2016-04-17T09:43:44.943Z</time>
      </trkpt>
      <trkpt lat="43.31822" lon="3.48323">
        <ele>63</ele>
        <time>2016-04-17T09:43:45.919Z</time>
      </trkpt>
      <trkpt lat="43.31824" lon="3.48334">
        <ele>63</ele>
        <time>2016-04-17T09:43:46.947Z</time>
      </trkpt>
      <trkpt lat="43.31825" lon="3.48345">
        <ele>62</ele>
        <time>2016-04-17T09:43:47.924Z</time>
      </trkpt>
      <trkpt lat="43.31825" lon="3.48356">
        <ele>62</ele>
        <time>2016-04-17T09:43:48.942Z</time>
      </trkpt>
      <trkpt lat="43.31825" lon="3.48366">
        <ele>62</ele>
        <time>2016-04-17T09:43:49.941Z</time>
      </trkpt>
      <trkpt lat="43.31827" lon="3.48376">
        <ele>61</ele>
        <time>2016-04-17T09:43:50.975Z</time>
      </trkpt>
      <trkpt lat="43.31826" lon="3.48386">
        <ele>60</ele>
        <time>2016-04-17T09:43:51.932Z</time>
      </trkpt>
      <trkpt lat="43.31826" lon="3.48394">
        <ele>60</ele>
        <time>2016-04-17T09:43:52.957Z</time>
      </trkpt>
      <trkpt lat="43.31828" lon="3.48402">
        <ele>59</ele>
        <time>2016-04-17T09:43:53.918Z</time>
      </trkpt>
      <trkpt lat="43.31829" lon="3.48413">
        <ele>59</ele>
        <time>2016-04-17T09:43:54.972Z</time>
      </trkpt>
      <trkpt lat="43.31828" lon="3.4842">
        <ele>59</ele>
        <time>2016-04-17T09:43:55.912Z</time>
      </trkpt>
      <trkpt lat="43.3183" lon="3.48427">
        <ele>59</ele>
        <time>2016-04-17T09:43:56.947Z</time>
      </trkpt>
      <trkpt lat="43.31833" lon="3.48435">
        <ele>60</ele>
        <time>2016-04-17T09:43:57.910Z</time>
      </trkpt>
      <trkpt lat="43.31837" lon="3.48445">
        <ele>60</ele>
        <time>2016-04-17T09:43:58.946Z</time>
      </trkpt>
      <trkpt lat="43.31841" lon="3.48452">
        <ele>58</ele>
        <time>2016-04-17T09:43:59.921Z</time>
      </trkpt>
      <trkpt lat="43.31842" lon="3.48462">
        <ele>58</ele>
        <time>2016-04-17T09:44:00.940Z</time>
      </trkpt>
      <trkpt lat="43.31843" lon="3.48471">
        <ele>58</ele>
        <time>2016-04-17T09:44:01.919Z</time>
      </trkpt>
      <trkpt lat="43.31845" lon="3.48478">
        <ele>57</ele>
        <time>2016-04-17T09:44:02.944Z</time>
      </trkpt>
      <trkpt lat="43.31847" lon="3.48486">
        <ele>56</ele>
        <time>2016-04-17T09:44:03.920Z</time>
      </trkpt>
      <trkpt lat="43.31849" lon="3.48493">
        <ele>57</ele>
        <time>2016-04-17T09:44:04.946Z</time>
      </trkpt>
      <trkpt lat="43.3185" lon="3.48502">
        <ele>57</ele>
        <time>2016-04-17T09:44:05.919Z</time>
      </trkpt>
      <trkpt lat="43.31852" lon="3.48509">
        <ele>56</ele>
        <time>2016-04-17T09:44:06.947Z</time>
      </trkpt>
      <trkpt lat="43.31855" lon="3.48517">
        <ele>56</ele>
        <time>2016-04-17T09:44:07.917Z</time>
      </trkpt>
      <trkpt lat="43.31859" lon="3.48523">
        <ele>55</ele>
        <time>2016-04-17T09:44:08.944Z</time>
      </trkpt>
      <trkpt lat="43.31862" lon="3.48527">
        <ele>57</ele>
        <time>2016-04-17T09:44:09.917Z</time>
      </trkpt>
      <trkpt lat="43.31864" lon="3.48534">
        <ele>58</ele>
        <time>2016-04-17T09:44:10.971Z</time>
      </trkpt>
      <trkpt lat="43.31867" lon="3.48538">
        <ele>58</ele>
        <time>2016-04-17T09:44:11.920Z</time>
      </trkpt>
      <trkpt lat="43.31871" lon="3.48544">
        <ele>56</ele>
        <time>2016-04-17T09:44:12.952Z</time>
      </trkpt>
      <trkpt lat="43.31875" lon="3.48549">
        <ele>56</ele>
        <time>2016-04-17T09:44:13.917Z</time>
      </trkpt>
      <trkpt lat="43.31878" lon="3.48556">
        <ele>56</ele>
        <time>2016-04-17T09:44:14.943Z</time>
      </trkpt>
      <trkpt lat="43.31883" lon="3.48566">
        <ele>55</ele>
        <time>2016-04-17T09:44:15.917Z</time>
      </trkpt>
      <trkpt lat="43.31886" lon="3.48575">
        <ele>55</ele>
        <time>2016-04-17T09:44:16.948Z</time>
      </trkpt>
      <trkpt lat="43.3189" lon="3.48577">
        <ele>55</ele>
        <time>2016-04-17T09:44:17.921Z</time>
      </trkpt>
      <trkpt lat="43.31891" lon="3.48584">
        <ele>55</ele>
        <time>2016-04-17T09:44:18.947Z</time>
      </trkpt>
      <trkpt lat="43.31896" lon="3.4859">
        <ele>56</ele>
        <time>2016-04-17T09:44:19.916Z</time>
      </trkpt>
      <trkpt lat="43.319" lon="3.48599">
        <ele>57</ele>
        <time>2016-04-17T09:44:21.968Z</time>
      </trkpt>
      <trkpt lat="43.31905" lon="3.48604">
        <ele>57</ele>
        <time>2016-04-17T09:44:22.913Z</time>
      </trkpt>
      <trkpt lat="43.31907" lon="3.4861">
        <ele>56</ele>
        <time>2016-04-17T09:44:23.947Z</time>
      </trkpt>
      <trkpt lat="43.3191" lon="3.48614">
        <ele>62</ele>
        <time>2016-04-17T09:44:24.919Z</time>
      </trkpt>
      <trkpt lat="43.31916" lon="3.48621">
        <ele>60</ele>
        <time>2016-04-17T09:44:26.947Z</time>
      </trkpt>
      <trkpt lat="43.31918" lon="3.48621">
        <ele>59</ele>
        <time>2016-04-17T09:44:27.917Z</time>
      </trkpt>
      <trkpt lat="43.31922" lon="3.48628">
        <ele>57</ele>
        <time>2016-04-17T09:44:30.074Z</time>
      </trkpt>
      <trkpt lat="43.31925" lon="3.48632">
        <ele>55</ele>
        <time>2016-04-17T09:44:30.918Z</time>
      </trkpt>
      <trkpt lat="43.31929" lon="3.48639">
        <ele>56</ele>
        <time>2016-04-17T09:44:32.944Z</time>
      </trkpt>
      <trkpt lat="43.3193" lon="3.48643">
        <ele>56</ele>
        <time>2016-04-17T09:44:33.918Z</time>
      </trkpt>
      <trkpt lat="43.31933" lon="3.48654">
        <ele>55</ele>
        <time>2016-04-17T09:44:38.945Z</time>
      </trkpt>
      <trkpt lat="43.31934" lon="3.48655">
        <ele>58</ele>
        <time>2016-04-17T09:44:39.919Z</time>
      </trkpt>
      <trkpt lat="43.31939" lon="3.48664">
        <ele>58</ele>
        <time>2016-04-17T09:44:43.947Z</time>
      </trkpt>
      <trkpt lat="43.3194" lon="3.48666">
        <ele>59</ele>
        <time>2016-04-17T09:44:44.919Z</time>
      </trkpt>
      <trkpt lat="43.3194" lon="3.48677">
        <ele>58</ele>
        <time>2016-04-17T09:44:48.951Z</time>
      </trkpt>
      <trkpt lat="43.31941" lon="3.48679">
        <ele>58</ele>
        <time>2016-04-17T09:44:49.938Z</time>
      </trkpt>
      <trkpt lat="43.31939" lon="3.48683">
        <ele>57</ele>
        <time>2016-04-17T09:45:01.935Z</time>
      </trkpt>
      <trkpt lat="43.31938" lon="3.48684">
        <ele>55</ele>
        <time>2016-04-17T09:45:02.917Z</time>
      </trkpt>
      <trkpt lat="43.31938" lon="3.48684">
        <ele>56</ele>
        <time>2016-04-17T09:45:03.943Z</time>
      </trkpt>
      <trkpt lat="43.31939" lon="3.48683">
        <ele>57</ele>
        <time>2016-04-17T09:45:04.916Z</time>
      </trkpt>
      <trkpt lat="43.31939" lon="3.48692">
        <ele>58</ele>
        <time>2016-04-17T09:45:22.955Z</time>
      </trkpt>
      <trkpt lat="43.31936" lon="3.48697">
        <ele>58</ele>
        <time>2016-04-17T09:45:23.919Z</time>
      </trkpt>
      <trkpt lat="43.31929" lon="3.48703">
        <ele>58</ele>
        <time>2016-04-17T09:45:25.970Z</time>
      </trkpt>
      <trkpt lat="43.31925" lon="3.48707">
        <ele>59</ele>
        <time>2016-04-17T09:45:26.916Z</time>
      </trkpt>
      <trkpt lat="43.31921" lon="3.48709">
        <ele>60</ele>
        <time>2016-04-17T09:45:27.943Z</time>
      </trkpt>
      <trkpt lat="43.31916" lon="3.48713">
        <ele>60</ele>
        <time>2016-04-17T09:45:28.920Z</time>
      </trkpt>
      <trkpt lat="43.31912" lon="3.48716">
        <ele>60</ele>
        <time>2016-04-17T09:45:29.942Z</time>
      </trkpt>
      <trkpt lat="43.31903" lon="3.48717">
        <ele>59</ele>
        <time>2016-04-17T09:45:30.920Z</time>
      </trkpt>
      <trkpt lat="43.31898" lon="3.48722">
        <ele>57</ele>
        <time>2016-04-17T09:45:31.945Z</time>
      </trkpt>
      <trkpt lat="43.31895" lon="3.48726">
        <ele>58</ele>
        <time>2016-04-17T09:45:32.917Z</time>
      </trkpt>
      <trkpt lat="43.31888" lon="3.48733">
        <ele>57</ele>
        <time>2016-04-17T09:45:35.938Z</time>
      </trkpt>
      <trkpt lat="43.31885" lon="3.48737">
        <ele>57</ele>
        <time>2016-04-17T09:45:36.913Z</time>
      </trkpt>
      <trkpt lat="43.3188" lon="3.48741">
        <ele>59</ele>
        <time>2016-04-17T09:45:38.941Z</time>
      </trkpt>
      <trkpt lat="43.31875" lon="3.48743">
        <ele>58</ele>
        <time>2016-04-17T09:45:39.916Z</time>
      </trkpt>
      <trkpt lat="43.31869" lon="3.48746">
        <ele>60</ele>
        <time>2016-04-17T09:45:41.947Z</time>
      </trkpt>
      <trkpt lat="43.31865" lon="3.48748">
        <ele>59</ele>
        <time>2016-04-17T09:45:42.918Z</time>
      </trkpt>
      <trkpt lat="43.31862" lon="3.48756">
        <ele>59</ele>
        <time>2016-04-17T09:45:44.979Z</time>
      </trkpt>
      <trkpt lat="43.31858" lon="3.48758">
        <ele>59</ele>
        <time>2016-04-17T09:45:45.917Z</time>
      </trkpt>
      <trkpt lat="43.3185" lon="3.4876">
        <ele>59</ele>
        <time>2016-04-17T09:45:47.943Z</time>
      </trkpt>
      <trkpt lat="43.31846" lon="3.48763">
        <ele>60</ele>
        <time>2016-04-17T09:45:48.918Z</time>
      </trkpt>
      <trkpt lat="43.3184" lon="3.48771">
        <ele>59</ele>
        <time>2016-04-17T09:45:50.943Z</time>
      </trkpt>
      <trkpt lat="43.31838" lon="3.48773">
        <ele>60</ele>
        <time>2016-04-17T09:45:51.919Z</time>
      </trkpt>
      <trkpt lat="43.31835" lon="3.48776">
        <ele>58</ele>
        <time>2016-04-17T09:45:52.944Z</time>
      </trkpt>
      <trkpt lat="43.31827" lon="3.48779">
        <ele>55</ele>
        <time>2016-04-17T09:45:53.919Z</time>
      </trkpt>
      <trkpt lat="43.31821" lon="3.48783">
        <ele>56</ele>
        <time>2016-04-17T09:45:55.945Z</time>
      </trkpt>
      <trkpt lat="43.31817" lon="3.48786">
        <ele>56</ele>
        <time>2016-04-17T09:45:56.916Z</time>
      </trkpt>
      <trkpt lat="43.3181" lon="3.4879">
        <ele>57</ele>
        <time>2016-04-17T09:45:58.942Z</time>
      </trkpt>
      <trkpt lat="43.31805" lon="3.48791">
        <ele>56</ele>
        <time>2016-04-17T09:45:59.919Z</time>
      </trkpt>
      <trkpt lat="43.31799" lon="3.48791">
        <ele>55</ele>
        <time>2016-04-17T09:46:00.934Z</time>
      </trkpt>
      <trkpt lat="43.31796" lon="3.48793">
        <ele>55</ele>
        <time>2016-04-17T09:46:01.915Z</time>
      </trkpt>
      <trkpt lat="43.3179" lon="3.48795">
        <ele>54</ele>
        <time>2016-04-17T09:46:02.966Z</time>
      </trkpt>
      <trkpt lat="43.31787" lon="3.48798">
        <ele>54</ele>
        <time>2016-04-17T09:46:03.919Z</time>
      </trkpt>
      <trkpt lat="43.31782" lon="3.48802">
        <ele>57</ele>
        <time>2016-04-17T09:46:05.944Z</time>
      </trkpt>
      <trkpt lat="43.31777" lon="3.48804">
        <ele>57</ele>
        <time>2016-04-17T09:46:06.919Z</time>
      </trkpt>
      <trkpt lat="43.3177" lon="3.48807">
        <ele>59</ele>
        <time>2016-04-17T09:46:08.941Z</time>
      </trkpt>
      <trkpt lat="43.31766" lon="3.48809">
        <ele>60</ele>
        <time>2016-04-17T09:46:09.919Z</time>
      </trkpt>
      <trkpt lat="43.3176" lon="3.48812">
        <ele>62</ele>
        <time>2016-04-17T09:46:10.942Z</time>
      </trkpt>
      <trkpt lat="43.31751" lon="3.48817">
        <ele>61</ele>
        <time>2016-04-17T09:46:11.921Z</time>
      </trkpt>
      <trkpt lat="43.31744" lon="3.48825">
        <ele>60</ele>
        <time>2016-04-17T09:46:13.944Z</time>
      </trkpt>
      <trkpt lat="43.31741" lon="3.48829">
        <ele>61</ele>
        <time>2016-04-17T09:46:14.919Z</time>
      </trkpt>
      <trkpt lat="43.31738" lon="3.48829">
        <ele>60</ele>
        <time>2016-04-17T09:46:15.942Z</time>
      </trkpt>
      <trkpt lat="43.3173" lon="3.48829">
        <ele>59</ele>
        <time>2016-04-17T09:46:16.918Z</time>
      </trkpt>
      <trkpt lat="43.3173" lon="3.48829">
        <ele>59</ele>
        <time>2016-04-17T09:46:16.950Z</time>
      </trkpt>
      <trkpt lat="43.3172" lon="3.48834">
        <ele>60</ele>
        <time>2016-04-17T09:46:17.921Z</time>
      </trkpt>
      <trkpt lat="43.3172" lon="3.48834">
        <ele>60</ele>
        <time>2016-04-17T09:46:17.961Z</time>
      </trkpt>
      <trkpt lat="43.31707" lon="3.48834">
        <ele>59</ele>
        <time>2016-04-17T09:46:18.943Z</time>
      </trkpt>
      <trkpt lat="43.31702" lon="3.48831">
        <ele>60</ele>
        <time>2016-04-17T09:46:20.942Z</time>
      </trkpt>
      <trkpt lat="43.3169" lon="3.48835">
        <ele>58</ele>
        <time>2016-04-17T09:46:21.919Z</time>
      </trkpt>
      <trkpt lat="43.3169" lon="3.48837">
        <ele>58</ele>
        <time>2016-04-17T09:46:22.943Z</time>
      </trkpt>
      <trkpt lat="43.31682" lon="3.48841">
        <ele>58</ele>
        <time>2016-04-17T09:46:23.916Z</time>
      </trkpt>
      <trkpt lat="43.3168" lon="3.48847">
        <ele>58</ele>
        <time>2016-04-17T09:46:24.945Z</time>
      </trkpt>
      <trkpt lat="43.31671" lon="3.48851">
        <ele>59</ele>
        <time>2016-04-17T09:46:25.919Z</time>
      </trkpt>
      <trkpt lat="43.31667" lon="3.48857">
        <ele>59</ele>
        <time>2016-04-17T09:46:27.944Z</time>
      </trkpt>
      <trkpt lat="43.31661" lon="3.48861">
        <ele>60</ele>
        <time>2016-04-17T09:46:28.921Z</time>
      </trkpt>
      <trkpt lat="43.31659" lon="3.48873">
        <ele>59</ele>
        <time>2016-04-17T09:46:30.970Z</time>
      </trkpt>
      <trkpt lat="43.31657" lon="3.48878">
        <ele>61</ele>
        <time>2016-04-17T09:46:31.918Z</time>
      </trkpt>
      <trkpt lat="43.31653" lon="3.48888">
        <ele>62</ele>
        <time>2016-04-17T09:46:33.941Z</time>
      </trkpt>
      <trkpt lat="43.3165" lon="3.48893">
        <ele>63</ele>
        <time>2016-04-17T09:46:34.919Z</time>
      </trkpt>
      <trkpt lat="43.31648" lon="3.48903">
        <ele>65</ele>
        <time>2016-04-17T09:46:36.945Z</time>
      </trkpt>
      <trkpt lat="43.31646" lon="3.48908">
        <ele>65</ele>
        <time>2016-04-17T09:46:37.919Z</time>
      </trkpt>
      <trkpt lat="43.31644" lon="3.48915">
        <ele>66</ele>
        <time>2016-04-17T09:46:38.941Z</time>
      </trkpt>
      <trkpt lat="43.31641" lon="3.4892">
        <ele>66</ele>
        <time>2016-04-17T09:46:39.925Z</time>
      </trkpt>
      <trkpt lat="43.31638" lon="3.48926">
        <ele>66</ele>
        <time>2016-04-17T09:46:40.941Z</time>
      </trkpt>
      <trkpt lat="43.31633" lon="3.4893">
        <ele>67</ele>
        <time>2016-04-17T09:46:41.917Z</time>
      </trkpt>
      <trkpt lat="43.31633" lon="3.48938">
        <ele>67</ele>
        <time>2016-04-17T09:46:42.977Z</time>
      </trkpt>
      <trkpt lat="43.3163" lon="3.48943">
        <ele>67</ele>
        <time>2016-04-17T09:46:43.920Z</time>
      </trkpt>
      <trkpt lat="43.31628" lon="3.48952">
        <ele>67</ele>
        <time>2016-04-17T09:46:44.943Z</time>
      </trkpt>
      <trkpt lat="43.31619" lon="3.48959">
        <ele>65</ele>
        <time>2016-04-17T09:46:45.920Z</time>
      </trkpt>
      <trkpt lat="43.31616" lon="3.48965">
        <ele>65</ele>
        <time>2016-04-17T09:46:46.944Z</time>
      </trkpt>
      <trkpt lat="43.31606" lon="3.48972">
        <ele>63</ele>
        <time>2016-04-17T09:46:47.919Z</time>
      </trkpt>
      <trkpt lat="43.316" lon="3.48978">
        <ele>64</ele>
        <time>2016-04-17T09:46:49.943Z</time>
      </trkpt>
      <trkpt lat="43.31597" lon="3.48985">
        <ele>63</ele>
        <time>2016-04-17T09:46:50.940Z</time>
      </trkpt>
      <trkpt lat="43.31592" lon="3.48991">
        <ele>63</ele>
        <time>2016-04-17T09:46:51.943Z</time>
      </trkpt>
      <trkpt lat="43.31592" lon="3.49">
        <ele>63</ele>
        <time>2016-04-17T09:46:52.919Z</time>
      </trkpt>
      <trkpt lat="43.31592" lon="3.49">
        <ele>63</ele>
        <time>2016-04-17T09:46:52.958Z</time>
      </trkpt>
      <trkpt lat="43.31583" lon="3.49005">
        <ele>62</ele>
        <time>2016-04-17T09:46:53.921Z</time>
      </trkpt>
      <trkpt lat="43.31579" lon="3.49015">
        <ele>64</ele>
        <time>2016-04-17T09:46:55.940Z</time>
      </trkpt>
      <trkpt lat="43.31579" lon="3.49018">
        <ele>66</ele>
        <time>2016-04-17T09:46:56.917Z</time>
      </trkpt>
      <trkpt lat="43.31583" lon="3.49025">
        <ele>67</ele>
        <time>2016-04-17T09:46:57.947Z</time>
      </trkpt>
      <trkpt lat="43.31578" lon="3.49031">
        <ele>68</ele>
        <time>2016-04-17T09:46:58.920Z</time>
      </trkpt>
      <trkpt lat="43.31579" lon="3.49038">
        <ele>69</ele>
        <time>2016-04-17T09:46:59.942Z</time>
      </trkpt>
      <trkpt lat="43.31578" lon="3.49044">
        <ele>68</ele>
        <time>2016-04-17T09:47:00.915Z</time>
      </trkpt>
      <trkpt lat="43.31576" lon="3.49054">
        <ele>66</ele>
        <time>2016-04-17T09:47:02.948Z</time>
      </trkpt>
      <trkpt lat="43.31576" lon="3.49063">
        <ele>67</ele>
        <time>2016-04-17T09:47:03.920Z</time>
      </trkpt>
      <trkpt lat="43.31573" lon="3.49069">
        <ele>67</ele>
        <time>2016-04-17T09:47:04.940Z</time>
      </trkpt>
      <trkpt lat="43.31574" lon="3.49077">
        <ele>66</ele>
        <time>2016-04-17T09:47:05.918Z</time>
      </trkpt>
      <trkpt lat="43.31573" lon="3.49084">
        <ele>66</ele>
        <time>2016-04-17T09:47:06.968Z</time>
      </trkpt>
      <trkpt lat="43.31574" lon="3.4909">
        <ele>67</ele>
        <time>2016-04-17T09:47:07.919Z</time>
      </trkpt>
      <trkpt lat="43.3157" lon="3.49096">
        <ele>64</ele>
        <time>2016-04-17T09:47:08.942Z</time>
      </trkpt>
      <trkpt lat="43.31567" lon="3.491">
        <ele>62</ele>
        <time>2016-04-17T09:47:09.916Z</time>
      </trkpt>
      <trkpt lat="43.31563" lon="3.49107">
        <ele>61</ele>
        <time>2016-04-17T09:47:10.944Z</time>
      </trkpt>
      <trkpt lat="43.31563" lon="3.49113">
        <ele>61</ele>
        <time>2016-04-17T09:47:11.920Z</time>
      </trkpt>
      <trkpt lat="43.31562" lon="3.49118">
        <ele>61</ele>
        <time>2016-04-17T09:47:12.943Z</time>
      </trkpt>
      <trkpt lat="43.31569" lon="3.49125">
        <ele>61</ele>
        <time>2016-04-17T09:47:13.920Z</time>
      </trkpt>
      <trkpt lat="43.31571" lon="3.49126">
        <ele>62</ele>
        <time>2016-04-17T09:47:24.947Z</time>
      </trkpt>
      <trkpt lat="43.31568" lon="3.49126">
        <ele>61</ele>
        <time>2016-04-17T09:47:25.919Z</time>
      </trkpt>
      <trkpt lat="43.31563" lon="3.49125">
        <ele>57</ele>
        <time>2016-04-17T09:49:09.956Z</time>
      </trkpt>
      <trkpt lat="43.31558" lon="3.49129">
        <ele>56</ele>
        <time>2016-04-17T09:49:10.924Z</time>
      </trkpt>
      <trkpt lat="43.31557" lon="3.49139">
        <ele>55</ele>
        <time>2016-04-17T09:49:14.952Z</time>
      </trkpt>
      <trkpt lat="43.31558" lon="3.49142">
        <ele>56</ele>
        <time>2016-04-17T09:49:15.920Z</time>
      </trkpt>
      <trkpt lat="43.31555" lon="3.49152">
        <ele>56</ele>
        <time>2016-04-17T09:49:21.945Z</time>
      </trkpt>
      <trkpt lat="43.31549" lon="3.49154">
        <ele>54</ele>
        <time>2016-04-17T09:49:22.920Z</time>
      </trkpt>
      <trkpt lat="43.31548" lon="3.49165">
        <ele>53</ele>
        <time>2016-04-17T09:49:26.950Z</time>
      </trkpt>
      <trkpt lat="43.31548" lon="3.49167">
        <ele>53</ele>
        <time>2016-04-17T09:49:27.921Z</time>
      </trkpt>
      <trkpt lat="43.31542" lon="3.49176">
        <ele>50</ele>
        <time>2016-04-17T09:49:30.950Z</time>
      </trkpt>
      <trkpt lat="43.31541" lon="3.49179">
        <ele>49</ele>
        <time>2016-04-17T09:49:31.921Z</time>
      </trkpt>
      <trkpt lat="43.31537" lon="3.49189">
        <ele>52</ele>
        <time>2016-04-17T09:49:35.949Z</time>
      </trkpt>
      <trkpt lat="43.31536" lon="3.49192">
        <ele>53</ele>
        <time>2016-04-17T09:49:36.920Z</time>
      </trkpt>
      <trkpt lat="43.31531" lon="3.49201">
        <ele>55</ele>
        <time>2016-04-17T09:49:39.977Z</time>
      </trkpt>
      <trkpt lat="43.3153" lon="3.49204">
        <ele>56</ele>
        <time>2016-04-17T09:49:40.921Z</time>
      </trkpt>
      <trkpt lat="43.31527" lon="3.49214">
        <ele>54</ele>
        <time>2016-04-17T09:49:43.950Z</time>
      </trkpt>
      <trkpt lat="43.31524" lon="3.49218">
        <ele>55</ele>
        <time>2016-04-17T09:49:44.922Z</time>
      </trkpt>
      <trkpt lat="43.31519" lon="3.49225">
        <ele>53</ele>
        <time>2016-04-17T09:49:46.952Z</time>
      </trkpt>
      <trkpt lat="43.31518" lon="3.49229">
        <ele>52</ele>
        <time>2016-04-17T09:49:47.921Z</time>
      </trkpt>
      <trkpt lat="43.31514" lon="3.49238">
        <ele>53</ele>
        <time>2016-04-17T09:49:50.951Z</time>
      </trkpt>
      <trkpt lat="43.3151" lon="3.49239">
        <ele>52</ele>
        <time>2016-04-17T09:49:51.920Z</time>
      </trkpt>
      <trkpt lat="43.31511" lon="3.4925">
        <ele>52</ele>
        <time>2016-04-17T09:49:54.950Z</time>
      </trkpt>
      <trkpt lat="43.31512" lon="3.49253">
        <ele>53</ele>
        <time>2016-04-17T09:49:55.946Z</time>
      </trkpt>
      <trkpt lat="43.31507" lon="3.49259">
        <ele>53</ele>
        <time>2016-04-17T09:49:57.950Z</time>
      </trkpt>
      <trkpt lat="43.31505" lon="3.49263">
        <ele>53</ele>
        <time>2016-04-17T09:49:58.923Z</time>
      </trkpt>
      <trkpt lat="43.31503" lon="3.49271">
        <ele>55</ele>
        <time>2016-04-17T09:50:02.002Z</time>
      </trkpt>
      <trkpt lat="43.31501" lon="3.49274">
        <ele>56</ele>
        <time>2016-04-17T09:50:02.921Z</time>
      </trkpt>
      <trkpt lat="43.31497" lon="3.49284">
        <ele>56</ele>
        <time>2016-04-17T09:50:05.950Z</time>
      </trkpt>
      <trkpt lat="43.31496" lon="3.49287">
        <ele>55</ele>
        <time>2016-04-17T09:50:06.922Z</time>
      </trkpt>
      <trkpt lat="43.31491" lon="3.49297">
        <ele>54</ele>
        <time>2016-04-17T09:50:09.950Z</time>
      </trkpt>
      <trkpt lat="43.31489" lon="3.493">
        <ele>54</ele>
        <time>2016-04-17T09:50:10.921Z</time>
      </trkpt>
      <trkpt lat="43.31486" lon="3.49309">
        <ele>55</ele>
        <time>2016-04-17T09:50:13.950Z</time>
      </trkpt>
      <trkpt lat="43.31485" lon="3.49313">
        <ele>55</ele>
        <time>2016-04-17T09:50:14.921Z</time>
      </trkpt>
      <trkpt lat="43.31483" lon="3.49323">
        <ele>56</ele>
        <time>2016-04-17T09:50:17.948Z</time>
      </trkpt>
      <trkpt lat="43.31482" lon="3.49326">
        <ele>57</ele>
        <time>2016-04-17T09:50:19.058Z</time>
      </trkpt>
      <trkpt lat="43.31479" lon="3.49335">
        <ele>57</ele>
        <time>2016-04-17T09:50:21.956Z</time>
      </trkpt>
      <trkpt lat="43.31478" lon="3.49338">
        <ele>56</ele>
        <time>2016-04-17T09:50:22.921Z</time>
      </trkpt>
      <trkpt lat="43.31473" lon="3.49346">
        <ele>57</ele>
        <time>2016-04-17T09:50:26.952Z</time>
      </trkpt>
      <trkpt lat="43.31472" lon="3.49348">
        <ele>57</ele>
        <time>2016-04-17T09:50:27.923Z</time>
      </trkpt>
      <trkpt lat="43.31469" lon="3.49358">
        <ele>58</ele>
        <time>2016-04-17T09:50:31.950Z</time>
      </trkpt>
      <trkpt lat="43.31469" lon="3.4936">
        <ele>59</ele>
        <time>2016-04-17T09:50:32.921Z</time>
      </trkpt>
      <trkpt lat="43.31464" lon="3.49369">
        <ele>60</ele>
        <time>2016-04-17T09:50:37.950Z</time>
      </trkpt>
      <trkpt lat="43.31463" lon="3.49371">
        <ele>59</ele>
        <time>2016-04-17T09:50:38.921Z</time>
      </trkpt>
      <trkpt lat="43.31458" lon="3.49379">
        <ele>58</ele>
        <time>2016-04-17T09:50:41.950Z</time>
      </trkpt>
      <trkpt lat="43.31459" lon="3.49382">
        <ele>59</ele>
        <time>2016-04-17T09:50:42.921Z</time>
      </trkpt>
      <trkpt lat="43.31454" lon="3.4939">
        <ele>59</ele>
        <time>2016-04-17T09:50:45.953Z</time>
      </trkpt>
      <trkpt lat="43.31454" lon="3.49393">
        <ele>59</ele>
        <time>2016-04-17T09:50:46.922Z</time>
      </trkpt>
      <trkpt lat="43.31449" lon="3.49401">
        <ele>57</ele>
        <time>2016-04-17T09:50:49.949Z</time>
      </trkpt>
      <trkpt lat="43.31449" lon="3.49403">
        <ele>59</ele>
        <time>2016-04-17T09:50:50.921Z</time>
      </trkpt>
      <trkpt lat="43.31445" lon="3.49412">
        <ele>58</ele>
        <time>2016-04-17T09:50:53.952Z</time>
      </trkpt>
      <trkpt lat="43.31442" lon="3.49415">
        <ele>58</ele>
        <time>2016-04-17T09:50:54.922Z</time>
      </trkpt>
      <trkpt lat="43.31436" lon="3.49422">
        <ele>58</ele>
        <time>2016-04-17T09:50:58.076Z</time>
      </trkpt>
      <trkpt lat="43.31433" lon="3.49424">
        <ele>56</ele>
        <time>2016-04-17T09:50:58.922Z</time>
      </trkpt>
      <trkpt lat="43.31429" lon="3.49435">
        <ele>57</ele>
        <time>2016-04-17T09:51:02.949Z</time>
      </trkpt>
      <trkpt lat="43.31427" lon="3.49437">
        <ele>56</ele>
        <time>2016-04-17T09:51:03.922Z</time>
      </trkpt>
      <trkpt lat="43.31422" lon="3.49446">
        <ele>56</ele>
        <time>2016-04-17T09:51:07.950Z</time>
      </trkpt>
      <trkpt lat="43.3142" lon="3.49448">
        <ele>56</ele>
        <time>2016-04-17T09:51:08.922Z</time>
      </trkpt>
      <trkpt lat="43.31416" lon="3.49457">
        <ele>57</ele>
        <time>2016-04-17T09:51:11.949Z</time>
      </trkpt>
      <trkpt lat="43.31413" lon="3.49459">
        <ele>58</ele>
        <time>2016-04-17T09:51:12.921Z</time>
      </trkpt>
      <trkpt lat="43.31408" lon="3.49467">
        <ele>60</ele>
        <time>2016-04-17T09:51:15.954Z</time>
      </trkpt>
      <trkpt lat="43.31408" lon="3.4947">
        <ele>61</ele>
        <time>2016-04-17T09:51:16.922Z</time>
      </trkpt>
      <trkpt lat="43.31405" lon="3.49477">
        <ele>60</ele>
        <time>2016-04-17T09:51:18.952Z</time>
      </trkpt>
      <trkpt lat="43.31401" lon="3.49481">
        <ele>60</ele>
        <time>2016-04-17T09:51:19.923Z</time>
      </trkpt>
      <trkpt lat="43.31396" lon="3.49488">
        <ele>59</ele>
        <time>2016-04-17T09:51:21.951Z</time>
      </trkpt>
      <trkpt lat="43.31394" lon="3.49492">
        <ele>58</ele>
        <time>2016-04-17T09:51:22.920Z</time>
      </trkpt>
      <trkpt lat="43.31391" lon="3.49499">
        <ele>60</ele>
        <time>2016-04-17T09:51:24.950Z</time>
      </trkpt>
      <trkpt lat="43.31389" lon="3.49502">
        <ele>60</ele>
        <time>2016-04-17T09:51:25.921Z</time>
      </trkpt>
      <trkpt lat="43.31383" lon="3.49511">
        <ele>60</ele>
        <time>2016-04-17T09:51:28.952Z</time>
      </trkpt>
      <trkpt lat="43.3138" lon="3.49515">
        <ele>59</ele>
        <time>2016-04-17T09:51:29.923Z</time>
      </trkpt>
      <trkpt lat="43.31377" lon="3.49525">
        <ele>62</ele>
        <time>2016-04-17T09:51:32.952Z</time>
      </trkpt>
      <trkpt lat="43.31375" lon="3.49528">
        <ele>63</ele>
        <time>2016-04-17T09:51:33.922Z</time>
      </trkpt>
      <trkpt lat="43.31369" lon="3.49535">
        <ele>62</ele>
        <time>2016-04-17T09:51:35.949Z</time>
      </trkpt>
      <trkpt lat="43.31369" lon="3.49539">
        <ele>63</ele>
        <time>2016-04-17T09:51:36.946Z</time>
      </trkpt>
      <trkpt lat="43.31366" lon="3.49549">
        <ele>63</ele>
        <time>2016-04-17T09:51:39.952Z</time>
      </trkpt>
      <trkpt lat="43.31365" lon="3.49553">
        <ele>63</ele>
        <time>2016-04-17T09:51:40.921Z</time>
      </trkpt>
      <trkpt lat="43.31358" lon="3.4956">
        <ele>63</ele>
        <time>2016-04-17T09:51:42.952Z</time>
      </trkpt>
      <trkpt lat="43.31359" lon="3.49563">
        <ele>64</ele>
        <time>2016-04-17T09:51:43.921Z</time>
      </trkpt>
      <trkpt lat="43.31354" lon="3.49571">
        <ele>65</ele>
        <time>2016-04-17T09:51:45.951Z</time>
      </trkpt>
      <trkpt lat="43.31351" lon="3.49574">
        <ele>65</ele>
        <time>2016-04-17T09:51:46.924Z</time>
      </trkpt>
      <trkpt lat="43.31346" lon="3.49584">
        <ele>64</ele>
        <time>2016-04-17T09:51:49.950Z</time>
      </trkpt>
      <trkpt lat="43.31345" lon="3.49588">
        <ele>64</ele>
        <time>2016-04-17T09:51:50.922Z</time>
      </trkpt>
      <trkpt lat="43.31343" lon="3.49596">
        <ele>65</ele>
        <time>2016-04-17T09:51:52.974Z</time>
      </trkpt>
      <trkpt lat="43.31342" lon="3.49601">
        <ele>65</ele>
        <time>2016-04-17T09:51:53.965Z</time>
      </trkpt>
      <trkpt lat="43.31339" lon="3.49611">
        <ele>66</ele>
        <time>2016-04-17T09:51:55.950Z</time>
      </trkpt>
      <trkpt lat="43.31338" lon="3.49615">
        <ele>66</ele>
        <time>2016-04-17T09:51:56.918Z</time>
      </trkpt>
      <trkpt lat="43.31339" lon="3.49624">
        <ele>66</ele>
        <time>2016-04-17T09:51:58.954Z</time>
      </trkpt>
      <trkpt lat="43.31337" lon="3.49628">
        <ele>66</ele>
        <time>2016-04-17T09:51:59.962Z</time>
      </trkpt>
      <trkpt lat="43.31339" lon="3.49637">
        <ele>67</ele>
        <time>2016-04-17T09:52:01.949Z</time>
      </trkpt>
      <trkpt lat="43.31335" lon="3.49641">
        <ele>67</ele>
        <time>2016-04-17T09:52:02.922Z</time>
      </trkpt>
      <trkpt lat="43.31333" lon="3.49652">
        <ele>68</ele>
        <time>2016-04-17T09:52:06.002Z</time>
      </trkpt>
      <trkpt lat="43.31327" lon="3.49657">
        <ele>65</ele>
        <time>2016-04-17T09:52:06.967Z</time>
      </trkpt>
      <trkpt lat="43.31324" lon="3.49667">
        <ele>64</ele>
        <time>2016-04-17T09:52:08.972Z</time>
      </trkpt>
      <trkpt lat="43.31325" lon="3.4967">
        <ele>64</ele>
        <time>2016-04-17T09:52:09.924Z</time>
      </trkpt>
      <trkpt lat="43.31322" lon="3.49678">
        <ele>61</ele>
        <time>2016-04-17T09:52:11.996Z</time>
      </trkpt>
      <trkpt lat="43.3132" lon="3.49685">
        <ele>59</ele>
        <time>2016-04-17T09:52:12.964Z</time>
      </trkpt>
      <trkpt lat="43.31321" lon="3.49694">
        <ele>58</ele>
        <time>2016-04-17T09:52:14.985Z</time>
      </trkpt>
      <trkpt lat="43.31322" lon="3.49698">
        <ele>59</ele>
        <time>2016-04-17T09:52:15.960Z</time>
      </trkpt>
      <trkpt lat="43.31327" lon="3.49706">
        <ele>57</ele>
        <time>2016-04-17T09:52:17.949Z</time>
      </trkpt>
      <trkpt lat="43.31326" lon="3.4971">
        <ele>57</ele>
        <time>2016-04-17T09:52:18.961Z</time>
      </trkpt>
      <trkpt lat="43.31324" lon="3.49721">
        <ele>56</ele>
        <time>2016-04-17T09:52:21.977Z</time>
      </trkpt>
      <trkpt lat="43.31323" lon="3.49726">
        <ele>57</ele>
        <time>2016-04-17T09:52:22.948Z</time>
      </trkpt>
      <trkpt lat="43.31323" lon="3.49738">
        <ele>57</ele>
        <time>2016-04-17T09:52:24.949Z</time>
      </trkpt>
      <trkpt lat="43.31323" lon="3.49742">
        <ele>57</ele>
        <time>2016-04-17T09:52:25.920Z</time>
      </trkpt>
      <trkpt lat="43.31323" lon="3.49751">
        <ele>58</ele>
        <time>2016-04-17T09:52:27.961Z</time>
      </trkpt>
      <trkpt lat="43.3132" lon="3.49756">
        <ele>57</ele>
        <time>2016-04-17T09:52:28.923Z</time>
      </trkpt>
      <trkpt lat="43.3132" lon="3.49766">
        <ele>55</ele>
        <time>2016-04-17T09:52:31.136Z</time>
      </trkpt>
      <trkpt lat="43.31321" lon="3.49771">
        <ele>55</ele>
        <time>2016-04-17T09:52:31.936Z</time>
      </trkpt>
      <trkpt lat="43.31323" lon="3.49782">
        <ele>54</ele>
        <time>2016-04-17T09:52:33.988Z</time>
      </trkpt>
      <trkpt lat="43.31326" lon="3.49784">
        <ele>55</ele>
        <time>2016-04-17T09:52:34.921Z</time>
      </trkpt>
      <trkpt lat="43.3133" lon="3.49791">
        <ele>56</ele>
        <time>2016-04-17T09:52:36.964Z</time>
      </trkpt>
      <trkpt lat="43.31332" lon="3.49798">
        <ele>56</ele>
        <time>2016-04-17T09:52:37.920Z</time>
      </trkpt>
      <trkpt lat="43.31338" lon="3.49807">
        <ele>54</ele>
        <time>2016-04-17T09:52:39.943Z</time>
      </trkpt>
      <trkpt lat="43.31343" lon="3.49814">
        <ele>53</ele>
        <time>2016-04-17T09:52:40.925Z</time>
      </trkpt>
      <trkpt lat="43.31349" lon="3.49817">
        <ele>51</ele>
        <time>2016-04-17T09:52:41.955Z</time>
      </trkpt>
      <trkpt lat="43.31352" lon="3.49818">
        <ele>53</ele>
        <time>2016-04-17T09:52:42.920Z</time>
      </trkpt>
      <trkpt lat="43.31359" lon="3.49821">
        <ele>53</ele>
        <time>2016-04-17T09:52:44.951Z</time>
      </trkpt>
      <trkpt lat="43.31363" lon="3.49823">
        <ele>53</ele>
        <time>2016-04-17T09:52:45.923Z</time>
      </trkpt>
      <trkpt lat="43.31367" lon="3.49826">
        <ele>53</ele>
        <time>2016-04-17T09:52:46.979Z</time>
      </trkpt>
      <trkpt lat="43.31372" lon="3.49826">
        <ele>54</ele>
        <time>2016-04-17T09:52:47.923Z</time>
      </trkpt>
      <trkpt lat="43.31378" lon="3.4983">
        <ele>54</ele>
        <time>2016-04-17T09:52:49.950Z</time>
      </trkpt>
      <trkpt lat="43.31381" lon="3.49831">
        <ele>53</ele>
        <time>2016-04-17T09:52:50.922Z</time>
      </trkpt>
      <trkpt lat="43.31386" lon="3.49834">
        <ele>52</ele>
        <time>2016-04-17T09:52:52.982Z</time>
      </trkpt>
      <trkpt lat="43.3139" lon="3.49835">
        <ele>53</ele>
        <time>2016-04-17T09:52:53.991Z</time>
      </trkpt>
      <trkpt lat="43.31397" lon="3.49839">
        <ele>50</ele>
        <time>2016-04-17T09:52:55.977Z</time>
      </trkpt>
      <trkpt lat="43.31399" lon="3.49839">
        <ele>50</ele>
        <time>2016-04-17T09:52:56.945Z</time>
      </trkpt>
      <trkpt lat="43.31407" lon="3.49838">
        <ele>51</ele>
        <time>2016-04-17T09:53:00.081Z</time>
      </trkpt>
      <trkpt lat="43.31409" lon="3.49837">
        <ele>51</ele>
        <time>2016-04-17T09:53:00.949Z</time>
      </trkpt>
      <trkpt lat="43.31417" lon="3.49837">
        <ele>51</ele>
        <time>2016-04-17T09:53:03.947Z</time>
      </trkpt>
      <trkpt lat="43.31419" lon="3.49836">
        <ele>51</ele>
        <time>2016-04-17T09:53:04.956Z</time>
      </trkpt>
      <trkpt lat="43.31428" lon="3.49838">
        <ele>53</ele>
        <time>2016-04-17T09:53:07.975Z</time>
      </trkpt>
      <trkpt lat="43.31433" lon="3.49842">
        <ele>52</ele>
        <time>2016-04-17T09:53:08.927Z</time>
      </trkpt>
      <trkpt lat="43.31438" lon="3.49847">
        <ele>52</ele>
        <time>2016-04-17T09:53:10.953Z</time>
      </trkpt>
      <trkpt lat="43.31441" lon="3.49851">
        <ele>51</ele>
        <time>2016-04-17T09:53:11.922Z</time>
      </trkpt>
      <trkpt lat="43.31445" lon="3.49858">
        <ele>50</ele>
        <time>2016-04-17T09:53:12.946Z</time>
      </trkpt>
      <trkpt lat="43.31447" lon="3.49865">
        <ele>50</ele>
        <time>2016-04-17T09:53:13.924Z</time>
      </trkpt>
      <trkpt lat="43.31448" lon="3.4987">
        <ele>52</ele>
        <time>2016-04-17T09:53:14.952Z</time>
      </trkpt>
      <trkpt lat="43.31449" lon="3.49877">
        <ele>52</ele>
        <time>2016-04-17T09:53:15.926Z</time>
      </trkpt>
      <trkpt lat="43.3145" lon="3.49888">
        <ele>52</ele>
        <time>2016-04-17T09:53:19.990Z</time>
      </trkpt>
      <trkpt lat="43.31451" lon="3.4989">
        <ele>52</ele>
        <time>2016-04-17T09:53:20.937Z</time>
      </trkpt>
      <trkpt lat="43.31451" lon="3.4989">
        <ele>52</ele>
        <time>2016-04-17T09:53:27.970Z</time>
      </trkpt>
      <trkpt lat="43.31451" lon="3.4989">
        <ele>52</ele>
        <time>2016-04-17T09:53:28.940Z</time>
      </trkpt>
      <trkpt lat="43.3145" lon="3.49891">
        <ele>52</ele>
        <time>2016-04-17T09:53:57.982Z</time>
      </trkpt>
      <trkpt lat="43.3145" lon="3.49891">
        <ele>52</ele>
        <time>2016-04-17T09:53:58.947Z</time>
      </trkpt>
      <trkpt lat="43.31451" lon="3.49881">
        <ele>52</ele>
        <time>2016-04-17T09:54:03.964Z</time>
      </trkpt>
      <trkpt lat="43.31455" lon="3.49879">
        <ele>52</ele>
        <time>2016-04-17T09:54:04.920Z</time>
      </trkpt>
      <trkpt lat="43.31461" lon="3.49881">
        <ele>50</ele>
        <time>2016-04-17T09:54:06.987Z</time>
      </trkpt>
      <trkpt lat="43.31464" lon="3.49883">
        <ele>49</ele>
        <time>2016-04-17T09:54:07.945Z</time>
      </trkpt>
      <trkpt lat="43.31469" lon="3.49887">
        <ele>49</ele>
        <time>2016-04-17T09:54:09.977Z</time>
      </trkpt>
      <trkpt lat="43.31472" lon="3.4989">
        <ele>50</ele>
        <time>2016-04-17T09:54:10.921Z</time>
      </trkpt>
      <trkpt lat="43.31478" lon="3.49894">
        <ele>50</ele>
        <time>2016-04-17T09:54:12.966Z</time>
      </trkpt>
      <trkpt lat="43.31481" lon="3.49894">
        <ele>50</ele>
        <time>2016-04-17T09:54:13.921Z</time>
      </trkpt>
      <trkpt lat="43.31487" lon="3.49898">
        <ele>51</ele>
        <time>2016-04-17T09:54:16.015Z</time>
      </trkpt>
      <trkpt lat="43.3149" lon="3.499">
        <ele>52</ele>
        <time>2016-04-17T09:54:16.939Z</time>
      </trkpt>
      <trkpt lat="43.31498" lon="3.49902">
        <ele>51</ele>
        <time>2016-04-17T09:54:18.974Z</time>
      </trkpt>
      <trkpt lat="43.315" lon="3.49906">
        <ele>51</ele>
        <time>2016-04-17T09:54:19.968Z</time>
      </trkpt>
      <trkpt lat="43.31506" lon="3.49909">
        <ele>50</ele>
        <time>2016-04-17T09:54:22.001Z</time>
      </trkpt>
      <trkpt lat="43.31509" lon="3.49911">
        <ele>50</ele>
        <time>2016-04-17T09:54:22.943Z</time>
      </trkpt>
      <trkpt lat="43.31515" lon="3.49914">
        <ele>50</ele>
        <time>2016-04-17T09:54:24.987Z</time>
      </trkpt>
      <trkpt lat="43.31519" lon="3.49915">
        <ele>50</ele>
        <time>2016-04-17T09:54:25.945Z</time>
      </trkpt>
      <trkpt lat="43.31526" lon="3.49917">
        <ele>53</ele>
        <time>2016-04-17T09:54:28.954Z</time>
      </trkpt>
      <trkpt lat="43.31528" lon="3.4992">
        <ele>51</ele>
        <time>2016-04-17T09:54:29.966Z</time>
      </trkpt>
      <trkpt lat="43.31535" lon="3.49922">
        <ele>51</ele>
        <time>2016-04-17T09:54:33.118Z</time>
      </trkpt>
      <trkpt lat="43.31537" lon="3.49924">
        <ele>52</ele>
        <time>2016-04-17T09:54:33.956Z</time>
      </trkpt>
      <trkpt lat="43.31542" lon="3.4993">
        <ele>51</ele>
        <time>2016-04-17T09:54:35.994Z</time>
      </trkpt>
      <trkpt lat="43.31544" lon="3.49933">
        <ele>51</ele>
        <time>2016-04-17T09:54:36.959Z</time>
      </trkpt>
      <trkpt lat="43.31551" lon="3.49939">
        <ele>50</ele>
        <time>2016-04-17T09:54:39.948Z</time>
      </trkpt>
      <trkpt lat="43.31554" lon="3.49941">
        <ele>50</ele>
        <time>2016-04-17T09:54:40.919Z</time>
      </trkpt>
      <trkpt lat="43.31561" lon="3.49946">
        <ele>50</ele>
        <time>2016-04-17T09:54:44.022Z</time>
      </trkpt>
      <trkpt lat="43.31563" lon="3.49951">
        <ele>49</ele>
        <time>2016-04-17T09:54:44.960Z</time>
      </trkpt>
      <trkpt lat="43.31571" lon="3.49955">
        <ele>52</ele>
        <time>2016-04-17T09:54:48.957Z</time>
      </trkpt>
      <trkpt lat="43.31574" lon="3.4996">
        <ele>50</ele>
        <time>2016-04-17T09:54:49.920Z</time>
      </trkpt>
      <trkpt lat="43.31578" lon="3.49965">
        <ele>50</ele>
        <time>2016-04-17T09:54:51.938Z</time>
      </trkpt>
      <trkpt lat="43.31576" lon="3.49973">
        <ele>50</ele>
        <time>2016-04-17T09:54:52.920Z</time>
      </trkpt>
      <trkpt lat="43.31575" lon="3.49976">
        <ele>53</ele>
        <time>2016-04-17T09:54:55.940Z</time>
      </trkpt>
      <trkpt lat="43.31574" lon="3.49975">
        <ele>53</ele>
        <time>2016-04-17T09:54:56.944Z</time>
      </trkpt>
      <trkpt lat="43.31576" lon="3.49974">
        <ele>54</ele>
        <time>2016-04-17T09:54:57.924Z</time>
      </trkpt>
      <trkpt lat="43.31576" lon="3.49971">
        <ele>55</ele>
        <time>2016-04-17T09:55:20.964Z</time>
      </trkpt>
      <trkpt lat="43.31576" lon="3.49971">
        <ele>55</ele>
        <time>2016-04-17T09:55:21.956Z</time>
      </trkpt>
      <trkpt lat="43.31576" lon="3.49971">
        <ele>55</ele>
        <time>2016-04-17T09:55:21.996Z</time>
      </trkpt>
      <trkpt lat="43.31577" lon="3.49971">
        <ele>56</ele>
        <time>2016-04-17T09:55:22.948Z</time>
      </trkpt>
      <trkpt lat="43.3157" lon="3.49964">
        <ele>53</ele>
        <time>2016-04-17T09:55:34.948Z</time>
      </trkpt>
      <trkpt lat="43.3157" lon="3.49961">
        <ele>55</ele>
        <time>2016-04-17T09:55:35.919Z</time>
      </trkpt>
      <trkpt lat="43.31564" lon="3.49953">
        <ele>57</ele>
        <time>2016-04-17T09:55:39.950Z</time>
      </trkpt>
      <trkpt lat="43.31561" lon="3.49952">
        <ele>57</ele>
        <time>2016-04-17T09:55:40.925Z</time>
      </trkpt>
      <trkpt lat="43.31554" lon="3.49946">
        <ele>57</ele>
        <time>2016-04-17T09:55:43.944Z</time>
      </trkpt>
      <trkpt lat="43.31552" lon="3.49944">
        <ele>58</ele>
        <time>2016-04-17T09:55:44.919Z</time>
      </trkpt>
      <trkpt lat="43.31545" lon="3.49938">
        <ele>59</ele>
        <time>2016-04-17T09:55:48.949Z</time>
      </trkpt>
      <trkpt lat="43.31542" lon="3.49936">
        <ele>59</ele>
        <time>2016-04-17T09:55:49.920Z</time>
      </trkpt>
      <trkpt lat="43.31536" lon="3.49932">
        <ele>58</ele>
        <time>2016-04-17T09:55:52.949Z</time>
      </trkpt>
      <trkpt lat="43.31533" lon="3.4993">
        <ele>58</ele>
        <time>2016-04-17T09:55:53.921Z</time>
      </trkpt>
      <trkpt lat="43.31525" lon="3.49926">
        <ele>57</ele>
        <time>2016-04-17T09:55:56.941Z</time>
      </trkpt>
      <trkpt lat="43.31523" lon="3.49924">
        <ele>57</ele>
        <time>2016-04-17T09:55:57.920Z</time>
      </trkpt>
      <trkpt lat="43.31518" lon="3.49921">
        <ele>56</ele>
        <time>2016-04-17T09:55:59.949Z</time>
      </trkpt>
      <trkpt lat="43.31515" lon="3.49918">
        <ele>55</ele>
        <time>2016-04-17T09:56:00.918Z</time>
      </trkpt>
      <trkpt lat="43.31507" lon="3.49915">
        <ele>55</ele>
        <time>2016-04-17T09:56:02.949Z</time>
      </trkpt>
      <trkpt lat="43.31503" lon="3.49913">
        <ele>55</ele>
        <time>2016-04-17T09:56:03.922Z</time>
      </trkpt>
      <trkpt lat="43.31496" lon="3.49909">
        <ele>56</ele>
        <time>2016-04-17T09:56:05.947Z</time>
      </trkpt>
      <trkpt lat="43.31492" lon="3.49908">
        <ele>56</ele>
        <time>2016-04-17T09:56:06.921Z</time>
      </trkpt>
      <trkpt lat="43.31486" lon="3.49905">
        <ele>56</ele>
        <time>2016-04-17T09:56:08.975Z</time>
      </trkpt>
      <trkpt lat="43.31483" lon="3.49904">
        <ele>56</ele>
        <time>2016-04-17T09:56:09.920Z</time>
      </trkpt>
      <trkpt lat="43.31476" lon="3.49899">
        <ele>57</ele>
        <time>2016-04-17T09:56:12.979Z</time>
      </trkpt>
      <trkpt lat="43.31474" lon="3.49897">
        <ele>57</ele>
        <time>2016-04-17T09:56:13.931Z</time>
      </trkpt>
      <trkpt lat="43.31466" lon="3.49896">
        <ele>57</ele>
        <time>2016-04-17T09:56:15.950Z</time>
      </trkpt>
      <trkpt lat="43.31462" lon="3.49895">
        <ele>57</ele>
        <time>2016-04-17T09:56:16.919Z</time>
      </trkpt>
      <trkpt lat="43.31459" lon="3.49884">
        <ele>56</ele>
        <time>2016-04-17T09:56:18.958Z</time>
      </trkpt>
      <trkpt lat="43.31455" lon="3.49881">
        <ele>55</ele>
        <time>2016-04-17T09:56:19.919Z</time>
      </trkpt>
      <trkpt lat="43.31448" lon="3.49881">
        <ele>57</ele>
        <time>2016-04-17T09:56:23.983Z</time>
      </trkpt>
      <trkpt lat="43.31446" lon="3.49886">
        <ele>57</ele>
        <time>2016-04-17T09:56:24.953Z</time>
      </trkpt>
      <trkpt lat="43.31449" lon="3.49896">
        <ele>54</ele>
        <time>2016-04-17T09:56:31.970Z</time>
      </trkpt>
      <trkpt lat="43.31448" lon="3.49897">
        <ele>54</ele>
        <time>2016-04-17T09:56:32.926Z</time>
      </trkpt>
      <trkpt lat="43.31446" lon="3.49897">
        <ele>54</ele>
        <time>2016-04-17T09:56:39.983Z</time>
      </trkpt>
      <trkpt lat="43.31446" lon="3.49896">
        <ele>54</ele>
        <time>2016-04-17T09:56:41.089Z</time>
      </trkpt>
      <trkpt lat="43.31447" lon="3.49894">
        <ele>56</ele>
        <time>2016-04-17T09:56:43.983Z</time>
      </trkpt>
      <trkpt lat="43.31446" lon="3.49894">
        <ele>56</ele>
        <time>2016-04-17T09:56:44.938Z</time>
      </trkpt>
      <trkpt lat="43.31446" lon="3.49894">
        <ele>56</ele>
        <time>2016-04-17T09:56:45.971Z</time>
      </trkpt>
      <trkpt lat="43.31445" lon="3.49894">
        <ele>54</ele>
        <time>2016-04-17T09:56:46.941Z</time>
      </trkpt>
      <trkpt lat="43.31449" lon="3.49885">
        <ele>51</ele>
        <time>2016-04-17T09:57:19.948Z</time>
      </trkpt>
      <trkpt lat="43.31453" lon="3.49882">
        <ele>52</ele>
        <time>2016-04-17T09:57:20.921Z</time>
      </trkpt>
      <trkpt lat="43.3146" lon="3.49882">
        <ele>55</ele>
        <time>2016-04-17T09:57:23.949Z</time>
      </trkpt>
      <trkpt lat="43.31463" lon="3.49885">
        <ele>53</ele>
        <time>2016-04-17T09:57:24.918Z</time>
      </trkpt>
      <trkpt lat="43.31469" lon="3.49887">
        <ele>54</ele>
        <time>2016-04-17T09:57:26.940Z</time>
      </trkpt>
      <trkpt lat="43.31473" lon="3.49888">
        <ele>55</ele>
        <time>2016-04-17T09:57:27.921Z</time>
      </trkpt>
      <trkpt lat="43.3148" lon="3.49891">
        <ele>55</ele>
        <time>2016-04-17T09:57:29.944Z</time>
      </trkpt>
      <trkpt lat="43.31484" lon="3.49892">
        <ele>54</ele>
        <time>2016-04-17T09:57:30.922Z</time>
      </trkpt>
      <trkpt lat="43.31489" lon="3.49893">
        <ele>56</ele>
        <time>2016-04-17T09:57:32.950Z</time>
      </trkpt>
      <trkpt lat="43.31493" lon="3.49895">
        <ele>56</ele>
        <time>2016-04-17T09:57:33.947Z</time>
      </trkpt>
      <trkpt lat="43.31501" lon="3.49899">
        <ele>56</ele>
        <time>2016-04-17T09:57:35.950Z</time>
      </trkpt>
      <trkpt lat="43.31504" lon="3.49902">
        <ele>56</ele>
        <time>2016-04-17T09:57:36.920Z</time>
      </trkpt>
      <trkpt lat="43.31511" lon="3.49906">
        <ele>54</ele>
        <time>2016-04-17T09:57:37.953Z</time>
      </trkpt>
      <trkpt lat="43.31514" lon="3.49908">
        <ele>54</ele>
        <time>2016-04-17T09:57:38.961Z</time>
      </trkpt>
      <trkpt lat="43.31522" lon="3.49911">
        <ele>55</ele>
        <time>2016-04-17T09:57:41.949Z</time>
      </trkpt>
      <trkpt lat="43.31525" lon="3.49913">
        <ele>55</ele>
        <time>2016-04-17T09:57:42.919Z</time>
      </trkpt>
      <trkpt lat="43.31532" lon="3.49915">
        <ele>57</ele>
        <time>2016-04-17T09:57:45.971Z</time>
      </trkpt>
      <trkpt lat="43.31534" lon="3.49919">
        <ele>56</ele>
        <time>2016-04-17T09:57:46.953Z</time>
      </trkpt>
      <trkpt lat="43.3154" lon="3.49923">
        <ele>55</ele>
        <time>2016-04-17T09:57:48.962Z</time>
      </trkpt>
      <trkpt lat="43.31542" lon="3.49925">
        <ele>56</ele>
        <time>2016-04-17T09:57:49.974Z</time>
      </trkpt>
      <trkpt lat="43.31545" lon="3.49932">
        <ele>53</ele>
        <time>2016-04-17T09:57:50.993Z</time>
      </trkpt>
      <trkpt lat="43.31548" lon="3.49935">
        <ele>53</ele>
        <time>2016-04-17T09:57:51.936Z</time>
      </trkpt>
      <trkpt lat="43.31552" lon="3.49942">
        <ele>51</ele>
        <time>2016-04-17T09:57:53.977Z</time>
      </trkpt>
      <trkpt lat="43.31555" lon="3.49944">
        <ele>51</ele>
        <time>2016-04-17T09:57:54.958Z</time>
      </trkpt>
      <trkpt lat="43.3156" lon="3.49949">
        <ele>48</ele>
        <time>2016-04-17T09:57:56.000Z</time>
      </trkpt>
      <trkpt lat="43.31563" lon="3.49951">
        <ele>48</ele>
        <time>2016-04-17T09:57:56.955Z</time>
      </trkpt>
      <trkpt lat="43.31569" lon="3.49957">
        <ele>49</ele>
        <time>2016-04-17T09:57:59.944Z</time>
      </trkpt>
      <trkpt lat="43.31572" lon="3.49962">
        <ele>48</ele>
        <time>2016-04-17T09:58:00.914Z</time>
      </trkpt>
      <trkpt lat="43.31574" lon="3.4997">
        <ele>50</ele>
        <time>2016-04-17T09:58:03.952Z</time>
      </trkpt>
      <trkpt lat="43.31575" lon="3.49975">
        <ele>51</ele>
        <time>2016-04-17T09:58:04.951Z</time>
      </trkpt>
      <trkpt lat="43.31578" lon="3.49984">
        <ele>53</ele>
        <time>2016-04-17T09:58:07.962Z</time>
      </trkpt>
      <trkpt lat="43.31579" lon="3.49988">
        <ele>53</ele>
        <time>2016-04-17T09:58:08.915Z</time>
      </trkpt>
      <trkpt lat="43.3158" lon="3.5">
        <ele>54</ele>
        <time>2016-04-17T09:58:11.989Z</time>
      </trkpt>
      <trkpt lat="43.31579" lon="3.50005">
        <ele>53</ele>
        <time>2016-04-17T09:58:12.922Z</time>
      </trkpt>
      <trkpt lat="43.31581" lon="3.50016">
        <ele>52</ele>
        <time>2016-04-17T09:58:14.953Z</time>
      </trkpt>
      <trkpt lat="43.3158" lon="3.50019">
        <ele>51</ele>
        <time>2016-04-17T09:58:15.956Z</time>
      </trkpt>
      <trkpt lat="43.3158" lon="3.50028">
        <ele>51</ele>
        <time>2016-04-17T09:58:17.939Z</time>
      </trkpt>
      <trkpt lat="43.3158" lon="3.50034">
        <ele>51</ele>
        <time>2016-04-17T09:58:18.921Z</time>
      </trkpt>
      <trkpt lat="43.31581" lon="3.50043">
        <ele>51</ele>
        <time>2016-04-17T09:58:21.019Z</time>
      </trkpt>
      <trkpt lat="43.3158" lon="3.50047">
        <ele>50</ele>
        <time>2016-04-17T09:58:21.989Z</time>
      </trkpt>
      <trkpt lat="43.3158" lon="3.50059">
        <ele>49</ele>
        <time>2016-04-17T09:58:24.984Z</time>
      </trkpt>
      <trkpt lat="43.31581" lon="3.50063">
        <ele>48</ele>
        <time>2016-04-17T09:58:25.948Z</time>
      </trkpt>
      <trkpt lat="43.31579" lon="3.50072">
        <ele>49</ele>
        <time>2016-04-17T09:58:27.995Z</time>
      </trkpt>
      <trkpt lat="43.31579" lon="3.50075">
        <ele>50</ele>
        <time>2016-04-17T09:58:28.992Z</time>
      </trkpt>
      <trkpt lat="43.31578" lon="3.50086">
        <ele>50</ele>
        <time>2016-04-17T09:58:31.980Z</time>
      </trkpt>
      <trkpt lat="43.31578" lon="3.5009">
        <ele>50</ele>
        <time>2016-04-17T09:58:32.947Z</time>
      </trkpt>
      <trkpt lat="43.31577" lon="3.50099">
        <ele>51</ele>
        <time>2016-04-17T09:58:36.014Z</time>
      </trkpt>
      <trkpt lat="43.31577" lon="3.50103">
        <ele>50</ele>
        <time>2016-04-17T09:58:36.986Z</time>
      </trkpt>
      <trkpt lat="43.31576" lon="3.50114">
        <ele>48</ele>
        <time>2016-04-17T09:58:39.975Z</time>
      </trkpt>
      <trkpt lat="43.31577" lon="3.50119">
        <ele>48</ele>
        <time>2016-04-17T09:58:40.960Z</time>
      </trkpt>
      <trkpt lat="43.31575" lon="3.5013">
        <ele>47</ele>
        <time>2016-04-17T09:58:43.974Z</time>
      </trkpt>
      <trkpt lat="43.31572" lon="3.50133">
        <ele>48</ele>
        <time>2016-04-17T09:58:44.963Z</time>
      </trkpt>
      <trkpt lat="43.31572" lon="3.50144">
        <ele>49</ele>
        <time>2016-04-17T09:58:48.015Z</time>
      </trkpt>
      <trkpt lat="43.31572" lon="3.50148">
        <ele>50</ele>
        <time>2016-04-17T09:58:48.979Z</time>
      </trkpt>
      <trkpt lat="43.31571" lon="3.50156">
        <ele>49</ele>
        <time>2016-04-17T09:58:50.980Z</time>
      </trkpt>
      <trkpt lat="43.31571" lon="3.5016">
        <ele>49</ele>
        <time>2016-04-17T09:58:51.915Z</time>
      </trkpt>
      <trkpt lat="43.31567" lon="3.5017">
        <ele>53</ele>
        <time>2016-04-17T09:58:55.019Z</time>
      </trkpt>
      <trkpt lat="43.31568" lon="3.50174">
        <ele>53</ele>
        <time>2016-04-17T09:58:55.951Z</time>
      </trkpt>
      <trkpt lat="43.31569" lon="3.50185">
        <ele>51</ele>
        <time>2016-04-17T09:58:57.977Z</time>
      </trkpt>
      <trkpt lat="43.31566" lon="3.5019">
        <ele>49</ele>
        <time>2016-04-17T09:58:58.959Z</time>
      </trkpt>
      <trkpt lat="43.31566" lon="3.50201">
        <ele>47</ele>
        <time>2016-04-17T09:59:01.950Z</time>
      </trkpt>
      <trkpt lat="43.31566" lon="3.50203">
        <ele>48</ele>
        <time>2016-04-17T09:59:02.934Z</time>
      </trkpt>
      <trkpt lat="43.31563" lon="3.50192">
        <ele>48</ele>
        <time>2016-04-17T10:00:21.950Z</time>
      </trkpt>
      <trkpt lat="43.31563" lon="3.50191">
        <ele>49</ele>
        <time>2016-04-17T10:00:22.922Z</time>
      </trkpt>
      <trkpt lat="43.31561" lon="3.5018">
        <ele>50</ele>
        <time>2016-04-17T10:00:26.949Z</time>
      </trkpt>
      <trkpt lat="43.31562" lon="3.50177">
        <ele>49</ele>
        <time>2016-04-17T10:00:27.921Z</time>
      </trkpt>
      <trkpt lat="43.31563" lon="3.50165">
        <ele>48</ele>
        <time>2016-04-17T10:00:31.952Z</time>
      </trkpt>
      <trkpt lat="43.31564" lon="3.5016">
        <ele>49</ele>
        <time>2016-04-17T10:00:32.922Z</time>
      </trkpt>
      <trkpt lat="43.31566" lon="3.50148">
        <ele>51</ele>
        <time>2016-04-17T10:00:35.952Z</time>
      </trkpt>
      <trkpt lat="43.31565" lon="3.50146">
        <ele>52</ele>
        <time>2016-04-17T10:00:36.922Z</time>
      </trkpt>
      <trkpt lat="43.31568" lon="3.50134">
        <ele>53</ele>
        <time>2016-04-17T10:00:39.949Z</time>
      </trkpt>
      <trkpt lat="43.31567" lon="3.5013">
        <ele>53</ele>
        <time>2016-04-17T10:00:40.923Z</time>
      </trkpt>
      <trkpt lat="43.31566" lon="3.50122">
        <ele>55</ele>
        <time>2016-04-17T10:00:43.951Z</time>
      </trkpt>
      <trkpt lat="43.31568" lon="3.50118">
        <ele>55</ele>
        <time>2016-04-17T10:00:44.921Z</time>
      </trkpt>
      <trkpt lat="43.3157" lon="3.50112">
        <ele>56</ele>
        <time>2016-04-17T10:00:46.951Z</time>
      </trkpt>
      <trkpt lat="43.31571" lon="3.50106">
        <ele>54</ele>
        <time>2016-04-17T10:00:47.922Z</time>
      </trkpt>
      <trkpt lat="43.31571" lon="3.50093">
        <ele>57</ele>
        <time>2016-04-17T10:00:50.951Z</time>
      </trkpt>
      <trkpt lat="43.31573" lon="3.50088">
        <ele>57</ele>
        <time>2016-04-17T10:00:51.922Z</time>
      </trkpt>
      <trkpt lat="43.31574" lon="3.50078">
        <ele>56</ele>
        <time>2016-04-17T10:00:54.952Z</time>
      </trkpt>
      <trkpt lat="43.31575" lon="3.50075">
        <ele>56</ele>
        <time>2016-04-17T10:00:55.926Z</time>
      </trkpt>
      <trkpt lat="43.31577" lon="3.50067">
        <ele>55</ele>
        <time>2016-04-17T10:00:57.951Z</time>
      </trkpt>
      <trkpt lat="43.31579" lon="3.50063">
        <ele>54</ele>
        <time>2016-04-17T10:00:58.922Z</time>
      </trkpt>
      <trkpt lat="43.31581" lon="3.50052">
        <ele>54</ele>
        <time>2016-04-17T10:01:00.951Z</time>
      </trkpt>
      <trkpt lat="43.31581" lon="3.50049">
        <ele>54</ele>
        <time>2016-04-17T10:01:01.922Z</time>
      </trkpt>
      <trkpt lat="43.31577" lon="3.50041">
        <ele>55</ele>
        <time>2016-04-17T10:01:04.950Z</time>
      </trkpt>
      <trkpt lat="43.31577" lon="3.50036">
        <ele>56</ele>
        <time>2016-04-17T10:01:05.924Z</time>
      </trkpt>
      <trkpt lat="43.31576" lon="3.50029">
        <ele>58</ele>
        <time>2016-04-17T10:01:07.951Z</time>
      </trkpt>
      <trkpt lat="43.31576" lon="3.50023">
        <ele>57</ele>
        <time>2016-04-17T10:01:08.922Z</time>
      </trkpt>
      <trkpt lat="43.31575" lon="3.50014">
        <ele>56</ele>
        <time>2016-04-17T10:01:10.949Z</time>
      </trkpt>
      <trkpt lat="43.31575" lon="3.50008">
        <ele>55</ele>
        <time>2016-04-17T10:01:11.922Z</time>
      </trkpt>
      <trkpt lat="43.31574" lon="3.5">
        <ele>54</ele>
        <time>2016-04-17T10:01:13.949Z</time>
      </trkpt>
      <trkpt lat="43.31573" lon="3.49995">
        <ele>55</ele>
        <time>2016-04-17T10:01:14.923Z</time>
      </trkpt>
      <trkpt lat="43.31572" lon="3.49987">
        <ele>55</ele>
        <time>2016-04-17T10:01:16.950Z</time>
      </trkpt>
      <trkpt lat="43.31572" lon="3.49981">
        <ele>55</ele>
        <time>2016-04-17T10:01:17.922Z</time>
      </trkpt>
      <trkpt lat="43.3157" lon="3.49972">
        <ele>57</ele>
        <time>2016-04-17T10:01:19.943Z</time>
      </trkpt>
      <trkpt lat="43.31567" lon="3.49969">
        <ele>58</ele>
        <time>2016-04-17T10:01:20.915Z</time>
      </trkpt>
      <trkpt lat="43.31563" lon="3.4996">
        <ele>58</ele>
        <time>2016-04-17T10:01:22.967Z</time>
      </trkpt>
      <trkpt lat="43.31559" lon="3.49957">
        <ele>59</ele>
        <time>2016-04-17T10:01:23.924Z</time>
      </trkpt>
      <trkpt lat="43.31554" lon="3.49954">
        <ele>57</ele>
        <time>2016-04-17T10:01:25.944Z</time>
      </trkpt>
      <trkpt lat="43.31552" lon="3.4995">
        <ele>57</ele>
        <time>2016-04-17T10:01:26.922Z</time>
      </trkpt>
      <trkpt lat="43.31547" lon="3.49945">
        <ele>58</ele>
        <time>2016-04-17T10:01:28.948Z</time>
      </trkpt>
      <trkpt lat="43.31544" lon="3.49943">
        <ele>58</ele>
        <time>2016-04-17T10:01:29.921Z</time>
      </trkpt>
      <trkpt lat="43.31539" lon="3.49938">
        <ele>58</ele>
        <time>2016-04-17T10:01:31.947Z</time>
      </trkpt>
      <trkpt lat="43.31536" lon="3.49935">
        <ele>58</ele>
        <time>2016-04-17T10:01:32.920Z</time>
      </trkpt>
      <trkpt lat="43.31531" lon="3.4993">
        <ele>58</ele>
        <time>2016-04-17T10:01:34.943Z</time>
      </trkpt>
      <trkpt lat="43.31528" lon="3.49927">
        <ele>57</ele>
        <time>2016-04-17T10:01:35.921Z</time>
      </trkpt>
      <trkpt lat="43.31522" lon="3.49924">
        <ele>58</ele>
        <time>2016-04-17T10:01:37.949Z</time>
      </trkpt>
      <trkpt lat="43.31518" lon="3.49923">
        <ele>57</ele>
        <time>2016-04-17T10:01:38.922Z</time>
      </trkpt>
      <trkpt lat="43.31511" lon="3.49919">
        <ele>58</ele>
        <time>2016-04-17T10:01:40.950Z</time>
      </trkpt>
      <trkpt lat="43.31507" lon="3.49917">
        <ele>57</ele>
        <time>2016-04-17T10:01:41.921Z</time>
      </trkpt>
      <trkpt lat="43.31499" lon="3.49913">
        <ele>58</ele>
        <time>2016-04-17T10:01:43.973Z</time>
      </trkpt>
      <trkpt lat="43.31494" lon="3.49911">
        <ele>58</ele>
        <time>2016-04-17T10:01:44.921Z</time>
      </trkpt>
      <trkpt lat="43.31487" lon="3.49907">
        <ele>59</ele>
        <time>2016-04-17T10:01:46.950Z</time>
      </trkpt>
      <trkpt lat="43.31484" lon="3.49905">
        <ele>59</ele>
        <time>2016-04-17T10:01:47.921Z</time>
      </trkpt>
      <trkpt lat="43.31476" lon="3.49902">
        <ele>60</ele>
        <time>2016-04-17T10:01:49.946Z</time>
      </trkpt>
      <trkpt lat="43.31474" lon="3.499">
        <ele>59</ele>
        <time>2016-04-17T10:01:50.924Z</time>
      </trkpt>
      <trkpt lat="43.31468" lon="3.49895">
        <ele>59</ele>
        <time>2016-04-17T10:01:52.941Z</time>
      </trkpt>
      <trkpt lat="43.31465" lon="3.49891">
        <ele>59</ele>
        <time>2016-04-17T10:01:53.925Z</time>
      </trkpt>
      <trkpt lat="43.31459" lon="3.49886">
        <ele>59</ele>
        <time>2016-04-17T10:01:55.949Z</time>
      </trkpt>
      <trkpt lat="43.31456" lon="3.49883">
        <ele>58</ele>
        <time>2016-04-17T10:01:56.920Z</time>
      </trkpt>
      <trkpt lat="43.31448" lon="3.49881">
        <ele>58</ele>
        <time>2016-04-17T10:01:59.950Z</time>
      </trkpt>
      <trkpt lat="43.31444" lon="3.49879">
        <ele>57</ele>
        <time>2016-04-17T10:02:00.918Z</time>
      </trkpt>
      <trkpt lat="43.3144" lon="3.4987">
        <ele>57</ele>
        <time>2016-04-17T10:02:03.952Z</time>
      </trkpt>
      <trkpt lat="43.31438" lon="3.49868">
        <ele>57</ele>
        <time>2016-04-17T10:02:04.948Z</time>
      </trkpt>
      <trkpt lat="43.31438" lon="3.49856">
        <ele>58</ele>
        <time>2016-04-17T10:02:12.950Z</time>
      </trkpt>
      <trkpt lat="43.31438" lon="3.49855">
        <ele>58</ele>
        <time>2016-04-17T10:02:13.923Z</time>
      </trkpt>
      <trkpt lat="43.3143" lon="3.49849">
        <ele>60</ele>
        <time>2016-04-17T10:02:23.982Z</time>
      </trkpt>
      <trkpt lat="43.31428" lon="3.49846">
        <ele>60</ele>
        <time>2016-04-17T10:02:24.928Z</time>
      </trkpt>
      <trkpt lat="43.31421" lon="3.49841">
        <ele>57</ele>
        <time>2016-04-17T10:02:32.945Z</time>
      </trkpt>
      <trkpt lat="43.31418" lon="3.49842">
        <ele>59</ele>
        <time>2016-04-17T10:02:33.924Z</time>
      </trkpt>
      <trkpt lat="43.3141" lon="3.4984">
        <ele>60</ele>
        <time>2016-04-17T10:02:40.951Z</time>
      </trkpt>
      <trkpt lat="43.31408" lon="3.49839">
        <ele>61</ele>
        <time>2016-04-17T10:02:41.949Z</time>
      </trkpt>
      <trkpt lat="43.31401" lon="3.49839">
        <ele>60</ele>
        <time>2016-04-17T10:02:43.950Z</time>
      </trkpt>
      <trkpt lat="43.31399" lon="3.49838">
        <ele>60</ele>
        <time>2016-04-17T10:02:44.923Z</time>
      </trkpt>
      <trkpt lat="43.31393" lon="3.49838">
        <ele>58</ele>
        <time>2016-04-17T10:02:45.949Z</time>
      </trkpt>
      <trkpt lat="43.31389" lon="3.49838">
        <ele>57</ele>
        <time>2016-04-17T10:02:46.922Z</time>
      </trkpt>
      <trkpt lat="43.31382" lon="3.49837">
        <ele>56</ele>
        <time>2016-04-17T10:02:48.946Z</time>
      </trkpt>
      <trkpt lat="43.31379" lon="3.49837">
        <ele>56</ele>
        <time>2016-04-17T10:02:49.923Z</time>
      </trkpt>
      <trkpt lat="43.31371" lon="3.49833">
        <ele>55</ele>
        <time>2016-04-17T10:02:52.944Z</time>
      </trkpt>
      <trkpt lat="43.31369" lon="3.49832">
        <ele>56</ele>
        <time>2016-04-17T10:02:53.923Z</time>
      </trkpt>
      <trkpt lat="43.31361" lon="3.4983">
        <ele>57</ele>
        <time>2016-04-17T10:02:56.949Z</time>
      </trkpt>
      <trkpt lat="43.31358" lon="3.49829">
        <ele>56</ele>
        <time>2016-04-17T10:02:57.945Z</time>
      </trkpt>
      <trkpt lat="43.31351" lon="3.49823">
        <ele>56</ele>
        <time>2016-04-17T10:03:00.940Z</time>
      </trkpt>
      <trkpt lat="43.3135" lon="3.49821">
        <ele>56</ele>
        <time>2016-04-17T10:03:01.919Z</time>
      </trkpt>
      <trkpt lat="43.31341" lon="3.49821">
        <ele>56</ele>
        <time>2016-04-17T10:03:05.949Z</time>
      </trkpt>
      <trkpt lat="43.3134" lon="3.49819">
        <ele>57</ele>
        <time>2016-04-17T10:03:06.924Z</time>
      </trkpt>
      <trkpt lat="43.31347" lon="3.49817">
        <ele>54</ele>
        <time>2016-04-17T10:03:28.951Z</time>
      </trkpt>
      <trkpt lat="43.31351" lon="3.49817">
        <ele>55</ele>
        <time>2016-04-17T10:03:29.922Z</time>
      </trkpt>
      <trkpt lat="43.31345" lon="3.49808">
        <ele>56</ele>
        <time>2016-04-17T10:03:41.025Z</time>
      </trkpt>
      <trkpt lat="43.31341" lon="3.49809">
        <ele>56</ele>
        <time>2016-04-17T10:03:41.924Z</time>
      </trkpt>
      <trkpt lat="43.31335" lon="3.49803">
        <ele>56</ele>
        <time>2016-04-17T10:03:43.951Z</time>
      </trkpt>
      <trkpt lat="43.31331" lon="3.49801">
        <ele>57</ele>
        <time>2016-04-17T10:03:44.923Z</time>
      </trkpt>
      <trkpt lat="43.31325" lon="3.498">
        <ele>57</ele>
        <time>2016-04-17T10:03:46.952Z</time>
      </trkpt>
      <trkpt lat="43.31321" lon="3.498">
        <ele>57</ele>
        <time>2016-04-17T10:03:47.924Z</time>
      </trkpt>
      <trkpt lat="43.31316" lon="3.49793">
        <ele>56</ele>
        <time>2016-04-17T10:03:49.961Z</time>
      </trkpt>
      <trkpt lat="43.31315" lon="3.4979">
        <ele>56</ele>
        <time>2016-04-17T10:03:50.925Z</time>
      </trkpt>
      <trkpt lat="43.31313" lon="3.49778">
        <ele>56</ele>
        <time>2016-04-17T10:03:53.006Z</time>
      </trkpt>
      <trkpt lat="43.31313" lon="3.49771">
        <ele>56</ele>
        <time>2016-04-17T10:03:53.923Z</time>
      </trkpt>
      <trkpt lat="43.31311" lon="3.4976">
        <ele>56</ele>
        <time>2016-04-17T10:03:55.943Z</time>
      </trkpt>
      <trkpt lat="43.3131" lon="3.49754">
        <ele>57</ele>
        <time>2016-04-17T10:03:56.947Z</time>
      </trkpt>
      <trkpt lat="43.31311" lon="3.49743">
        <ele>57</ele>
        <time>2016-04-17T10:03:58.951Z</time>
      </trkpt>
      <trkpt lat="43.31311" lon="3.49737">
        <ele>57</ele>
        <time>2016-04-17T10:03:59.922Z</time>
      </trkpt>
      <trkpt lat="43.31312" lon="3.49726">
        <ele>56</ele>
        <time>2016-04-17T10:04:01.950Z</time>
      </trkpt>
      <trkpt lat="43.31313" lon="3.49719">
        <ele>56</ele>
        <time>2016-04-17T10:04:02.923Z</time>
      </trkpt>
      <trkpt lat="43.31313" lon="3.49709">
        <ele>57</ele>
        <time>2016-04-17T10:04:04.950Z</time>
      </trkpt>
      <trkpt lat="43.31313" lon="3.49703">
        <ele>57</ele>
        <time>2016-04-17T10:04:05.924Z</time>
      </trkpt>
      <trkpt lat="43.31315" lon="3.49696">
        <ele>57</ele>
        <time>2016-04-17T10:04:06.952Z</time>
      </trkpt>
      <trkpt lat="43.31314" lon="3.49689">
        <ele>57</ele>
        <time>2016-04-17T10:04:07.923Z</time>
      </trkpt>
      <trkpt lat="43.31313" lon="3.49678">
        <ele>58</ele>
        <time>2016-04-17T10:04:09.952Z</time>
      </trkpt>
      <trkpt lat="43.31314" lon="3.49674">
        <ele>59</ele>
        <time>2016-04-17T10:04:10.926Z</time>
      </trkpt>
      <trkpt lat="43.31315" lon="3.49662">
        <ele>59</ele>
        <time>2016-04-17T10:04:12.972Z</time>
      </trkpt>
      <trkpt lat="43.31316" lon="3.49655">
        <ele>60</ele>
        <time>2016-04-17T10:04:13.923Z</time>
      </trkpt>
      <trkpt lat="43.31317" lon="3.49647">
        <ele>60</ele>
        <time>2016-04-17T10:04:14.948Z</time>
      </trkpt>
      <trkpt lat="43.31319" lon="3.49639">
        <ele>60</ele>
        <time>2016-04-17T10:04:15.921Z</time>
      </trkpt>
      <trkpt lat="43.3132" lon="3.49633">
        <ele>60</ele>
        <time>2016-04-17T10:04:16.950Z</time>
      </trkpt>
      <trkpt lat="43.31321" lon="3.49627">
        <ele>62</ele>
        <time>2016-04-17T10:04:17.924Z</time>
      </trkpt>
      <trkpt lat="43.31323" lon="3.49615">
        <ele>62</ele>
        <time>2016-04-17T10:04:20.016Z</time>
      </trkpt>
      <trkpt lat="43.31327" lon="3.49608">
        <ele>62</ele>
        <time>2016-04-17T10:04:20.924Z</time>
      </trkpt>
      <trkpt lat="43.3133" lon="3.49598">
        <ele>62</ele>
        <time>2016-04-17T10:04:21.952Z</time>
      </trkpt>
      <trkpt lat="43.31332" lon="3.4959">
        <ele>61</ele>
        <time>2016-04-17T10:04:22.923Z</time>
      </trkpt>
      <trkpt lat="43.31334" lon="3.49583">
        <ele>60</ele>
        <time>2016-04-17T10:04:23.950Z</time>
      </trkpt>
      <trkpt lat="43.31337" lon="3.49576">
        <ele>59</ele>
        <time>2016-04-17T10:04:24.922Z</time>
      </trkpt>
      <trkpt lat="43.31342" lon="3.49568">
        <ele>62</ele>
        <time>2016-04-17T10:04:25.950Z</time>
      </trkpt>
      <trkpt lat="43.31345" lon="3.49562">
        <ele>60</ele>
        <time>2016-04-17T10:04:26.923Z</time>
      </trkpt>
      <trkpt lat="43.31349" lon="3.49556">
        <ele>59</ele>
        <time>2016-04-17T10:04:27.949Z</time>
      </trkpt>
      <trkpt lat="43.31352" lon="3.4955">
        <ele>59</ele>
        <time>2016-04-17T10:04:28.947Z</time>
      </trkpt>
      <trkpt lat="43.31357" lon="3.49545">
        <ele>58</ele>
        <time>2016-04-17T10:04:29.949Z</time>
      </trkpt>
      <trkpt lat="43.3136" lon="3.49537">
        <ele>56</ele>
        <time>2016-04-17T10:04:30.923Z</time>
      </trkpt>
      <trkpt lat="43.31362" lon="3.49532">
        <ele>55</ele>
        <time>2016-04-17T10:04:31.950Z</time>
      </trkpt>
      <trkpt lat="43.31365" lon="3.49526">
        <ele>55</ele>
        <time>2016-04-17T10:04:32.922Z</time>
      </trkpt>
      <trkpt lat="43.31368" lon="3.4952">
        <ele>54</ele>
        <time>2016-04-17T10:04:33.950Z</time>
      </trkpt>
      <trkpt lat="43.31371" lon="3.49513">
        <ele>54</ele>
        <time>2016-04-17T10:04:34.922Z</time>
      </trkpt>
      <trkpt lat="43.31374" lon="3.49508">
        <ele>53</ele>
        <time>2016-04-17T10:04:35.948Z</time>
      </trkpt>
      <trkpt lat="43.31378" lon="3.49503">
        <ele>53</ele>
        <time>2016-04-17T10:04:36.923Z</time>
      </trkpt>
      <trkpt lat="43.31383" lon="3.49498">
        <ele>53</ele>
        <time>2016-04-17T10:04:37.949Z</time>
      </trkpt>
      <trkpt lat="43.31387" lon="3.49493">
        <ele>53</ele>
        <time>2016-04-17T10:04:38.917Z</time>
      </trkpt>
      <trkpt lat="43.31392" lon="3.49489">
        <ele>53</ele>
        <time>2016-04-17T10:04:39.952Z</time>
      </trkpt>
      <trkpt lat="43.31395" lon="3.49485">
        <ele>54</ele>
        <time>2016-04-17T10:04:40.922Z</time>
      </trkpt>
      <trkpt lat="43.31398" lon="3.4948">
        <ele>53</ele>
        <time>2016-04-17T10:04:41.950Z</time>
      </trkpt>
      <trkpt lat="43.31402" lon="3.49476">
        <ele>53</ele>
        <time>2016-04-17T10:04:42.921Z</time>
      </trkpt>
      <trkpt lat="43.31404" lon="3.49471">
        <ele>52</ele>
        <time>2016-04-17T10:04:43.948Z</time>
      </trkpt>
      <trkpt lat="43.31405" lon="3.49462">
        <ele>51</ele>
        <time>2016-04-17T10:04:44.949Z</time>
      </trkpt>
      <trkpt lat="43.31408" lon="3.49456">
        <ele>53</ele>
        <time>2016-04-17T10:04:45.949Z</time>
      </trkpt>
      <trkpt lat="43.31411" lon="3.4945">
        <ele>52</ele>
        <time>2016-04-17T10:04:46.923Z</time>
      </trkpt>
      <trkpt lat="43.31413" lon="3.49444">
        <ele>52</ele>
        <time>2016-04-17T10:04:47.949Z</time>
      </trkpt>
      <trkpt lat="43.31416" lon="3.49439">
        <ele>52</ele>
        <time>2016-04-17T10:04:48.919Z</time>
      </trkpt>
      <trkpt lat="43.31419" lon="3.49432">
        <ele>51</ele>
        <time>2016-04-17T10:04:49.953Z</time>
      </trkpt>
      <trkpt lat="43.31422" lon="3.49427">
        <ele>51</ele>
        <time>2016-04-17T10:04:50.924Z</time>
      </trkpt>
      <trkpt lat="43.31425" lon="3.4942">
        <ele>50</ele>
        <time>2016-04-17T10:04:51.951Z</time>
      </trkpt>
      <trkpt lat="43.31428" lon="3.49415">
        <ele>51</ele>
        <time>2016-04-17T10:04:52.921Z</time>
      </trkpt>
      <trkpt lat="43.3143" lon="3.49408">
        <ele>50</ele>
        <time>2016-04-17T10:04:53.949Z</time>
      </trkpt>
      <trkpt lat="43.31433" lon="3.49404">
        <ele>49</ele>
        <time>2016-04-17T10:04:54.921Z</time>
      </trkpt>
      <trkpt lat="43.31438" lon="3.494">
        <ele>50</ele>
        <time>2016-04-17T10:04:55.949Z</time>
      </trkpt>
      <trkpt lat="43.31441" lon="3.49395">
        <ele>50</ele>
        <time>2016-04-17T10:04:56.922Z</time>
      </trkpt>
      <trkpt lat="43.31443" lon="3.4939">
        <ele>49</ele>
        <time>2016-04-17T10:04:57.948Z</time>
      </trkpt>
      <trkpt lat="43.31447" lon="3.49384">
        <ele>50</ele>
        <time>2016-04-17T10:04:58.922Z</time>
      </trkpt>
      <trkpt lat="43.31449" lon="3.49378">
        <ele>50</ele>
        <time>2016-04-17T10:04:59.949Z</time>
      </trkpt>
      <trkpt lat="43.31452" lon="3.49371">
        <ele>49</ele>
        <time>2016-04-17T10:05:00.919Z</time>
      </trkpt>
      <trkpt lat="43.31454" lon="3.49364">
        <ele>49</ele>
        <time>2016-04-17T10:05:01.948Z</time>
      </trkpt>
      <trkpt lat="43.31456" lon="3.49359">
        <ele>49</ele>
        <time>2016-04-17T10:05:02.921Z</time>
      </trkpt>
      <trkpt lat="43.3146" lon="3.49353">
        <ele>50</ele>
        <time>2016-04-17T10:05:03.948Z</time>
      </trkpt>
      <trkpt lat="43.31462" lon="3.49348">
        <ele>50</ele>
        <time>2016-04-17T10:05:04.938Z</time>
      </trkpt>
      <trkpt lat="43.31465" lon="3.49342">
        <ele>51</ele>
        <time>2016-04-17T10:05:05.949Z</time>
      </trkpt>
      <trkpt lat="43.31467" lon="3.49335">
        <ele>50</ele>
        <time>2016-04-17T10:05:06.922Z</time>
      </trkpt>
      <trkpt lat="43.31471" lon="3.49331">
        <ele>49</ele>
        <time>2016-04-17T10:05:07.949Z</time>
      </trkpt>
      <trkpt lat="43.31473" lon="3.49324">
        <ele>48</ele>
        <time>2016-04-17T10:05:08.923Z</time>
      </trkpt>
      <trkpt lat="43.31476" lon="3.49319">
        <ele>47</ele>
        <time>2016-04-17T10:05:10.086Z</time>
      </trkpt>
      <trkpt lat="43.31478" lon="3.49313">
        <ele>47</ele>
        <time>2016-04-17T10:05:10.922Z</time>
      </trkpt>
      <trkpt lat="43.31481" lon="3.49307">
        <ele>48</ele>
        <time>2016-04-17T10:05:11.949Z</time>
      </trkpt>
      <trkpt lat="43.31483" lon="3.49301">
        <ele>47</ele>
        <time>2016-04-17T10:05:12.921Z</time>
      </trkpt>
      <trkpt lat="43.31484" lon="3.49293">
        <ele>48</ele>
        <time>2016-04-17T10:05:13.950Z</time>
      </trkpt>
      <trkpt lat="43.31485" lon="3.49286">
        <ele>47</ele>
        <time>2016-04-17T10:05:14.923Z</time>
      </trkpt>
      <trkpt lat="43.31489" lon="3.49281">
        <ele>47</ele>
        <time>2016-04-17T10:05:15.950Z</time>
      </trkpt>
      <trkpt lat="43.31492" lon="3.49277">
        <ele>47</ele>
        <time>2016-04-17T10:05:16.948Z</time>
      </trkpt>
      <trkpt lat="43.31497" lon="3.49274">
        <ele>47</ele>
        <time>2016-04-17T10:05:17.950Z</time>
      </trkpt>
      <trkpt lat="43.315" lon="3.4927">
        <ele>47</ele>
        <time>2016-04-17T10:05:18.921Z</time>
      </trkpt>
      <trkpt lat="43.31501" lon="3.49264">
        <ele>47</ele>
        <time>2016-04-17T10:05:19.949Z</time>
      </trkpt>
      <trkpt lat="43.31504" lon="3.49256">
        <ele>46</ele>
        <time>2016-04-17T10:05:20.921Z</time>
      </trkpt>
      <trkpt lat="43.31506" lon="3.49249">
        <ele>46</ele>
        <time>2016-04-17T10:05:22.021Z</time>
      </trkpt>
      <trkpt lat="43.31507" lon="3.49241">
        <ele>47</ele>
        <time>2016-04-17T10:05:22.922Z</time>
      </trkpt>
      <trkpt lat="43.31508" lon="3.49233">
        <ele>49</ele>
        <time>2016-04-17T10:05:23.949Z</time>
      </trkpt>
      <trkpt lat="43.3151" lon="3.49227">
        <ele>48</ele>
        <time>2016-04-17T10:05:24.922Z</time>
      </trkpt>
      <trkpt lat="43.31514" lon="3.49221">
        <ele>48</ele>
        <time>2016-04-17T10:05:25.950Z</time>
      </trkpt>
      <trkpt lat="43.31518" lon="3.49217">
        <ele>47</ele>
        <time>2016-04-17T10:05:26.936Z</time>
      </trkpt>
      <trkpt lat="43.3152" lon="3.4921">
        <ele>47</ele>
        <time>2016-04-17T10:05:27.949Z</time>
      </trkpt>
      <trkpt lat="43.31521" lon="3.49205">
        <ele>47</ele>
        <time>2016-04-17T10:05:28.922Z</time>
      </trkpt>
      <trkpt lat="43.31526" lon="3.49201">
        <ele>47</ele>
        <time>2016-04-17T10:05:29.950Z</time>
      </trkpt>
      <trkpt lat="43.31529" lon="3.49195">
        <ele>47</ele>
        <time>2016-04-17T10:05:30.922Z</time>
      </trkpt>
      <trkpt lat="43.3153" lon="3.49189">
        <ele>46</ele>
        <time>2016-04-17T10:05:32.036Z</time>
      </trkpt>
      <trkpt lat="43.31533" lon="3.49181">
        <ele>47</ele>
        <time>2016-04-17T10:05:32.948Z</time>
      </trkpt>
      <trkpt lat="43.31535" lon="3.4917">
        <ele>48</ele>
        <time>2016-04-17T10:05:34.950Z</time>
      </trkpt>
      <trkpt lat="43.31537" lon="3.49165">
        <ele>52</ele>
        <time>2016-04-17T10:05:35.923Z</time>
      </trkpt>
      <trkpt lat="43.31538" lon="3.49157">
        <ele>52</ele>
        <time>2016-04-17T10:05:36.951Z</time>
      </trkpt>
      <trkpt lat="43.31541" lon="3.49151">
        <ele>51</ele>
        <time>2016-04-17T10:05:37.923Z</time>
      </trkpt>
      <trkpt lat="43.31544" lon="3.49145">
        <ele>51</ele>
        <time>2016-04-17T10:05:38.951Z</time>
      </trkpt>
      <trkpt lat="43.31548" lon="3.49139">
        <ele>50</ele>
        <time>2016-04-17T10:05:39.922Z</time>
      </trkpt>
      <trkpt lat="43.3155" lon="3.49132">
        <ele>51</ele>
        <time>2016-04-17T10:05:41.948Z</time>
      </trkpt>
      <trkpt lat="43.31551" lon="3.49128">
        <ele>49</ele>
        <time>2016-04-17T10:05:42.922Z</time>
      </trkpt>
      <trkpt lat="43.31552" lon="3.49116">
        <ele>50</ele>
        <time>2016-04-17T10:05:44.946Z</time>
      </trkpt>
      <trkpt lat="43.31552" lon="3.49114">
        <ele>51</ele>
        <time>2016-04-17T10:05:45.924Z</time>
      </trkpt>
      <trkpt lat="43.31554" lon="3.49107">
        <ele>51</ele>
        <time>2016-04-17T10:05:46.958Z</time>
      </trkpt>
      <trkpt lat="43.31557" lon="3.49098">
        <ele>51</ele>
        <time>2016-04-17T10:05:47.925Z</time>
      </trkpt>
      <trkpt lat="43.31561" lon="3.49089">
        <ele>51</ele>
        <time>2016-04-17T10:05:48.978Z</time>
      </trkpt>
      <trkpt lat="43.31563" lon="3.49083">
        <ele>52</ele>
        <time>2016-04-17T10:05:49.924Z</time>
      </trkpt>
      <trkpt lat="43.31566" lon="3.49076">
        <ele>51</ele>
        <time>2016-04-17T10:05:50.950Z</time>
      </trkpt>
      <trkpt lat="43.31567" lon="3.4907">
        <ele>51</ele>
        <time>2016-04-17T10:05:51.923Z</time>
      </trkpt>
      <trkpt lat="43.31569" lon="3.49065">
        <ele>51</ele>
        <time>2016-04-17T10:05:52.949Z</time>
      </trkpt>
      <trkpt lat="43.31572" lon="3.49058">
        <ele>50</ele>
        <time>2016-04-17T10:05:53.924Z</time>
      </trkpt>
      <trkpt lat="43.31574" lon="3.49051">
        <ele>49</ele>
        <time>2016-04-17T10:05:55.037Z</time>
      </trkpt>
      <trkpt lat="43.31577" lon="3.49046">
        <ele>49</ele>
        <time>2016-04-17T10:05:55.922Z</time>
      </trkpt>
      <trkpt lat="43.31579" lon="3.49035">
        <ele>50</ele>
        <time>2016-04-17T10:05:57.951Z</time>
      </trkpt>
      <trkpt lat="43.31581" lon="3.49029">
        <ele>51</ele>
        <time>2016-04-17T10:05:58.921Z</time>
      </trkpt>
      <trkpt lat="43.31584" lon="3.49024">
        <ele>51</ele>
        <time>2016-04-17T10:05:59.951Z</time>
      </trkpt>
      <trkpt lat="43.31586" lon="3.49017">
        <ele>51</ele>
        <time>2016-04-17T10:06:00.920Z</time>
      </trkpt>
      <trkpt lat="43.31588" lon="3.49011">
        <ele>51</ele>
        <time>2016-04-17T10:06:01.951Z</time>
      </trkpt>
      <trkpt lat="43.31591" lon="3.49005">
        <ele>52</ele>
        <time>2016-04-17T10:06:02.922Z</time>
      </trkpt>
      <trkpt lat="43.31595" lon="3.48996">
        <ele>54</ele>
        <time>2016-04-17T10:06:04.973Z</time>
      </trkpt>
      <trkpt lat="43.31598" lon="3.4899">
        <ele>53</ele>
        <time>2016-04-17T10:06:05.923Z</time>
      </trkpt>
      <trkpt lat="43.316" lon="3.48985">
        <ele>52</ele>
        <time>2016-04-17T10:06:07.080Z</time>
      </trkpt>
      <trkpt lat="43.31602" lon="3.48979">
        <ele>51</ele>
        <time>2016-04-17T10:06:07.924Z</time>
      </trkpt>
      <trkpt lat="43.31603" lon="3.48973">
        <ele>51</ele>
        <time>2016-04-17T10:06:08.950Z</time>
      </trkpt>
      <trkpt lat="43.31605" lon="3.48966">
        <ele>52</ele>
        <time>2016-04-17T10:06:09.924Z</time>
      </trkpt>
      <trkpt lat="43.31608" lon="3.48962">
        <ele>52</ele>
        <time>2016-04-17T10:06:10.951Z</time>
      </trkpt>
      <trkpt lat="43.31611" lon="3.48957">
        <ele>52</ele>
        <time>2016-04-17T10:06:11.923Z</time>
      </trkpt>
      <trkpt lat="43.31613" lon="3.48951">
        <ele>53</ele>
        <time>2016-04-17T10:06:12.950Z</time>
      </trkpt>
      <trkpt lat="43.31616" lon="3.48946">
        <ele>53</ele>
        <time>2016-04-17T10:06:13.922Z</time>
      </trkpt>
      <trkpt lat="43.3162" lon="3.4894">
        <ele>52</ele>
        <time>2016-04-17T10:06:14.949Z</time>
      </trkpt>
      <trkpt lat="43.31622" lon="3.48935">
        <ele>51</ele>
        <time>2016-04-17T10:06:15.923Z</time>
      </trkpt>
      <trkpt lat="43.31625" lon="3.48931">
        <ele>52</ele>
        <time>2016-04-17T10:06:16.947Z</time>
      </trkpt>
      <trkpt lat="43.31627" lon="3.48925">
        <ele>51</ele>
        <time>2016-04-17T10:06:17.921Z</time>
      </trkpt>
      <trkpt lat="43.3163" lon="3.4892">
        <ele>50</ele>
        <time>2016-04-17T10:06:18.950Z</time>
      </trkpt>
      <trkpt lat="43.31632" lon="3.48913">
        <ele>49</ele>
        <time>2016-04-17T10:06:19.923Z</time>
      </trkpt>
      <trkpt lat="43.31639" lon="3.48905">
        <ele>51</ele>
        <time>2016-04-17T10:06:21.950Z</time>
      </trkpt>
      <trkpt lat="43.31641" lon="3.48901">
        <ele>51</ele>
        <time>2016-04-17T10:06:22.922Z</time>
      </trkpt>
      <trkpt lat="43.31643" lon="3.48896">
        <ele>50</ele>
        <time>2016-04-17T10:06:23.952Z</time>
      </trkpt>
      <trkpt lat="43.31646" lon="3.48891">
        <ele>50</ele>
        <time>2016-04-17T10:06:24.923Z</time>
      </trkpt>
      <trkpt lat="43.3165" lon="3.48882">
        <ele>51</ele>
        <time>2016-04-17T10:06:26.952Z</time>
      </trkpt>
      <trkpt lat="43.31654" lon="3.48876">
        <ele>50</ele>
        <time>2016-04-17T10:06:27.923Z</time>
      </trkpt>
      <trkpt lat="43.31659" lon="3.48869">
        <ele>50</ele>
        <time>2016-04-17T10:06:29.950Z</time>
      </trkpt>
      <trkpt lat="43.31663" lon="3.48865">
        <ele>51</ele>
        <time>2016-04-17T10:06:30.923Z</time>
      </trkpt>
      <trkpt lat="43.31669" lon="3.48857">
        <ele>52</ele>
        <time>2016-04-17T10:06:32.947Z</time>
      </trkpt>
      <trkpt lat="43.31672" lon="3.48854">
        <ele>52</ele>
        <time>2016-04-17T10:06:33.923Z</time>
      </trkpt>
      <trkpt lat="43.31681" lon="3.4885">
        <ele>52</ele>
        <time>2016-04-17T10:06:35.951Z</time>
      </trkpt>
      <trkpt lat="43.31684" lon="3.48848">
        <ele>52</ele>
        <time>2016-04-17T10:06:36.923Z</time>
      </trkpt>
      <trkpt lat="43.31692" lon="3.48847">
        <ele>51</ele>
        <time>2016-04-17T10:06:38.950Z</time>
      </trkpt>
      <trkpt lat="43.31696" lon="3.48844">
        <ele>51</ele>
        <time>2016-04-17T10:06:39.922Z</time>
      </trkpt>
      <trkpt lat="43.31705" lon="3.48841">
        <ele>51</ele>
        <time>2016-04-17T10:06:41.977Z</time>
      </trkpt>
      <trkpt lat="43.31709" lon="3.48841">
        <ele>50</ele>
        <time>2016-04-17T10:06:42.924Z</time>
      </trkpt>
      <trkpt lat="43.31716" lon="3.48836">
        <ele>50</ele>
        <time>2016-04-17T10:06:44.951Z</time>
      </trkpt>
      <trkpt lat="43.31719" lon="3.48832">
        <ele>50</ele>
        <time>2016-04-17T10:06:45.923Z</time>
      </trkpt>
      <trkpt lat="43.31726" lon="3.48828">
        <ele>50</ele>
        <time>2016-04-17T10:06:47.951Z</time>
      </trkpt>
      <trkpt lat="43.3173" lon="3.48825">
        <ele>50</ele>
        <time>2016-04-17T10:06:48.920Z</time>
      </trkpt>
      <trkpt lat="43.31735" lon="3.48822">
        <ele>49</ele>
        <time>2016-04-17T10:06:49.951Z</time>
      </trkpt>
      <trkpt lat="43.31738" lon="3.4882">
        <ele>50</ele>
        <time>2016-04-17T10:06:50.924Z</time>
      </trkpt>
      <trkpt lat="43.31743" lon="3.48817">
        <ele>51</ele>
        <time>2016-04-17T10:06:51.950Z</time>
      </trkpt>
      <trkpt lat="43.31747" lon="3.48815">
        <ele>50</ele>
        <time>2016-04-17T10:06:52.923Z</time>
      </trkpt>
      <trkpt lat="43.31755" lon="3.4881">
        <ele>51</ele>
        <time>2016-04-17T10:06:54.949Z</time>
      </trkpt>
      <trkpt lat="43.31759" lon="3.48808">
        <ele>51</ele>
        <time>2016-04-17T10:06:55.922Z</time>
      </trkpt>
      <trkpt lat="43.31767" lon="3.48804">
        <ele>52</ele>
        <time>2016-04-17T10:06:57.972Z</time>
      </trkpt>
      <trkpt lat="43.31771" lon="3.48802">
        <ele>50</ele>
        <time>2016-04-17T10:06:58.923Z</time>
      </trkpt>
      <trkpt lat="43.31775" lon="3.48801">
        <ele>50</ele>
        <time>2016-04-17T10:06:59.949Z</time>
      </trkpt>
      <trkpt lat="43.3178" lon="3.488">
        <ele>51</ele>
        <time>2016-04-17T10:07:00.923Z</time>
      </trkpt>
      <trkpt lat="43.31788" lon="3.48794">
        <ele>52</ele>
        <time>2016-04-17T10:07:02.951Z</time>
      </trkpt>
      <trkpt lat="43.31792" lon="3.4879">
        <ele>50</ele>
        <time>2016-04-17T10:07:03.923Z</time>
      </trkpt>
      <trkpt lat="43.318" lon="3.48786">
        <ele>50</ele>
        <time>2016-04-17T10:07:05.949Z</time>
      </trkpt>
      <trkpt lat="43.31804" lon="3.48785">
        <ele>51</ele>
        <time>2016-04-17T10:07:06.923Z</time>
      </trkpt>
      <trkpt lat="43.31808" lon="3.48784">
        <ele>51</ele>
        <time>2016-04-17T10:07:07.949Z</time>
      </trkpt>
      <trkpt lat="43.31813" lon="3.48783">
        <ele>52</ele>
        <time>2016-04-17T10:07:08.923Z</time>
      </trkpt>
      <trkpt lat="43.31817" lon="3.4878">
        <ele>52</ele>
        <time>2016-04-17T10:07:09.949Z</time>
      </trkpt>
      <trkpt lat="43.31822" lon="3.48779">
        <ele>52</ele>
        <time>2016-04-17T10:07:10.922Z</time>
      </trkpt>
      <trkpt lat="43.31826" lon="3.48776">
        <ele>52</ele>
        <time>2016-04-17T10:07:11.951Z</time>
      </trkpt>
      <trkpt lat="43.3183" lon="3.48774">
        <ele>51</ele>
        <time>2016-04-17T10:07:12.921Z</time>
      </trkpt>
      <trkpt lat="43.31834" lon="3.48772">
        <ele>51</ele>
        <time>2016-04-17T10:07:13.977Z</time>
      </trkpt>
      <trkpt lat="43.31839" lon="3.48769">
        <ele>50</ele>
        <time>2016-04-17T10:07:14.923Z</time>
      </trkpt>
      <trkpt lat="43.31847" lon="3.48764">
        <ele>51</ele>
        <time>2016-04-17T10:07:16.949Z</time>
      </trkpt>
      <trkpt lat="43.31851" lon="3.48761">
        <ele>52</ele>
        <time>2016-04-17T10:07:17.919Z</time>
      </trkpt>
      <trkpt lat="43.31859" lon="3.48758">
        <ele>50</ele>
        <time>2016-04-17T10:07:19.949Z</time>
      </trkpt>
      <trkpt lat="43.31863" lon="3.48757">
        <ele>49</ele>
        <time>2016-04-17T10:07:20.922Z</time>
      </trkpt>
      <trkpt lat="43.31867" lon="3.48754">
        <ele>48</ele>
        <time>2016-04-17T10:07:21.949Z</time>
      </trkpt>
      <trkpt lat="43.31872" lon="3.48752">
        <ele>48</ele>
        <time>2016-04-17T10:07:22.923Z</time>
      </trkpt>
      <trkpt lat="43.31876" lon="3.48749">
        <ele>48</ele>
        <time>2016-04-17T10:07:23.950Z</time>
      </trkpt>
      <trkpt lat="43.3188" lon="3.48747">
        <ele>48</ele>
        <time>2016-04-17T10:07:24.923Z</time>
      </trkpt>
      <trkpt lat="43.31888" lon="3.48742">
        <ele>49</ele>
        <time>2016-04-17T10:07:26.950Z</time>
      </trkpt>
      <trkpt lat="43.31892" lon="3.4874">
        <ele>49</ele>
        <time>2016-04-17T10:07:27.922Z</time>
      </trkpt>
      <trkpt lat="43.31897" lon="3.48737">
        <ele>50</ele>
        <time>2016-04-17T10:07:28.950Z</time>
      </trkpt>
      <trkpt lat="43.31901" lon="3.48734">
        <ele>50</ele>
        <time>2016-04-17T10:07:29.949Z</time>
      </trkpt>
      <trkpt lat="43.31905" lon="3.48732">
        <ele>50</ele>
        <time>2016-04-17T10:07:30.950Z</time>
      </trkpt>
      <trkpt lat="43.3191" lon="3.48729">
        <ele>50</ele>
        <time>2016-04-17T10:07:31.915Z</time>
      </trkpt>
      <trkpt lat="43.31917" lon="3.48722">
        <ele>48</ele>
        <time>2016-04-17T10:07:33.949Z</time>
      </trkpt>
      <trkpt lat="43.31921" lon="3.48717">
        <ele>48</ele>
        <time>2016-04-17T10:07:34.922Z</time>
      </trkpt>
      <trkpt lat="43.31927" lon="3.48711">
        <ele>48</ele>
        <time>2016-04-17T10:07:36.945Z</time>
      </trkpt>
      <trkpt lat="43.3193" lon="3.48709">
        <ele>49</ele>
        <time>2016-04-17T10:07:37.922Z</time>
      </trkpt>
      <trkpt lat="43.31936" lon="3.48703">
        <ele>50</ele>
        <time>2016-04-17T10:07:39.951Z</time>
      </trkpt>
      <trkpt lat="43.31938" lon="3.48698">
        <ele>51</ele>
        <time>2016-04-17T10:07:40.922Z</time>
      </trkpt>
      <trkpt lat="43.31941" lon="3.48691">
        <ele>53</ele>
        <time>2016-04-17T10:07:42.951Z</time>
      </trkpt>
      <trkpt lat="43.31943" lon="3.48685">
        <ele>51</ele>
        <time>2016-04-17T10:07:43.923Z</time>
      </trkpt>
      <trkpt lat="43.31946" lon="3.48676">
        <ele>51</ele>
        <time>2016-04-17T10:07:45.970Z</time>
      </trkpt>
      <trkpt lat="43.31939" lon="3.48674">
        <ele>51</ele>
        <time>2016-04-17T10:07:46.923Z</time>
      </trkpt>
      <trkpt lat="43.31935" lon="3.48666">
        <ele>55</ele>
        <time>2016-04-17T10:07:49.945Z</time>
      </trkpt>
      <trkpt lat="43.31933" lon="3.48663">
        <ele>57</ele>
        <time>2016-04-17T10:07:50.927Z</time>
      </trkpt>
      <trkpt lat="43.31926" lon="3.48657">
        <ele>59</ele>
        <time>2016-04-17T10:07:53.955Z</time>
      </trkpt>
      <trkpt lat="43.31923" lon="3.48654">
        <ele>59</ele>
        <time>2016-04-17T10:07:54.927Z</time>
      </trkpt>
      <trkpt lat="43.31919" lon="3.48646">
        <ele>57</ele>
        <time>2016-04-17T10:07:56.946Z</time>
      </trkpt>
      <trkpt lat="43.31917" lon="3.48644">
        <ele>59</ele>
        <time>2016-04-17T10:07:57.923Z</time>
      </trkpt>
      <trkpt lat="43.31912" lon="3.48634">
        <ele>59</ele>
        <time>2016-04-17T10:08:00.940Z</time>
      </trkpt>
      <trkpt lat="43.31911" lon="3.48634">
        <ele>59</ele>
        <time>2016-04-17T10:08:01.921Z</time>
      </trkpt>
      <trkpt lat="43.31907" lon="3.48624">
        <ele>60</ele>
        <time>2016-04-17T10:08:07.967Z</time>
      </trkpt>
      <trkpt lat="43.31905" lon="3.48622">
        <ele>60</ele>
        <time>2016-04-17T10:08:08.916Z</time>
      </trkpt>
      <trkpt lat="43.3191" lon="3.48631">
        <ele>52</ele>
        <time>2016-04-17T10:08:20.943Z</time>
      </trkpt>
      <trkpt lat="43.31911" lon="3.48633">
        <ele>52</ele>
        <time>2016-04-17T10:08:21.912Z</time>
      </trkpt>
      <trkpt lat="43.31914" lon="3.48644">
        <ele>51</ele>
        <time>2016-04-17T10:08:25.945Z</time>
      </trkpt>
      <trkpt lat="43.31915" lon="3.48647">
        <ele>51</ele>
        <time>2016-04-17T10:08:26.914Z</time>
      </trkpt>
      <trkpt lat="43.31911" lon="3.48657">
        <ele>60</ele>
        <time>2016-04-17T10:08:53.938Z</time>
      </trkpt>
      <trkpt lat="43.31908" lon="3.48658">
        <ele>61</ele>
        <time>2016-04-17T10:08:54.916Z</time>
      </trkpt>
      <trkpt lat="43.31903" lon="3.48663">
        <ele>63</ele>
        <time>2016-04-17T10:08:56.941Z</time>
      </trkpt>
      <trkpt lat="43.31901" lon="3.48665">
        <ele>61</ele>
        <time>2016-04-17T10:08:57.919Z</time>
      </trkpt>
      <trkpt lat="43.31894" lon="3.4867">
        <ele>62</ele>
        <time>2016-04-17T10:08:59.940Z</time>
      </trkpt>
      <trkpt lat="43.31892" lon="3.48673">
        <ele>62</ele>
        <time>2016-04-17T10:09:00.915Z</time>
      </trkpt>
      <trkpt lat="43.31888" lon="3.48675">
        <ele>61</ele>
        <time>2016-04-17T10:09:01.943Z</time>
      </trkpt>
      <trkpt lat="43.31883" lon="3.48678">
        <ele>61</ele>
        <time>2016-04-17T10:09:02.917Z</time>
      </trkpt>
      <trkpt lat="43.31876" lon="3.48681">
        <ele>60</ele>
        <time>2016-04-17T10:09:04.941Z</time>
      </trkpt>
      <trkpt lat="43.31873" lon="3.48684">
        <ele>60</ele>
        <time>2016-04-17T10:09:05.938Z</time>
      </trkpt>
      <trkpt lat="43.31867" lon="3.48687">
        <ele>61</ele>
        <time>2016-04-17T10:09:07.947Z</time>
      </trkpt>
      <trkpt lat="43.31862" lon="3.48689">
        <ele>61</ele>
        <time>2016-04-17T10:09:08.918Z</time>
      </trkpt>
      <trkpt lat="43.31855" lon="3.48692">
        <ele>60</ele>
        <time>2016-04-17T10:09:10.948Z</time>
      </trkpt>
      <trkpt lat="43.31853" lon="3.48693">
        <ele>60</ele>
        <time>2016-04-17T10:09:11.919Z</time>
      </trkpt>
      <trkpt lat="43.31845" lon="3.48698">
        <ele>57</ele>
        <time>2016-04-17T10:09:14.945Z</time>
      </trkpt>
      <trkpt lat="43.31844" lon="3.487">
        <ele>58</ele>
        <time>2016-04-17T10:09:15.918Z</time>
      </trkpt>
      <trkpt lat="43.31837" lon="3.48703">
        <ele>58</ele>
        <time>2016-04-17T10:09:18.945Z</time>
      </trkpt>
      <trkpt lat="43.31835" lon="3.48704">
        <ele>59</ele>
        <time>2016-04-17T10:09:19.917Z</time>
      </trkpt>
      <trkpt lat="43.31828" lon="3.4871">
        <ele>59</ele>
        <time>2016-04-17T10:09:22.936Z</time>
      </trkpt>
      <trkpt lat="43.31823" lon="3.48711">
        <ele>58</ele>
        <time>2016-04-17T10:09:23.917Z</time>
      </trkpt>
      <trkpt lat="43.31817" lon="3.48714">
        <ele>60</ele>
        <time>2016-04-17T10:09:26.966Z</time>
      </trkpt>
      <trkpt lat="43.3181" lon="3.48714">
        <ele>58</ele>
        <time>2016-04-17T10:09:27.915Z</time>
      </trkpt>
      <trkpt lat="43.31802" lon="3.48717">
        <ele>58</ele>
        <time>2016-04-17T10:09:30.940Z</time>
      </trkpt>
      <trkpt lat="43.318" lon="3.48718">
        <ele>58</ele>
        <time>2016-04-17T10:09:31.921Z</time>
      </trkpt>
      <trkpt lat="43.31794" lon="3.48723">
        <ele>58</ele>
        <time>2016-04-17T10:09:33.942Z</time>
      </trkpt>
      <trkpt lat="43.31792" lon="3.48726">
        <ele>59</ele>
        <time>2016-04-17T10:09:34.917Z</time>
      </trkpt>
      <trkpt lat="43.31785" lon="3.48729">
        <ele>59</ele>
        <time>2016-04-17T10:09:36.941Z</time>
      </trkpt>
      <trkpt lat="43.31781" lon="3.48731">
        <ele>59</ele>
        <time>2016-04-17T10:09:37.916Z</time>
      </trkpt>
      <trkpt lat="43.31775" lon="3.48735">
        <ele>58</ele>
        <time>2016-04-17T10:09:39.938Z</time>
      </trkpt>
      <trkpt lat="43.31771" lon="3.48737">
        <ele>58</ele>
        <time>2016-04-17T10:09:40.917Z</time>
      </trkpt>
      <trkpt lat="43.31765" lon="3.48741">
        <ele>57</ele>
        <time>2016-04-17T10:09:42.963Z</time>
      </trkpt>
      <trkpt lat="43.31763" lon="3.48744">
        <ele>58</ele>
        <time>2016-04-17T10:09:43.917Z</time>
      </trkpt>
      <trkpt lat="43.31758" lon="3.48745">
        <ele>57</ele>
        <time>2016-04-17T10:09:44.941Z</time>
      </trkpt>
      <trkpt lat="43.31754" lon="3.48747">
        <ele>57</ele>
        <time>2016-04-17T10:09:45.919Z</time>
      </trkpt>
      <trkpt lat="43.31747" lon="3.48751">
        <ele>57</ele>
        <time>2016-04-17T10:09:47.939Z</time>
      </trkpt>
      <trkpt lat="43.31744" lon="3.48753">
        <ele>57</ele>
        <time>2016-04-17T10:09:48.915Z</time>
      </trkpt>
      <trkpt lat="43.31736" lon="3.48758">
        <ele>56</ele>
        <time>2016-04-17T10:09:50.939Z</time>
      </trkpt>
      <trkpt lat="43.31732" lon="3.4876">
        <ele>56</ele>
        <time>2016-04-17T10:09:51.917Z</time>
      </trkpt>
      <trkpt lat="43.31723" lon="3.48762">
        <ele>56</ele>
        <time>2016-04-17T10:09:53.940Z</time>
      </trkpt>
      <trkpt lat="43.3172" lon="3.48764">
        <ele>56</ele>
        <time>2016-04-17T10:09:54.918Z</time>
      </trkpt>
      <trkpt lat="43.31712" lon="3.48768">
        <ele>56</ele>
        <time>2016-04-17T10:09:56.941Z</time>
      </trkpt>
      <trkpt lat="43.31708" lon="3.48771">
        <ele>56</ele>
        <time>2016-04-17T10:09:57.917Z</time>
      </trkpt>
      <trkpt lat="43.31704" lon="3.48774">
        <ele>56</ele>
        <time>2016-04-17T10:09:58.963Z</time>
      </trkpt>
      <trkpt lat="43.31699" lon="3.48775">
        <ele>56</ele>
        <time>2016-04-17T10:09:59.918Z</time>
      </trkpt>
      <trkpt lat="43.31694" lon="3.48777">
        <ele>56</ele>
        <time>2016-04-17T10:10:00.931Z</time>
      </trkpt>
      <trkpt lat="43.31691" lon="3.48779">
        <ele>56</ele>
        <time>2016-04-17T10:10:01.917Z</time>
      </trkpt>
      <trkpt lat="43.31684" lon="3.48785">
        <ele>57</ele>
        <time>2016-04-17T10:10:03.940Z</time>
      </trkpt>
      <trkpt lat="43.31681" lon="3.48787">
        <ele>56</ele>
        <time>2016-04-17T10:10:04.916Z</time>
      </trkpt>
      <trkpt lat="43.31672" lon="3.48791">
        <ele>56</ele>
        <time>2016-04-17T10:10:06.941Z</time>
      </trkpt>
      <trkpt lat="43.31669" lon="3.48793">
        <ele>56</ele>
        <time>2016-04-17T10:10:07.916Z</time>
      </trkpt>
      <trkpt lat="43.31662" lon="3.48798">
        <ele>57</ele>
        <time>2016-04-17T10:10:09.941Z</time>
      </trkpt>
      <trkpt lat="43.31659" lon="3.48801">
        <ele>58</ele>
        <time>2016-04-17T10:10:10.918Z</time>
      </trkpt>
      <trkpt lat="43.31652" lon="3.48806">
        <ele>57</ele>
        <time>2016-04-17T10:10:12.940Z</time>
      </trkpt>
      <trkpt lat="43.31648" lon="3.48809">
        <ele>56</ele>
        <time>2016-04-17T10:10:13.917Z</time>
      </trkpt>
      <trkpt lat="43.31642" lon="3.48816">
        <ele>58</ele>
        <time>2016-04-17T10:10:15.938Z</time>
      </trkpt>
      <trkpt lat="43.3164" lon="3.4882">
        <ele>58</ele>
        <time>2016-04-17T10:10:16.916Z</time>
      </trkpt>
      <trkpt lat="43.31633" lon="3.48827">
        <ele>58</ele>
        <time>2016-04-17T10:10:18.940Z</time>
      </trkpt>
      <trkpt lat="43.3163" lon="3.48832">
        <ele>57</ele>
        <time>2016-04-17T10:10:19.938Z</time>
      </trkpt>
      <trkpt lat="43.31623" lon="3.48839">
        <ele>58</ele>
        <time>2016-04-17T10:10:21.946Z</time>
      </trkpt>
      <trkpt lat="43.31619" lon="3.48843">
        <ele>58</ele>
        <time>2016-04-17T10:10:22.916Z</time>
      </trkpt>
      <trkpt lat="43.31615" lon="3.48848">
        <ele>57</ele>
        <time>2016-04-17T10:10:23.938Z</time>
      </trkpt>
      <trkpt lat="43.31611" lon="3.48852">
        <ele>56</ele>
        <time>2016-04-17T10:10:24.916Z</time>
      </trkpt>
      <trkpt lat="43.31609" lon="3.48857">
        <ele>56</ele>
        <time>2016-04-17T10:10:25.940Z</time>
      </trkpt>
      <trkpt lat="43.31606" lon="3.48862">
        <ele>56</ele>
        <time>2016-04-17T10:10:26.916Z</time>
      </trkpt>
      <trkpt lat="43.31602" lon="3.48866">
        <ele>56</ele>
        <time>2016-04-17T10:10:27.939Z</time>
      </trkpt>
      <trkpt lat="43.31599" lon="3.48871">
        <ele>56</ele>
        <time>2016-04-17T10:10:28.917Z</time>
      </trkpt>
      <trkpt lat="43.31596" lon="3.48877">
        <ele>56</ele>
        <time>2016-04-17T10:10:29.939Z</time>
      </trkpt>
      <trkpt lat="43.31593" lon="3.48881">
        <ele>56</ele>
        <time>2016-04-17T10:10:30.916Z</time>
      </trkpt>
      <trkpt lat="43.3159" lon="3.48887">
        <ele>56</ele>
        <time>2016-04-17T10:10:31.939Z</time>
      </trkpt>
      <trkpt lat="43.31588" lon="3.48892">
        <ele>56</ele>
        <time>2016-04-17T10:10:32.916Z</time>
      </trkpt>
      <trkpt lat="43.31584" lon="3.48898">
        <ele>55</ele>
        <time>2016-04-17T10:10:33.938Z</time>
      </trkpt>
      <trkpt lat="43.31581" lon="3.48903">
        <ele>55</ele>
        <time>2016-04-17T10:10:34.916Z</time>
      </trkpt>
      <trkpt lat="43.31579" lon="3.48912">
        <ele>57</ele>
        <time>2016-04-17T10:10:36.939Z</time>
      </trkpt>
      <trkpt lat="43.31576" lon="3.48917">
        <ele>56</ele>
        <time>2016-04-17T10:10:37.916Z</time>
      </trkpt>
      <trkpt lat="43.31571" lon="3.48927">
        <ele>56</ele>
        <time>2016-04-17T10:10:39.938Z</time>
      </trkpt>
      <trkpt lat="43.3157" lon="3.48932">
        <ele>56</ele>
        <time>2016-04-17T10:10:40.916Z</time>
      </trkpt>
      <trkpt lat="43.31567" lon="3.48936">
        <ele>55</ele>
        <time>2016-04-17T10:10:41.939Z</time>
      </trkpt>
      <trkpt lat="43.31563" lon="3.48942">
        <ele>53</ele>
        <time>2016-04-17T10:10:42.918Z</time>
      </trkpt>
      <trkpt lat="43.31559" lon="3.48952">
        <ele>53</ele>
        <time>2016-04-17T10:10:44.938Z</time>
      </trkpt>
      <trkpt lat="43.31556" lon="3.48957">
        <ele>53</ele>
        <time>2016-04-17T10:10:45.919Z</time>
      </trkpt>
      <trkpt lat="43.31553" lon="3.48963">
        <ele>53</ele>
        <time>2016-04-17T10:10:46.945Z</time>
      </trkpt>
      <trkpt lat="43.3155" lon="3.48968">
        <ele>53</ele>
        <time>2016-04-17T10:10:47.917Z</time>
      </trkpt>
      <trkpt lat="43.31546" lon="3.48978">
        <ele>53</ele>
        <time>2016-04-17T10:10:49.945Z</time>
      </trkpt>
      <trkpt lat="43.31544" lon="3.48983">
        <ele>52</ele>
        <time>2016-04-17T10:10:50.912Z</time>
      </trkpt>
      <trkpt lat="43.31544" lon="3.48989">
        <ele>52</ele>
        <time>2016-04-17T10:10:51.971Z</time>
      </trkpt>
      <trkpt lat="43.31545" lon="3.48995">
        <ele>52</ele>
        <time>2016-04-17T10:10:52.918Z</time>
      </trkpt>
      <trkpt lat="43.31543" lon="3.49005">
        <ele>54</ele>
        <time>2016-04-17T10:10:54.945Z</time>
      </trkpt>
      <trkpt lat="43.31542" lon="3.4901">
        <ele>54</ele>
        <time>2016-04-17T10:10:55.912Z</time>
      </trkpt>
      <trkpt lat="43.31535" lon="3.49015">
        <ele>51</ele>
        <time>2016-04-17T10:10:56.942Z</time>
      </trkpt>
      <trkpt lat="43.31533" lon="3.49019">
        <ele>51</ele>
        <time>2016-04-17T10:10:57.918Z</time>
      </trkpt>
      <trkpt lat="43.31528" lon="3.49029">
        <ele>51</ele>
        <time>2016-04-17T10:10:59.943Z</time>
      </trkpt>
      <trkpt lat="43.31527" lon="3.49034">
        <ele>52</ele>
        <time>2016-04-17T10:11:00.920Z</time>
      </trkpt>
      <trkpt lat="43.31523" lon="3.49045">
        <ele>52</ele>
        <time>2016-04-17T10:11:02.936Z</time>
      </trkpt>
      <trkpt lat="43.31523" lon="3.49049">
        <ele>52</ele>
        <time>2016-04-17T10:11:03.918Z</time>
      </trkpt>
      <trkpt lat="43.31519" lon="3.49059">
        <ele>51</ele>
        <time>2016-04-17T10:11:05.943Z</time>
      </trkpt>
      <trkpt lat="43.31518" lon="3.49066">
        <ele>51</ele>
        <time>2016-04-17T10:11:06.916Z</time>
      </trkpt>
      <trkpt lat="43.31515" lon="3.49076">
        <ele>52</ele>
        <time>2016-04-17T10:11:08.947Z</time>
      </trkpt>
      <trkpt lat="43.31514" lon="3.49081">
        <ele>53</ele>
        <time>2016-04-17T10:11:09.918Z</time>
      </trkpt>
      <trkpt lat="43.31515" lon="3.4909">
        <ele>55</ele>
        <time>2016-04-17T10:11:11.948Z</time>
      </trkpt>
      <trkpt lat="43.31512" lon="3.49095">
        <ele>55</ele>
        <time>2016-04-17T10:11:12.918Z</time>
      </trkpt>
      <trkpt lat="43.31511" lon="3.49106">
        <ele>56</ele>
        <time>2016-04-17T10:11:15.077Z</time>
      </trkpt>
      <trkpt lat="43.3151" lon="3.49111">
        <ele>57</ele>
        <time>2016-04-17T10:11:15.920Z</time>
      </trkpt>
      <trkpt lat="43.31505" lon="3.4912">
        <ele>56</ele>
        <time>2016-04-17T10:11:17.937Z</time>
      </trkpt>
      <trkpt lat="43.31504" lon="3.49125">
        <ele>56</ele>
        <time>2016-04-17T10:11:18.912Z</time>
      </trkpt>
      <trkpt lat="43.31503" lon="3.49131">
        <ele>57</ele>
        <time>2016-04-17T10:11:19.944Z</time>
      </trkpt>
      <trkpt lat="43.31499" lon="3.49137">
        <ele>56</ele>
        <time>2016-04-17T10:11:20.919Z</time>
      </trkpt>
      <trkpt lat="43.31491" lon="3.49141">
        <ele>51</ele>
        <time>2016-04-17T10:11:21.945Z</time>
      </trkpt>
      <trkpt lat="43.3149" lon="3.49146">
        <ele>52</ele>
        <time>2016-04-17T10:11:22.916Z</time>
      </trkpt>
      <trkpt lat="43.3149" lon="3.49152">
        <ele>53</ele>
        <time>2016-04-17T10:11:23.970Z</time>
      </trkpt>
      <trkpt lat="43.31491" lon="3.4916">
        <ele>54</ele>
        <time>2016-04-17T10:11:24.918Z</time>
      </trkpt>
      <trkpt lat="43.31488" lon="3.49165">
        <ele>53</ele>
        <time>2016-04-17T10:11:25.945Z</time>
      </trkpt>
      <trkpt lat="43.31486" lon="3.49171">
        <ele>54</ele>
        <time>2016-04-17T10:11:26.912Z</time>
      </trkpt>
      <trkpt lat="43.31485" lon="3.49183">
        <ele>56</ele>
        <time>2016-04-17T10:11:28.940Z</time>
      </trkpt>
      <trkpt lat="43.31483" lon="3.49189">
        <ele>55</ele>
        <time>2016-04-17T10:11:29.916Z</time>
      </trkpt>
      <trkpt lat="43.31482" lon="3.49195">
        <ele>55</ele>
        <time>2016-04-17T10:11:30.944Z</time>
      </trkpt>
      <trkpt lat="43.3148" lon="3.49201">
        <ele>55</ele>
        <time>2016-04-17T10:11:31.912Z</time>
      </trkpt>
      <trkpt lat="43.31479" lon="3.49207">
        <ele>55</ele>
        <time>2016-04-17T10:11:32.944Z</time>
      </trkpt>
      <trkpt lat="43.31473" lon="3.49212">
        <ele>51</ele>
        <time>2016-04-17T10:11:33.919Z</time>
      </trkpt>
      <trkpt lat="43.3147" lon="3.49217">
        <ele>50</ele>
        <time>2016-04-17T10:11:34.942Z</time>
      </trkpt>
      <trkpt lat="43.31467" lon="3.49223">
        <ele>50</ele>
        <time>2016-04-17T10:11:35.913Z</time>
      </trkpt>
      <trkpt lat="43.31467" lon="3.49234">
        <ele>51</ele>
        <time>2016-04-17T10:11:37.946Z</time>
      </trkpt>
      <trkpt lat="43.31465" lon="3.49239">
        <ele>51</ele>
        <time>2016-04-17T10:11:38.912Z</time>
      </trkpt>
      <trkpt lat="43.31461" lon="3.4925">
        <ele>51</ele>
        <time>2016-04-17T10:11:40.937Z</time>
      </trkpt>
      <trkpt lat="43.3146" lon="3.49254">
        <ele>51</ele>
        <time>2016-04-17T10:11:41.916Z</time>
      </trkpt>
      <trkpt lat="43.31459" lon="3.49265">
        <ele>53</ele>
        <time>2016-04-17T10:11:43.945Z</time>
      </trkpt>
      <trkpt lat="43.31458" lon="3.4927">
        <ele>53</ele>
        <time>2016-04-17T10:11:44.919Z</time>
      </trkpt>
      <trkpt lat="43.31453" lon="3.49275">
        <ele>50</ele>
        <time>2016-04-17T10:11:45.944Z</time>
      </trkpt>
      <trkpt lat="43.31451" lon="3.4928">
        <ele>50</ele>
        <time>2016-04-17T10:11:46.913Z</time>
      </trkpt>
      <trkpt lat="43.31448" lon="3.49287">
        <ele>54</ele>
        <time>2016-04-17T10:11:48.947Z</time>
      </trkpt>
      <trkpt lat="43.31446" lon="3.49292">
        <ele>54</ele>
        <time>2016-04-17T10:11:49.944Z</time>
      </trkpt>
      <trkpt lat="43.3144" lon="3.49301">
        <ele>54</ele>
        <time>2016-04-17T10:11:51.938Z</time>
      </trkpt>
      <trkpt lat="43.3144" lon="3.49306">
        <ele>56</ele>
        <time>2016-04-17T10:11:53.054Z</time>
      </trkpt>
      <trkpt lat="43.31439" lon="3.49317">
        <ele>59</ele>
        <time>2016-04-17T10:11:54.944Z</time>
      </trkpt>
      <trkpt lat="43.31436" lon="3.49321">
        <ele>58</ele>
        <time>2016-04-17T10:11:55.919Z</time>
      </trkpt>
      <trkpt lat="43.31431" lon="3.49331">
        <ele>56</ele>
        <time>2016-04-17T10:11:57.944Z</time>
      </trkpt>
      <trkpt lat="43.31429" lon="3.49335">
        <ele>56</ele>
        <time>2016-04-17T10:11:58.912Z</time>
      </trkpt>
      <trkpt lat="43.31425" lon="3.49346">
        <ele>57</ele>
        <time>2016-04-17T10:12:00.930Z</time>
      </trkpt>
      <trkpt lat="43.31425" lon="3.4935">
        <ele>60</ele>
        <time>2016-04-17T10:12:01.916Z</time>
      </trkpt>
      <trkpt lat="43.31421" lon="3.4936">
        <ele>62</ele>
        <time>2016-04-17T10:12:03.939Z</time>
      </trkpt>
      <trkpt lat="43.31418" lon="3.49364">
        <ele>62</ele>
        <time>2016-04-17T10:12:05.070Z</time>
      </trkpt>
      <trkpt lat="43.31413" lon="3.49373">
        <ele>62</ele>
        <time>2016-04-17T10:12:06.943Z</time>
      </trkpt>
      <trkpt lat="43.31409" lon="3.49378">
        <ele>61</ele>
        <time>2016-04-17T10:12:07.917Z</time>
      </trkpt>
      <trkpt lat="43.31403" lon="3.49387">
        <ele>60</ele>
        <time>2016-04-17T10:12:09.940Z</time>
      </trkpt>
      <trkpt lat="43.314" lon="3.49391">
        <ele>60</ele>
        <time>2016-04-17T10:12:10.915Z</time>
      </trkpt>
      <trkpt lat="43.31397" lon="3.494">
        <ele>62</ele>
        <time>2016-04-17T10:12:12.994Z</time>
      </trkpt>
      <trkpt lat="43.31394" lon="3.49404">
        <ele>61</ele>
        <time>2016-04-17T10:12:13.916Z</time>
      </trkpt>
      <trkpt lat="43.31391" lon="3.49409">
        <ele>62</ele>
        <time>2016-04-17T10:12:14.939Z</time>
      </trkpt>
      <trkpt lat="43.31388" lon="3.49414">
        <ele>61</ele>
        <time>2016-04-17T10:12:15.916Z</time>
      </trkpt>
      <trkpt lat="43.31385" lon="3.49424">
        <ele>63</ele>
        <time>2016-04-17T10:12:17.940Z</time>
      </trkpt>
      <trkpt lat="43.31383" lon="3.49427">
        <ele>63</ele>
        <time>2016-04-17T10:12:18.917Z</time>
      </trkpt>
      <trkpt lat="43.3138" lon="3.49435">
        <ele>65</ele>
        <time>2016-04-17T10:12:20.961Z</time>
      </trkpt>
      <trkpt lat="43.31378" lon="3.49439">
        <ele>66</ele>
        <time>2016-04-17T10:12:21.920Z</time>
      </trkpt>
      <trkpt lat="43.31376" lon="3.49448">
        <ele>68</ele>
        <time>2016-04-17T10:12:23.945Z</time>
      </trkpt>
      <trkpt lat="43.31378" lon="3.49453">
        <ele>71</ele>
        <time>2016-04-17T10:12:24.917Z</time>
      </trkpt>
      <trkpt lat="43.31375" lon="3.49462">
        <ele>72</ele>
        <time>2016-04-17T10:12:26.935Z</time>
      </trkpt>
      <trkpt lat="43.31372" lon="3.49466">
        <ele>72</ele>
        <time>2016-04-17T10:12:27.918Z</time>
      </trkpt>
      <trkpt lat="43.31367" lon="3.49475">
        <ele>72</ele>
        <time>2016-04-17T10:12:29.944Z</time>
      </trkpt>
      <trkpt lat="43.31364" lon="3.4948">
        <ele>73</ele>
        <time>2016-04-17T10:12:30.918Z</time>
      </trkpt>
      <trkpt lat="43.31357" lon="3.49487">
        <ele>71</ele>
        <time>2016-04-17T10:12:32.945Z</time>
      </trkpt>
      <trkpt lat="43.31354" lon="3.4949">
        <ele>72</ele>
        <time>2016-04-17T10:12:33.920Z</time>
      </trkpt>
      <trkpt lat="43.31349" lon="3.49494">
        <ele>71</ele>
        <time>2016-04-17T10:12:34.947Z</time>
      </trkpt>
      <trkpt lat="43.31346" lon="3.49498">
        <ele>71</ele>
        <time>2016-04-17T10:12:35.912Z</time>
      </trkpt>
      <trkpt lat="43.31338" lon="3.49502">
        <ele>64</ele>
        <time>2016-04-17T10:12:36.943Z</time>
      </trkpt>
      <trkpt lat="43.31336" lon="3.49505">
        <ele>63</ele>
        <time>2016-04-17T10:12:37.920Z</time>
      </trkpt>
      <trkpt lat="43.31335" lon="3.49513">
        <ele>66</ele>
        <time>2016-04-17T10:12:39.943Z</time>
      </trkpt>
      <trkpt lat="43.31327" lon="3.49518">
        <ele>61</ele>
        <time>2016-04-17T10:12:40.920Z</time>
      </trkpt>
      <trkpt lat="43.31324" lon="3.49525">
        <ele>61</ele>
        <time>2016-04-17T10:12:42.943Z</time>
      </trkpt>
      <trkpt lat="43.31323" lon="3.49531">
        <ele>61</ele>
        <time>2016-04-17T10:12:43.916Z</time>
      </trkpt>
      <trkpt lat="43.31319" lon="3.4954">
        <ele>62</ele>
        <time>2016-04-17T10:12:45.935Z</time>
      </trkpt>
      <trkpt lat="43.31316" lon="3.49545">
        <ele>62</ele>
        <time>2016-04-17T10:12:46.916Z</time>
      </trkpt>
      <trkpt lat="43.31313" lon="3.49556">
        <ele>64</ele>
        <time>2016-04-17T10:12:49.945Z</time>
      </trkpt>
      <trkpt lat="43.31311" lon="3.4956">
        <ele>64</ele>
        <time>2016-04-17T10:12:50.920Z</time>
      </trkpt>
      <trkpt lat="43.3131" lon="3.4957">
        <ele>65</ele>
        <time>2016-04-17T10:12:52.945Z</time>
      </trkpt>
      <trkpt lat="43.31308" lon="3.49573">
        <ele>65</ele>
        <time>2016-04-17T10:12:53.918Z</time>
      </trkpt>
      <trkpt lat="43.31307" lon="3.49584">
        <ele>65</ele>
        <time>2016-04-17T10:12:55.945Z</time>
      </trkpt>
      <trkpt lat="43.31305" lon="3.49589">
        <ele>65</ele>
        <time>2016-04-17T10:12:56.913Z</time>
      </trkpt>
      <trkpt lat="43.31304" lon="3.49597">
        <ele>67</ele>
        <time>2016-04-17T10:12:58.941Z</time>
      </trkpt>
      <trkpt lat="43.31304" lon="3.49602">
        <ele>67</ele>
        <time>2016-04-17T10:12:59.919Z</time>
      </trkpt>
      <trkpt lat="43.31302" lon="3.49611">
        <ele>67</ele>
        <time>2016-04-17T10:13:01.938Z</time>
      </trkpt>
      <trkpt lat="43.31301" lon="3.49616">
        <ele>67</ele>
        <time>2016-04-17T10:13:02.915Z</time>
      </trkpt>
      <trkpt lat="43.31299" lon="3.49625">
        <ele>68</ele>
        <time>2016-04-17T10:13:04.939Z</time>
      </trkpt>
      <trkpt lat="43.31298" lon="3.49629">
        <ele>68</ele>
        <time>2016-04-17T10:13:05.916Z</time>
      </trkpt>
      <trkpt lat="43.31297" lon="3.49639">
        <ele>70</ele>
        <time>2016-04-17T10:13:07.942Z</time>
      </trkpt>
      <trkpt lat="43.31296" lon="3.49644">
        <ele>70</ele>
        <time>2016-04-17T10:13:08.917Z</time>
      </trkpt>
      <trkpt lat="43.31296" lon="3.49654">
        <ele>72</ele>
        <time>2016-04-17T10:13:10.942Z</time>
      </trkpt>
      <trkpt lat="43.31293" lon="3.49659">
        <ele>72</ele>
        <time>2016-04-17T10:13:11.920Z</time>
      </trkpt>
      <trkpt lat="43.31288" lon="3.49667">
        <ele>68</ele>
        <time>2016-04-17T10:13:13.969Z</time>
      </trkpt>
      <trkpt lat="43.31286" lon="3.49672">
        <ele>68</ele>
        <time>2016-04-17T10:13:14.913Z</time>
      </trkpt>
      <trkpt lat="43.31279" lon="3.49675">
        <ele>63</ele>
        <time>2016-04-17T10:13:15.947Z</time>
      </trkpt>
      <trkpt lat="43.31278" lon="3.4968">
        <ele>64</ele>
        <time>2016-04-17T10:13:16.919Z</time>
      </trkpt>
      <trkpt lat="43.31276" lon="3.49691">
        <ele>64</ele>
        <time>2016-04-17T10:13:18.939Z</time>
      </trkpt>
      <trkpt lat="43.31276" lon="3.49694">
        <ele>65</ele>
        <time>2016-04-17T10:13:19.920Z</time>
      </trkpt>
      <trkpt lat="43.31275" lon="3.49703">
        <ele>64</ele>
        <time>2016-04-17T10:13:21.937Z</time>
      </trkpt>
      <trkpt lat="43.31273" lon="3.49708">
        <ele>63</ele>
        <time>2016-04-17T10:13:22.917Z</time>
      </trkpt>
      <trkpt lat="43.31272" lon="3.49718">
        <ele>63</ele>
        <time>2016-04-17T10:13:24.958Z</time>
      </trkpt>
      <trkpt lat="43.31272" lon="3.49724">
        <ele>62</ele>
        <time>2016-04-17T10:13:25.918Z</time>
      </trkpt>
      <trkpt lat="43.31268" lon="3.49736">
        <ele>60</ele>
        <time>2016-04-17T10:13:27.937Z</time>
      </trkpt>
      <trkpt lat="43.31269" lon="3.49743">
        <ele>60</ele>
        <time>2016-04-17T10:13:28.918Z</time>
      </trkpt>
      <trkpt lat="43.31269" lon="3.49753">
        <ele>60</ele>
        <time>2016-04-17T10:13:30.934Z</time>
      </trkpt>
      <trkpt lat="43.31268" lon="3.49758">
        <ele>61</ele>
        <time>2016-04-17T10:13:31.917Z</time>
      </trkpt>
      <trkpt lat="43.31266" lon="3.49767">
        <ele>59</ele>
        <time>2016-04-17T10:13:32.948Z</time>
      </trkpt>
      <trkpt lat="43.31266" lon="3.49771">
        <ele>57</ele>
        <time>2016-04-17T10:13:33.918Z</time>
      </trkpt>
      <trkpt lat="43.31265" lon="3.49776">
        <ele>56</ele>
        <time>2016-04-17T10:13:34.943Z</time>
      </trkpt>
      <trkpt lat="43.31265" lon="3.49784">
        <ele>57</ele>
        <time>2016-04-17T10:13:35.918Z</time>
      </trkpt>
      <trkpt lat="43.31267" lon="3.49794">
        <ele>58</ele>
        <time>2016-04-17T10:13:37.946Z</time>
      </trkpt>
      <trkpt lat="43.31269" lon="3.49797">
        <ele>58</ele>
        <time>2016-04-17T10:13:38.921Z</time>
      </trkpt>
      <trkpt lat="43.31272" lon="3.49807">
        <ele>58</ele>
        <time>2016-04-17T10:13:41.951Z</time>
      </trkpt>
      <trkpt lat="43.31274" lon="3.49809">
        <ele>60</ele>
        <time>2016-04-17T10:13:42.916Z</time>
      </trkpt>
      <trkpt lat="43.3128" lon="3.49817">
        <ele>64</ele>
        <time>2016-04-17T10:13:45.934Z</time>
      </trkpt>
      <trkpt lat="43.31281" lon="3.49822">
        <ele>62</ele>
        <time>2016-04-17T10:13:46.918Z</time>
      </trkpt>
      <trkpt lat="43.31287" lon="3.4983">
        <ele>61</ele>
        <time>2016-04-17T10:13:48.937Z</time>
      </trkpt>
      <trkpt lat="43.31293" lon="3.49835">
        <ele>64</ele>
        <time>2016-04-17T10:13:49.916Z</time>
      </trkpt>
      <trkpt lat="43.31296" lon="3.49838">
        <ele>64</ele>
        <time>2016-04-17T10:13:50.937Z</time>
      </trkpt>
      <trkpt lat="43.31302" lon="3.49844">
        <ele>62</ele>
        <time>2016-04-17T10:13:51.942Z</time>
      </trkpt>
      <trkpt lat="43.31307" lon="3.4985">
        <ele>61</ele>
        <time>2016-04-17T10:13:53.946Z</time>
      </trkpt>
      <trkpt lat="43.31311" lon="3.49855">
        <ele>61</ele>
        <time>2016-04-17T10:13:54.919Z</time>
      </trkpt>
      <trkpt lat="43.31317" lon="3.49857">
        <ele>60</ele>
        <time>2016-04-17T10:13:56.942Z</time>
      </trkpt>
      <trkpt lat="43.3132" lon="3.4986">
        <ele>60</ele>
        <time>2016-04-17T10:13:57.920Z</time>
      </trkpt>
      <trkpt lat="43.31325" lon="3.49865">
        <ele>57</ele>
        <time>2016-04-17T10:13:59.944Z</time>
      </trkpt>
      <trkpt lat="43.31329" lon="3.49868">
        <ele>57</ele>
        <time>2016-04-17T10:14:00.920Z</time>
      </trkpt>
      <trkpt lat="43.31336" lon="3.4987">
        <ele>59</ele>
        <time>2016-04-17T10:14:02.969Z</time>
      </trkpt>
      <trkpt lat="43.31339" lon="3.49873">
        <ele>59</ele>
        <time>2016-04-17T10:14:03.918Z</time>
      </trkpt>
      <trkpt lat="43.31346" lon="3.49877">
        <ele>59</ele>
        <time>2016-04-17T10:14:05.947Z</time>
      </trkpt>
      <trkpt lat="43.3135" lon="3.49879">
        <ele>59</ele>
        <time>2016-04-17T10:14:06.917Z</time>
      </trkpt>
      <trkpt lat="43.31357" lon="3.49885">
        <ele>57</ele>
        <time>2016-04-17T10:14:08.939Z</time>
      </trkpt>
      <trkpt lat="43.31363" lon="3.49889">
        <ele>55</ele>
        <time>2016-04-17T10:14:09.919Z</time>
      </trkpt>
      <trkpt lat="43.31369" lon="3.4989">
        <ele>55</ele>
        <time>2016-04-17T10:14:10.951Z</time>
      </trkpt>
      <trkpt lat="43.31373" lon="3.49892">
        <ele>55</ele>
        <time>2016-04-17T10:14:11.912Z</time>
      </trkpt>
      <trkpt lat="43.31378" lon="3.49897">
        <ele>53</ele>
        <time>2016-04-17T10:14:12.944Z</time>
      </trkpt>
      <trkpt lat="43.31381" lon="3.49897">
        <ele>53</ele>
        <time>2016-04-17T10:14:13.920Z</time>
      </trkpt>
      <trkpt lat="43.31389" lon="3.499">
        <ele>54</ele>
        <time>2016-04-17T10:14:16.935Z</time>
      </trkpt>
      <trkpt lat="43.31392" lon="3.49902">
        <ele>55</ele>
        <time>2016-04-17T10:14:17.918Z</time>
      </trkpt>
      <trkpt lat="43.31398" lon="3.49908">
        <ele>54</ele>
        <time>2016-04-17T10:14:19.947Z</time>
      </trkpt>
      <trkpt lat="43.31401" lon="3.49907">
        <ele>55</ele>
        <time>2016-04-17T10:14:20.916Z</time>
      </trkpt>
      <trkpt lat="43.31409" lon="3.49908">
        <ele>55</ele>
        <time>2016-04-17T10:14:23.945Z</time>
      </trkpt>
      <trkpt lat="43.31412" lon="3.49909">
        <ele>55</ele>
        <time>2016-04-17T10:14:24.913Z</time>
      </trkpt>
      <trkpt lat="43.3142" lon="3.49914">
        <ele>53</ele>
        <time>2016-04-17T10:14:28.949Z</time>
      </trkpt>
      <trkpt lat="43.31421" lon="3.49915">
        <ele>54</ele>
        <time>2016-04-17T10:14:29.917Z</time>
      </trkpt>
      <trkpt lat="43.31428" lon="3.49918">
        <ele>56</ele>
        <time>2016-04-17T10:14:33.947Z</time>
      </trkpt>
      <trkpt lat="43.31431" lon="3.49918">
        <ele>56</ele>
        <time>2016-04-17T10:14:34.920Z</time>
      </trkpt>
      <trkpt lat="43.31438" lon="3.49923">
        <ele>54</ele>
        <time>2016-04-17T10:14:36.946Z</time>
      </trkpt>
      <trkpt lat="43.3144" lon="3.49926">
        <ele>51</ele>
        <time>2016-04-17T10:14:37.916Z</time>
      </trkpt>
      <trkpt lat="43.31447" lon="3.49928">
        <ele>51</ele>
        <time>2016-04-17T10:14:40.940Z</time>
      </trkpt>
      <trkpt lat="43.31449" lon="3.49928">
        <ele>51</ele>
        <time>2016-04-17T10:14:41.921Z</time>
      </trkpt>
      <trkpt lat="43.31457" lon="3.49928">
        <ele>49</ele>
        <time>2016-04-17T10:14:44.939Z</time>
      </trkpt>
      <trkpt lat="43.3146" lon="3.49928">
        <ele>49</ele>
        <time>2016-04-17T10:14:45.916Z</time>
      </trkpt>
      <trkpt lat="43.31468" lon="3.49929">
        <ele>47</ele>
        <time>2016-04-17T10:14:47.946Z</time>
      </trkpt>
      <trkpt lat="43.31472" lon="3.49929">
        <ele>47</ele>
        <time>2016-04-17T10:14:48.913Z</time>
      </trkpt>
      <trkpt lat="43.31476" lon="3.49934">
        <ele>51</ele>
        <time>2016-04-17T10:14:49.944Z</time>
      </trkpt>
      <trkpt lat="43.3148" lon="3.49936">
        <ele>51</ele>
        <time>2016-04-17T10:14:50.916Z</time>
      </trkpt>
      <trkpt lat="43.31486" lon="3.49941">
        <ele>51</ele>
        <time>2016-04-17T10:14:52.947Z</time>
      </trkpt>
      <trkpt lat="43.31489" lon="3.49942">
        <ele>51</ele>
        <time>2016-04-17T10:14:53.913Z</time>
      </trkpt>
      <trkpt lat="43.31496" lon="3.49946">
        <ele>50</ele>
        <time>2016-04-17T10:14:56.937Z</time>
      </trkpt>
      <trkpt lat="43.31498" lon="3.49949">
        <ele>49</ele>
        <time>2016-04-17T10:14:57.916Z</time>
      </trkpt>
      <trkpt lat="43.31504" lon="3.49952">
        <ele>51</ele>
        <time>2016-04-17T10:15:00.937Z</time>
      </trkpt>
      <trkpt lat="43.31507" lon="3.49953">
        <ele>51</ele>
        <time>2016-04-17T10:15:01.917Z</time>
      </trkpt>
      <trkpt lat="43.31512" lon="3.49956">
        <ele>49</ele>
        <time>2016-04-17T10:15:02.947Z</time>
      </trkpt>
      <trkpt lat="43.31515" lon="3.49959">
        <ele>49</ele>
        <time>2016-04-17T10:15:03.918Z</time>
      </trkpt>
      <trkpt lat="43.31522" lon="3.49963">
        <ele>49</ele>
        <time>2016-04-17T10:15:05.946Z</time>
      </trkpt>
      <trkpt lat="43.31525" lon="3.49965">
        <ele>50</ele>
        <time>2016-04-17T10:15:06.920Z</time>
      </trkpt>
      <trkpt lat="43.31531" lon="3.49972">
        <ele>51</ele>
        <time>2016-04-17T10:15:09.943Z</time>
      </trkpt>
      <trkpt lat="43.31533" lon="3.49974">
        <ele>50</ele>
        <time>2016-04-17T10:15:10.917Z</time>
      </trkpt>
      <trkpt lat="43.31538" lon="3.49981">
        <ele>51</ele>
        <time>2016-04-17T10:15:14.946Z</time>
      </trkpt>
      <trkpt lat="43.3154" lon="3.49982">
        <ele>49</ele>
        <time>2016-04-17T10:15:15.918Z</time>
      </trkpt>
      <trkpt lat="43.31546" lon="3.4999">
        <ele>50</ele>
        <time>2016-04-17T10:15:33.950Z</time>
      </trkpt>
      <trkpt lat="43.31547" lon="3.49992">
        <ele>50</ele>
        <time>2016-04-17T10:15:34.918Z</time>
      </trkpt>
      <trkpt lat="43.31549" lon="3.50002">
        <ele>50</ele>
        <time>2016-04-17T10:15:38.937Z</time>
      </trkpt>
      <trkpt lat="43.31548" lon="3.50007">
        <ele>50</ele>
        <time>2016-04-17T10:15:39.918Z</time>
      </trkpt>
      <trkpt lat="43.31549" lon="3.50016">
        <ele>49</ele>
        <time>2016-04-17T10:15:42.947Z</time>
      </trkpt>
      <trkpt lat="43.3155" lon="3.50019">
        <ele>49</ele>
        <time>2016-04-17T10:15:43.916Z</time>
      </trkpt>
      <trkpt lat="43.31551" lon="3.50028">
        <ele>49</ele>
        <time>2016-04-17T10:15:45.949Z</time>
      </trkpt>
      <trkpt lat="43.31552" lon="3.50031">
        <ele>49</ele>
        <time>2016-04-17T10:15:46.917Z</time>
      </trkpt>
      <trkpt lat="43.31551" lon="3.50042">
        <ele>48</ele>
        <time>2016-04-17T10:15:48.972Z</time>
      </trkpt>
      <trkpt lat="43.31552" lon="3.50047">
        <ele>48</ele>
        <time>2016-04-17T10:15:49.918Z</time>
      </trkpt>
      <trkpt lat="43.31552" lon="3.50057">
        <ele>48</ele>
        <time>2016-04-17T10:15:51.944Z</time>
      </trkpt>
      <trkpt lat="43.31551" lon="3.50063">
        <ele>48</ele>
        <time>2016-04-17T10:15:52.919Z</time>
      </trkpt>
      <trkpt lat="43.31551" lon="3.50071">
        <ele>49</ele>
        <time>2016-04-17T10:15:54.939Z</time>
      </trkpt>
      <trkpt lat="43.3155" lon="3.50078">
        <ele>49</ele>
        <time>2016-04-17T10:15:55.919Z</time>
      </trkpt>
      <trkpt lat="43.31548" lon="3.5009">
        <ele>48</ele>
        <time>2016-04-17T10:15:57.950Z</time>
      </trkpt>
      <trkpt lat="43.31547" lon="3.50095">
        <ele>51</ele>
        <time>2016-04-17T10:15:58.919Z</time>
      </trkpt>
      <trkpt lat="43.31545" lon="3.50104">
        <ele>50</ele>
        <time>2016-04-17T10:16:00.935Z</time>
      </trkpt>
      <trkpt lat="43.31545" lon="3.50109">
        <ele>49</ele>
        <time>2016-04-17T10:16:01.919Z</time>
      </trkpt>
      <trkpt lat="43.31544" lon="3.50117">
        <ele>50</ele>
        <time>2016-04-17T10:16:02.948Z</time>
      </trkpt>
      <trkpt lat="43.31544" lon="3.50126">
        <ele>50</ele>
        <time>2016-04-17T10:16:03.918Z</time>
      </trkpt>
      <trkpt lat="43.31542" lon="3.50135">
        <ele>48</ele>
        <time>2016-04-17T10:16:05.944Z</time>
      </trkpt>
      <trkpt lat="43.31541" lon="3.50139">
        <ele>48</ele>
        <time>2016-04-17T10:16:06.918Z</time>
      </trkpt>
      <trkpt lat="43.31541" lon="3.50148">
        <ele>49</ele>
        <time>2016-04-17T10:16:08.942Z</time>
      </trkpt>
      <trkpt lat="43.3154" lon="3.50155">
        <ele>49</ele>
        <time>2016-04-17T10:16:09.946Z</time>
      </trkpt>
      <trkpt lat="43.31539" lon="3.5016">
        <ele>49</ele>
        <time>2016-04-17T10:16:11.089Z</time>
      </trkpt>
      <trkpt lat="43.31538" lon="3.50167">
        <ele>50</ele>
        <time>2016-04-17T10:16:11.918Z</time>
      </trkpt>
      <trkpt lat="43.31535" lon="3.50173">
        <ele>48</ele>
        <time>2016-04-17T10:16:12.944Z</time>
      </trkpt>
      <trkpt lat="43.31532" lon="3.50178">
        <ele>48</ele>
        <time>2016-04-17T10:16:13.915Z</time>
      </trkpt>
      <trkpt lat="43.31531" lon="3.50189">
        <ele>49</ele>
        <time>2016-04-17T10:16:15.944Z</time>
      </trkpt>
      <trkpt lat="43.31531" lon="3.50195">
        <ele>48</ele>
        <time>2016-04-17T10:16:16.919Z</time>
      </trkpt>
      <trkpt lat="43.31525" lon="3.50203">
        <ele>50</ele>
        <time>2016-04-17T10:16:21.935Z</time>
      </trkpt>
      <trkpt lat="43.31522" lon="3.50205">
        <ele>50</ele>
        <time>2016-04-17T10:16:22.917Z</time>
      </trkpt>
      <trkpt lat="43.31523" lon="3.50217">
        <ele>48</ele>
        <time>2016-04-17T10:16:25.947Z</time>
      </trkpt>
      <trkpt lat="43.31523" lon="3.50224">
        <ele>46</ele>
        <time>2016-04-17T10:16:26.919Z</time>
      </trkpt>
      <trkpt lat="43.3152" lon="3.50232">
        <ele>47</ele>
        <time>2016-04-17T10:16:28.945Z</time>
      </trkpt>
      <trkpt lat="43.31519" lon="3.50236">
        <ele>49</ele>
        <time>2016-04-17T10:16:29.917Z</time>
      </trkpt>
      <trkpt lat="43.31519" lon="3.50244">
        <ele>51</ele>
        <time>2016-04-17T10:16:31.944Z</time>
      </trkpt>
      <trkpt lat="43.31518" lon="3.50249">
        <ele>50</ele>
        <time>2016-04-17T10:16:32.917Z</time>
      </trkpt>
      <trkpt lat="43.31518" lon="3.50259">
        <ele>50</ele>
        <time>2016-04-17T10:16:35.003Z</time>
      </trkpt>
      <trkpt lat="43.31518" lon="3.50265">
        <ele>51</ele>
        <time>2016-04-17T10:16:35.918Z</time>
      </trkpt>
      <trkpt lat="43.31516" lon="3.50274">
        <ele>51</ele>
        <time>2016-04-17T10:16:37.944Z</time>
      </trkpt>
      <trkpt lat="43.31515" lon="3.50278">
        <ele>51</ele>
        <time>2016-04-17T10:16:38.916Z</time>
      </trkpt>
      <trkpt lat="43.31513" lon="3.50287">
        <ele>51</ele>
        <time>2016-04-17T10:16:40.942Z</time>
      </trkpt>
      <trkpt lat="43.3151" lon="3.50293">
        <ele>50</ele>
        <time>2016-04-17T10:16:41.917Z</time>
      </trkpt>
      <trkpt lat="43.31508" lon="3.50304">
        <ele>47</ele>
        <time>2016-04-17T10:16:43.941Z</time>
      </trkpt>
      <trkpt lat="43.31507" lon="3.50308">
        <ele>47</ele>
        <time>2016-04-17T10:16:44.917Z</time>
      </trkpt>
      <trkpt lat="43.31505" lon="3.5032">
        <ele>50</ele>
        <time>2016-04-17T10:16:47.963Z</time>
      </trkpt>
      <trkpt lat="43.31505" lon="3.50321">
        <ele>52</ele>
        <time>2016-04-17T10:16:48.917Z</time>
      </trkpt>
      <trkpt lat="43.31505" lon="3.50332">
        <ele>55</ele>
        <time>2016-04-17T10:16:52.940Z</time>
      </trkpt>
      <trkpt lat="43.31505" lon="3.50335">
        <ele>56</ele>
        <time>2016-04-17T10:16:53.918Z</time>
      </trkpt>
      <trkpt lat="43.31511" lon="3.50341">
        <ele>57</ele>
        <time>2016-04-17T10:16:59.937Z</time>
      </trkpt>
      <trkpt lat="43.31509" lon="3.5034">
        <ele>57</ele>
        <time>2016-04-17T10:17:00.916Z</time>
      </trkpt>
      <trkpt lat="43.31508" lon="3.50336">
        <ele>55</ele>
        <time>2016-04-17T10:17:02.940Z</time>
      </trkpt>
      <trkpt lat="43.31511" lon="3.50341">
        <ele>54</ele>
        <time>2016-04-17T10:17:03.941Z</time>
      </trkpt>
      <trkpt lat="43.31511" lon="3.50341">
        <ele>54</ele>
        <time>2016-04-17T10:17:03.970Z</time>
      </trkpt>
      <trkpt lat="43.3151" lon="3.5034">
        <ele>55</ele>
        <time>2016-04-17T10:17:04.918Z</time>
      </trkpt>
      <trkpt lat="43.3151" lon="3.5034">
        <ele>55</ele>
        <time>2016-04-17T10:17:04.949Z</time>
      </trkpt>
      <trkpt lat="43.31506" lon="3.50336">
        <ele>55</ele>
        <time>2016-04-17T10:17:05.918Z</time>
      </trkpt>
      <trkpt lat="43.31499" lon="3.50342">
        <ele>53</ele>
        <time>2016-04-17T10:17:09.014Z</time>
      </trkpt>
      <trkpt lat="43.31503" lon="3.50349">
        <ele>51</ele>
        <time>2016-04-17T10:17:09.918Z</time>
      </trkpt>
      <trkpt lat="43.31503" lon="3.50339">
        <ele>48</ele>
        <time>2016-04-17T10:17:12.941Z</time>
      </trkpt>
      <trkpt lat="43.31503" lon="3.50339">
        <ele>47</ele>
        <time>2016-04-17T10:17:13.916Z</time>
      </trkpt>
      <trkpt lat="43.31505" lon="3.50339">
        <ele>50</ele>
        <time>2016-04-17T10:17:31.941Z</time>
      </trkpt>
      <trkpt lat="43.31506" lon="3.50346">
        <ele>52</ele>
        <time>2016-04-17T10:17:32.918Z</time>
      </trkpt>
      <trkpt lat="43.31504" lon="3.50357">
        <ele>50</ele>
        <time>2016-04-17T10:17:34.941Z</time>
      </trkpt>
      <trkpt lat="43.31503" lon="3.50364">
        <ele>52</ele>
        <time>2016-04-17T10:17:35.918Z</time>
      </trkpt>
      <trkpt lat="43.31502" lon="3.50374">
        <ele>54</ele>
        <time>2016-04-17T10:17:37.942Z</time>
      </trkpt>
      <trkpt lat="43.31498" lon="3.50379">
        <ele>52</ele>
        <time>2016-04-17T10:17:38.918Z</time>
      </trkpt>
      <trkpt lat="43.31498" lon="3.5039">
        <ele>52</ele>
        <time>2016-04-17T10:17:40.941Z</time>
      </trkpt>
      <trkpt lat="43.31499" lon="3.50395">
        <ele>53</ele>
        <time>2016-04-17T10:17:41.919Z</time>
      </trkpt>
      <trkpt lat="43.31498" lon="3.50405">
        <ele>54</ele>
        <time>2016-04-17T10:17:43.941Z</time>
      </trkpt>
      <trkpt lat="43.31497" lon="3.5041">
        <ele>54</ele>
        <time>2016-04-17T10:17:44.918Z</time>
      </trkpt>
      <trkpt lat="43.31497" lon="3.50421">
        <ele>55</ele>
        <time>2016-04-17T10:17:46.940Z</time>
      </trkpt>
      <trkpt lat="43.31498" lon="3.50426">
        <ele>56</ele>
        <time>2016-04-17T10:17:47.917Z</time>
      </trkpt>
      <trkpt lat="43.31496" lon="3.50437">
        <ele>55</ele>
        <time>2016-04-17T10:17:49.940Z</time>
      </trkpt>
      <trkpt lat="43.31496" lon="3.50441">
        <ele>54</ele>
        <time>2016-04-17T10:17:50.940Z</time>
      </trkpt>
      <trkpt lat="43.31494" lon="3.50451">
        <ele>54</ele>
        <time>2016-04-17T10:17:53.071Z</time>
      </trkpt>
      <trkpt lat="43.31493" lon="3.50457">
        <ele>53</ele>
        <time>2016-04-17T10:17:53.917Z</time>
      </trkpt>
      <trkpt lat="43.31491" lon="3.50469">
        <ele>50</ele>
        <time>2016-04-17T10:17:55.940Z</time>
      </trkpt>
      <trkpt lat="43.31491" lon="3.50473">
        <ele>50</ele>
        <time>2016-04-17T10:17:56.920Z</time>
      </trkpt>
      <trkpt lat="43.3149" lon="3.50482">
        <ele>53</ele>
        <time>2016-04-17T10:17:58.941Z</time>
      </trkpt>
      <trkpt lat="43.31488" lon="3.50487">
        <ele>53</ele>
        <time>2016-04-17T10:17:59.918Z</time>
      </trkpt>
      <trkpt lat="43.31486" lon="3.50497">
        <ele>54</ele>
        <time>2016-04-17T10:18:01.941Z</time>
      </trkpt>
      <trkpt lat="43.31485" lon="3.50503">
        <ele>53</ele>
        <time>2016-04-17T10:18:02.917Z</time>
      </trkpt>
      <trkpt lat="43.31484" lon="3.50513">
        <ele>53</ele>
        <time>2016-04-17T10:18:05.072Z</time>
      </trkpt>
      <trkpt lat="43.31481" lon="3.50518">
        <ele>53</ele>
        <time>2016-04-17T10:18:05.918Z</time>
      </trkpt>
      <trkpt lat="43.31478" lon="3.50529">
        <ele>52</ele>
        <time>2016-04-17T10:18:07.942Z</time>
      </trkpt>
      <trkpt lat="43.31477" lon="3.50534">
        <ele>52</ele>
        <time>2016-04-17T10:18:08.918Z</time>
      </trkpt>
      <trkpt lat="43.31476" lon="3.50545">
        <ele>51</ele>
        <time>2016-04-17T10:18:10.942Z</time>
      </trkpt>
      <trkpt lat="43.31473" lon="3.5055">
        <ele>50</ele>
        <time>2016-04-17T10:18:11.939Z</time>
      </trkpt>
      <trkpt lat="43.31473" lon="3.50559">
        <ele>51</ele>
        <time>2016-04-17T10:18:13.941Z</time>
      </trkpt>
      <trkpt lat="43.31472" lon="3.50564">
        <ele>51</ele>
        <time>2016-04-17T10:18:14.918Z</time>
      </trkpt>
      <trkpt lat="43.31471" lon="3.50573">
        <ele>51</ele>
        <time>2016-04-17T10:18:16.942Z</time>
      </trkpt>
      <trkpt lat="43.31471" lon="3.50578">
        <ele>52</ele>
        <time>2016-04-17T10:18:17.918Z</time>
      </trkpt>
      <trkpt lat="43.31468" lon="3.50585">
        <ele>51</ele>
        <time>2016-04-17T10:18:18.947Z</time>
      </trkpt>
      <trkpt lat="43.31467" lon="3.5059">
        <ele>51</ele>
        <time>2016-04-17T10:18:19.920Z</time>
      </trkpt>
      <trkpt lat="43.31466" lon="3.506">
        <ele>51</ele>
        <time>2016-04-17T10:18:21.943Z</time>
      </trkpt>
      <trkpt lat="43.31466" lon="3.50606">
        <ele>52</ele>
        <time>2016-04-17T10:18:22.918Z</time>
      </trkpt>
      <trkpt lat="43.31466" lon="3.50614">
        <ele>55</ele>
        <time>2016-04-17T10:18:24.943Z</time>
      </trkpt>
      <trkpt lat="43.31465" lon="3.50618">
        <ele>56</ele>
        <time>2016-04-17T10:18:25.918Z</time>
      </trkpt>
      <trkpt lat="43.31464" lon="3.5063">
        <ele>57</ele>
        <time>2016-04-17T10:18:28.943Z</time>
      </trkpt>
      <trkpt lat="43.31463" lon="3.50634">
        <ele>58</ele>
        <time>2016-04-17T10:18:29.919Z</time>
      </trkpt>
      <trkpt lat="43.31462" lon="3.50645">
        <ele>57</ele>
        <time>2016-04-17T10:18:31.941Z</time>
      </trkpt>
      <trkpt lat="43.31462" lon="3.50651">
        <ele>58</ele>
        <time>2016-04-17T10:18:32.919Z</time>
      </trkpt>
      <trkpt lat="43.3146" lon="3.50661">
        <ele>59</ele>
        <time>2016-04-17T10:18:34.942Z</time>
      </trkpt>
      <trkpt lat="43.3146" lon="3.50667">
        <ele>59</ele>
        <time>2016-04-17T10:18:35.919Z</time>
      </trkpt>
      <trkpt lat="43.31459" lon="3.50673">
        <ele>58</ele>
        <time>2016-04-17T10:18:36.943Z</time>
      </trkpt>
      <trkpt lat="43.31455" lon="3.50678">
        <ele>59</ele>
        <time>2016-04-17T10:18:37.940Z</time>
      </trkpt>
      <trkpt lat="43.31454" lon="3.50688">
        <ele>61</ele>
        <time>2016-04-17T10:18:39.942Z</time>
      </trkpt>
      <trkpt lat="43.31453" lon="3.50694">
        <ele>60</ele>
        <time>2016-04-17T10:18:40.918Z</time>
      </trkpt>
      <trkpt lat="43.3145" lon="3.50705">
        <ele>60</ele>
        <time>2016-04-17T10:18:42.942Z</time>
      </trkpt>
      <trkpt lat="43.31447" lon="3.50709">
        <ele>59</ele>
        <time>2016-04-17T10:18:43.919Z</time>
      </trkpt>
      <trkpt lat="43.31445" lon="3.50719">
        <ele>55</ele>
        <time>2016-04-17T10:18:45.950Z</time>
      </trkpt>
      <trkpt lat="43.31444" lon="3.50724">
        <ele>56</ele>
        <time>2016-04-17T10:18:46.921Z</time>
      </trkpt>
      <trkpt lat="43.31442" lon="3.50735">
        <ele>57</ele>
        <time>2016-04-17T10:18:48.942Z</time>
      </trkpt>
      <trkpt lat="43.31442" lon="3.5074">
        <ele>58</ele>
        <time>2016-04-17T10:18:49.917Z</time>
      </trkpt>
      <trkpt lat="43.31442" lon="3.50751">
        <ele>57</ele>
        <time>2016-04-17T10:18:51.939Z</time>
      </trkpt>
      <trkpt lat="43.31441" lon="3.50756">
        <ele>58</ele>
        <time>2016-04-17T10:18:52.917Z</time>
      </trkpt>
      <trkpt lat="43.31439" lon="3.50767">
        <ele>57</ele>
        <time>2016-04-17T10:18:54.941Z</time>
      </trkpt>
      <trkpt lat="43.31438" lon="3.50773">
        <ele>57</ele>
        <time>2016-04-17T10:18:55.918Z</time>
      </trkpt>
      <trkpt lat="43.31437" lon="3.50783">
        <ele>58</ele>
        <time>2016-04-17T10:18:57.941Z</time>
      </trkpt>
      <trkpt lat="43.31436" lon="3.50788">
        <ele>58</ele>
        <time>2016-04-17T10:18:58.918Z</time>
      </trkpt>
      <trkpt lat="43.31434" lon="3.50799">
        <ele>58</ele>
        <time>2016-04-17T10:19:00.939Z</time>
      </trkpt>
      <trkpt lat="43.31434" lon="3.50805">
        <ele>59</ele>
        <time>2016-04-17T10:19:01.918Z</time>
      </trkpt>
      <trkpt lat="43.31433" lon="3.50816">
        <ele>58</ele>
        <time>2016-04-17T10:19:03.941Z</time>
      </trkpt>
      <trkpt lat="43.31433" lon="3.50822">
        <ele>59</ele>
        <time>2016-04-17T10:19:04.924Z</time>
      </trkpt>
      <trkpt lat="43.31431" lon="3.5083">
        <ele>59</ele>
        <time>2016-04-17T10:19:07.072Z</time>
      </trkpt>
      <trkpt lat="43.31431" lon="3.50835">
        <ele>59</ele>
        <time>2016-04-17T10:19:07.918Z</time>
      </trkpt>
      <trkpt lat="43.31431" lon="3.50842">
        <ele>60</ele>
        <time>2016-04-17T10:19:09.963Z</time>
      </trkpt>
      <trkpt lat="43.31431" lon="3.50848">
        <ele>60</ele>
        <time>2016-04-17T10:19:10.918Z</time>
      </trkpt>
      <trkpt lat="43.31432" lon="3.50858">
        <ele>62</ele>
        <time>2016-04-17T10:19:12.947Z</time>
      </trkpt>
      <trkpt lat="43.31432" lon="3.50863">
        <ele>62</ele>
        <time>2016-04-17T10:19:13.913Z</time>
      </trkpt>
      <trkpt lat="43.3143" lon="3.50871">
        <ele>62</ele>
        <time>2016-04-17T10:19:14.947Z</time>
      </trkpt>
      <trkpt lat="43.3143" lon="3.50876">
        <ele>62</ele>
        <time>2016-04-17T10:19:15.921Z</time>
      </trkpt>
      <trkpt lat="43.31425" lon="3.50882">
        <ele>59</ele>
        <time>2016-04-17T10:19:16.944Z</time>
      </trkpt>
      <trkpt lat="43.31424" lon="3.50887">
        <ele>60</ele>
        <time>2016-04-17T10:19:17.914Z</time>
      </trkpt>
      <trkpt lat="43.31421" lon="3.50894">
        <ele>59</ele>
        <time>2016-04-17T10:19:19.069Z</time>
      </trkpt>
      <trkpt lat="43.31421" lon="3.50899">
        <ele>59</ele>
        <time>2016-04-17T10:19:19.920Z</time>
      </trkpt>
      <trkpt lat="43.31419" lon="3.5091">
        <ele>56</ele>
        <time>2016-04-17T10:19:21.944Z</time>
      </trkpt>
      <trkpt lat="43.31418" lon="3.50914">
        <ele>56</ele>
        <time>2016-04-17T10:19:22.921Z</time>
      </trkpt>
      <trkpt lat="43.31417" lon="3.50925">
        <ele>56</ele>
        <time>2016-04-17T10:19:24.946Z</time>
      </trkpt>
      <trkpt lat="43.31417" lon="3.5093">
        <ele>55</ele>
        <time>2016-04-17T10:19:25.919Z</time>
      </trkpt>
      <trkpt lat="43.31417" lon="3.5094">
        <ele>55</ele>
        <time>2016-04-17T10:19:27.947Z</time>
      </trkpt>
      <trkpt lat="43.31418" lon="3.50946">
        <ele>55</ele>
        <time>2016-04-17T10:19:28.921Z</time>
      </trkpt>
      <trkpt lat="43.31413" lon="3.50953">
        <ele>53</ele>
        <time>2016-04-17T10:19:29.947Z</time>
      </trkpt>
      <trkpt lat="43.31411" lon="3.50962">
        <ele>51</ele>
        <time>2016-04-17T10:19:30.940Z</time>
      </trkpt>
      <trkpt lat="43.31408" lon="3.50972">
        <ele>51</ele>
        <time>2016-04-17T10:19:32.947Z</time>
      </trkpt>
      <trkpt lat="43.31405" lon="3.50977">
        <ele>49</ele>
        <time>2016-04-17T10:19:33.921Z</time>
      </trkpt>
      <trkpt lat="43.31404" lon="3.50987">
        <ele>49</ele>
        <time>2016-04-17T10:19:35.950Z</time>
      </trkpt>
      <trkpt lat="43.31404" lon="3.50993">
        <ele>49</ele>
        <time>2016-04-17T10:19:36.919Z</time>
      </trkpt>
      <trkpt lat="43.31403" lon="3.51005">
        <ele>50</ele>
        <time>2016-04-17T10:19:38.932Z</time>
      </trkpt>
      <trkpt lat="43.31402" lon="3.51012">
        <ele>50</ele>
        <time>2016-04-17T10:19:39.909Z</time>
      </trkpt>
      <trkpt lat="43.31402" lon="3.51018">
        <ele>50</ele>
        <time>2016-04-17T10:19:40.937Z</time>
      </trkpt>
      <trkpt lat="43.314" lon="3.51024">
        <ele>50</ele>
        <time>2016-04-17T10:19:41.917Z</time>
      </trkpt>
      <trkpt lat="43.31396" lon="3.51034">
        <ele>48</ele>
        <time>2016-04-17T10:19:43.946Z</time>
      </trkpt>
      <trkpt lat="43.31395" lon="3.5104">
        <ele>49</ele>
        <time>2016-04-17T10:19:44.920Z</time>
      </trkpt>
      <trkpt lat="43.31394" lon="3.51045">
        <ele>49</ele>
        <time>2016-04-17T10:19:45.936Z</time>
      </trkpt>
      <trkpt lat="43.31394" lon="3.51053">
        <ele>50</ele>
        <time>2016-04-17T10:19:46.943Z</time>
      </trkpt>
      <trkpt lat="43.31393" lon="3.51064">
        <ele>50</ele>
        <time>2016-04-17T10:19:49.080Z</time>
      </trkpt>
      <trkpt lat="43.31393" lon="3.5107">
        <ele>50</ele>
        <time>2016-04-17T10:19:49.916Z</time>
      </trkpt>
      <trkpt lat="43.31389" lon="3.51078">
        <ele>51</ele>
        <time>2016-04-17T10:19:51.943Z</time>
      </trkpt>
      <trkpt lat="43.31388" lon="3.51082">
        <ele>51</ele>
        <time>2016-04-17T10:19:52.918Z</time>
      </trkpt>
      <trkpt lat="43.31387" lon="3.51088">
        <ele>51</ele>
        <time>2016-04-17T10:19:53.941Z</time>
      </trkpt>
      <trkpt lat="43.31388" lon="3.51097">
        <ele>50</ele>
        <time>2016-04-17T10:19:54.920Z</time>
      </trkpt>
      <trkpt lat="43.31386" lon="3.51108">
        <ele>50</ele>
        <time>2016-04-17T10:19:56.945Z</time>
      </trkpt>
      <trkpt lat="43.31387" lon="3.51114">
        <ele>51</ele>
        <time>2016-04-17T10:19:57.918Z</time>
      </trkpt>
      <trkpt lat="43.31386" lon="3.51123">
        <ele>50</ele>
        <time>2016-04-17T10:19:59.951Z</time>
      </trkpt>
      <trkpt lat="43.31386" lon="3.51128">
        <ele>50</ele>
        <time>2016-04-17T10:20:00.910Z</time>
      </trkpt>
      <trkpt lat="43.31386" lon="3.51138">
        <ele>51</ele>
        <time>2016-04-17T10:20:01.946Z</time>
      </trkpt>
      <trkpt lat="43.31386" lon="3.51145">
        <ele>52</ele>
        <time>2016-04-17T10:20:02.947Z</time>
      </trkpt>
      <trkpt lat="43.31383" lon="3.51153">
        <ele>51</ele>
        <time>2016-04-17T10:20:03.945Z</time>
      </trkpt>
      <trkpt lat="43.31382" lon="3.51159">
        <ele>51</ele>
        <time>2016-04-17T10:20:04.919Z</time>
      </trkpt>
      <trkpt lat="43.31379" lon="3.51169">
        <ele>52</ele>
        <time>2016-04-17T10:20:06.937Z</time>
      </trkpt>
      <trkpt lat="43.31376" lon="3.51176">
        <ele>51</ele>
        <time>2016-04-17T10:20:07.918Z</time>
      </trkpt>
      <trkpt lat="43.31376" lon="3.51184">
        <ele>51</ele>
        <time>2016-04-17T10:20:08.949Z</time>
      </trkpt>
      <trkpt lat="43.31375" lon="3.5119">
        <ele>52</ele>
        <time>2016-04-17T10:20:09.918Z</time>
      </trkpt>
      <trkpt lat="43.31374" lon="3.51201">
        <ele>53</ele>
        <time>2016-04-17T10:20:11.943Z</time>
      </trkpt>
      <trkpt lat="43.31373" lon="3.51207">
        <ele>53</ele>
        <time>2016-04-17T10:20:12.918Z</time>
      </trkpt>
      <trkpt lat="43.31372" lon="3.51213">
        <ele>52</ele>
        <time>2016-04-17T10:20:13.947Z</time>
      </trkpt>
      <trkpt lat="43.31371" lon="3.51219">
        <ele>53</ele>
        <time>2016-04-17T10:20:14.916Z</time>
      </trkpt>
      <trkpt lat="43.3137" lon="3.51227">
        <ele>53</ele>
        <time>2016-04-17T10:20:15.947Z</time>
      </trkpt>
      <trkpt lat="43.3137" lon="3.51233">
        <ele>54</ele>
        <time>2016-04-17T10:20:16.917Z</time>
      </trkpt>
      <trkpt lat="43.3137" lon="3.5124">
        <ele>55</ele>
        <time>2016-04-17T10:20:17.947Z</time>
      </trkpt>
      <trkpt lat="43.31369" lon="3.51248">
        <ele>55</ele>
        <time>2016-04-17T10:20:18.915Z</time>
      </trkpt>
      <trkpt lat="43.31365" lon="3.51257">
        <ele>54</ele>
        <time>2016-04-17T10:20:19.946Z</time>
      </trkpt>
      <trkpt lat="43.31365" lon="3.51265">
        <ele>54</ele>
        <time>2016-04-17T10:20:20.916Z</time>
      </trkpt>
      <trkpt lat="43.31365" lon="3.51271">
        <ele>55</ele>
        <time>2016-04-17T10:20:21.946Z</time>
      </trkpt>
      <trkpt lat="43.31366" lon="3.51278">
        <ele>56</ele>
        <time>2016-04-17T10:20:22.920Z</time>
      </trkpt>
      <trkpt lat="43.31365" lon="3.51285">
        <ele>55</ele>
        <time>2016-04-17T10:20:23.968Z</time>
      </trkpt>
      <trkpt lat="43.31367" lon="3.51292">
        <ele>55</ele>
        <time>2016-04-17T10:20:24.919Z</time>
      </trkpt>
      <trkpt lat="43.31366" lon="3.51299">
        <ele>54</ele>
        <time>2016-04-17T10:20:25.946Z</time>
      </trkpt>
      <trkpt lat="43.31365" lon="3.51305">
        <ele>54</ele>
        <time>2016-04-17T10:20:26.917Z</time>
      </trkpt>
      <trkpt lat="43.31366" lon="3.51312">
        <ele>54</ele>
        <time>2016-04-17T10:20:27.944Z</time>
      </trkpt>
      <trkpt lat="43.31366" lon="3.51319">
        <ele>54</ele>
        <time>2016-04-17T10:20:28.918Z</time>
      </trkpt>
      <trkpt lat="43.31366" lon="3.51327">
        <ele>53</ele>
        <time>2016-04-17T10:20:29.946Z</time>
      </trkpt>
      <trkpt lat="43.31365" lon="3.51334">
        <ele>53</ele>
        <time>2016-04-17T10:20:30.918Z</time>
      </trkpt>
      <trkpt lat="43.31365" lon="3.51341">
        <ele>53</ele>
        <time>2016-04-17T10:20:31.946Z</time>
      </trkpt>
      <trkpt lat="43.31365" lon="3.51349">
        <ele>52</ele>
        <time>2016-04-17T10:20:32.918Z</time>
      </trkpt>
      <trkpt lat="43.31364" lon="3.51356">
        <ele>52</ele>
        <time>2016-04-17T10:20:33.938Z</time>
      </trkpt>
      <trkpt lat="43.31366" lon="3.51361">
        <ele>53</ele>
        <time>2016-04-17T10:20:34.918Z</time>
      </trkpt>
      <trkpt lat="43.31364" lon="3.51372">
        <ele>52</ele>
        <time>2016-04-17T10:20:37.096Z</time>
      </trkpt>
      <trkpt lat="43.31361" lon="3.51381">
        <ele>50</ele>
        <time>2016-04-17T10:20:37.922Z</time>
      </trkpt>
      <trkpt lat="43.31362" lon="3.51388">
        <ele>50</ele>
        <time>2016-04-17T10:20:38.947Z</time>
      </trkpt>
      <trkpt lat="43.31362" lon="3.51395">
        <ele>50</ele>
        <time>2016-04-17T10:20:39.914Z</time>
      </trkpt>
      <trkpt lat="43.31362" lon="3.51402">
        <ele>52</ele>
        <time>2016-04-17T10:20:40.945Z</time>
      </trkpt>
      <trkpt lat="43.31363" lon="3.51409">
        <ele>52</ele>
        <time>2016-04-17T10:20:41.921Z</time>
      </trkpt>
      <trkpt lat="43.31363" lon="3.51416">
        <ele>52</ele>
        <time>2016-04-17T10:20:42.945Z</time>
      </trkpt>
      <trkpt lat="43.31363" lon="3.51427">
        <ele>49</ele>
        <time>2016-04-17T10:20:43.918Z</time>
      </trkpt>
      <trkpt lat="43.31366" lon="3.51437">
        <ele>49</ele>
        <time>2016-04-17T10:20:45.946Z</time>
      </trkpt>
      <trkpt lat="43.31367" lon="3.51442">
        <ele>48</ele>
        <time>2016-04-17T10:20:46.918Z</time>
      </trkpt>
      <trkpt lat="43.31368" lon="3.51448">
        <ele>49</ele>
        <time>2016-04-17T10:20:47.944Z</time>
      </trkpt>
      <trkpt lat="43.31368" lon="3.51455">
        <ele>49</ele>
        <time>2016-04-17T10:20:48.922Z</time>
      </trkpt>
      <trkpt lat="43.3137" lon="3.51462">
        <ele>49</ele>
        <time>2016-04-17T10:20:49.939Z</time>
      </trkpt>
      <trkpt lat="43.31371" lon="3.51469">
        <ele>50</ele>
        <time>2016-04-17T10:20:50.913Z</time>
      </trkpt>
      <trkpt lat="43.31372" lon="3.5148">
        <ele>50</ele>
        <time>2016-04-17T10:20:52.993Z</time>
      </trkpt>
      <trkpt lat="43.31373" lon="3.5149">
        <ele>47</ele>
        <time>2016-04-17T10:20:53.917Z</time>
      </trkpt>
      <trkpt lat="43.31374" lon="3.51498">
        <ele>46</ele>
        <time>2016-04-17T10:20:54.938Z</time>
      </trkpt>
      <trkpt lat="43.31375" lon="3.51504">
        <ele>47</ele>
        <time>2016-04-17T10:20:55.943Z</time>
      </trkpt>
      <trkpt lat="43.31376" lon="3.51512">
        <ele>47</ele>
        <time>2016-04-17T10:20:56.944Z</time>
      </trkpt>
      <trkpt lat="43.31376" lon="3.5152">
        <ele>47</ele>
        <time>2016-04-17T10:20:57.913Z</time>
      </trkpt>
      <trkpt lat="43.31378" lon="3.51526">
        <ele>46</ele>
        <time>2016-04-17T10:20:58.944Z</time>
      </trkpt>
      <trkpt lat="43.31379" lon="3.51533">
        <ele>45</ele>
        <time>2016-04-17T10:20:59.916Z</time>
      </trkpt>
      <trkpt lat="43.31384" lon="3.51542">
        <ele>48</ele>
        <time>2016-04-17T10:21:01.947Z</time>
      </trkpt>
      <trkpt lat="43.31386" lon="3.5155">
        <ele>47</ele>
        <time>2016-04-17T10:21:02.918Z</time>
      </trkpt>
      <trkpt lat="43.31387" lon="3.51558">
        <ele>47</ele>
        <time>2016-04-17T10:21:03.946Z</time>
      </trkpt>
      <trkpt lat="43.31387" lon="3.51565">
        <ele>46</ele>
        <time>2016-04-17T10:21:04.917Z</time>
      </trkpt>
      <trkpt lat="43.3139" lon="3.51571">
        <ele>44</ele>
        <time>2016-04-17T10:21:05.946Z</time>
      </trkpt>
      <trkpt lat="43.31391" lon="3.51577">
        <ele>44</ele>
        <time>2016-04-17T10:21:06.914Z</time>
      </trkpt>
      <trkpt lat="43.31393" lon="3.51581">
        <ele>45</ele>
        <time>2016-04-17T10:21:07.945Z</time>
      </trkpt>
      <trkpt lat="43.31393" lon="3.51589">
        <ele>45</ele>
        <time>2016-04-17T10:21:08.920Z</time>
      </trkpt>
      <trkpt lat="43.31393" lon="3.51596">
        <ele>46</ele>
        <time>2016-04-17T10:21:09.945Z</time>
      </trkpt>
      <trkpt lat="43.31394" lon="3.51603">
        <ele>46</ele>
        <time>2016-04-17T10:21:10.914Z</time>
      </trkpt>
      <trkpt lat="43.31397" lon="3.51614">
        <ele>47</ele>
        <time>2016-04-17T10:21:12.939Z</time>
      </trkpt>
      <trkpt lat="43.31396" lon="3.51623">
        <ele>47</ele>
        <time>2016-04-17T10:21:13.917Z</time>
      </trkpt>
      <trkpt lat="43.31399" lon="3.51634">
        <ele>49</ele>
        <time>2016-04-17T10:21:15.945Z</time>
      </trkpt>
      <trkpt lat="43.31401" lon="3.5164">
        <ele>49</ele>
        <time>2016-04-17T10:21:16.917Z</time>
      </trkpt>
      <trkpt lat="43.31405" lon="3.51646">
        <ele>49</ele>
        <time>2016-04-17T10:21:17.945Z</time>
      </trkpt>
      <trkpt lat="43.31406" lon="3.51653">
        <ele>48</ele>
        <time>2016-04-17T10:21:18.921Z</time>
      </trkpt>
      <trkpt lat="43.31409" lon="3.51661">
        <ele>47</ele>
        <time>2016-04-17T10:21:19.946Z</time>
      </trkpt>
      <trkpt lat="43.3141" lon="3.51667">
        <ele>47</ele>
        <time>2016-04-17T10:21:20.914Z</time>
      </trkpt>
      <trkpt lat="43.31415" lon="3.51677">
        <ele>47</ele>
        <time>2016-04-17T10:21:22.961Z</time>
      </trkpt>
      <trkpt lat="43.31417" lon="3.51681">
        <ele>49</ele>
        <time>2016-04-17T10:21:23.916Z</time>
      </trkpt>
      <trkpt lat="43.31419" lon="3.51692">
        <ele>48</ele>
        <time>2016-04-17T10:21:26.949Z</time>
      </trkpt>
      <trkpt lat="43.31418" lon="3.51697">
        <ele>48</ele>
        <time>2016-04-17T10:21:27.914Z</time>
      </trkpt>
      <trkpt lat="43.31419" lon="3.51705">
        <ele>48</ele>
        <time>2016-04-17T10:21:28.945Z</time>
      </trkpt>
      <trkpt lat="43.31421" lon="3.51709">
        <ele>48</ele>
        <time>2016-04-17T10:21:29.920Z</time>
      </trkpt>
      <trkpt lat="43.31422" lon="3.51715">
        <ele>47</ele>
        <time>2016-04-17T10:21:30.938Z</time>
      </trkpt>
      <trkpt lat="43.31422" lon="3.51722">
        <ele>49</ele>
        <time>2016-04-17T10:21:31.917Z</time>
      </trkpt>
      <trkpt lat="43.31424" lon="3.51733">
        <ele>49</ele>
        <time>2016-04-17T10:21:33.952Z</time>
      </trkpt>
      <trkpt lat="43.31425" lon="3.51739">
        <ele>50</ele>
        <time>2016-04-17T10:21:34.917Z</time>
      </trkpt>
      <trkpt lat="43.31426" lon="3.51746">
        <ele>50</ele>
        <time>2016-04-17T10:21:36.069Z</time>
      </trkpt>
      <trkpt lat="43.31428" lon="3.51751">
        <ele>52</ele>
        <time>2016-04-17T10:21:36.919Z</time>
      </trkpt>
      <trkpt lat="43.31427" lon="3.51759">
        <ele>51</ele>
        <time>2016-04-17T10:21:37.946Z</time>
      </trkpt>
      <trkpt lat="43.31427" lon="3.51766">
        <ele>52</ele>
        <time>2016-04-17T10:21:38.917Z</time>
      </trkpt>
      <trkpt lat="43.31427" lon="3.51773">
        <ele>52</ele>
        <time>2016-04-17T10:21:39.948Z</time>
      </trkpt>
      <trkpt lat="43.31428" lon="3.51779">
        <ele>52</ele>
        <time>2016-04-17T10:21:40.913Z</time>
      </trkpt>
      <trkpt lat="43.31431" lon="3.51785">
        <ele>54</ele>
        <time>2016-04-17T10:21:41.945Z</time>
      </trkpt>
      <trkpt lat="43.31432" lon="3.51791">
        <ele>54</ele>
        <time>2016-04-17T10:21:42.916Z</time>
      </trkpt>
      <trkpt lat="43.31433" lon="3.51794">
        <ele>53</ele>
        <time>2016-04-17T10:21:43.970Z</time>
      </trkpt>
      <trkpt lat="43.3143" lon="3.51806">
        <ele>50</ele>
        <time>2016-04-17T10:21:44.921Z</time>
      </trkpt>
      <trkpt lat="43.31431" lon="3.51813">
        <ele>50</ele>
        <time>2016-04-17T10:21:45.945Z</time>
      </trkpt>
      <trkpt lat="43.31432" lon="3.5182">
        <ele>50</ele>
        <time>2016-04-17T10:21:46.914Z</time>
      </trkpt>
      <trkpt lat="43.31436" lon="3.51829">
        <ele>50</ele>
        <time>2016-04-17T10:21:48.947Z</time>
      </trkpt>
      <trkpt lat="43.31438" lon="3.51836">
        <ele>51</ele>
        <time>2016-04-17T10:21:49.919Z</time>
      </trkpt>
      <trkpt lat="43.31436" lon="3.51844">
        <ele>48</ele>
        <time>2016-04-17T10:21:50.944Z</time>
      </trkpt>
      <trkpt lat="43.31437" lon="3.5185">
        <ele>49</ele>
        <time>2016-04-17T10:21:51.914Z</time>
      </trkpt>
      <trkpt lat="43.3144" lon="3.51857">
        <ele>48</ele>
        <time>2016-04-17T10:21:52.946Z</time>
      </trkpt>
      <trkpt lat="43.31441" lon="3.51863">
        <ele>48</ele>
        <time>2016-04-17T10:21:53.915Z</time>
      </trkpt>
      <trkpt lat="43.31444" lon="3.51875">
        <ele>48</ele>
        <time>2016-04-17T10:21:55.948Z</time>
      </trkpt>
      <trkpt lat="43.31445" lon="3.51881">
        <ele>48</ele>
        <time>2016-04-17T10:21:56.913Z</time>
      </trkpt>
      <trkpt lat="43.31446" lon="3.51887">
        <ele>48</ele>
        <time>2016-04-17T10:21:57.944Z</time>
      </trkpt>
      <trkpt lat="43.31447" lon="3.51894">
        <ele>49</ele>
        <time>2016-04-17T10:21:58.916Z</time>
      </trkpt>
      <trkpt lat="43.31448" lon="3.51901">
        <ele>49</ele>
        <time>2016-04-17T10:22:00.067Z</time>
      </trkpt>
      <trkpt lat="43.3145" lon="3.51908">
        <ele>50</ele>
        <time>2016-04-17T10:22:00.915Z</time>
      </trkpt>
      <trkpt lat="43.31451" lon="3.51912">
        <ele>50</ele>
        <time>2016-04-17T10:22:01.943Z</time>
      </trkpt>
      <trkpt lat="43.31453" lon="3.5192">
        <ele>51</ele>
        <time>2016-04-17T10:22:02.923Z</time>
      </trkpt>
      <trkpt lat="43.31455" lon="3.51926">
        <ele>51</ele>
        <time>2016-04-17T10:22:03.948Z</time>
      </trkpt>
      <trkpt lat="43.31456" lon="3.51932">
        <ele>52</ele>
        <time>2016-04-17T10:22:04.945Z</time>
      </trkpt>
      <trkpt lat="43.31457" lon="3.51941">
        <ele>52</ele>
        <time>2016-04-17T10:22:05.946Z</time>
      </trkpt>
      <trkpt lat="43.31458" lon="3.5195">
        <ele>51</ele>
        <time>2016-04-17T10:22:06.918Z</time>
      </trkpt>
      <trkpt lat="43.31459" lon="3.51956">
        <ele>49</ele>
        <time>2016-04-17T10:22:07.945Z</time>
      </trkpt>
      <trkpt lat="43.3146" lon="3.51962">
        <ele>49</ele>
        <time>2016-04-17T10:22:08.913Z</time>
      </trkpt>
      <trkpt lat="43.31462" lon="3.51974">
        <ele>48</ele>
        <time>2016-04-17T10:22:10.938Z</time>
      </trkpt>
      <trkpt lat="43.31465" lon="3.51977">
        <ele>50</ele>
        <time>2016-04-17T10:22:11.917Z</time>
      </trkpt>
      <trkpt lat="43.31465" lon="3.51981">
        <ele>51</ele>
        <time>2016-04-17T10:22:12.948Z</time>
      </trkpt>
      <trkpt lat="43.31467" lon="3.51989">
        <ele>49</ele>
        <time>2016-04-17T10:22:13.919Z</time>
      </trkpt>
      <trkpt lat="43.3147" lon="3.51998">
        <ele>50</ele>
        <time>2016-04-17T10:22:15.946Z</time>
      </trkpt>
      <trkpt lat="43.3147" lon="3.52004">
        <ele>50</ele>
        <time>2016-04-17T10:22:16.913Z</time>
      </trkpt>
      <trkpt lat="43.31473" lon="3.52015">
        <ele>50</ele>
        <time>2016-04-17T10:22:18.940Z</time>
      </trkpt>
      <trkpt lat="43.31475" lon="3.52019">
        <ele>52</ele>
        <time>2016-04-17T10:22:19.919Z</time>
      </trkpt>
      <trkpt lat="43.31477" lon="3.52029">
        <ele>51</ele>
        <time>2016-04-17T10:22:21.940Z</time>
      </trkpt>
      <trkpt lat="43.31478" lon="3.52034">
        <ele>51</ele>
        <time>2016-04-17T10:22:22.917Z</time>
      </trkpt>
      <trkpt lat="43.3148" lon="3.52045">
        <ele>51</ele>
        <time>2016-04-17T10:22:24.938Z</time>
      </trkpt>
      <trkpt lat="43.31481" lon="3.5205">
        <ele>53</ele>
        <time>2016-04-17T10:22:25.918Z</time>
      </trkpt>
      <trkpt lat="43.31482" lon="3.52055">
        <ele>53</ele>
        <time>2016-04-17T10:22:26.939Z</time>
      </trkpt>
      <trkpt lat="43.31482" lon="3.52064">
        <ele>52</ele>
        <time>2016-04-17T10:22:27.918Z</time>
      </trkpt>
      <trkpt lat="43.31485" lon="3.52076">
        <ele>51</ele>
        <time>2016-04-17T10:22:29.946Z</time>
      </trkpt>
      <trkpt lat="43.31485" lon="3.52081">
        <ele>51</ele>
        <time>2016-04-17T10:22:30.921Z</time>
      </trkpt>
      <trkpt lat="43.31486" lon="3.52089">
        <ele>50</ele>
        <time>2016-04-17T10:22:31.945Z</time>
      </trkpt>
      <trkpt lat="43.31486" lon="3.52095">
        <ele>50</ele>
        <time>2016-04-17T10:22:32.915Z</time>
      </trkpt>
      <trkpt lat="43.31485" lon="3.52107">
        <ele>50</ele>
        <time>2016-04-17T10:22:34.952Z</time>
      </trkpt>
      <trkpt lat="43.31484" lon="3.52113">
        <ele>49</ele>
        <time>2016-04-17T10:22:35.917Z</time>
      </trkpt>
      <trkpt lat="43.31488" lon="3.52124">
        <ele>51</ele>
        <time>2016-04-17T10:22:37.947Z</time>
      </trkpt>
      <trkpt lat="43.31489" lon="3.5213">
        <ele>51</ele>
        <time>2016-04-17T10:22:38.914Z</time>
      </trkpt>
      <trkpt lat="43.31488" lon="3.52138">
        <ele>52</ele>
        <time>2016-04-17T10:22:39.946Z</time>
      </trkpt>
      <trkpt lat="43.31489" lon="3.52144">
        <ele>52</ele>
        <time>2016-04-17T10:22:40.917Z</time>
      </trkpt>
      <trkpt lat="43.3149" lon="3.52155">
        <ele>53</ele>
        <time>2016-04-17T10:22:42.940Z</time>
      </trkpt>
      <trkpt lat="43.31491" lon="3.52159">
        <ele>53</ele>
        <time>2016-04-17T10:22:43.919Z</time>
      </trkpt>
      <trkpt lat="43.31494" lon="3.52164">
        <ele>54</ele>
        <time>2016-04-17T10:22:44.947Z</time>
      </trkpt>
      <trkpt lat="43.31495" lon="3.52171">
        <ele>54</ele>
        <time>2016-04-17T10:22:45.918Z</time>
      </trkpt>
      <trkpt lat="43.31497" lon="3.5218">
        <ele>52</ele>
        <time>2016-04-17T10:22:47.944Z</time>
      </trkpt>
      <trkpt lat="43.31499" lon="3.52184">
        <ele>53</ele>
        <time>2016-04-17T10:22:48.914Z</time>
      </trkpt>
      <trkpt lat="43.315" lon="3.52191">
        <ele>53</ele>
        <time>2016-04-17T10:22:49.936Z</time>
      </trkpt>
      <trkpt lat="43.31503" lon="3.52195">
        <ele>53</ele>
        <time>2016-04-17T10:22:50.920Z</time>
      </trkpt>
      <trkpt lat="43.31504" lon="3.52203">
        <ele>54</ele>
        <time>2016-04-17T10:22:52.947Z</time>
      </trkpt>
      <trkpt lat="43.31504" lon="3.52213">
        <ele>52</ele>
        <time>2016-04-17T10:22:53.918Z</time>
      </trkpt>
      <trkpt lat="43.31503" lon="3.52219">
        <ele>52</ele>
        <time>2016-04-17T10:22:54.944Z</time>
      </trkpt>
      <trkpt lat="43.31503" lon="3.52226">
        <ele>51</ele>
        <time>2016-04-17T10:22:55.918Z</time>
      </trkpt>
      <trkpt lat="43.31504" lon="3.52233">
        <ele>52</ele>
        <time>2016-04-17T10:22:56.946Z</time>
      </trkpt>
      <trkpt lat="43.31505" lon="3.52239">
        <ele>52</ele>
        <time>2016-04-17T10:22:57.913Z</time>
      </trkpt>
      <trkpt lat="43.31505" lon="3.52247">
        <ele>50</ele>
        <time>2016-04-17T10:22:59.086Z</time>
      </trkpt>
      <trkpt lat="43.31506" lon="3.52253">
        <ele>49</ele>
        <time>2016-04-17T10:22:59.920Z</time>
      </trkpt>
      <trkpt lat="43.31508" lon="3.52259">
        <ele>50</ele>
        <time>2016-04-17T10:23:00.939Z</time>
      </trkpt>
      <trkpt lat="43.31509" lon="3.52265">
        <ele>49</ele>
        <time>2016-04-17T10:23:01.914Z</time>
      </trkpt>
      <trkpt lat="43.31511" lon="3.52272">
        <ele>50</ele>
        <time>2016-04-17T10:23:02.970Z</time>
      </trkpt>
      <trkpt lat="43.31512" lon="3.52278">
        <ele>50</ele>
        <time>2016-04-17T10:23:03.915Z</time>
      </trkpt>
      <trkpt lat="43.31513" lon="3.52288">
        <ele>49</ele>
        <time>2016-04-17T10:23:05.948Z</time>
      </trkpt>
      <trkpt lat="43.31515" lon="3.52292">
        <ele>50</ele>
        <time>2016-04-17T10:23:06.918Z</time>
      </trkpt>
      <trkpt lat="43.31516" lon="3.52299">
        <ele>51</ele>
        <time>2016-04-17T10:23:07.944Z</time>
      </trkpt>
      <trkpt lat="43.31517" lon="3.52308">
        <ele>50</ele>
        <time>2016-04-17T10:23:08.918Z</time>
      </trkpt>
      <trkpt lat="43.3152" lon="3.52317">
        <ele>50</ele>
        <time>2016-04-17T10:23:09.946Z</time>
      </trkpt>
      <trkpt lat="43.31522" lon="3.52322">
        <ele>49</ele>
        <time>2016-04-17T10:23:10.917Z</time>
      </trkpt>
      <trkpt lat="43.31525" lon="3.52326">
        <ele>50</ele>
        <time>2016-04-17T10:23:11.946Z</time>
      </trkpt>
      <trkpt lat="43.31524" lon="3.52335">
        <ele>50</ele>
        <time>2016-04-17T10:23:12.916Z</time>
      </trkpt>
      <trkpt lat="43.31525" lon="3.52341">
        <ele>50</ele>
        <time>2016-04-17T10:23:13.936Z</time>
      </trkpt>
      <trkpt lat="43.31526" lon="3.52349">
        <ele>49</ele>
        <time>2016-04-17T10:23:14.918Z</time>
      </trkpt>
      <trkpt lat="43.31528" lon="3.52357">
        <ele>49</ele>
        <time>2016-04-17T10:23:15.947Z</time>
      </trkpt>
      <trkpt lat="43.31529" lon="3.52364">
        <ele>48</ele>
        <time>2016-04-17T10:23:16.917Z</time>
      </trkpt>
      <trkpt lat="43.31531" lon="3.52371">
        <ele>46</ele>
        <time>2016-04-17T10:23:17.946Z</time>
      </trkpt>
      <trkpt lat="43.31533" lon="3.52376">
        <ele>46</ele>
        <time>2016-04-17T10:23:18.919Z</time>
      </trkpt>
      <trkpt lat="43.31535" lon="3.52387">
        <ele>45</ele>
        <time>2016-04-17T10:23:20.946Z</time>
      </trkpt>
      <trkpt lat="43.31537" lon="3.52392">
        <ele>45</ele>
        <time>2016-04-17T10:23:21.919Z</time>
      </trkpt>
      <trkpt lat="43.31538" lon="3.52397">
        <ele>45</ele>
        <time>2016-04-17T10:23:22.949Z</time>
      </trkpt>
      <trkpt lat="43.31538" lon="3.52404">
        <ele>45</ele>
        <time>2016-04-17T10:23:23.941Z</time>
      </trkpt>
      <trkpt lat="43.31541" lon="3.52415">
        <ele>45</ele>
        <time>2016-04-17T10:23:25.945Z</time>
      </trkpt>
      <trkpt lat="43.31543" lon="3.5242">
        <ele>45</ele>
        <time>2016-04-17T10:23:26.917Z</time>
      </trkpt>
      <trkpt lat="43.31547" lon="3.52425">
        <ele>46</ele>
        <time>2016-04-17T10:23:27.944Z</time>
      </trkpt>
      <trkpt lat="43.3155" lon="3.52429">
        <ele>46</ele>
        <time>2016-04-17T10:23:28.913Z</time>
      </trkpt>
      <trkpt lat="43.31552" lon="3.5244">
        <ele>46</ele>
        <time>2016-04-17T10:23:30.941Z</time>
      </trkpt>
      <trkpt lat="43.31554" lon="3.52445">
        <ele>47</ele>
        <time>2016-04-17T10:23:31.921Z</time>
      </trkpt>
      <trkpt lat="43.31557" lon="3.52455">
        <ele>49</ele>
        <time>2016-04-17T10:23:33.949Z</time>
      </trkpt>
      <trkpt lat="43.31558" lon="3.5246">
        <ele>46</ele>
        <time>2016-04-17T10:23:34.922Z</time>
      </trkpt>
      <trkpt lat="43.31561" lon="3.52471">
        <ele>47</ele>
        <time>2016-04-17T10:23:36.942Z</time>
      </trkpt>
      <trkpt lat="43.3156" lon="3.52479">
        <ele>47</ele>
        <time>2016-04-17T10:23:37.920Z</time>
      </trkpt>
      <trkpt lat="43.31561" lon="3.5249">
        <ele>45</ele>
        <time>2016-04-17T10:23:39.943Z</time>
      </trkpt>
      <trkpt lat="43.31562" lon="3.52496">
        <ele>46</ele>
        <time>2016-04-17T10:23:40.916Z</time>
      </trkpt>
      <trkpt lat="43.31565" lon="3.52506">
        <ele>47</ele>
        <time>2016-04-17T10:23:42.940Z</time>
      </trkpt>
      <trkpt lat="43.31564" lon="3.52515">
        <ele>47</ele>
        <time>2016-04-17T10:23:43.918Z</time>
      </trkpt>
      <trkpt lat="43.31565" lon="3.52522">
        <ele>47</ele>
        <time>2016-04-17T10:23:44.965Z</time>
      </trkpt>
      <trkpt lat="43.31566" lon="3.52529">
        <ele>48</ele>
        <time>2016-04-17T10:23:45.918Z</time>
      </trkpt>
      <trkpt lat="43.31566" lon="3.52536">
        <ele>48</ele>
        <time>2016-04-17T10:23:46.940Z</time>
      </trkpt>
      <trkpt lat="43.31566" lon="3.52542">
        <ele>48</ele>
        <time>2016-04-17T10:23:47.918Z</time>
      </trkpt>
      <trkpt lat="43.31567" lon="3.52554">
        <ele>48</ele>
        <time>2016-04-17T10:23:49.945Z</time>
      </trkpt>
      <trkpt lat="43.31567" lon="3.52559">
        <ele>49</ele>
        <time>2016-04-17T10:23:50.918Z</time>
      </trkpt>
      <trkpt lat="43.31568" lon="3.5257">
        <ele>48</ele>
        <time>2016-04-17T10:23:52.946Z</time>
      </trkpt>
      <trkpt lat="43.31567" lon="3.52576">
        <ele>45</ele>
        <time>2016-04-17T10:23:53.917Z</time>
      </trkpt>
      <trkpt lat="43.31568" lon="3.52587">
        <ele>46</ele>
        <time>2016-04-17T10:23:55.940Z</time>
      </trkpt>
      <trkpt lat="43.31568" lon="3.52592">
        <ele>46</ele>
        <time>2016-04-17T10:23:56.916Z</time>
      </trkpt>
      <trkpt lat="43.31569" lon="3.526">
        <ele>46</ele>
        <time>2016-04-17T10:23:57.944Z</time>
      </trkpt>
      <trkpt lat="43.3157" lon="3.52606">
        <ele>46</ele>
        <time>2016-04-17T10:23:58.916Z</time>
      </trkpt>
      <trkpt lat="43.3157" lon="3.52613">
        <ele>48</ele>
        <time>2016-04-17T10:23:59.945Z</time>
      </trkpt>
      <trkpt lat="43.31571" lon="3.52619">
        <ele>49</ele>
        <time>2016-04-17T10:24:00.924Z</time>
      </trkpt>
      <trkpt lat="43.31572" lon="3.52625">
        <ele>49</ele>
        <time>2016-04-17T10:24:01.937Z</time>
      </trkpt>
      <trkpt lat="43.31573" lon="3.52632">
        <ele>49</ele>
        <time>2016-04-17T10:24:02.918Z</time>
      </trkpt>
      <trkpt lat="43.31574" lon="3.52644">
        <ele>49</ele>
        <time>2016-04-17T10:24:04.995Z</time>
      </trkpt>
      <trkpt lat="43.31576" lon="3.52649">
        <ele>50</ele>
        <time>2016-04-17T10:24:05.917Z</time>
      </trkpt>
      <trkpt lat="43.31576" lon="3.52655">
        <ele>51</ele>
        <time>2016-04-17T10:24:06.947Z</time>
      </trkpt>
      <trkpt lat="43.31577" lon="3.52662">
        <ele>52</ele>
        <time>2016-04-17T10:24:07.919Z</time>
      </trkpt>
      <trkpt lat="43.31576" lon="3.52668">
        <ele>51</ele>
        <time>2016-04-17T10:24:08.950Z</time>
      </trkpt>
      <trkpt lat="43.31576" lon="3.52675">
        <ele>51</ele>
        <time>2016-04-17T10:24:09.919Z</time>
      </trkpt>
      <trkpt lat="43.31579" lon="3.52685">
        <ele>52</ele>
        <time>2016-04-17T10:24:11.944Z</time>
      </trkpt>
      <trkpt lat="43.31579" lon="3.52691">
        <ele>52</ele>
        <time>2016-04-17T10:24:12.919Z</time>
      </trkpt>
      <trkpt lat="43.31581" lon="3.527">
        <ele>52</ele>
        <time>2016-04-17T10:24:14.936Z</time>
      </trkpt>
      <trkpt lat="43.3158" lon="3.52706">
        <ele>51</ele>
        <time>2016-04-17T10:24:15.919Z</time>
      </trkpt>
      <trkpt lat="43.31581" lon="3.52718">
        <ele>53</ele>
        <time>2016-04-17T10:24:17.936Z</time>
      </trkpt>
      <trkpt lat="43.31583" lon="3.52723">
        <ele>55</ele>
        <time>2016-04-17T10:24:18.918Z</time>
      </trkpt>
      <trkpt lat="43.31585" lon="3.52734">
        <ele>56</ele>
        <time>2016-04-17T10:24:20.946Z</time>
      </trkpt>
      <trkpt lat="43.31585" lon="3.5274">
        <ele>56</ele>
        <time>2016-04-17T10:24:21.914Z</time>
      </trkpt>
      <trkpt lat="43.31587" lon="3.52749">
        <ele>55</ele>
        <time>2016-04-17T10:24:23.006Z</time>
      </trkpt>
      <trkpt lat="43.31588" lon="3.52752">
        <ele>55</ele>
        <time>2016-04-17T10:24:23.919Z</time>
      </trkpt>
      <trkpt lat="43.31589" lon="3.52762">
        <ele>55</ele>
        <time>2016-04-17T10:24:25.940Z</time>
      </trkpt>
      <trkpt lat="43.3159" lon="3.52769">
        <ele>56</ele>
        <time>2016-04-17T10:24:26.918Z</time>
      </trkpt>
      <trkpt lat="43.3159" lon="3.52776">
        <ele>56</ele>
        <time>2016-04-17T10:24:27.942Z</time>
      </trkpt>
      <trkpt lat="43.31591" lon="3.52782">
        <ele>56</ele>
        <time>2016-04-17T10:24:28.919Z</time>
      </trkpt>
      <trkpt lat="43.31592" lon="3.52788">
        <ele>57</ele>
        <time>2016-04-17T10:24:29.942Z</time>
      </trkpt>
      <trkpt lat="43.31592" lon="3.52795">
        <ele>55</ele>
        <time>2016-04-17T10:24:30.920Z</time>
      </trkpt>
      <trkpt lat="43.31592" lon="3.52801">
        <ele>55</ele>
        <time>2016-04-17T10:24:31.942Z</time>
      </trkpt>
      <trkpt lat="43.31592" lon="3.52807">
        <ele>55</ele>
        <time>2016-04-17T10:24:32.940Z</time>
      </trkpt>
      <trkpt lat="43.31592" lon="3.52813">
        <ele>55</ele>
        <time>2016-04-17T10:24:33.941Z</time>
      </trkpt>
      <trkpt lat="43.31593" lon="3.5282">
        <ele>55</ele>
        <time>2016-04-17T10:24:34.919Z</time>
      </trkpt>
      <trkpt lat="43.31594" lon="3.52831">
        <ele>56</ele>
        <time>2016-04-17T10:24:36.941Z</time>
      </trkpt>
      <trkpt lat="43.31595" lon="3.52837">
        <ele>56</ele>
        <time>2016-04-17T10:24:37.918Z</time>
      </trkpt>
      <trkpt lat="43.31597" lon="3.52849">
        <ele>56</ele>
        <time>2016-04-17T10:24:39.942Z</time>
      </trkpt>
      <trkpt lat="43.31598" lon="3.52855">
        <ele>56</ele>
        <time>2016-04-17T10:24:40.919Z</time>
      </trkpt>
      <trkpt lat="43.31599" lon="3.52862">
        <ele>56</ele>
        <time>2016-04-17T10:24:41.943Z</time>
      </trkpt>
      <trkpt lat="43.316" lon="3.52867">
        <ele>57</ele>
        <time>2016-04-17T10:24:42.919Z</time>
      </trkpt>
      <trkpt lat="43.31602" lon="3.52874">
        <ele>57</ele>
        <time>2016-04-17T10:24:43.941Z</time>
      </trkpt>
      <trkpt lat="43.31604" lon="3.5288">
        <ele>57</ele>
        <time>2016-04-17T10:24:44.918Z</time>
      </trkpt>
      <trkpt lat="43.31607" lon="3.5289">
        <ele>57</ele>
        <time>2016-04-17T10:24:46.942Z</time>
      </trkpt>
      <trkpt lat="43.31609" lon="3.52896">
        <ele>57</ele>
        <time>2016-04-17T10:24:47.918Z</time>
      </trkpt>
      <trkpt lat="43.31613" lon="3.52908">
        <ele>56</ele>
        <time>2016-04-17T10:24:49.944Z</time>
      </trkpt>
      <trkpt lat="43.31614" lon="3.52913">
        <ele>56</ele>
        <time>2016-04-17T10:24:50.917Z</time>
      </trkpt>
      <trkpt lat="43.31617" lon="3.52924">
        <ele>56</ele>
        <time>2016-04-17T10:24:52.941Z</time>
      </trkpt>
      <trkpt lat="43.31618" lon="3.5293">
        <ele>56</ele>
        <time>2016-04-17T10:24:53.922Z</time>
      </trkpt>
      <trkpt lat="43.3162" lon="3.52936">
        <ele>57</ele>
        <time>2016-04-17T10:24:54.943Z</time>
      </trkpt>
      <trkpt lat="43.31622" lon="3.52943">
        <ele>56</ele>
        <time>2016-04-17T10:24:55.919Z</time>
      </trkpt>
      <trkpt lat="43.31625" lon="3.52952">
        <ele>55</ele>
        <time>2016-04-17T10:24:56.941Z</time>
      </trkpt>
      <trkpt lat="43.31628" lon="3.52959">
        <ele>54</ele>
        <time>2016-04-17T10:24:57.919Z</time>
      </trkpt>
      <trkpt lat="43.3163" lon="3.52967">
        <ele>54</ele>
        <time>2016-04-17T10:24:58.942Z</time>
      </trkpt>
      <trkpt lat="43.31632" lon="3.52973">
        <ele>54</ele>
        <time>2016-04-17T10:24:59.919Z</time>
      </trkpt>
      <trkpt lat="43.31635" lon="3.52979">
        <ele>53</ele>
        <time>2016-04-17T10:25:00.935Z</time>
      </trkpt>
      <trkpt lat="43.31638" lon="3.52983">
        <ele>53</ele>
        <time>2016-04-17T10:25:01.919Z</time>
      </trkpt>
      <trkpt lat="43.31641" lon="3.52989">
        <ele>53</ele>
        <time>2016-04-17T10:25:02.941Z</time>
      </trkpt>
      <trkpt lat="43.31645" lon="3.52993">
        <ele>52</ele>
        <time>2016-04-17T10:25:03.919Z</time>
      </trkpt>
      <trkpt lat="43.31649" lon="3.52995">
        <ele>52</ele>
        <time>2016-04-17T10:25:04.964Z</time>
      </trkpt>
      <trkpt lat="43.31652" lon="3.53">
        <ele>53</ele>
        <time>2016-04-17T10:25:05.919Z</time>
      </trkpt>
      <trkpt lat="43.31656" lon="3.53004">
        <ele>53</ele>
        <time>2016-04-17T10:25:06.942Z</time>
      </trkpt>
      <trkpt lat="43.31659" lon="3.5301">
        <ele>51</ele>
        <time>2016-04-17T10:25:07.919Z</time>
      </trkpt>
      <trkpt lat="43.31665" lon="3.53019">
        <ele>52</ele>
        <time>2016-04-17T10:25:10.084Z</time>
      </trkpt>
      <trkpt lat="43.31668" lon="3.53022">
        <ele>52</ele>
        <time>2016-04-17T10:25:10.918Z</time>
      </trkpt>
      <trkpt lat="43.31672" lon="3.53026">
        <ele>52</ele>
        <time>2016-04-17T10:25:11.941Z</time>
      </trkpt>
      <trkpt lat="43.31676" lon="3.5303">
        <ele>52</ele>
        <time>2016-04-17T10:25:12.921Z</time>
      </trkpt>
      <trkpt lat="43.31682" lon="3.53038">
        <ele>51</ele>
        <time>2016-04-17T10:25:14.946Z</time>
      </trkpt>
      <trkpt lat="43.31685" lon="3.53042">
        <ele>51</ele>
        <time>2016-04-17T10:25:15.920Z</time>
      </trkpt>
      <trkpt lat="43.31691" lon="3.53048">
        <ele>51</ele>
        <time>2016-04-17T10:25:17.936Z</time>
      </trkpt>
      <trkpt lat="43.31694" lon="3.53049">
        <ele>52</ele>
        <time>2016-04-17T10:25:18.918Z</time>
      </trkpt>
      <trkpt lat="43.31701" lon="3.53051">
        <ele>54</ele>
        <time>2016-04-17T10:25:20.975Z</time>
      </trkpt>
      <trkpt lat="43.31705" lon="3.53053">
        <ele>55</ele>
        <time>2016-04-17T10:25:21.919Z</time>
      </trkpt>
      <trkpt lat="43.31709" lon="3.5306">
        <ele>55</ele>
        <time>2016-04-17T10:25:22.946Z</time>
      </trkpt>
      <trkpt lat="43.31713" lon="3.53063">
        <ele>54</ele>
        <time>2016-04-17T10:25:23.918Z</time>
      </trkpt>
      <trkpt lat="43.31719" lon="3.53069">
        <ele>55</ele>
        <time>2016-04-17T10:25:25.946Z</time>
      </trkpt>
      <trkpt lat="43.31723" lon="3.53073">
        <ele>56</ele>
        <time>2016-04-17T10:25:26.917Z</time>
      </trkpt>
      <trkpt lat="43.31727" lon="3.53075">
        <ele>56</ele>
        <time>2016-04-17T10:25:27.945Z</time>
      </trkpt>
      <trkpt lat="43.31731" lon="3.53079">
        <ele>55</ele>
        <time>2016-04-17T10:25:28.919Z</time>
      </trkpt>
      <trkpt lat="43.31736" lon="3.53083">
        <ele>54</ele>
        <time>2016-04-17T10:25:29.946Z</time>
      </trkpt>
      <trkpt lat="43.3174" lon="3.53088">
        <ele>52</ele>
        <time>2016-04-17T10:25:30.919Z</time>
      </trkpt>
      <trkpt lat="43.31745" lon="3.53092">
        <ele>50</ele>
        <time>2016-04-17T10:25:31.950Z</time>
      </trkpt>
      <trkpt lat="43.31748" lon="3.53093">
        <ele>52</ele>
        <time>2016-04-17T10:25:32.919Z</time>
      </trkpt>
      <trkpt lat="43.31755" lon="3.53097">
        <ele>52</ele>
        <time>2016-04-17T10:25:34.945Z</time>
      </trkpt>
      <trkpt lat="43.31759" lon="3.53097">
        <ele>51</ele>
        <time>2016-04-17T10:25:35.918Z</time>
      </trkpt>
      <trkpt lat="43.31763" lon="3.53098">
        <ele>51</ele>
        <time>2016-04-17T10:25:36.936Z</time>
      </trkpt>
      <trkpt lat="43.31768" lon="3.53102">
        <ele>51</ele>
        <time>2016-04-17T10:25:37.918Z</time>
      </trkpt>
      <trkpt lat="43.31776" lon="3.53105">
        <ele>53</ele>
        <time>2016-04-17T10:25:39.943Z</time>
      </trkpt>
      <trkpt lat="43.3178" lon="3.53106">
        <ele>52</ele>
        <time>2016-04-17T10:25:40.918Z</time>
      </trkpt>
      <trkpt lat="43.31784" lon="3.53107">
        <ele>53</ele>
        <time>2016-04-17T10:25:41.946Z</time>
      </trkpt>
      <trkpt lat="43.31788" lon="3.5311">
        <ele>52</ele>
        <time>2016-04-17T10:25:42.935Z</time>
      </trkpt>
      <trkpt lat="43.31793" lon="3.53112">
        <ele>51</ele>
        <time>2016-04-17T10:25:43.946Z</time>
      </trkpt>
      <trkpt lat="43.31797" lon="3.53114">
        <ele>51</ele>
        <time>2016-04-17T10:25:44.913Z</time>
      </trkpt>
      <trkpt lat="43.31803" lon="3.53119">
        <ele>50</ele>
        <time>2016-04-17T10:25:45.936Z</time>
      </trkpt>
      <trkpt lat="43.31806" lon="3.53121">
        <ele>50</ele>
        <time>2016-04-17T10:25:46.940Z</time>
      </trkpt>
      <trkpt lat="43.31811" lon="3.53125">
        <ele>50</ele>
        <time>2016-04-17T10:25:47.942Z</time>
      </trkpt>
      <trkpt lat="43.31817" lon="3.53128">
        <ele>51</ele>
        <time>2016-04-17T10:25:48.918Z</time>
      </trkpt>
      <trkpt lat="43.31822" lon="3.53132">
        <ele>49</ele>
        <time>2016-04-17T10:25:49.941Z</time>
      </trkpt>
      <trkpt lat="43.31827" lon="3.53134">
        <ele>48</ele>
        <time>2016-04-17T10:25:50.933Z</time>
      </trkpt>
      <trkpt lat="43.31835" lon="3.53131">
        <ele>49</ele>
        <time>2016-04-17T10:25:52.943Z</time>
      </trkpt>
      <trkpt lat="43.31839" lon="3.53138">
        <ele>48</ele>
        <time>2016-04-17T10:25:53.922Z</time>
      </trkpt>
      <trkpt lat="43.31846" lon="3.5314">
        <ele>48</ele>
        <time>2016-04-17T10:25:55.938Z</time>
      </trkpt>
      <trkpt lat="43.31852" lon="3.53138">
        <ele>47</ele>
        <time>2016-04-17T10:25:56.918Z</time>
      </trkpt>
      <trkpt lat="43.3186" lon="3.5314">
        <ele>49</ele>
        <time>2016-04-17T10:25:58.936Z</time>
      </trkpt>
      <trkpt lat="43.31863" lon="3.53142">
        <ele>47</ele>
        <time>2016-04-17T10:25:59.919Z</time>
      </trkpt>
      <trkpt lat="43.31867" lon="3.53143">
        <ele>47</ele>
        <time>2016-04-17T10:26:00.938Z</time>
      </trkpt>
      <trkpt lat="43.31872" lon="3.53144">
        <ele>47</ele>
        <time>2016-04-17T10:26:01.918Z</time>
      </trkpt>
      <trkpt lat="43.31879" lon="3.53144">
        <ele>48</ele>
        <time>2016-04-17T10:26:04.012Z</time>
      </trkpt>
      <trkpt lat="43.31884" lon="3.53144">
        <ele>49</ele>
        <time>2016-04-17T10:26:04.918Z</time>
      </trkpt>
      <trkpt lat="43.31892" lon="3.53146">
        <ele>49</ele>
        <time>2016-04-17T10:26:06.941Z</time>
      </trkpt>
      <trkpt lat="43.31896" lon="3.53149">
        <ele>47</ele>
        <time>2016-04-17T10:26:07.940Z</time>
      </trkpt>
      <trkpt lat="43.31903" lon="3.53148">
        <ele>49</ele>
        <time>2016-04-17T10:26:09.942Z</time>
      </trkpt>
      <trkpt lat="43.31907" lon="3.53149">
        <ele>49</ele>
        <time>2016-04-17T10:26:10.919Z</time>
      </trkpt>
      <trkpt lat="43.31915" lon="3.53154">
        <ele>48</ele>
        <time>2016-04-17T10:26:12.942Z</time>
      </trkpt>
      <trkpt lat="43.31919" lon="3.53155">
        <ele>47</ele>
        <time>2016-04-17T10:26:13.918Z</time>
      </trkpt>
      <trkpt lat="43.31928" lon="3.53157">
        <ele>50</ele>
        <time>2016-04-17T10:26:15.948Z</time>
      </trkpt>
      <trkpt lat="43.31932" lon="3.53159">
        <ele>50</ele>
        <time>2016-04-17T10:26:16.922Z</time>
      </trkpt>
      <trkpt lat="43.3194" lon="3.53159">
        <ele>50</ele>
        <time>2016-04-17T10:26:18.940Z</time>
      </trkpt>
      <trkpt lat="43.31944" lon="3.53159">
        <ele>50</ele>
        <time>2016-04-17T10:26:19.918Z</time>
      </trkpt>
      <trkpt lat="43.31951" lon="3.53163">
        <ele>49</ele>
        <time>2016-04-17T10:26:21.941Z</time>
      </trkpt>
      <trkpt lat="43.31955" lon="3.53164">
        <ele>48</ele>
        <time>2016-04-17T10:26:22.921Z</time>
      </trkpt>
      <trkpt lat="43.31963" lon="3.53165">
        <ele>48</ele>
        <time>2016-04-17T10:26:24.941Z</time>
      </trkpt>
      <trkpt lat="43.31966" lon="3.53164">
        <ele>48</ele>
        <time>2016-04-17T10:26:25.918Z</time>
      </trkpt>
      <trkpt lat="43.31972" lon="3.53168">
        <ele>48</ele>
        <time>2016-04-17T10:26:26.943Z</time>
      </trkpt>
      <trkpt lat="43.31976" lon="3.5317">
        <ele>48</ele>
        <time>2016-04-17T10:26:27.920Z</time>
      </trkpt>
      <trkpt lat="43.3198" lon="3.53171">
        <ele>48</ele>
        <time>2016-04-17T10:26:28.941Z</time>
      </trkpt>
      <trkpt lat="43.31985" lon="3.53172">
        <ele>48</ele>
        <time>2016-04-17T10:26:29.919Z</time>
      </trkpt>
      <trkpt lat="43.31989" lon="3.53173">
        <ele>49</ele>
        <time>2016-04-17T10:26:30.941Z</time>
      </trkpt>
      <trkpt lat="43.31995" lon="3.53176">
        <ele>47</ele>
        <time>2016-04-17T10:26:31.918Z</time>
      </trkpt>
      <trkpt lat="43.32" lon="3.5318">
        <ele>46</ele>
        <time>2016-04-17T10:26:32.943Z</time>
      </trkpt>
      <trkpt lat="43.32005" lon="3.53182">
        <ele>47</ele>
        <time>2016-04-17T10:26:33.918Z</time>
      </trkpt>
      <trkpt lat="43.32009" lon="3.53184">
        <ele>46</ele>
        <time>2016-04-17T10:26:34.940Z</time>
      </trkpt>
      <trkpt lat="43.32014" lon="3.53184">
        <ele>46</ele>
        <time>2016-04-17T10:26:35.918Z</time>
      </trkpt>
      <trkpt lat="43.32018" lon="3.53185">
        <ele>46</ele>
        <time>2016-04-17T10:26:36.940Z</time>
      </trkpt>
      <trkpt lat="43.32023" lon="3.53187">
        <ele>46</ele>
        <time>2016-04-17T10:26:37.920Z</time>
      </trkpt>
      <trkpt lat="43.32027" lon="3.5319">
        <ele>46</ele>
        <time>2016-04-17T10:26:38.941Z</time>
      </trkpt>
      <trkpt lat="43.32032" lon="3.5319">
        <ele>46</ele>
        <time>2016-04-17T10:26:39.940Z</time>
      </trkpt>
      <trkpt lat="43.3204" lon="3.53191">
        <ele>46</ele>
        <time>2016-04-17T10:26:41.999Z</time>
      </trkpt>
      <trkpt lat="43.32046" lon="3.53194">
        <ele>44</ele>
        <time>2016-04-17T10:26:42.920Z</time>
      </trkpt>
      <trkpt lat="43.32054" lon="3.53196">
        <ele>44</ele>
        <time>2016-04-17T10:26:44.941Z</time>
      </trkpt>
      <trkpt lat="43.32058" lon="3.53194">
        <ele>44</ele>
        <time>2016-04-17T10:26:45.918Z</time>
      </trkpt>
      <trkpt lat="43.32065" lon="3.532">
        <ele>42</ele>
        <time>2016-04-17T10:26:47.944Z</time>
      </trkpt>
      <trkpt lat="43.32068" lon="3.53202">
        <ele>42</ele>
        <time>2016-04-17T10:26:48.918Z</time>
      </trkpt>
      <trkpt lat="43.32075" lon="3.53205">
        <ele>43</ele>
        <time>2016-04-17T10:26:50.964Z</time>
      </trkpt>
      <trkpt lat="43.32077" lon="3.53203">
        <ele>45</ele>
        <time>2016-04-17T10:26:51.917Z</time>
      </trkpt>
      <trkpt lat="43.32083" lon="3.53197">
        <ele>45</ele>
        <time>2016-04-17T10:26:53.940Z</time>
      </trkpt>
      <trkpt lat="43.32087" lon="3.53195">
        <ele>45</ele>
        <time>2016-04-17T10:26:54.922Z</time>
      </trkpt>
      <trkpt lat="43.32096" lon="3.53197">
        <ele>48</ele>
        <time>2016-04-17T10:26:57.944Z</time>
      </trkpt>
      <trkpt lat="43.32099" lon="3.53198">
        <ele>47</ele>
        <time>2016-04-17T10:26:58.920Z</time>
      </trkpt>
      <trkpt lat="43.32106" lon="3.53199">
        <ele>48</ele>
        <time>2016-04-17T10:27:01.940Z</time>
      </trkpt>
      <trkpt lat="43.32109" lon="3.53199">
        <ele>49</ele>
        <time>2016-04-17T10:27:02.919Z</time>
      </trkpt>
      <trkpt lat="43.32117" lon="3.53201">
        <ele>51</ele>
        <time>2016-04-17T10:27:07.945Z</time>
      </trkpt>
      <trkpt lat="43.32118" lon="3.53202">
        <ele>51</ele>
        <time>2016-04-17T10:27:08.918Z</time>
      </trkpt>
      <trkpt lat="43.32121" lon="3.53207">
        <ele>52</ele>
        <time>2016-04-17T10:28:58.943Z</time>
      </trkpt>
      <trkpt lat="43.32121" lon="3.53208">
        <ele>52</ele>
        <time>2016-04-17T10:28:59.920Z</time>
      </trkpt>
      <trkpt lat="43.32121" lon="3.53207">
        <ele>51</ele>
        <time>2016-04-17T10:29:01.939Z</time>
      </trkpt>
      <trkpt lat="43.3212" lon="3.53207">
        <ele>51</ele>
        <time>2016-04-17T10:29:02.918Z</time>
      </trkpt>
      <trkpt lat="43.32122" lon="3.53218">
        <ele>54</ele>
        <time>2016-04-17T10:32:01.942Z</time>
      </trkpt>
      <trkpt lat="43.32121" lon="3.53221">
        <ele>55</ele>
        <time>2016-04-17T10:32:02.921Z</time>
      </trkpt>
      <trkpt lat="43.32122" lon="3.53233">
        <ele>55</ele>
        <time>2016-04-17T10:32:06.946Z</time>
      </trkpt>
      <trkpt lat="43.32122" lon="3.53236">
        <ele>55</ele>
        <time>2016-04-17T10:32:07.917Z</time>
      </trkpt>
      <trkpt lat="43.3212" lon="3.53246">
        <ele>57</ele>
        <time>2016-04-17T10:32:13.943Z</time>
      </trkpt>
      <trkpt lat="43.32119" lon="3.53252">
        <ele>57</ele>
        <time>2016-04-17T10:32:14.922Z</time>
      </trkpt>
      <trkpt lat="43.32119" lon="3.53257">
        <ele>59</ele>
        <time>2016-04-17T10:32:15.987Z</time>
      </trkpt>
      <trkpt lat="43.3212" lon="3.53265">
        <ele>60</ele>
        <time>2016-04-17T10:32:16.919Z</time>
      </trkpt>
      <trkpt lat="43.32119" lon="3.53276">
        <ele>58</ele>
        <time>2016-04-17T10:32:18.942Z</time>
      </trkpt>
      <trkpt lat="43.32117" lon="3.53282">
        <ele>57</ele>
        <time>2016-04-17T10:32:19.919Z</time>
      </trkpt>
      <trkpt lat="43.32116" lon="3.53294">
        <ele>57</ele>
        <time>2016-04-17T10:32:21.942Z</time>
      </trkpt>
      <trkpt lat="43.32115" lon="3.53301">
        <ele>57</ele>
        <time>2016-04-17T10:32:22.920Z</time>
      </trkpt>
      <trkpt lat="43.32114" lon="3.53308">
        <ele>56</ele>
        <time>2016-04-17T10:32:23.943Z</time>
      </trkpt>
      <trkpt lat="43.32114" lon="3.53314">
        <ele>56</ele>
        <time>2016-04-17T10:32:24.921Z</time>
      </trkpt>
      <trkpt lat="43.32112" lon="3.53326">
        <ele>56</ele>
        <time>2016-04-17T10:32:26.944Z</time>
      </trkpt>
      <trkpt lat="43.32112" lon="3.53333">
        <ele>55</ele>
        <time>2016-04-17T10:32:27.920Z</time>
      </trkpt>
      <trkpt lat="43.32111" lon="3.53339">
        <ele>55</ele>
        <time>2016-04-17T10:32:28.946Z</time>
      </trkpt>
      <trkpt lat="43.32111" lon="3.53345">
        <ele>55</ele>
        <time>2016-04-17T10:32:29.920Z</time>
      </trkpt>
      <trkpt lat="43.32111" lon="3.53352">
        <ele>56</ele>
        <time>2016-04-17T10:32:30.950Z</time>
      </trkpt>
      <trkpt lat="43.32111" lon="3.53358">
        <ele>56</ele>
        <time>2016-04-17T10:32:31.923Z</time>
      </trkpt>
      <trkpt lat="43.3211" lon="3.53364">
        <ele>56</ele>
        <time>2016-04-17T10:32:32.946Z</time>
      </trkpt>
      <trkpt lat="43.3211" lon="3.53371">
        <ele>56</ele>
        <time>2016-04-17T10:32:33.919Z</time>
      </trkpt>
      <trkpt lat="43.32109" lon="3.53382">
        <ele>56</ele>
        <time>2016-04-17T10:32:35.950Z</time>
      </trkpt>
      <trkpt lat="43.32108" lon="3.53388">
        <ele>56</ele>
        <time>2016-04-17T10:32:36.942Z</time>
      </trkpt>
      <trkpt lat="43.32106" lon="3.53394">
        <ele>56</ele>
        <time>2016-04-17T10:32:37.954Z</time>
      </trkpt>
      <trkpt lat="43.32106" lon="3.53402">
        <ele>56</ele>
        <time>2016-04-17T10:32:38.924Z</time>
      </trkpt>
      <trkpt lat="43.32102" lon="3.53409">
        <ele>54</ele>
        <time>2016-04-17T10:32:39.946Z</time>
      </trkpt>
      <trkpt lat="43.32102" lon="3.53415">
        <ele>54</ele>
        <time>2016-04-17T10:32:40.921Z</time>
      </trkpt>
      <trkpt lat="43.32101" lon="3.53422">
        <ele>53</ele>
        <time>2016-04-17T10:32:41.948Z</time>
      </trkpt>
      <trkpt lat="43.321" lon="3.53427">
        <ele>52</ele>
        <time>2016-04-17T10:32:42.920Z</time>
      </trkpt>
      <trkpt lat="43.32099" lon="3.53439">
        <ele>52</ele>
        <time>2016-04-17T10:32:44.947Z</time>
      </trkpt>
      <trkpt lat="43.32099" lon="3.53445">
        <ele>53</ele>
        <time>2016-04-17T10:32:45.921Z</time>
      </trkpt>
      <trkpt lat="43.32095" lon="3.53455">
        <ele>53</ele>
        <time>2016-04-17T10:32:47.974Z</time>
      </trkpt>
      <trkpt lat="43.32093" lon="3.53458">
        <ele>53</ele>
        <time>2016-04-17T10:32:48.920Z</time>
      </trkpt>
      <trkpt lat="43.32086" lon="3.53462">
        <ele>54</ele>
        <time>2016-04-17T10:32:50.937Z</time>
      </trkpt>
      <trkpt lat="43.32081" lon="3.53462">
        <ele>53</ele>
        <time>2016-04-17T10:32:51.919Z</time>
      </trkpt>
      <trkpt lat="43.32073" lon="3.53461">
        <ele>53</ele>
        <time>2016-04-17T10:32:53.947Z</time>
      </trkpt>
      <trkpt lat="43.32068" lon="3.53459">
        <ele>54</ele>
        <time>2016-04-17T10:32:54.924Z</time>
      </trkpt>
      <trkpt lat="43.3206" lon="3.53457">
        <ele>53</ele>
        <time>2016-04-17T10:32:56.949Z</time>
      </trkpt>
      <trkpt lat="43.32057" lon="3.53456">
        <ele>52</ele>
        <time>2016-04-17T10:32:57.920Z</time>
      </trkpt>
      <trkpt lat="43.32052" lon="3.53451">
        <ele>49</ele>
        <time>2016-04-17T10:32:58.975Z</time>
      </trkpt>
      <trkpt lat="43.32048" lon="3.53449">
        <ele>49</ele>
        <time>2016-04-17T10:32:59.917Z</time>
      </trkpt>
      <trkpt lat="43.32041" lon="3.53444">
        <ele>47</ele>
        <time>2016-04-17T10:33:01.949Z</time>
      </trkpt>
      <trkpt lat="43.32038" lon="3.53442">
        <ele>47</ele>
        <time>2016-04-17T10:33:02.920Z</time>
      </trkpt>
      <trkpt lat="43.32032" lon="3.53441">
        <ele>47</ele>
        <time>2016-04-17T10:33:04.947Z</time>
      </trkpt>
      <trkpt lat="43.32029" lon="3.53447">
        <ele>46</ele>
        <time>2016-04-17T10:33:05.920Z</time>
      </trkpt>
      <trkpt lat="43.32031" lon="3.53457">
        <ele>49</ele>
        <time>2016-04-17T10:33:07.948Z</time>
      </trkpt>
      <trkpt lat="43.32032" lon="3.53461">
        <ele>49</ele>
        <time>2016-04-17T10:33:08.917Z</time>
      </trkpt>
      <trkpt lat="43.32034" lon="3.53472">
        <ele>50</ele>
        <time>2016-04-17T10:33:10.949Z</time>
      </trkpt>
      <trkpt lat="43.32034" lon="3.53478">
        <ele>51</ele>
        <time>2016-04-17T10:33:11.920Z</time>
      </trkpt>
      <trkpt lat="43.32036" lon="3.5349">
        <ele>52</ele>
        <time>2016-04-17T10:33:13.948Z</time>
      </trkpt>
      <trkpt lat="43.32036" lon="3.53495">
        <ele>52</ele>
        <time>2016-04-17T10:33:14.952Z</time>
      </trkpt>
      <trkpt lat="43.32034" lon="3.53506">
        <ele>48</ele>
        <time>2016-04-17T10:33:17.012Z</time>
      </trkpt>
      <trkpt lat="43.32034" lon="3.53511">
        <ele>49</ele>
        <time>2016-04-17T10:33:17.919Z</time>
      </trkpt>
      <trkpt lat="43.32036" lon="3.53523">
        <ele>48</ele>
        <time>2016-04-17T10:33:19.940Z</time>
      </trkpt>
      <trkpt lat="43.32038" lon="3.53527">
        <ele>48</ele>
        <time>2016-04-17T10:33:20.923Z</time>
      </trkpt>
      <trkpt lat="43.32042" lon="3.53536">
        <ele>47</ele>
        <time>2016-04-17T10:33:22.948Z</time>
      </trkpt>
      <trkpt lat="43.32045" lon="3.53542">
        <ele>47</ele>
        <time>2016-04-17T10:33:23.920Z</time>
      </trkpt>
      <trkpt lat="43.32046" lon="3.53551">
        <ele>48</ele>
        <time>2016-04-17T10:33:26.098Z</time>
      </trkpt>
      <trkpt lat="43.32048" lon="3.53554">
        <ele>48</ele>
        <time>2016-04-17T10:33:26.921Z</time>
      </trkpt>
      <trkpt lat="43.32046" lon="3.53564">
        <ele>47</ele>
        <time>2016-04-17T10:33:29.950Z</time>
      </trkpt>
      <trkpt lat="43.32046" lon="3.53567">
        <ele>47</ele>
        <time>2016-04-17T10:33:30.917Z</time>
      </trkpt>
      <trkpt lat="43.32052" lon="3.53573">
        <ele>48</ele>
        <time>2016-04-17T10:33:32.950Z</time>
      </trkpt>
      <trkpt lat="43.32054" lon="3.53575">
        <ele>49</ele>
        <time>2016-04-17T10:33:33.922Z</time>
      </trkpt>
      <trkpt lat="43.32053" lon="3.53586">
        <ele>51</ele>
        <time>2016-04-17T10:33:35.951Z</time>
      </trkpt>
      <trkpt lat="43.32054" lon="3.53587">
        <ele>51</ele>
        <time>2016-04-17T10:33:36.922Z</time>
      </trkpt>
      <trkpt lat="43.32054" lon="3.53599">
        <ele>50</ele>
        <time>2016-04-17T10:33:39.950Z</time>
      </trkpt>
      <trkpt lat="43.32054" lon="3.53603">
        <ele>51</ele>
        <time>2016-04-17T10:33:40.921Z</time>
      </trkpt>
      <trkpt lat="43.32058" lon="3.53613">
        <ele>50</ele>
        <time>2016-04-17T10:33:43.947Z</time>
      </trkpt>
      <trkpt lat="43.3206" lon="3.53616">
        <ele>50</ele>
        <time>2016-04-17T10:33:44.917Z</time>
      </trkpt>
      <trkpt lat="43.32064" lon="3.53622">
        <ele>51</ele>
        <time>2016-04-17T10:33:46.941Z</time>
      </trkpt>
      <trkpt lat="43.32066" lon="3.53628">
        <ele>50</ele>
        <time>2016-04-17T10:33:47.919Z</time>
      </trkpt>
      <trkpt lat="43.3207" lon="3.53634">
        <ele>51</ele>
        <time>2016-04-17T10:33:49.947Z</time>
      </trkpt>
      <trkpt lat="43.32072" lon="3.53638">
        <ele>51</ele>
        <time>2016-04-17T10:33:50.919Z</time>
      </trkpt>
      <trkpt lat="43.32078" lon="3.53645">
        <ele>52</ele>
        <time>2016-04-17T10:33:52.937Z</time>
      </trkpt>
      <trkpt lat="43.3208" lon="3.5365">
        <ele>53</ele>
        <time>2016-04-17T10:33:53.920Z</time>
      </trkpt>
      <trkpt lat="43.32083" lon="3.53655">
        <ele>54</ele>
        <time>2016-04-17T10:33:54.949Z</time>
      </trkpt>
      <trkpt lat="43.32086" lon="3.5366">
        <ele>55</ele>
        <time>2016-04-17T10:33:55.915Z</time>
      </trkpt>
      <trkpt lat="43.32092" lon="3.53667">
        <ele>55</ele>
        <time>2016-04-17T10:33:57.973Z</time>
      </trkpt>
      <trkpt lat="43.32096" lon="3.53672">
        <ele>54</ele>
        <time>2016-04-17T10:33:58.921Z</time>
      </trkpt>
      <trkpt lat="43.32099" lon="3.53676">
        <ele>55</ele>
        <time>2016-04-17T10:33:59.947Z</time>
      </trkpt>
      <trkpt lat="43.32102" lon="3.53681">
        <ele>55</ele>
        <time>2016-04-17T10:34:00.915Z</time>
      </trkpt>
      <trkpt lat="43.32107" lon="3.53691">
        <ele>54</ele>
        <time>2016-04-17T10:34:02.950Z</time>
      </trkpt>
      <trkpt lat="43.3211" lon="3.53698">
        <ele>54</ele>
        <time>2016-04-17T10:34:03.921Z</time>
      </trkpt>
      <trkpt lat="43.32111" lon="3.53707">
        <ele>56</ele>
        <time>2016-04-17T10:34:04.946Z</time>
      </trkpt>
      <trkpt lat="43.32112" lon="3.53713">
        <ele>56</ele>
        <time>2016-04-17T10:34:05.920Z</time>
      </trkpt>
      <trkpt lat="43.32114" lon="3.5372">
        <ele>54</ele>
        <time>2016-04-17T10:34:06.948Z</time>
      </trkpt>
      <trkpt lat="43.32115" lon="3.53726">
        <ele>54</ele>
        <time>2016-04-17T10:34:07.920Z</time>
      </trkpt>
      <trkpt lat="43.32117" lon="3.53732">
        <ele>55</ele>
        <time>2016-04-17T10:34:08.948Z</time>
      </trkpt>
      <trkpt lat="43.32118" lon="3.53738">
        <ele>56</ele>
        <time>2016-04-17T10:34:09.922Z</time>
      </trkpt>
      <trkpt lat="43.32121" lon="3.53748">
        <ele>56</ele>
        <time>2016-04-17T10:34:11.948Z</time>
      </trkpt>
      <trkpt lat="43.32121" lon="3.53753">
        <ele>56</ele>
        <time>2016-04-17T10:34:12.919Z</time>
      </trkpt>
      <trkpt lat="43.32121" lon="3.53765">
        <ele>56</ele>
        <time>2016-04-17T10:34:15.081Z</time>
      </trkpt>
      <trkpt lat="43.32122" lon="3.53771">
        <ele>56</ele>
        <time>2016-04-17T10:34:15.920Z</time>
      </trkpt>
      <trkpt lat="43.32123" lon="3.53781">
        <ele>56</ele>
        <time>2016-04-17T10:34:17.950Z</time>
      </trkpt>
      <trkpt lat="43.32122" lon="3.53786">
        <ele>57</ele>
        <time>2016-04-17T10:34:18.947Z</time>
      </trkpt>
      <trkpt lat="43.3212" lon="3.53795">
        <ele>57</ele>
        <time>2016-04-17T10:34:20.948Z</time>
      </trkpt>
      <trkpt lat="43.3212" lon="3.53799">
        <ele>57</ele>
        <time>2016-04-17T10:34:21.916Z</time>
      </trkpt>
      <trkpt lat="43.3212" lon="3.53809">
        <ele>56</ele>
        <time>2016-04-17T10:34:23.950Z</time>
      </trkpt>
      <trkpt lat="43.3212" lon="3.53813">
        <ele>55</ele>
        <time>2016-04-17T10:34:24.919Z</time>
      </trkpt>
      <trkpt lat="43.32119" lon="3.53821">
        <ele>54</ele>
        <time>2016-04-17T10:34:26.948Z</time>
      </trkpt>
      <trkpt lat="43.32119" lon="3.53826">
        <ele>53</ele>
        <time>2016-04-17T10:34:27.920Z</time>
      </trkpt>
      <trkpt lat="43.32118" lon="3.53838">
        <ele>57</ele>
        <time>2016-04-17T10:34:30.951Z</time>
      </trkpt>
      <trkpt lat="43.32116" lon="3.53843">
        <ele>57</ele>
        <time>2016-04-17T10:34:31.921Z</time>
      </trkpt>
      <trkpt lat="43.32115" lon="3.53852">
        <ele>59</ele>
        <time>2016-04-17T10:34:33.952Z</time>
      </trkpt>
      <trkpt lat="43.32115" lon="3.53857">
        <ele>60</ele>
        <time>2016-04-17T10:34:34.921Z</time>
      </trkpt>
      <trkpt lat="43.32114" lon="3.53866">
        <ele>62</ele>
        <time>2016-04-17T10:34:36.950Z</time>
      </trkpt>
      <trkpt lat="43.32113" lon="3.5387">
        <ele>62</ele>
        <time>2016-04-17T10:34:37.922Z</time>
      </trkpt>
      <trkpt lat="43.32111" lon="3.53873">
        <ele>61</ele>
        <time>2016-04-17T10:34:39.085Z</time>
      </trkpt>
      <trkpt lat="43.32105" lon="3.53877">
        <ele>59</ele>
        <time>2016-04-17T10:34:39.920Z</time>
      </trkpt>
      <trkpt lat="43.32102" lon="3.53884">
        <ele>59</ele>
        <time>2016-04-17T10:34:41.949Z</time>
      </trkpt>
      <trkpt lat="43.32099" lon="3.53887">
        <ele>59</ele>
        <time>2016-04-17T10:34:42.920Z</time>
      </trkpt>
      <trkpt lat="43.32094" lon="3.53891">
        <ele>57</ele>
        <time>2016-04-17T10:34:43.947Z</time>
      </trkpt>
      <trkpt lat="43.32092" lon="3.53895">
        <ele>58</ele>
        <time>2016-04-17T10:34:44.920Z</time>
      </trkpt>
      <trkpt lat="43.32085" lon="3.53903">
        <ele>58</ele>
        <time>2016-04-17T10:34:46.948Z</time>
      </trkpt>
      <trkpt lat="43.32083" lon="3.53906">
        <ele>59</ele>
        <time>2016-04-17T10:34:47.919Z</time>
      </trkpt>
      <trkpt lat="43.32076" lon="3.53913">
        <ele>59</ele>
        <time>2016-04-17T10:34:49.948Z</time>
      </trkpt>
      <trkpt lat="43.32075" lon="3.53918">
        <ele>60</ele>
        <time>2016-04-17T10:34:50.920Z</time>
      </trkpt>
      <trkpt lat="43.32069" lon="3.53925">
        <ele>59</ele>
        <time>2016-04-17T10:34:52.949Z</time>
      </trkpt>
      <trkpt lat="43.32067" lon="3.53928">
        <ele>60</ele>
        <time>2016-04-17T10:34:53.921Z</time>
      </trkpt>
      <trkpt lat="43.32062" lon="3.53936">
        <ele>61</ele>
        <time>2016-04-17T10:34:55.974Z</time>
      </trkpt>
      <trkpt lat="43.32059" lon="3.5394">
        <ele>61</ele>
        <time>2016-04-17T10:34:56.919Z</time>
      </trkpt>
      <trkpt lat="43.32054" lon="3.53948">
        <ele>62</ele>
        <time>2016-04-17T10:34:58.946Z</time>
      </trkpt>
      <trkpt lat="43.32051" lon="3.53952">
        <ele>61</ele>
        <time>2016-04-17T10:34:59.921Z</time>
      </trkpt>
      <trkpt lat="43.32044" lon="3.53958">
        <ele>61</ele>
        <time>2016-04-17T10:35:01.947Z</time>
      </trkpt>
      <trkpt lat="43.32041" lon="3.53961">
        <ele>61</ele>
        <time>2016-04-17T10:35:02.921Z</time>
      </trkpt>
      <trkpt lat="43.32037" lon="3.53968">
        <ele>62</ele>
        <time>2016-04-17T10:35:04.954Z</time>
      </trkpt>
      <trkpt lat="43.32036" lon="3.53972">
        <ele>61</ele>
        <time>2016-04-17T10:35:05.919Z</time>
      </trkpt>
      <trkpt lat="43.32031" lon="3.53981">
        <ele>62</ele>
        <time>2016-04-17T10:35:07.944Z</time>
      </trkpt>
      <trkpt lat="43.32027" lon="3.53985">
        <ele>62</ele>
        <time>2016-04-17T10:35:08.924Z</time>
      </trkpt>
      <trkpt lat="43.32023" lon="3.53995">
        <ele>63</ele>
        <time>2016-04-17T10:35:10.939Z</time>
      </trkpt>
      <trkpt lat="43.32019" lon="3.53997">
        <ele>63</ele>
        <time>2016-04-17T10:35:11.919Z</time>
      </trkpt>
      <trkpt lat="43.32012" lon="3.54005">
        <ele>62</ele>
        <time>2016-04-17T10:35:13.952Z</time>
      </trkpt>
      <trkpt lat="43.32009" lon="3.54009">
        <ele>63</ele>
        <time>2016-04-17T10:35:14.921Z</time>
      </trkpt>
      <trkpt lat="43.32006" lon="3.54014">
        <ele>61</ele>
        <time>2016-04-17T10:35:15.946Z</time>
      </trkpt>
      <trkpt lat="43.32003" lon="3.54019">
        <ele>62</ele>
        <time>2016-04-17T10:35:16.920Z</time>
      </trkpt>
      <trkpt lat="43.32" lon="3.54025">
        <ele>61</ele>
        <time>2016-04-17T10:35:17.947Z</time>
      </trkpt>
      <trkpt lat="43.31998" lon="3.5403">
        <ele>62</ele>
        <time>2016-04-17T10:35:18.920Z</time>
      </trkpt>
      <trkpt lat="43.31995" lon="3.54036">
        <ele>61</ele>
        <time>2016-04-17T10:35:19.948Z</time>
      </trkpt>
      <trkpt lat="43.31994" lon="3.54043">
        <ele>62</ele>
        <time>2016-04-17T10:35:20.920Z</time>
      </trkpt>
      <trkpt lat="43.31992" lon="3.54049">
        <ele>62</ele>
        <time>2016-04-17T10:35:21.948Z</time>
      </trkpt>
      <trkpt lat="43.31989" lon="3.54057">
        <ele>60</ele>
        <time>2016-04-17T10:35:22.946Z</time>
      </trkpt>
      <trkpt lat="43.31987" lon="3.54063">
        <ele>60</ele>
        <time>2016-04-17T10:35:23.946Z</time>
      </trkpt>
      <trkpt lat="43.31983" lon="3.5407">
        <ele>60</ele>
        <time>2016-04-17T10:35:24.921Z</time>
      </trkpt>
      <trkpt lat="43.31983" lon="3.54078">
        <ele>61</ele>
        <time>2016-04-17T10:35:25.948Z</time>
      </trkpt>
      <trkpt lat="43.31981" lon="3.54085">
        <ele>61</ele>
        <time>2016-04-17T10:35:26.916Z</time>
      </trkpt>
      <trkpt lat="43.31978" lon="3.54093">
        <ele>60</ele>
        <time>2016-04-17T10:35:28.020Z</time>
      </trkpt>
      <trkpt lat="43.31976" lon="3.54101">
        <ele>60</ele>
        <time>2016-04-17T10:35:28.923Z</time>
      </trkpt>
      <trkpt lat="43.31974" lon="3.54112">
        <ele>60</ele>
        <time>2016-04-17T10:35:29.947Z</time>
      </trkpt>
      <trkpt lat="43.31974" lon="3.54121">
        <ele>59</ele>
        <time>2016-04-17T10:35:30.921Z</time>
      </trkpt>
      <trkpt lat="43.31974" lon="3.54131">
        <ele>59</ele>
        <time>2016-04-17T10:35:31.948Z</time>
      </trkpt>
      <trkpt lat="43.31972" lon="3.54141">
        <ele>60</ele>
        <time>2016-04-17T10:35:32.919Z</time>
      </trkpt>
      <trkpt lat="43.31971" lon="3.54153">
        <ele>60</ele>
        <time>2016-04-17T10:35:33.950Z</time>
      </trkpt>
      <trkpt lat="43.31969" lon="3.54164">
        <ele>61</ele>
        <time>2016-04-17T10:35:34.920Z</time>
      </trkpt>
      <trkpt lat="43.31968" lon="3.54176">
        <ele>60</ele>
        <time>2016-04-17T10:35:35.948Z</time>
      </trkpt>
      <trkpt lat="43.31965" lon="3.54187">
        <ele>59</ele>
        <time>2016-04-17T10:35:36.921Z</time>
      </trkpt>
      <trkpt lat="43.31965" lon="3.54187">
        <ele>59</ele>
        <time>2016-04-17T10:35:36.962Z</time>
      </trkpt>
      <trkpt lat="43.31962" lon="3.542">
        <ele>55</ele>
        <time>2016-04-17T10:35:37.919Z</time>
      </trkpt>
      <trkpt lat="43.31958" lon="3.54209">
        <ele>54</ele>
        <time>2016-04-17T10:35:39.089Z</time>
      </trkpt>
      <trkpt lat="43.31956" lon="3.54221">
        <ele>54</ele>
        <time>2016-04-17T10:35:39.915Z</time>
      </trkpt>
      <trkpt lat="43.31954" lon="3.54231">
        <ele>54</ele>
        <time>2016-04-17T10:35:40.951Z</time>
      </trkpt>
      <trkpt lat="43.31953" lon="3.54239">
        <ele>53</ele>
        <time>2016-04-17T10:35:41.923Z</time>
      </trkpt>
      <trkpt lat="43.31949" lon="3.54249">
        <ele>53</ele>
        <time>2016-04-17T10:35:44.946Z</time>
      </trkpt>
      <trkpt lat="43.31947" lon="3.54251">
        <ele>52</ele>
        <time>2016-04-17T10:35:45.923Z</time>
      </trkpt>
      <trkpt lat="43.31945" lon="3.5426">
        <ele>54</ele>
        <time>2016-04-17T10:35:48.950Z</time>
      </trkpt>
      <trkpt lat="43.31944" lon="3.54263">
        <ele>56</ele>
        <time>2016-04-17T10:35:49.920Z</time>
      </trkpt>
      <trkpt lat="43.31945" lon="3.54275">
        <ele>56</ele>
        <time>2016-04-17T10:36:01.947Z</time>
      </trkpt>
      <trkpt lat="43.31945" lon="3.54278">
        <ele>57</ele>
        <time>2016-04-17T10:36:02.923Z</time>
      </trkpt>
      <trkpt lat="43.31943" lon="3.54288">
        <ele>57</ele>
        <time>2016-04-17T10:36:05.951Z</time>
      </trkpt>
      <trkpt lat="43.31942" lon="3.54292">
        <ele>56</ele>
        <time>2016-04-17T10:36:06.923Z</time>
      </trkpt>
      <trkpt lat="43.31939" lon="3.54301">
        <ele>57</ele>
        <time>2016-04-17T10:36:08.948Z</time>
      </trkpt>
      <trkpt lat="43.31939" lon="3.54306">
        <ele>56</ele>
        <time>2016-04-17T10:36:09.920Z</time>
      </trkpt>
      <trkpt lat="43.31934" lon="3.54314">
        <ele>53</ele>
        <time>2016-04-17T10:36:11.945Z</time>
      </trkpt>
      <trkpt lat="43.31933" lon="3.54319">
        <ele>53</ele>
        <time>2016-04-17T10:36:12.919Z</time>
      </trkpt>
      <trkpt lat="43.31931" lon="3.54328">
        <ele>52</ele>
        <time>2016-04-17T10:36:14.947Z</time>
      </trkpt>
      <trkpt lat="43.31932" lon="3.54334">
        <ele>54</ele>
        <time>2016-04-17T10:36:15.922Z</time>
      </trkpt>
      <trkpt lat="43.31932" lon="3.54342">
        <ele>53</ele>
        <time>2016-04-17T10:36:16.947Z</time>
      </trkpt>
      <trkpt lat="43.31931" lon="3.54347">
        <ele>53</ele>
        <time>2016-04-17T10:36:17.921Z</time>
      </trkpt>
      <trkpt lat="43.31932" lon="3.54354">
        <ele>53</ele>
        <time>2016-04-17T10:36:18.949Z</time>
      </trkpt>
      <trkpt lat="43.31933" lon="3.54361">
        <ele>54</ele>
        <time>2016-04-17T10:36:19.919Z</time>
      </trkpt>
      <trkpt lat="43.31933" lon="3.54369">
        <ele>54</ele>
        <time>2016-04-17T10:36:20.947Z</time>
      </trkpt>
      <trkpt lat="43.31934" lon="3.54376">
        <ele>54</ele>
        <time>2016-04-17T10:36:21.915Z</time>
      </trkpt>
      <trkpt lat="43.31932" lon="3.54383">
        <ele>52</ele>
        <time>2016-04-17T10:36:22.946Z</time>
      </trkpt>
      <trkpt lat="43.31932" lon="3.54389">
        <ele>51</ele>
        <time>2016-04-17T10:36:23.922Z</time>
      </trkpt>
      <trkpt lat="43.31932" lon="3.54401">
        <ele>51</ele>
        <time>2016-04-17T10:36:25.949Z</time>
      </trkpt>
      <trkpt lat="43.31933" lon="3.54408">
        <ele>51</ele>
        <time>2016-04-17T10:36:26.946Z</time>
      </trkpt>
      <trkpt lat="43.31934" lon="3.54417">
        <ele>49</ele>
        <time>2016-04-17T10:36:27.946Z</time>
      </trkpt>
      <trkpt lat="43.31934" lon="3.54424">
        <ele>50</ele>
        <time>2016-04-17T10:36:28.921Z</time>
      </trkpt>
      <trkpt lat="43.31934" lon="3.54431">
        <ele>51</ele>
        <time>2016-04-17T10:36:29.943Z</time>
      </trkpt>
      <trkpt lat="43.31934" lon="3.54437">
        <ele>50</ele>
        <time>2016-04-17T10:36:30.920Z</time>
      </trkpt>
      <trkpt lat="43.31933" lon="3.54445">
        <ele>49</ele>
        <time>2016-04-17T10:36:31.947Z</time>
      </trkpt>
      <trkpt lat="43.31931" lon="3.5445">
        <ele>49</ele>
        <time>2016-04-17T10:36:32.919Z</time>
      </trkpt>
      <trkpt lat="43.31932" lon="3.54461">
        <ele>48</ele>
        <time>2016-04-17T10:36:34.948Z</time>
      </trkpt>
      <trkpt lat="43.31932" lon="3.54467">
        <ele>49</ele>
        <time>2016-04-17T10:36:35.922Z</time>
      </trkpt>
      <trkpt lat="43.31932" lon="3.54474">
        <ele>50</ele>
        <time>2016-04-17T10:36:36.950Z</time>
      </trkpt>
      <trkpt lat="43.31932" lon="3.5448">
        <ele>50</ele>
        <time>2016-04-17T10:36:37.918Z</time>
      </trkpt>
      <trkpt lat="43.31932" lon="3.54487">
        <ele>50</ele>
        <time>2016-04-17T10:36:38.948Z</time>
      </trkpt>
      <trkpt lat="43.31932" lon="3.54493">
        <ele>51</ele>
        <time>2016-04-17T10:36:39.920Z</time>
      </trkpt>
      <trkpt lat="43.31932" lon="3.54506">
        <ele>52</ele>
        <time>2016-04-17T10:36:41.948Z</time>
      </trkpt>
      <trkpt lat="43.31931" lon="3.54511">
        <ele>51</ele>
        <time>2016-04-17T10:36:42.941Z</time>
      </trkpt>
      <trkpt lat="43.31935" lon="3.54522">
        <ele>53</ele>
        <time>2016-04-17T10:36:44.951Z</time>
      </trkpt>
      <trkpt lat="43.31936" lon="3.54527">
        <ele>54</ele>
        <time>2016-04-17T10:36:45.921Z</time>
      </trkpt>
      <trkpt lat="43.31939" lon="3.54537">
        <ele>53</ele>
        <time>2016-04-17T10:36:47.948Z</time>
      </trkpt>
      <trkpt lat="43.3194" lon="3.54542">
        <ele>53</ele>
        <time>2016-04-17T10:36:48.920Z</time>
      </trkpt>
      <trkpt lat="43.31941" lon="3.54554">
        <ele>52</ele>
        <time>2016-04-17T10:36:50.939Z</time>
      </trkpt>
      <trkpt lat="43.31942" lon="3.54559">
        <ele>54</ele>
        <time>2016-04-17T10:36:51.919Z</time>
      </trkpt>
      <trkpt lat="43.31939" lon="3.54569">
        <ele>53</ele>
        <time>2016-04-17T10:36:53.941Z</time>
      </trkpt>
      <trkpt lat="43.31938" lon="3.54572">
        <ele>53</ele>
        <time>2016-04-17T10:36:54.921Z</time>
      </trkpt>
      <trkpt lat="43.3194" lon="3.54582">
        <ele>52</ele>
        <time>2016-04-17T10:36:58.943Z</time>
      </trkpt>
      <trkpt lat="43.31942" lon="3.54584">
        <ele>52</ele>
        <time>2016-04-17T10:36:59.920Z</time>
      </trkpt>
      <trkpt lat="43.31943" lon="3.54587">
        <ele>54</ele>
        <time>2016-04-17T10:37:04.942Z</time>
      </trkpt>
      <trkpt lat="43.31943" lon="3.54587">
        <ele>54</ele>
        <time>2016-04-17T10:37:05.921Z</time>
      </trkpt>
      <trkpt lat="43.31944" lon="3.54586">
        <ele>55</ele>
        <time>2016-04-17T10:37:06.946Z</time>
      </trkpt>
      <trkpt lat="43.31945" lon="3.54588">
        <ele>55</ele>
        <time>2016-04-17T10:37:07.923Z</time>
      </trkpt>
      <trkpt lat="43.31946" lon="3.546">
        <ele>57</ele>
        <time>2016-04-17T10:37:12.943Z</time>
      </trkpt>
      <trkpt lat="43.31945" lon="3.54603">
        <ele>57</ele>
        <time>2016-04-17T10:37:13.920Z</time>
      </trkpt>
      <trkpt lat="43.31945" lon="3.54612">
        <ele>56</ele>
        <time>2016-04-17T10:37:16.944Z</time>
      </trkpt>
      <trkpt lat="43.31944" lon="3.54616">
        <ele>56</ele>
        <time>2016-04-17T10:37:17.921Z</time>
      </trkpt>
      <trkpt lat="43.31942" lon="3.54628">
        <ele>56</ele>
        <time>2016-04-17T10:37:21.943Z</time>
      </trkpt>
      <trkpt lat="43.3194" lon="3.5463">
        <ele>56</ele>
        <time>2016-04-17T10:37:22.920Z</time>
      </trkpt>
      <trkpt lat="43.31938" lon="3.54642">
        <ele>55</ele>
        <time>2016-04-17T10:37:26.945Z</time>
      </trkpt>
      <trkpt lat="43.31937" lon="3.54645">
        <ele>56</ele>
        <time>2016-04-17T10:37:27.921Z</time>
      </trkpt>
      <trkpt lat="43.31932" lon="3.54652">
        <ele>57</ele>
        <time>2016-04-17T10:37:30.942Z</time>
      </trkpt>
      <trkpt lat="43.31929" lon="3.54653">
        <ele>56</ele>
        <time>2016-04-17T10:37:31.920Z</time>
      </trkpt>
      <trkpt lat="43.31925" lon="3.54663">
        <ele>56</ele>
        <time>2016-04-17T10:37:39.943Z</time>
      </trkpt>
      <trkpt lat="43.31925" lon="3.54664">
        <ele>56</ele>
        <time>2016-04-17T10:37:40.935Z</time>
      </trkpt>
      <trkpt lat="43.31927" lon="3.54674">
        <ele>55</ele>
        <time>2016-04-17T10:37:44.071Z</time>
      </trkpt>
      <trkpt lat="43.31928" lon="3.54677">
        <ele>55</ele>
        <time>2016-04-17T10:37:44.921Z</time>
      </trkpt>
      <trkpt lat="43.31932" lon="3.54687">
        <ele>55</ele>
        <time>2016-04-17T10:37:47.949Z</time>
      </trkpt>
      <trkpt lat="43.31932" lon="3.54691">
        <ele>55</ele>
        <time>2016-04-17T10:37:48.922Z</time>
      </trkpt>
      <trkpt lat="43.31933" lon="3.54699">
        <ele>56</ele>
        <time>2016-04-17T10:37:50.947Z</time>
      </trkpt>
      <trkpt lat="43.31934" lon="3.54704">
        <ele>56</ele>
        <time>2016-04-17T10:37:51.946Z</time>
      </trkpt>
      <trkpt lat="43.31936" lon="3.54712">
        <ele>56</ele>
        <time>2016-04-17T10:37:53.948Z</time>
      </trkpt>
      <trkpt lat="43.31938" lon="3.54715">
        <ele>55</ele>
        <time>2016-04-17T10:37:54.924Z</time>
      </trkpt>
      <trkpt lat="43.3194" lon="3.54726">
        <ele>55</ele>
        <time>2016-04-17T10:37:57.035Z</time>
      </trkpt>
      <trkpt lat="43.31942" lon="3.54731">
        <ele>55</ele>
        <time>2016-04-17T10:37:57.920Z</time>
      </trkpt>
      <trkpt lat="43.31943" lon="3.54742">
        <ele>55</ele>
        <time>2016-04-17T10:37:59.946Z</time>
      </trkpt>
      <trkpt lat="43.31944" lon="3.54747">
        <ele>56</ele>
        <time>2016-04-17T10:38:00.917Z</time>
      </trkpt>
      <trkpt lat="43.31946" lon="3.54752">
        <ele>56</ele>
        <time>2016-04-17T10:38:01.947Z</time>
      </trkpt>
      <trkpt lat="43.31948" lon="3.54758">
        <ele>55</ele>
        <time>2016-04-17T10:38:02.921Z</time>
      </trkpt>
      <trkpt lat="43.31951" lon="3.54764">
        <ele>55</ele>
        <time>2016-04-17T10:38:03.947Z</time>
      </trkpt>
      <trkpt lat="43.31952" lon="3.5477">
        <ele>54</ele>
        <time>2016-04-17T10:38:04.922Z</time>
      </trkpt>
      <trkpt lat="43.31954" lon="3.54776">
        <ele>53</ele>
        <time>2016-04-17T10:38:05.949Z</time>
      </trkpt>
      <trkpt lat="43.31955" lon="3.54783">
        <ele>52</ele>
        <time>2016-04-17T10:38:06.919Z</time>
      </trkpt>
      <trkpt lat="43.31957" lon="3.54789">
        <ele>52</ele>
        <time>2016-04-17T10:38:07.974Z</time>
      </trkpt>
      <trkpt lat="43.31958" lon="3.54796">
        <ele>52</ele>
        <time>2016-04-17T10:38:08.919Z</time>
      </trkpt>
      <trkpt lat="43.31962" lon="3.54807">
        <ele>53</ele>
        <time>2016-04-17T10:38:10.945Z</time>
      </trkpt>
      <trkpt lat="43.31963" lon="3.54814">
        <ele>51</ele>
        <time>2016-04-17T10:38:11.920Z</time>
      </trkpt>
      <trkpt lat="43.31964" lon="3.54819">
        <ele>51</ele>
        <time>2016-04-17T10:38:12.948Z</time>
      </trkpt>
      <trkpt lat="43.31966" lon="3.54825">
        <ele>52</ele>
        <time>2016-04-17T10:38:13.920Z</time>
      </trkpt>
      <trkpt lat="43.31967" lon="3.54831">
        <ele>52</ele>
        <time>2016-04-17T10:38:14.939Z</time>
      </trkpt>
      <trkpt lat="43.3197" lon="3.54837">
        <ele>51</ele>
        <time>2016-04-17T10:38:15.921Z</time>
      </trkpt>
      <trkpt lat="43.31971" lon="3.54843">
        <ele>50</ele>
        <time>2016-04-17T10:38:16.951Z</time>
      </trkpt>
      <trkpt lat="43.31974" lon="3.54848">
        <ele>50</ele>
        <time>2016-04-17T10:38:17.919Z</time>
      </trkpt>
      <trkpt lat="43.31976" lon="3.54854">
        <ele>50</ele>
        <time>2016-04-17T10:38:18.938Z</time>
      </trkpt>
      <trkpt lat="43.31977" lon="3.54861">
        <ele>49</ele>
        <time>2016-04-17T10:38:19.921Z</time>
      </trkpt>
      <trkpt lat="43.31978" lon="3.54873">
        <ele>51</ele>
        <time>2016-04-17T10:38:21.953Z</time>
      </trkpt>
      <trkpt lat="43.3198" lon="3.54878">
        <ele>51</ele>
        <time>2016-04-17T10:38:22.922Z</time>
      </trkpt>
      <trkpt lat="43.3198" lon="3.54884">
        <ele>51</ele>
        <time>2016-04-17T10:38:23.950Z</time>
      </trkpt>
      <trkpt lat="43.31985" lon="3.54889">
        <ele>52</ele>
        <time>2016-04-17T10:38:24.922Z</time>
      </trkpt>
      <trkpt lat="43.31989" lon="3.54894">
        <ele>52</ele>
        <time>2016-04-17T10:38:25.952Z</time>
      </trkpt>
      <trkpt lat="43.31993" lon="3.54899">
        <ele>52</ele>
        <time>2016-04-17T10:38:26.922Z</time>
      </trkpt>
      <trkpt lat="43.31995" lon="3.54905">
        <ele>53</ele>
        <time>2016-04-17T10:38:28.007Z</time>
      </trkpt>
      <trkpt lat="43.31997" lon="3.54912">
        <ele>52</ele>
        <time>2016-04-17T10:38:28.950Z</time>
      </trkpt>
      <trkpt lat="43.32001" lon="3.5492">
        <ele>51</ele>
        <time>2016-04-17T10:38:30.950Z</time>
      </trkpt>
      <trkpt lat="43.32002" lon="3.54925">
        <ele>52</ele>
        <time>2016-04-17T10:38:32.068Z</time>
      </trkpt>
      <trkpt lat="43.32006" lon="3.54936">
        <ele>52</ele>
        <time>2016-04-17T10:38:33.947Z</time>
      </trkpt>
      <trkpt lat="43.32007" lon="3.5494">
        <ele>52</ele>
        <time>2016-04-17T10:38:34.921Z</time>
      </trkpt>
      <trkpt lat="43.32011" lon="3.5495">
        <ele>52</ele>
        <time>2016-04-17T10:38:36.951Z</time>
      </trkpt>
      <trkpt lat="43.32012" lon="3.54955">
        <ele>52</ele>
        <time>2016-04-17T10:38:37.919Z</time>
      </trkpt>
      <trkpt lat="43.32014" lon="3.54961">
        <ele>53</ele>
        <time>2016-04-17T10:38:38.948Z</time>
      </trkpt>
      <trkpt lat="43.32015" lon="3.54966">
        <ele>53</ele>
        <time>2016-04-17T10:38:39.921Z</time>
      </trkpt>
      <trkpt lat="43.32017" lon="3.54978">
        <ele>52</ele>
        <time>2016-04-17T10:38:41.949Z</time>
      </trkpt>
      <trkpt lat="43.3202" lon="3.54982">
        <ele>53</ele>
        <time>2016-04-17T10:38:43.038Z</time>
      </trkpt>
      <trkpt lat="43.32026" lon="3.54991">
        <ele>55</ele>
        <time>2016-04-17T10:38:44.980Z</time>
      </trkpt>
      <trkpt lat="43.32027" lon="3.54996">
        <ele>55</ele>
        <time>2016-04-17T10:38:45.922Z</time>
      </trkpt>
      <trkpt lat="43.32031" lon="3.55007">
        <ele>54</ele>
        <time>2016-04-17T10:38:47.948Z</time>
      </trkpt>
      <trkpt lat="43.32033" lon="3.55011">
        <ele>54</ele>
        <time>2016-04-17T10:38:48.920Z</time>
      </trkpt>
      <trkpt lat="43.32036" lon="3.55021">
        <ele>55</ele>
        <time>2016-04-17T10:38:50.948Z</time>
      </trkpt>
      <trkpt lat="43.32038" lon="3.55026">
        <ele>55</ele>
        <time>2016-04-17T10:38:51.921Z</time>
      </trkpt>
      <trkpt lat="43.32043" lon="3.55035">
        <ele>57</ele>
        <time>2016-04-17T10:38:53.949Z</time>
      </trkpt>
      <trkpt lat="43.32045" lon="3.55039">
        <ele>60</ele>
        <time>2016-04-17T10:38:55.086Z</time>
      </trkpt>
      <trkpt lat="43.32049" lon="3.55049">
        <ele>60</ele>
        <time>2016-04-17T10:38:56.940Z</time>
      </trkpt>
      <trkpt lat="43.3205" lon="3.55055">
        <ele>59</ele>
        <time>2016-04-17T10:38:57.921Z</time>
      </trkpt>
      <trkpt lat="43.32052" lon="3.55061">
        <ele>58</ele>
        <time>2016-04-17T10:38:58.948Z</time>
      </trkpt>
      <trkpt lat="43.32053" lon="3.55067">
        <ele>59</ele>
        <time>2016-04-17T10:38:59.920Z</time>
      </trkpt>
      <trkpt lat="43.32055" lon="3.55073">
        <ele>60</ele>
        <time>2016-04-17T10:39:00.931Z</time>
      </trkpt>
      <trkpt lat="43.32054" lon="3.55079">
        <ele>60</ele>
        <time>2016-04-17T10:39:01.919Z</time>
      </trkpt>
      <trkpt lat="43.32059" lon="3.55088">
        <ele>61</ele>
        <time>2016-04-17T10:39:03.950Z</time>
      </trkpt>
      <trkpt lat="43.32061" lon="3.55093">
        <ele>61</ele>
        <time>2016-04-17T10:39:04.920Z</time>
      </trkpt>
      <trkpt lat="43.32063" lon="3.55105">
        <ele>62</ele>
        <time>2016-04-17T10:39:06.947Z</time>
      </trkpt>
      <trkpt lat="43.32064" lon="3.5511">
        <ele>63</ele>
        <time>2016-04-17T10:39:07.919Z</time>
      </trkpt>
      <trkpt lat="43.32068" lon="3.55119">
        <ele>61</ele>
        <time>2016-04-17T10:39:09.946Z</time>
      </trkpt>
      <trkpt lat="43.32069" lon="3.55125">
        <ele>60</ele>
        <time>2016-04-17T10:39:10.919Z</time>
      </trkpt>
      <trkpt lat="43.32071" lon="3.55135">
        <ele>57</ele>
        <time>2016-04-17T10:39:12.948Z</time>
      </trkpt>
      <trkpt lat="43.32072" lon="3.5514">
        <ele>56</ele>
        <time>2016-04-17T10:39:13.921Z</time>
      </trkpt>
      <trkpt lat="43.32072" lon="3.55147">
        <ele>55</ele>
        <time>2016-04-17T10:39:14.947Z</time>
      </trkpt>
      <trkpt lat="43.32073" lon="3.55153">
        <ele>54</ele>
        <time>2016-04-17T10:39:15.921Z</time>
      </trkpt>
      <trkpt lat="43.32077" lon="3.55163">
        <ele>54</ele>
        <time>2016-04-17T10:39:17.948Z</time>
      </trkpt>
      <trkpt lat="43.32078" lon="3.55168">
        <ele>54</ele>
        <time>2016-04-17T10:39:18.919Z</time>
      </trkpt>
      <trkpt lat="43.32081" lon="3.55179">
        <ele>53</ele>
        <time>2016-04-17T10:39:20.951Z</time>
      </trkpt>
      <trkpt lat="43.32084" lon="3.55184">
        <ele>54</ele>
        <time>2016-04-17T10:39:21.921Z</time>
      </trkpt>
      <trkpt lat="43.32087" lon="3.55193">
        <ele>54</ele>
        <time>2016-04-17T10:39:23.947Z</time>
      </trkpt>
      <trkpt lat="43.32089" lon="3.55197">
        <ele>54</ele>
        <time>2016-04-17T10:39:24.921Z</time>
      </trkpt>
      <trkpt lat="43.32092" lon="3.55208">
        <ele>54</ele>
        <time>2016-04-17T10:39:27.949Z</time>
      </trkpt>
      <trkpt lat="43.32092" lon="3.55213">
        <ele>54</ele>
        <time>2016-04-17T10:39:28.921Z</time>
      </trkpt>
      <trkpt lat="43.32094" lon="3.55221">
        <ele>52</ele>
        <time>2016-04-17T10:39:30.945Z</time>
      </trkpt>
      <trkpt lat="43.32097" lon="3.55225">
        <ele>52</ele>
        <time>2016-04-17T10:39:31.920Z</time>
      </trkpt>
      <trkpt lat="43.321" lon="3.55234">
        <ele>50</ele>
        <time>2016-04-17T10:39:34.003Z</time>
      </trkpt>
      <trkpt lat="43.32102" lon="3.55237">
        <ele>49</ele>
        <time>2016-04-17T10:39:34.921Z</time>
      </trkpt>
      <trkpt lat="43.32104" lon="3.55247">
        <ele>49</ele>
        <time>2016-04-17T10:39:36.948Z</time>
      </trkpt>
      <trkpt lat="43.32106" lon="3.55252">
        <ele>49</ele>
        <time>2016-04-17T10:39:37.922Z</time>
      </trkpt>
      <trkpt lat="43.32107" lon="3.55261">
        <ele>47</ele>
        <time>2016-04-17T10:39:39.949Z</time>
      </trkpt>
      <trkpt lat="43.32108" lon="3.55264">
        <ele>47</ele>
        <time>2016-04-17T10:39:40.921Z</time>
      </trkpt>
      <trkpt lat="43.32109" lon="3.55273">
        <ele>49</ele>
        <time>2016-04-17T10:39:42.979Z</time>
      </trkpt>
      <trkpt lat="43.32111" lon="3.55276">
        <ele>49</ele>
        <time>2016-04-17T10:39:43.920Z</time>
      </trkpt>
      <trkpt lat="43.32114" lon="3.55285">
        <ele>50</ele>
        <time>2016-04-17T10:39:46.946Z</time>
      </trkpt>
      <trkpt lat="43.32115" lon="3.55289">
        <ele>50</ele>
        <time>2016-04-17T10:39:47.917Z</time>
      </trkpt>
      <trkpt lat="43.32121" lon="3.55296">
        <ele>52</ele>
        <time>2016-04-17T10:39:50.952Z</time>
      </trkpt>
      <trkpt lat="43.32123" lon="3.55299">
        <ele>52</ele>
        <time>2016-04-17T10:39:51.922Z</time>
      </trkpt>
      <trkpt lat="43.32127" lon="3.55309">
        <ele>54</ele>
        <time>2016-04-17T10:39:54.952Z</time>
      </trkpt>
      <trkpt lat="43.32128" lon="3.55312">
        <ele>53</ele>
        <time>2016-04-17T10:39:55.920Z</time>
      </trkpt>
      <trkpt lat="43.32131" lon="3.55322">
        <ele>54</ele>
        <time>2016-04-17T10:39:58.960Z</time>
      </trkpt>
      <trkpt lat="43.32132" lon="3.55326">
        <ele>54</ele>
        <time>2016-04-17T10:39:59.920Z</time>
      </trkpt>
      <trkpt lat="43.32134" lon="3.55334">
        <ele>55</ele>
        <time>2016-04-17T10:40:01.948Z</time>
      </trkpt>
      <trkpt lat="43.32137" lon="3.55338">
        <ele>56</ele>
        <time>2016-04-17T10:40:02.926Z</time>
      </trkpt>
      <trkpt lat="43.32139" lon="3.55347">
        <ele>56</ele>
        <time>2016-04-17T10:40:04.950Z</time>
      </trkpt>
      <trkpt lat="43.32141" lon="3.55352">
        <ele>56</ele>
        <time>2016-04-17T10:40:05.920Z</time>
      </trkpt>
      <trkpt lat="43.32144" lon="3.55361">
        <ele>56</ele>
        <time>2016-04-17T10:40:07.947Z</time>
      </trkpt>
      <trkpt lat="43.32144" lon="3.55365">
        <ele>57</ele>
        <time>2016-04-17T10:40:08.919Z</time>
      </trkpt>
      <trkpt lat="43.32148" lon="3.55372">
        <ele>56</ele>
        <time>2016-04-17T10:40:10.948Z</time>
      </trkpt>
      <trkpt lat="43.32149" lon="3.5538">
        <ele>54</ele>
        <time>2016-04-17T10:40:11.924Z</time>
      </trkpt>
      <trkpt lat="43.32152" lon="3.55384">
        <ele>53</ele>
        <time>2016-04-17T10:40:12.948Z</time>
      </trkpt>
      <trkpt lat="43.32155" lon="3.55389">
        <ele>53</ele>
        <time>2016-04-17T10:40:13.922Z</time>
      </trkpt>
      <trkpt lat="43.32156" lon="3.554">
        <ele>50</ele>
        <time>2016-04-17T10:40:15.939Z</time>
      </trkpt>
      <trkpt lat="43.32158" lon="3.55406">
        <ele>50</ele>
        <time>2016-04-17T10:40:16.921Z</time>
      </trkpt>
      <trkpt lat="43.3216" lon="3.55416">
        <ele>50</ele>
        <time>2016-04-17T10:40:18.946Z</time>
      </trkpt>
      <trkpt lat="43.32163" lon="3.55421">
        <ele>50</ele>
        <time>2016-04-17T10:40:19.948Z</time>
      </trkpt>
      <trkpt lat="43.32166" lon="3.55429">
        <ele>50</ele>
        <time>2016-04-17T10:40:21.948Z</time>
      </trkpt>
      <trkpt lat="43.32167" lon="3.55434">
        <ele>50</ele>
        <time>2016-04-17T10:40:22.921Z</time>
      </trkpt>
      <trkpt lat="43.32173" lon="3.55437">
        <ele>48</ele>
        <time>2016-04-17T10:40:23.948Z</time>
      </trkpt>
      <trkpt lat="43.32175" lon="3.55441">
        <ele>48</ele>
        <time>2016-04-17T10:40:24.921Z</time>
      </trkpt>
      <trkpt lat="43.32178" lon="3.55446">
        <ele>48</ele>
        <time>2016-04-17T10:40:25.949Z</time>
      </trkpt>
      <trkpt lat="43.32179" lon="3.55452">
        <ele>49</ele>
        <time>2016-04-17T10:40:26.921Z</time>
      </trkpt>
      <trkpt lat="43.32181" lon="3.55458">
        <ele>49</ele>
        <time>2016-04-17T10:40:27.949Z</time>
      </trkpt>
      <trkpt lat="43.32182" lon="3.55464">
        <ele>49</ele>
        <time>2016-04-17T10:40:28.918Z</time>
      </trkpt>
      <trkpt lat="43.32188" lon="3.55473">
        <ele>49</ele>
        <time>2016-04-17T10:40:30.951Z</time>
      </trkpt>
      <trkpt lat="43.32191" lon="3.55477">
        <ele>49</ele>
        <time>2016-04-17T10:40:31.920Z</time>
      </trkpt>
      <trkpt lat="43.32194" lon="3.55485">
        <ele>49</ele>
        <time>2016-04-17T10:40:34.013Z</time>
      </trkpt>
      <trkpt lat="43.32197" lon="3.5549">
        <ele>49</ele>
        <time>2016-04-17T10:40:34.923Z</time>
      </trkpt>
      <trkpt lat="43.32202" lon="3.55499">
        <ele>51</ele>
        <time>2016-04-17T10:40:36.947Z</time>
      </trkpt>
      <trkpt lat="43.32204" lon="3.55504">
        <ele>51</ele>
        <time>2016-04-17T10:40:37.920Z</time>
      </trkpt>
      <trkpt lat="43.3221" lon="3.55513">
        <ele>52</ele>
        <time>2016-04-17T10:40:39.949Z</time>
      </trkpt>
      <trkpt lat="43.32212" lon="3.55517">
        <ele>52</ele>
        <time>2016-04-17T10:40:40.917Z</time>
      </trkpt>
      <trkpt lat="43.32216" lon="3.55524">
        <ele>50</ele>
        <time>2016-04-17T10:40:42.950Z</time>
      </trkpt>
      <trkpt lat="43.32218" lon="3.5553">
        <ele>50</ele>
        <time>2016-04-17T10:40:43.922Z</time>
      </trkpt>
      <trkpt lat="43.32222" lon="3.5554">
        <ele>47</ele>
        <time>2016-04-17T10:40:46.092Z</time>
      </trkpt>
      <trkpt lat="43.32226" lon="3.55545">
        <ele>47</ele>
        <time>2016-04-17T10:40:46.921Z</time>
      </trkpt>
      <trkpt lat="43.3223" lon="3.55549">
        <ele>48</ele>
        <time>2016-04-17T10:40:47.948Z</time>
      </trkpt>
      <trkpt lat="43.32232" lon="3.55554">
        <ele>48</ele>
        <time>2016-04-17T10:40:48.921Z</time>
      </trkpt>
      <trkpt lat="43.32236" lon="3.55564">
        <ele>48</ele>
        <time>2016-04-17T10:40:50.949Z</time>
      </trkpt>
      <trkpt lat="43.32239" lon="3.55568">
        <ele>47</ele>
        <time>2016-04-17T10:40:51.921Z</time>
      </trkpt>
      <trkpt lat="43.32244" lon="3.55574">
        <ele>47</ele>
        <time>2016-04-17T10:40:53.950Z</time>
      </trkpt>
      <trkpt lat="43.32246" lon="3.55576">
        <ele>49</ele>
        <time>2016-04-17T10:40:54.920Z</time>
      </trkpt>
      <trkpt lat="43.32251" lon="3.55581">
        <ele>51</ele>
        <time>2016-04-17T10:40:56.973Z</time>
      </trkpt>
      <trkpt lat="43.32253" lon="3.55586">
        <ele>50</ele>
        <time>2016-04-17T10:40:57.921Z</time>
      </trkpt>
      <trkpt lat="43.32258" lon="3.55592">
        <ele>51</ele>
        <time>2016-04-17T10:40:59.947Z</time>
      </trkpt>
      <trkpt lat="43.32261" lon="3.55594">
        <ele>48</ele>
        <time>2016-04-17T10:41:00.923Z</time>
      </trkpt>
      <trkpt lat="43.32265" lon="3.55601">
        <ele>48</ele>
        <time>2016-04-17T10:41:02.941Z</time>
      </trkpt>
      <trkpt lat="43.32265" lon="3.55605">
        <ele>50</ele>
        <time>2016-04-17T10:41:03.921Z</time>
      </trkpt>
      <trkpt lat="43.32269" lon="3.55613">
        <ele>49</ele>
        <time>2016-04-17T10:41:05.948Z</time>
      </trkpt>
      <trkpt lat="43.32271" lon="3.55616">
        <ele>48</ele>
        <time>2016-04-17T10:41:06.921Z</time>
      </trkpt>
      <trkpt lat="43.32276" lon="3.55624">
        <ele>48</ele>
        <time>2016-04-17T10:41:08.948Z</time>
      </trkpt>
      <trkpt lat="43.32278" lon="3.55628">
        <ele>48</ele>
        <time>2016-04-17T10:41:09.916Z</time>
      </trkpt>
      <trkpt lat="43.32283" lon="3.55638">
        <ele>49</ele>
        <time>2016-04-17T10:41:11.954Z</time>
      </trkpt>
      <trkpt lat="43.32285" lon="3.55643">
        <ele>49</ele>
        <time>2016-04-17T10:41:12.921Z</time>
      </trkpt>
      <trkpt lat="43.32291" lon="3.55651">
        <ele>49</ele>
        <time>2016-04-17T10:41:14.939Z</time>
      </trkpt>
      <trkpt lat="43.32294" lon="3.55655">
        <ele>48</ele>
        <time>2016-04-17T10:41:15.922Z</time>
      </trkpt>
      <trkpt lat="43.32299" lon="3.55664">
        <ele>49</ele>
        <time>2016-04-17T10:41:17.975Z</time>
      </trkpt>
      <trkpt lat="43.32301" lon="3.55668">
        <ele>49</ele>
        <time>2016-04-17T10:41:18.917Z</time>
      </trkpt>
      <trkpt lat="43.32302" lon="3.55674">
        <ele>49</ele>
        <time>2016-04-17T10:41:19.951Z</time>
      </trkpt>
      <trkpt lat="43.32305" lon="3.55679">
        <ele>48</ele>
        <time>2016-04-17T10:41:20.927Z</time>
      </trkpt>
      <trkpt lat="43.32308" lon="3.55684">
        <ele>50</ele>
        <time>2016-04-17T10:41:21.956Z</time>
      </trkpt>
      <trkpt lat="43.32311" lon="3.5569">
        <ele>50</ele>
        <time>2016-04-17T10:41:22.923Z</time>
      </trkpt>
      <trkpt lat="43.32315" lon="3.55695">
        <ele>50</ele>
        <time>2016-04-17T10:41:23.947Z</time>
      </trkpt>
      <trkpt lat="43.32318" lon="3.55701">
        <ele>49</ele>
        <time>2016-04-17T10:41:24.918Z</time>
      </trkpt>
      <trkpt lat="43.32319" lon="3.55707">
        <ele>49</ele>
        <time>2016-04-17T10:41:25.947Z</time>
      </trkpt>
      <trkpt lat="43.32322" lon="3.55712">
        <ele>49</ele>
        <time>2016-04-17T10:41:26.919Z</time>
      </trkpt>
      <trkpt lat="43.32327" lon="3.55721">
        <ele>49</ele>
        <time>2016-04-17T10:41:28.940Z</time>
      </trkpt>
      <trkpt lat="43.3233" lon="3.55725">
        <ele>51</ele>
        <time>2016-04-17T10:41:29.935Z</time>
      </trkpt>
      <trkpt lat="43.32332" lon="3.55731">
        <ele>51</ele>
        <time>2016-04-17T10:41:30.942Z</time>
      </trkpt>
      <trkpt lat="43.32336" lon="3.55736">
        <ele>49</ele>
        <time>2016-04-17T10:41:31.921Z</time>
      </trkpt>
      <trkpt lat="43.3234" lon="3.55742">
        <ele>49</ele>
        <time>2016-04-17T10:41:33.082Z</time>
      </trkpt>
      <trkpt lat="43.32343" lon="3.55747">
        <ele>49</ele>
        <time>2016-04-17T10:41:33.945Z</time>
      </trkpt>
      <trkpt lat="43.32347" lon="3.55753">
        <ele>49</ele>
        <time>2016-04-17T10:41:34.942Z</time>
      </trkpt>
      <trkpt lat="43.3235" lon="3.55759">
        <ele>47</ele>
        <time>2016-04-17T10:41:35.921Z</time>
      </trkpt>
      <trkpt lat="43.32354" lon="3.55769">
        <ele>48</ele>
        <time>2016-04-17T10:41:37.942Z</time>
      </trkpt>
      <trkpt lat="43.32358" lon="3.55776">
        <ele>46</ele>
        <time>2016-04-17T10:41:38.920Z</time>
      </trkpt>
      <trkpt lat="43.32361" lon="3.55781">
        <ele>46</ele>
        <time>2016-04-17T10:41:39.948Z</time>
      </trkpt>
      <trkpt lat="43.32363" lon="3.55787">
        <ele>45</ele>
        <time>2016-04-17T10:41:40.921Z</time>
      </trkpt>
      <trkpt lat="43.32366" lon="3.55793">
        <ele>45</ele>
        <time>2016-04-17T10:41:41.939Z</time>
      </trkpt>
      <trkpt lat="43.3237" lon="3.55796">
        <ele>44</ele>
        <time>2016-04-17T10:41:42.920Z</time>
      </trkpt>
      <trkpt lat="43.32372" lon="3.55802">
        <ele>44</ele>
        <time>2016-04-17T10:41:44.013Z</time>
      </trkpt>
      <trkpt lat="43.32375" lon="3.55808">
        <ele>45</ele>
        <time>2016-04-17T10:41:44.915Z</time>
      </trkpt>
      <trkpt lat="43.32381" lon="3.55816">
        <ele>46</ele>
        <time>2016-04-17T10:41:46.951Z</time>
      </trkpt>
      <trkpt lat="43.32384" lon="3.55822">
        <ele>43</ele>
        <time>2016-04-17T10:41:47.921Z</time>
      </trkpt>
      <trkpt lat="43.32388" lon="3.55832">
        <ele>42</ele>
        <time>2016-04-17T10:41:49.974Z</time>
      </trkpt>
      <trkpt lat="43.32391" lon="3.55837">
        <ele>41</ele>
        <time>2016-04-17T10:41:50.920Z</time>
      </trkpt>
      <trkpt lat="43.32395" lon="3.55847">
        <ele>40</ele>
        <time>2016-04-17T10:41:52.948Z</time>
      </trkpt>
      <trkpt lat="43.32398" lon="3.55852">
        <ele>41</ele>
        <time>2016-04-17T10:41:53.916Z</time>
      </trkpt>
      <trkpt lat="43.324" lon="3.5586">
        <ele>42</ele>
        <time>2016-04-17T10:41:54.946Z</time>
      </trkpt>
      <trkpt lat="43.32403" lon="3.55864">
        <ele>42</ele>
        <time>2016-04-17T10:41:55.922Z</time>
      </trkpt>
      <trkpt lat="43.32405" lon="3.55869">
        <ele>42</ele>
        <time>2016-04-17T10:41:56.949Z</time>
      </trkpt>
      <trkpt lat="43.32409" lon="3.55876">
        <ele>41</ele>
        <time>2016-04-17T10:41:57.921Z</time>
      </trkpt>
      <trkpt lat="43.32413" lon="3.55884">
        <ele>41</ele>
        <time>2016-04-17T10:41:59.946Z</time>
      </trkpt>
      <trkpt lat="43.32415" lon="3.55887">
        <ele>42</ele>
        <time>2016-04-17T10:42:00.916Z</time>
      </trkpt>
      <trkpt lat="43.32419" lon="3.55895">
        <ele>43</ele>
        <time>2016-04-17T10:42:04.949Z</time>
      </trkpt>
      <trkpt lat="43.32422" lon="3.55895">
        <ele>46</ele>
        <time>2016-04-17T10:42:05.922Z</time>
      </trkpt>
      <trkpt lat="43.32424" lon="3.55905">
        <ele>49</ele>
        <time>2016-04-17T10:42:09.948Z</time>
      </trkpt>
      <trkpt lat="43.32426" lon="3.55908">
        <ele>49</ele>
        <time>2016-04-17T10:42:10.921Z</time>
      </trkpt>
      <trkpt lat="43.32432" lon="3.55915">
        <ele>49</ele>
        <time>2016-04-17T10:42:13.948Z</time>
      </trkpt>
      <trkpt lat="43.32434" lon="3.55919">
        <ele>49</ele>
        <time>2016-04-17T10:42:14.921Z</time>
      </trkpt>
      <trkpt lat="43.3244" lon="3.55925">
        <ele>49</ele>
        <time>2016-04-17T10:42:16.949Z</time>
      </trkpt>
      <trkpt lat="43.32444" lon="3.55933">
        <ele>50</ele>
        <time>2016-04-17T10:42:17.921Z</time>
      </trkpt>
      <trkpt lat="43.32449" lon="3.55942">
        <ele>51</ele>
        <time>2016-04-17T10:42:19.952Z</time>
      </trkpt>
      <trkpt lat="43.32452" lon="3.55945">
        <ele>50</ele>
        <time>2016-04-17T10:42:20.921Z</time>
      </trkpt>
      <trkpt lat="43.32456" lon="3.55953">
        <ele>50</ele>
        <time>2016-04-17T10:42:22.941Z</time>
      </trkpt>
      <trkpt lat="43.3246" lon="3.55958">
        <ele>52</ele>
        <time>2016-04-17T10:42:23.920Z</time>
      </trkpt>
      <trkpt lat="43.32464" lon="3.55967">
        <ele>52</ele>
        <time>2016-04-17T10:42:25.948Z</time>
      </trkpt>
      <trkpt lat="43.32467" lon="3.55973">
        <ele>53</ele>
        <time>2016-04-17T10:42:26.920Z</time>
      </trkpt>
      <trkpt lat="43.32469" lon="3.55978">
        <ele>53</ele>
        <time>2016-04-17T10:42:27.946Z</time>
      </trkpt>
      <trkpt lat="43.32471" lon="3.55984">
        <ele>54</ele>
        <time>2016-04-17T10:42:28.920Z</time>
      </trkpt>
      <trkpt lat="43.32474" lon="3.55995">
        <ele>53</ele>
        <time>2016-04-17T10:42:30.949Z</time>
      </trkpt>
      <trkpt lat="43.32475" lon="3.56">
        <ele>52</ele>
        <time>2016-04-17T10:42:31.920Z</time>
      </trkpt>
      <trkpt lat="43.32477" lon="3.5601">
        <ele>53</ele>
        <time>2016-04-17T10:42:33.948Z</time>
      </trkpt>
      <trkpt lat="43.32478" lon="3.56015">
        <ele>52</ele>
        <time>2016-04-17T10:42:34.919Z</time>
      </trkpt>
      <trkpt lat="43.32482" lon="3.56023">
        <ele>53</ele>
        <time>2016-04-17T10:42:36.946Z</time>
      </trkpt>
      <trkpt lat="43.32485" lon="3.56026">
        <ele>53</ele>
        <time>2016-04-17T10:42:37.920Z</time>
      </trkpt>
      <trkpt lat="43.32491" lon="3.56034">
        <ele>52</ele>
        <time>2016-04-17T10:42:40.950Z</time>
      </trkpt>
      <trkpt lat="43.32492" lon="3.56035">
        <ele>54</ele>
        <time>2016-04-17T10:42:41.921Z</time>
      </trkpt>
      <trkpt lat="43.32499" lon="3.56043">
        <ele>52</ele>
        <time>2016-04-17T10:42:45.949Z</time>
      </trkpt>
      <trkpt lat="43.325" lon="3.56045">
        <ele>51</ele>
        <time>2016-04-17T10:42:46.916Z</time>
      </trkpt>
      <trkpt lat="43.32506" lon="3.56055">
        <ele>51</ele>
        <time>2016-04-17T10:42:49.949Z</time>
      </trkpt>
      <trkpt lat="43.32507" lon="3.56059">
        <ele>50</ele>
        <time>2016-04-17T10:42:50.922Z</time>
      </trkpt>
      <trkpt lat="43.32511" lon="3.56068">
        <ele>50</ele>
        <time>2016-04-17T10:42:52.948Z</time>
      </trkpt>
      <trkpt lat="43.32513" lon="3.56071">
        <ele>50</ele>
        <time>2016-04-17T10:42:53.921Z</time>
      </trkpt>
      <trkpt lat="43.32519" lon="3.56079">
        <ele>50</ele>
        <time>2016-04-17T10:42:55.949Z</time>
      </trkpt>
      <trkpt lat="43.32521" lon="3.56083">
        <ele>50</ele>
        <time>2016-04-17T10:42:56.921Z</time>
      </trkpt>
      <trkpt lat="43.32524" lon="3.56089">
        <ele>51</ele>
        <time>2016-04-17T10:42:58.939Z</time>
      </trkpt>
      <trkpt lat="43.32529" lon="3.56093">
        <ele>52</ele>
        <time>2016-04-17T10:42:59.921Z</time>
      </trkpt>
      <trkpt lat="43.32534" lon="3.56102">
        <ele>52</ele>
        <time>2016-04-17T10:43:01.947Z</time>
      </trkpt>
      <trkpt lat="43.32537" lon="3.56109">
        <ele>52</ele>
        <time>2016-04-17T10:43:02.923Z</time>
      </trkpt>
      <trkpt lat="43.32541" lon="3.56114">
        <ele>51</ele>
        <time>2016-04-17T10:43:03.949Z</time>
      </trkpt>
      <trkpt lat="43.32544" lon="3.56119">
        <ele>51</ele>
        <time>2016-04-17T10:43:04.917Z</time>
      </trkpt>
      <trkpt lat="43.32549" lon="3.56128">
        <ele>51</ele>
        <time>2016-04-17T10:43:06.950Z</time>
      </trkpt>
      <trkpt lat="43.32552" lon="3.56133">
        <ele>52</ele>
        <time>2016-04-17T10:43:07.920Z</time>
      </trkpt>
      <trkpt lat="43.32554" lon="3.56139">
        <ele>51</ele>
        <time>2016-04-17T10:43:08.951Z</time>
      </trkpt>
      <trkpt lat="43.32556" lon="3.56143">
        <ele>51</ele>
        <time>2016-04-17T10:43:09.921Z</time>
      </trkpt>
      <trkpt lat="43.32559" lon="3.56148">
        <ele>51</ele>
        <time>2016-04-17T10:43:10.938Z</time>
      </trkpt>
      <trkpt lat="43.3256" lon="3.56157">
        <ele>54</ele>
        <time>2016-04-17T10:43:11.921Z</time>
      </trkpt>
      <trkpt lat="43.32562" lon="3.56163">
        <ele>54</ele>
        <time>2016-04-17T10:43:12.950Z</time>
      </trkpt>
      <trkpt lat="43.32566" lon="3.56169">
        <ele>53</ele>
        <time>2016-04-17T10:43:13.946Z</time>
      </trkpt>
      <trkpt lat="43.32568" lon="3.56175">
        <ele>52</ele>
        <time>2016-04-17T10:43:14.947Z</time>
      </trkpt>
      <trkpt lat="43.3257" lon="3.56182">
        <ele>53</ele>
        <time>2016-04-17T10:43:15.921Z</time>
      </trkpt>
      <trkpt lat="43.32572" lon="3.56188">
        <ele>51</ele>
        <time>2016-04-17T10:43:16.949Z</time>
      </trkpt>
      <trkpt lat="43.32575" lon="3.56195">
        <ele>51</ele>
        <time>2016-04-17T10:43:17.920Z</time>
      </trkpt>
      <trkpt lat="43.32578" lon="3.562">
        <ele>51</ele>
        <time>2016-04-17T10:43:18.950Z</time>
      </trkpt>
      <trkpt lat="43.32581" lon="3.56205">
        <ele>50</ele>
        <time>2016-04-17T10:43:19.920Z</time>
      </trkpt>
      <trkpt lat="43.32584" lon="3.56212">
        <ele>50</ele>
        <time>2016-04-17T10:43:20.939Z</time>
      </trkpt>
      <trkpt lat="43.32588" lon="3.56217">
        <ele>49</ele>
        <time>2016-04-17T10:43:21.948Z</time>
      </trkpt>
      <trkpt lat="43.32589" lon="3.56223">
        <ele>49</ele>
        <time>2016-04-17T10:43:23.019Z</time>
      </trkpt>
      <trkpt lat="43.32592" lon="3.56228">
        <ele>50</ele>
        <time>2016-04-17T10:43:23.919Z</time>
      </trkpt>
      <trkpt lat="43.32596" lon="3.56239">
        <ele>50</ele>
        <time>2016-04-17T10:43:25.948Z</time>
      </trkpt>
      <trkpt lat="43.32597" lon="3.56244">
        <ele>50</ele>
        <time>2016-04-17T10:43:26.921Z</time>
      </trkpt>
      <trkpt lat="43.326" lon="3.56253">
        <ele>52</ele>
        <time>2016-04-17T10:43:28.950Z</time>
      </trkpt>
      <trkpt lat="43.32602" lon="3.56258">
        <ele>52</ele>
        <time>2016-04-17T10:43:29.938Z</time>
      </trkpt>
      <trkpt lat="43.32606" lon="3.56261">
        <ele>53</ele>
        <time>2016-04-17T10:43:30.947Z</time>
      </trkpt>
      <trkpt lat="43.3261" lon="3.56264">
        <ele>53</ele>
        <time>2016-04-17T10:43:31.921Z</time>
      </trkpt>
      <trkpt lat="43.32616" lon="3.56271">
        <ele>52</ele>
        <time>2016-04-17T10:43:34.091Z</time>
      </trkpt>
      <trkpt lat="43.32618" lon="3.56277">
        <ele>52</ele>
        <time>2016-04-17T10:43:34.946Z</time>
      </trkpt>
      <trkpt lat="43.32623" lon="3.56285">
        <ele>53</ele>
        <time>2016-04-17T10:43:36.949Z</time>
      </trkpt>
      <trkpt lat="43.32623" lon="3.5629">
        <ele>51</ele>
        <time>2016-04-17T10:43:37.921Z</time>
      </trkpt>
      <trkpt lat="43.32627" lon="3.56299">
        <ele>50</ele>
        <time>2016-04-17T10:43:39.948Z</time>
      </trkpt>
      <trkpt lat="43.3263" lon="3.56304">
        <ele>49</ele>
        <time>2016-04-17T10:43:40.922Z</time>
      </trkpt>
      <trkpt lat="43.32633" lon="3.56315">
        <ele>49</ele>
        <time>2016-04-17T10:43:42.947Z</time>
      </trkpt>
      <trkpt lat="43.32634" lon="3.56322">
        <ele>48</ele>
        <time>2016-04-17T10:43:43.922Z</time>
      </trkpt>
      <trkpt lat="43.32638" lon="3.56331">
        <ele>46</ele>
        <time>2016-04-17T10:43:45.949Z</time>
      </trkpt>
      <trkpt lat="43.3264" lon="3.56336">
        <ele>47</ele>
        <time>2016-04-17T10:43:46.921Z</time>
      </trkpt>
      <trkpt lat="43.32643" lon="3.56342">
        <ele>49</ele>
        <time>2016-04-17T10:43:47.947Z</time>
      </trkpt>
      <trkpt lat="43.32646" lon="3.56347">
        <ele>51</ele>
        <time>2016-04-17T10:43:48.920Z</time>
      </trkpt>
      <trkpt lat="43.32648" lon="3.56353">
        <ele>50</ele>
        <time>2016-04-17T10:43:49.949Z</time>
      </trkpt>
      <trkpt lat="43.3265" lon="3.56359">
        <ele>50</ele>
        <time>2016-04-17T10:43:50.946Z</time>
      </trkpt>
      <trkpt lat="43.32655" lon="3.56368">
        <ele>51</ele>
        <time>2016-04-17T10:43:53.018Z</time>
      </trkpt>
      <trkpt lat="43.32656" lon="3.56373">
        <ele>51</ele>
        <time>2016-04-17T10:43:53.921Z</time>
      </trkpt>
      <trkpt lat="43.3266" lon="3.56382">
        <ele>54</ele>
        <time>2016-04-17T10:43:56.019Z</time>
      </trkpt>
      <trkpt lat="43.32661" lon="3.56387">
        <ele>54</ele>
        <time>2016-04-17T10:43:56.922Z</time>
      </trkpt>
      <trkpt lat="43.32663" lon="3.56393">
        <ele>53</ele>
        <time>2016-04-17T10:43:57.948Z</time>
      </trkpt>
      <trkpt lat="43.32666" lon="3.56399">
        <ele>54</ele>
        <time>2016-04-17T10:43:58.920Z</time>
      </trkpt>
      <trkpt lat="43.32669" lon="3.56404">
        <ele>58</ele>
        <time>2016-04-17T10:43:59.949Z</time>
      </trkpt>
      <trkpt lat="43.32672" lon="3.56409">
        <ele>59</ele>
        <time>2016-04-17T10:44:00.920Z</time>
      </trkpt>
      <trkpt lat="43.32676" lon="3.56418">
        <ele>60</ele>
        <time>2016-04-17T10:44:02.946Z</time>
      </trkpt>
      <trkpt lat="43.32679" lon="3.56423">
        <ele>60</ele>
        <time>2016-04-17T10:44:03.921Z</time>
      </trkpt>
      <trkpt lat="43.32682" lon="3.56433">
        <ele>60</ele>
        <time>2016-04-17T10:44:05.948Z</time>
      </trkpt>
      <trkpt lat="43.32683" lon="3.56437">
        <ele>62</ele>
        <time>2016-04-17T10:44:06.946Z</time>
      </trkpt>
      <trkpt lat="43.32684" lon="3.56444">
        <ele>62</ele>
        <time>2016-04-17T10:44:07.949Z</time>
      </trkpt>
      <trkpt lat="43.32683" lon="3.56451">
        <ele>58</ele>
        <time>2016-04-17T10:44:08.922Z</time>
      </trkpt>
      <trkpt lat="43.32686" lon="3.56459">
        <ele>57</ele>
        <time>2016-04-17T10:44:11.086Z</time>
      </trkpt>
      <trkpt lat="43.32689" lon="3.56463">
        <ele>56</ele>
        <time>2016-04-17T10:44:11.921Z</time>
      </trkpt>
      <trkpt lat="43.32693" lon="3.56472">
        <ele>54</ele>
        <time>2016-04-17T10:44:13.953Z</time>
      </trkpt>
      <trkpt lat="43.32695" lon="3.56477">
        <ele>54</ele>
        <time>2016-04-17T10:44:14.917Z</time>
      </trkpt>
      <trkpt lat="43.32698" lon="3.56483">
        <ele>56</ele>
        <time>2016-04-17T10:44:15.950Z</time>
      </trkpt>
      <trkpt lat="43.327" lon="3.56489">
        <ele>57</ele>
        <time>2016-04-17T10:44:16.923Z</time>
      </trkpt>
      <trkpt lat="43.32702" lon="3.56494">
        <ele>58</ele>
        <time>2016-04-17T10:44:17.948Z</time>
      </trkpt>
      <trkpt lat="43.32705" lon="3.565">
        <ele>59</ele>
        <time>2016-04-17T10:44:18.920Z</time>
      </trkpt>
      <trkpt lat="43.32706" lon="3.56505">
        <ele>59</ele>
        <time>2016-04-17T10:44:19.949Z</time>
      </trkpt>
      <trkpt lat="43.32709" lon="3.56511">
        <ele>62</ele>
        <time>2016-04-17T10:44:20.922Z</time>
      </trkpt>
      <trkpt lat="43.32712" lon="3.56516">
        <ele>62</ele>
        <time>2016-04-17T10:44:21.938Z</time>
      </trkpt>
      <trkpt lat="43.32715" lon="3.56521">
        <ele>62</ele>
        <time>2016-04-17T10:44:22.949Z</time>
      </trkpt>
      <trkpt lat="43.32719" lon="3.56531">
        <ele>63</ele>
        <time>2016-04-17T10:44:24.952Z</time>
      </trkpt>
      <trkpt lat="43.32721" lon="3.56535">
        <ele>62</ele>
        <time>2016-04-17T10:44:25.921Z</time>
      </trkpt>
      <trkpt lat="43.32724" lon="3.56545">
        <ele>61</ele>
        <time>2016-04-17T10:44:27.949Z</time>
      </trkpt>
      <trkpt lat="43.32726" lon="3.56551">
        <ele>61</ele>
        <time>2016-04-17T10:44:28.923Z</time>
      </trkpt>
      <trkpt lat="43.32729" lon="3.56561">
        <ele>60</ele>
        <time>2016-04-17T10:44:30.942Z</time>
      </trkpt>
      <trkpt lat="43.32732" lon="3.56566">
        <ele>59</ele>
        <time>2016-04-17T10:44:31.921Z</time>
      </trkpt>
      <trkpt lat="43.32737" lon="3.56576">
        <ele>57</ele>
        <time>2016-04-17T10:44:34.089Z</time>
      </trkpt>
      <trkpt lat="43.32739" lon="3.56581">
        <ele>58</ele>
        <time>2016-04-17T10:44:34.922Z</time>
      </trkpt>
      <trkpt lat="43.32743" lon="3.56586">
        <ele>59</ele>
        <time>2016-04-17T10:44:35.947Z</time>
      </trkpt>
      <trkpt lat="43.32745" lon="3.56593">
        <ele>60</ele>
        <time>2016-04-17T10:44:36.923Z</time>
      </trkpt>
      <trkpt lat="43.32748" lon="3.56598">
        <ele>60</ele>
        <time>2016-04-17T10:44:37.948Z</time>
      </trkpt>
      <trkpt lat="43.3275" lon="3.56603">
        <ele>60</ele>
        <time>2016-04-17T10:44:38.921Z</time>
      </trkpt>
      <trkpt lat="43.32755" lon="3.56614">
        <ele>61</ele>
        <time>2016-04-17T10:44:40.949Z</time>
      </trkpt>
      <trkpt lat="43.32758" lon="3.56619">
        <ele>61</ele>
        <time>2016-04-17T10:44:41.922Z</time>
      </trkpt>
      <trkpt lat="43.32765" lon="3.56625">
        <ele>62</ele>
        <time>2016-04-17T10:44:43.947Z</time>
      </trkpt>
      <trkpt lat="43.3277" lon="3.56631">
        <ele>61</ele>
        <time>2016-04-17T10:44:44.946Z</time>
      </trkpt>
      <trkpt lat="43.32776" lon="3.56638">
        <ele>61</ele>
        <time>2016-04-17T10:44:46.948Z</time>
      </trkpt>
      <trkpt lat="43.32778" lon="3.56641">
        <ele>60</ele>
        <time>2016-04-17T10:44:47.921Z</time>
      </trkpt>
      <trkpt lat="43.3278" lon="3.56649">
        <ele>63</ele>
        <time>2016-04-17T10:44:48.949Z</time>
      </trkpt>
      <trkpt lat="43.32782" lon="3.56655">
        <ele>63</ele>
        <time>2016-04-17T10:44:49.921Z</time>
      </trkpt>
      <trkpt lat="43.32784" lon="3.56662">
        <ele>63</ele>
        <time>2016-04-17T10:44:50.947Z</time>
      </trkpt>
      <trkpt lat="43.32787" lon="3.56667">
        <ele>63</ele>
        <time>2016-04-17T10:44:51.916Z</time>
      </trkpt>
      <trkpt lat="43.3279" lon="3.56674">
        <ele>60</ele>
        <time>2016-04-17T10:44:52.947Z</time>
      </trkpt>
      <trkpt lat="43.32793" lon="3.56678">
        <ele>60</ele>
        <time>2016-04-17T10:44:53.922Z</time>
      </trkpt>
      <trkpt lat="43.32796" lon="3.56684">
        <ele>60</ele>
        <time>2016-04-17T10:44:54.949Z</time>
      </trkpt>
      <trkpt lat="43.32799" lon="3.56689">
        <ele>60</ele>
        <time>2016-04-17T10:44:55.920Z</time>
      </trkpt>
      <trkpt lat="43.32801" lon="3.56696">
        <ele>61</ele>
        <time>2016-04-17T10:44:56.947Z</time>
      </trkpt>
      <trkpt lat="43.32804" lon="3.567">
        <ele>61</ele>
        <time>2016-04-17T10:44:57.922Z</time>
      </trkpt>
      <trkpt lat="43.32806" lon="3.56709">
        <ele>59</ele>
        <time>2016-04-17T10:44:58.948Z</time>
      </trkpt>
      <trkpt lat="43.32809" lon="3.56714">
        <ele>60</ele>
        <time>2016-04-17T10:44:59.922Z</time>
      </trkpt>
      <trkpt lat="43.32812" lon="3.56718">
        <ele>59</ele>
        <time>2016-04-17T10:45:00.979Z</time>
      </trkpt>
      <trkpt lat="43.32817" lon="3.56722">
        <ele>59</ele>
        <time>2016-04-17T10:45:01.922Z</time>
      </trkpt>
      <trkpt lat="43.32819" lon="3.56727">
        <ele>60</ele>
        <time>2016-04-17T10:45:02.948Z</time>
      </trkpt>
      <trkpt lat="43.32823" lon="3.56731">
        <ele>60</ele>
        <time>2016-04-17T10:45:03.922Z</time>
      </trkpt>
      <trkpt lat="43.32827" lon="3.56736">
        <ele>58</ele>
        <time>2016-04-17T10:45:04.948Z</time>
      </trkpt>
      <trkpt lat="43.32831" lon="3.56741">
        <ele>59</ele>
        <time>2016-04-17T10:45:05.922Z</time>
      </trkpt>
      <trkpt lat="43.32833" lon="3.56746">
        <ele>60</ele>
        <time>2016-04-17T10:45:06.947Z</time>
      </trkpt>
      <trkpt lat="43.32836" lon="3.56751">
        <ele>60</ele>
        <time>2016-04-17T10:45:07.920Z</time>
      </trkpt>
      <trkpt lat="43.32839" lon="3.56755">
        <ele>61</ele>
        <time>2016-04-17T10:45:08.949Z</time>
      </trkpt>
      <trkpt lat="43.32842" lon="3.5676">
        <ele>62</ele>
        <time>2016-04-17T10:45:09.921Z</time>
      </trkpt>
      <trkpt lat="43.32844" lon="3.56766">
        <ele>62</ele>
        <time>2016-04-17T10:45:10.948Z</time>
      </trkpt>
      <trkpt lat="43.32847" lon="3.5677">
        <ele>62</ele>
        <time>2016-04-17T10:45:11.920Z</time>
      </trkpt>
      <trkpt lat="43.32853" lon="3.56779">
        <ele>61</ele>
        <time>2016-04-17T10:45:13.942Z</time>
      </trkpt>
      <trkpt lat="43.32856" lon="3.56784">
        <ele>61</ele>
        <time>2016-04-17T10:45:14.921Z</time>
      </trkpt>
      <trkpt lat="43.32859" lon="3.56788">
        <ele>62</ele>
        <time>2016-04-17T10:45:15.948Z</time>
      </trkpt>
      <trkpt lat="43.32863" lon="3.56793">
        <ele>60</ele>
        <time>2016-04-17T10:45:16.947Z</time>
      </trkpt>
      <trkpt lat="43.32868" lon="3.56802">
        <ele>59</ele>
        <time>2016-04-17T10:45:18.949Z</time>
      </trkpt>
      <trkpt lat="43.32869" lon="3.56807">
        <ele>58</ele>
        <time>2016-04-17T10:45:19.922Z</time>
      </trkpt>
      <trkpt lat="43.32874" lon="3.56815">
        <ele>58</ele>
        <time>2016-04-17T10:45:21.950Z</time>
      </trkpt>
      <trkpt lat="43.32877" lon="3.56819">
        <ele>58</ele>
        <time>2016-04-17T10:45:22.920Z</time>
      </trkpt>
      <trkpt lat="43.3288" lon="3.56823">
        <ele>58</ele>
        <time>2016-04-17T10:45:23.952Z</time>
      </trkpt>
      <trkpt lat="43.32883" lon="3.56827">
        <ele>58</ele>
        <time>2016-04-17T10:45:24.916Z</time>
      </trkpt>
      <trkpt lat="43.32886" lon="3.56831">
        <ele>58</ele>
        <time>2016-04-17T10:45:25.948Z</time>
      </trkpt>
      <trkpt lat="43.32889" lon="3.56836">
        <ele>58</ele>
        <time>2016-04-17T10:45:26.924Z</time>
      </trkpt>
      <trkpt lat="43.32893" lon="3.56839">
        <ele>57</ele>
        <time>2016-04-17T10:45:28.028Z</time>
      </trkpt>
      <trkpt lat="43.32897" lon="3.56842">
        <ele>58</ele>
        <time>2016-04-17T10:45:28.920Z</time>
      </trkpt>
      <trkpt lat="43.32903" lon="3.5685">
        <ele>58</ele>
        <time>2016-04-17T10:45:30.950Z</time>
      </trkpt>
      <trkpt lat="43.32906" lon="3.56853">
        <ele>57</ele>
        <time>2016-04-17T10:45:31.922Z</time>
      </trkpt>
      <trkpt lat="43.32911" lon="3.56859">
        <ele>58</ele>
        <time>2016-04-17T10:45:33.949Z</time>
      </trkpt>
      <trkpt lat="43.32913" lon="3.56862">
        <ele>58</ele>
        <time>2016-04-17T10:45:34.920Z</time>
      </trkpt>
      <trkpt lat="43.3292" lon="3.5687">
        <ele>60</ele>
        <time>2016-04-17T10:45:36.948Z</time>
      </trkpt>
      <trkpt lat="43.32923" lon="3.56876">
        <ele>58</ele>
        <time>2016-04-17T10:45:37.924Z</time>
      </trkpt>
      <trkpt lat="43.32928" lon="3.56884">
        <ele>59</ele>
        <time>2016-04-17T10:45:39.947Z</time>
      </trkpt>
      <trkpt lat="43.3293" lon="3.56887">
        <ele>57</ele>
        <time>2016-04-17T10:45:40.924Z</time>
      </trkpt>
      <trkpt lat="43.32933" lon="3.56895">
        <ele>55</ele>
        <time>2016-04-17T10:45:42.953Z</time>
      </trkpt>
      <trkpt lat="43.32935" lon="3.56898">
        <ele>54</ele>
        <time>2016-04-17T10:45:43.920Z</time>
      </trkpt>
      <trkpt lat="43.32942" lon="3.56905">
        <ele>56</ele>
        <time>2016-04-17T10:45:45.949Z</time>
      </trkpt>
      <trkpt lat="43.32946" lon="3.56908">
        <ele>57</ele>
        <time>2016-04-17T10:45:46.923Z</time>
      </trkpt>
      <trkpt lat="43.32952" lon="3.56913">
        <ele>58</ele>
        <time>2016-04-17T10:45:48.975Z</time>
      </trkpt>
      <trkpt lat="43.32955" lon="3.56916">
        <ele>57</ele>
        <time>2016-04-17T10:45:49.922Z</time>
      </trkpt>
      <trkpt lat="43.32959" lon="3.5692">
        <ele>56</ele>
        <time>2016-04-17T10:45:50.949Z</time>
      </trkpt>
      <trkpt lat="43.32962" lon="3.56927">
        <ele>55</ele>
        <time>2016-04-17T10:45:51.921Z</time>
      </trkpt>
      <trkpt lat="43.32965" lon="3.56933">
        <ele>55</ele>
        <time>2016-04-17T10:45:52.948Z</time>
      </trkpt>
      <trkpt lat="43.32968" lon="3.56936">
        <ele>55</ele>
        <time>2016-04-17T10:45:53.921Z</time>
      </trkpt>
      <trkpt lat="43.32972" lon="3.5694">
        <ele>56</ele>
        <time>2016-04-17T10:45:54.947Z</time>
      </trkpt>
      <trkpt lat="43.32979" lon="3.56942">
        <ele>58</ele>
        <time>2016-04-17T10:45:55.921Z</time>
      </trkpt>
      <trkpt lat="43.32984" lon="3.56949">
        <ele>56</ele>
        <time>2016-04-17T10:45:57.949Z</time>
      </trkpt>
      <trkpt lat="43.32987" lon="3.56952">
        <ele>55</ele>
        <time>2016-04-17T10:45:58.917Z</time>
      </trkpt>
      <trkpt lat="43.32991" lon="3.56956">
        <ele>55</ele>
        <time>2016-04-17T10:45:59.947Z</time>
      </trkpt>
      <trkpt lat="43.32995" lon="3.5696">
        <ele>56</ele>
        <time>2016-04-17T10:46:00.918Z</time>
      </trkpt>
      <trkpt lat="43.33001" lon="3.56968">
        <ele>57</ele>
        <time>2016-04-17T10:46:02.949Z</time>
      </trkpt>
      <trkpt lat="43.33004" lon="3.56972">
        <ele>57</ele>
        <time>2016-04-17T10:46:03.921Z</time>
      </trkpt>
      <trkpt lat="43.33011" lon="3.56976">
        <ele>57</ele>
        <time>2016-04-17T10:46:05.949Z</time>
      </trkpt>
      <trkpt lat="43.33014" lon="3.56979">
        <ele>56</ele>
        <time>2016-04-17T10:46:06.918Z</time>
      </trkpt>
      <trkpt lat="43.33016" lon="3.56985">
        <ele>54</ele>
        <time>2016-04-17T10:46:07.948Z</time>
      </trkpt>
      <trkpt lat="43.3302" lon="3.56988">
        <ele>55</ele>
        <time>2016-04-17T10:46:08.923Z</time>
      </trkpt>
      <trkpt lat="43.33026" lon="3.56995">
        <ele>54</ele>
        <time>2016-04-17T10:46:10.949Z</time>
      </trkpt>
      <trkpt lat="43.33028" lon="3.56999">
        <ele>54</ele>
        <time>2016-04-17T10:46:11.922Z</time>
      </trkpt>
      <trkpt lat="43.33034" lon="3.57006">
        <ele>54</ele>
        <time>2016-04-17T10:46:13.949Z</time>
      </trkpt>
      <trkpt lat="43.33036" lon="3.5701">
        <ele>55</ele>
        <time>2016-04-17T10:46:14.922Z</time>
      </trkpt>
      <trkpt lat="43.3304" lon="3.57016">
        <ele>54</ele>
        <time>2016-04-17T10:46:16.949Z</time>
      </trkpt>
      <trkpt lat="43.33043" lon="3.57018">
        <ele>55</ele>
        <time>2016-04-17T10:46:17.920Z</time>
      </trkpt>
      <trkpt lat="43.33049" lon="3.57026">
        <ele>57</ele>
        <time>2016-04-17T10:46:20.955Z</time>
      </trkpt>
      <trkpt lat="43.33051" lon="3.57029">
        <ele>57</ele>
        <time>2016-04-17T10:46:21.923Z</time>
      </trkpt>
      <trkpt lat="43.33054" lon="3.57037">
        <ele>55</ele>
        <time>2016-04-17T10:46:23.954Z</time>
      </trkpt>
      <trkpt lat="43.33058" lon="3.57039">
        <ele>57</ele>
        <time>2016-04-17T10:46:24.923Z</time>
      </trkpt>
      <trkpt lat="43.33064" lon="3.57044">
        <ele>58</ele>
        <time>2016-04-17T10:46:27.948Z</time>
      </trkpt>
      <trkpt lat="43.33066" lon="3.57046">
        <ele>58</ele>
        <time>2016-04-17T10:46:28.921Z</time>
      </trkpt>
      <trkpt lat="43.33072" lon="3.57052">
        <ele>59</ele>
        <time>2016-04-17T10:46:32.948Z</time>
      </trkpt>
      <trkpt lat="43.33073" lon="3.57053">
        <ele>58</ele>
        <time>2016-04-17T10:46:33.923Z</time>
      </trkpt>
      <trkpt lat="43.3308" lon="3.57058">
        <ele>59</ele>
        <time>2016-04-17T10:46:36.950Z</time>
      </trkpt>
      <trkpt lat="43.33081" lon="3.5706">
        <ele>60</ele>
        <time>2016-04-17T10:46:37.921Z</time>
      </trkpt>
      <trkpt lat="43.33086" lon="3.57066">
        <ele>60</ele>
        <time>2016-04-17T10:46:39.950Z</time>
      </trkpt>
      <trkpt lat="43.3309" lon="3.57069">
        <ele>61</ele>
        <time>2016-04-17T10:46:40.924Z</time>
      </trkpt>
      <trkpt lat="43.33095" lon="3.57075">
        <ele>62</ele>
        <time>2016-04-17T10:46:42.947Z</time>
      </trkpt>
      <trkpt lat="43.33098" lon="3.57077">
        <ele>62</ele>
        <time>2016-04-17T10:46:43.920Z</time>
      </trkpt>
      <trkpt lat="43.33102" lon="3.57083">
        <ele>62</ele>
        <time>2016-04-17T10:46:45.948Z</time>
      </trkpt>
      <trkpt lat="43.33105" lon="3.57088">
        <ele>63</ele>
        <time>2016-04-17T10:46:46.922Z</time>
      </trkpt>
      <trkpt lat="43.3311" lon="3.57095">
        <ele>61</ele>
        <time>2016-04-17T10:46:48.949Z</time>
      </trkpt>
      <trkpt lat="43.33113" lon="3.57097">
        <ele>62</ele>
        <time>2016-04-17T10:46:49.922Z</time>
      </trkpt>
      <trkpt lat="43.3312" lon="3.57105">
        <ele>64</ele>
        <time>2016-04-17T10:46:51.943Z</time>
      </trkpt>
      <trkpt lat="43.33123" lon="3.5711">
        <ele>64</ele>
        <time>2016-04-17T10:46:52.921Z</time>
      </trkpt>
      <trkpt lat="43.33129" lon="3.57117">
        <ele>60</ele>
        <time>2016-04-17T10:46:55.948Z</time>
      </trkpt>
      <trkpt lat="43.33134" lon="3.57121">
        <ele>59</ele>
        <time>2016-04-17T10:46:56.920Z</time>
      </trkpt>
      <trkpt lat="43.33139" lon="3.57129">
        <ele>58</ele>
        <time>2016-04-17T10:46:58.946Z</time>
      </trkpt>
      <trkpt lat="43.33143" lon="3.57134">
        <ele>59</ele>
        <time>2016-04-17T10:46:59.921Z</time>
      </trkpt>
      <trkpt lat="43.33149" lon="3.5714">
        <ele>58</ele>
        <time>2016-04-17T10:47:01.949Z</time>
      </trkpt>
      <trkpt lat="43.33152" lon="3.57144">
        <ele>57</ele>
        <time>2016-04-17T10:47:02.921Z</time>
      </trkpt>
      <trkpt lat="43.33158" lon="3.57151">
        <ele>57</ele>
        <time>2016-04-17T10:47:04.949Z</time>
      </trkpt>
      <trkpt lat="43.33161" lon="3.57154">
        <ele>57</ele>
        <time>2016-04-17T10:47:05.921Z</time>
      </trkpt>
      <trkpt lat="43.33165" lon="3.57159">
        <ele>59</ele>
        <time>2016-04-17T10:47:07.948Z</time>
      </trkpt>
      <trkpt lat="43.33168" lon="3.57163">
        <ele>58</ele>
        <time>2016-04-17T10:47:08.925Z</time>
      </trkpt>
      <trkpt lat="43.33174" lon="3.57167">
        <ele>58</ele>
        <time>2016-04-17T10:47:10.941Z</time>
      </trkpt>
      <trkpt lat="43.33176" lon="3.5717">
        <ele>57</ele>
        <time>2016-04-17T10:47:11.921Z</time>
      </trkpt>
      <trkpt lat="43.33183" lon="3.57177">
        <ele>58</ele>
        <time>2016-04-17T10:47:14.947Z</time>
      </trkpt>
      <trkpt lat="43.33185" lon="3.5718">
        <ele>59</ele>
        <time>2016-04-17T10:47:15.920Z</time>
      </trkpt>
      <trkpt lat="43.3319" lon="3.57188">
        <ele>53</ele>
        <time>2016-04-17T10:47:17.947Z</time>
      </trkpt>
      <trkpt lat="43.33192" lon="3.57192">
        <ele>53</ele>
        <time>2016-04-17T10:47:18.921Z</time>
      </trkpt>
      <trkpt lat="43.33197" lon="3.572">
        <ele>53</ele>
        <time>2016-04-17T10:47:21.953Z</time>
      </trkpt>
      <trkpt lat="43.33199" lon="3.57204">
        <ele>52</ele>
        <time>2016-04-17T10:47:22.923Z</time>
      </trkpt>
      <trkpt lat="43.33199" lon="3.57216">
        <ele>51</ele>
        <time>2016-04-17T10:47:37.952Z</time>
      </trkpt>
      <trkpt lat="43.33197" lon="3.57216">
        <ele>51</ele>
        <time>2016-04-17T10:47:38.923Z</time>
      </trkpt>
      <trkpt lat="43.33196" lon="3.57217">
        <ele>51</ele>
        <time>2016-04-17T10:47:47.947Z</time>
      </trkpt>
      <trkpt lat="43.33197" lon="3.57215">
        <ele>52</ele>
        <time>2016-04-17T10:47:48.923Z</time>
      </trkpt>
      <trkpt lat="43.33197" lon="3.57215">
        <ele>52</ele>
        <time>2016-04-17T10:47:48.967Z</time>
      </trkpt>
      <trkpt lat="43.33196" lon="3.57216">
        <ele>51</ele>
        <time>2016-04-17T10:47:49.922Z</time>
      </trkpt>
      <trkpt lat="43.33193" lon="3.57226">
        <ele>50</ele>
        <time>2016-04-17T10:48:03.948Z</time>
      </trkpt>
      <trkpt lat="43.33194" lon="3.57228">
        <ele>50</ele>
        <time>2016-04-17T10:48:04.923Z</time>
      </trkpt>
      <trkpt lat="43.33194" lon="3.57229">
        <ele>51</ele>
        <time>2016-04-17T10:48:07.948Z</time>
      </trkpt>
      <trkpt lat="43.33194" lon="3.57228">
        <ele>51</ele>
        <time>2016-04-17T10:48:08.922Z</time>
      </trkpt>
      <trkpt lat="43.33194" lon="3.57228">
        <ele>51</ele>
        <time>2016-04-17T10:48:09.948Z</time>
      </trkpt>
      <trkpt lat="43.33194" lon="3.57228">
        <ele>51</ele>
        <time>2016-04-17T10:48:10.920Z</time>
      </trkpt>
      <trkpt lat="43.33194" lon="3.57229">
        <ele>50</ele>
        <time>2016-04-17T10:48:27.948Z</time>
      </trkpt>
      <trkpt lat="43.33195" lon="3.57229">
        <ele>50</ele>
        <time>2016-04-17T10:48:28.921Z</time>
      </trkpt>
      <trkpt lat="43.33195" lon="3.57229">
        <ele>50</ele>
        <time>2016-04-17T10:48:28.970Z</time>
      </trkpt>
      <trkpt lat="43.33194" lon="3.57229">
        <ele>50</ele>
        <time>2016-04-17T10:48:29.956Z</time>
      </trkpt>
      <trkpt lat="43.33195" lon="3.57229">
        <ele>50</ele>
        <time>2016-04-17T10:48:36.016Z</time>
      </trkpt>
      <trkpt lat="43.33194" lon="3.57229">
        <ele>50</ele>
        <time>2016-04-17T10:48:36.917Z</time>
      </trkpt>
      <trkpt lat="43.33195" lon="3.57229">
        <ele>50</ele>
        <time>2016-04-17T10:48:52.947Z</time>
      </trkpt>
      <trkpt lat="43.33195" lon="3.57229">
        <ele>50</ele>
        <time>2016-04-17T10:48:54.071Z</time>
      </trkpt>
      <trkpt lat="43.33197" lon="3.57229">
        <ele>51</ele>
        <time>2016-04-17T10:49:52.945Z</time>
      </trkpt>
      <trkpt lat="43.33197" lon="3.57229">
        <ele>51</ele>
        <time>2016-04-17T10:49:53.922Z</time>
      </trkpt>
      <trkpt lat="43.33197" lon="3.57229">
        <ele>51</ele>
        <time>2016-04-17T10:49:53.972Z</time>
      </trkpt>
      <trkpt lat="43.33197" lon="3.57229">
        <ele>51</ele>
        <time>2016-04-17T10:49:54.922Z</time>
      </trkpt>
      <trkpt lat="43.33198" lon="3.57228">
        <ele>51</ele>
        <time>2016-04-17T10:49:57.946Z</time>
      </trkpt>
      <trkpt lat="43.33198" lon="3.57229">
        <ele>51</ele>
        <time>2016-04-17T10:49:58.922Z</time>
      </trkpt>
      <trkpt lat="43.33198" lon="3.57229">
        <ele>51</ele>
        <time>2016-04-17T10:49:58.953Z</time>
      </trkpt>
      <trkpt lat="43.33197" lon="3.5723">
        <ele>51</ele>
        <time>2016-04-17T10:49:59.921Z</time>
      </trkpt>
      <trkpt lat="43.33191" lon="3.57239">
        <ele>54</ele>
        <time>2016-04-17T10:50:26.951Z</time>
      </trkpt>
      <trkpt lat="43.3319" lon="3.5724">
        <ele>52</ele>
        <time>2016-04-17T10:50:27.920Z</time>
      </trkpt>
      <trkpt lat="43.33186" lon="3.57247">
        <ele>53</ele>
        <time>2016-04-17T10:50:32.942Z</time>
      </trkpt>
      <trkpt lat="43.33183" lon="3.57248">
        <ele>53</ele>
        <time>2016-04-17T10:50:33.923Z</time>
      </trkpt>
      <trkpt lat="43.33176" lon="3.57253">
        <ele>52</ele>
        <time>2016-04-17T10:50:39.942Z</time>
      </trkpt>
      <trkpt lat="43.33174" lon="3.57255">
        <ele>52</ele>
        <time>2016-04-17T10:50:40.918Z</time>
      </trkpt>
      <trkpt lat="43.33166" lon="3.57258">
        <ele>53</ele>
        <time>2016-04-17T10:50:48.946Z</time>
      </trkpt>
      <trkpt lat="43.33164" lon="3.57258">
        <ele>53</ele>
        <time>2016-04-17T10:50:49.919Z</time>
      </trkpt>
      <trkpt lat="43.33167" lon="3.57265">
        <ele>52</ele>
        <time>2016-04-17T10:51:11.954Z</time>
      </trkpt>
      <trkpt lat="43.33167" lon="3.57265">
        <ele>52</ele>
        <time>2016-04-17T10:51:12.933Z</time>
      </trkpt>
      <trkpt lat="43.33167" lon="3.57266">
        <ele>50</ele>
        <time>2016-04-17T10:51:20.012Z</time>
      </trkpt>
      <trkpt lat="43.33167" lon="3.57267">
        <ele>50</ele>
        <time>2016-04-17T10:51:20.919Z</time>
      </trkpt>
      <trkpt lat="43.33167" lon="3.57265">
        <ele>49</ele>
        <time>2016-04-17T10:52:13.957Z</time>
      </trkpt>
      <trkpt lat="43.33168" lon="3.57264">
        <ele>50</ele>
        <time>2016-04-17T10:52:14.920Z</time>
      </trkpt>
      <trkpt lat="43.33168" lon="3.57266">
        <ele>50</ele>
        <time>2016-04-17T10:52:19.950Z</time>
      </trkpt>
      <trkpt lat="43.33168" lon="3.57267">
        <ele>50</ele>
        <time>2016-04-17T10:52:20.919Z</time>
      </trkpt>
      <trkpt lat="43.33168" lon="3.57268">
        <ele>49</ele>
        <time>2016-04-17T10:52:29.980Z</time>
      </trkpt>
      <trkpt lat="43.33168" lon="3.57268">
        <ele>49</ele>
        <time>2016-04-17T10:52:30.921Z</time>
      </trkpt>
      <trkpt lat="43.33168" lon="3.57268">
        <ele>49</ele>
        <time>2016-04-17T10:52:30.956Z</time>
      </trkpt>
      <trkpt lat="43.33168" lon="3.57269">
        <ele>50</ele>
        <time>2016-04-17T10:52:31.921Z</time>
      </trkpt>
      <trkpt lat="43.33168" lon="3.57269">
        <ele>50</ele>
        <time>2016-04-17T10:52:31.968Z</time>
      </trkpt>
      <trkpt lat="43.33168" lon="3.57268">
        <ele>50</ele>
        <time>2016-04-17T10:52:32.920Z</time>
      </trkpt>
      <trkpt lat="43.33167" lon="3.5727">
        <ele>49</ele>
        <time>2016-04-17T10:52:40.949Z</time>
      </trkpt>
      <trkpt lat="43.33167" lon="3.5727">
        <ele>49</ele>
        <time>2016-04-17T10:52:41.918Z</time>
      </trkpt>
      <trkpt lat="43.33173" lon="3.57261">
        <ele>45</ele>
        <time>2016-04-17T10:52:50.948Z</time>
      </trkpt>
      <trkpt lat="43.33174" lon="3.5726">
        <ele>45</ele>
        <time>2016-04-17T10:52:51.922Z</time>
      </trkpt>
      <trkpt lat="43.33182" lon="3.57259">
        <ele>52</ele>
        <time>2016-04-17T10:53:01.950Z</time>
      </trkpt>
      <trkpt lat="43.33183" lon="3.57258">
        <ele>51</ele>
        <time>2016-04-17T10:53:02.921Z</time>
      </trkpt>
      <trkpt lat="43.33188" lon="3.57248">
        <ele>52</ele>
        <time>2016-04-17T10:53:15.953Z</time>
      </trkpt>
      <trkpt lat="43.33189" lon="3.57246">
        <ele>52</ele>
        <time>2016-04-17T10:53:16.922Z</time>
      </trkpt>
      <trkpt lat="43.33194" lon="3.57237">
        <ele>55</ele>
        <time>2016-04-17T10:53:24.950Z</time>
      </trkpt>
      <trkpt lat="43.33194" lon="3.57237">
        <ele>54</ele>
        <time>2016-04-17T10:53:25.921Z</time>
      </trkpt>
      <trkpt lat="43.33194" lon="3.57236">
        <ele>56</ele>
        <time>2016-04-17T10:53:29.991Z</time>
      </trkpt>
      <trkpt lat="43.33194" lon="3.57237">
        <ele>56</ele>
        <time>2016-04-17T10:53:30.922Z</time>
      </trkpt>
      <trkpt lat="43.33195" lon="3.57237">
        <ele>55</ele>
        <time>2016-04-17T10:53:32.086Z</time>
      </trkpt>
      <trkpt lat="43.33195" lon="3.57237">
        <ele>54</ele>
        <time>2016-04-17T10:53:32.922Z</time>
      </trkpt>
      <trkpt lat="43.33195" lon="3.57237">
        <ele>54</ele>
        <time>2016-04-17T10:53:33.950Z</time>
      </trkpt>
      <trkpt lat="43.33195" lon="3.57237">
        <ele>54</ele>
        <time>2016-04-17T10:53:34.921Z</time>
      </trkpt>
      <trkpt lat="43.33194" lon="3.57236">
        <ele>54</ele>
        <time>2016-04-17T10:53:39.950Z</time>
      </trkpt>
      <trkpt lat="43.33194" lon="3.57235">
        <ele>55</ele>
        <time>2016-04-17T10:53:40.922Z</time>
      </trkpt>
      <trkpt lat="43.33192" lon="3.57237">
        <ele>53</ele>
        <time>2016-04-17T10:55:11.951Z</time>
      </trkpt>
      <trkpt lat="43.33191" lon="3.57237">
        <ele>53</ele>
        <time>2016-04-17T10:55:12.922Z</time>
      </trkpt>
      <trkpt lat="43.33191" lon="3.57236">
        <ele>53</ele>
        <time>2016-04-17T10:55:36.950Z</time>
      </trkpt>
      <trkpt lat="43.33192" lon="3.57235">
        <ele>53</ele>
        <time>2016-04-17T10:55:37.921Z</time>
      </trkpt>
      <trkpt lat="43.33192" lon="3.57235">
        <ele>53</ele>
        <time>2016-04-17T10:55:37.956Z</time>
      </trkpt>
      <trkpt lat="43.33192" lon="3.57234">
        <ele>53</ele>
        <time>2016-04-17T10:55:38.923Z</time>
      </trkpt>
      <trkpt lat="43.33192" lon="3.57234">
        <ele>53</ele>
        <time>2016-04-17T10:55:38.967Z</time>
      </trkpt>
      <trkpt lat="43.33192" lon="3.57233">
        <ele>54</ele>
        <time>2016-04-17T10:55:39.921Z</time>
      </trkpt>
      <trkpt lat="43.33193" lon="3.57236">
        <ele>53</ele>
        <time>2016-04-17T10:59:51.951Z</time>
      </trkpt>
      <trkpt lat="43.33193" lon="3.57236">
        <ele>53</ele>
        <time>2016-04-17T10:59:52.925Z</time>
      </trkpt>
      <trkpt lat="43.33194" lon="3.57231">
        <ele>53</ele>
        <time>2016-04-17T11:00:07.943Z</time>
      </trkpt>
      <trkpt lat="43.33194" lon="3.5723">
        <ele>52</ele>
        <time>2016-04-17T11:00:08.924Z</time>
      </trkpt>
      <trkpt lat="43.33195" lon="3.57231">
        <ele>51</ele>
        <time>2016-04-17T11:01:11.952Z</time>
      </trkpt>
      <trkpt lat="43.33195" lon="3.57232">
        <ele>51</ele>
        <time>2016-04-17T11:01:12.923Z</time>
      </trkpt>
      <trkpt lat="43.33195" lon="3.57234">
        <ele>52</ele>
        <time>2016-04-17T11:07:04.944Z</time>
      </trkpt>
      <trkpt lat="43.33195" lon="3.57233">
        <ele>52</ele>
        <time>2016-04-17T11:07:05.922Z</time>
      </trkpt>
      <trkpt lat="43.33194" lon="3.57233">
        <ele>54</ele>
        <time>2016-04-17T11:14:22.945Z</time>
      </trkpt>
      <trkpt lat="43.33194" lon="3.57234">
        <ele>54</ele>
        <time>2016-04-17T11:14:23.924Z</time>
      </trkpt>
      <trkpt lat="43.33193" lon="3.57234">
        <ele>52</ele>
        <time>2016-04-17T11:16:39.952Z</time>
      </trkpt>
      <trkpt lat="43.33193" lon="3.57233">
        <ele>51</ele>
        <time>2016-04-17T11:16:40.948Z</time>
      </trkpt>
      <trkpt lat="43.33196" lon="3.57229">
        <ele>49</ele>
        <time>2016-04-17T11:27:41.952Z</time>
      </trkpt>
      <trkpt lat="43.33196" lon="3.57228">
        <ele>48</ele>
        <time>2016-04-17T11:27:42.923Z</time>
      </trkpt>
      <trkpt lat="43.33195" lon="3.57226">
        <ele>53</ele>
        <time>2016-04-17T11:27:47.951Z</time>
      </trkpt>
      <trkpt lat="43.33195" lon="3.57226">
        <ele>53</ele>
        <time>2016-04-17T11:27:48.923Z</time>
      </trkpt>
      <trkpt lat="43.33193" lon="3.57228">
        <ele>43</ele>
        <time>2016-04-17T11:36:10.953Z</time>
      </trkpt>
      <trkpt lat="43.33193" lon="3.57228">
        <ele>42</ele>
        <time>2016-04-17T11:36:11.924Z</time>
      </trkpt>
      <trkpt lat="43.33194" lon="3.57228">
        <ele>37</ele>
        <time>2016-04-17T11:37:13.020Z</time>
      </trkpt>
      <trkpt lat="43.33194" lon="3.57228">
        <ele>37</ele>
        <time>2016-04-17T11:37:13.926Z</time>
      </trkpt>
      <trkpt lat="43.33194" lon="3.57228">
        <ele>35</ele>
        <time>2016-04-17T11:38:55.953Z</time>
      </trkpt>
      <trkpt lat="43.33194" lon="3.57228">
        <ele>34</ele>
        <time>2016-04-17T11:38:56.923Z</time>
      </trkpt>
      <trkpt lat="43.33193" lon="3.57228">
        <ele>33</ele>
        <time>2016-04-17T11:39:01.953Z</time>
      </trkpt>
      <trkpt lat="43.33193" lon="3.57229">
        <ele>33</ele>
        <time>2016-04-17T11:39:02.924Z</time>
      </trkpt>
      <trkpt lat="43.33192" lon="3.57224">
        <ele>32</ele>
        <time>2016-04-17T11:40:55.951Z</time>
      </trkpt>
      <trkpt lat="43.33192" lon="3.57224">
        <ele>32</ele>
        <time>2016-04-17T11:40:56.923Z</time>
      </trkpt>
      <trkpt lat="43.33191" lon="3.57224">
        <ele>32</ele>
        <time>2016-04-17T11:41:12.953Z</time>
      </trkpt>
      <trkpt lat="43.33192" lon="3.57224">
        <ele>32</ele>
        <time>2016-04-17T11:41:13.925Z</time>
      </trkpt>
      <trkpt lat="43.33193" lon="3.57225">
        <ele>32</ele>
        <time>2016-04-17T11:41:36.081Z</time>
      </trkpt>
      <trkpt lat="43.33194" lon="3.57225">
        <ele>32</ele>
        <time>2016-04-17T11:41:36.924Z</time>
      </trkpt>
      <trkpt lat="43.33193" lon="3.57224">
        <ele>30</ele>
        <time>2016-04-17T11:42:17.952Z</time>
      </trkpt>
      <trkpt lat="43.33193" lon="3.57224">
        <ele>31</ele>
        <time>2016-04-17T11:42:18.950Z</time>
      </trkpt>
      <trkpt lat="43.33191" lon="3.57227">
        <ele>32</ele>
        <time>2016-04-17T11:44:34.952Z</time>
      </trkpt>
      <trkpt lat="43.3319" lon="3.57227">
        <ele>32</ele>
        <time>2016-04-17T11:44:35.924Z</time>
      </trkpt>
      <trkpt lat="43.33191" lon="3.57225">
        <ele>34</ele>
        <time>2016-04-17T11:45:49.952Z</time>
      </trkpt>
      <trkpt lat="43.33191" lon="3.57224">
        <ele>33</ele>
        <time>2016-04-17T11:45:50.925Z</time>
      </trkpt>
      <trkpt lat="43.33192" lon="3.57227">
        <ele>36</ele>
        <time>2016-04-17T11:47:08.969Z</time>
      </trkpt>
      <trkpt lat="43.33192" lon="3.57228">
        <ele>36</ele>
        <time>2016-04-17T11:47:09.928Z</time>
      </trkpt>
      <trkpt lat="43.33192" lon="3.57229">
        <ele>36</ele>
        <time>2016-04-17T11:50:03.088Z</time>
      </trkpt>
      <trkpt lat="43.33192" lon="3.57229">
        <ele>35</ele>
        <time>2016-04-17T11:50:03.925Z</time>
      </trkpt>
      <trkpt lat="43.33193" lon="3.57227">
        <ele>36</ele>
        <time>2016-04-17T11:50:44.981Z</time>
      </trkpt>
      <trkpt lat="43.33193" lon="3.57227">
        <ele>36</ele>
        <time>2016-04-17T11:50:45.926Z</time>
      </trkpt>
      <trkpt lat="43.33192" lon="3.57225">
        <ele>33</ele>
        <time>2016-04-17T11:51:05.957Z</time>
      </trkpt>
      <trkpt lat="43.33193" lon="3.57225">
        <ele>34</ele>
        <time>2016-04-17T11:51:06.950Z</time>
      </trkpt>
      <trkpt lat="43.33193" lon="3.57225">
        <ele>34</ele>
        <time>2016-04-17T11:51:13.953Z</time>
      </trkpt>
      <trkpt lat="43.33193" lon="3.57225">
        <ele>34</ele>
        <time>2016-04-17T11:51:14.925Z</time>
      </trkpt>
      <trkpt lat="43.33194" lon="3.57225">
        <ele>37</ele>
        <time>2016-04-17T11:51:27.968Z</time>
      </trkpt>
      <trkpt lat="43.33193" lon="3.57226">
        <ele>37</ele>
        <time>2016-04-17T11:51:28.926Z</time>
      </trkpt>
      <trkpt lat="43.33194" lon="3.57228">
        <ele>44</ele>
        <time>2016-04-17T11:53:13.953Z</time>
      </trkpt>
      <trkpt lat="43.33194" lon="3.57229">
        <ele>44</ele>
        <time>2016-04-17T11:53:14.925Z</time>
      </trkpt>
      <trkpt lat="43.33195" lon="3.57224">
        <ele>40</ele>
        <time>2016-04-17T11:53:27.952Z</time>
      </trkpt>
      <trkpt lat="43.33195" lon="3.57224">
        <ele>39</ele>
        <time>2016-04-17T11:53:28.923Z</time>
      </trkpt>
      <trkpt lat="43.33194" lon="3.57227">
        <ele>40</ele>
        <time>2016-04-17T11:54:23.959Z</time>
      </trkpt>
      <trkpt lat="43.33194" lon="3.57227">
        <ele>39</ele>
        <time>2016-04-17T11:54:24.923Z</time>
      </trkpt>
      <trkpt lat="43.33192" lon="3.57229">
        <ele>39</ele>
        <time>2016-04-17T11:56:29.950Z</time>
      </trkpt>
      <trkpt lat="43.33192" lon="3.57229">
        <ele>40</ele>
        <time>2016-04-17T11:56:30.927Z</time>
      </trkpt>
      <trkpt lat="43.33194" lon="3.57234">
        <ele>44</ele>
        <time>2016-04-17T12:00:47.953Z</time>
      </trkpt>
      <trkpt lat="43.33194" lon="3.57233">
        <ele>45</ele>
        <time>2016-04-17T12:00:48.926Z</time>
      </trkpt>
      <trkpt lat="43.33194" lon="3.57233">
        <ele>45</ele>
        <time>2016-04-17T12:00:48.971Z</time>
      </trkpt>
      <trkpt lat="43.33194" lon="3.57233">
        <ele>46</ele>
        <time>2016-04-17T12:00:49.926Z</time>
      </trkpt>
      <trkpt lat="43.33192" lon="3.57233">
        <ele>46</ele>
        <time>2016-04-17T12:01:05.954Z</time>
      </trkpt>
      <trkpt lat="43.33193" lon="3.57233">
        <ele>46</ele>
        <time>2016-04-17T12:01:06.926Z</time>
      </trkpt>
      <trkpt lat="43.33193" lon="3.57233">
        <ele>46</ele>
        <time>2016-04-17T12:01:06.967Z</time>
      </trkpt>
      <trkpt lat="43.33193" lon="3.57233">
        <ele>45</ele>
        <time>2016-04-17T12:01:07.925Z</time>
      </trkpt>
      <trkpt lat="43.33193" lon="3.57232">
        <ele>44</ele>
        <time>2016-04-17T12:01:27.953Z</time>
      </trkpt>
      <trkpt lat="43.33193" lon="3.57232">
        <ele>45</ele>
        <time>2016-04-17T12:01:28.927Z</time>
      </trkpt>
      <trkpt lat="43.33193" lon="3.57231">
        <ele>46</ele>
        <time>2016-04-17T12:01:43.951Z</time>
      </trkpt>
      <trkpt lat="43.33194" lon="3.57231">
        <ele>46</ele>
        <time>2016-04-17T12:01:44.927Z</time>
      </trkpt>
      <trkpt lat="43.33195" lon="3.5723">
        <ele>46</ele>
        <time>2016-04-17T12:02:05.952Z</time>
      </trkpt>
      <trkpt lat="43.33196" lon="3.5723">
        <ele>46</ele>
        <time>2016-04-17T12:02:06.926Z</time>
      </trkpt>
      <trkpt lat="43.33197" lon="3.5723">
        <ele>46</ele>
        <time>2016-04-17T12:02:23.954Z</time>
      </trkpt>
      <trkpt lat="43.33197" lon="3.5723">
        <ele>46</ele>
        <time>2016-04-17T12:02:24.926Z</time>
      </trkpt>
      <trkpt lat="43.33195" lon="3.5723">
        <ele>47</ele>
        <time>2016-04-17T12:03:41.955Z</time>
      </trkpt>
      <trkpt lat="43.33195" lon="3.5723">
        <ele>47</ele>
        <time>2016-04-17T12:03:42.929Z</time>
      </trkpt>
      <trkpt lat="43.33195" lon="3.57229">
        <ele>46</ele>
        <time>2016-04-17T12:03:46.954Z</time>
      </trkpt>
      <trkpt lat="43.33195" lon="3.57228">
        <ele>46</ele>
        <time>2016-04-17T12:03:47.926Z</time>
      </trkpt>
      <trkpt lat="43.33195" lon="3.57228">
        <ele>46</ele>
        <time>2016-04-17T12:03:47.967Z</time>
      </trkpt>
      <trkpt lat="43.33195" lon="3.57228">
        <ele>46</ele>
        <time>2016-04-17T12:03:49.078Z</time>
      </trkpt>
      <trkpt lat="43.33195" lon="3.57228">
        <ele>46</ele>
        <time>2016-04-17T12:03:49.093Z</time>
      </trkpt>
      <trkpt lat="43.33195" lon="3.57228">
        <ele>46</ele>
        <time>2016-04-17T12:03:49.927Z</time>
      </trkpt>
      <trkpt lat="43.33197" lon="3.57226">
        <ele>45</ele>
        <time>2016-04-17T12:03:59.982Z</time>
      </trkpt>
      <trkpt lat="43.33197" lon="3.57226">
        <ele>45</ele>
        <time>2016-04-17T12:04:00.926Z</time>
      </trkpt>
      <trkpt lat="43.33197" lon="3.57227">
        <ele>45</ele>
        <time>2016-04-17T12:04:02.954Z</time>
      </trkpt>
      <trkpt lat="43.33196" lon="3.57227">
        <ele>44</ele>
        <time>2016-04-17T12:04:03.927Z</time>
      </trkpt>
      <trkpt lat="43.33196" lon="3.57226">
        <ele>43</ele>
        <time>2016-04-17T12:04:05.953Z</time>
      </trkpt>
      <trkpt lat="43.33196" lon="3.57226">
        <ele>44</ele>
        <time>2016-04-17T12:04:06.925Z</time>
      </trkpt>
      <trkpt lat="43.33195" lon="3.57227">
        <ele>44</ele>
        <time>2016-04-17T12:04:11.953Z</time>
      </trkpt>
      <trkpt lat="43.33194" lon="3.57227">
        <ele>44</ele>
        <time>2016-04-17T12:04:12.925Z</time>
      </trkpt>
      <trkpt lat="43.33195" lon="3.57215">
        <ele>49</ele>
        <time>2016-04-17T12:04:53.948Z</time>
      </trkpt>
      <trkpt lat="43.33195" lon="3.57214">
        <ele>49</ele>
        <time>2016-04-17T12:04:54.928Z</time>
      </trkpt>
      <trkpt lat="43.33202" lon="3.57206">
        <ele>47</ele>
        <time>2016-04-17T12:05:05.949Z</time>
      </trkpt>
      <trkpt lat="43.33203" lon="3.57205">
        <ele>47</ele>
        <time>2016-04-17T12:05:06.927Z</time>
      </trkpt>
      <trkpt lat="43.33203" lon="3.57205">
        <ele>48</ele>
        <time>2016-04-17T12:06:05.955Z</time>
      </trkpt>
      <trkpt lat="43.33203" lon="3.57206">
        <ele>48</ele>
        <time>2016-04-17T12:06:06.926Z</time>
      </trkpt>
      <trkpt lat="43.33204" lon="3.57206">
        <ele>48</ele>
        <time>2016-04-17T12:06:08.954Z</time>
      </trkpt>
      <trkpt lat="43.33204" lon="3.57206">
        <ele>48</ele>
        <time>2016-04-17T12:06:09.926Z</time>
      </trkpt>
      <trkpt lat="43.33205" lon="3.57206">
        <ele>46</ele>
        <time>2016-04-17T12:06:33.952Z</time>
      </trkpt>
      <trkpt lat="43.33206" lon="3.57206">
        <ele>46</ele>
        <time>2016-04-17T12:06:34.926Z</time>
      </trkpt>
      <trkpt lat="43.33206" lon="3.57206">
        <ele>46</ele>
        <time>2016-04-17T12:06:50.953Z</time>
      </trkpt>
      <trkpt lat="43.33206" lon="3.57206">
        <ele>46</ele>
        <time>2016-04-17T12:06:51.925Z</time>
      </trkpt>
      <trkpt lat="43.33207" lon="3.57209">
        <ele>45</ele>
        <time>2016-04-17T12:07:05.954Z</time>
      </trkpt>
      <trkpt lat="43.33207" lon="3.57209">
        <ele>46</ele>
        <time>2016-04-17T12:07:06.926Z</time>
      </trkpt>
      <trkpt lat="43.33207" lon="3.57209">
        <ele>46</ele>
        <time>2016-04-17T12:07:11.951Z</time>
      </trkpt>
      <trkpt lat="43.33207" lon="3.57208">
        <ele>47</ele>
        <time>2016-04-17T12:07:12.926Z</time>
      </trkpt>
      <trkpt lat="43.33214" lon="3.57215">
        <ele>49</ele>
        <time>2016-04-17T12:07:28.958Z</time>
      </trkpt>
      <trkpt lat="43.33215" lon="3.57217">
        <ele>50</ele>
        <time>2016-04-17T12:07:29.927Z</time>
      </trkpt>
      <trkpt lat="43.33222" lon="3.57225">
        <ele>50</ele>
        <time>2016-04-17T12:07:35.009Z</time>
      </trkpt>
      <trkpt lat="43.33223" lon="3.57225">
        <ele>51</ele>
        <time>2016-04-17T12:07:35.925Z</time>
      </trkpt>
      <trkpt lat="43.33228" lon="3.57234">
        <ele>52</ele>
        <time>2016-04-17T12:07:39.952Z</time>
      </trkpt>
      <trkpt lat="43.33229" lon="3.57235">
        <ele>53</ele>
        <time>2016-04-17T12:07:40.925Z</time>
      </trkpt>
      <trkpt lat="43.33236" lon="3.57242">
        <ele>54</ele>
        <time>2016-04-17T12:07:44.953Z</time>
      </trkpt>
      <trkpt lat="43.33238" lon="3.57244">
        <ele>54</ele>
        <time>2016-04-17T12:07:45.926Z</time>
      </trkpt>
      <trkpt lat="43.33244" lon="3.57251">
        <ele>57</ele>
        <time>2016-04-17T12:07:48.946Z</time>
      </trkpt>
      <trkpt lat="43.33247" lon="3.57256">
        <ele>55</ele>
        <time>2016-04-17T12:07:49.926Z</time>
      </trkpt>
      <trkpt lat="43.33253" lon="3.57262">
        <ele>56</ele>
        <time>2016-04-17T12:07:51.951Z</time>
      </trkpt>
      <trkpt lat="43.33257" lon="3.57267">
        <ele>55</ele>
        <time>2016-04-17T12:07:52.926Z</time>
      </trkpt>
      <trkpt lat="43.33261" lon="3.57275">
        <ele>55</ele>
        <time>2016-04-17T12:07:54.955Z</time>
      </trkpt>
      <trkpt lat="43.33263" lon="3.57278">
        <ele>56</ele>
        <time>2016-04-17T12:07:55.925Z</time>
      </trkpt>
      <trkpt lat="43.33268" lon="3.57283">
        <ele>56</ele>
        <time>2016-04-17T12:07:57.955Z</time>
      </trkpt>
      <trkpt lat="43.33271" lon="3.57286">
        <ele>56</ele>
        <time>2016-04-17T12:07:58.926Z</time>
      </trkpt>
      <trkpt lat="43.33276" lon="3.57292">
        <ele>57</ele>
        <time>2016-04-17T12:08:00.929Z</time>
      </trkpt>
      <trkpt lat="43.33278" lon="3.57297">
        <ele>56</ele>
        <time>2016-04-17T12:08:01.927Z</time>
      </trkpt>
      <trkpt lat="43.33283" lon="3.57302">
        <ele>57</ele>
        <time>2016-04-17T12:08:03.958Z</time>
      </trkpt>
      <trkpt lat="43.33285" lon="3.57305">
        <ele>58</ele>
        <time>2016-04-17T12:08:04.921Z</time>
      </trkpt>
      <trkpt lat="43.33292" lon="3.57311">
        <ele>56</ele>
        <time>2016-04-17T12:08:06.957Z</time>
      </trkpt>
      <trkpt lat="43.33294" lon="3.57314">
        <ele>55</ele>
        <time>2016-04-17T12:08:07.925Z</time>
      </trkpt>
      <trkpt lat="43.33298" lon="3.57319">
        <ele>55</ele>
        <time>2016-04-17T12:08:09.953Z</time>
      </trkpt>
      <trkpt lat="43.33301" lon="3.57322">
        <ele>55</ele>
        <time>2016-04-17T12:08:10.922Z</time>
      </trkpt>
      <trkpt lat="43.33306" lon="3.57328">
        <ele>54</ele>
        <time>2016-04-17T12:08:12.957Z</time>
      </trkpt>
      <trkpt lat="43.33308" lon="3.57331">
        <ele>54</ele>
        <time>2016-04-17T12:08:13.925Z</time>
      </trkpt>
      <trkpt lat="43.33315" lon="3.57338">
        <ele>54</ele>
        <time>2016-04-17T12:08:15.952Z</time>
      </trkpt>
      <trkpt lat="43.33318" lon="3.5734">
        <ele>53</ele>
        <time>2016-04-17T12:08:16.926Z</time>
      </trkpt>
      <trkpt lat="43.33322" lon="3.57344">
        <ele>54</ele>
        <time>2016-04-17T12:08:18.952Z</time>
      </trkpt>
      <trkpt lat="43.33324" lon="3.57348">
        <ele>53</ele>
        <time>2016-04-17T12:08:19.926Z</time>
      </trkpt>
      <trkpt lat="43.33331" lon="3.57356">
        <ele>53</ele>
        <time>2016-04-17T12:08:22.944Z</time>
      </trkpt>
      <trkpt lat="43.33333" lon="3.57358">
        <ele>52</ele>
        <time>2016-04-17T12:08:23.925Z</time>
      </trkpt>
      <trkpt lat="43.33339" lon="3.57366">
        <ele>52</ele>
        <time>2016-04-17T12:08:27.954Z</time>
      </trkpt>
      <trkpt lat="43.33341" lon="3.57368">
        <ele>52</ele>
        <time>2016-04-17T12:08:28.926Z</time>
      </trkpt>
      <trkpt lat="43.33348" lon="3.57376">
        <ele>52</ele>
        <time>2016-04-17T12:08:31.952Z</time>
      </trkpt>
      <trkpt lat="43.33349" lon="3.57378">
        <ele>53</ele>
        <time>2016-04-17T12:08:32.926Z</time>
      </trkpt>
      <trkpt lat="43.33354" lon="3.57385">
        <ele>55</ele>
        <time>2016-04-17T12:08:35.954Z</time>
      </trkpt>
      <trkpt lat="43.33356" lon="3.57387">
        <ele>55</ele>
        <time>2016-04-17T12:08:36.950Z</time>
      </trkpt>
      <trkpt lat="43.33363" lon="3.57393">
        <ele>55</ele>
        <time>2016-04-17T12:08:39.953Z</time>
      </trkpt>
      <trkpt lat="43.33365" lon="3.57398">
        <ele>53</ele>
        <time>2016-04-17T12:08:40.927Z</time>
      </trkpt>
      <trkpt lat="43.33371" lon="3.57404">
        <ele>52</ele>
        <time>2016-04-17T12:08:42.952Z</time>
      </trkpt>
      <trkpt lat="43.33374" lon="3.57407">
        <ele>51</ele>
        <time>2016-04-17T12:08:43.927Z</time>
      </trkpt>
      <trkpt lat="43.33378" lon="3.57414">
        <ele>49</ele>
        <time>2016-04-17T12:08:45.958Z</time>
      </trkpt>
      <trkpt lat="43.3338" lon="3.57417">
        <ele>48</ele>
        <time>2016-04-17T12:08:46.924Z</time>
      </trkpt>
      <trkpt lat="43.33385" lon="3.57422">
        <ele>48</ele>
        <time>2016-04-17T12:08:48.954Z</time>
      </trkpt>
      <trkpt lat="43.33388" lon="3.57425">
        <ele>47</ele>
        <time>2016-04-17T12:08:49.929Z</time>
      </trkpt>
      <trkpt lat="43.33393" lon="3.57431">
        <ele>45</ele>
        <time>2016-04-17T12:08:51.952Z</time>
      </trkpt>
      <trkpt lat="43.33395" lon="3.57435">
        <ele>45</ele>
        <time>2016-04-17T12:08:52.929Z</time>
      </trkpt>
      <trkpt lat="43.334" lon="3.5744">
        <ele>45</ele>
        <time>2016-04-17T12:08:54.953Z</time>
      </trkpt>
      <trkpt lat="43.33403" lon="3.57443">
        <ele>45</ele>
        <time>2016-04-17T12:08:55.927Z</time>
      </trkpt>
      <trkpt lat="43.33408" lon="3.57448">
        <ele>47</ele>
        <time>2016-04-17T12:08:57.967Z</time>
      </trkpt>
      <trkpt lat="43.33411" lon="3.57451">
        <ele>47</ele>
        <time>2016-04-17T12:08:58.927Z</time>
      </trkpt>
      <trkpt lat="43.33417" lon="3.57457">
        <ele>49</ele>
        <time>2016-04-17T12:09:01.953Z</time>
      </trkpt>
      <trkpt lat="43.33419" lon="3.5746">
        <ele>48</ele>
        <time>2016-04-17T12:09:02.927Z</time>
      </trkpt>
      <trkpt lat="43.33425" lon="3.57467">
        <ele>47</ele>
        <time>2016-04-17T12:09:05.947Z</time>
      </trkpt>
      <trkpt lat="43.33426" lon="3.5747">
        <ele>48</ele>
        <time>2016-04-17T12:09:06.926Z</time>
      </trkpt>
      <trkpt lat="43.33433" lon="3.57477">
        <ele>49</ele>
        <time>2016-04-17T12:09:11.957Z</time>
      </trkpt>
      <trkpt lat="43.33434" lon="3.57478">
        <ele>50</ele>
        <time>2016-04-17T12:09:13.072Z</time>
      </trkpt>
      <trkpt lat="43.33442" lon="3.57484">
        <ele>49</ele>
        <time>2016-04-17T12:09:16.962Z</time>
      </trkpt>
      <trkpt lat="43.33444" lon="3.57486">
        <ele>49</ele>
        <time>2016-04-17T12:09:17.924Z</time>
      </trkpt>
      <trkpt lat="43.33451" lon="3.57491">
        <ele>49</ele>
        <time>2016-04-17T12:09:21.954Z</time>
      </trkpt>
      <trkpt lat="43.33454" lon="3.57493">
        <ele>49</ele>
        <time>2016-04-17T12:09:22.925Z</time>
      </trkpt>
      <trkpt lat="43.3346" lon="3.57498">
        <ele>51</ele>
        <time>2016-04-17T12:09:25.959Z</time>
      </trkpt>
      <trkpt lat="43.33463" lon="3.57499">
        <ele>51</ele>
        <time>2016-04-17T12:09:26.926Z</time>
      </trkpt>
      <trkpt lat="43.33469" lon="3.57505">
        <ele>53</ele>
        <time>2016-04-17T12:09:30.004Z</time>
      </trkpt>
      <trkpt lat="43.33471" lon="3.57507">
        <ele>53</ele>
        <time>2016-04-17T12:09:30.922Z</time>
      </trkpt>
      <trkpt lat="43.33477" lon="3.57508">
        <ele>52</ele>
        <time>2016-04-17T12:09:34.012Z</time>
      </trkpt>
      <trkpt lat="43.33479" lon="3.5751">
        <ele>52</ele>
        <time>2016-04-17T12:09:34.926Z</time>
      </trkpt>
      <trkpt lat="43.33487" lon="3.57507">
        <ele>53</ele>
        <time>2016-04-17T12:09:38.953Z</time>
      </trkpt>
      <trkpt lat="43.33489" lon="3.57506">
        <ele>52</ele>
        <time>2016-04-17T12:09:39.926Z</time>
      </trkpt>
      <trkpt lat="43.33496" lon="3.57498">
        <ele>50</ele>
        <time>2016-04-17T12:09:43.954Z</time>
      </trkpt>
      <trkpt lat="43.33498" lon="3.57496">
        <ele>49</ele>
        <time>2016-04-17T12:09:44.925Z</time>
      </trkpt>
      <trkpt lat="43.33502" lon="3.57488">
        <ele>51</ele>
        <time>2016-04-17T12:09:47.952Z</time>
      </trkpt>
      <trkpt lat="43.33504" lon="3.57486">
        <ele>51</ele>
        <time>2016-04-17T12:09:48.922Z</time>
      </trkpt>
      <trkpt lat="43.3351" lon="3.57478">
        <ele>51</ele>
        <time>2016-04-17T12:09:51.953Z</time>
      </trkpt>
      <trkpt lat="43.33513" lon="3.57476">
        <ele>49</ele>
        <time>2016-04-17T12:09:52.926Z</time>
      </trkpt>
      <trkpt lat="43.33518" lon="3.57467">
        <ele>49</ele>
        <time>2016-04-17T12:09:55.952Z</time>
      </trkpt>
      <trkpt lat="43.3352" lon="3.57464">
        <ele>48</ele>
        <time>2016-04-17T12:09:56.924Z</time>
      </trkpt>
      <trkpt lat="43.33527" lon="3.57456">
        <ele>48</ele>
        <time>2016-04-17T12:10:00.945Z</time>
      </trkpt>
      <trkpt lat="43.3353" lon="3.57455">
        <ele>48</ele>
        <time>2016-04-17T12:10:01.950Z</time>
      </trkpt>
      <trkpt lat="43.33536" lon="3.5746">
        <ele>48</ele>
        <time>2016-04-17T12:10:06.946Z</time>
      </trkpt>
      <trkpt lat="43.33538" lon="3.57462">
        <ele>48</ele>
        <time>2016-04-17T12:10:07.924Z</time>
      </trkpt>
      <trkpt lat="43.33543" lon="3.57471">
        <ele>49</ele>
        <time>2016-04-17T12:10:10.950Z</time>
      </trkpt>
      <trkpt lat="43.33544" lon="3.57475">
        <ele>49</ele>
        <time>2016-04-17T12:10:11.934Z</time>
      </trkpt>
      <trkpt lat="43.33549" lon="3.57484">
        <ele>47</ele>
        <time>2016-04-17T12:10:14.953Z</time>
      </trkpt>
      <trkpt lat="43.33551" lon="3.57487">
        <ele>46</ele>
        <time>2016-04-17T12:10:15.926Z</time>
      </trkpt>
      <trkpt lat="43.33556" lon="3.57496">
        <ele>46</ele>
        <time>2016-04-17T12:10:18.954Z</time>
      </trkpt>
      <trkpt lat="43.33558" lon="3.57498">
        <ele>46</ele>
        <time>2016-04-17T12:10:19.927Z</time>
      </trkpt>
      <trkpt lat="43.33564" lon="3.57504">
        <ele>46</ele>
        <time>2016-04-17T12:10:22.959Z</time>
      </trkpt>
      <trkpt lat="43.33566" lon="3.57507">
        <ele>46</ele>
        <time>2016-04-17T12:10:23.923Z</time>
      </trkpt>
      <trkpt lat="43.33572" lon="3.57514">
        <ele>45</ele>
        <time>2016-04-17T12:10:26.953Z</time>
      </trkpt>
      <trkpt lat="43.33574" lon="3.57517">
        <ele>44</ele>
        <time>2016-04-17T12:10:27.928Z</time>
      </trkpt>
      <trkpt lat="43.33578" lon="3.57523">
        <ele>46</ele>
        <time>2016-04-17T12:10:29.954Z</time>
      </trkpt>
      <trkpt lat="43.33581" lon="3.57526">
        <ele>48</ele>
        <time>2016-04-17T12:10:30.925Z</time>
      </trkpt>
      <trkpt lat="43.33585" lon="3.57534">
        <ele>48</ele>
        <time>2016-04-17T12:10:32.954Z</time>
      </trkpt>
      <trkpt lat="43.33587" lon="3.57537">
        <ele>48</ele>
        <time>2016-04-17T12:10:33.951Z</time>
      </trkpt>
      <trkpt lat="43.33593" lon="3.57543">
        <ele>47</ele>
        <time>2016-04-17T12:10:36.957Z</time>
      </trkpt>
      <trkpt lat="43.33594" lon="3.57545">
        <ele>48</ele>
        <time>2016-04-17T12:10:37.926Z</time>
      </trkpt>
      <trkpt lat="43.33601" lon="3.57551">
        <ele>48</ele>
        <time>2016-04-17T12:10:40.945Z</time>
      </trkpt>
      <trkpt lat="43.33602" lon="3.57555">
        <ele>47</ele>
        <time>2016-04-17T12:10:41.927Z</time>
      </trkpt>
      <trkpt lat="43.33608" lon="3.57562">
        <ele>47</ele>
        <time>2016-04-17T12:10:44.982Z</time>
      </trkpt>
      <trkpt lat="43.3361" lon="3.57565">
        <ele>48</ele>
        <time>2016-04-17T12:10:45.927Z</time>
      </trkpt>
      <trkpt lat="43.33616" lon="3.57572">
        <ele>49</ele>
        <time>2016-04-17T12:10:48.954Z</time>
      </trkpt>
      <trkpt lat="43.33617" lon="3.57574">
        <ele>48</ele>
        <time>2016-04-17T12:10:49.927Z</time>
      </trkpt>
      <trkpt lat="43.33623" lon="3.57581">
        <ele>48</ele>
        <time>2016-04-17T12:10:52.952Z</time>
      </trkpt>
      <trkpt lat="43.33625" lon="3.57584">
        <ele>49</ele>
        <time>2016-04-17T12:10:53.927Z</time>
      </trkpt>
      <trkpt lat="43.3363" lon="3.57589">
        <ele>49</ele>
        <time>2016-04-17T12:10:56.954Z</time>
      </trkpt>
      <trkpt lat="43.33632" lon="3.57591">
        <ele>48</ele>
        <time>2016-04-17T12:10:57.927Z</time>
      </trkpt>
      <trkpt lat="43.33638" lon="3.57596">
        <ele>48</ele>
        <time>2016-04-17T12:11:01.953Z</time>
      </trkpt>
      <trkpt lat="43.3364" lon="3.57598">
        <ele>48</ele>
        <time>2016-04-17T12:11:02.921Z</time>
      </trkpt>
      <trkpt lat="43.33645" lon="3.57608">
        <ele>47</ele>
        <time>2016-04-17T12:11:05.958Z</time>
      </trkpt>
      <trkpt lat="43.33648" lon="3.57611">
        <ele>46</ele>
        <time>2016-04-17T12:11:06.929Z</time>
      </trkpt>
      <trkpt lat="43.33654" lon="3.57617">
        <ele>49</ele>
        <time>2016-04-17T12:11:11.949Z</time>
      </trkpt>
      <trkpt lat="43.33656" lon="3.57619">
        <ele>48</ele>
        <time>2016-04-17T12:11:12.924Z</time>
      </trkpt>
      <trkpt lat="43.33661" lon="3.57628">
        <ele>52</ele>
        <time>2016-04-17T12:11:16.979Z</time>
      </trkpt>
      <trkpt lat="43.33663" lon="3.5763">
        <ele>52</ele>
        <time>2016-04-17T12:11:17.926Z</time>
      </trkpt>
      <trkpt lat="43.33668" lon="3.57635">
        <ele>52</ele>
        <time>2016-04-17T12:11:20.953Z</time>
      </trkpt>
      <trkpt lat="43.33671" lon="3.57638">
        <ele>50</ele>
        <time>2016-04-17T12:11:21.925Z</time>
      </trkpt>
      <trkpt lat="43.33676" lon="3.57647">
        <ele>50</ele>
        <time>2016-04-17T12:11:24.956Z</time>
      </trkpt>
      <trkpt lat="43.33678" lon="3.57648">
        <ele>52</ele>
        <time>2016-04-17T12:11:25.928Z</time>
      </trkpt>
      <trkpt lat="43.33684" lon="3.57657">
        <ele>51</ele>
        <time>2016-04-17T12:11:28.946Z</time>
      </trkpt>
      <trkpt lat="43.33686" lon="3.5766">
        <ele>51</ele>
        <time>2016-04-17T12:11:29.925Z</time>
      </trkpt>
      <trkpt lat="43.33692" lon="3.57668">
        <ele>51</ele>
        <time>2016-04-17T12:11:32.980Z</time>
      </trkpt>
      <trkpt lat="43.33696" lon="3.57673">
        <ele>50</ele>
        <time>2016-04-17T12:11:33.925Z</time>
      </trkpt>
      <trkpt lat="43.33701" lon="3.57679">
        <ele>48</ele>
        <time>2016-04-17T12:11:35.947Z</time>
      </trkpt>
      <trkpt lat="43.33703" lon="3.57681">
        <ele>48</ele>
        <time>2016-04-17T12:11:36.928Z</time>
      </trkpt>
      <trkpt lat="43.33708" lon="3.5769">
        <ele>48</ele>
        <time>2016-04-17T12:11:40.010Z</time>
      </trkpt>
      <trkpt lat="43.33711" lon="3.57692">
        <ele>51</ele>
        <time>2016-04-17T12:11:40.931Z</time>
      </trkpt>
      <trkpt lat="43.33715" lon="3.577">
        <ele>51</ele>
        <time>2016-04-17T12:11:43.981Z</time>
      </trkpt>
      <trkpt lat="43.33717" lon="3.57702">
        <ele>51</ele>
        <time>2016-04-17T12:11:44.926Z</time>
      </trkpt>
      <trkpt lat="43.33724" lon="3.57708">
        <ele>52</ele>
        <time>2016-04-17T12:11:48.094Z</time>
      </trkpt>
      <trkpt lat="43.33726" lon="3.5771">
        <ele>52</ele>
        <time>2016-04-17T12:11:48.926Z</time>
      </trkpt>
      <trkpt lat="43.33732" lon="3.57717">
        <ele>52</ele>
        <time>2016-04-17T12:11:51.943Z</time>
      </trkpt>
      <trkpt lat="43.33734" lon="3.57721">
        <ele>51</ele>
        <time>2016-04-17T12:11:52.926Z</time>
      </trkpt>
      <trkpt lat="43.33739" lon="3.57728">
        <ele>52</ele>
        <time>2016-04-17T12:11:55.954Z</time>
      </trkpt>
      <trkpt lat="43.3374" lon="3.57731">
        <ele>52</ele>
        <time>2016-04-17T12:11:56.929Z</time>
      </trkpt>
      <trkpt lat="43.33744" lon="3.57741">
        <ele>51</ele>
        <time>2016-04-17T12:11:59.966Z</time>
      </trkpt>
      <trkpt lat="43.33742" lon="3.57743">
        <ele>51</ele>
        <time>2016-04-17T12:12:01.068Z</time>
      </trkpt>
      <trkpt lat="43.33742" lon="3.57732">
        <ele>51</ele>
        <time>2016-04-17T12:12:12.958Z</time>
      </trkpt>
      <trkpt lat="43.33742" lon="3.5773">
        <ele>52</ele>
        <time>2016-04-17T12:12:13.925Z</time>
      </trkpt>
      <trkpt lat="43.33738" lon="3.57724">
        <ele>51</ele>
        <time>2016-04-17T12:12:17.953Z</time>
      </trkpt>
      <trkpt lat="43.33738" lon="3.57724">
        <ele>51</ele>
        <time>2016-04-17T12:12:18.925Z</time>
      </trkpt>
      <trkpt lat="43.33738" lon="3.57724">
        <ele>49</ele>
        <time>2016-04-17T12:12:37.952Z</time>
      </trkpt>
      <trkpt lat="43.33738" lon="3.57725">
        <ele>48</ele>
        <time>2016-04-17T12:12:38.926Z</time>
      </trkpt>
      <trkpt lat="43.33739" lon="3.57722">
        <ele>46</ele>
        <time>2016-04-17T12:12:41.949Z</time>
      </trkpt>
      <trkpt lat="43.33739" lon="3.57722">
        <ele>46</ele>
        <time>2016-04-17T12:12:42.925Z</time>
      </trkpt>
      <trkpt lat="43.3374" lon="3.5772">
        <ele>50</ele>
        <time>2016-04-17T12:12:48.948Z</time>
      </trkpt>
      <trkpt lat="43.33739" lon="3.5772">
        <ele>48</ele>
        <time>2016-04-17T12:12:49.928Z</time>
      </trkpt>
      <trkpt lat="43.33741" lon="3.5773">
        <ele>45</ele>
        <time>2016-04-17T12:12:55.953Z</time>
      </trkpt>
      <trkpt lat="43.33743" lon="3.57733">
        <ele>45</ele>
        <time>2016-04-17T12:12:56.923Z</time>
      </trkpt>
      <trkpt lat="43.33745" lon="3.57745">
        <ele>42</ele>
        <time>2016-04-17T12:13:00.944Z</time>
      </trkpt>
      <trkpt lat="43.33742" lon="3.57748">
        <ele>43</ele>
        <time>2016-04-17T12:13:01.926Z</time>
      </trkpt>
      <trkpt lat="43.33738" lon="3.57758">
        <ele>43</ele>
        <time>2016-04-17T12:13:05.013Z</time>
      </trkpt>
      <trkpt lat="43.33736" lon="3.57761">
        <ele>44</ele>
        <time>2016-04-17T12:13:05.926Z</time>
      </trkpt>
      <trkpt lat="43.33731" lon="3.57769">
        <ele>44</ele>
        <time>2016-04-17T12:13:09.958Z</time>
      </trkpt>
      <trkpt lat="43.3373" lon="3.57772">
        <ele>45</ele>
        <time>2016-04-17T12:13:10.921Z</time>
      </trkpt>
      <trkpt lat="43.33726" lon="3.57779">
        <ele>45</ele>
        <time>2016-04-17T12:13:13.972Z</time>
      </trkpt>
      <trkpt lat="43.33724" lon="3.57782">
        <ele>45</ele>
        <time>2016-04-17T12:13:14.925Z</time>
      </trkpt>
      <trkpt lat="43.33718" lon="3.5779">
        <ele>45</ele>
        <time>2016-04-17T12:13:17.948Z</time>
      </trkpt>
      <trkpt lat="43.33716" lon="3.57791">
        <ele>44</ele>
        <time>2016-04-17T12:13:18.929Z</time>
      </trkpt>
      <trkpt lat="43.3371" lon="3.578">
        <ele>41</ele>
        <time>2016-04-17T12:13:22.949Z</time>
      </trkpt>
      <trkpt lat="43.33709" lon="3.57803">
        <ele>42</ele>
        <time>2016-04-17T12:13:23.929Z</time>
      </trkpt>
      <trkpt lat="43.33707" lon="3.57813">
        <ele>45</ele>
        <time>2016-04-17T12:13:26.954Z</time>
      </trkpt>
      <trkpt lat="43.33709" lon="3.57816">
        <ele>48</ele>
        <time>2016-04-17T12:13:27.926Z</time>
      </trkpt>
      <trkpt lat="43.33715" lon="3.57823">
        <ele>49</ele>
        <time>2016-04-17T12:13:30.007Z</time>
      </trkpt>
      <trkpt lat="43.33717" lon="3.57826">
        <ele>49</ele>
        <time>2016-04-17T12:13:30.923Z</time>
      </trkpt>
      <trkpt lat="43.33723" lon="3.57835">
        <ele>51</ele>
        <time>2016-04-17T12:13:33.945Z</time>
      </trkpt>
      <trkpt lat="43.33726" lon="3.57838">
        <ele>51</ele>
        <time>2016-04-17T12:13:34.926Z</time>
      </trkpt>
      <trkpt lat="43.33733" lon="3.57845">
        <ele>51</ele>
        <time>2016-04-17T12:13:37.954Z</time>
      </trkpt>
      <trkpt lat="43.33735" lon="3.57849">
        <ele>51</ele>
        <time>2016-04-17T12:13:38.927Z</time>
      </trkpt>
      <trkpt lat="43.33742" lon="3.57856">
        <ele>49</ele>
        <time>2016-04-17T12:13:40.955Z</time>
      </trkpt>
      <trkpt lat="43.33744" lon="3.5786">
        <ele>50</ele>
        <time>2016-04-17T12:13:41.927Z</time>
      </trkpt>
      <trkpt lat="43.33748" lon="3.57865">
        <ele>46</ele>
        <time>2016-04-17T12:13:43.954Z</time>
      </trkpt>
      <trkpt lat="43.33751" lon="3.57868">
        <ele>47</ele>
        <time>2016-04-17T12:13:44.928Z</time>
      </trkpt>
      <trkpt lat="43.33757" lon="3.57874">
        <ele>49</ele>
        <time>2016-04-17T12:13:46.955Z</time>
      </trkpt>
      <trkpt lat="43.33761" lon="3.57879">
        <ele>48</ele>
        <time>2016-04-17T12:13:47.928Z</time>
      </trkpt>
      <trkpt lat="43.33766" lon="3.57884">
        <ele>49</ele>
        <time>2016-04-17T12:13:49.954Z</time>
      </trkpt>
      <trkpt lat="43.33768" lon="3.57886">
        <ele>49</ele>
        <time>2016-04-17T12:13:50.920Z</time>
      </trkpt>
      <trkpt lat="43.33772" lon="3.57893">
        <ele>50</ele>
        <time>2016-04-17T12:13:51.957Z</time>
      </trkpt>
      <trkpt lat="43.33774" lon="3.57896">
        <ele>51</ele>
        <time>2016-04-17T12:13:52.930Z</time>
      </trkpt>
      <trkpt lat="43.3378" lon="3.57903">
        <ele>51</ele>
        <time>2016-04-17T12:13:55.954Z</time>
      </trkpt>
      <trkpt lat="43.33784" lon="3.57907">
        <ele>49</ele>
        <time>2016-04-17T12:13:56.926Z</time>
      </trkpt>
      <trkpt lat="43.33788" lon="3.57914">
        <ele>47</ele>
        <time>2016-04-17T12:13:58.959Z</time>
      </trkpt>
      <trkpt lat="43.3379" lon="3.57917">
        <ele>47</ele>
        <time>2016-04-17T12:13:59.926Z</time>
      </trkpt>
      <trkpt lat="43.33796" lon="3.57925">
        <ele>44</ele>
        <time>2016-04-17T12:14:01.978Z</time>
      </trkpt>
      <trkpt lat="43.33798" lon="3.57929">
        <ele>44</ele>
        <time>2016-04-17T12:14:02.928Z</time>
      </trkpt>
      <trkpt lat="43.33805" lon="3.57937">
        <ele>45</ele>
        <time>2016-04-17T12:14:05.953Z</time>
      </trkpt>
      <trkpt lat="43.33807" lon="3.5794">
        <ele>45</ele>
        <time>2016-04-17T12:14:06.924Z</time>
      </trkpt>
      <trkpt lat="43.33812" lon="3.57947">
        <ele>46</ele>
        <time>2016-04-17T12:14:08.959Z</time>
      </trkpt>
      <trkpt lat="43.33814" lon="3.5795">
        <ele>46</ele>
        <time>2016-04-17T12:14:09.924Z</time>
      </trkpt>
      <trkpt lat="43.33821" lon="3.57958">
        <ele>46</ele>
        <time>2016-04-17T12:14:12.957Z</time>
      </trkpt>
      <trkpt lat="43.33823" lon="3.57961">
        <ele>46</ele>
        <time>2016-04-17T12:14:13.925Z</time>
      </trkpt>
      <trkpt lat="43.33829" lon="3.57967">
        <ele>46</ele>
        <time>2016-04-17T12:14:15.953Z</time>
      </trkpt>
      <trkpt lat="43.33832" lon="3.57969">
        <ele>47</ele>
        <time>2016-04-17T12:14:16.929Z</time>
      </trkpt>
      <trkpt lat="43.33837" lon="3.57975">
        <ele>46</ele>
        <time>2016-04-17T12:14:18.955Z</time>
      </trkpt>
      <trkpt lat="43.33839" lon="3.57978">
        <ele>48</ele>
        <time>2016-04-17T12:14:19.928Z</time>
      </trkpt>
      <trkpt lat="43.33844" lon="3.57983">
        <ele>46</ele>
        <time>2016-04-17T12:14:21.953Z</time>
      </trkpt>
      <trkpt lat="43.33846" lon="3.57986">
        <ele>47</ele>
        <time>2016-04-17T12:14:22.926Z</time>
      </trkpt>
      <trkpt lat="43.33851" lon="3.57994">
        <ele>45</ele>
        <time>2016-04-17T12:14:24.954Z</time>
      </trkpt>
      <trkpt lat="43.33853" lon="3.57998">
        <ele>45</ele>
        <time>2016-04-17T12:14:25.930Z</time>
      </trkpt>
      <trkpt lat="43.33858" lon="3.58004">
        <ele>46</ele>
        <time>2016-04-17T12:14:27.955Z</time>
      </trkpt>
      <trkpt lat="43.3386" lon="3.58007">
        <ele>45</ele>
        <time>2016-04-17T12:14:28.926Z</time>
      </trkpt>
      <trkpt lat="43.33865" lon="3.58012">
        <ele>46</ele>
        <time>2016-04-17T12:14:30.956Z</time>
      </trkpt>
      <trkpt lat="43.33867" lon="3.58016">
        <ele>44</ele>
        <time>2016-04-17T12:14:31.927Z</time>
      </trkpt>
      <trkpt lat="43.33873" lon="3.58022">
        <ele>45</ele>
        <time>2016-04-17T12:14:34.109Z</time>
      </trkpt>
      <trkpt lat="43.33875" lon="3.58025">
        <ele>44</ele>
        <time>2016-04-17T12:14:34.925Z</time>
      </trkpt>
      <trkpt lat="43.3388" lon="3.58032">
        <ele>44</ele>
        <time>2016-04-17T12:14:36.956Z</time>
      </trkpt>
      <trkpt lat="43.33882" lon="3.58034">
        <ele>44</ele>
        <time>2016-04-17T12:14:37.926Z</time>
      </trkpt>
      <trkpt lat="43.33888" lon="3.58041">
        <ele>45</ele>
        <time>2016-04-17T12:14:39.954Z</time>
      </trkpt>
      <trkpt lat="43.3389" lon="3.58044">
        <ele>45</ele>
        <time>2016-04-17T12:14:40.927Z</time>
      </trkpt>
      <trkpt lat="43.33896" lon="3.58049">
        <ele>46</ele>
        <time>2016-04-17T12:14:42.952Z</time>
      </trkpt>
      <trkpt lat="43.33899" lon="3.58053">
        <ele>46</ele>
        <time>2016-04-17T12:14:43.927Z</time>
      </trkpt>
      <trkpt lat="43.33905" lon="3.58062">
        <ele>48</ele>
        <time>2016-04-17T12:14:45.954Z</time>
      </trkpt>
      <trkpt lat="43.33908" lon="3.58064">
        <ele>48</ele>
        <time>2016-04-17T12:14:47.060Z</time>
      </trkpt>
      <trkpt lat="43.33914" lon="3.58072">
        <ele>49</ele>
        <time>2016-04-17T12:14:48.946Z</time>
      </trkpt>
      <trkpt lat="43.33916" lon="3.58075">
        <ele>48</ele>
        <time>2016-04-17T12:14:49.927Z</time>
      </trkpt>
      <trkpt lat="43.33921" lon="3.58083">
        <ele>46</ele>
        <time>2016-04-17T12:14:51.958Z</time>
      </trkpt>
      <trkpt lat="43.33923" lon="3.58085">
        <ele>47</ele>
        <time>2016-04-17T12:14:52.928Z</time>
      </trkpt>
      <trkpt lat="43.33929" lon="3.5809">
        <ele>47</ele>
        <time>2016-04-17T12:14:54.954Z</time>
      </trkpt>
      <trkpt lat="43.33933" lon="3.58094">
        <ele>45</ele>
        <time>2016-04-17T12:14:55.927Z</time>
      </trkpt>
      <trkpt lat="43.33938" lon="3.581">
        <ele>46</ele>
        <time>2016-04-17T12:14:57.955Z</time>
      </trkpt>
      <trkpt lat="43.33941" lon="3.58102">
        <ele>45</ele>
        <time>2016-04-17T12:14:58.926Z</time>
      </trkpt>
      <trkpt lat="43.33946" lon="3.58107">
        <ele>45</ele>
        <time>2016-04-17T12:15:00.983Z</time>
      </trkpt>
      <trkpt lat="43.33949" lon="3.5811">
        <ele>45</ele>
        <time>2016-04-17T12:15:01.922Z</time>
      </trkpt>
      <trkpt lat="43.33953" lon="3.58116">
        <ele>46</ele>
        <time>2016-04-17T12:15:03.957Z</time>
      </trkpt>
      <trkpt lat="43.33958" lon="3.58127">
        <ele>43</ele>
        <time>2016-04-17T12:15:04.926Z</time>
      </trkpt>
      <trkpt lat="43.33966" lon="3.58133">
        <ele>43</ele>
        <time>2016-04-17T12:15:07.954Z</time>
      </trkpt>
      <trkpt lat="43.33968" lon="3.58136">
        <ele>42</ele>
        <time>2016-04-17T12:15:08.927Z</time>
      </trkpt>
      <trkpt lat="43.33974" lon="3.58144">
        <ele>42</ele>
        <time>2016-04-17T12:15:10.946Z</time>
      </trkpt>
      <trkpt lat="43.33977" lon="3.58147">
        <ele>42</ele>
        <time>2016-04-17T12:15:11.927Z</time>
      </trkpt>
      <trkpt lat="43.33982" lon="3.58152">
        <ele>41</ele>
        <time>2016-04-17T12:15:13.955Z</time>
      </trkpt>
      <trkpt lat="43.33985" lon="3.58155">
        <ele>41</ele>
        <time>2016-04-17T12:15:14.929Z</time>
      </trkpt>
      <trkpt lat="43.3399" lon="3.58162">
        <ele>42</ele>
        <time>2016-04-17T12:15:16.977Z</time>
      </trkpt>
      <trkpt lat="43.33992" lon="3.58165">
        <ele>44</ele>
        <time>2016-04-17T12:15:17.926Z</time>
      </trkpt>
      <trkpt lat="43.33998" lon="3.5817">
        <ele>45</ele>
        <time>2016-04-17T12:15:19.954Z</time>
      </trkpt>
      <trkpt lat="43.34001" lon="3.58174">
        <ele>45</ele>
        <time>2016-04-17T12:15:20.928Z</time>
      </trkpt>
      <trkpt lat="43.34007" lon="3.58182">
        <ele>45</ele>
        <time>2016-04-17T12:15:22.945Z</time>
      </trkpt>
      <trkpt lat="43.3401" lon="3.58186">
        <ele>44</ele>
        <time>2016-04-17T12:15:23.927Z</time>
      </trkpt>
      <trkpt lat="43.34016" lon="3.58191">
        <ele>44</ele>
        <time>2016-04-17T12:15:25.954Z</time>
      </trkpt>
      <trkpt lat="43.34019" lon="3.58195">
        <ele>45</ele>
        <time>2016-04-17T12:15:26.925Z</time>
      </trkpt>
      <trkpt lat="43.34024" lon="3.58203">
        <ele>46</ele>
        <time>2016-04-17T12:15:28.954Z</time>
      </trkpt>
      <trkpt lat="43.34026" lon="3.58206">
        <ele>46</ele>
        <time>2016-04-17T12:15:29.927Z</time>
      </trkpt>
      <trkpt lat="43.34032" lon="3.5821">
        <ele>45</ele>
        <time>2016-04-17T12:15:31.955Z</time>
      </trkpt>
      <trkpt lat="43.34036" lon="3.58215">
        <ele>44</ele>
        <time>2016-04-17T12:15:32.926Z</time>
      </trkpt>
      <trkpt lat="43.34041" lon="3.58223">
        <ele>44</ele>
        <time>2016-04-17T12:15:34.954Z</time>
      </trkpt>
      <trkpt lat="43.34044" lon="3.58226">
        <ele>43</ele>
        <time>2016-04-17T12:15:35.926Z</time>
      </trkpt>
      <trkpt lat="43.34051" lon="3.58232">
        <ele>47</ele>
        <time>2016-04-17T12:15:38.953Z</time>
      </trkpt>
      <trkpt lat="43.34054" lon="3.58236">
        <ele>47</ele>
        <time>2016-04-17T12:15:39.927Z</time>
      </trkpt>
      <trkpt lat="43.34057" lon="3.5824">
        <ele>46</ele>
        <time>2016-04-17T12:15:40.956Z</time>
      </trkpt>
      <trkpt lat="43.3406" lon="3.58246">
        <ele>46</ele>
        <time>2016-04-17T12:15:41.927Z</time>
      </trkpt>
      <trkpt lat="43.34064" lon="3.58255">
        <ele>48</ele>
        <time>2016-04-17T12:15:43.954Z</time>
      </trkpt>
      <trkpt lat="43.34067" lon="3.58259">
        <ele>49</ele>
        <time>2016-04-17T12:15:44.926Z</time>
      </trkpt>
      <trkpt lat="43.34073" lon="3.58264">
        <ele>49</ele>
        <time>2016-04-17T12:15:46.951Z</time>
      </trkpt>
      <trkpt lat="43.34076" lon="3.58268">
        <ele>49</ele>
        <time>2016-04-17T12:15:47.926Z</time>
      </trkpt>
      <trkpt lat="43.34081" lon="3.58277">
        <ele>49</ele>
        <time>2016-04-17T12:15:49.955Z</time>
      </trkpt>
      <trkpt lat="43.34084" lon="3.5828">
        <ele>49</ele>
        <time>2016-04-17T12:15:50.925Z</time>
      </trkpt>
      <trkpt lat="43.34091" lon="3.58287">
        <ele>48</ele>
        <time>2016-04-17T12:15:52.956Z</time>
      </trkpt>
      <trkpt lat="43.34094" lon="3.58289">
        <ele>48</ele>
        <time>2016-04-17T12:15:53.927Z</time>
      </trkpt>
      <trkpt lat="43.34099" lon="3.58295">
        <ele>47</ele>
        <time>2016-04-17T12:15:55.957Z</time>
      </trkpt>
      <trkpt lat="43.34101" lon="3.58297">
        <ele>48</ele>
        <time>2016-04-17T12:15:56.928Z</time>
      </trkpt>
      <trkpt lat="43.34106" lon="3.58303">
        <ele>49</ele>
        <time>2016-04-17T12:15:58.980Z</time>
      </trkpt>
      <trkpt lat="43.34108" lon="3.58307">
        <ele>50</ele>
        <time>2016-04-17T12:15:59.926Z</time>
      </trkpt>
      <trkpt lat="43.34113" lon="3.58315">
        <ele>50</ele>
        <time>2016-04-17T12:16:01.956Z</time>
      </trkpt>
      <trkpt lat="43.34116" lon="3.58318">
        <ele>51</ele>
        <time>2016-04-17T12:16:02.929Z</time>
      </trkpt>
      <trkpt lat="43.34122" lon="3.58324">
        <ele>50</ele>
        <time>2016-04-17T12:16:04.955Z</time>
      </trkpt>
      <trkpt lat="43.34125" lon="3.58327">
        <ele>50</ele>
        <time>2016-04-17T12:16:05.928Z</time>
      </trkpt>
      <trkpt lat="43.3413" lon="3.58332">
        <ele>51</ele>
        <time>2016-04-17T12:16:07.955Z</time>
      </trkpt>
      <trkpt lat="43.34132" lon="3.58335">
        <ele>50</ele>
        <time>2016-04-17T12:16:08.927Z</time>
      </trkpt>
      <trkpt lat="43.34136" lon="3.58342">
        <ele>49</ele>
        <time>2016-04-17T12:16:09.960Z</time>
      </trkpt>
      <trkpt lat="43.3414" lon="3.58346">
        <ele>49</ele>
        <time>2016-04-17T12:16:10.930Z</time>
      </trkpt>
      <trkpt lat="43.34145" lon="3.58354">
        <ele>47</ele>
        <time>2016-04-17T12:16:12.956Z</time>
      </trkpt>
      <trkpt lat="43.34149" lon="3.58357">
        <ele>47</ele>
        <time>2016-04-17T12:16:13.924Z</time>
      </trkpt>
      <trkpt lat="43.34154" lon="3.58362">
        <ele>50</ele>
        <time>2016-04-17T12:16:16.954Z</time>
      </trkpt>
      <trkpt lat="43.34157" lon="3.58366">
        <ele>49</ele>
        <time>2016-04-17T12:16:17.926Z</time>
      </trkpt>
      <trkpt lat="43.34163" lon="3.58373">
        <ele>48</ele>
        <time>2016-04-17T12:16:19.955Z</time>
      </trkpt>
      <trkpt lat="43.34165" lon="3.58374">
        <ele>49</ele>
        <time>2016-04-17T12:16:20.927Z</time>
      </trkpt>
      <trkpt lat="43.34168" lon="3.58378">
        <ele>49</ele>
        <time>2016-04-17T12:16:21.955Z</time>
      </trkpt>
      <trkpt lat="43.34173" lon="3.58384">
        <ele>48</ele>
        <time>2016-04-17T12:16:22.926Z</time>
      </trkpt>
      <trkpt lat="43.34179" lon="3.5839">
        <ele>47</ele>
        <time>2016-04-17T12:16:24.979Z</time>
      </trkpt>
      <trkpt lat="43.3418" lon="3.58395">
        <ele>47</ele>
        <time>2016-04-17T12:16:25.928Z</time>
      </trkpt>
      <trkpt lat="43.34185" lon="3.58402">
        <ele>47</ele>
        <time>2016-04-17T12:16:27.953Z</time>
      </trkpt>
      <trkpt lat="43.34189" lon="3.58405">
        <ele>48</ele>
        <time>2016-04-17T12:16:28.927Z</time>
      </trkpt>
      <trkpt lat="43.34195" lon="3.58411">
        <ele>48</ele>
        <time>2016-04-17T12:16:30.955Z</time>
      </trkpt>
      <trkpt lat="43.34198" lon="3.58415">
        <ele>48</ele>
        <time>2016-04-17T12:16:31.928Z</time>
      </trkpt>
      <trkpt lat="43.34201" lon="3.58422">
        <ele>47</ele>
        <time>2016-04-17T12:16:32.953Z</time>
      </trkpt>
      <trkpt lat="43.34205" lon="3.58424">
        <ele>46</ele>
        <time>2016-04-17T12:16:33.928Z</time>
      </trkpt>
      <trkpt lat="43.3421" lon="3.5843">
        <ele>45</ele>
        <time>2016-04-17T12:16:35.954Z</time>
      </trkpt>
      <trkpt lat="43.34212" lon="3.58432">
        <ele>44</ele>
        <time>2016-04-17T12:16:36.924Z</time>
      </trkpt>
      <trkpt lat="43.34218" lon="3.58439">
        <ele>46</ele>
        <time>2016-04-17T12:16:38.956Z</time>
      </trkpt>
      <trkpt lat="43.34221" lon="3.58442">
        <ele>46</ele>
        <time>2016-04-17T12:16:39.926Z</time>
      </trkpt>
      <trkpt lat="43.34226" lon="3.5845">
        <ele>45</ele>
        <time>2016-04-17T12:16:41.954Z</time>
      </trkpt>
      <trkpt lat="43.34229" lon="3.58455">
        <ele>45</ele>
        <time>2016-04-17T12:16:42.928Z</time>
      </trkpt>
      <trkpt lat="43.34235" lon="3.58463">
        <ele>46</ele>
        <time>2016-04-17T12:16:44.948Z</time>
      </trkpt>
      <trkpt lat="43.34238" lon="3.58465">
        <ele>45</ele>
        <time>2016-04-17T12:16:45.926Z</time>
      </trkpt>
      <trkpt lat="43.34244" lon="3.58473">
        <ele>44</ele>
        <time>2016-04-17T12:16:47.954Z</time>
      </trkpt>
      <trkpt lat="43.34248" lon="3.58477">
        <ele>43</ele>
        <time>2016-04-17T12:16:48.927Z</time>
      </trkpt>
      <trkpt lat="43.34253" lon="3.58486">
        <ele>41</ele>
        <time>2016-04-17T12:16:50.954Z</time>
      </trkpt>
      <trkpt lat="43.34255" lon="3.58487">
        <ele>42</ele>
        <time>2016-04-17T12:16:51.928Z</time>
      </trkpt>
      <trkpt lat="43.3426" lon="3.58494">
        <ele>42</ele>
        <time>2016-04-17T12:16:53.948Z</time>
      </trkpt>
      <trkpt lat="43.34264" lon="3.58497">
        <ele>43</ele>
        <time>2016-04-17T12:16:54.929Z</time>
      </trkpt>
      <trkpt lat="43.34269" lon="3.58502">
        <ele>45</ele>
        <time>2016-04-17T12:16:56.971Z</time>
      </trkpt>
      <trkpt lat="43.34272" lon="3.58505">
        <ele>45</ele>
        <time>2016-04-17T12:16:57.928Z</time>
      </trkpt>
      <trkpt lat="43.34278" lon="3.58512">
        <ele>46</ele>
        <time>2016-04-17T12:16:59.952Z</time>
      </trkpt>
      <trkpt lat="43.34281" lon="3.58517">
        <ele>44</ele>
        <time>2016-04-17T12:17:00.926Z</time>
      </trkpt>
      <trkpt lat="43.34287" lon="3.58523">
        <ele>44</ele>
        <time>2016-04-17T12:17:02.950Z</time>
      </trkpt>
      <trkpt lat="43.3429" lon="3.58526">
        <ele>44</ele>
        <time>2016-04-17T12:17:03.927Z</time>
      </trkpt>
      <trkpt lat="43.34294" lon="3.58532">
        <ele>45</ele>
        <time>2016-04-17T12:17:05.949Z</time>
      </trkpt>
      <trkpt lat="43.34297" lon="3.58535">
        <ele>45</ele>
        <time>2016-04-17T12:17:06.928Z</time>
      </trkpt>
      <trkpt lat="43.34302" lon="3.58539">
        <ele>46</ele>
        <time>2016-04-17T12:17:08.953Z</time>
      </trkpt>
      <trkpt lat="43.34305" lon="3.58542">
        <ele>46</ele>
        <time>2016-04-17T12:17:09.932Z</time>
      </trkpt>
      <trkpt lat="43.34309" lon="3.58549">
        <ele>45</ele>
        <time>2016-04-17T12:17:11.951Z</time>
      </trkpt>
      <trkpt lat="43.34311" lon="3.58553">
        <ele>45</ele>
        <time>2016-04-17T12:17:12.927Z</time>
      </trkpt>
      <trkpt lat="43.34316" lon="3.58559">
        <ele>45</ele>
        <time>2016-04-17T12:17:14.954Z</time>
      </trkpt>
      <trkpt lat="43.3432" lon="3.58562">
        <ele>45</ele>
        <time>2016-04-17T12:17:15.928Z</time>
      </trkpt>
      <trkpt lat="43.34325" lon="3.58567">
        <ele>46</ele>
        <time>2016-04-17T12:17:17.974Z</time>
      </trkpt>
      <trkpt lat="43.34327" lon="3.58571">
        <ele>46</ele>
        <time>2016-04-17T12:17:18.928Z</time>
      </trkpt>
      <trkpt lat="43.34333" lon="3.58578">
        <ele>46</ele>
        <time>2016-04-17T12:17:20.952Z</time>
      </trkpt>
      <trkpt lat="43.34335" lon="3.58581">
        <ele>46</ele>
        <time>2016-04-17T12:17:21.928Z</time>
      </trkpt>
      <trkpt lat="43.34342" lon="3.58587">
        <ele>45</ele>
        <time>2016-04-17T12:17:23.951Z</time>
      </trkpt>
      <trkpt lat="43.34345" lon="3.58591">
        <ele>45</ele>
        <time>2016-04-17T12:17:24.928Z</time>
      </trkpt>
      <trkpt lat="43.3435" lon="3.58597">
        <ele>45</ele>
        <time>2016-04-17T12:17:26.951Z</time>
      </trkpt>
      <trkpt lat="43.34352" lon="3.58601">
        <ele>45</ele>
        <time>2016-04-17T12:17:27.928Z</time>
      </trkpt>
      <trkpt lat="43.34357" lon="3.58607">
        <ele>45</ele>
        <time>2016-04-17T12:17:29.953Z</time>
      </trkpt>
      <trkpt lat="43.3436" lon="3.5861">
        <ele>45</ele>
        <time>2016-04-17T12:17:30.927Z</time>
      </trkpt>
      <trkpt lat="43.34365" lon="3.58616">
        <ele>47</ele>
        <time>2016-04-17T12:17:32.952Z</time>
      </trkpt>
      <trkpt lat="43.34368" lon="3.58619">
        <ele>47</ele>
        <time>2016-04-17T12:17:33.927Z</time>
      </trkpt>
      <trkpt lat="43.34374" lon="3.58628">
        <ele>45</ele>
        <time>2016-04-17T12:17:35.951Z</time>
      </trkpt>
      <trkpt lat="43.34376" lon="3.58631">
        <ele>45</ele>
        <time>2016-04-17T12:17:36.928Z</time>
      </trkpt>
      <trkpt lat="43.34382" lon="3.58638">
        <ele>45</ele>
        <time>2016-04-17T12:17:38.973Z</time>
      </trkpt>
      <trkpt lat="43.34385" lon="3.5864">
        <ele>46</ele>
        <time>2016-04-17T12:17:39.928Z</time>
      </trkpt>
      <trkpt lat="43.3439" lon="3.58648">
        <ele>46</ele>
        <time>2016-04-17T12:17:41.962Z</time>
      </trkpt>
      <trkpt lat="43.34393" lon="3.58651">
        <ele>46</ele>
        <time>2016-04-17T12:17:42.928Z</time>
      </trkpt>
      <trkpt lat="43.34396" lon="3.58655">
        <ele>46</ele>
        <time>2016-04-17T12:17:43.954Z</time>
      </trkpt>
      <trkpt lat="43.344" lon="3.5866">
        <ele>46</ele>
        <time>2016-04-17T12:17:44.928Z</time>
      </trkpt>
      <trkpt lat="43.34406" lon="3.58666">
        <ele>47</ele>
        <time>2016-04-17T12:17:46.945Z</time>
      </trkpt>
      <trkpt lat="43.34409" lon="3.58671">
        <ele>47</ele>
        <time>2016-04-17T12:17:47.926Z</time>
      </trkpt>
      <trkpt lat="43.34414" lon="3.58677">
        <ele>49</ele>
        <time>2016-04-17T12:17:49.959Z</time>
      </trkpt>
      <trkpt lat="43.34417" lon="3.58682">
        <ele>49</ele>
        <time>2016-04-17T12:17:50.926Z</time>
      </trkpt>
      <trkpt lat="43.34422" lon="3.58688">
        <ele>52</ele>
        <time>2016-04-17T12:17:53.956Z</time>
      </trkpt>
      <trkpt lat="43.34425" lon="3.58691">
        <ele>53</ele>
        <time>2016-04-17T12:17:54.954Z</time>
      </trkpt>
      <trkpt lat="43.34431" lon="3.587">
        <ele>52</ele>
        <time>2016-04-17T12:17:56.954Z</time>
      </trkpt>
      <trkpt lat="43.34434" lon="3.58703">
        <ele>52</ele>
        <time>2016-04-17T12:17:57.928Z</time>
      </trkpt>
      <trkpt lat="43.34439" lon="3.5871">
        <ele>48</ele>
        <time>2016-04-17T12:17:59.958Z</time>
      </trkpt>
      <trkpt lat="43.34442" lon="3.58713">
        <ele>48</ele>
        <time>2016-04-17T12:18:00.921Z</time>
      </trkpt>
      <trkpt lat="43.34448" lon="3.5872">
        <ele>48</ele>
        <time>2016-04-17T12:18:02.954Z</time>
      </trkpt>
      <trkpt lat="43.34451" lon="3.58723">
        <ele>49</ele>
        <time>2016-04-17T12:18:03.926Z</time>
      </trkpt>
      <trkpt lat="43.34456" lon="3.58729">
        <ele>49</ele>
        <time>2016-04-17T12:18:05.954Z</time>
      </trkpt>
      <trkpt lat="43.34459" lon="3.58732">
        <ele>49</ele>
        <time>2016-04-17T12:18:06.924Z</time>
      </trkpt>
      <trkpt lat="43.34464" lon="3.58738">
        <ele>50</ele>
        <time>2016-04-17T12:18:08.959Z</time>
      </trkpt>
      <trkpt lat="43.34466" lon="3.58742">
        <ele>50</ele>
        <time>2016-04-17T12:18:09.927Z</time>
      </trkpt>
      <trkpt lat="43.34471" lon="3.5875">
        <ele>51</ele>
        <time>2016-04-17T12:18:11.951Z</time>
      </trkpt>
      <trkpt lat="43.34475" lon="3.58754">
        <ele>51</ele>
        <time>2016-04-17T12:18:12.926Z</time>
      </trkpt>
      <trkpt lat="43.34478" lon="3.58758">
        <ele>50</ele>
        <time>2016-04-17T12:18:13.954Z</time>
      </trkpt>
      <trkpt lat="43.34482" lon="3.58765">
        <ele>48</ele>
        <time>2016-04-17T12:18:14.926Z</time>
      </trkpt>
      <trkpt lat="43.34487" lon="3.58772">
        <ele>50</ele>
        <time>2016-04-17T12:18:16.956Z</time>
      </trkpt>
      <trkpt lat="43.3449" lon="3.58775">
        <ele>50</ele>
        <time>2016-04-17T12:18:17.926Z</time>
      </trkpt>
      <trkpt lat="43.34496" lon="3.58781">
        <ele>49</ele>
        <time>2016-04-17T12:18:19.952Z</time>
      </trkpt>
      <trkpt lat="43.34499" lon="3.58784">
        <ele>49</ele>
        <time>2016-04-17T12:18:20.951Z</time>
      </trkpt>
      <trkpt lat="43.34504" lon="3.58791">
        <ele>48</ele>
        <time>2016-04-17T12:18:22.954Z</time>
      </trkpt>
      <trkpt lat="43.34506" lon="3.58795">
        <ele>47</ele>
        <time>2016-04-17T12:18:23.927Z</time>
      </trkpt>
      <trkpt lat="43.34511" lon="3.58802">
        <ele>48</ele>
        <time>2016-04-17T12:18:25.955Z</time>
      </trkpt>
      <trkpt lat="43.34513" lon="3.58806">
        <ele>47</ele>
        <time>2016-04-17T12:18:26.928Z</time>
      </trkpt>
      <trkpt lat="43.34519" lon="3.58813">
        <ele>46</ele>
        <time>2016-04-17T12:18:28.958Z</time>
      </trkpt>
      <trkpt lat="43.34523" lon="3.58817">
        <ele>47</ele>
        <time>2016-04-17T12:18:29.927Z</time>
      </trkpt>
      <trkpt lat="43.34528" lon="3.58825">
        <ele>47</ele>
        <time>2016-04-17T12:18:31.954Z</time>
      </trkpt>
      <trkpt lat="43.34532" lon="3.58828">
        <ele>47</ele>
        <time>2016-04-17T12:18:32.929Z</time>
      </trkpt>
      <trkpt lat="43.34537" lon="3.58833">
        <ele>48</ele>
        <time>2016-04-17T12:18:34.955Z</time>
      </trkpt>
      <trkpt lat="43.3454" lon="3.58837">
        <ele>48</ele>
        <time>2016-04-17T12:18:35.929Z</time>
      </trkpt>
      <trkpt lat="43.34544" lon="3.58846">
        <ele>44</ele>
        <time>2016-04-17T12:18:36.981Z</time>
      </trkpt>
      <trkpt lat="43.34547" lon="3.58849">
        <ele>44</ele>
        <time>2016-04-17T12:18:37.922Z</time>
      </trkpt>
      <trkpt lat="43.34554" lon="3.58856">
        <ele>46</ele>
        <time>2016-04-17T12:18:40.955Z</time>
      </trkpt>
      <trkpt lat="43.34556" lon="3.5886">
        <ele>45</ele>
        <time>2016-04-17T12:18:41.926Z</time>
      </trkpt>
      <trkpt lat="43.34561" lon="3.58867">
        <ele>43</ele>
        <time>2016-04-17T12:18:43.953Z</time>
      </trkpt>
      <trkpt lat="43.34563" lon="3.5887">
        <ele>44</ele>
        <time>2016-04-17T12:18:44.925Z</time>
      </trkpt>
      <trkpt lat="43.34571" lon="3.58873">
        <ele>43</ele>
        <time>2016-04-17T12:18:47.953Z</time>
      </trkpt>
      <trkpt lat="43.34573" lon="3.58877">
        <ele>43</ele>
        <time>2016-04-17T12:18:48.927Z</time>
      </trkpt>
      <trkpt lat="43.34577" lon="3.58885">
        <ele>42</ele>
        <time>2016-04-17T12:18:50.955Z</time>
      </trkpt>
      <trkpt lat="43.34581" lon="3.58889">
        <ele>42</ele>
        <time>2016-04-17T12:18:51.926Z</time>
      </trkpt>
      <trkpt lat="43.34587" lon="3.58895">
        <ele>42</ele>
        <time>2016-04-17T12:18:53.956Z</time>
      </trkpt>
      <trkpt lat="43.3459" lon="3.58897">
        <ele>42</ele>
        <time>2016-04-17T12:18:54.926Z</time>
      </trkpt>
      <trkpt lat="43.34596" lon="3.58903">
        <ele>43</ele>
        <time>2016-04-17T12:18:56.953Z</time>
      </trkpt>
      <trkpt lat="43.34598" lon="3.58906">
        <ele>45</ele>
        <time>2016-04-17T12:18:57.926Z</time>
      </trkpt>
      <trkpt lat="43.34604" lon="3.58915">
        <ele>43</ele>
        <time>2016-04-17T12:18:59.956Z</time>
      </trkpt>
      <trkpt lat="43.34606" lon="3.58918">
        <ele>43</ele>
        <time>2016-04-17T12:19:00.919Z</time>
      </trkpt>
      <trkpt lat="43.34612" lon="3.58926">
        <ele>44</ele>
        <time>2016-04-17T12:19:02.947Z</time>
      </trkpt>
      <trkpt lat="43.34614" lon="3.5893">
        <ele>44</ele>
        <time>2016-04-17T12:19:03.927Z</time>
      </trkpt>
      <trkpt lat="43.3462" lon="3.58935">
        <ele>44</ele>
        <time>2016-04-17T12:19:05.959Z</time>
      </trkpt>
      <trkpt lat="43.34623" lon="3.58937">
        <ele>45</ele>
        <time>2016-04-17T12:19:06.927Z</time>
      </trkpt>
      <trkpt lat="43.34628" lon="3.58943">
        <ele>44</ele>
        <time>2016-04-17T12:19:09.031Z</time>
      </trkpt>
      <trkpt lat="43.3463" lon="3.58947">
        <ele>43</ele>
        <time>2016-04-17T12:19:09.924Z</time>
      </trkpt>
      <trkpt lat="43.34635" lon="3.58954">
        <ele>44</ele>
        <time>2016-04-17T12:19:11.955Z</time>
      </trkpt>
      <trkpt lat="43.34638" lon="3.58957">
        <ele>44</ele>
        <time>2016-04-17T12:19:12.923Z</time>
      </trkpt>
      <trkpt lat="43.34645" lon="3.58965">
        <ele>45</ele>
        <time>2016-04-17T12:19:15.954Z</time>
      </trkpt>
      <trkpt lat="43.34647" lon="3.58969">
        <ele>46</ele>
        <time>2016-04-17T12:19:16.926Z</time>
      </trkpt>
      <trkpt lat="43.34654" lon="3.58977">
        <ele>46</ele>
        <time>2016-04-17T12:19:18.946Z</time>
      </trkpt>
      <trkpt lat="43.34656" lon="3.58985">
        <ele>45</ele>
        <time>2016-04-17T12:19:19.952Z</time>
      </trkpt>
      <trkpt lat="43.34661" lon="3.5899">
        <ele>45</ele>
        <time>2016-04-17T12:19:21.954Z</time>
      </trkpt>
      <trkpt lat="43.34665" lon="3.58994">
        <ele>46</ele>
        <time>2016-04-17T12:19:22.926Z</time>
      </trkpt>
      <trkpt lat="43.3467" lon="3.59004">
        <ele>46</ele>
        <time>2016-04-17T12:19:24.956Z</time>
      </trkpt>
      <trkpt lat="43.34674" lon="3.59008">
        <ele>47</ele>
        <time>2016-04-17T12:19:25.927Z</time>
      </trkpt>
      <trkpt lat="43.34678" lon="3.59013">
        <ele>47</ele>
        <time>2016-04-17T12:19:26.956Z</time>
      </trkpt>
      <trkpt lat="43.34681" lon="3.59017">
        <ele>47</ele>
        <time>2016-04-17T12:19:27.925Z</time>
      </trkpt>
      <trkpt lat="43.34685" lon="3.59022">
        <ele>47</ele>
        <time>2016-04-17T12:19:28.954Z</time>
      </trkpt>
      <trkpt lat="43.34688" lon="3.59026">
        <ele>46</ele>
        <time>2016-04-17T12:19:29.927Z</time>
      </trkpt>
      <trkpt lat="43.34694" lon="3.59032">
        <ele>45</ele>
        <time>2016-04-17T12:19:31.955Z</time>
      </trkpt>
      <trkpt lat="43.34698" lon="3.59035">
        <ele>45</ele>
        <time>2016-04-17T12:19:32.925Z</time>
      </trkpt>
      <trkpt lat="43.34704" lon="3.59043">
        <ele>45</ele>
        <time>2016-04-17T12:19:34.955Z</time>
      </trkpt>
      <trkpt lat="43.34707" lon="3.59047">
        <ele>44</ele>
        <time>2016-04-17T12:19:35.926Z</time>
      </trkpt>
      <trkpt lat="43.3471" lon="3.59048">
        <ele>45</ele>
        <time>2016-04-17T12:19:36.954Z</time>
      </trkpt>
      <trkpt lat="43.34715" lon="3.59057">
        <ele>44</ele>
        <time>2016-04-17T12:19:37.926Z</time>
      </trkpt>
      <trkpt lat="43.34719" lon="3.59061">
        <ele>44</ele>
        <time>2016-04-17T12:19:38.953Z</time>
      </trkpt>
      <trkpt lat="43.34723" lon="3.59064">
        <ele>45</ele>
        <time>2016-04-17T12:19:39.925Z</time>
      </trkpt>
      <trkpt lat="43.3473" lon="3.59069">
        <ele>45</ele>
        <time>2016-04-17T12:19:42.094Z</time>
      </trkpt>
      <trkpt lat="43.34733" lon="3.59072">
        <ele>45</ele>
        <time>2016-04-17T12:19:42.926Z</time>
      </trkpt>
      <trkpt lat="43.34741" lon="3.59075">
        <ele>46</ele>
        <time>2016-04-17T12:19:44.953Z</time>
      </trkpt>
      <trkpt lat="43.34745" lon="3.59071">
        <ele>46</ele>
        <time>2016-04-17T12:19:45.927Z</time>
      </trkpt>
      <trkpt lat="43.34751" lon="3.59065">
        <ele>45</ele>
        <time>2016-04-17T12:19:47.955Z</time>
      </trkpt>
      <trkpt lat="43.34754" lon="3.59061">
        <ele>45</ele>
        <time>2016-04-17T12:19:48.924Z</time>
      </trkpt>
      <trkpt lat="43.34757" lon="3.59058">
        <ele>45</ele>
        <time>2016-04-17T12:19:49.955Z</time>
      </trkpt>
      <trkpt lat="43.34761" lon="3.59052">
        <ele>43</ele>
        <time>2016-04-17T12:19:50.927Z</time>
      </trkpt>
      <trkpt lat="43.34766" lon="3.59043">
        <ele>44</ele>
        <time>2016-04-17T12:19:52.954Z</time>
      </trkpt>
      <trkpt lat="43.34769" lon="3.59039">
        <ele>45</ele>
        <time>2016-04-17T12:19:53.926Z</time>
      </trkpt>
      <trkpt lat="43.34775" lon="3.59031">
        <ele>45</ele>
        <time>2016-04-17T12:19:55.953Z</time>
      </trkpt>
      <trkpt lat="43.34779" lon="3.59028">
        <ele>46</ele>
        <time>2016-04-17T12:19:56.926Z</time>
      </trkpt>
      <trkpt lat="43.34786" lon="3.59028">
        <ele>46</ele>
        <time>2016-04-17T12:19:58.954Z</time>
      </trkpt>
      <trkpt lat="43.34791" lon="3.59032">
        <ele>45</ele>
        <time>2016-04-17T12:19:59.926Z</time>
      </trkpt>
      <trkpt lat="43.34795" lon="3.59034">
        <ele>45</ele>
        <time>2016-04-17T12:20:00.940Z</time>
      </trkpt>
      <trkpt lat="43.348" lon="3.59042">
        <ele>45</ele>
        <time>2016-04-17T12:20:01.926Z</time>
      </trkpt>
      <trkpt lat="43.34803" lon="3.59046">
        <ele>45</ele>
        <time>2016-04-17T12:20:02.948Z</time>
      </trkpt>
      <trkpt lat="43.34808" lon="3.59051">
        <ele>44</ele>
        <time>2016-04-17T12:20:03.927Z</time>
      </trkpt>
      <trkpt lat="43.34814" lon="3.59056">
        <ele>44</ele>
        <time>2016-04-17T12:20:06.087Z</time>
      </trkpt>
      <trkpt lat="43.34817" lon="3.59059">
        <ele>43</ele>
        <time>2016-04-17T12:20:06.928Z</time>
      </trkpt>
      <trkpt lat="43.34823" lon="3.59059">
        <ele>43</ele>
        <time>2016-04-17T12:20:07.985Z</time>
      </trkpt>
      <trkpt lat="43.34828" lon="3.59063">
        <ele>44</ele>
        <time>2016-04-17T12:20:08.926Z</time>
      </trkpt>
      <trkpt lat="43.34832" lon="3.59064">
        <ele>46</ele>
        <time>2016-04-17T12:20:09.952Z</time>
      </trkpt>
      <trkpt lat="43.34836" lon="3.59069">
        <ele>45</ele>
        <time>2016-04-17T12:20:10.926Z</time>
      </trkpt>
      <trkpt lat="43.34843" lon="3.59075">
        <ele>46</ele>
        <time>2016-04-17T12:20:12.952Z</time>
      </trkpt>
      <trkpt lat="43.34846" lon="3.59079">
        <ele>47</ele>
        <time>2016-04-17T12:20:13.927Z</time>
      </trkpt>
      <trkpt lat="43.34852" lon="3.59088">
        <ele>47</ele>
        <time>2016-04-17T12:20:15.954Z</time>
      </trkpt>
      <trkpt lat="43.34856" lon="3.59098">
        <ele>44</ele>
        <time>2016-04-17T12:20:16.929Z</time>
      </trkpt>
      <trkpt lat="43.34861" lon="3.59107">
        <ele>43</ele>
        <time>2016-04-17T12:20:18.967Z</time>
      </trkpt>
      <trkpt lat="43.34865" lon="3.59112">
        <ele>43</ele>
        <time>2016-04-17T12:20:19.926Z</time>
      </trkpt>
      <trkpt lat="43.3487" lon="3.59119">
        <ele>42</ele>
        <time>2016-04-17T12:20:21.953Z</time>
      </trkpt>
      <trkpt lat="43.34872" lon="3.59122">
        <ele>42</ele>
        <time>2016-04-17T12:20:22.922Z</time>
      </trkpt>
      <trkpt lat="43.34875" lon="3.59128">
        <ele>44</ele>
        <time>2016-04-17T12:20:23.958Z</time>
      </trkpt>
      <trkpt lat="43.34879" lon="3.59133">
        <ele>43</ele>
        <time>2016-04-17T12:20:24.929Z</time>
      </trkpt>
      <trkpt lat="43.34884" lon="3.59143">
        <ele>43</ele>
        <time>2016-04-17T12:20:26.953Z</time>
      </trkpt>
      <trkpt lat="43.34887" lon="3.59147">
        <ele>42</ele>
        <time>2016-04-17T12:20:27.926Z</time>
      </trkpt>
      <trkpt lat="43.34892" lon="3.59156">
        <ele>43</ele>
        <time>2016-04-17T12:20:29.954Z</time>
      </trkpt>
      <trkpt lat="43.34894" lon="3.59161">
        <ele>43</ele>
        <time>2016-04-17T12:20:30.923Z</time>
      </trkpt>
      <trkpt lat="43.34898" lon="3.59166">
        <ele>43</ele>
        <time>2016-04-17T12:20:31.955Z</time>
      </trkpt>
      <trkpt lat="43.34902" lon="3.59172">
        <ele>43</ele>
        <time>2016-04-17T12:20:32.925Z</time>
      </trkpt>
      <trkpt lat="43.34905" lon="3.59177">
        <ele>43</ele>
        <time>2016-04-17T12:20:33.953Z</time>
      </trkpt>
      <trkpt lat="43.34908" lon="3.59185">
        <ele>43</ele>
        <time>2016-04-17T12:20:34.928Z</time>
      </trkpt>
      <trkpt lat="43.34908" lon="3.59185">
        <ele>43</ele>
        <time>2016-04-17T12:20:34.972Z</time>
      </trkpt>
      <trkpt lat="43.3491" lon="3.592">
        <ele>40</ele>
        <time>2016-04-17T12:20:35.927Z</time>
      </trkpt>
      <trkpt lat="43.34916" lon="3.59206">
        <ele>44</ele>
        <time>2016-04-17T12:20:37.955Z</time>
      </trkpt>
      <trkpt lat="43.34918" lon="3.59211">
        <ele>44</ele>
        <time>2016-04-17T12:20:38.928Z</time>
      </trkpt>
      <trkpt lat="43.34924" lon="3.59219">
        <ele>44</ele>
        <time>2016-04-17T12:20:40.953Z</time>
      </trkpt>
      <trkpt lat="43.34927" lon="3.59221">
        <ele>44</ele>
        <time>2016-04-17T12:20:41.927Z</time>
      </trkpt>
      <trkpt lat="43.34931" lon="3.59229">
        <ele>42</ele>
        <time>2016-04-17T12:20:43.954Z</time>
      </trkpt>
      <trkpt lat="43.34934" lon="3.59233">
        <ele>42</ele>
        <time>2016-04-17T12:20:44.927Z</time>
      </trkpt>
      <trkpt lat="43.3494" lon="3.59239">
        <ele>44</ele>
        <time>2016-04-17T12:20:46.944Z</time>
      </trkpt>
      <trkpt lat="43.34942" lon="3.59242">
        <ele>45</ele>
        <time>2016-04-17T12:20:47.925Z</time>
      </trkpt>
      <trkpt lat="43.34949" lon="3.59249">
        <ele>45</ele>
        <time>2016-04-17T12:20:49.955Z</time>
      </trkpt>
      <trkpt lat="43.34953" lon="3.5925">
        <ele>45</ele>
        <time>2016-04-17T12:20:50.927Z</time>
      </trkpt>
      <trkpt lat="43.3496" lon="3.59254">
        <ele>45</ele>
        <time>2016-04-17T12:20:52.952Z</time>
      </trkpt>
      <trkpt lat="43.34965" lon="3.59256">
        <ele>45</ele>
        <time>2016-04-17T12:20:53.927Z</time>
      </trkpt>
      <trkpt lat="43.34973" lon="3.5926">
        <ele>44</ele>
        <time>2016-04-17T12:20:55.981Z</time>
      </trkpt>
      <trkpt lat="43.34978" lon="3.59263">
        <ele>45</ele>
        <time>2016-04-17T12:20:56.926Z</time>
      </trkpt>
      <trkpt lat="43.34982" lon="3.59267">
        <ele>46</ele>
        <time>2016-04-17T12:20:57.954Z</time>
      </trkpt>
      <trkpt lat="43.34985" lon="3.5927">
        <ele>46</ele>
        <time>2016-04-17T12:20:58.926Z</time>
      </trkpt>
      <trkpt lat="43.34991" lon="3.59277">
        <ele>47</ele>
        <time>2016-04-17T12:21:00.951Z</time>
      </trkpt>
      <trkpt lat="43.34994" lon="3.59281">
        <ele>48</ele>
        <time>2016-04-17T12:21:01.929Z</time>
      </trkpt>
      <trkpt lat="43.35" lon="3.59287">
        <ele>48</ele>
        <time>2016-04-17T12:21:03.963Z</time>
      </trkpt>
      <trkpt lat="43.35002" lon="3.59291">
        <ele>48</ele>
        <time>2016-04-17T12:21:04.926Z</time>
      </trkpt>
      <trkpt lat="43.35007" lon="3.59296">
        <ele>48</ele>
        <time>2016-04-17T12:21:07.076Z</time>
      </trkpt>
      <trkpt lat="43.3501" lon="3.59304">
        <ele>47</ele>
        <time>2016-04-17T12:21:07.926Z</time>
      </trkpt>
      <trkpt lat="43.35013" lon="3.59307">
        <ele>49</ele>
        <time>2016-04-17T12:21:08.954Z</time>
      </trkpt>
      <trkpt lat="43.35016" lon="3.59316">
        <ele>48</ele>
        <time>2016-04-17T12:21:09.928Z</time>
      </trkpt>
      <trkpt lat="43.35023" lon="3.59324">
        <ele>49</ele>
        <time>2016-04-17T12:21:11.982Z</time>
      </trkpt>
      <trkpt lat="43.35026" lon="3.5933">
        <ele>47</ele>
        <time>2016-04-17T12:21:12.926Z</time>
      </trkpt>
      <trkpt lat="43.35033" lon="3.59337">
        <ele>48</ele>
        <time>2016-04-17T12:21:14.955Z</time>
      </trkpt>
      <trkpt lat="43.35037" lon="3.5934">
        <ele>48</ele>
        <time>2016-04-17T12:21:15.927Z</time>
      </trkpt>
      <trkpt lat="43.35044" lon="3.59343">
        <ele>48</ele>
        <time>2016-04-17T12:21:17.954Z</time>
      </trkpt>
      <trkpt lat="43.35048" lon="3.59345">
        <ele>48</ele>
        <time>2016-04-17T12:21:19.082Z</time>
      </trkpt>
      <trkpt lat="43.35055" lon="3.59351">
        <ele>47</ele>
        <time>2016-04-17T12:21:20.955Z</time>
      </trkpt>
      <trkpt lat="43.35059" lon="3.59355">
        <ele>46</ele>
        <time>2016-04-17T12:21:21.927Z</time>
      </trkpt>
      <trkpt lat="43.35061" lon="3.5936">
        <ele>46</ele>
        <time>2016-04-17T12:21:22.946Z</time>
      </trkpt>
      <trkpt lat="43.35064" lon="3.59365">
        <ele>46</ele>
        <time>2016-04-17T12:21:23.927Z</time>
      </trkpt>
      <trkpt lat="43.35067" lon="3.5937">
        <ele>46</ele>
        <time>2016-04-17T12:21:24.957Z</time>
      </trkpt>
      <trkpt lat="43.3507" lon="3.59376">
        <ele>46</ele>
        <time>2016-04-17T12:21:25.926Z</time>
      </trkpt>
      <trkpt lat="43.35073" lon="3.59381">
        <ele>46</ele>
        <time>2016-04-17T12:21:26.955Z</time>
      </trkpt>
      <trkpt lat="43.35077" lon="3.59386">
        <ele>47</ele>
        <time>2016-04-17T12:21:27.926Z</time>
      </trkpt>
      <trkpt lat="43.3508" lon="3.59391">
        <ele>46</ele>
        <time>2016-04-17T12:21:28.954Z</time>
      </trkpt>
      <trkpt lat="43.35082" lon="3.59396">
        <ele>47</ele>
        <time>2016-04-17T12:21:29.927Z</time>
      </trkpt>
      <trkpt lat="43.35088" lon="3.59404">
        <ele>48</ele>
        <time>2016-04-17T12:21:31.954Z</time>
      </trkpt>
      <trkpt lat="43.35091" lon="3.59408">
        <ele>48</ele>
        <time>2016-04-17T12:21:32.955Z</time>
      </trkpt>
      <trkpt lat="43.35094" lon="3.59413">
        <ele>48</ele>
        <time>2016-04-17T12:21:33.950Z</time>
      </trkpt>
      <trkpt lat="43.35099" lon="3.59426">
        <ele>43</ele>
        <time>2016-04-17T12:21:34.926Z</time>
      </trkpt>
      <trkpt lat="43.35104" lon="3.59433">
        <ele>44</ele>
        <time>2016-04-17T12:21:36.947Z</time>
      </trkpt>
      <trkpt lat="43.35107" lon="3.59437">
        <ele>45</ele>
        <time>2016-04-17T12:21:37.926Z</time>
      </trkpt>
      <trkpt lat="43.35113" lon="3.59442">
        <ele>46</ele>
        <time>2016-04-17T12:21:39.957Z</time>
      </trkpt>
      <trkpt lat="43.35117" lon="3.59444">
        <ele>48</ele>
        <time>2016-04-17T12:21:40.926Z</time>
      </trkpt>
      <trkpt lat="43.35124" lon="3.59447">
        <ele>47</ele>
        <time>2016-04-17T12:21:42.955Z</time>
      </trkpt>
      <trkpt lat="43.35128" lon="3.59449">
        <ele>47</ele>
        <time>2016-04-17T12:21:43.927Z</time>
      </trkpt>
      <trkpt lat="43.35135" lon="3.59454">
        <ele>48</ele>
        <time>2016-04-17T12:21:45.953Z</time>
      </trkpt>
      <trkpt lat="43.35138" lon="3.59457">
        <ele>50</ele>
        <time>2016-04-17T12:21:46.925Z</time>
      </trkpt>
      <trkpt lat="43.35142" lon="3.59462">
        <ele>49</ele>
        <time>2016-04-17T12:21:47.953Z</time>
      </trkpt>
      <trkpt lat="43.35146" lon="3.59466">
        <ele>50</ele>
        <time>2016-04-17T12:21:48.927Z</time>
      </trkpt>
      <trkpt lat="43.35149" lon="3.59472">
        <ele>49</ele>
        <time>2016-04-17T12:21:49.954Z</time>
      </trkpt>
      <trkpt lat="43.35152" lon="3.59477">
        <ele>49</ele>
        <time>2016-04-17T12:21:50.926Z</time>
      </trkpt>
      <trkpt lat="43.35156" lon="3.59484">
        <ele>47</ele>
        <time>2016-04-17T12:21:51.957Z</time>
      </trkpt>
      <trkpt lat="43.35158" lon="3.59486">
        <ele>47</ele>
        <time>2016-04-17T12:21:52.925Z</time>
      </trkpt>
      <trkpt lat="43.35163" lon="3.59496">
        <ele>47</ele>
        <time>2016-04-17T12:21:54.954Z</time>
      </trkpt>
      <trkpt lat="43.35166" lon="3.59502">
        <ele>46</ele>
        <time>2016-04-17T12:21:55.928Z</time>
      </trkpt>
      <trkpt lat="43.35168" lon="3.59507">
        <ele>47</ele>
        <time>2016-04-17T12:21:56.953Z</time>
      </trkpt>
      <trkpt lat="43.35171" lon="3.59513">
        <ele>47</ele>
        <time>2016-04-17T12:21:57.926Z</time>
      </trkpt>
      <trkpt lat="43.35174" lon="3.59518">
        <ele>48</ele>
        <time>2016-04-17T12:21:58.956Z</time>
      </trkpt>
      <trkpt lat="43.35177" lon="3.59523">
        <ele>47</ele>
        <time>2016-04-17T12:21:59.928Z</time>
      </trkpt>
      <trkpt lat="43.3518" lon="3.59529">
        <ele>47</ele>
        <time>2016-04-17T12:22:00.944Z</time>
      </trkpt>
      <trkpt lat="43.35182" lon="3.59535">
        <ele>47</ele>
        <time>2016-04-17T12:22:01.927Z</time>
      </trkpt>
      <trkpt lat="43.35187" lon="3.59544">
        <ele>48</ele>
        <time>2016-04-17T12:22:03.957Z</time>
      </trkpt>
      <trkpt lat="43.3519" lon="3.59548">
        <ele>48</ele>
        <time>2016-04-17T12:22:04.923Z</time>
      </trkpt>
      <trkpt lat="43.35195" lon="3.59557">
        <ele>49</ele>
        <time>2016-04-17T12:22:06.948Z</time>
      </trkpt>
      <trkpt lat="43.35198" lon="3.59562">
        <ele>48</ele>
        <time>2016-04-17T12:22:07.927Z</time>
      </trkpt>
      <trkpt lat="43.35202" lon="3.5957">
        <ele>47</ele>
        <time>2016-04-17T12:22:09.982Z</time>
      </trkpt>
      <trkpt lat="43.35205" lon="3.59575">
        <ele>46</ele>
        <time>2016-04-17T12:22:10.927Z</time>
      </trkpt>
      <trkpt lat="43.35209" lon="3.59584">
        <ele>46</ele>
        <time>2016-04-17T12:22:12.954Z</time>
      </trkpt>
      <trkpt lat="43.35213" lon="3.59589">
        <ele>44</ele>
        <time>2016-04-17T12:22:13.926Z</time>
      </trkpt>
      <trkpt lat="43.35218" lon="3.59599">
        <ele>44</ele>
        <time>2016-04-17T12:22:15.955Z</time>
      </trkpt>
      <trkpt lat="43.35221" lon="3.59603">
        <ele>44</ele>
        <time>2016-04-17T12:22:16.927Z</time>
      </trkpt>
      <trkpt lat="43.35226" lon="3.5961">
        <ele>45</ele>
        <time>2016-04-17T12:22:19.097Z</time>
      </trkpt>
      <trkpt lat="43.35228" lon="3.59614">
        <ele>44</ele>
        <time>2016-04-17T12:22:19.926Z</time>
      </trkpt>
      <trkpt lat="43.35233" lon="3.5962">
        <ele>45</ele>
        <time>2016-04-17T12:22:21.949Z</time>
      </trkpt>
      <trkpt lat="43.35236" lon="3.59624">
        <ele>45</ele>
        <time>2016-04-17T12:22:22.926Z</time>
      </trkpt>
      <trkpt lat="43.3524" lon="3.59628">
        <ele>45</ele>
        <time>2016-04-17T12:22:23.956Z</time>
      </trkpt>
      <trkpt lat="43.35243" lon="3.59632">
        <ele>45</ele>
        <time>2016-04-17T12:22:24.927Z</time>
      </trkpt>
      <trkpt lat="43.35247" lon="3.59637">
        <ele>46</ele>
        <time>2016-04-17T12:22:25.953Z</time>
      </trkpt>
      <trkpt lat="43.3525" lon="3.59641">
        <ele>46</ele>
        <time>2016-04-17T12:22:26.922Z</time>
      </trkpt>
      <trkpt lat="43.35254" lon="3.59646">
        <ele>48</ele>
        <time>2016-04-17T12:22:28.954Z</time>
      </trkpt>
      <trkpt lat="43.35258" lon="3.5965">
        <ele>46</ele>
        <time>2016-04-17T12:22:29.926Z</time>
      </trkpt>
      <trkpt lat="43.3526" lon="3.59654">
        <ele>47</ele>
        <time>2016-04-17T12:22:30.948Z</time>
      </trkpt>
      <trkpt lat="43.35264" lon="3.5966">
        <ele>46</ele>
        <time>2016-04-17T12:22:31.925Z</time>
      </trkpt>
      <trkpt lat="43.35269" lon="3.59668">
        <ele>47</ele>
        <time>2016-04-17T12:22:33.948Z</time>
      </trkpt>
      <trkpt lat="43.35272" lon="3.59672">
        <ele>47</ele>
        <time>2016-04-17T12:22:34.926Z</time>
      </trkpt>
      <trkpt lat="43.35277" lon="3.59679">
        <ele>47</ele>
        <time>2016-04-17T12:22:36.945Z</time>
      </trkpt>
      <trkpt lat="43.3528" lon="3.59686">
        <ele>47</ele>
        <time>2016-04-17T12:22:37.927Z</time>
      </trkpt>
      <trkpt lat="43.35285" lon="3.59694">
        <ele>48</ele>
        <time>2016-04-17T12:22:39.950Z</time>
      </trkpt>
      <trkpt lat="43.35288" lon="3.59698">
        <ele>48</ele>
        <time>2016-04-17T12:22:40.924Z</time>
      </trkpt>
      <trkpt lat="43.35291" lon="3.59706">
        <ele>46</ele>
        <time>2016-04-17T12:22:41.948Z</time>
      </trkpt>
      <trkpt lat="43.35295" lon="3.59711">
        <ele>46</ele>
        <time>2016-04-17T12:22:42.934Z</time>
      </trkpt>
      <trkpt lat="43.35297" lon="3.59716">
        <ele>46</ele>
        <time>2016-04-17T12:22:43.954Z</time>
      </trkpt>
      <trkpt lat="43.353" lon="3.59721">
        <ele>46</ele>
        <time>2016-04-17T12:22:44.926Z</time>
      </trkpt>
      <trkpt lat="43.35304" lon="3.5973">
        <ele>48</ele>
        <time>2016-04-17T12:22:46.982Z</time>
      </trkpt>
      <trkpt lat="43.35308" lon="3.59735">
        <ele>46</ele>
        <time>2016-04-17T12:22:47.927Z</time>
      </trkpt>
      <trkpt lat="43.35312" lon="3.59745">
        <ele>46</ele>
        <time>2016-04-17T12:22:49.943Z</time>
      </trkpt>
      <trkpt lat="43.35316" lon="3.59748">
        <ele>46</ele>
        <time>2016-04-17T12:22:50.926Z</time>
      </trkpt>
      <trkpt lat="43.35318" lon="3.59753">
        <ele>47</ele>
        <time>2016-04-17T12:22:51.980Z</time>
      </trkpt>
      <trkpt lat="43.35322" lon="3.59758">
        <ele>45</ele>
        <time>2016-04-17T12:22:52.931Z</time>
      </trkpt>
      <trkpt lat="43.35326" lon="3.59761">
        <ele>45</ele>
        <time>2016-04-17T12:22:54.086Z</time>
      </trkpt>
      <trkpt lat="43.35331" lon="3.59764">
        <ele>44</ele>
        <time>2016-04-17T12:22:54.926Z</time>
      </trkpt>
      <trkpt lat="43.35339" lon="3.59767">
        <ele>44</ele>
        <time>2016-04-17T12:22:56.949Z</time>
      </trkpt>
      <trkpt lat="43.35342" lon="3.59769">
        <ele>44</ele>
        <time>2016-04-17T12:22:57.926Z</time>
      </trkpt>
      <trkpt lat="43.35347" lon="3.59771">
        <ele>43</ele>
        <time>2016-04-17T12:22:58.949Z</time>
      </trkpt>
      <trkpt lat="43.35351" lon="3.59774">
        <ele>44</ele>
        <time>2016-04-17T12:22:59.925Z</time>
      </trkpt>
      <trkpt lat="43.35355" lon="3.59778">
        <ele>44</ele>
        <time>2016-04-17T12:23:00.939Z</time>
      </trkpt>
      <trkpt lat="43.3536" lon="3.59783">
        <ele>45</ele>
        <time>2016-04-17T12:23:01.926Z</time>
      </trkpt>
      <trkpt lat="43.35364" lon="3.59788">
        <ele>44</ele>
        <time>2016-04-17T12:23:02.976Z</time>
      </trkpt>
      <trkpt lat="43.35367" lon="3.59793">
        <ele>46</ele>
        <time>2016-04-17T12:23:03.925Z</time>
      </trkpt>
      <trkpt lat="43.3537" lon="3.59798">
        <ele>46</ele>
        <time>2016-04-17T12:23:05.090Z</time>
      </trkpt>
      <trkpt lat="43.35374" lon="3.59803">
        <ele>46</ele>
        <time>2016-04-17T12:23:05.928Z</time>
      </trkpt>
      <trkpt lat="43.35377" lon="3.59809">
        <ele>47</ele>
        <time>2016-04-17T12:23:06.946Z</time>
      </trkpt>
      <trkpt lat="43.3538" lon="3.59814">
        <ele>47</ele>
        <time>2016-04-17T12:23:07.927Z</time>
      </trkpt>
      <trkpt lat="43.35383" lon="3.59818">
        <ele>47</ele>
        <time>2016-04-17T12:23:08.952Z</time>
      </trkpt>
      <trkpt lat="43.35386" lon="3.59823">
        <ele>47</ele>
        <time>2016-04-17T12:23:09.926Z</time>
      </trkpt>
      <trkpt lat="43.35389" lon="3.59829">
        <ele>48</ele>
        <time>2016-04-17T12:23:10.950Z</time>
      </trkpt>
      <trkpt lat="43.35393" lon="3.59833">
        <ele>48</ele>
        <time>2016-04-17T12:23:11.926Z</time>
      </trkpt>
      <trkpt lat="43.35396" lon="3.59838">
        <ele>49</ele>
        <time>2016-04-17T12:23:12.949Z</time>
      </trkpt>
      <trkpt lat="43.35399" lon="3.59843">
        <ele>49</ele>
        <time>2016-04-17T12:23:13.925Z</time>
      </trkpt>
      <trkpt lat="43.35404" lon="3.59853">
        <ele>50</ele>
        <time>2016-04-17T12:23:15.956Z</time>
      </trkpt>
      <trkpt lat="43.35407" lon="3.59857">
        <ele>50</ele>
        <time>2016-04-17T12:23:16.927Z</time>
      </trkpt>
      <trkpt lat="43.35413" lon="3.59864">
        <ele>49</ele>
        <time>2016-04-17T12:23:18.970Z</time>
      </trkpt>
      <trkpt lat="43.35415" lon="3.59866">
        <ele>50</ele>
        <time>2016-04-17T12:23:19.925Z</time>
      </trkpt>
      <trkpt lat="43.35419" lon="3.59874">
        <ele>52</ele>
        <time>2016-04-17T12:23:21.949Z</time>
      </trkpt>
      <trkpt lat="43.35421" lon="3.59878">
        <ele>53</ele>
        <time>2016-04-17T12:23:22.929Z</time>
      </trkpt>
      <trkpt lat="43.35424" lon="3.59887">
        <ele>51</ele>
        <time>2016-04-17T12:23:23.950Z</time>
      </trkpt>
      <trkpt lat="43.35426" lon="3.5989">
        <ele>52</ele>
        <time>2016-04-17T12:23:24.926Z</time>
      </trkpt>
      <trkpt lat="43.35432" lon="3.59899">
        <ele>51</ele>
        <time>2016-04-17T12:23:26.953Z</time>
      </trkpt>
      <trkpt lat="43.35435" lon="3.59903">
        <ele>51</ele>
        <time>2016-04-17T12:23:27.928Z</time>
      </trkpt>
      <trkpt lat="43.3544" lon="3.59911">
        <ele>51</ele>
        <time>2016-04-17T12:23:29.955Z</time>
      </trkpt>
      <trkpt lat="43.35442" lon="3.59914">
        <ele>50</ele>
        <time>2016-04-17T12:23:30.930Z</time>
      </trkpt>
      <trkpt lat="43.35447" lon="3.59921">
        <ele>49</ele>
        <time>2016-04-17T12:23:32.948Z</time>
      </trkpt>
      <trkpt lat="43.35452" lon="3.59933">
        <ele>47</ele>
        <time>2016-04-17T12:23:33.927Z</time>
      </trkpt>
      <trkpt lat="43.35457" lon="3.59942">
        <ele>47</ele>
        <time>2016-04-17T12:23:35.954Z</time>
      </trkpt>
      <trkpt lat="43.35462" lon="3.59947">
        <ele>45</ele>
        <time>2016-04-17T12:23:36.927Z</time>
      </trkpt>
      <trkpt lat="43.35468" lon="3.59954">
        <ele>44</ele>
        <time>2016-04-17T12:23:38.955Z</time>
      </trkpt>
      <trkpt lat="43.35471" lon="3.59959">
        <ele>44</ele>
        <time>2016-04-17T12:23:39.951Z</time>
      </trkpt>
      <trkpt lat="43.35474" lon="3.59964">
        <ele>44</ele>
        <time>2016-04-17T12:23:40.954Z</time>
      </trkpt>
      <trkpt lat="43.35478" lon="3.5997">
        <ele>43</ele>
        <time>2016-04-17T12:23:41.927Z</time>
      </trkpt>
      <trkpt lat="43.35481" lon="3.59975">
        <ele>43</ele>
        <time>2016-04-17T12:23:42.955Z</time>
      </trkpt>
      <trkpt lat="43.35485" lon="3.59979">
        <ele>44</ele>
        <time>2016-04-17T12:23:43.926Z</time>
      </trkpt>
      <trkpt lat="43.35489" lon="3.59983">
        <ele>45</ele>
        <time>2016-04-17T12:23:44.954Z</time>
      </trkpt>
      <trkpt lat="43.35493" lon="3.59984">
        <ele>46</ele>
        <time>2016-04-17T12:23:45.927Z</time>
      </trkpt>
      <trkpt lat="43.35497" lon="3.59986">
        <ele>45</ele>
        <time>2016-04-17T12:23:47.017Z</time>
      </trkpt>
      <trkpt lat="43.35502" lon="3.59986">
        <ele>46</ele>
        <time>2016-04-17T12:23:47.928Z</time>
      </trkpt>
      <trkpt lat="43.3551" lon="3.59988">
        <ele>45</ele>
        <time>2016-04-17T12:23:49.954Z</time>
      </trkpt>
      <trkpt lat="43.35514" lon="3.59987">
        <ele>46</ele>
        <time>2016-04-17T12:23:50.927Z</time>
      </trkpt>
      <trkpt lat="43.35521" lon="3.59991">
        <ele>45</ele>
        <time>2016-04-17T12:23:52.954Z</time>
      </trkpt>
      <trkpt lat="43.35523" lon="3.59994">
        <ele>47</ele>
        <time>2016-04-17T12:23:53.927Z</time>
      </trkpt>
      <trkpt lat="43.3553" lon="3.60002">
        <ele>46</ele>
        <time>2016-04-17T12:23:55.975Z</time>
      </trkpt>
      <trkpt lat="43.35532" lon="3.6001">
        <ele>46</ele>
        <time>2016-04-17T12:23:56.930Z</time>
      </trkpt>
      <trkpt lat="43.35538" lon="3.60018">
        <ele>47</ele>
        <time>2016-04-17T12:23:58.956Z</time>
      </trkpt>
      <trkpt lat="43.3554" lon="3.60022">
        <ele>48</ele>
        <time>2016-04-17T12:23:59.930Z</time>
      </trkpt>
      <trkpt lat="43.35543" lon="3.60026">
        <ele>46</ele>
        <time>2016-04-17T12:24:00.952Z</time>
      </trkpt>
      <trkpt lat="43.35548" lon="3.60039">
        <ele>44</ele>
        <time>2016-04-17T12:24:01.926Z</time>
      </trkpt>
      <trkpt lat="43.35552" lon="3.60047">
        <ele>47</ele>
        <time>2016-04-17T12:24:03.958Z</time>
      </trkpt>
      <trkpt lat="43.35555" lon="3.60051">
        <ele>47</ele>
        <time>2016-04-17T12:24:04.929Z</time>
      </trkpt>
      <trkpt lat="43.35555" lon="3.60051">
        <ele>47</ele>
        <time>2016-04-17T12:24:04.979Z</time>
      </trkpt>
      <trkpt lat="43.35558" lon="3.60063">
        <ele>42</ele>
        <time>2016-04-17T12:24:05.928Z</time>
      </trkpt>
      <trkpt lat="43.35564" lon="3.60071">
        <ele>40</ele>
        <time>2016-04-17T12:24:07.953Z</time>
      </trkpt>
      <trkpt lat="43.35567" lon="3.60075">
        <ele>40</ele>
        <time>2016-04-17T12:24:08.922Z</time>
      </trkpt>
      <trkpt lat="43.35571" lon="3.6008">
        <ele>41</ele>
        <time>2016-04-17T12:24:09.958Z</time>
      </trkpt>
      <trkpt lat="43.35574" lon="3.60086">
        <ele>40</ele>
        <time>2016-04-17T12:24:10.929Z</time>
      </trkpt>
      <trkpt lat="43.35576" lon="3.60092">
        <ele>39</ele>
        <time>2016-04-17T12:24:11.957Z</time>
      </trkpt>
      <trkpt lat="43.35579" lon="3.60097">
        <ele>40</ele>
        <time>2016-04-17T12:24:12.927Z</time>
      </trkpt>
      <trkpt lat="43.35583" lon="3.60101">
        <ele>40</ele>
        <time>2016-04-17T12:24:13.956Z</time>
      </trkpt>
      <trkpt lat="43.35586" lon="3.60106">
        <ele>39</ele>
        <time>2016-04-17T12:24:14.931Z</time>
      </trkpt>
      <trkpt lat="43.3559" lon="3.6011">
        <ele>39</ele>
        <time>2016-04-17T12:24:15.956Z</time>
      </trkpt>
      <trkpt lat="43.35593" lon="3.60115">
        <ele>39</ele>
        <time>2016-04-17T12:24:16.951Z</time>
      </trkpt>
      <trkpt lat="43.35596" lon="3.60121">
        <ele>39</ele>
        <time>2016-04-17T12:24:17.953Z</time>
      </trkpt>
      <trkpt lat="43.35599" lon="3.60125">
        <ele>40</ele>
        <time>2016-04-17T12:24:18.927Z</time>
      </trkpt>
      <trkpt lat="43.35605" lon="3.60133">
        <ele>40</ele>
        <time>2016-04-17T12:24:20.956Z</time>
      </trkpt>
      <trkpt lat="43.35608" lon="3.60137">
        <ele>41</ele>
        <time>2016-04-17T12:24:21.926Z</time>
      </trkpt>
      <trkpt lat="43.35616" lon="3.60141">
        <ele>42</ele>
        <time>2016-04-17T12:24:23.955Z</time>
      </trkpt>
      <trkpt lat="43.35619" lon="3.60143">
        <ele>42</ele>
        <time>2016-04-17T12:24:24.929Z</time>
      </trkpt>
      <trkpt lat="43.35626" lon="3.60146">
        <ele>42</ele>
        <time>2016-04-17T12:24:26.953Z</time>
      </trkpt>
      <trkpt lat="43.35629" lon="3.60148">
        <ele>42</ele>
        <time>2016-04-17T12:24:27.927Z</time>
      </trkpt>
      <trkpt lat="43.35636" lon="3.60153">
        <ele>42</ele>
        <time>2016-04-17T12:24:29.959Z</time>
      </trkpt>
      <trkpt lat="43.35639" lon="3.60157">
        <ele>42</ele>
        <time>2016-04-17T12:24:30.923Z</time>
      </trkpt>
      <trkpt lat="43.35643" lon="3.60162">
        <ele>42</ele>
        <time>2016-04-17T12:24:31.951Z</time>
      </trkpt>
      <trkpt lat="43.35646" lon="3.60166">
        <ele>43</ele>
        <time>2016-04-17T12:24:32.952Z</time>
      </trkpt>
      <trkpt lat="43.35651" lon="3.60171">
        <ele>43</ele>
        <time>2016-04-17T12:24:34.959Z</time>
      </trkpt>
      <trkpt lat="43.35655" lon="3.60175">
        <ele>43</ele>
        <time>2016-04-17T12:24:35.926Z</time>
      </trkpt>
      <trkpt lat="43.35658" lon="3.60179">
        <ele>43</ele>
        <time>2016-04-17T12:24:36.955Z</time>
      </trkpt>
      <trkpt lat="43.35661" lon="3.60185">
        <ele>44</ele>
        <time>2016-04-17T12:24:37.927Z</time>
      </trkpt>
      <trkpt lat="43.35664" lon="3.6019">
        <ele>44</ele>
        <time>2016-04-17T12:24:38.953Z</time>
      </trkpt>
      <trkpt lat="43.35668" lon="3.60195">
        <ele>44</ele>
        <time>2016-04-17T12:24:39.927Z</time>
      </trkpt>
      <trkpt lat="43.35672" lon="3.60202">
        <ele>44</ele>
        <time>2016-04-17T12:24:40.955Z</time>
      </trkpt>
      <trkpt lat="43.35675" lon="3.60206">
        <ele>44</ele>
        <time>2016-04-17T12:24:42.072Z</time>
      </trkpt>
      <trkpt lat="43.35679" lon="3.60211">
        <ele>44</ele>
        <time>2016-04-17T12:24:42.952Z</time>
      </trkpt>
      <trkpt lat="43.35682" lon="3.60215">
        <ele>43</ele>
        <time>2016-04-17T12:24:43.928Z</time>
      </trkpt>
      <trkpt lat="43.35689" lon="3.60222">
        <ele>41</ele>
        <time>2016-04-17T12:24:45.956Z</time>
      </trkpt>
      <trkpt lat="43.35691" lon="3.60226">
        <ele>41</ele>
        <time>2016-04-17T12:24:46.926Z</time>
      </trkpt>
      <trkpt lat="43.35696" lon="3.60235">
        <ele>41</ele>
        <time>2016-04-17T12:24:48.982Z</time>
      </trkpt>
      <trkpt lat="43.35698" lon="3.60239">
        <ele>42</ele>
        <time>2016-04-17T12:24:49.929Z</time>
      </trkpt>
      <trkpt lat="43.35702" lon="3.60249">
        <ele>42</ele>
        <time>2016-04-17T12:24:51.954Z</time>
      </trkpt>
      <trkpt lat="43.35705" lon="3.60253">
        <ele>42</ele>
        <time>2016-04-17T12:24:52.928Z</time>
      </trkpt>
      <trkpt lat="43.3571" lon="3.60261">
        <ele>42</ele>
        <time>2016-04-17T12:24:54.954Z</time>
      </trkpt>
      <trkpt lat="43.35711" lon="3.60264">
        <ele>43</ele>
        <time>2016-04-17T12:24:55.927Z</time>
      </trkpt>
      <trkpt lat="43.35717" lon="3.60273">
        <ele>45</ele>
        <time>2016-04-17T12:24:57.954Z</time>
      </trkpt>
      <trkpt lat="43.3572" lon="3.60277">
        <ele>45</ele>
        <time>2016-04-17T12:24:58.927Z</time>
      </trkpt>
      <trkpt lat="43.35725" lon="3.60285">
        <ele>45</ele>
        <time>2016-04-17T12:25:00.961Z</time>
      </trkpt>
      <trkpt lat="43.3573" lon="3.60292">
        <ele>43</ele>
        <time>2016-04-17T12:25:01.929Z</time>
      </trkpt>
      <trkpt lat="43.35733" lon="3.60298">
        <ele>43</ele>
        <time>2016-04-17T12:25:02.958Z</time>
      </trkpt>
      <trkpt lat="43.35735" lon="3.60303">
        <ele>43</ele>
        <time>2016-04-17T12:25:03.929Z</time>
      </trkpt>
      <trkpt lat="43.35738" lon="3.60308">
        <ele>42</ele>
        <time>2016-04-17T12:25:05.119Z</time>
      </trkpt>
      <trkpt lat="43.35741" lon="3.60313">
        <ele>42</ele>
        <time>2016-04-17T12:25:05.925Z</time>
      </trkpt>
      <trkpt lat="43.35746" lon="3.60321">
        <ele>43</ele>
        <time>2016-04-17T12:25:07.954Z</time>
      </trkpt>
      <trkpt lat="43.35749" lon="3.60326">
        <ele>43</ele>
        <time>2016-04-17T12:25:08.925Z</time>
      </trkpt>
      <trkpt lat="43.35752" lon="3.6033">
        <ele>43</ele>
        <time>2016-04-17T12:25:09.959Z</time>
      </trkpt>
      <trkpt lat="43.35755" lon="3.60338">
        <ele>41</ele>
        <time>2016-04-17T12:25:10.925Z</time>
      </trkpt>
      <trkpt lat="43.35758" lon="3.60343">
        <ele>41</ele>
        <time>2016-04-17T12:25:11.954Z</time>
      </trkpt>
      <trkpt lat="43.35761" lon="3.60348">
        <ele>42</ele>
        <time>2016-04-17T12:25:12.927Z</time>
      </trkpt>
      <trkpt lat="43.35767" lon="3.60356">
        <ele>43</ele>
        <time>2016-04-17T12:25:14.958Z</time>
      </trkpt>
      <trkpt lat="43.35772" lon="3.6036">
        <ele>43</ele>
        <time>2016-04-17T12:25:15.926Z</time>
      </trkpt>
      <trkpt lat="43.35775" lon="3.60365">
        <ele>44</ele>
        <time>2016-04-17T12:25:16.954Z</time>
      </trkpt>
      <trkpt lat="43.35778" lon="3.60369">
        <ele>45</ele>
        <time>2016-04-17T12:25:17.927Z</time>
      </trkpt>
      <trkpt lat="43.35786" lon="3.60375">
        <ele>47</ele>
        <time>2016-04-17T12:25:19.958Z</time>
      </trkpt>
      <trkpt lat="43.35791" lon="3.60377">
        <ele>48</ele>
        <time>2016-04-17T12:25:20.953Z</time>
      </trkpt>
      <trkpt lat="43.35795" lon="3.60377">
        <ele>48</ele>
        <time>2016-04-17T12:25:21.954Z</time>
      </trkpt>
      <trkpt lat="43.358" lon="3.60376">
        <ele>50</ele>
        <time>2016-04-17T12:25:22.926Z</time>
      </trkpt>
      <trkpt lat="43.35805" lon="3.60376">
        <ele>51</ele>
        <time>2016-04-17T12:25:23.954Z</time>
      </trkpt>
      <trkpt lat="43.3581" lon="3.60375">
        <ele>50</ele>
        <time>2016-04-17T12:25:24.927Z</time>
      </trkpt>
      <trkpt lat="43.35814" lon="3.60378">
        <ele>49</ele>
        <time>2016-04-17T12:25:25.955Z</time>
      </trkpt>
      <trkpt lat="43.35818" lon="3.60381">
        <ele>49</ele>
        <time>2016-04-17T12:25:26.925Z</time>
      </trkpt>
      <trkpt lat="43.35824" lon="3.60388">
        <ele>49</ele>
        <time>2016-04-17T12:25:28.954Z</time>
      </trkpt>
      <trkpt lat="43.35827" lon="3.60392">
        <ele>49</ele>
        <time>2016-04-17T12:25:29.927Z</time>
      </trkpt>
      <trkpt lat="43.35832" lon="3.60399">
        <ele>48</ele>
        <time>2016-04-17T12:25:31.953Z</time>
      </trkpt>
      <trkpt lat="43.35835" lon="3.60403">
        <ele>48</ele>
        <time>2016-04-17T12:25:32.931Z</time>
      </trkpt>
      <trkpt lat="43.35839" lon="3.60413">
        <ele>49</ele>
        <time>2016-04-17T12:25:34.960Z</time>
      </trkpt>
      <trkpt lat="43.35842" lon="3.60417">
        <ele>49</ele>
        <time>2016-04-17T12:25:35.922Z</time>
      </trkpt>
      <trkpt lat="43.35842" lon="3.60417">
        <ele>49</ele>
        <time>2016-04-17T12:25:35.959Z</time>
      </trkpt>
      <trkpt lat="43.35845" lon="3.60429">
        <ele>46</ele>
        <time>2016-04-17T12:25:36.927Z</time>
      </trkpt>
      <trkpt lat="43.35849" lon="3.60438">
        <ele>47</ele>
        <time>2016-04-17T12:25:38.949Z</time>
      </trkpt>
      <trkpt lat="43.35852" lon="3.60443">
        <ele>48</ele>
        <time>2016-04-17T12:25:39.927Z</time>
      </trkpt>
      <trkpt lat="43.35855" lon="3.60447">
        <ele>48</ele>
        <time>2016-04-17T12:25:40.953Z</time>
      </trkpt>
      <trkpt lat="43.35859" lon="3.60452">
        <ele>48</ele>
        <time>2016-04-17T12:25:42.087Z</time>
      </trkpt>
      <trkpt lat="43.35861" lon="3.60457">
        <ele>48</ele>
        <time>2016-04-17T12:25:42.954Z</time>
      </trkpt>
      <trkpt lat="43.35864" lon="3.60463">
        <ele>47</ele>
        <time>2016-04-17T12:25:43.928Z</time>
      </trkpt>
      <trkpt lat="43.35867" lon="3.60468">
        <ele>46</ele>
        <time>2016-04-17T12:25:45.022Z</time>
      </trkpt>
      <trkpt lat="43.35871" lon="3.60473">
        <ele>46</ele>
        <time>2016-04-17T12:25:45.927Z</time>
      </trkpt>
      <trkpt lat="43.35874" lon="3.60477">
        <ele>47</ele>
        <time>2016-04-17T12:25:46.956Z</time>
      </trkpt>
      <trkpt lat="43.35876" lon="3.60485">
        <ele>45</ele>
        <time>2016-04-17T12:25:47.927Z</time>
      </trkpt>
      <trkpt lat="43.35879" lon="3.60493">
        <ele>44</ele>
        <time>2016-04-17T12:25:48.954Z</time>
      </trkpt>
      <trkpt lat="43.35881" lon="3.60496">
        <ele>44</ele>
        <time>2016-04-17T12:25:49.926Z</time>
      </trkpt>
      <trkpt lat="43.35884" lon="3.60501">
        <ele>44</ele>
        <time>2016-04-17T12:25:50.948Z</time>
      </trkpt>
      <trkpt lat="43.35888" lon="3.60505">
        <ele>43</ele>
        <time>2016-04-17T12:25:51.927Z</time>
      </trkpt>
      <trkpt lat="43.35894" lon="3.60513">
        <ele>44</ele>
        <time>2016-04-17T12:25:53.950Z</time>
      </trkpt>
      <trkpt lat="43.35897" lon="3.60516">
        <ele>45</ele>
        <time>2016-04-17T12:25:54.931Z</time>
      </trkpt>
      <trkpt lat="43.359" lon="3.60522">
        <ele>44</ele>
        <time>2016-04-17T12:25:55.956Z</time>
      </trkpt>
      <trkpt lat="43.35903" lon="3.60526">
        <ele>43</ele>
        <time>2016-04-17T12:25:56.926Z</time>
      </trkpt>
      <trkpt lat="43.35908" lon="3.60536">
        <ele>44</ele>
        <time>2016-04-17T12:25:58.955Z</time>
      </trkpt>
      <trkpt lat="43.35911" lon="3.60542">
        <ele>45</ele>
        <time>2016-04-17T12:25:59.927Z</time>
      </trkpt>
      <trkpt lat="43.35917" lon="3.60548">
        <ele>47</ele>
        <time>2016-04-17T12:26:02.027Z</time>
      </trkpt>
      <trkpt lat="43.3592" lon="3.60552">
        <ele>48</ele>
        <time>2016-04-17T12:26:02.929Z</time>
      </trkpt>
      <trkpt lat="43.35925" lon="3.6056">
        <ele>49</ele>
        <time>2016-04-17T12:26:04.957Z</time>
      </trkpt>
      <trkpt lat="43.35928" lon="3.60564">
        <ele>49</ele>
        <time>2016-04-17T12:26:05.925Z</time>
      </trkpt>
      <trkpt lat="43.35931" lon="3.60569">
        <ele>49</ele>
        <time>2016-04-17T12:26:06.952Z</time>
      </trkpt>
      <trkpt lat="43.35935" lon="3.60574">
        <ele>47</ele>
        <time>2016-04-17T12:26:07.927Z</time>
      </trkpt>
      <trkpt lat="43.35938" lon="3.60578">
        <ele>47</ele>
        <time>2016-04-17T12:26:08.955Z</time>
      </trkpt>
      <trkpt lat="43.35941" lon="3.60583">
        <ele>45</ele>
        <time>2016-04-17T12:26:09.927Z</time>
      </trkpt>
      <trkpt lat="43.35944" lon="3.60587">
        <ele>46</ele>
        <time>2016-04-17T12:26:10.951Z</time>
      </trkpt>
      <trkpt lat="43.35948" lon="3.60592">
        <ele>45</ele>
        <time>2016-04-17T12:26:11.928Z</time>
      </trkpt>
      <trkpt lat="43.35953" lon="3.606">
        <ele>44</ele>
        <time>2016-04-17T12:26:13.982Z</time>
      </trkpt>
      <trkpt lat="43.35957" lon="3.60603">
        <ele>44</ele>
        <time>2016-04-17T12:26:14.927Z</time>
      </trkpt>
      <trkpt lat="43.35959" lon="3.60608">
        <ele>45</ele>
        <time>2016-04-17T12:26:15.949Z</time>
      </trkpt>
      <trkpt lat="43.35962" lon="3.60613">
        <ele>45</ele>
        <time>2016-04-17T12:26:16.927Z</time>
      </trkpt>
      <trkpt lat="43.35965" lon="3.60618">
        <ele>46</ele>
        <time>2016-04-17T12:26:17.952Z</time>
      </trkpt>
      <trkpt lat="43.35969" lon="3.60623">
        <ele>46</ele>
        <time>2016-04-17T12:26:18.927Z</time>
      </trkpt>
      <trkpt lat="43.35972" lon="3.60628">
        <ele>47</ele>
        <time>2016-04-17T12:26:19.957Z</time>
      </trkpt>
      <trkpt lat="43.35976" lon="3.60637">
        <ele>45</ele>
        <time>2016-04-17T12:26:20.927Z</time>
      </trkpt>
      <trkpt lat="43.35979" lon="3.60641">
        <ele>45</ele>
        <time>2016-04-17T12:26:21.959Z</time>
      </trkpt>
      <trkpt lat="43.35982" lon="3.60646">
        <ele>45</ele>
        <time>2016-04-17T12:26:22.927Z</time>
      </trkpt>
      <trkpt lat="43.35985" lon="3.6065">
        <ele>44</ele>
        <time>2016-04-17T12:26:23.955Z</time>
      </trkpt>
      <trkpt lat="43.35988" lon="3.60655">
        <ele>45</ele>
        <time>2016-04-17T12:26:24.928Z</time>
      </trkpt>
      <trkpt lat="43.35993" lon="3.60664">
        <ele>46</ele>
        <time>2016-04-17T12:26:26.953Z</time>
      </trkpt>
      <trkpt lat="43.35996" lon="3.60669">
        <ele>46</ele>
        <time>2016-04-17T12:26:27.926Z</time>
      </trkpt>
      <trkpt lat="43.35998" lon="3.60673">
        <ele>45</ele>
        <time>2016-04-17T12:26:28.955Z</time>
      </trkpt>
      <trkpt lat="43.36001" lon="3.6068">
        <ele>45</ele>
        <time>2016-04-17T12:26:29.958Z</time>
      </trkpt>
      <trkpt lat="43.36006" lon="3.60688">
        <ele>43</ele>
        <time>2016-04-17T12:26:31.956Z</time>
      </trkpt>
      <trkpt lat="43.36009" lon="3.60692">
        <ele>43</ele>
        <time>2016-04-17T12:26:32.929Z</time>
      </trkpt>
      <trkpt lat="43.36015" lon="3.60701">
        <ele>43</ele>
        <time>2016-04-17T12:26:34.959Z</time>
      </trkpt>
      <trkpt lat="43.36018" lon="3.60705">
        <ele>43</ele>
        <time>2016-04-17T12:26:35.929Z</time>
      </trkpt>
      <trkpt lat="43.36021" lon="3.60709">
        <ele>43</ele>
        <time>2016-04-17T12:26:36.955Z</time>
      </trkpt>
      <trkpt lat="43.36026" lon="3.60718">
        <ele>40</ele>
        <time>2016-04-17T12:26:37.927Z</time>
      </trkpt>
      <trkpt lat="43.36032" lon="3.60725">
        <ele>42</ele>
        <time>2016-04-17T12:26:39.952Z</time>
      </trkpt>
      <trkpt lat="43.36035" lon="3.60728">
        <ele>42</ele>
        <time>2016-04-17T12:26:40.928Z</time>
      </trkpt>
      <trkpt lat="43.36042" lon="3.60732">
        <ele>42</ele>
        <time>2016-04-17T12:26:42.957Z</time>
      </trkpt>
      <trkpt lat="43.36046" lon="3.6073">
        <ele>43</ele>
        <time>2016-04-17T12:26:43.927Z</time>
      </trkpt>
      <trkpt lat="43.36053" lon="3.60722">
        <ele>43</ele>
        <time>2016-04-17T12:26:45.982Z</time>
      </trkpt>
      <trkpt lat="43.36056" lon="3.60717">
        <ele>44</ele>
        <time>2016-04-17T12:26:46.929Z</time>
      </trkpt>
      <trkpt lat="43.3606" lon="3.60713">
        <ele>45</ele>
        <time>2016-04-17T12:26:47.958Z</time>
      </trkpt>
      <trkpt lat="43.36066" lon="3.6071">
        <ele>46</ele>
        <time>2016-04-17T12:26:48.929Z</time>
      </trkpt>
      <trkpt lat="43.3607" lon="3.60709">
        <ele>47</ele>
        <time>2016-04-17T12:26:49.958Z</time>
      </trkpt>
      <trkpt lat="43.36075" lon="3.60709">
        <ele>47</ele>
        <time>2016-04-17T12:26:50.927Z</time>
      </trkpt>
      <trkpt lat="43.3608" lon="3.6071">
        <ele>46</ele>
        <time>2016-04-17T12:26:51.954Z</time>
      </trkpt>
      <trkpt lat="43.36086" lon="3.60711">
        <ele>45</ele>
        <time>2016-04-17T12:26:52.926Z</time>
      </trkpt>
      <trkpt lat="43.36093" lon="3.60718">
        <ele>47</ele>
        <time>2016-04-17T12:26:54.957Z</time>
      </trkpt>
      <trkpt lat="43.36096" lon="3.60723">
        <ele>47</ele>
        <time>2016-04-17T12:26:55.926Z</time>
      </trkpt>
      <trkpt lat="43.36099" lon="3.60728">
        <ele>48</ele>
        <time>2016-04-17T12:26:56.954Z</time>
      </trkpt>
      <trkpt lat="43.36102" lon="3.60733">
        <ele>49</ele>
        <time>2016-04-17T12:26:57.927Z</time>
      </trkpt>
      <trkpt lat="43.36105" lon="3.60738">
        <ele>49</ele>
        <time>2016-04-17T12:26:58.962Z</time>
      </trkpt>
      <trkpt lat="43.36109" lon="3.60744">
        <ele>49</ele>
        <time>2016-04-17T12:26:59.928Z</time>
      </trkpt>
      <trkpt lat="43.36112" lon="3.6075">
        <ele>50</ele>
        <time>2016-04-17T12:27:00.946Z</time>
      </trkpt>
      <trkpt lat="43.36115" lon="3.60755">
        <ele>48</ele>
        <time>2016-04-17T12:27:01.925Z</time>
      </trkpt>
      <trkpt lat="43.3612" lon="3.60762">
        <ele>49</ele>
        <time>2016-04-17T12:27:04.089Z</time>
      </trkpt>
      <trkpt lat="43.36123" lon="3.60767">
        <ele>50</ele>
        <time>2016-04-17T12:27:04.924Z</time>
      </trkpt>
      <trkpt lat="43.36128" lon="3.60777">
        <ele>51</ele>
        <time>2016-04-17T12:27:06.983Z</time>
      </trkpt>
      <trkpt lat="43.36131" lon="3.60782">
        <ele>51</ele>
        <time>2016-04-17T12:27:07.926Z</time>
      </trkpt>
      <trkpt lat="43.36134" lon="3.60787">
        <ele>51</ele>
        <time>2016-04-17T12:27:08.946Z</time>
      </trkpt>
      <trkpt lat="43.36137" lon="3.60791">
        <ele>50</ele>
        <time>2016-04-17T12:27:09.926Z</time>
      </trkpt>
      <trkpt lat="43.36142" lon="3.60799">
        <ele>50</ele>
        <time>2016-04-17T12:27:11.953Z</time>
      </trkpt>
      <trkpt lat="43.36145" lon="3.60804">
        <ele>48</ele>
        <time>2016-04-17T12:27:12.927Z</time>
      </trkpt>
      <trkpt lat="43.36149" lon="3.6081">
        <ele>48</ele>
        <time>2016-04-17T12:27:13.954Z</time>
      </trkpt>
      <trkpt lat="43.36152" lon="3.60815">
        <ele>48</ele>
        <time>2016-04-17T12:27:14.923Z</time>
      </trkpt>
      <trkpt lat="43.36156" lon="3.60826">
        <ele>43</ele>
        <time>2016-04-17T12:27:15.954Z</time>
      </trkpt>
      <trkpt lat="43.36159" lon="3.6083">
        <ele>43</ele>
        <time>2016-04-17T12:27:16.930Z</time>
      </trkpt>
      <trkpt lat="43.36166" lon="3.60838">
        <ele>43</ele>
        <time>2016-04-17T12:27:18.956Z</time>
      </trkpt>
      <trkpt lat="43.36168" lon="3.60842">
        <ele>45</ele>
        <time>2016-04-17T12:27:19.926Z</time>
      </trkpt>
      <trkpt lat="43.36174" lon="3.6085">
        <ele>43</ele>
        <time>2016-04-17T12:27:21.955Z</time>
      </trkpt>
      <trkpt lat="43.36176" lon="3.60855">
        <ele>43</ele>
        <time>2016-04-17T12:27:22.930Z</time>
      </trkpt>
      <trkpt lat="43.3618" lon="3.60859">
        <ele>43</ele>
        <time>2016-04-17T12:27:23.956Z</time>
      </trkpt>
      <trkpt lat="43.36182" lon="3.60864">
        <ele>44</ele>
        <time>2016-04-17T12:27:24.928Z</time>
      </trkpt>
      <trkpt lat="43.36188" lon="3.60872">
        <ele>44</ele>
        <time>2016-04-17T12:27:26.953Z</time>
      </trkpt>
      <trkpt lat="43.36191" lon="3.60876">
        <ele>44</ele>
        <time>2016-04-17T12:27:27.949Z</time>
      </trkpt>
      <trkpt lat="43.36194" lon="3.60878">
        <ele>44</ele>
        <time>2016-04-17T12:27:29.068Z</time>
      </trkpt>
      <trkpt lat="43.36195" lon="3.6089">
        <ele>43</ele>
        <time>2016-04-17T12:27:29.927Z</time>
      </trkpt>
      <trkpt lat="43.36202" lon="3.60898">
        <ele>43</ele>
        <time>2016-04-17T12:27:31.954Z</time>
      </trkpt>
      <trkpt lat="43.36205" lon="3.60902">
        <ele>43</ele>
        <time>2016-04-17T12:27:32.926Z</time>
      </trkpt>
      <trkpt lat="43.3621" lon="3.6091">
        <ele>45</ele>
        <time>2016-04-17T12:27:34.960Z</time>
      </trkpt>
      <trkpt lat="43.36213" lon="3.60914">
        <ele>46</ele>
        <time>2016-04-17T12:27:35.926Z</time>
      </trkpt>
      <trkpt lat="43.36217" lon="3.6092">
        <ele>44</ele>
        <time>2016-04-17T12:27:36.955Z</time>
      </trkpt>
      <trkpt lat="43.36219" lon="3.60924">
        <ele>45</ele>
        <time>2016-04-17T12:27:37.927Z</time>
      </trkpt>
      <trkpt lat="43.36222" lon="3.60929">
        <ele>46</ele>
        <time>2016-04-17T12:27:38.959Z</time>
      </trkpt>
      <trkpt lat="43.36224" lon="3.60935">
        <ele>45</ele>
        <time>2016-04-17T12:27:39.926Z</time>
      </trkpt>
      <trkpt lat="43.36227" lon="3.60939">
        <ele>46</ele>
        <time>2016-04-17T12:27:41.084Z</time>
      </trkpt>
      <trkpt lat="43.36232" lon="3.60943">
        <ele>45</ele>
        <time>2016-04-17T12:27:41.928Z</time>
      </trkpt>
      <trkpt lat="43.36235" lon="3.60948">
        <ele>45</ele>
        <time>2016-04-17T12:27:42.953Z</time>
      </trkpt>
      <trkpt lat="43.36238" lon="3.60954">
        <ele>44</ele>
        <time>2016-04-17T12:27:43.948Z</time>
      </trkpt>
      <trkpt lat="43.36242" lon="3.60959">
        <ele>44</ele>
        <time>2016-04-17T12:27:44.959Z</time>
      </trkpt>
      <trkpt lat="43.36245" lon="3.60964">
        <ele>44</ele>
        <time>2016-04-17T12:27:45.927Z</time>
      </trkpt>
      <trkpt lat="43.36249" lon="3.60971">
        <ele>43</ele>
        <time>2016-04-17T12:27:46.956Z</time>
      </trkpt>
      <trkpt lat="43.36252" lon="3.60976">
        <ele>43</ele>
        <time>2016-04-17T12:27:47.927Z</time>
      </trkpt>
      <trkpt lat="43.36256" lon="3.60983">
        <ele>42</ele>
        <time>2016-04-17T12:27:48.954Z</time>
      </trkpt>
      <trkpt lat="43.3626" lon="3.60989">
        <ele>43</ele>
        <time>2016-04-17T12:27:49.928Z</time>
      </trkpt>
      <trkpt lat="43.36263" lon="3.60995">
        <ele>43</ele>
        <time>2016-04-17T12:27:50.956Z</time>
      </trkpt>
      <trkpt lat="43.36266" lon="3.61">
        <ele>43</ele>
        <time>2016-04-17T12:27:51.926Z</time>
      </trkpt>
      <trkpt lat="43.3627" lon="3.61007">
        <ele>44</ele>
        <time>2016-04-17T12:27:53.093Z</time>
      </trkpt>
      <trkpt lat="43.36273" lon="3.61013">
        <ele>44</ele>
        <time>2016-04-17T12:27:53.928Z</time>
      </trkpt>
      <trkpt lat="43.36277" lon="3.6102">
        <ele>44</ele>
        <time>2016-04-17T12:27:54.947Z</time>
      </trkpt>
      <trkpt lat="43.3628" lon="3.61026">
        <ele>44</ele>
        <time>2016-04-17T12:27:55.928Z</time>
      </trkpt>
      <trkpt lat="43.36283" lon="3.6103">
        <ele>45</ele>
        <time>2016-04-17T12:27:56.962Z</time>
      </trkpt>
      <trkpt lat="43.36287" lon="3.61039">
        <ele>44</ele>
        <time>2016-04-17T12:27:57.927Z</time>
      </trkpt>
      <trkpt lat="43.3629" lon="3.61044">
        <ele>43</ele>
        <time>2016-04-17T12:27:58.960Z</time>
      </trkpt>
      <trkpt lat="43.36293" lon="3.61049">
        <ele>43</ele>
        <time>2016-04-17T12:27:59.928Z</time>
      </trkpt>
      <trkpt lat="43.36296" lon="3.61054">
        <ele>43</ele>
        <time>2016-04-17T12:28:00.943Z</time>
      </trkpt>
      <trkpt lat="43.36299" lon="3.61058">
        <ele>43</ele>
        <time>2016-04-17T12:28:01.927Z</time>
      </trkpt>
      <trkpt lat="43.36302" lon="3.61065">
        <ele>42</ele>
        <time>2016-04-17T12:28:03.030Z</time>
      </trkpt>
      <trkpt lat="43.36305" lon="3.61071">
        <ele>43</ele>
        <time>2016-04-17T12:28:03.926Z</time>
      </trkpt>
      <trkpt lat="43.36306" lon="3.6108">
        <ele>43</ele>
        <time>2016-04-17T12:28:04.984Z</time>
      </trkpt>
      <trkpt lat="43.36309" lon="3.61083">
        <ele>43</ele>
        <time>2016-04-17T12:28:05.927Z</time>
      </trkpt>
      <trkpt lat="43.36314" lon="3.61091">
        <ele>44</ele>
        <time>2016-04-17T12:28:07.948Z</time>
      </trkpt>
      <trkpt lat="43.36317" lon="3.61096">
        <ele>45</ele>
        <time>2016-04-17T12:28:08.925Z</time>
      </trkpt>
      <trkpt lat="43.36322" lon="3.61104">
        <ele>45</ele>
        <time>2016-04-17T12:28:10.958Z</time>
      </trkpt>
      <trkpt lat="43.36325" lon="3.61107">
        <ele>47</ele>
        <time>2016-04-17T12:28:11.926Z</time>
      </trkpt>
      <trkpt lat="43.36328" lon="3.61111">
        <ele>47</ele>
        <time>2016-04-17T12:28:12.957Z</time>
      </trkpt>
      <trkpt lat="43.36331" lon="3.61116">
        <ele>46</ele>
        <time>2016-04-17T12:28:13.928Z</time>
      </trkpt>
      <trkpt lat="43.36336" lon="3.61124">
        <ele>48</ele>
        <time>2016-04-17T12:28:15.953Z</time>
      </trkpt>
      <trkpt lat="43.3634" lon="3.61128">
        <ele>47</ele>
        <time>2016-04-17T12:28:16.928Z</time>
      </trkpt>
      <trkpt lat="43.36343" lon="3.61136">
        <ele>46</ele>
        <time>2016-04-17T12:28:17.956Z</time>
      </trkpt>
      <trkpt lat="43.36347" lon="3.6114">
        <ele>44</ele>
        <time>2016-04-17T12:28:18.927Z</time>
      </trkpt>
      <trkpt lat="43.36349" lon="3.61145">
        <ele>45</ele>
        <time>2016-04-17T12:28:19.961Z</time>
      </trkpt>
      <trkpt lat="43.36354" lon="3.61152">
        <ele>43</ele>
        <time>2016-04-17T12:28:20.928Z</time>
      </trkpt>
      <trkpt lat="43.3636" lon="3.61158">
        <ele>43</ele>
        <time>2016-04-17T12:28:22.954Z</time>
      </trkpt>
      <trkpt lat="43.36363" lon="3.61161">
        <ele>44</ele>
        <time>2016-04-17T12:28:23.929Z</time>
      </trkpt>
      <trkpt lat="43.36368" lon="3.61171">
        <ele>43</ele>
        <time>2016-04-17T12:28:25.983Z</time>
      </trkpt>
      <trkpt lat="43.36371" lon="3.61175">
        <ele>43</ele>
        <time>2016-04-17T12:28:26.924Z</time>
      </trkpt>
      <trkpt lat="43.36378" lon="3.61183">
        <ele>45</ele>
        <time>2016-04-17T12:28:28.958Z</time>
      </trkpt>
      <trkpt lat="43.36381" lon="3.61194">
        <ele>44</ele>
        <time>2016-04-17T12:28:29.927Z</time>
      </trkpt>
      <trkpt lat="43.36384" lon="3.61198">
        <ele>44</ele>
        <time>2016-04-17T12:28:30.946Z</time>
      </trkpt>
      <trkpt lat="43.36388" lon="3.61202">
        <ele>42</ele>
        <time>2016-04-17T12:28:31.927Z</time>
      </trkpt>
      <trkpt lat="43.36391" lon="3.61207">
        <ele>43</ele>
        <time>2016-04-17T12:28:32.948Z</time>
      </trkpt>
      <trkpt lat="43.36394" lon="3.61212">
        <ele>41</ele>
        <time>2016-04-17T12:28:33.927Z</time>
      </trkpt>
      <trkpt lat="43.364" lon="3.6122">
        <ele>42</ele>
        <time>2016-04-17T12:28:35.954Z</time>
      </trkpt>
      <trkpt lat="43.36402" lon="3.61224">
        <ele>42</ele>
        <time>2016-04-17T12:28:36.945Z</time>
      </trkpt>
      <trkpt lat="43.36409" lon="3.61231">
        <ele>42</ele>
        <time>2016-04-17T12:28:38.957Z</time>
      </trkpt>
      <trkpt lat="43.36413" lon="3.61235">
        <ele>43</ele>
        <time>2016-04-17T12:28:39.928Z</time>
      </trkpt>
      <trkpt lat="43.36418" lon="3.61243">
        <ele>43</ele>
        <time>2016-04-17T12:28:41.956Z</time>
      </trkpt>
      <trkpt lat="43.36422" lon="3.61247">
        <ele>42</ele>
        <time>2016-04-17T12:28:42.927Z</time>
      </trkpt>
      <trkpt lat="43.36427" lon="3.61257">
        <ele>43</ele>
        <time>2016-04-17T12:28:44.957Z</time>
      </trkpt>
      <trkpt lat="43.36429" lon="3.61262">
        <ele>43</ele>
        <time>2016-04-17T12:28:45.927Z</time>
      </trkpt>
      <trkpt lat="43.36433" lon="3.61267">
        <ele>43</ele>
        <time>2016-04-17T12:28:46.957Z</time>
      </trkpt>
      <trkpt lat="43.36436" lon="3.61272">
        <ele>45</ele>
        <time>2016-04-17T12:28:47.927Z</time>
      </trkpt>
      <trkpt lat="43.36442" lon="3.6128">
        <ele>44</ele>
        <time>2016-04-17T12:28:49.959Z</time>
      </trkpt>
      <trkpt lat="43.36445" lon="3.61285">
        <ele>44</ele>
        <time>2016-04-17T12:28:50.926Z</time>
      </trkpt>
      <trkpt lat="43.36448" lon="3.61289">
        <ele>44</ele>
        <time>2016-04-17T12:28:52.083Z</time>
      </trkpt>
      <trkpt lat="43.36451" lon="3.61294">
        <ele>44</ele>
        <time>2016-04-17T12:28:52.951Z</time>
      </trkpt>
      <trkpt lat="43.36456" lon="3.61303">
        <ele>44</ele>
        <time>2016-04-17T12:28:54.957Z</time>
      </trkpt>
      <trkpt lat="43.36459" lon="3.61308">
        <ele>44</ele>
        <time>2016-04-17T12:28:55.928Z</time>
      </trkpt>
      <trkpt lat="43.36462" lon="3.61313">
        <ele>45</ele>
        <time>2016-04-17T12:28:56.959Z</time>
      </trkpt>
      <trkpt lat="43.36466" lon="3.61318">
        <ele>44</ele>
        <time>2016-04-17T12:28:57.929Z</time>
      </trkpt>
      <trkpt lat="43.36471" lon="3.61326">
        <ele>40</ele>
        <time>2016-04-17T12:28:58.959Z</time>
      </trkpt>
      <trkpt lat="43.36474" lon="3.61331">
        <ele>40</ele>
        <time>2016-04-17T12:28:59.928Z</time>
      </trkpt>
      <trkpt lat="43.36477" lon="3.61335">
        <ele>39</ele>
        <time>2016-04-17T12:29:00.945Z</time>
      </trkpt>
      <trkpt lat="43.3648" lon="3.6134">
        <ele>40</ele>
        <time>2016-04-17T12:29:01.925Z</time>
      </trkpt>
      <trkpt lat="43.36483" lon="3.61346">
        <ele>41</ele>
        <time>2016-04-17T12:29:02.948Z</time>
      </trkpt>
      <trkpt lat="43.36486" lon="3.61353">
        <ele>41</ele>
        <time>2016-04-17T12:29:03.928Z</time>
      </trkpt>
      <trkpt lat="43.36491" lon="3.61363">
        <ele>42</ele>
        <time>2016-04-17T12:29:05.956Z</time>
      </trkpt>
      <trkpt lat="43.36492" lon="3.61369">
        <ele>42</ele>
        <time>2016-04-17T12:29:06.930Z</time>
      </trkpt>
      <trkpt lat="43.36498" lon="3.61378">
        <ele>43</ele>
        <time>2016-04-17T12:29:08.976Z</time>
      </trkpt>
      <trkpt lat="43.36501" lon="3.61385">
        <ele>41</ele>
        <time>2016-04-17T12:29:09.927Z</time>
      </trkpt>
      <trkpt lat="43.36504" lon="3.6139">
        <ele>42</ele>
        <time>2016-04-17T12:29:10.959Z</time>
      </trkpt>
      <trkpt lat="43.36507" lon="3.61396">
        <ele>42</ele>
        <time>2016-04-17T12:29:11.928Z</time>
      </trkpt>
      <trkpt lat="43.36512" lon="3.61404">
        <ele>43</ele>
        <time>2016-04-17T12:29:13.955Z</time>
      </trkpt>
      <trkpt lat="43.36515" lon="3.6141">
        <ele>44</ele>
        <time>2016-04-17T12:29:14.927Z</time>
      </trkpt>
      <trkpt lat="43.36518" lon="3.61415">
        <ele>44</ele>
        <time>2016-04-17T12:29:15.954Z</time>
      </trkpt>
      <trkpt lat="43.36521" lon="3.61419">
        <ele>44</ele>
        <time>2016-04-17T12:29:16.927Z</time>
      </trkpt>
      <trkpt lat="43.36527" lon="3.61428">
        <ele>46</ele>
        <time>2016-04-17T12:29:18.957Z</time>
      </trkpt>
      <trkpt lat="43.36529" lon="3.61433">
        <ele>47</ele>
        <time>2016-04-17T12:29:19.929Z</time>
      </trkpt>
      <trkpt lat="43.36534" lon="3.61442">
        <ele>47</ele>
        <time>2016-04-17T12:29:21.955Z</time>
      </trkpt>
      <trkpt lat="43.36537" lon="3.61446">
        <ele>47</ele>
        <time>2016-04-17T12:29:22.923Z</time>
      </trkpt>
      <trkpt lat="43.36541" lon="3.61454">
        <ele>45</ele>
        <time>2016-04-17T12:29:23.949Z</time>
      </trkpt>
      <trkpt lat="43.36544" lon="3.61459">
        <ele>46</ele>
        <time>2016-04-17T12:29:24.951Z</time>
      </trkpt>
      <trkpt lat="43.3655" lon="3.61467">
        <ele>47</ele>
        <time>2016-04-17T12:29:26.950Z</time>
      </trkpt>
      <trkpt lat="43.36553" lon="3.61471">
        <ele>47</ele>
        <time>2016-04-17T12:29:27.927Z</time>
      </trkpt>
      <trkpt lat="43.36559" lon="3.61478">
        <ele>48</ele>
        <time>2016-04-17T12:29:29.950Z</time>
      </trkpt>
      <trkpt lat="43.36562" lon="3.61482">
        <ele>48</ele>
        <time>2016-04-17T12:29:30.927Z</time>
      </trkpt>
      <trkpt lat="43.36567" lon="3.6149">
        <ele>49</ele>
        <time>2016-04-17T12:29:32.950Z</time>
      </trkpt>
      <trkpt lat="43.3657" lon="3.61494">
        <ele>49</ele>
        <time>2016-04-17T12:29:33.928Z</time>
      </trkpt>
      <trkpt lat="43.36576" lon="3.61503">
        <ele>50</ele>
        <time>2016-04-17T12:29:35.952Z</time>
      </trkpt>
      <trkpt lat="43.36578" lon="3.61507">
        <ele>50</ele>
        <time>2016-04-17T12:29:36.927Z</time>
      </trkpt>
      <trkpt lat="43.36581" lon="3.61512">
        <ele>50</ele>
        <time>2016-04-17T12:29:37.952Z</time>
      </trkpt>
      <trkpt lat="43.36584" lon="3.61516">
        <ele>51</ele>
        <time>2016-04-17T12:29:38.928Z</time>
      </trkpt>
      <trkpt lat="43.3659" lon="3.61525">
        <ele>51</ele>
        <time>2016-04-17T12:29:40.972Z</time>
      </trkpt>
      <trkpt lat="43.36593" lon="3.6153">
        <ele>51</ele>
        <time>2016-04-17T12:29:41.928Z</time>
      </trkpt>
      <trkpt lat="43.36598" lon="3.61539">
        <ele>51</ele>
        <time>2016-04-17T12:29:43.950Z</time>
      </trkpt>
      <trkpt lat="43.36602" lon="3.61546">
        <ele>49</ele>
        <time>2016-04-17T12:29:44.929Z</time>
      </trkpt>
      <trkpt lat="43.36605" lon="3.61552">
        <ele>49</ele>
        <time>2016-04-17T12:29:45.949Z</time>
      </trkpt>
      <trkpt lat="43.36607" lon="3.61557">
        <ele>48</ele>
        <time>2016-04-17T12:29:46.928Z</time>
      </trkpt>
      <trkpt lat="43.36612" lon="3.61566">
        <ele>47</ele>
        <time>2016-04-17T12:29:48.951Z</time>
      </trkpt>
      <trkpt lat="43.36615" lon="3.6157">
        <ele>47</ele>
        <time>2016-04-17T12:29:49.928Z</time>
      </trkpt>
      <trkpt lat="43.36619" lon="3.61578">
        <ele>46</ele>
        <time>2016-04-17T12:29:51.951Z</time>
      </trkpt>
      <trkpt lat="43.36621" lon="3.61582">
        <ele>46</ele>
        <time>2016-04-17T12:29:52.927Z</time>
      </trkpt>
      <trkpt lat="43.36626" lon="3.61589">
        <ele>46</ele>
        <time>2016-04-17T12:29:54.951Z</time>
      </trkpt>
      <trkpt lat="43.36629" lon="3.61593">
        <ele>46</ele>
        <time>2016-04-17T12:29:55.929Z</time>
      </trkpt>
      <trkpt lat="43.36635" lon="3.61599">
        <ele>46</ele>
        <time>2016-04-17T12:29:57.949Z</time>
      </trkpt>
      <trkpt lat="43.36638" lon="3.61601">
        <ele>46</ele>
        <time>2016-04-17T12:29:58.927Z</time>
      </trkpt>
      <trkpt lat="43.36647" lon="3.61603">
        <ele>50</ele>
        <time>2016-04-17T12:30:03.953Z</time>
      </trkpt>
      <trkpt lat="43.36649" lon="3.61606">
        <ele>49</ele>
        <time>2016-04-17T12:30:04.927Z</time>
      </trkpt>
      <trkpt lat="43.36655" lon="3.61614">
        <ele>50</ele>
        <time>2016-04-17T12:30:09.951Z</time>
      </trkpt>
      <trkpt lat="43.36655" lon="3.61616">
        <ele>51</ele>
        <time>2016-04-17T12:30:10.929Z</time>
      </trkpt>
      <trkpt lat="43.36658" lon="3.61622">
        <ele>45</ele>
        <time>2016-04-17T12:34:10.018Z</time>
      </trkpt>
      <trkpt lat="43.36659" lon="3.61622">
        <ele>45</ele>
        <time>2016-04-17T12:34:10.928Z</time>
      </trkpt>
      <trkpt lat="43.36658" lon="3.61623">
        <ele>43</ele>
        <time>2016-04-17T12:34:11.955Z</time>
      </trkpt>
      <trkpt lat="43.36657" lon="3.61623">
        <ele>41</ele>
        <time>2016-04-17T12:34:12.928Z</time>
      </trkpt>
      <trkpt lat="43.36662" lon="3.61632">
        <ele>42</ele>
        <time>2016-04-17T12:35:00.959Z</time>
      </trkpt>
      <trkpt lat="43.36664" lon="3.61633">
        <ele>43</ele>
        <time>2016-04-17T12:35:01.927Z</time>
      </trkpt>
      <trkpt lat="43.36668" lon="3.6164">
        <ele>46</ele>
        <time>2016-04-17T12:35:04.955Z</time>
      </trkpt>
      <trkpt lat="43.3667" lon="3.61644">
        <ele>45</ele>
        <time>2016-04-17T12:35:05.926Z</time>
      </trkpt>
      <trkpt lat="43.36675" lon="3.61652">
        <ele>45</ele>
        <time>2016-04-17T12:35:08.950Z</time>
      </trkpt>
      <trkpt lat="43.36677" lon="3.61655">
        <ele>46</ele>
        <time>2016-04-17T12:35:09.928Z</time>
      </trkpt>
      <trkpt lat="43.36681" lon="3.61661">
        <ele>47</ele>
        <time>2016-04-17T12:35:11.961Z</time>
      </trkpt>
      <trkpt lat="43.36684" lon="3.61664">
        <ele>47</ele>
        <time>2016-04-17T12:35:12.958Z</time>
      </trkpt>
      <trkpt lat="43.36688" lon="3.61672">
        <ele>47</ele>
        <time>2016-04-17T12:35:14.946Z</time>
      </trkpt>
      <trkpt lat="43.3669" lon="3.61674">
        <ele>48</ele>
        <time>2016-04-17T12:35:15.928Z</time>
      </trkpt>
      <trkpt lat="43.36695" lon="3.61681">
        <ele>48</ele>
        <time>2016-04-17T12:35:17.955Z</time>
      </trkpt>
      <trkpt lat="43.36698" lon="3.61685">
        <ele>47</ele>
        <time>2016-04-17T12:35:18.927Z</time>
      </trkpt>
      <trkpt lat="43.36701" lon="3.6169">
        <ele>47</ele>
        <time>2016-04-17T12:35:19.954Z</time>
      </trkpt>
      <trkpt lat="43.36704" lon="3.61694">
        <ele>47</ele>
        <time>2016-04-17T12:35:20.931Z</time>
      </trkpt>
      <trkpt lat="43.36711" lon="3.61701">
        <ele>47</ele>
        <time>2016-04-17T12:35:22.956Z</time>
      </trkpt>
      <trkpt lat="43.36713" lon="3.61705">
        <ele>46</ele>
        <time>2016-04-17T12:35:23.959Z</time>
      </trkpt>
      <trkpt lat="43.36716" lon="3.61709">
        <ele>46</ele>
        <time>2016-04-17T12:35:24.956Z</time>
      </trkpt>
      <trkpt lat="43.36718" lon="3.61716">
        <ele>46</ele>
        <time>2016-04-17T12:35:25.927Z</time>
      </trkpt>
      <trkpt lat="43.36721" lon="3.61722">
        <ele>46</ele>
        <time>2016-04-17T12:35:26.955Z</time>
      </trkpt>
      <trkpt lat="43.36724" lon="3.61726">
        <ele>46</ele>
        <time>2016-04-17T12:35:27.927Z</time>
      </trkpt>
      <trkpt lat="43.3673" lon="3.61732">
        <ele>46</ele>
        <time>2016-04-17T12:35:29.961Z</time>
      </trkpt>
      <trkpt lat="43.36733" lon="3.61736">
        <ele>46</ele>
        <time>2016-04-17T12:35:30.924Z</time>
      </trkpt>
      <trkpt lat="43.36738" lon="3.61737">
        <ele>45</ele>
        <time>2016-04-17T12:35:31.960Z</time>
      </trkpt>
      <trkpt lat="43.36742" lon="3.61741">
        <ele>46</ele>
        <time>2016-04-17T12:35:32.930Z</time>
      </trkpt>
      <trkpt lat="43.36747" lon="3.61744">
        <ele>44</ele>
        <time>2016-04-17T12:35:33.956Z</time>
      </trkpt>
      <trkpt lat="43.3675" lon="3.61748">
        <ele>44</ele>
        <time>2016-04-17T12:35:34.932Z</time>
      </trkpt>
      <trkpt lat="43.36753" lon="3.6175">
        <ele>45</ele>
        <time>2016-04-17T12:35:35.956Z</time>
      </trkpt>
      <trkpt lat="43.36757" lon="3.61758">
        <ele>45</ele>
        <time>2016-04-17T12:35:36.928Z</time>
      </trkpt>
      <trkpt lat="43.36761" lon="3.61762">
        <ele>43</ele>
        <time>2016-04-17T12:35:38.009Z</time>
      </trkpt>
      <trkpt lat="43.36765" lon="3.61767">
        <ele>43</ele>
        <time>2016-04-17T12:35:38.928Z</time>
      </trkpt>
      <trkpt lat="43.3677" lon="3.61774">
        <ele>45</ele>
        <time>2016-04-17T12:35:41.093Z</time>
      </trkpt>
      <trkpt lat="43.36773" lon="3.61783">
        <ele>45</ele>
        <time>2016-04-17T12:35:41.929Z</time>
      </trkpt>
      <trkpt lat="43.36777" lon="3.61792">
        <ele>46</ele>
        <time>2016-04-17T12:35:43.956Z</time>
      </trkpt>
      <trkpt lat="43.36781" lon="3.61795">
        <ele>46</ele>
        <time>2016-04-17T12:35:44.930Z</time>
      </trkpt>
      <trkpt lat="43.36786" lon="3.61804">
        <ele>44</ele>
        <time>2016-04-17T12:35:46.953Z</time>
      </trkpt>
      <trkpt lat="43.36788" lon="3.6181">
        <ele>43</ele>
        <time>2016-04-17T12:35:47.929Z</time>
      </trkpt>
      <trkpt lat="43.3679" lon="3.61815">
        <ele>44</ele>
        <time>2016-04-17T12:35:48.954Z</time>
      </trkpt>
      <trkpt lat="43.36793" lon="3.6182">
        <ele>44</ele>
        <time>2016-04-17T12:35:49.928Z</time>
      </trkpt>
      <trkpt lat="43.36799" lon="3.61827">
        <ele>46</ele>
        <time>2016-04-17T12:35:51.957Z</time>
      </trkpt>
      <trkpt lat="43.36803" lon="3.61834">
        <ele>46</ele>
        <time>2016-04-17T12:35:52.926Z</time>
      </trkpt>
      <trkpt lat="43.3681" lon="3.6184">
        <ele>45</ele>
        <time>2016-04-17T12:35:54.953Z</time>
      </trkpt>
      <trkpt lat="43.36813" lon="3.61844">
        <ele>46</ele>
        <time>2016-04-17T12:35:55.957Z</time>
      </trkpt>
      <trkpt lat="43.36816" lon="3.61847">
        <ele>45</ele>
        <time>2016-04-17T12:35:56.958Z</time>
      </trkpt>
      <trkpt lat="43.3682" lon="3.61853">
        <ele>45</ele>
        <time>2016-04-17T12:35:57.928Z</time>
      </trkpt>
      <trkpt lat="43.36823" lon="3.61857">
        <ele>46</ele>
        <time>2016-04-17T12:35:58.955Z</time>
      </trkpt>
      <trkpt lat="43.36826" lon="3.61861">
        <ele>47</ele>
        <time>2016-04-17T12:35:59.928Z</time>
      </trkpt>
      <trkpt lat="43.3683" lon="3.61865">
        <ele>45</ele>
        <time>2016-04-17T12:36:00.959Z</time>
      </trkpt>
      <trkpt lat="43.36834" lon="3.61869">
        <ele>45</ele>
        <time>2016-04-17T12:36:01.929Z</time>
      </trkpt>
      <trkpt lat="43.3684" lon="3.61877">
        <ele>45</ele>
        <time>2016-04-17T12:36:03.957Z</time>
      </trkpt>
      <trkpt lat="43.36844" lon="3.61881">
        <ele>45</ele>
        <time>2016-04-17T12:36:04.928Z</time>
      </trkpt>
      <trkpt lat="43.3685" lon="3.61888">
        <ele>44</ele>
        <time>2016-04-17T12:36:06.959Z</time>
      </trkpt>
      <trkpt lat="43.36853" lon="3.61891">
        <ele>44</ele>
        <time>2016-04-17T12:36:07.929Z</time>
      </trkpt>
      <trkpt lat="43.36859" lon="3.61899">
        <ele>44</ele>
        <time>2016-04-17T12:36:10.018Z</time>
      </trkpt>
      <trkpt lat="43.36862" lon="3.61902">
        <ele>44</ele>
        <time>2016-04-17T12:36:10.929Z</time>
      </trkpt>
      <trkpt lat="43.36868" lon="3.61911">
        <ele>44</ele>
        <time>2016-04-17T12:36:12.957Z</time>
      </trkpt>
      <trkpt lat="43.36871" lon="3.61916">
        <ele>44</ele>
        <time>2016-04-17T12:36:13.929Z</time>
      </trkpt>
      <trkpt lat="43.36877" lon="3.61922">
        <ele>46</ele>
        <time>2016-04-17T12:36:15.959Z</time>
      </trkpt>
      <trkpt lat="43.36879" lon="3.61926">
        <ele>46</ele>
        <time>2016-04-17T12:36:16.929Z</time>
      </trkpt>
      <trkpt lat="43.36883" lon="3.6193">
        <ele>46</ele>
        <time>2016-04-17T12:36:17.956Z</time>
      </trkpt>
      <trkpt lat="43.36886" lon="3.61934">
        <ele>46</ele>
        <time>2016-04-17T12:36:18.929Z</time>
      </trkpt>
      <trkpt lat="43.36892" lon="3.61941">
        <ele>47</ele>
        <time>2016-04-17T12:36:20.957Z</time>
      </trkpt>
      <trkpt lat="43.36896" lon="3.61945">
        <ele>46</ele>
        <time>2016-04-17T12:36:21.931Z</time>
      </trkpt>
      <trkpt lat="43.369" lon="3.6195">
        <ele>45</ele>
        <time>2016-04-17T12:36:22.958Z</time>
      </trkpt>
      <trkpt lat="43.36902" lon="3.61955">
        <ele>45</ele>
        <time>2016-04-17T12:36:23.926Z</time>
      </trkpt>
      <trkpt lat="43.36908" lon="3.61964">
        <ele>45</ele>
        <time>2016-04-17T12:36:25.959Z</time>
      </trkpt>
      <trkpt lat="43.36911" lon="3.61967">
        <ele>45</ele>
        <time>2016-04-17T12:36:26.928Z</time>
      </trkpt>
      <trkpt lat="43.36916" lon="3.61975">
        <ele>46</ele>
        <time>2016-04-17T12:36:28.961Z</time>
      </trkpt>
      <trkpt lat="43.36919" lon="3.6198">
        <ele>46</ele>
        <time>2016-04-17T12:36:29.931Z</time>
      </trkpt>
      <trkpt lat="43.36924" lon="3.61988">
        <ele>47</ele>
        <time>2016-04-17T12:36:31.958Z</time>
      </trkpt>
      <trkpt lat="43.36927" lon="3.61992">
        <ele>48</ele>
        <time>2016-04-17T12:36:32.953Z</time>
      </trkpt>
      <trkpt lat="43.36933" lon="3.61999">
        <ele>47</ele>
        <time>2016-04-17T12:36:34.947Z</time>
      </trkpt>
      <trkpt lat="43.36936" lon="3.62005">
        <ele>47</ele>
        <time>2016-04-17T12:36:35.929Z</time>
      </trkpt>
      <trkpt lat="43.36938" lon="3.62009">
        <ele>48</ele>
        <time>2016-04-17T12:36:36.959Z</time>
      </trkpt>
      <trkpt lat="43.36942" lon="3.62014">
        <ele>45</ele>
        <time>2016-04-17T12:36:37.928Z</time>
      </trkpt>
      <trkpt lat="43.36947" lon="3.62024">
        <ele>45</ele>
        <time>2016-04-17T12:36:39.956Z</time>
      </trkpt>
      <trkpt lat="43.36949" lon="3.62029">
        <ele>45</ele>
        <time>2016-04-17T12:36:40.929Z</time>
      </trkpt>
      <trkpt lat="43.36954" lon="3.62035">
        <ele>46</ele>
        <time>2016-04-17T12:36:42.956Z</time>
      </trkpt>
      <trkpt lat="43.36956" lon="3.62038">
        <ele>46</ele>
        <time>2016-04-17T12:36:43.954Z</time>
      </trkpt>
      <trkpt lat="43.36963" lon="3.62041">
        <ele>48</ele>
        <time>2016-04-17T12:37:56.958Z</time>
      </trkpt>
      <trkpt lat="43.36964" lon="3.62045">
        <ele>47</ele>
        <time>2016-04-17T12:37:57.927Z</time>
      </trkpt>
      <trkpt lat="43.36969" lon="3.62055">
        <ele>46</ele>
        <time>2016-04-17T12:38:00.940Z</time>
      </trkpt>
      <trkpt lat="43.36971" lon="3.62058">
        <ele>45</ele>
        <time>2016-04-17T12:38:01.927Z</time>
      </trkpt>
      <trkpt lat="43.36977" lon="3.62067">
        <ele>44</ele>
        <time>2016-04-17T12:38:04.956Z</time>
      </trkpt>
      <trkpt lat="43.36979" lon="3.62069">
        <ele>45</ele>
        <time>2016-04-17T12:38:05.928Z</time>
      </trkpt>
      <trkpt lat="43.36984" lon="3.62076">
        <ele>44</ele>
        <time>2016-04-17T12:38:07.954Z</time>
      </trkpt>
      <trkpt lat="43.36987" lon="3.62079">
        <ele>45</ele>
        <time>2016-04-17T12:38:08.927Z</time>
      </trkpt>
      <trkpt lat="43.36992" lon="3.62086">
        <ele>45</ele>
        <time>2016-04-17T12:38:10.956Z</time>
      </trkpt>
      <trkpt lat="43.36994" lon="3.6209">
        <ele>42</ele>
        <time>2016-04-17T12:38:11.926Z</time>
      </trkpt>
      <trkpt lat="43.36998" lon="3.62099">
        <ele>43</ele>
        <time>2016-04-17T12:38:13.956Z</time>
      </trkpt>
      <trkpt lat="43.37001" lon="3.62102">
        <ele>43</ele>
        <time>2016-04-17T12:38:14.928Z</time>
      </trkpt>
      <trkpt lat="43.37006" lon="3.62108">
        <ele>42</ele>
        <time>2016-04-17T12:38:16.955Z</time>
      </trkpt>
      <trkpt lat="43.37008" lon="3.62111">
        <ele>41</ele>
        <time>2016-04-17T12:38:17.928Z</time>
      </trkpt>
      <trkpt lat="43.37013" lon="3.62117">
        <ele>41</ele>
        <time>2016-04-17T12:38:19.978Z</time>
      </trkpt>
      <trkpt lat="43.37014" lon="3.6212">
        <ele>41</ele>
        <time>2016-04-17T12:38:20.923Z</time>
      </trkpt>
      <trkpt lat="43.37021" lon="3.62124">
        <ele>41</ele>
        <time>2016-04-17T12:38:22.957Z</time>
      </trkpt>
      <trkpt lat="43.37023" lon="3.62128">
        <ele>42</ele>
        <time>2016-04-17T12:38:23.927Z</time>
      </trkpt>
      <trkpt lat="43.37025" lon="3.62132">
        <ele>43</ele>
        <time>2016-04-17T12:38:24.956Z</time>
      </trkpt>
      <trkpt lat="43.37029" lon="3.62139">
        <ele>38</ele>
        <time>2016-04-17T12:38:25.930Z</time>
      </trkpt>
      <trkpt lat="43.37034" lon="3.62148">
        <ele>38</ele>
        <time>2016-04-17T12:38:27.952Z</time>
      </trkpt>
      <trkpt lat="43.37037" lon="3.62152">
        <ele>39</ele>
        <time>2016-04-17T12:38:28.923Z</time>
      </trkpt>
      <trkpt lat="43.37042" lon="3.62161">
        <ele>39</ele>
        <time>2016-04-17T12:38:30.958Z</time>
      </trkpt>
      <trkpt lat="43.37045" lon="3.62166">
        <ele>39</ele>
        <time>2016-04-17T12:38:31.928Z</time>
      </trkpt>
      <trkpt lat="43.37048" lon="3.6217">
        <ele>39</ele>
        <time>2016-04-17T12:38:32.956Z</time>
      </trkpt>
      <trkpt lat="43.37051" lon="3.62175">
        <ele>39</ele>
        <time>2016-04-17T12:38:33.928Z</time>
      </trkpt>
      <trkpt lat="43.37055" lon="3.62181">
        <ele>39</ele>
        <time>2016-04-17T12:38:34.946Z</time>
      </trkpt>
      <trkpt lat="43.37058" lon="3.62184">
        <ele>40</ele>
        <time>2016-04-17T12:38:35.929Z</time>
      </trkpt>
      <trkpt lat="43.37062" lon="3.62191">
        <ele>41</ele>
        <time>2016-04-17T12:38:37.959Z</time>
      </trkpt>
      <trkpt lat="43.37065" lon="3.62195">
        <ele>41</ele>
        <time>2016-04-17T12:38:38.928Z</time>
      </trkpt>
      <trkpt lat="43.37068" lon="3.622">
        <ele>42</ele>
        <time>2016-04-17T12:38:39.955Z</time>
      </trkpt>
      <trkpt lat="43.37071" lon="3.62204">
        <ele>42</ele>
        <time>2016-04-17T12:38:40.953Z</time>
      </trkpt>
      <trkpt lat="43.37076" lon="3.62209">
        <ele>42</ele>
        <time>2016-04-17T12:38:41.947Z</time>
      </trkpt>
      <trkpt lat="43.3708" lon="3.62214">
        <ele>43</ele>
        <time>2016-04-17T12:38:42.930Z</time>
      </trkpt>
      <trkpt lat="43.37084" lon="3.6222">
        <ele>43</ele>
        <time>2016-04-17T12:38:44.020Z</time>
      </trkpt>
      <trkpt lat="43.37087" lon="3.62225">
        <ele>43</ele>
        <time>2016-04-17T12:38:44.928Z</time>
      </trkpt>
      <trkpt lat="43.37091" lon="3.62231">
        <ele>43</ele>
        <time>2016-04-17T12:38:45.959Z</time>
      </trkpt>
      <trkpt lat="43.37095" lon="3.62236">
        <ele>43</ele>
        <time>2016-04-17T12:38:46.930Z</time>
      </trkpt>
      <trkpt lat="43.37099" lon="3.62242">
        <ele>43</ele>
        <time>2016-04-17T12:38:47.960Z</time>
      </trkpt>
      <trkpt lat="43.37103" lon="3.62248">
        <ele>44</ele>
        <time>2016-04-17T12:38:48.928Z</time>
      </trkpt>
      <trkpt lat="43.37107" lon="3.62252">
        <ele>45</ele>
        <time>2016-04-17T12:38:49.956Z</time>
      </trkpt>
      <trkpt lat="43.3711" lon="3.62258">
        <ele>45</ele>
        <time>2016-04-17T12:38:50.929Z</time>
      </trkpt>
      <trkpt lat="43.37116" lon="3.62266">
        <ele>43</ele>
        <time>2016-04-17T12:38:51.954Z</time>
      </trkpt>
      <trkpt lat="43.37121" lon="3.6227">
        <ele>42</ele>
        <time>2016-04-17T12:38:52.928Z</time>
      </trkpt>
      <trkpt lat="43.37124" lon="3.62274">
        <ele>43</ele>
        <time>2016-04-17T12:38:53.959Z</time>
      </trkpt>
      <trkpt lat="43.37127" lon="3.62281">
        <ele>41</ele>
        <time>2016-04-17T12:38:54.929Z</time>
      </trkpt>
      <trkpt lat="43.3713" lon="3.62286">
        <ele>41</ele>
        <time>2016-04-17T12:38:55.960Z</time>
      </trkpt>
      <trkpt lat="43.37133" lon="3.62291">
        <ele>41</ele>
        <time>2016-04-17T12:38:56.948Z</time>
      </trkpt>
      <trkpt lat="43.37137" lon="3.62298">
        <ele>39</ele>
        <time>2016-04-17T12:38:57.953Z</time>
      </trkpt>
      <trkpt lat="43.37141" lon="3.62303">
        <ele>40</ele>
        <time>2016-04-17T12:38:58.930Z</time>
      </trkpt>
      <trkpt lat="43.37144" lon="3.62308">
        <ele>39</ele>
        <time>2016-04-17T12:38:59.953Z</time>
      </trkpt>
      <trkpt lat="43.37148" lon="3.62313">
        <ele>39</ele>
        <time>2016-04-17T12:39:00.924Z</time>
      </trkpt>
      <trkpt lat="43.37151" lon="3.62319">
        <ele>38</ele>
        <time>2016-04-17T12:39:01.958Z</time>
      </trkpt>
      <trkpt lat="43.37154" lon="3.62325">
        <ele>39</ele>
        <time>2016-04-17T12:39:02.930Z</time>
      </trkpt>
      <trkpt lat="43.37158" lon="3.62329">
        <ele>39</ele>
        <time>2016-04-17T12:39:03.960Z</time>
      </trkpt>
      <trkpt lat="43.37161" lon="3.62335">
        <ele>40</ele>
        <time>2016-04-17T12:39:04.929Z</time>
      </trkpt>
      <trkpt lat="43.37169" lon="3.6234">
        <ele>42</ele>
        <time>2016-04-17T12:39:06.958Z</time>
      </trkpt>
      <trkpt lat="43.37171" lon="3.62348">
        <ele>40</ele>
        <time>2016-04-17T12:39:07.929Z</time>
      </trkpt>
      <trkpt lat="43.37176" lon="3.62354">
        <ele>37</ele>
        <time>2016-04-17T12:39:08.955Z</time>
      </trkpt>
      <trkpt lat="43.3718" lon="3.62358">
        <ele>36</ele>
        <time>2016-04-17T12:39:09.929Z</time>
      </trkpt>
      <trkpt lat="43.37184" lon="3.62368">
        <ele>38</ele>
        <time>2016-04-17T12:39:11.958Z</time>
      </trkpt>
      <trkpt lat="43.37187" lon="3.62373">
        <ele>39</ele>
        <time>2016-04-17T12:39:12.951Z</time>
      </trkpt>
      <trkpt lat="43.37192" lon="3.62379">
        <ele>38</ele>
        <time>2016-04-17T12:39:14.960Z</time>
      </trkpt>
      <trkpt lat="43.37195" lon="3.62381">
        <ele>40</ele>
        <time>2016-04-17T12:39:15.928Z</time>
      </trkpt>
      <trkpt lat="43.37201" lon="3.6239">
        <ele>40</ele>
        <time>2016-04-17T12:39:17.955Z</time>
      </trkpt>
      <trkpt lat="43.37205" lon="3.62394">
        <ele>38</ele>
        <time>2016-04-17T12:39:18.929Z</time>
      </trkpt>
      <trkpt lat="43.37211" lon="3.62404">
        <ele>37</ele>
        <time>2016-04-17T12:39:20.956Z</time>
      </trkpt>
      <trkpt lat="43.37213" lon="3.62408">
        <ele>37</ele>
        <time>2016-04-17T12:39:21.927Z</time>
      </trkpt>
      <trkpt lat="43.37216" lon="3.62412">
        <ele>37</ele>
        <time>2016-04-17T12:39:22.946Z</time>
      </trkpt>
      <trkpt lat="43.37221" lon="3.62418">
        <ele>37</ele>
        <time>2016-04-17T12:39:23.928Z</time>
      </trkpt>
      <trkpt lat="43.37225" lon="3.62424">
        <ele>40</ele>
        <time>2016-04-17T12:39:25.956Z</time>
      </trkpt>
      <trkpt lat="43.3723" lon="3.62426">
        <ele>41</ele>
        <time>2016-04-17T12:39:26.927Z</time>
      </trkpt>
      <trkpt lat="43.37234" lon="3.6243">
        <ele>41</ele>
        <time>2016-04-17T12:39:27.956Z</time>
      </trkpt>
      <trkpt lat="43.37237" lon="3.62435">
        <ele>41</ele>
        <time>2016-04-17T12:39:28.947Z</time>
      </trkpt>
      <trkpt lat="43.3724" lon="3.6244">
        <ele>43</ele>
        <time>2016-04-17T12:39:29.954Z</time>
      </trkpt>
      <trkpt lat="43.37243" lon="3.62445">
        <ele>43</ele>
        <time>2016-04-17T12:39:30.930Z</time>
      </trkpt>
      <trkpt lat="43.37246" lon="3.6245">
        <ele>43</ele>
        <time>2016-04-17T12:39:31.955Z</time>
      </trkpt>
      <trkpt lat="43.37251" lon="3.62453">
        <ele>43</ele>
        <time>2016-04-17T12:39:32.929Z</time>
      </trkpt>
      <trkpt lat="43.37256" lon="3.62459">
        <ele>44</ele>
        <time>2016-04-17T12:39:34.951Z</time>
      </trkpt>
      <trkpt lat="43.37259" lon="3.62463">
        <ele>44</ele>
        <time>2016-04-17T12:39:35.928Z</time>
      </trkpt>
      <trkpt lat="43.37262" lon="3.62467">
        <ele>44</ele>
        <time>2016-04-17T12:39:36.946Z</time>
      </trkpt>
      <trkpt lat="43.37264" lon="3.62475">
        <ele>43</ele>
        <time>2016-04-17T12:39:37.927Z</time>
      </trkpt>
      <trkpt lat="43.37269" lon="3.62481">
        <ele>44</ele>
        <time>2016-04-17T12:39:39.955Z</time>
      </trkpt>
      <trkpt lat="43.37271" lon="3.62484">
        <ele>44</ele>
        <time>2016-04-17T12:39:40.927Z</time>
      </trkpt>
      <trkpt lat="43.37277" lon="3.62493">
        <ele>45</ele>
        <time>2016-04-17T12:39:42.956Z</time>
      </trkpt>
      <trkpt lat="43.37281" lon="3.62498">
        <ele>44</ele>
        <time>2016-04-17T12:39:43.927Z</time>
      </trkpt>
      <trkpt lat="43.37286" lon="3.62505">
        <ele>45</ele>
        <time>2016-04-17T12:39:46.020Z</time>
      </trkpt>
      <trkpt lat="43.37289" lon="3.62509">
        <ele>45</ele>
        <time>2016-04-17T12:39:46.925Z</time>
      </trkpt>
      <trkpt lat="43.37295" lon="3.62518">
        <ele>46</ele>
        <time>2016-04-17T12:39:48.960Z</time>
      </trkpt>
      <trkpt lat="43.37298" lon="3.62523">
        <ele>45</ele>
        <time>2016-04-17T12:39:49.931Z</time>
      </trkpt>
      <trkpt lat="43.37304" lon="3.62529">
        <ele>48</ele>
        <time>2016-04-17T12:39:51.958Z</time>
      </trkpt>
      <trkpt lat="43.37307" lon="3.62536">
        <ele>46</ele>
        <time>2016-04-17T12:39:52.930Z</time>
      </trkpt>
      <trkpt lat="43.37312" lon="3.62544">
        <ele>46</ele>
        <time>2016-04-17T12:39:54.954Z</time>
      </trkpt>
      <trkpt lat="43.37315" lon="3.62549">
        <ele>47</ele>
        <time>2016-04-17T12:39:55.929Z</time>
      </trkpt>
      <trkpt lat="43.37317" lon="3.62554">
        <ele>47</ele>
        <time>2016-04-17T12:39:56.957Z</time>
      </trkpt>
      <trkpt lat="43.37321" lon="3.62559">
        <ele>47</ele>
        <time>2016-04-17T12:39:57.929Z</time>
      </trkpt>
      <trkpt lat="43.37325" lon="3.62565">
        <ele>46</ele>
        <time>2016-04-17T12:39:58.958Z</time>
      </trkpt>
      <trkpt lat="43.37328" lon="3.62569">
        <ele>46</ele>
        <time>2016-04-17T12:39:59.929Z</time>
      </trkpt>
      <trkpt lat="43.37333" lon="3.62576">
        <ele>46</ele>
        <time>2016-04-17T12:40:01.962Z</time>
      </trkpt>
      <trkpt lat="43.37336" lon="3.6258">
        <ele>47</ele>
        <time>2016-04-17T12:40:02.932Z</time>
      </trkpt>
      <trkpt lat="43.37343" lon="3.62587">
        <ele>46</ele>
        <time>2016-04-17T12:40:04.957Z</time>
      </trkpt>
      <trkpt lat="43.37346" lon="3.62592">
        <ele>46</ele>
        <time>2016-04-17T12:40:05.923Z</time>
      </trkpt>
      <trkpt lat="43.37349" lon="3.62596">
        <ele>47</ele>
        <time>2016-04-17T12:40:06.955Z</time>
      </trkpt>
      <trkpt lat="43.37352" lon="3.62601">
        <ele>48</ele>
        <time>2016-04-17T12:40:07.930Z</time>
      </trkpt>
      <trkpt lat="43.37356" lon="3.62611">
        <ele>49</ele>
        <time>2016-04-17T12:40:09.959Z</time>
      </trkpt>
      <trkpt lat="43.37358" lon="3.62615">
        <ele>48</ele>
        <time>2016-04-17T12:40:10.928Z</time>
      </trkpt>
      <trkpt lat="43.3736" lon="3.6262">
        <ele>48</ele>
        <time>2016-04-17T12:40:11.957Z</time>
      </trkpt>
      <trkpt lat="43.37364" lon="3.62625">
        <ele>48</ele>
        <time>2016-04-17T12:40:12.927Z</time>
      </trkpt>
      <trkpt lat="43.37367" lon="3.6263">
        <ele>47</ele>
        <time>2016-04-17T12:40:13.956Z</time>
      </trkpt>
      <trkpt lat="43.37371" lon="3.62635">
        <ele>46</ele>
        <time>2016-04-17T12:40:14.928Z</time>
      </trkpt>
      <trkpt lat="43.37377" lon="3.62644">
        <ele>46</ele>
        <time>2016-04-17T12:40:16.982Z</time>
      </trkpt>
      <trkpt lat="43.37379" lon="3.62649">
        <ele>47</ele>
        <time>2016-04-17T12:40:17.927Z</time>
      </trkpt>
      <trkpt lat="43.37382" lon="3.62654">
        <ele>47</ele>
        <time>2016-04-17T12:40:18.954Z</time>
      </trkpt>
      <trkpt lat="43.37385" lon="3.62659">
        <ele>47</ele>
        <time>2016-04-17T12:40:19.928Z</time>
      </trkpt>
      <trkpt lat="43.37388" lon="3.62665">
        <ele>47</ele>
        <time>2016-04-17T12:40:20.954Z</time>
      </trkpt>
      <trkpt lat="43.37391" lon="3.6267">
        <ele>47</ele>
        <time>2016-04-17T12:40:21.930Z</time>
      </trkpt>
      <trkpt lat="43.37394" lon="3.62674">
        <ele>47</ele>
        <time>2016-04-17T12:40:22.956Z</time>
      </trkpt>
      <trkpt lat="43.37397" lon="3.6268">
        <ele>46</ele>
        <time>2016-04-17T12:40:23.928Z</time>
      </trkpt>
      <trkpt lat="43.37403" lon="3.62689">
        <ele>46</ele>
        <time>2016-04-17T12:40:25.956Z</time>
      </trkpt>
      <trkpt lat="43.37406" lon="3.62693">
        <ele>46</ele>
        <time>2016-04-17T12:40:26.932Z</time>
      </trkpt>
      <trkpt lat="43.3741" lon="3.62698">
        <ele>45</ele>
        <time>2016-04-17T12:40:27.959Z</time>
      </trkpt>
      <trkpt lat="43.37412" lon="3.62708">
        <ele>42</ele>
        <time>2016-04-17T12:40:28.927Z</time>
      </trkpt>
      <trkpt lat="43.37418" lon="3.62716">
        <ele>41</ele>
        <time>2016-04-17T12:40:30.951Z</time>
      </trkpt>
      <trkpt lat="43.37421" lon="3.6272">
        <ele>42</ele>
        <time>2016-04-17T12:40:31.929Z</time>
      </trkpt>
      <trkpt lat="43.37424" lon="3.62725">
        <ele>43</ele>
        <time>2016-04-17T12:40:32.980Z</time>
      </trkpt>
      <trkpt lat="43.37427" lon="3.6273">
        <ele>43</ele>
        <time>2016-04-17T12:40:33.928Z</time>
      </trkpt>
      <trkpt lat="43.37431" lon="3.62734">
        <ele>44</ele>
        <time>2016-04-17T12:40:34.958Z</time>
      </trkpt>
      <trkpt lat="43.37435" lon="3.62739">
        <ele>43</ele>
        <time>2016-04-17T12:40:35.927Z</time>
      </trkpt>
      <trkpt lat="43.37441" lon="3.62748">
        <ele>43</ele>
        <time>2016-04-17T12:40:37.956Z</time>
      </trkpt>
      <trkpt lat="43.37444" lon="3.62752">
        <ele>44</ele>
        <time>2016-04-17T12:40:38.924Z</time>
      </trkpt>
      <trkpt lat="43.37447" lon="3.62758">
        <ele>43</ele>
        <time>2016-04-17T12:40:39.956Z</time>
      </trkpt>
      <trkpt lat="43.37451" lon="3.62763">
        <ele>43</ele>
        <time>2016-04-17T12:40:40.931Z</time>
      </trkpt>
      <trkpt lat="43.37454" lon="3.62768">
        <ele>43</ele>
        <time>2016-04-17T12:40:41.956Z</time>
      </trkpt>
      <trkpt lat="43.37458" lon="3.62773">
        <ele>42</ele>
        <time>2016-04-17T12:40:42.929Z</time>
      </trkpt>
      <trkpt lat="43.37463" lon="3.62781">
        <ele>41</ele>
        <time>2016-04-17T12:40:44.953Z</time>
      </trkpt>
      <trkpt lat="43.37467" lon="3.62784">
        <ele>41</ele>
        <time>2016-04-17T12:40:45.928Z</time>
      </trkpt>
      <trkpt lat="43.3747" lon="3.62789">
        <ele>42</ele>
        <time>2016-04-17T12:40:46.956Z</time>
      </trkpt>
      <trkpt lat="43.37473" lon="3.62794">
        <ele>42</ele>
        <time>2016-04-17T12:40:47.929Z</time>
      </trkpt>
      <trkpt lat="43.37479" lon="3.62801">
        <ele>39</ele>
        <time>2016-04-17T12:40:48.957Z</time>
      </trkpt>
      <trkpt lat="43.37483" lon="3.62804">
        <ele>38</ele>
        <time>2016-04-17T12:40:49.929Z</time>
      </trkpt>
      <trkpt lat="43.37487" lon="3.62808">
        <ele>39</ele>
        <time>2016-04-17T12:40:50.957Z</time>
      </trkpt>
      <trkpt lat="43.3749" lon="3.62812">
        <ele>38</ele>
        <time>2016-04-17T12:40:51.928Z</time>
      </trkpt>
      <trkpt lat="43.37493" lon="3.62817">
        <ele>38</ele>
        <time>2016-04-17T12:40:52.947Z</time>
      </trkpt>
      <trkpt lat="43.37496" lon="3.62822">
        <ele>38</ele>
        <time>2016-04-17T12:40:54.077Z</time>
      </trkpt>
      <trkpt lat="43.37499" lon="3.62826">
        <ele>38</ele>
        <time>2016-04-17T12:40:54.958Z</time>
      </trkpt>
      <trkpt lat="43.37503" lon="3.62831">
        <ele>39</ele>
        <time>2016-04-17T12:40:55.929Z</time>
      </trkpt>
      <trkpt lat="43.37506" lon="3.62836">
        <ele>38</ele>
        <time>2016-04-17T12:40:56.956Z</time>
      </trkpt>
      <trkpt lat="43.3751" lon="3.6284">
        <ele>38</ele>
        <time>2016-04-17T12:40:57.929Z</time>
      </trkpt>
      <trkpt lat="43.37515" lon="3.62848">
        <ele>38</ele>
        <time>2016-04-17T12:40:59.959Z</time>
      </trkpt>
      <trkpt lat="43.37518" lon="3.62852">
        <ele>38</ele>
        <time>2016-04-17T12:41:00.928Z</time>
      </trkpt>
      <trkpt lat="43.37524" lon="3.62861">
        <ele>39</ele>
        <time>2016-04-17T12:41:02.961Z</time>
      </trkpt>
      <trkpt lat="43.37527" lon="3.62869">
        <ele>37</ele>
        <time>2016-04-17T12:41:03.930Z</time>
      </trkpt>
      <trkpt lat="43.3753" lon="3.62874">
        <ele>37</ele>
        <time>2016-04-17T12:41:04.969Z</time>
      </trkpt>
      <trkpt lat="43.37533" lon="3.62879">
        <ele>36</ele>
        <time>2016-04-17T12:41:05.928Z</time>
      </trkpt>
      <trkpt lat="43.37539" lon="3.62886">
        <ele>37</ele>
        <time>2016-04-17T12:41:07.957Z</time>
      </trkpt>
      <trkpt lat="43.37542" lon="3.6289">
        <ele>37</ele>
        <time>2016-04-17T12:41:08.924Z</time>
      </trkpt>
      <trkpt lat="43.37548" lon="3.62896">
        <ele>39</ele>
        <time>2016-04-17T12:41:10.959Z</time>
      </trkpt>
      <trkpt lat="43.3755" lon="3.62898">
        <ele>40</ele>
        <time>2016-04-17T12:41:11.928Z</time>
      </trkpt>
      <trkpt lat="43.37553" lon="3.62903">
        <ele>41</ele>
        <time>2016-04-17T12:41:12.955Z</time>
      </trkpt>
      <trkpt lat="43.37556" lon="3.62908">
        <ele>42</ele>
        <time>2016-04-17T12:41:13.927Z</time>
      </trkpt>
      <trkpt lat="43.37559" lon="3.62913">
        <ele>42</ele>
        <time>2016-04-17T12:41:14.954Z</time>
      </trkpt>
      <trkpt lat="43.37562" lon="3.62917">
        <ele>43</ele>
        <time>2016-04-17T12:41:15.929Z</time>
      </trkpt>
      <trkpt lat="43.37566" lon="3.62922">
        <ele>43</ele>
        <time>2016-04-17T12:41:16.952Z</time>
      </trkpt>
      <trkpt lat="43.37569" lon="3.62927">
        <ele>43</ele>
        <time>2016-04-17T12:41:17.929Z</time>
      </trkpt>
      <trkpt lat="43.37573" lon="3.62932">
        <ele>42</ele>
        <time>2016-04-17T12:41:18.957Z</time>
      </trkpt>
      <trkpt lat="43.37577" lon="3.62936">
        <ele>42</ele>
        <time>2016-04-17T12:41:19.930Z</time>
      </trkpt>
      <trkpt lat="43.37582" lon="3.62945">
        <ele>41</ele>
        <time>2016-04-17T12:41:21.959Z</time>
      </trkpt>
      <trkpt lat="43.37585" lon="3.6295">
        <ele>41</ele>
        <time>2016-04-17T12:41:22.925Z</time>
      </trkpt>
      <trkpt lat="43.37587" lon="3.62955">
        <ele>41</ele>
        <time>2016-04-17T12:41:23.956Z</time>
      </trkpt>
      <trkpt lat="43.3759" lon="3.6296">
        <ele>42</ele>
        <time>2016-04-17T12:41:24.931Z</time>
      </trkpt>
      <trkpt lat="43.37596" lon="3.62968">
        <ele>42</ele>
        <time>2016-04-17T12:41:26.957Z</time>
      </trkpt>
      <trkpt lat="43.37598" lon="3.62973">
        <ele>42</ele>
        <time>2016-04-17T12:41:27.928Z</time>
      </trkpt>
      <trkpt lat="43.37604" lon="3.62981">
        <ele>43</ele>
        <time>2016-04-17T12:41:29.956Z</time>
      </trkpt>
      <trkpt lat="43.37607" lon="3.62987">
        <ele>44</ele>
        <time>2016-04-17T12:41:30.930Z</time>
      </trkpt>
      <trkpt lat="43.37611" lon="3.62996">
        <ele>39</ele>
        <time>2016-04-17T12:41:31.958Z</time>
      </trkpt>
      <trkpt lat="43.37614" lon="3.63001">
        <ele>39</ele>
        <time>2016-04-17T12:41:32.929Z</time>
      </trkpt>
      <trkpt lat="43.3762" lon="3.6301">
        <ele>40</ele>
        <time>2016-04-17T12:41:34.949Z</time>
      </trkpt>
      <trkpt lat="43.37623" lon="3.63014">
        <ele>40</ele>
        <time>2016-04-17T12:41:35.927Z</time>
      </trkpt>
      <trkpt lat="43.37626" lon="3.63019">
        <ele>40</ele>
        <time>2016-04-17T12:41:36.959Z</time>
      </trkpt>
      <trkpt lat="43.37628" lon="3.6303">
        <ele>37</ele>
        <time>2016-04-17T12:41:37.928Z</time>
      </trkpt>
      <trkpt lat="43.37632" lon="3.63035">
        <ele>37</ele>
        <time>2016-04-17T12:41:38.956Z</time>
      </trkpt>
      <trkpt lat="43.37635" lon="3.63039">
        <ele>37</ele>
        <time>2016-04-17T12:41:39.929Z</time>
      </trkpt>
      <trkpt lat="43.3764" lon="3.63047">
        <ele>37</ele>
        <time>2016-04-17T12:41:41.969Z</time>
      </trkpt>
      <trkpt lat="43.37643" lon="3.63049">
        <ele>38</ele>
        <time>2016-04-17T12:41:42.930Z</time>
      </trkpt>
      <trkpt lat="43.37646" lon="3.63052">
        <ele>40</ele>
        <time>2016-04-17T12:41:43.959Z</time>
      </trkpt>
      <trkpt lat="43.37652" lon="3.63057">
        <ele>39</ele>
        <time>2016-04-17T12:41:44.929Z</time>
      </trkpt>
      <trkpt lat="43.37655" lon="3.63061">
        <ele>39</ele>
        <time>2016-04-17T12:41:45.954Z</time>
      </trkpt>
      <trkpt lat="43.37658" lon="3.63066">
        <ele>38</ele>
        <time>2016-04-17T12:41:46.927Z</time>
      </trkpt>
      <trkpt lat="43.37664" lon="3.63075">
        <ele>39</ele>
        <time>2016-04-17T12:41:48.956Z</time>
      </trkpt>
      <trkpt lat="43.37667" lon="3.63079">
        <ele>39</ele>
        <time>2016-04-17T12:41:49.930Z</time>
      </trkpt>
      <trkpt lat="43.37673" lon="3.63088">
        <ele>39</ele>
        <time>2016-04-17T12:41:51.958Z</time>
      </trkpt>
      <trkpt lat="43.37676" lon="3.63092">
        <ele>39</ele>
        <time>2016-04-17T12:41:52.928Z</time>
      </trkpt>
      <trkpt lat="43.37678" lon="3.63098">
        <ele>38</ele>
        <time>2016-04-17T12:41:53.954Z</time>
      </trkpt>
      <trkpt lat="43.37682" lon="3.63104">
        <ele>38</ele>
        <time>2016-04-17T12:41:54.924Z</time>
      </trkpt>
      <trkpt lat="43.37687" lon="3.63111">
        <ele>39</ele>
        <time>2016-04-17T12:41:56.958Z</time>
      </trkpt>
      <trkpt lat="43.37689" lon="3.63116">
        <ele>39</ele>
        <time>2016-04-17T12:41:57.954Z</time>
      </trkpt>
      <trkpt lat="43.37694" lon="3.63124">
        <ele>41</ele>
        <time>2016-04-17T12:41:59.959Z</time>
      </trkpt>
      <trkpt lat="43.37697" lon="3.63129">
        <ele>40</ele>
        <time>2016-04-17T12:42:00.932Z</time>
      </trkpt>
      <trkpt lat="43.37702" lon="3.63136">
        <ele>41</ele>
        <time>2016-04-17T12:42:02.951Z</time>
      </trkpt>
      <trkpt lat="43.37705" lon="3.63141">
        <ele>42</ele>
        <time>2016-04-17T12:42:03.928Z</time>
      </trkpt>
      <trkpt lat="43.37711" lon="3.63148">
        <ele>44</ele>
        <time>2016-04-17T12:42:05.956Z</time>
      </trkpt>
      <trkpt lat="43.37716" lon="3.63153">
        <ele>42</ele>
        <time>2016-04-17T12:42:06.929Z</time>
      </trkpt>
      <trkpt lat="43.37721" lon="3.6316">
        <ele>42</ele>
        <time>2016-04-17T12:42:08.969Z</time>
      </trkpt>
      <trkpt lat="43.37724" lon="3.63166">
        <ele>41</ele>
        <time>2016-04-17T12:42:09.928Z</time>
      </trkpt>
      <trkpt lat="43.37729" lon="3.6317">
        <ele>42</ele>
        <time>2016-04-17T12:42:11.957Z</time>
      </trkpt>
      <trkpt lat="43.37732" lon="3.63174">
        <ele>42</ele>
        <time>2016-04-17T12:42:12.927Z</time>
      </trkpt>
      <trkpt lat="43.37737" lon="3.63183">
        <ele>42</ele>
        <time>2016-04-17T12:42:14.946Z</time>
      </trkpt>
      <trkpt lat="43.3774" lon="3.63187">
        <ele>41</ele>
        <time>2016-04-17T12:42:15.927Z</time>
      </trkpt>
      <trkpt lat="43.37746" lon="3.63195">
        <ele>42</ele>
        <time>2016-04-17T12:42:17.955Z</time>
      </trkpt>
      <trkpt lat="43.37748" lon="3.63199">
        <ele>43</ele>
        <time>2016-04-17T12:42:18.924Z</time>
      </trkpt>
      <trkpt lat="43.3775" lon="3.63207">
        <ele>40</ele>
        <time>2016-04-17T12:42:19.957Z</time>
      </trkpt>
      <trkpt lat="43.37753" lon="3.63211">
        <ele>40</ele>
        <time>2016-04-17T12:42:20.933Z</time>
      </trkpt>
      <trkpt lat="43.37758" lon="3.6322">
        <ele>41</ele>
        <time>2016-04-17T12:42:22.948Z</time>
      </trkpt>
      <trkpt lat="43.3776" lon="3.63224">
        <ele>40</ele>
        <time>2016-04-17T12:42:23.929Z</time>
      </trkpt>
      <trkpt lat="43.37765" lon="3.63232">
        <ele>41</ele>
        <time>2016-04-17T12:42:25.962Z</time>
      </trkpt>
      <trkpt lat="43.37767" lon="3.63236">
        <ele>41</ele>
        <time>2016-04-17T12:42:26.929Z</time>
      </trkpt>
      <trkpt lat="43.37771" lon="3.63243">
        <ele>42</ele>
        <time>2016-04-17T12:42:28.956Z</time>
      </trkpt>
      <trkpt lat="43.37775" lon="3.63247">
        <ele>42</ele>
        <time>2016-04-17T12:42:29.950Z</time>
      </trkpt>
      <trkpt lat="43.3778" lon="3.63254">
        <ele>42</ele>
        <time>2016-04-17T12:42:31.953Z</time>
      </trkpt>
      <trkpt lat="43.37783" lon="3.63257">
        <ele>42</ele>
        <time>2016-04-17T12:42:32.928Z</time>
      </trkpt>
      <trkpt lat="43.37788" lon="3.63266">
        <ele>41</ele>
        <time>2016-04-17T12:42:34.956Z</time>
      </trkpt>
      <trkpt lat="43.3779" lon="3.6327">
        <ele>43</ele>
        <time>2016-04-17T12:42:35.929Z</time>
      </trkpt>
      <trkpt lat="43.37796" lon="3.63277">
        <ele>43</ele>
        <time>2016-04-17T12:42:37.954Z</time>
      </trkpt>
      <trkpt lat="43.37799" lon="3.63282">
        <ele>43</ele>
        <time>2016-04-17T12:42:38.929Z</time>
      </trkpt>
      <trkpt lat="43.37804" lon="3.63288">
        <ele>43</ele>
        <time>2016-04-17T12:42:40.949Z</time>
      </trkpt>
      <trkpt lat="43.37806" lon="3.63291">
        <ele>43</ele>
        <time>2016-04-17T12:42:41.932Z</time>
      </trkpt>
      <trkpt lat="43.37809" lon="3.63297">
        <ele>41</ele>
        <time>2016-04-17T12:42:42.960Z</time>
      </trkpt>
      <trkpt lat="43.37811" lon="3.63301">
        <ele>41</ele>
        <time>2016-04-17T12:42:43.929Z</time>
      </trkpt>
      <trkpt lat="43.37817" lon="3.6331">
        <ele>41</ele>
        <time>2016-04-17T12:42:45.982Z</time>
      </trkpt>
      <trkpt lat="43.3782" lon="3.63312">
        <ele>41</ele>
        <time>2016-04-17T12:42:46.929Z</time>
      </trkpt>
      <trkpt lat="43.37825" lon="3.63321">
        <ele>42</ele>
        <time>2016-04-17T12:42:48.947Z</time>
      </trkpt>
      <trkpt lat="43.37828" lon="3.63326">
        <ele>41</ele>
        <time>2016-04-17T12:42:49.929Z</time>
      </trkpt>
      <trkpt lat="43.37834" lon="3.63332">
        <ele>41</ele>
        <time>2016-04-17T12:42:51.957Z</time>
      </trkpt>
      <trkpt lat="43.37836" lon="3.63336">
        <ele>41</ele>
        <time>2016-04-17T12:42:52.924Z</time>
      </trkpt>
      <trkpt lat="43.37841" lon="3.63346">
        <ele>41</ele>
        <time>2016-04-17T12:42:55.085Z</time>
      </trkpt>
      <trkpt lat="43.37844" lon="3.6335">
        <ele>41</ele>
        <time>2016-04-17T12:42:55.930Z</time>
      </trkpt>
      <trkpt lat="43.37849" lon="3.63358">
        <ele>42</ele>
        <time>2016-04-17T12:42:57.950Z</time>
      </trkpt>
      <trkpt lat="43.37853" lon="3.63363">
        <ele>41</ele>
        <time>2016-04-17T12:42:58.931Z</time>
      </trkpt>
      <trkpt lat="43.37858" lon="3.63372">
        <ele>41</ele>
        <time>2016-04-17T12:43:00.943Z</time>
      </trkpt>
      <trkpt lat="43.37859" lon="3.63378">
        <ele>41</ele>
        <time>2016-04-17T12:43:01.931Z</time>
      </trkpt>
      <trkpt lat="43.37864" lon="3.63384">
        <ele>41</ele>
        <time>2016-04-17T12:43:03.957Z</time>
      </trkpt>
      <trkpt lat="43.37866" lon="3.63389">
        <ele>42</ele>
        <time>2016-04-17T12:43:04.923Z</time>
      </trkpt>
      <trkpt lat="43.37872" lon="3.63395">
        <ele>42</ele>
        <time>2016-04-17T12:43:06.982Z</time>
      </trkpt>
      <trkpt lat="43.37875" lon="3.63399">
        <ele>42</ele>
        <time>2016-04-17T12:43:07.928Z</time>
      </trkpt>
      <trkpt lat="43.37878" lon="3.63405">
        <ele>43</ele>
        <time>2016-04-17T12:43:08.954Z</time>
      </trkpt>
      <trkpt lat="43.37881" lon="3.63409">
        <ele>42</ele>
        <time>2016-04-17T12:43:09.929Z</time>
      </trkpt>
      <trkpt lat="43.37887" lon="3.63418">
        <ele>43</ele>
        <time>2016-04-17T12:43:11.956Z</time>
      </trkpt>
      <trkpt lat="43.37889" lon="3.63422">
        <ele>43</ele>
        <time>2016-04-17T12:43:12.927Z</time>
      </trkpt>
      <trkpt lat="43.37892" lon="3.63428">
        <ele>42</ele>
        <time>2016-04-17T12:43:13.958Z</time>
      </trkpt>
      <trkpt lat="43.37896" lon="3.63431">
        <ele>42</ele>
        <time>2016-04-17T12:43:14.929Z</time>
      </trkpt>
      <trkpt lat="43.37901" lon="3.6344">
        <ele>42</ele>
        <time>2016-04-17T12:43:16.947Z</time>
      </trkpt>
      <trkpt lat="43.37904" lon="3.6344">
        <ele>42</ele>
        <time>2016-04-17T12:43:17.929Z</time>
      </trkpt>
      <trkpt lat="43.3791" lon="3.63448">
        <ele>42</ele>
        <time>2016-04-17T12:43:19.959Z</time>
      </trkpt>
      <trkpt lat="43.37913" lon="3.63452">
        <ele>42</ele>
        <time>2016-04-17T12:43:20.924Z</time>
      </trkpt>
      <trkpt lat="43.37916" lon="3.63459">
        <ele>43</ele>
        <time>2016-04-17T12:43:22.983Z</time>
      </trkpt>
      <trkpt lat="43.37918" lon="3.63469">
        <ele>40</ele>
        <time>2016-04-17T12:43:23.929Z</time>
      </trkpt>
      <trkpt lat="43.37923" lon="3.63478">
        <ele>41</ele>
        <time>2016-04-17T12:43:25.957Z</time>
      </trkpt>
      <trkpt lat="43.37926" lon="3.63483">
        <ele>41</ele>
        <time>2016-04-17T12:43:26.925Z</time>
      </trkpt>
      <trkpt lat="43.37931" lon="3.63487">
        <ele>42</ele>
        <time>2016-04-17T12:43:28.955Z</time>
      </trkpt>
      <trkpt lat="43.37933" lon="3.63491">
        <ele>42</ele>
        <time>2016-04-17T12:43:29.929Z</time>
      </trkpt>
      <trkpt lat="43.37938" lon="3.63497">
        <ele>42</ele>
        <time>2016-04-17T12:43:31.957Z</time>
      </trkpt>
      <trkpt lat="43.3794" lon="3.635">
        <ele>42</ele>
        <time>2016-04-17T12:43:32.935Z</time>
      </trkpt>
      <trkpt lat="43.37944" lon="3.63508">
        <ele>42</ele>
        <time>2016-04-17T12:43:34.947Z</time>
      </trkpt>
      <trkpt lat="43.37946" lon="3.63512">
        <ele>42</ele>
        <time>2016-04-17T12:43:35.945Z</time>
      </trkpt>
      <trkpt lat="43.3795" lon="3.63519">
        <ele>42</ele>
        <time>2016-04-17T12:43:37.948Z</time>
      </trkpt>
      <trkpt lat="43.37951" lon="3.63524">
        <ele>43</ele>
        <time>2016-04-17T12:43:38.930Z</time>
      </trkpt>
      <trkpt lat="43.37956" lon="3.63532">
        <ele>43</ele>
        <time>2016-04-17T12:43:40.960Z</time>
      </trkpt>
      <trkpt lat="43.37958" lon="3.63536">
        <ele>43</ele>
        <time>2016-04-17T12:43:41.929Z</time>
      </trkpt>
      <trkpt lat="43.37962" lon="3.63542">
        <ele>41</ele>
        <time>2016-04-17T12:43:42.957Z</time>
      </trkpt>
      <trkpt lat="43.37964" lon="3.63546">
        <ele>42</ele>
        <time>2016-04-17T12:43:43.955Z</time>
      </trkpt>
      <trkpt lat="43.3797" lon="3.63553">
        <ele>42</ele>
        <time>2016-04-17T12:43:45.956Z</time>
      </trkpt>
      <trkpt lat="43.37973" lon="3.63558">
        <ele>42</ele>
        <time>2016-04-17T12:43:46.929Z</time>
      </trkpt>
      <trkpt lat="43.37979" lon="3.63564">
        <ele>43</ele>
        <time>2016-04-17T12:43:48.948Z</time>
      </trkpt>
      <trkpt lat="43.37981" lon="3.63569">
        <ele>44</ele>
        <time>2016-04-17T12:43:49.927Z</time>
      </trkpt>
      <trkpt lat="43.37987" lon="3.63578">
        <ele>44</ele>
        <time>2016-04-17T12:43:51.957Z</time>
      </trkpt>
      <trkpt lat="43.37989" lon="3.63582">
        <ele>44</ele>
        <time>2016-04-17T12:43:52.929Z</time>
      </trkpt>
      <trkpt lat="43.37993" lon="3.63591">
        <ele>45</ele>
        <time>2016-04-17T12:43:54.956Z</time>
      </trkpt>
      <trkpt lat="43.37996" lon="3.63596">
        <ele>45</ele>
        <time>2016-04-17T12:43:55.927Z</time>
      </trkpt>
      <trkpt lat="43.38002" lon="3.63605">
        <ele>46</ele>
        <time>2016-04-17T12:43:57.954Z</time>
      </trkpt>
      <trkpt lat="43.38004" lon="3.6361">
        <ele>46</ele>
        <time>2016-04-17T12:43:58.924Z</time>
      </trkpt>
      <trkpt lat="43.38008" lon="3.63616">
        <ele>44</ele>
        <time>2016-04-17T12:43:59.948Z</time>
      </trkpt>
      <trkpt lat="43.38011" lon="3.63621">
        <ele>45</ele>
        <time>2016-04-17T12:44:00.924Z</time>
      </trkpt>
      <trkpt lat="43.38016" lon="3.63629">
        <ele>45</ele>
        <time>2016-04-17T12:44:02.960Z</time>
      </trkpt>
      <trkpt lat="43.38019" lon="3.63634">
        <ele>44</ele>
        <time>2016-04-17T12:44:03.928Z</time>
      </trkpt>
      <trkpt lat="43.38025" lon="3.63642">
        <ele>43</ele>
        <time>2016-04-17T12:44:05.961Z</time>
      </trkpt>
      <trkpt lat="43.38028" lon="3.63647">
        <ele>43</ele>
        <time>2016-04-17T12:44:06.927Z</time>
      </trkpt>
      <trkpt lat="43.38033" lon="3.63656">
        <ele>45</ele>
        <time>2016-04-17T12:44:08.952Z</time>
      </trkpt>
      <trkpt lat="43.38036" lon="3.63665">
        <ele>41</ele>
        <time>2016-04-17T12:44:09.929Z</time>
      </trkpt>
      <trkpt lat="43.38038" lon="3.63669">
        <ele>41</ele>
        <time>2016-04-17T12:44:10.956Z</time>
      </trkpt>
      <trkpt lat="43.38042" lon="3.63673">
        <ele>40</ele>
        <time>2016-04-17T12:44:11.929Z</time>
      </trkpt>
      <trkpt lat="43.38048" lon="3.63682">
        <ele>40</ele>
        <time>2016-04-17T12:44:13.956Z</time>
      </trkpt>
      <trkpt lat="43.38051" lon="3.63684">
        <ele>41</ele>
        <time>2016-04-17T12:44:14.928Z</time>
      </trkpt>
      <trkpt lat="43.38057" lon="3.63692">
        <ele>44</ele>
        <time>2016-04-17T12:44:16.954Z</time>
      </trkpt>
      <trkpt lat="43.3806" lon="3.63696">
        <ele>42</ele>
        <time>2016-04-17T12:44:17.930Z</time>
      </trkpt>
      <trkpt lat="43.38064" lon="3.63705">
        <ele>41</ele>
        <time>2016-04-17T12:44:20.021Z</time>
      </trkpt>
      <trkpt lat="43.38067" lon="3.6371">
        <ele>42</ele>
        <time>2016-04-17T12:44:20.927Z</time>
      </trkpt>
      <trkpt lat="43.38071" lon="3.63716">
        <ele>42</ele>
        <time>2016-04-17T12:44:21.958Z</time>
      </trkpt>
      <trkpt lat="43.38074" lon="3.6372">
        <ele>42</ele>
        <time>2016-04-17T12:44:22.929Z</time>
      </trkpt>
      <trkpt lat="43.38077" lon="3.63725">
        <ele>41</ele>
        <time>2016-04-17T12:44:23.957Z</time>
      </trkpt>
      <trkpt lat="43.3808" lon="3.6373">
        <ele>41</ele>
        <time>2016-04-17T12:44:24.924Z</time>
      </trkpt>
      <trkpt lat="43.38083" lon="3.63734">
        <ele>41</ele>
        <time>2016-04-17T12:44:25.957Z</time>
      </trkpt>
      <trkpt lat="43.38086" lon="3.63739">
        <ele>42</ele>
        <time>2016-04-17T12:44:26.930Z</time>
      </trkpt>
      <trkpt lat="43.3809" lon="3.63744">
        <ele>40</ele>
        <time>2016-04-17T12:44:27.950Z</time>
      </trkpt>
      <trkpt lat="43.38093" lon="3.63748">
        <ele>39</ele>
        <time>2016-04-17T12:44:28.927Z</time>
      </trkpt>
      <trkpt lat="43.38098" lon="3.63756">
        <ele>40</ele>
        <time>2016-04-17T12:44:31.020Z</time>
      </trkpt>
      <trkpt lat="43.38101" lon="3.63761">
        <ele>39</ele>
        <time>2016-04-17T12:44:31.930Z</time>
      </trkpt>
      <trkpt lat="43.38106" lon="3.63771">
        <ele>40</ele>
        <time>2016-04-17T12:44:34.011Z</time>
      </trkpt>
      <trkpt lat="43.38109" lon="3.63775">
        <ele>39</ele>
        <time>2016-04-17T12:44:34.925Z</time>
      </trkpt>
      <trkpt lat="43.38114" lon="3.63781">
        <ele>41</ele>
        <time>2016-04-17T12:44:36.961Z</time>
      </trkpt>
      <trkpt lat="43.38117" lon="3.63784">
        <ele>41</ele>
        <time>2016-04-17T12:44:37.928Z</time>
      </trkpt>
      <trkpt lat="43.38122" lon="3.63794">
        <ele>41</ele>
        <time>2016-04-17T12:44:39.955Z</time>
      </trkpt>
      <trkpt lat="43.38124" lon="3.63798">
        <ele>41</ele>
        <time>2016-04-17T12:44:40.932Z</time>
      </trkpt>
      <trkpt lat="43.38127" lon="3.63804">
        <ele>41</ele>
        <time>2016-04-17T12:44:41.958Z</time>
      </trkpt>
      <trkpt lat="43.3813" lon="3.63809">
        <ele>41</ele>
        <time>2016-04-17T12:44:42.927Z</time>
      </trkpt>
      <trkpt lat="43.38135" lon="3.63818">
        <ele>41</ele>
        <time>2016-04-17T12:44:44.959Z</time>
      </trkpt>
      <trkpt lat="43.38138" lon="3.63822">
        <ele>41</ele>
        <time>2016-04-17T12:44:45.932Z</time>
      </trkpt>
      <trkpt lat="43.38144" lon="3.6383">
        <ele>41</ele>
        <time>2016-04-17T12:44:47.959Z</time>
      </trkpt>
      <trkpt lat="43.38146" lon="3.63841">
        <ele>37</ele>
        <time>2016-04-17T12:44:48.928Z</time>
      </trkpt>
      <trkpt lat="43.38151" lon="3.63849">
        <ele>38</ele>
        <time>2016-04-17T12:44:50.959Z</time>
      </trkpt>
      <trkpt lat="43.38155" lon="3.63853">
        <ele>38</ele>
        <time>2016-04-17T12:44:51.954Z</time>
      </trkpt>
      <trkpt lat="43.3816" lon="3.63862">
        <ele>38</ele>
        <time>2016-04-17T12:44:53.955Z</time>
      </trkpt>
      <trkpt lat="43.38162" lon="3.63869">
        <ele>37</ele>
        <time>2016-04-17T12:44:54.929Z</time>
      </trkpt>
      <trkpt lat="43.38168" lon="3.63878">
        <ele>38</ele>
        <time>2016-04-17T12:44:56.956Z</time>
      </trkpt>
      <trkpt lat="43.38172" lon="3.63882">
        <ele>38</ele>
        <time>2016-04-17T12:44:57.931Z</time>
      </trkpt>
      <trkpt lat="43.38178" lon="3.6389">
        <ele>38</ele>
        <time>2016-04-17T12:44:59.958Z</time>
      </trkpt>
      <trkpt lat="43.38181" lon="3.63893">
        <ele>38</ele>
        <time>2016-04-17T12:45:00.927Z</time>
      </trkpt>
      <trkpt lat="43.38184" lon="3.63898">
        <ele>39</ele>
        <time>2016-04-17T12:45:01.961Z</time>
      </trkpt>
      <trkpt lat="43.38187" lon="3.63903">
        <ele>40</ele>
        <time>2016-04-17T12:45:02.929Z</time>
      </trkpt>
      <trkpt lat="43.38193" lon="3.63911">
        <ele>40</ele>
        <time>2016-04-17T12:45:04.957Z</time>
      </trkpt>
      <trkpt lat="43.38195" lon="3.63919">
        <ele>38</ele>
        <time>2016-04-17T12:45:05.929Z</time>
      </trkpt>
      <trkpt lat="43.38198" lon="3.63926">
        <ele>35</ele>
        <time>2016-04-17T12:45:06.956Z</time>
      </trkpt>
      <trkpt lat="43.38202" lon="3.63931">
        <ele>34</ele>
        <time>2016-04-17T12:45:07.953Z</time>
      </trkpt>
      <trkpt lat="43.38208" lon="3.6394">
        <ele>34</ele>
        <time>2016-04-17T12:45:09.957Z</time>
      </trkpt>
      <trkpt lat="43.3821" lon="3.63944">
        <ele>35</ele>
        <time>2016-04-17T12:45:10.928Z</time>
      </trkpt>
      <trkpt lat="43.38215" lon="3.63953">
        <ele>34</ele>
        <time>2016-04-17T12:45:12.958Z</time>
      </trkpt>
      <trkpt lat="43.38219" lon="3.63958">
        <ele>35</ele>
        <time>2016-04-17T12:45:13.929Z</time>
      </trkpt>
      <trkpt lat="43.38222" lon="3.63962">
        <ele>36</ele>
        <time>2016-04-17T12:45:14.957Z</time>
      </trkpt>
      <trkpt lat="43.38225" lon="3.63968">
        <ele>37</ele>
        <time>2016-04-17T12:45:15.928Z</time>
      </trkpt>
      <trkpt lat="43.38229" lon="3.63972">
        <ele>37</ele>
        <time>2016-04-17T12:45:16.955Z</time>
      </trkpt>
      <trkpt lat="43.38232" lon="3.63977">
        <ele>37</ele>
        <time>2016-04-17T12:45:17.927Z</time>
      </trkpt>
      <trkpt lat="43.38236" lon="3.63984">
        <ele>39</ele>
        <time>2016-04-17T12:45:20.077Z</time>
      </trkpt>
      <trkpt lat="43.38239" lon="3.63988">
        <ele>39</ele>
        <time>2016-04-17T12:45:20.927Z</time>
      </trkpt>
      <trkpt lat="43.38242" lon="3.63993">
        <ele>40</ele>
        <time>2016-04-17T12:45:21.956Z</time>
      </trkpt>
      <trkpt lat="43.38245" lon="3.63998">
        <ele>41</ele>
        <time>2016-04-17T12:45:22.929Z</time>
      </trkpt>
      <trkpt lat="43.38251" lon="3.64005">
        <ele>42</ele>
        <time>2016-04-17T12:45:24.957Z</time>
      </trkpt>
      <trkpt lat="43.38254" lon="3.6401">
        <ele>43</ele>
        <time>2016-04-17T12:45:25.927Z</time>
      </trkpt>
      <trkpt lat="43.38259" lon="3.64019">
        <ele>43</ele>
        <time>2016-04-17T12:45:27.957Z</time>
      </trkpt>
      <trkpt lat="43.38263" lon="3.64025">
        <ele>42</ele>
        <time>2016-04-17T12:45:28.928Z</time>
      </trkpt>
      <trkpt lat="43.38266" lon="3.6403">
        <ele>43</ele>
        <time>2016-04-17T12:45:29.957Z</time>
      </trkpt>
      <trkpt lat="43.38269" lon="3.64035">
        <ele>43</ele>
        <time>2016-04-17T12:45:30.928Z</time>
      </trkpt>
      <trkpt lat="43.38274" lon="3.64044">
        <ele>43</ele>
        <time>2016-04-17T12:45:32.956Z</time>
      </trkpt>
      <trkpt lat="43.38278" lon="3.64048">
        <ele>42</ele>
        <time>2016-04-17T12:45:33.953Z</time>
      </trkpt>
      <trkpt lat="43.38281" lon="3.64055">
        <ele>40</ele>
        <time>2016-04-17T12:45:34.957Z</time>
      </trkpt>
      <trkpt lat="43.38284" lon="3.64059">
        <ele>40</ele>
        <time>2016-04-17T12:45:35.930Z</time>
      </trkpt>
      <trkpt lat="43.38287" lon="3.64064">
        <ele>40</ele>
        <time>2016-04-17T12:45:36.957Z</time>
      </trkpt>
      <trkpt lat="43.3829" lon="3.64069">
        <ele>40</ele>
        <time>2016-04-17T12:45:37.927Z</time>
      </trkpt>
      <trkpt lat="43.38296" lon="3.64077">
        <ele>41</ele>
        <time>2016-04-17T12:45:39.957Z</time>
      </trkpt>
      <trkpt lat="43.38299" lon="3.64082">
        <ele>41</ele>
        <time>2016-04-17T12:45:40.932Z</time>
      </trkpt>
      <trkpt lat="43.38305" lon="3.6409">
        <ele>41</ele>
        <time>2016-04-17T12:45:42.958Z</time>
      </trkpt>
      <trkpt lat="43.38307" lon="3.64095">
        <ele>40</ele>
        <time>2016-04-17T12:45:43.929Z</time>
      </trkpt>
      <trkpt lat="43.38313" lon="3.64103">
        <ele>41</ele>
        <time>2016-04-17T12:45:45.953Z</time>
      </trkpt>
      <trkpt lat="43.38316" lon="3.64108">
        <ele>42</ele>
        <time>2016-04-17T12:45:46.929Z</time>
      </trkpt>
      <trkpt lat="43.38321" lon="3.64116">
        <ele>43</ele>
        <time>2016-04-17T12:45:48.956Z</time>
      </trkpt>
      <trkpt lat="43.38325" lon="3.6412">
        <ele>43</ele>
        <time>2016-04-17T12:45:49.929Z</time>
      </trkpt>
      <trkpt lat="43.38332" lon="3.64124">
        <ele>45</ele>
        <time>2016-04-17T12:45:51.956Z</time>
      </trkpt>
      <trkpt lat="43.38335" lon="3.64131">
        <ele>45</ele>
        <time>2016-04-17T12:45:52.929Z</time>
      </trkpt>
      <trkpt lat="43.38337" lon="3.64137">
        <ele>45</ele>
        <time>2016-04-17T12:45:53.954Z</time>
      </trkpt>
      <trkpt lat="43.3834" lon="3.64143">
        <ele>44</ele>
        <time>2016-04-17T12:45:54.954Z</time>
      </trkpt>
      <trkpt lat="43.38343" lon="3.64148">
        <ele>44</ele>
        <time>2016-04-17T12:45:55.956Z</time>
      </trkpt>
      <trkpt lat="43.38346" lon="3.64152">
        <ele>45</ele>
        <time>2016-04-17T12:45:56.929Z</time>
      </trkpt>
      <trkpt lat="43.38349" lon="3.64158">
        <ele>46</ele>
        <time>2016-04-17T12:45:57.954Z</time>
      </trkpt>
      <trkpt lat="43.38352" lon="3.64162">
        <ele>46</ele>
        <time>2016-04-17T12:45:58.928Z</time>
      </trkpt>
      <trkpt lat="43.38357" lon="3.6417">
        <ele>46</ele>
        <time>2016-04-17T12:46:00.962Z</time>
      </trkpt>
      <trkpt lat="43.3836" lon="3.64174">
        <ele>45</ele>
        <time>2016-04-17T12:46:01.929Z</time>
      </trkpt>
      <trkpt lat="43.38362" lon="3.64179">
        <ele>44</ele>
        <time>2016-04-17T12:46:02.962Z</time>
      </trkpt>
      <trkpt lat="43.38366" lon="3.64184">
        <ele>44</ele>
        <time>2016-04-17T12:46:03.929Z</time>
      </trkpt>
      <trkpt lat="43.38368" lon="3.64189">
        <ele>44</ele>
        <time>2016-04-17T12:46:04.958Z</time>
      </trkpt>
      <trkpt lat="43.3837" lon="3.64195">
        <ele>43</ele>
        <time>2016-04-17T12:46:05.929Z</time>
      </trkpt>
      <trkpt lat="43.38373" lon="3.642">
        <ele>43</ele>
        <time>2016-04-17T12:46:06.950Z</time>
      </trkpt>
      <trkpt lat="43.38376" lon="3.64205">
        <ele>43</ele>
        <time>2016-04-17T12:46:07.928Z</time>
      </trkpt>
      <trkpt lat="43.38379" lon="3.64211">
        <ele>42</ele>
        <time>2016-04-17T12:46:08.958Z</time>
      </trkpt>
      <trkpt lat="43.38382" lon="3.64215">
        <ele>41</ele>
        <time>2016-04-17T12:46:09.928Z</time>
      </trkpt>
      <trkpt lat="43.38385" lon="3.64218">
        <ele>41</ele>
        <time>2016-04-17T12:46:10.970Z</time>
      </trkpt>
      <trkpt lat="43.38389" lon="3.64225">
        <ele>38</ele>
        <time>2016-04-17T12:46:11.928Z</time>
      </trkpt>
      <trkpt lat="43.38395" lon="3.64231">
        <ele>38</ele>
        <time>2016-04-17T12:46:13.957Z</time>
      </trkpt>
      <trkpt lat="43.38398" lon="3.64236">
        <ele>36</ele>
        <time>2016-04-17T12:46:14.929Z</time>
      </trkpt>
      <trkpt lat="43.38404" lon="3.64244">
        <ele>37</ele>
        <time>2016-04-17T12:46:16.958Z</time>
      </trkpt>
      <trkpt lat="43.38406" lon="3.64248">
        <ele>37</ele>
        <time>2016-04-17T12:46:17.927Z</time>
      </trkpt>
      <trkpt lat="43.38409" lon="3.64253">
        <ele>37</ele>
        <time>2016-04-17T12:46:18.957Z</time>
      </trkpt>
      <trkpt lat="43.38412" lon="3.64257">
        <ele>38</ele>
        <time>2016-04-17T12:46:19.927Z</time>
      </trkpt>
      <trkpt lat="43.38417" lon="3.64266">
        <ele>39</ele>
        <time>2016-04-17T12:46:21.956Z</time>
      </trkpt>
      <trkpt lat="43.3842" lon="3.64269">
        <ele>38</ele>
        <time>2016-04-17T12:46:22.929Z</time>
      </trkpt>
      <trkpt lat="43.38424" lon="3.64276">
        <ele>40</ele>
        <time>2016-04-17T12:46:24.957Z</time>
      </trkpt>
      <trkpt lat="43.38427" lon="3.6428">
        <ele>40</ele>
        <time>2016-04-17T12:46:25.928Z</time>
      </trkpt>
      <trkpt lat="43.38431" lon="3.64288">
        <ele>40</ele>
        <time>2016-04-17T12:46:27.957Z</time>
      </trkpt>
      <trkpt lat="43.38434" lon="3.64294">
        <ele>40</ele>
        <time>2016-04-17T12:46:28.928Z</time>
      </trkpt>
      <trkpt lat="43.38437" lon="3.64299">
        <ele>40</ele>
        <time>2016-04-17T12:46:29.957Z</time>
      </trkpt>
      <trkpt lat="43.38439" lon="3.64304">
        <ele>40</ele>
        <time>2016-04-17T12:46:30.929Z</time>
      </trkpt>
      <trkpt lat="43.38445" lon="3.64308">
        <ele>43</ele>
        <time>2016-04-17T12:46:33.076Z</time>
      </trkpt>
      <trkpt lat="43.38448" lon="3.64313">
        <ele>42</ele>
        <time>2016-04-17T12:46:33.928Z</time>
      </trkpt>
      <trkpt lat="43.38453" lon="3.64322">
        <ele>41</ele>
        <time>2016-04-17T12:46:35.957Z</time>
      </trkpt>
      <trkpt lat="43.38456" lon="3.64327">
        <ele>40</ele>
        <time>2016-04-17T12:46:36.930Z</time>
      </trkpt>
      <trkpt lat="43.38459" lon="3.64333">
        <ele>40</ele>
        <time>2016-04-17T12:46:37.957Z</time>
      </trkpt>
      <trkpt lat="43.38463" lon="3.64336">
        <ele>41</ele>
        <time>2016-04-17T12:46:38.929Z</time>
      </trkpt>
      <trkpt lat="43.38468" lon="3.64344">
        <ele>41</ele>
        <time>2016-04-17T12:46:40.958Z</time>
      </trkpt>
      <trkpt lat="43.38471" lon="3.64348">
        <ele>40</ele>
        <time>2016-04-17T12:46:41.930Z</time>
      </trkpt>
      <trkpt lat="43.38477" lon="3.64356">
        <ele>40</ele>
        <time>2016-04-17T12:46:43.956Z</time>
      </trkpt>
      <trkpt lat="43.38479" lon="3.64359">
        <ele>41</ele>
        <time>2016-04-17T12:46:44.930Z</time>
      </trkpt>
      <trkpt lat="43.38484" lon="3.64369">
        <ele>41</ele>
        <time>2016-04-17T12:46:46.957Z</time>
      </trkpt>
      <trkpt lat="43.38486" lon="3.64375">
        <ele>40</ele>
        <time>2016-04-17T12:46:47.953Z</time>
      </trkpt>
      <trkpt lat="43.38491" lon="3.64384">
        <ele>40</ele>
        <time>2016-04-17T12:46:49.954Z</time>
      </trkpt>
      <trkpt lat="43.38494" lon="3.64389">
        <ele>40</ele>
        <time>2016-04-17T12:46:50.930Z</time>
      </trkpt>
      <trkpt lat="43.38497" lon="3.64395">
        <ele>39</ele>
        <time>2016-04-17T12:46:51.956Z</time>
      </trkpt>
      <trkpt lat="43.385" lon="3.64399">
        <ele>40</ele>
        <time>2016-04-17T12:46:52.930Z</time>
      </trkpt>
      <trkpt lat="43.38504" lon="3.64409">
        <ele>40</ele>
        <time>2016-04-17T12:46:54.956Z</time>
      </trkpt>
      <trkpt lat="43.38506" lon="3.64414">
        <ele>39</ele>
        <time>2016-04-17T12:46:55.929Z</time>
      </trkpt>
      <trkpt lat="43.38513" lon="3.64421">
        <ele>39</ele>
        <time>2016-04-17T12:46:58.097Z</time>
      </trkpt>
      <trkpt lat="43.38515" lon="3.64425">
        <ele>39</ele>
        <time>2016-04-17T12:46:58.929Z</time>
      </trkpt>
      <trkpt lat="43.38521" lon="3.64429">
        <ele>44</ele>
        <time>2016-04-17T12:47:00.960Z</time>
      </trkpt>
      <trkpt lat="43.38525" lon="3.64435">
        <ele>42</ele>
        <time>2016-04-17T12:47:01.932Z</time>
      </trkpt>
      <trkpt lat="43.3853" lon="3.64444">
        <ele>41</ele>
        <time>2016-04-17T12:47:03.956Z</time>
      </trkpt>
      <trkpt lat="43.38533" lon="3.6445">
        <ele>41</ele>
        <time>2016-04-17T12:47:04.925Z</time>
      </trkpt>
      <trkpt lat="43.38537" lon="3.64455">
        <ele>42</ele>
        <time>2016-04-17T12:47:05.956Z</time>
      </trkpt>
      <trkpt lat="43.3854" lon="3.6446">
        <ele>41</ele>
        <time>2016-04-17T12:47:06.932Z</time>
      </trkpt>
      <trkpt lat="43.38545" lon="3.64468">
        <ele>41</ele>
        <time>2016-04-17T12:47:08.983Z</time>
      </trkpt>
      <trkpt lat="43.38548" lon="3.64472">
        <ele>41</ele>
        <time>2016-04-17T12:47:09.930Z</time>
      </trkpt>
      <trkpt lat="43.38554" lon="3.6448">
        <ele>42</ele>
        <time>2016-04-17T12:47:11.956Z</time>
      </trkpt>
      <trkpt lat="43.38556" lon="3.64486">
        <ele>41</ele>
        <time>2016-04-17T12:47:12.931Z</time>
      </trkpt>
      <trkpt lat="43.3856" lon="3.64495">
        <ele>41</ele>
        <time>2016-04-17T12:47:14.957Z</time>
      </trkpt>
      <trkpt lat="43.38562" lon="3.64501">
        <ele>41</ele>
        <time>2016-04-17T12:47:15.929Z</time>
      </trkpt>
      <trkpt lat="43.38569" lon="3.6451">
        <ele>41</ele>
        <time>2016-04-17T12:47:17.958Z</time>
      </trkpt>
      <trkpt lat="43.38572" lon="3.64514">
        <ele>41</ele>
        <time>2016-04-17T12:47:18.929Z</time>
      </trkpt>
      <trkpt lat="43.38577" lon="3.64522">
        <ele>43</ele>
        <time>2016-04-17T12:47:20.958Z</time>
      </trkpt>
      <trkpt lat="43.3858" lon="3.64526">
        <ele>43</ele>
        <time>2016-04-17T12:47:21.930Z</time>
      </trkpt>
      <trkpt lat="43.38582" lon="3.64531">
        <ele>42</ele>
        <time>2016-04-17T12:47:22.958Z</time>
      </trkpt>
      <trkpt lat="43.38584" lon="3.64537">
        <ele>42</ele>
        <time>2016-04-17T12:47:23.929Z</time>
      </trkpt>
      <trkpt lat="43.3859" lon="3.64546">
        <ele>42</ele>
        <time>2016-04-17T12:47:25.957Z</time>
      </trkpt>
      <trkpt lat="43.38594" lon="3.64551">
        <ele>41</ele>
        <time>2016-04-17T12:47:26.929Z</time>
      </trkpt>
      <trkpt lat="43.38599" lon="3.64557">
        <ele>41</ele>
        <time>2016-04-17T12:47:28.957Z</time>
      </trkpt>
      <trkpt lat="43.38601" lon="3.6456">
        <ele>41</ele>
        <time>2016-04-17T12:47:29.925Z</time>
      </trkpt>
      <trkpt lat="43.38607" lon="3.64567">
        <ele>43</ele>
        <time>2016-04-17T12:47:31.961Z</time>
      </trkpt>
      <trkpt lat="43.38609" lon="3.64572">
        <ele>44</ele>
        <time>2016-04-17T12:47:32.929Z</time>
      </trkpt>
      <trkpt lat="43.38614" lon="3.64577">
        <ele>46</ele>
        <time>2016-04-17T12:47:34.956Z</time>
      </trkpt>
      <trkpt lat="43.38617" lon="3.64583">
        <ele>45</ele>
        <time>2016-04-17T12:47:35.928Z</time>
      </trkpt>
      <trkpt lat="43.3862" lon="3.64588">
        <ele>46</ele>
        <time>2016-04-17T12:47:36.955Z</time>
      </trkpt>
      <trkpt lat="43.38623" lon="3.64595">
        <ele>47</ele>
        <time>2016-04-17T12:47:37.930Z</time>
      </trkpt>
      <trkpt lat="43.38628" lon="3.64605">
        <ele>44</ele>
        <time>2016-04-17T12:47:39.958Z</time>
      </trkpt>
      <trkpt lat="43.38631" lon="3.64608">
        <ele>44</ele>
        <time>2016-04-17T12:47:40.956Z</time>
      </trkpt>
      <trkpt lat="43.38634" lon="3.64612">
        <ele>44</ele>
        <time>2016-04-17T12:47:41.958Z</time>
      </trkpt>
      <trkpt lat="43.38638" lon="3.64616">
        <ele>44</ele>
        <time>2016-04-17T12:47:42.929Z</time>
      </trkpt>
      <trkpt lat="43.38643" lon="3.64625">
        <ele>44</ele>
        <time>2016-04-17T12:47:44.959Z</time>
      </trkpt>
      <trkpt lat="43.38647" lon="3.64631">
        <ele>43</ele>
        <time>2016-04-17T12:47:45.929Z</time>
      </trkpt>
      <trkpt lat="43.38649" lon="3.64636">
        <ele>43</ele>
        <time>2016-04-17T12:47:47.087Z</time>
      </trkpt>
      <trkpt lat="43.38653" lon="3.64643">
        <ele>42</ele>
        <time>2016-04-17T12:47:47.929Z</time>
      </trkpt>
      <trkpt lat="43.38657" lon="3.64648">
        <ele>41</ele>
        <time>2016-04-17T12:47:48.955Z</time>
      </trkpt>
      <trkpt lat="43.38659" lon="3.64653">
        <ele>41</ele>
        <time>2016-04-17T12:47:49.928Z</time>
      </trkpt>
      <trkpt lat="43.38664" lon="3.64663">
        <ele>40</ele>
        <time>2016-04-17T12:47:51.980Z</time>
      </trkpt>
      <trkpt lat="43.38667" lon="3.64669">
        <ele>40</ele>
        <time>2016-04-17T12:47:52.932Z</time>
      </trkpt>
      <trkpt lat="43.38674" lon="3.64676">
        <ele>40</ele>
        <time>2016-04-17T12:47:54.957Z</time>
      </trkpt>
      <trkpt lat="43.38677" lon="3.6468">
        <ele>41</ele>
        <time>2016-04-17T12:47:55.929Z</time>
      </trkpt>
      <trkpt lat="43.38682" lon="3.6469">
        <ele>41</ele>
        <time>2016-04-17T12:47:57.962Z</time>
      </trkpt>
      <trkpt lat="43.38684" lon="3.64695">
        <ele>42</ele>
        <time>2016-04-17T12:47:58.924Z</time>
      </trkpt>
      <trkpt lat="43.38688" lon="3.64701">
        <ele>39</ele>
        <time>2016-04-17T12:47:59.960Z</time>
      </trkpt>
      <trkpt lat="43.3869" lon="3.64707">
        <ele>39</ele>
        <time>2016-04-17T12:48:00.934Z</time>
      </trkpt>
      <trkpt lat="43.38695" lon="3.64714">
        <ele>38</ele>
        <time>2016-04-17T12:48:02.955Z</time>
      </trkpt>
      <trkpt lat="43.38699" lon="3.6472">
        <ele>38</ele>
        <time>2016-04-17T12:48:03.927Z</time>
      </trkpt>
      <trkpt lat="43.38705" lon="3.64726">
        <ele>38</ele>
        <time>2016-04-17T12:48:05.956Z</time>
      </trkpt>
      <trkpt lat="43.38707" lon="3.6473">
        <ele>39</ele>
        <time>2016-04-17T12:48:06.930Z</time>
      </trkpt>
      <trkpt lat="43.38712" lon="3.64739">
        <ele>39</ele>
        <time>2016-04-17T12:48:08.957Z</time>
      </trkpt>
      <trkpt lat="43.38715" lon="3.64744">
        <ele>39</ele>
        <time>2016-04-17T12:48:09.930Z</time>
      </trkpt>
      <trkpt lat="43.38718" lon="3.64748">
        <ele>39</ele>
        <time>2016-04-17T12:48:11.077Z</time>
      </trkpt>
      <trkpt lat="43.38722" lon="3.64757">
        <ele>34</ele>
        <time>2016-04-17T12:48:11.929Z</time>
      </trkpt>
      <trkpt lat="43.38728" lon="3.64764">
        <ele>35</ele>
        <time>2016-04-17T12:48:13.956Z</time>
      </trkpt>
      <trkpt lat="43.38731" lon="3.64767">
        <ele>35</ele>
        <time>2016-04-17T12:48:14.932Z</time>
      </trkpt>
      <trkpt lat="43.38736" lon="3.64775">
        <ele>34</ele>
        <time>2016-04-17T12:48:16.958Z</time>
      </trkpt>
      <trkpt lat="43.38739" lon="3.64779">
        <ele>33</ele>
        <time>2016-04-17T12:48:17.929Z</time>
      </trkpt>
      <trkpt lat="43.38745" lon="3.64787">
        <ele>34</ele>
        <time>2016-04-17T12:48:19.957Z</time>
      </trkpt>
      <trkpt lat="43.38748" lon="3.64791">
        <ele>33</ele>
        <time>2016-04-17T12:48:20.927Z</time>
      </trkpt>
      <trkpt lat="43.38751" lon="3.64795">
        <ele>33</ele>
        <time>2016-04-17T12:48:21.957Z</time>
      </trkpt>
      <trkpt lat="43.38754" lon="3.648">
        <ele>33</ele>
        <time>2016-04-17T12:48:22.926Z</time>
      </trkpt>
      <trkpt lat="43.38761" lon="3.64799">
        <ele>36</ele>
        <time>2016-04-17T12:48:24.950Z</time>
      </trkpt>
      <trkpt lat="43.38764" lon="3.64797">
        <ele>39</ele>
        <time>2016-04-17T12:48:25.929Z</time>
      </trkpt>
      <trkpt lat="43.38769" lon="3.64805">
        <ele>41</ele>
        <time>2016-04-17T12:48:28.982Z</time>
      </trkpt>
      <trkpt lat="43.38771" lon="3.64806">
        <ele>41</ele>
        <time>2016-04-17T12:48:29.930Z</time>
      </trkpt>
      <trkpt lat="43.38777" lon="3.64813">
        <ele>41</ele>
        <time>2016-04-17T12:48:32.959Z</time>
      </trkpt>
      <trkpt lat="43.38777" lon="3.64816">
        <ele>40</ele>
        <time>2016-04-17T12:48:33.929Z</time>
      </trkpt>
      <trkpt lat="43.38784" lon="3.64822">
        <ele>41</ele>
        <time>2016-04-17T12:48:37.956Z</time>
      </trkpt>
      <trkpt lat="43.38785" lon="3.64824">
        <ele>41</ele>
        <time>2016-04-17T12:48:38.929Z</time>
      </trkpt>
      <trkpt lat="43.38791" lon="3.64833">
        <ele>38</ele>
        <time>2016-04-17T12:48:44.971Z</time>
      </trkpt>
      <trkpt lat="43.38792" lon="3.64834">
        <ele>38</ele>
        <time>2016-04-17T12:48:45.927Z</time>
      </trkpt>
      <trkpt lat="43.38795" lon="3.64831">
        <ele>45</ele>
        <time>2016-04-17T12:49:17.955Z</time>
      </trkpt>
      <trkpt lat="43.38794" lon="3.64831">
        <ele>45</ele>
        <time>2016-04-17T12:49:19.075Z</time>
      </trkpt>
      <trkpt lat="43.38797" lon="3.64832">
        <ele>46</ele>
        <time>2016-04-17T12:49:25.960Z</time>
      </trkpt>
      <trkpt lat="43.38797" lon="3.64832">
        <ele>46</ele>
        <time>2016-04-17T12:49:26.929Z</time>
      </trkpt>
      <trkpt lat="43.38796" lon="3.64834">
        <ele>45</ele>
        <time>2016-04-17T12:49:43.959Z</time>
      </trkpt>
      <trkpt lat="43.38796" lon="3.64834">
        <ele>44</ele>
        <time>2016-04-17T12:49:44.929Z</time>
      </trkpt>
      <trkpt lat="43.38797" lon="3.64832">
        <ele>44</ele>
        <time>2016-04-17T12:50:03.956Z</time>
      </trkpt>
      <trkpt lat="43.38798" lon="3.64834">
        <ele>44</ele>
        <time>2016-04-17T12:50:04.932Z</time>
      </trkpt>
      <trkpt lat="43.38803" lon="3.64841">
        <ele>49</ele>
        <time>2016-04-17T12:50:08.958Z</time>
      </trkpt>
      <trkpt lat="43.38804" lon="3.64844">
        <ele>49</ele>
        <time>2016-04-17T12:50:09.958Z</time>
      </trkpt>
      <trkpt lat="43.38806" lon="3.64851">
        <ele>48</ele>
        <time>2016-04-17T12:50:11.957Z</time>
      </trkpt>
      <trkpt lat="43.38804" lon="3.64858">
        <ele>45</ele>
        <time>2016-04-17T12:50:12.929Z</time>
      </trkpt>
      <trkpt lat="43.38807" lon="3.64868">
        <ele>44</ele>
        <time>2016-04-17T12:50:14.961Z</time>
      </trkpt>
      <trkpt lat="43.38809" lon="3.64871">
        <ele>45</ele>
        <time>2016-04-17T12:50:15.930Z</time>
      </trkpt>
      <trkpt lat="43.38815" lon="3.64879">
        <ele>47</ele>
        <time>2016-04-17T12:50:18.955Z</time>
      </trkpt>
      <trkpt lat="43.38817" lon="3.64883">
        <ele>47</ele>
        <time>2016-04-17T12:50:19.929Z</time>
      </trkpt>
      <trkpt lat="43.38821" lon="3.64892">
        <ele>49</ele>
        <time>2016-04-17T12:50:22.961Z</time>
      </trkpt>
      <trkpt lat="43.38825" lon="3.64895">
        <ele>50</ele>
        <time>2016-04-17T12:50:23.930Z</time>
      </trkpt>
      <trkpt lat="43.38829" lon="3.64902">
        <ele>50</ele>
        <time>2016-04-17T12:50:25.962Z</time>
      </trkpt>
      <trkpt lat="43.38831" lon="3.64907">
        <ele>48</ele>
        <time>2016-04-17T12:50:26.930Z</time>
      </trkpt>
      <trkpt lat="43.38837" lon="3.64914">
        <ele>48</ele>
        <time>2016-04-17T12:50:28.961Z</time>
      </trkpt>
      <trkpt lat="43.38839" lon="3.64918">
        <ele>48</ele>
        <time>2016-04-17T12:50:29.930Z</time>
      </trkpt>
      <trkpt lat="43.38844" lon="3.64926">
        <ele>49</ele>
        <time>2016-04-17T12:50:31.951Z</time>
      </trkpt>
      <trkpt lat="43.38845" lon="3.6493">
        <ele>49</ele>
        <time>2016-04-17T12:50:32.929Z</time>
      </trkpt>
      <trkpt lat="43.3885" lon="3.64938">
        <ele>48</ele>
        <time>2016-04-17T12:50:34.962Z</time>
      </trkpt>
      <trkpt lat="43.38854" lon="3.64942">
        <ele>49</ele>
        <time>2016-04-17T12:50:35.961Z</time>
      </trkpt>
      <trkpt lat="43.38858" lon="3.64951">
        <ele>47</ele>
        <time>2016-04-17T12:50:38.050Z</time>
      </trkpt>
      <trkpt lat="43.3886" lon="3.64954">
        <ele>47</ele>
        <time>2016-04-17T12:50:38.931Z</time>
      </trkpt>
      <trkpt lat="43.38864" lon="3.64962">
        <ele>47</ele>
        <time>2016-04-17T12:50:40.953Z</time>
      </trkpt>
      <trkpt lat="43.38865" lon="3.64966">
        <ele>48</ele>
        <time>2016-04-17T12:50:41.929Z</time>
      </trkpt>
      <trkpt lat="43.38868" lon="3.64973">
        <ele>47</ele>
        <time>2016-04-17T12:50:43.954Z</time>
      </trkpt>
      <trkpt lat="43.38871" lon="3.64978">
        <ele>44</ele>
        <time>2016-04-17T12:50:44.930Z</time>
      </trkpt>
      <trkpt lat="43.38873" lon="3.6499">
        <ele>42</ele>
        <time>2016-04-17T12:50:46.959Z</time>
      </trkpt>
      <trkpt lat="43.38875" lon="3.64993">
        <ele>42</ele>
        <time>2016-04-17T12:50:47.930Z</time>
      </trkpt>
      <trkpt lat="43.3888" lon="3.65001">
        <ele>43</ele>
        <time>2016-04-17T12:50:50.958Z</time>
      </trkpt>
      <trkpt lat="43.38882" lon="3.65005">
        <ele>42</ele>
        <time>2016-04-17T12:50:51.956Z</time>
      </trkpt>
      <trkpt lat="43.38886" lon="3.65012">
        <ele>42</ele>
        <time>2016-04-17T12:50:53.959Z</time>
      </trkpt>
      <trkpt lat="43.38888" lon="3.65015">
        <ele>42</ele>
        <time>2016-04-17T12:50:54.931Z</time>
      </trkpt>
      <trkpt lat="43.38892" lon="3.65021">
        <ele>44</ele>
        <time>2016-04-17T12:50:56.956Z</time>
      </trkpt>
      <trkpt lat="43.38894" lon="3.65026">
        <ele>42</ele>
        <time>2016-04-17T12:50:57.930Z</time>
      </trkpt>
      <trkpt lat="43.38897" lon="3.65036">
        <ele>40</ele>
        <time>2016-04-17T12:50:59.957Z</time>
      </trkpt>
      <trkpt lat="43.38899" lon="3.6504">
        <ele>40</ele>
        <time>2016-04-17T12:51:00.929Z</time>
      </trkpt>
      <trkpt lat="43.38903" lon="3.65046">
        <ele>40</ele>
        <time>2016-04-17T12:51:03.016Z</time>
      </trkpt>
      <trkpt lat="43.38905" lon="3.6505">
        <ele>40</ele>
        <time>2016-04-17T12:51:03.930Z</time>
      </trkpt>
      <trkpt lat="43.38911" lon="3.65058">
        <ele>39</ele>
        <time>2016-04-17T12:51:06.956Z</time>
      </trkpt>
      <trkpt lat="43.38912" lon="3.65062">
        <ele>39</ele>
        <time>2016-04-17T12:51:07.952Z</time>
      </trkpt>
      <trkpt lat="43.38916" lon="3.65069">
        <ele>38</ele>
        <time>2016-04-17T12:51:09.957Z</time>
      </trkpt>
      <trkpt lat="43.38918" lon="3.65072">
        <ele>39</ele>
        <time>2016-04-17T12:51:10.930Z</time>
      </trkpt>
      <trkpt lat="43.38924" lon="3.65081">
        <ele>40</ele>
        <time>2016-04-17T12:51:13.958Z</time>
      </trkpt>
      <trkpt lat="43.38925" lon="3.65085">
        <ele>40</ele>
        <time>2016-04-17T12:51:14.930Z</time>
      </trkpt>
      <trkpt lat="43.3893" lon="3.65092">
        <ele>42</ele>
        <time>2016-04-17T12:51:17.957Z</time>
      </trkpt>
      <trkpt lat="43.38932" lon="3.65095">
        <ele>42</ele>
        <time>2016-04-17T12:51:18.929Z</time>
      </trkpt>
      <trkpt lat="43.38936" lon="3.65105">
        <ele>41</ele>
        <time>2016-04-17T12:51:22.957Z</time>
      </trkpt>
      <trkpt lat="43.38937" lon="3.65108">
        <ele>40</ele>
        <time>2016-04-17T12:51:23.955Z</time>
      </trkpt>
      <trkpt lat="43.38943" lon="3.65114">
        <ele>41</ele>
        <time>2016-04-17T12:51:28.955Z</time>
      </trkpt>
      <trkpt lat="43.38945" lon="3.65115">
        <ele>42</ele>
        <time>2016-04-17T12:51:29.930Z</time>
      </trkpt>
      <trkpt lat="43.3895" lon="3.65123">
        <ele>45</ele>
        <time>2016-04-17T12:51:34.983Z</time>
      </trkpt>
      <trkpt lat="43.38951" lon="3.65126">
        <ele>44</ele>
        <time>2016-04-17T12:51:35.932Z</time>
      </trkpt>
      <trkpt lat="43.38954" lon="3.65136">
        <ele>43</ele>
        <time>2016-04-17T12:51:38.960Z</time>
      </trkpt>
      <trkpt lat="43.38954" lon="3.65139">
        <ele>42</ele>
        <time>2016-04-17T12:51:39.928Z</time>
      </trkpt>
      <trkpt lat="43.38961" lon="3.65147">
        <ele>43</ele>
        <time>2016-04-17T12:51:42.961Z</time>
      </trkpt>
      <trkpt lat="43.38964" lon="3.65148">
        <ele>44</ele>
        <time>2016-04-17T12:51:43.929Z</time>
      </trkpt>
      <trkpt lat="43.38969" lon="3.65156">
        <ele>45</ele>
        <time>2016-04-17T12:51:46.959Z</time>
      </trkpt>
      <trkpt lat="43.38971" lon="3.6516">
        <ele>45</ele>
        <time>2016-04-17T12:51:47.931Z</time>
      </trkpt>
      <trkpt lat="43.38975" lon="3.6517">
        <ele>44</ele>
        <time>2016-04-17T12:51:50.957Z</time>
      </trkpt>
      <trkpt lat="43.38977" lon="3.65173">
        <ele>45</ele>
        <time>2016-04-17T12:51:51.930Z</time>
      </trkpt>
      <trkpt lat="43.38982" lon="3.6518">
        <ele>46</ele>
        <time>2016-04-17T12:51:53.957Z</time>
      </trkpt>
      <trkpt lat="43.38983" lon="3.65182">
        <ele>46</ele>
        <time>2016-04-17T12:51:54.930Z</time>
      </trkpt>
      <trkpt lat="43.38989" lon="3.65189">
        <ele>47</ele>
        <time>2016-04-17T12:51:57.956Z</time>
      </trkpt>
      <trkpt lat="43.38991" lon="3.65195">
        <ele>45</ele>
        <time>2016-04-17T12:51:58.930Z</time>
      </trkpt>
      <trkpt lat="43.38994" lon="3.65202">
        <ele>46</ele>
        <time>2016-04-17T12:52:00.957Z</time>
      </trkpt>
      <trkpt lat="43.38997" lon="3.65208">
        <ele>44</ele>
        <time>2016-04-17T12:52:01.935Z</time>
      </trkpt>
      <trkpt lat="43.39002" lon="3.65217">
        <ele>45</ele>
        <time>2016-04-17T12:52:04.958Z</time>
      </trkpt>
      <trkpt lat="43.39003" lon="3.65224">
        <ele>43</ele>
        <time>2016-04-17T12:52:05.930Z</time>
      </trkpt>
      <trkpt lat="43.3901" lon="3.65232">
        <ele>44</ele>
        <time>2016-04-17T12:52:08.958Z</time>
      </trkpt>
      <trkpt lat="43.39011" lon="3.65235">
        <ele>43</ele>
        <time>2016-04-17T12:52:09.930Z</time>
      </trkpt>
      <trkpt lat="43.39014" lon="3.65243">
        <ele>44</ele>
        <time>2016-04-17T12:52:11.958Z</time>
      </trkpt>
      <trkpt lat="43.39016" lon="3.65247">
        <ele>43</ele>
        <time>2016-04-17T12:52:12.931Z</time>
      </trkpt>
      <trkpt lat="43.39018" lon="3.65255">
        <ele>45</ele>
        <time>2016-04-17T12:52:14.955Z</time>
      </trkpt>
      <trkpt lat="43.3902" lon="3.65259">
        <ele>44</ele>
        <time>2016-04-17T12:52:15.929Z</time>
      </trkpt>
      <trkpt lat="43.39023" lon="3.65268">
        <ele>43</ele>
        <time>2016-04-17T12:52:17.957Z</time>
      </trkpt>
      <trkpt lat="43.39024" lon="3.65272">
        <ele>44</ele>
        <time>2016-04-17T12:52:18.930Z</time>
      </trkpt>
      <trkpt lat="43.39029" lon="3.65282">
        <ele>46</ele>
        <time>2016-04-17T12:52:21.956Z</time>
      </trkpt>
      <trkpt lat="43.3903" lon="3.65286">
        <ele>45</ele>
        <time>2016-04-17T12:52:22.929Z</time>
      </trkpt>
      <trkpt lat="43.39033" lon="3.65294">
        <ele>45</ele>
        <time>2016-04-17T12:52:24.947Z</time>
      </trkpt>
      <trkpt lat="43.39035" lon="3.65297">
        <ele>47</ele>
        <time>2016-04-17T12:52:25.930Z</time>
      </trkpt>
      <trkpt lat="43.39037" lon="3.65306">
        <ele>47</ele>
        <time>2016-04-17T12:52:27.956Z</time>
      </trkpt>
      <trkpt lat="43.39039" lon="3.6531">
        <ele>47</ele>
        <time>2016-04-17T12:52:28.926Z</time>
      </trkpt>
      <trkpt lat="43.39041" lon="3.65319">
        <ele>46</ele>
        <time>2016-04-17T12:52:30.961Z</time>
      </trkpt>
      <trkpt lat="43.39042" lon="3.65327">
        <ele>44</ele>
        <time>2016-04-17T12:52:31.930Z</time>
      </trkpt>
      <trkpt lat="43.39047" lon="3.65335">
        <ele>43</ele>
        <time>2016-04-17T12:52:33.956Z</time>
      </trkpt>
      <trkpt lat="43.39049" lon="3.65339">
        <ele>44</ele>
        <time>2016-04-17T12:52:34.929Z</time>
      </trkpt>
      <trkpt lat="43.39052" lon="3.65349">
        <ele>43</ele>
        <time>2016-04-17T12:52:36.956Z</time>
      </trkpt>
      <trkpt lat="43.39053" lon="3.65353">
        <ele>43</ele>
        <time>2016-04-17T12:52:37.928Z</time>
      </trkpt>
      <trkpt lat="43.39055" lon="3.65363">
        <ele>43</ele>
        <time>2016-04-17T12:52:39.961Z</time>
      </trkpt>
      <trkpt lat="43.39057" lon="3.65367">
        <ele>44</ele>
        <time>2016-04-17T12:52:40.930Z</time>
      </trkpt>
      <trkpt lat="43.39061" lon="3.65373">
        <ele>46</ele>
        <time>2016-04-17T12:52:42.958Z</time>
      </trkpt>
      <trkpt lat="43.39062" lon="3.65379">
        <ele>46</ele>
        <time>2016-04-17T12:52:43.954Z</time>
      </trkpt>
      <trkpt lat="43.39067" lon="3.65388">
        <ele>46</ele>
        <time>2016-04-17T12:52:45.958Z</time>
      </trkpt>
      <trkpt lat="43.39068" lon="3.65392">
        <ele>46</ele>
        <time>2016-04-17T12:52:46.929Z</time>
      </trkpt>
      <trkpt lat="43.39072" lon="3.65401">
        <ele>46</ele>
        <time>2016-04-17T12:52:48.952Z</time>
      </trkpt>
      <trkpt lat="43.39075" lon="3.65405">
        <ele>46</ele>
        <time>2016-04-17T12:52:49.933Z</time>
      </trkpt>
      <trkpt lat="43.39078" lon="3.65413">
        <ele>47</ele>
        <time>2016-04-17T12:52:51.955Z</time>
      </trkpt>
      <trkpt lat="43.39079" lon="3.65418">
        <ele>47</ele>
        <time>2016-04-17T12:52:52.932Z</time>
      </trkpt>
      <trkpt lat="43.39082" lon="3.65426">
        <ele>45</ele>
        <time>2016-04-17T12:52:54.986Z</time>
      </trkpt>
      <trkpt lat="43.39082" lon="3.65432">
        <ele>45</ele>
        <time>2016-04-17T12:52:55.931Z</time>
      </trkpt>
      <trkpt lat="43.39087" lon="3.6544">
        <ele>45</ele>
        <time>2016-04-17T12:52:57.964Z</time>
      </trkpt>
      <trkpt lat="43.39089" lon="3.65444">
        <ele>45</ele>
        <time>2016-04-17T12:52:58.931Z</time>
      </trkpt>
      <trkpt lat="43.39091" lon="3.65453">
        <ele>45</ele>
        <time>2016-04-17T12:53:00.952Z</time>
      </trkpt>
      <trkpt lat="43.39094" lon="3.65455">
        <ele>46</ele>
        <time>2016-04-17T12:53:01.930Z</time>
      </trkpt>
      <trkpt lat="43.39098" lon="3.65464">
        <ele>45</ele>
        <time>2016-04-17T12:53:03.962Z</time>
      </trkpt>
      <trkpt lat="43.391" lon="3.65468">
        <ele>45</ele>
        <time>2016-04-17T12:53:04.930Z</time>
      </trkpt>
      <trkpt lat="43.39102" lon="3.65478">
        <ele>44</ele>
        <time>2016-04-17T12:53:06.958Z</time>
      </trkpt>
      <trkpt lat="43.39104" lon="3.65483">
        <ele>44</ele>
        <time>2016-04-17T12:53:07.930Z</time>
      </trkpt>
      <trkpt lat="43.39107" lon="3.65493">
        <ele>44</ele>
        <time>2016-04-17T12:53:09.962Z</time>
      </trkpt>
      <trkpt lat="43.39109" lon="3.65498">
        <ele>44</ele>
        <time>2016-04-17T12:53:10.929Z</time>
      </trkpt>
      <trkpt lat="43.3911" lon="3.65502">
        <ele>44</ele>
        <time>2016-04-17T12:53:11.962Z</time>
      </trkpt>
      <trkpt lat="43.39112" lon="3.65509">
        <ele>42</ele>
        <time>2016-04-17T12:53:12.933Z</time>
      </trkpt>
      <trkpt lat="43.39116" lon="3.65518">
        <ele>42</ele>
        <time>2016-04-17T12:53:15.015Z</time>
      </trkpt>
      <trkpt lat="43.39118" lon="3.65522">
        <ele>43</ele>
        <time>2016-04-17T12:53:15.956Z</time>
      </trkpt>
      <trkpt lat="43.39121" lon="3.6553">
        <ele>41</ele>
        <time>2016-04-17T12:53:17.958Z</time>
      </trkpt>
      <trkpt lat="43.39122" lon="3.65535">
        <ele>41</ele>
        <time>2016-04-17T12:53:18.930Z</time>
      </trkpt>
      <trkpt lat="43.39126" lon="3.65544">
        <ele>43</ele>
        <time>2016-04-17T12:53:20.958Z</time>
      </trkpt>
      <trkpt lat="43.39128" lon="3.65548">
        <ele>42</ele>
        <time>2016-04-17T12:53:21.930Z</time>
      </trkpt>
      <trkpt lat="43.39132" lon="3.65558">
        <ele>42</ele>
        <time>2016-04-17T12:53:23.958Z</time>
      </trkpt>
      <trkpt lat="43.39133" lon="3.65562">
        <ele>41</ele>
        <time>2016-04-17T12:53:24.930Z</time>
      </trkpt>
      <trkpt lat="43.39137" lon="3.65572">
        <ele>42</ele>
        <time>2016-04-17T12:53:26.949Z</time>
      </trkpt>
      <trkpt lat="43.39139" lon="3.65577">
        <ele>43</ele>
        <time>2016-04-17T12:53:27.930Z</time>
      </trkpt>
      <trkpt lat="43.39143" lon="3.65585">
        <ele>42</ele>
        <time>2016-04-17T12:53:29.957Z</time>
      </trkpt>
      <trkpt lat="43.39145" lon="3.6559">
        <ele>43</ele>
        <time>2016-04-17T12:53:30.932Z</time>
      </trkpt>
      <trkpt lat="43.39146" lon="3.65599">
        <ele>41</ele>
        <time>2016-04-17T12:53:31.989Z</time>
      </trkpt>
      <trkpt lat="43.39147" lon="3.65605">
        <ele>40</ele>
        <time>2016-04-17T12:53:32.931Z</time>
      </trkpt>
      <trkpt lat="43.39153" lon="3.65612">
        <ele>40</ele>
        <time>2016-04-17T12:53:34.947Z</time>
      </trkpt>
      <trkpt lat="43.39156" lon="3.65615">
        <ele>41</ele>
        <time>2016-04-17T12:53:35.930Z</time>
      </trkpt>
      <trkpt lat="43.39161" lon="3.65623">
        <ele>42</ele>
        <time>2016-04-17T12:53:37.958Z</time>
      </trkpt>
      <trkpt lat="43.39162" lon="3.65629">
        <ele>41</ele>
        <time>2016-04-17T12:53:38.930Z</time>
      </trkpt>
      <trkpt lat="43.39165" lon="3.6564">
        <ele>41</ele>
        <time>2016-04-17T12:53:41.960Z</time>
      </trkpt>
      <trkpt lat="43.39167" lon="3.65644">
        <ele>42</ele>
        <time>2016-04-17T12:53:42.930Z</time>
      </trkpt>
      <trkpt lat="43.3917" lon="3.65651">
        <ele>42</ele>
        <time>2016-04-17T12:53:45.035Z</time>
      </trkpt>
      <trkpt lat="43.3917" lon="3.65657">
        <ele>43</ele>
        <time>2016-04-17T12:53:45.929Z</time>
      </trkpt>
      <trkpt lat="43.39173" lon="3.65664">
        <ele>42</ele>
        <time>2016-04-17T12:53:47.984Z</time>
      </trkpt>
      <trkpt lat="43.39176" lon="3.65667">
        <ele>42</ele>
        <time>2016-04-17T12:53:48.929Z</time>
      </trkpt>
      <trkpt lat="43.3918" lon="3.65676">
        <ele>42</ele>
        <time>2016-04-17T12:53:50.957Z</time>
      </trkpt>
      <trkpt lat="43.39182" lon="3.65679">
        <ele>42</ele>
        <time>2016-04-17T12:53:51.931Z</time>
      </trkpt>
      <trkpt lat="43.39186" lon="3.65688">
        <ele>42</ele>
        <time>2016-04-17T12:53:54.958Z</time>
      </trkpt>
      <trkpt lat="43.39188" lon="3.65692">
        <ele>41</ele>
        <time>2016-04-17T12:53:55.930Z</time>
      </trkpt>
      <trkpt lat="43.39191" lon="3.657">
        <ele>43</ele>
        <time>2016-04-17T12:53:57.957Z</time>
      </trkpt>
      <trkpt lat="43.39192" lon="3.65705">
        <ele>42</ele>
        <time>2016-04-17T12:53:58.928Z</time>
      </trkpt>
      <trkpt lat="43.39193" lon="3.65717">
        <ele>41</ele>
        <time>2016-04-17T12:54:00.957Z</time>
      </trkpt>
      <trkpt lat="43.39194" lon="3.6572">
        <ele>42</ele>
        <time>2016-04-17T12:54:01.931Z</time>
      </trkpt>
      <trkpt lat="43.39199" lon="3.65731">
        <ele>45</ele>
        <time>2016-04-17T12:54:04.957Z</time>
      </trkpt>
      <trkpt lat="43.39201" lon="3.65735">
        <ele>45</ele>
        <time>2016-04-17T12:54:05.930Z</time>
      </trkpt>
      <trkpt lat="43.39203" lon="3.65743">
        <ele>46</ele>
        <time>2016-04-17T12:54:07.957Z</time>
      </trkpt>
      <trkpt lat="43.39205" lon="3.65746">
        <ele>45</ele>
        <time>2016-04-17T12:54:08.954Z</time>
      </trkpt>
      <trkpt lat="43.39207" lon="3.65754">
        <ele>46</ele>
        <time>2016-04-17T12:54:10.960Z</time>
      </trkpt>
      <trkpt lat="43.39208" lon="3.65758">
        <ele>45</ele>
        <time>2016-04-17T12:54:11.932Z</time>
      </trkpt>
      <trkpt lat="43.39214" lon="3.65767">
        <ele>45</ele>
        <time>2016-04-17T12:54:14.953Z</time>
      </trkpt>
      <trkpt lat="43.39216" lon="3.65771">
        <ele>45</ele>
        <time>2016-04-17T12:54:15.928Z</time>
      </trkpt>
      <trkpt lat="43.3922" lon="3.65782">
        <ele>45</ele>
        <time>2016-04-17T12:54:18.961Z</time>
      </trkpt>
      <trkpt lat="43.39221" lon="3.65787">
        <ele>44</ele>
        <time>2016-04-17T12:54:19.933Z</time>
      </trkpt>
      <trkpt lat="43.39224" lon="3.65797">
        <ele>43</ele>
        <time>2016-04-17T12:54:21.958Z</time>
      </trkpt>
      <trkpt lat="43.39226" lon="3.658">
        <ele>43</ele>
        <time>2016-04-17T12:54:22.929Z</time>
      </trkpt>
      <trkpt lat="43.3923" lon="3.65808">
        <ele>44</ele>
        <time>2016-04-17T12:54:24.984Z</time>
      </trkpt>
      <trkpt lat="43.39232" lon="3.65812">
        <ele>43</ele>
        <time>2016-04-17T12:54:25.930Z</time>
      </trkpt>
      <trkpt lat="43.39233" lon="3.6582">
        <ele>40</ele>
        <time>2016-04-17T12:54:26.960Z</time>
      </trkpt>
      <trkpt lat="43.39235" lon="3.65823">
        <ele>41</ele>
        <time>2016-04-17T12:54:27.932Z</time>
      </trkpt>
      <trkpt lat="43.39239" lon="3.65829">
        <ele>43</ele>
        <time>2016-04-17T12:54:29.962Z</time>
      </trkpt>
      <trkpt lat="43.3924" lon="3.65833">
        <ele>43</ele>
        <time>2016-04-17T12:54:30.932Z</time>
      </trkpt>
      <trkpt lat="43.39244" lon="3.65842">
        <ele>42</ele>
        <time>2016-04-17T12:54:32.961Z</time>
      </trkpt>
      <trkpt lat="43.39246" lon="3.65844">
        <ele>43</ele>
        <time>2016-04-17T12:54:33.931Z</time>
      </trkpt>
      <trkpt lat="43.39248" lon="3.65852">
        <ele>44</ele>
        <time>2016-04-17T12:54:35.963Z</time>
      </trkpt>
      <trkpt lat="43.39249" lon="3.65856">
        <ele>43</ele>
        <time>2016-04-17T12:54:36.931Z</time>
      </trkpt>
      <trkpt lat="43.39253" lon="3.65866">
        <ele>44</ele>
        <time>2016-04-17T12:54:39.958Z</time>
      </trkpt>
      <trkpt lat="43.39255" lon="3.65869">
        <ele>45</ele>
        <time>2016-04-17T12:54:40.955Z</time>
      </trkpt>
      <trkpt lat="43.39262" lon="3.65875">
        <ele>47</ele>
        <time>2016-04-17T12:54:43.959Z</time>
      </trkpt>
      <trkpt lat="43.39263" lon="3.65878">
        <ele>47</ele>
        <time>2016-04-17T12:54:44.929Z</time>
      </trkpt>
      <trkpt lat="43.39266" lon="3.65887">
        <ele>47</ele>
        <time>2016-04-17T12:54:47.957Z</time>
      </trkpt>
      <trkpt lat="43.39268" lon="3.65889">
        <ele>46</ele>
        <time>2016-04-17T12:54:48.931Z</time>
      </trkpt>
      <trkpt lat="43.39272" lon="3.65898">
        <ele>47</ele>
        <time>2016-04-17T12:54:51.958Z</time>
      </trkpt>
      <trkpt lat="43.39273" lon="3.65901">
        <ele>47</ele>
        <time>2016-04-17T12:54:52.930Z</time>
      </trkpt>
      <trkpt lat="43.39276" lon="3.6591">
        <ele>46</ele>
        <time>2016-04-17T12:54:55.959Z</time>
      </trkpt>
      <trkpt lat="43.39278" lon="3.65913">
        <ele>46</ele>
        <time>2016-04-17T12:54:56.954Z</time>
      </trkpt>
      <trkpt lat="43.39282" lon="3.65923">
        <ele>46</ele>
        <time>2016-04-17T12:55:00.036Z</time>
      </trkpt>
      <trkpt lat="43.39284" lon="3.65927">
        <ele>46</ele>
        <time>2016-04-17T12:55:00.926Z</time>
      </trkpt>
      <trkpt lat="43.39288" lon="3.65937">
        <ele>47</ele>
        <time>2016-04-17T12:55:03.957Z</time>
      </trkpt>
      <trkpt lat="43.39289" lon="3.65941">
        <ele>47</ele>
        <time>2016-04-17T12:55:04.929Z</time>
      </trkpt>
      <trkpt lat="43.39291" lon="3.65948">
        <ele>48</ele>
        <time>2016-04-17T12:55:06.958Z</time>
      </trkpt>
      <trkpt lat="43.39292" lon="3.65953">
        <ele>47</ele>
        <time>2016-04-17T12:55:07.929Z</time>
      </trkpt>
      <trkpt lat="43.39296" lon="3.65961">
        <ele>47</ele>
        <time>2016-04-17T12:55:09.958Z</time>
      </trkpt>
      <trkpt lat="43.39297" lon="3.65964">
        <ele>48</ele>
        <time>2016-04-17T12:55:10.930Z</time>
      </trkpt>
      <trkpt lat="43.39301" lon="3.65975">
        <ele>49</ele>
        <time>2016-04-17T12:55:13.959Z</time>
      </trkpt>
      <trkpt lat="43.39302" lon="3.65978">
        <ele>48</ele>
        <time>2016-04-17T12:55:14.932Z</time>
      </trkpt>
      <trkpt lat="43.39307" lon="3.65983">
        <ele>50</ele>
        <time>2016-04-17T12:55:16.957Z</time>
      </trkpt>
      <trkpt lat="43.39308" lon="3.65988">
        <ele>50</ele>
        <time>2016-04-17T12:55:17.931Z</time>
      </trkpt>
      <trkpt lat="43.3931" lon="3.65998">
        <ele>50</ele>
        <time>2016-04-17T12:55:19.960Z</time>
      </trkpt>
      <trkpt lat="43.39312" lon="3.66001">
        <ele>51</ele>
        <time>2016-04-17T12:55:20.929Z</time>
      </trkpt>
      <trkpt lat="43.39315" lon="3.66008">
        <ele>52</ele>
        <time>2016-04-17T12:55:22.957Z</time>
      </trkpt>
      <trkpt lat="43.39317" lon="3.66012">
        <ele>52</ele>
        <time>2016-04-17T12:55:23.929Z</time>
      </trkpt>
      <trkpt lat="43.3932" lon="3.66021">
        <ele>52</ele>
        <time>2016-04-17T12:55:26.084Z</time>
      </trkpt>
      <trkpt lat="43.39323" lon="3.66026">
        <ele>51</ele>
        <time>2016-04-17T12:55:26.928Z</time>
      </trkpt>
      <trkpt lat="43.39329" lon="3.66032">
        <ele>51</ele>
        <time>2016-04-17T12:55:28.982Z</time>
      </trkpt>
      <trkpt lat="43.3933" lon="3.66035">
        <ele>51</ele>
        <time>2016-04-17T12:55:29.929Z</time>
      </trkpt>
      <trkpt lat="43.39333" lon="3.66044">
        <ele>51</ele>
        <time>2016-04-17T12:55:31.960Z</time>
      </trkpt>
      <trkpt lat="43.39335" lon="3.66048">
        <ele>52</ele>
        <time>2016-04-17T12:55:32.929Z</time>
      </trkpt>
      <trkpt lat="43.39337" lon="3.66057">
        <ele>51</ele>
        <time>2016-04-17T12:55:34.961Z</time>
      </trkpt>
      <trkpt lat="43.39337" lon="3.66062">
        <ele>50</ele>
        <time>2016-04-17T12:55:35.928Z</time>
      </trkpt>
      <trkpt lat="43.39337" lon="3.66072">
        <ele>51</ele>
        <time>2016-04-17T12:55:38.091Z</time>
      </trkpt>
      <trkpt lat="43.39338" lon="3.66075">
        <ele>51</ele>
        <time>2016-04-17T12:55:38.931Z</time>
      </trkpt>
      <trkpt lat="43.3934" lon="3.66087">
        <ele>50</ele>
        <time>2016-04-17T12:55:41.964Z</time>
      </trkpt>
      <trkpt lat="43.39339" lon="3.6609">
        <ele>49</ele>
        <time>2016-04-17T12:55:42.931Z</time>
      </trkpt>
      <trkpt lat="43.39337" lon="3.66102">
        <ele>49</ele>
        <time>2016-04-17T12:55:45.959Z</time>
      </trkpt>
      <trkpt lat="43.39338" lon="3.66104">
        <ele>47</ele>
        <time>2016-04-17T12:55:46.929Z</time>
      </trkpt>
      <trkpt lat="43.39336" lon="3.66116">
        <ele>47</ele>
        <time>2016-04-17T12:55:50.958Z</time>
      </trkpt>
      <trkpt lat="43.39336" lon="3.66119">
        <ele>46</ele>
        <time>2016-04-17T12:55:51.932Z</time>
      </trkpt>
      <trkpt lat="43.39335" lon="3.66128">
        <ele>49</ele>
        <time>2016-04-17T12:55:54.958Z</time>
      </trkpt>
      <trkpt lat="43.39334" lon="3.66132">
        <ele>50</ele>
        <time>2016-04-17T12:55:55.929Z</time>
      </trkpt>
      <trkpt lat="43.39332" lon="3.66141">
        <ele>51</ele>
        <time>2016-04-17T12:55:58.956Z</time>
      </trkpt>
      <trkpt lat="43.39331" lon="3.66144">
        <ele>51</ele>
        <time>2016-04-17T12:55:59.957Z</time>
      </trkpt>
      <trkpt lat="43.3933" lon="3.66146">
        <ele>50</ele>
        <time>2016-04-17T12:56:01.960Z</time>
      </trkpt>
      <trkpt lat="43.3933" lon="3.66146">
        <ele>50</ele>
        <time>2016-04-17T12:56:02.932Z</time>
      </trkpt>
      <trkpt lat="43.3933" lon="3.66148">
        <ele>50</ele>
        <time>2016-04-17T12:56:25.959Z</time>
      </trkpt>
      <trkpt lat="43.39331" lon="3.66149">
        <ele>50</ele>
        <time>2016-04-17T12:56:26.928Z</time>
      </trkpt>
      <trkpt lat="43.39325" lon="3.66157">
        <ele>50</ele>
        <time>2016-04-17T12:57:14.950Z</time>
      </trkpt>
      <trkpt lat="43.39323" lon="3.66159">
        <ele>50</ele>
        <time>2016-04-17T12:57:15.930Z</time>
      </trkpt>
      <trkpt lat="43.39316" lon="3.66164">
        <ele>47</ele>
        <time>2016-04-17T12:57:18.962Z</time>
      </trkpt>
      <trkpt lat="43.39314" lon="3.66166">
        <ele>46</ele>
        <time>2016-04-17T12:57:19.931Z</time>
      </trkpt>
      <trkpt lat="43.39311" lon="3.66177">
        <ele>48</ele>
        <time>2016-04-17T12:57:22.960Z</time>
      </trkpt>
      <trkpt lat="43.3931" lon="3.66181">
        <ele>50</ele>
        <time>2016-04-17T12:57:23.930Z</time>
      </trkpt>
      <trkpt lat="43.39307" lon="3.66187">
        <ele>50</ele>
        <time>2016-04-17T12:57:25.957Z</time>
      </trkpt>
      <trkpt lat="43.39304" lon="3.66192">
        <ele>45</ele>
        <time>2016-04-17T12:57:26.930Z</time>
      </trkpt>
      <trkpt lat="43.39306" lon="3.66201">
        <ele>45</ele>
        <time>2016-04-17T12:57:29.958Z</time>
      </trkpt>
      <trkpt lat="43.39307" lon="3.66204">
        <ele>45</ele>
        <time>2016-04-17T12:57:30.925Z</time>
      </trkpt>
      <trkpt lat="43.39313" lon="3.66213">
        <ele>44</ele>
        <time>2016-04-17T12:57:33.959Z</time>
      </trkpt>
      <trkpt lat="43.39314" lon="3.66217">
        <ele>45</ele>
        <time>2016-04-17T12:57:34.932Z</time>
      </trkpt>
      <trkpt lat="43.39317" lon="3.66228">
        <ele>44</ele>
        <time>2016-04-17T12:57:38.012Z</time>
      </trkpt>
      <trkpt lat="43.39318" lon="3.66231">
        <ele>43</ele>
        <time>2016-04-17T12:57:38.930Z</time>
      </trkpt>
      <trkpt lat="43.39324" lon="3.66241">
        <ele>44</ele>
        <time>2016-04-17T12:57:41.960Z</time>
      </trkpt>
      <trkpt lat="43.39325" lon="3.66244">
        <ele>45</ele>
        <time>2016-04-17T12:57:42.930Z</time>
      </trkpt>
      <trkpt lat="43.39329" lon="3.66254">
        <ele>45</ele>
        <time>2016-04-17T12:57:47.958Z</time>
      </trkpt>
      <trkpt lat="43.39331" lon="3.66258">
        <ele>44</ele>
        <time>2016-04-17T12:57:48.930Z</time>
      </trkpt>
      <trkpt lat="43.39333" lon="3.66266">
        <ele>45</ele>
        <time>2016-04-17T12:57:50.956Z</time>
      </trkpt>
      <trkpt lat="43.39336" lon="3.66269">
        <ele>43</ele>
        <time>2016-04-17T12:57:51.929Z</time>
      </trkpt>
      <trkpt lat="43.39337" lon="3.66277">
        <ele>44</ele>
        <time>2016-04-17T12:57:54.084Z</time>
      </trkpt>
      <trkpt lat="43.39339" lon="3.66281">
        <ele>44</ele>
        <time>2016-04-17T12:57:54.931Z</time>
      </trkpt>
      <trkpt lat="43.39341" lon="3.6629">
        <ele>45</ele>
        <time>2016-04-17T12:57:56.958Z</time>
      </trkpt>
      <trkpt lat="43.39342" lon="3.66294">
        <ele>45</ele>
        <time>2016-04-17T12:57:57.929Z</time>
      </trkpt>
      <trkpt lat="43.39346" lon="3.66303">
        <ele>45</ele>
        <time>2016-04-17T12:57:59.960Z</time>
      </trkpt>
      <trkpt lat="43.39348" lon="3.66308">
        <ele>45</ele>
        <time>2016-04-17T12:58:00.932Z</time>
      </trkpt>
      <trkpt lat="43.3935" lon="3.66314">
        <ele>44</ele>
        <time>2016-04-17T12:58:01.985Z</time>
      </trkpt>
      <trkpt lat="43.39351" lon="3.6632">
        <ele>44</ele>
        <time>2016-04-17T12:58:02.931Z</time>
      </trkpt>
      <trkpt lat="43.39354" lon="3.66329">
        <ele>44</ele>
        <time>2016-04-17T12:58:04.957Z</time>
      </trkpt>
      <trkpt lat="43.39356" lon="3.66332">
        <ele>46</ele>
        <time>2016-04-17T12:58:05.931Z</time>
      </trkpt>
      <trkpt lat="43.39358" lon="3.66343">
        <ele>47</ele>
        <time>2016-04-17T12:58:07.958Z</time>
      </trkpt>
      <trkpt lat="43.3936" lon="3.66348">
        <ele>47</ele>
        <time>2016-04-17T12:58:08.930Z</time>
      </trkpt>
      <trkpt lat="43.39362" lon="3.66354">
        <ele>47</ele>
        <time>2016-04-17T12:58:09.958Z</time>
      </trkpt>
      <trkpt lat="43.39364" lon="3.66361">
        <ele>46</ele>
        <time>2016-04-17T12:58:10.930Z</time>
      </trkpt>
      <trkpt lat="43.39365" lon="3.66366">
        <ele>46</ele>
        <time>2016-04-17T12:58:11.958Z</time>
      </trkpt>
      <trkpt lat="43.39366" lon="3.66373">
        <ele>47</ele>
        <time>2016-04-17T12:58:12.931Z</time>
      </trkpt>
      <trkpt lat="43.39368" lon="3.66383">
        <ele>47</ele>
        <time>2016-04-17T12:58:14.959Z</time>
      </trkpt>
      <trkpt lat="43.39368" lon="3.66389">
        <ele>47</ele>
        <time>2016-04-17T12:58:15.931Z</time>
      </trkpt>
      <trkpt lat="43.39368" lon="3.66401">
        <ele>46</ele>
        <time>2016-04-17T12:58:18.116Z</time>
      </trkpt>
      <trkpt lat="43.39369" lon="3.66406">
        <ele>45</ele>
        <time>2016-04-17T12:58:18.932Z</time>
      </trkpt>
      <trkpt lat="43.39371" lon="3.66418">
        <ele>45</ele>
        <time>2016-04-17T12:58:20.963Z</time>
      </trkpt>
      <trkpt lat="43.39372" lon="3.66423">
        <ele>46</ele>
        <time>2016-04-17T12:58:21.932Z</time>
      </trkpt>
      <trkpt lat="43.39371" lon="3.66431">
        <ele>44</ele>
        <time>2016-04-17T12:58:22.963Z</time>
      </trkpt>
      <trkpt lat="43.39373" lon="3.66437">
        <ele>44</ele>
        <time>2016-04-17T12:58:23.932Z</time>
      </trkpt>
      <trkpt lat="43.39375" lon="3.66443">
        <ele>45</ele>
        <time>2016-04-17T12:58:24.960Z</time>
      </trkpt>
      <trkpt lat="43.39376" lon="3.66451">
        <ele>44</ele>
        <time>2016-04-17T12:58:25.930Z</time>
      </trkpt>
      <trkpt lat="43.39377" lon="3.66457">
        <ele>44</ele>
        <time>2016-04-17T12:58:26.958Z</time>
      </trkpt>
      <trkpt lat="43.39377" lon="3.66463">
        <ele>47</ele>
        <time>2016-04-17T12:58:27.930Z</time>
      </trkpt>
      <trkpt lat="43.39378" lon="3.6647">
        <ele>47</ele>
        <time>2016-04-17T12:58:28.983Z</time>
      </trkpt>
      <trkpt lat="43.39379" lon="3.66476">
        <ele>47</ele>
        <time>2016-04-17T12:58:29.931Z</time>
      </trkpt>
      <trkpt lat="43.3938" lon="3.66488">
        <ele>47</ele>
        <time>2016-04-17T12:58:31.959Z</time>
      </trkpt>
      <trkpt lat="43.39381" lon="3.66493">
        <ele>48</ele>
        <time>2016-04-17T12:58:32.930Z</time>
      </trkpt>
      <trkpt lat="43.39383" lon="3.66504">
        <ele>45</ele>
        <time>2016-04-17T12:58:34.958Z</time>
      </trkpt>
      <trkpt lat="43.39383" lon="3.6651">
        <ele>45</ele>
        <time>2016-04-17T12:58:35.930Z</time>
      </trkpt>
      <trkpt lat="43.39386" lon="3.66521">
        <ele>45</ele>
        <time>2016-04-17T12:58:37.960Z</time>
      </trkpt>
      <trkpt lat="43.39388" lon="3.66526">
        <ele>46</ele>
        <time>2016-04-17T12:58:38.930Z</time>
      </trkpt>
      <trkpt lat="43.39389" lon="3.66538">
        <ele>48</ele>
        <time>2016-04-17T12:58:40.958Z</time>
      </trkpt>
      <trkpt lat="43.39391" lon="3.66544">
        <ele>48</ele>
        <time>2016-04-17T12:58:41.932Z</time>
      </trkpt>
      <trkpt lat="43.39391" lon="3.6655">
        <ele>46</ele>
        <time>2016-04-17T12:58:42.956Z</time>
      </trkpt>
      <trkpt lat="43.39391" lon="3.66556">
        <ele>46</ele>
        <time>2016-04-17T12:58:43.930Z</time>
      </trkpt>
      <trkpt lat="43.39392" lon="3.66563">
        <ele>46</ele>
        <time>2016-04-17T12:58:44.957Z</time>
      </trkpt>
      <trkpt lat="43.39393" lon="3.66569">
        <ele>45</ele>
        <time>2016-04-17T12:58:45.930Z</time>
      </trkpt>
      <trkpt lat="43.39394" lon="3.66576">
        <ele>46</ele>
        <time>2016-04-17T12:58:46.953Z</time>
      </trkpt>
      <trkpt lat="43.39394" lon="3.66582">
        <ele>45</ele>
        <time>2016-04-17T12:58:47.930Z</time>
      </trkpt>
      <trkpt lat="43.39395" lon="3.6659">
        <ele>44</ele>
        <time>2016-04-17T12:58:48.957Z</time>
      </trkpt>
      <trkpt lat="43.39396" lon="3.66598">
        <ele>43</ele>
        <time>2016-04-17T12:58:49.956Z</time>
      </trkpt>
      <trkpt lat="43.39396" lon="3.66604">
        <ele>43</ele>
        <time>2016-04-17T12:58:50.957Z</time>
      </trkpt>
      <trkpt lat="43.39397" lon="3.66611">
        <ele>43</ele>
        <time>2016-04-17T12:58:51.929Z</time>
      </trkpt>
      <trkpt lat="43.39397" lon="3.66617">
        <ele>44</ele>
        <time>2016-04-17T12:58:53.036Z</time>
      </trkpt>
      <trkpt lat="43.39399" lon="3.66623">
        <ele>43</ele>
        <time>2016-04-17T12:58:53.930Z</time>
      </trkpt>
      <trkpt lat="43.39401" lon="3.66633">
        <ele>44</ele>
        <time>2016-04-17T12:58:55.958Z</time>
      </trkpt>
      <trkpt lat="43.39401" lon="3.66638">
        <ele>44</ele>
        <time>2016-04-17T12:58:56.930Z</time>
      </trkpt>
      <trkpt lat="43.39401" lon="3.66648">
        <ele>43</ele>
        <time>2016-04-17T12:58:58.956Z</time>
      </trkpt>
      <trkpt lat="43.39402" lon="3.66653">
        <ele>43</ele>
        <time>2016-04-17T12:58:59.931Z</time>
      </trkpt>
      <trkpt lat="43.39404" lon="3.66665">
        <ele>44</ele>
        <time>2016-04-17T12:59:01.958Z</time>
      </trkpt>
      <trkpt lat="43.39405" lon="3.66671">
        <ele>44</ele>
        <time>2016-04-17T12:59:02.929Z</time>
      </trkpt>
      <trkpt lat="43.39407" lon="3.66682">
        <ele>43</ele>
        <time>2016-04-17T12:59:04.957Z</time>
      </trkpt>
      <trkpt lat="43.39409" lon="3.66686">
        <ele>43</ele>
        <time>2016-04-17T12:59:05.931Z</time>
      </trkpt>
      <trkpt lat="43.39412" lon="3.66696">
        <ele>45</ele>
        <time>2016-04-17T12:59:07.956Z</time>
      </trkpt>
      <trkpt lat="43.39412" lon="3.66703">
        <ele>44</ele>
        <time>2016-04-17T12:59:08.930Z</time>
      </trkpt>
      <trkpt lat="43.39413" lon="3.66714">
        <ele>46</ele>
        <time>2016-04-17T12:59:10.957Z</time>
      </trkpt>
      <trkpt lat="43.39414" lon="3.66719">
        <ele>45</ele>
        <time>2016-04-17T12:59:11.931Z</time>
      </trkpt>
      <trkpt lat="43.39415" lon="3.66726">
        <ele>45</ele>
        <time>2016-04-17T12:59:12.957Z</time>
      </trkpt>
      <trkpt lat="43.39416" lon="3.66732">
        <ele>45</ele>
        <time>2016-04-17T12:59:13.930Z</time>
      </trkpt>
      <trkpt lat="43.39417" lon="3.66744">
        <ele>45</ele>
        <time>2016-04-17T12:59:15.957Z</time>
      </trkpt>
      <trkpt lat="43.39417" lon="3.6675">
        <ele>45</ele>
        <time>2016-04-17T12:59:16.957Z</time>
      </trkpt>
      <trkpt lat="43.39419" lon="3.66761">
        <ele>47</ele>
        <time>2016-04-17T12:59:18.959Z</time>
      </trkpt>
      <trkpt lat="43.3942" lon="3.66766">
        <ele>46</ele>
        <time>2016-04-17T12:59:19.930Z</time>
      </trkpt>
      <trkpt lat="43.39421" lon="3.66775">
        <ele>46</ele>
        <time>2016-04-17T12:59:21.963Z</time>
      </trkpt>
      <trkpt lat="43.3942" lon="3.66783">
        <ele>47</ele>
        <time>2016-04-17T12:59:22.932Z</time>
      </trkpt>
      <trkpt lat="43.39421" lon="3.66793">
        <ele>47</ele>
        <time>2016-04-17T12:59:24.959Z</time>
      </trkpt>
      <trkpt lat="43.39421" lon="3.66798">
        <ele>49</ele>
        <time>2016-04-17T12:59:25.931Z</time>
      </trkpt>
      <trkpt lat="43.39423" lon="3.66804">
        <ele>51</ele>
        <time>2016-04-17T12:59:26.959Z</time>
      </trkpt>
      <trkpt lat="43.39423" lon="3.66811">
        <ele>51</ele>
        <time>2016-04-17T12:59:27.930Z</time>
      </trkpt>
      <trkpt lat="43.39424" lon="3.66822">
        <ele>52</ele>
        <time>2016-04-17T12:59:30.090Z</time>
      </trkpt>
      <trkpt lat="43.39425" lon="3.66829">
        <ele>52</ele>
        <time>2016-04-17T12:59:30.930Z</time>
      </trkpt>
      <trkpt lat="43.39425" lon="3.66836">
        <ele>52</ele>
        <time>2016-04-17T12:59:31.984Z</time>
      </trkpt>
      <trkpt lat="43.39425" lon="3.66842">
        <ele>51</ele>
        <time>2016-04-17T12:59:32.958Z</time>
      </trkpt>
      <trkpt lat="43.39426" lon="3.66854">
        <ele>51</ele>
        <time>2016-04-17T12:59:34.958Z</time>
      </trkpt>
      <trkpt lat="43.39426" lon="3.6686">
        <ele>51</ele>
        <time>2016-04-17T12:59:35.930Z</time>
      </trkpt>
      <trkpt lat="43.39426" lon="3.6687">
        <ele>52</ele>
        <time>2016-04-17T12:59:37.958Z</time>
      </trkpt>
      <trkpt lat="43.39426" lon="3.66877">
        <ele>52</ele>
        <time>2016-04-17T12:59:38.931Z</time>
      </trkpt>
      <trkpt lat="43.39427" lon="3.66885">
        <ele>51</ele>
        <time>2016-04-17T12:59:39.956Z</time>
      </trkpt>
      <trkpt lat="43.39427" lon="3.66891">
        <ele>51</ele>
        <time>2016-04-17T12:59:40.931Z</time>
      </trkpt>
      <trkpt lat="43.39428" lon="3.66903">
        <ele>51</ele>
        <time>2016-04-17T12:59:42.958Z</time>
      </trkpt>
      <trkpt lat="43.39428" lon="3.66908">
        <ele>51</ele>
        <time>2016-04-17T12:59:43.931Z</time>
      </trkpt>
      <trkpt lat="43.39428" lon="3.66919">
        <ele>50</ele>
        <time>2016-04-17T12:59:45.959Z</time>
      </trkpt>
      <trkpt lat="43.39429" lon="3.66925">
        <ele>50</ele>
        <time>2016-04-17T12:59:46.930Z</time>
      </trkpt>
      <trkpt lat="43.39429" lon="3.66932">
        <ele>49</ele>
        <time>2016-04-17T12:59:47.957Z</time>
      </trkpt>
      <trkpt lat="43.3943" lon="3.66937">
        <ele>49</ele>
        <time>2016-04-17T12:59:48.947Z</time>
      </trkpt>
      <trkpt lat="43.3943" lon="3.66944">
        <ele>50</ele>
        <time>2016-04-17T12:59:49.959Z</time>
      </trkpt>
      <trkpt lat="43.3943" lon="3.6695">
        <ele>50</ele>
        <time>2016-04-17T12:59:50.933Z</time>
      </trkpt>
      <trkpt lat="43.39432" lon="3.66961">
        <ele>49</ele>
        <time>2016-04-17T12:59:52.960Z</time>
      </trkpt>
      <trkpt lat="43.39434" lon="3.66968">
        <ele>49</ele>
        <time>2016-04-17T12:59:53.931Z</time>
      </trkpt>
      <trkpt lat="43.39434" lon="3.66975">
        <ele>49</ele>
        <time>2016-04-17T12:59:54.950Z</time>
      </trkpt>
      <trkpt lat="43.39433" lon="3.66981">
        <ele>49</ele>
        <time>2016-04-17T12:59:55.930Z</time>
      </trkpt>
      <trkpt lat="43.39433" lon="3.66988">
        <ele>49</ele>
        <time>2016-04-17T12:59:56.958Z</time>
      </trkpt>
      <trkpt lat="43.3943" lon="3.66995">
        <ele>50</ele>
        <time>2016-04-17T12:59:57.931Z</time>
      </trkpt>
      <trkpt lat="43.39427" lon="3.67001">
        <ele>51</ele>
        <time>2016-04-17T12:59:58.960Z</time>
      </trkpt>
      <trkpt lat="43.39427" lon="3.67007">
        <ele>52</ele>
        <time>2016-04-17T12:59:59.930Z</time>
      </trkpt>
      <trkpt lat="43.39421" lon="3.67013">
        <ele>51</ele>
        <time>2016-04-17T13:00:00.957Z</time>
      </trkpt>
      <trkpt lat="43.39419" lon="3.6702">
        <ele>49</ele>
        <time>2016-04-17T13:00:01.929Z</time>
      </trkpt>
      <trkpt lat="43.39413" lon="3.67028">
        <ele>50</ele>
        <time>2016-04-17T13:00:03.960Z</time>
      </trkpt>
      <trkpt lat="43.39409" lon="3.67033">
        <ele>49</ele>
        <time>2016-04-17T13:00:04.954Z</time>
      </trkpt>
      <trkpt lat="43.39407" lon="3.67043">
        <ele>49</ele>
        <time>2016-04-17T13:00:06.954Z</time>
      </trkpt>
      <trkpt lat="43.39407" lon="3.67049">
        <ele>48</ele>
        <time>2016-04-17T13:00:07.930Z</time>
      </trkpt>
      <trkpt lat="43.39402" lon="3.67054">
        <ele>45</ele>
        <time>2016-04-17T13:00:08.958Z</time>
      </trkpt>
      <trkpt lat="43.394" lon="3.67059">
        <ele>44</ele>
        <time>2016-04-17T13:00:09.931Z</time>
      </trkpt>
      <trkpt lat="43.39398" lon="3.67071">
        <ele>46</ele>
        <time>2016-04-17T13:00:11.958Z</time>
      </trkpt>
      <trkpt lat="43.39396" lon="3.67076">
        <ele>46</ele>
        <time>2016-04-17T13:00:12.930Z</time>
      </trkpt>
      <trkpt lat="43.39395" lon="3.67086">
        <ele>48</ele>
        <time>2016-04-17T13:00:14.957Z</time>
      </trkpt>
      <trkpt lat="43.39393" lon="3.67091">
        <ele>48</ele>
        <time>2016-04-17T13:00:15.930Z</time>
      </trkpt>
      <trkpt lat="43.39391" lon="3.67099">
        <ele>48</ele>
        <time>2016-04-17T13:00:17.958Z</time>
      </trkpt>
      <trkpt lat="43.3939" lon="3.67104">
        <ele>49</ele>
        <time>2016-04-17T13:00:18.925Z</time>
      </trkpt>
      <trkpt lat="43.39389" lon="3.67112">
        <ele>49</ele>
        <time>2016-04-17T13:00:20.988Z</time>
      </trkpt>
      <trkpt lat="43.39388" lon="3.67117">
        <ele>50</ele>
        <time>2016-04-17T13:00:21.932Z</time>
      </trkpt>
      <trkpt lat="43.39385" lon="3.67128">
        <ele>50</ele>
        <time>2016-04-17T13:00:24.952Z</time>
      </trkpt>
      <trkpt lat="43.39386" lon="3.67132">
        <ele>52</ele>
        <time>2016-04-17T13:00:25.929Z</time>
      </trkpt>
      <trkpt lat="43.39383" lon="3.67138">
        <ele>50</ele>
        <time>2016-04-17T13:00:27.956Z</time>
      </trkpt>
      <trkpt lat="43.3938" lon="3.67142">
        <ele>50</ele>
        <time>2016-04-17T13:00:28.929Z</time>
      </trkpt>
      <trkpt lat="43.39377" lon="3.67152">
        <ele>49</ele>
        <time>2016-04-17T13:00:31.105Z</time>
      </trkpt>
      <trkpt lat="43.39375" lon="3.67156">
        <ele>50</ele>
        <time>2016-04-17T13:00:31.930Z</time>
      </trkpt>
      <trkpt lat="43.39371" lon="3.67167">
        <ele>51</ele>
        <time>2016-04-17T13:00:33.957Z</time>
      </trkpt>
      <trkpt lat="43.39367" lon="3.6717">
        <ele>51</ele>
        <time>2016-04-17T13:00:34.929Z</time>
      </trkpt>
      <trkpt lat="43.39365" lon="3.67178">
        <ele>54</ele>
        <time>2016-04-17T13:00:36.958Z</time>
      </trkpt>
      <trkpt lat="43.39362" lon="3.67183">
        <ele>54</ele>
        <time>2016-04-17T13:00:37.930Z</time>
      </trkpt>
      <trkpt lat="43.3936" lon="3.67188">
        <ele>56</ele>
        <time>2016-04-17T13:00:38.955Z</time>
      </trkpt>
      <trkpt lat="43.39358" lon="3.67194">
        <ele>55</ele>
        <time>2016-04-17T13:00:39.931Z</time>
      </trkpt>
      <trkpt lat="43.39354" lon="3.67205">
        <ele>55</ele>
        <time>2016-04-17T13:00:41.984Z</time>
      </trkpt>
      <trkpt lat="43.39352" lon="3.6721">
        <ele>55</ele>
        <time>2016-04-17T13:00:42.930Z</time>
      </trkpt>
      <trkpt lat="43.39347" lon="3.67219">
        <ele>55</ele>
        <time>2016-04-17T13:00:44.958Z</time>
      </trkpt>
      <trkpt lat="43.39345" lon="3.67224">
        <ele>55</ele>
        <time>2016-04-17T13:00:45.930Z</time>
      </trkpt>
      <trkpt lat="43.3934" lon="3.67233">
        <ele>56</ele>
        <time>2016-04-17T13:00:47.958Z</time>
      </trkpt>
      <trkpt lat="43.39337" lon="3.67238">
        <ele>55</ele>
        <time>2016-04-17T13:00:48.929Z</time>
      </trkpt>
      <trkpt lat="43.39333" lon="3.67243">
        <ele>54</ele>
        <time>2016-04-17T13:00:49.956Z</time>
      </trkpt>
      <trkpt lat="43.39331" lon="3.67248">
        <ele>54</ele>
        <time>2016-04-17T13:00:50.928Z</time>
      </trkpt>
      <trkpt lat="43.39324" lon="3.6725">
        <ele>52</ele>
        <time>2016-04-17T13:00:51.955Z</time>
      </trkpt>
      <trkpt lat="43.3932" lon="3.67255">
        <ele>51</ele>
        <time>2016-04-17T13:00:52.930Z</time>
      </trkpt>
      <trkpt lat="43.39316" lon="3.67265">
        <ele>52</ele>
        <time>2016-04-17T13:00:54.952Z</time>
      </trkpt>
      <trkpt lat="43.39315" lon="3.6727">
        <ele>53</ele>
        <time>2016-04-17T13:00:55.928Z</time>
      </trkpt>
      <trkpt lat="43.39312" lon="3.67281">
        <ele>53</ele>
        <time>2016-04-17T13:00:57.973Z</time>
      </trkpt>
      <trkpt lat="43.39308" lon="3.67287">
        <ele>52</ele>
        <time>2016-04-17T13:00:58.929Z</time>
      </trkpt>
      <trkpt lat="43.39302" lon="3.67295">
        <ele>52</ele>
        <time>2016-04-17T13:01:00.948Z</time>
      </trkpt>
      <trkpt lat="43.39296" lon="3.67301">
        <ele>50</ele>
        <time>2016-04-17T13:01:01.930Z</time>
      </trkpt>
      <trkpt lat="43.39293" lon="3.67306">
        <ele>49</ele>
        <time>2016-04-17T13:01:02.950Z</time>
      </trkpt>
      <trkpt lat="43.39291" lon="3.67314">
        <ele>49</ele>
        <time>2016-04-17T13:01:03.929Z</time>
      </trkpt>
      <trkpt lat="43.39289" lon="3.67319">
        <ele>49</ele>
        <time>2016-04-17T13:01:04.949Z</time>
      </trkpt>
      <trkpt lat="43.39287" lon="3.67325">
        <ele>51</ele>
        <time>2016-04-17T13:01:05.930Z</time>
      </trkpt>
      <trkpt lat="43.39285" lon="3.6733">
        <ele>51</ele>
        <time>2016-04-17T13:01:06.953Z</time>
      </trkpt>
      <trkpt lat="43.39283" lon="3.67336">
        <ele>52</ele>
        <time>2016-04-17T13:01:07.930Z</time>
      </trkpt>
      <trkpt lat="43.3928" lon="3.67341">
        <ele>52</ele>
        <time>2016-04-17T13:01:08.951Z</time>
      </trkpt>
      <trkpt lat="43.39276" lon="3.67345">
        <ele>55</ele>
        <time>2016-04-17T13:01:09.931Z</time>
      </trkpt>
      <trkpt lat="43.39274" lon="3.67352">
        <ele>55</ele>
        <time>2016-04-17T13:01:10.959Z</time>
      </trkpt>
      <trkpt lat="43.39272" lon="3.67357">
        <ele>55</ele>
        <time>2016-04-17T13:01:11.926Z</time>
      </trkpt>
      <trkpt lat="43.3927" lon="3.67366">
        <ele>52</ele>
        <time>2016-04-17T13:01:12.958Z</time>
      </trkpt>
      <trkpt lat="43.39268" lon="3.67372">
        <ele>52</ele>
        <time>2016-04-17T13:01:13.933Z</time>
      </trkpt>
      <trkpt lat="43.39266" lon="3.67379">
        <ele>50</ele>
        <time>2016-04-17T13:01:14.957Z</time>
      </trkpt>
      <trkpt lat="43.39268" lon="3.67385">
        <ele>50</ele>
        <time>2016-04-17T13:01:15.931Z</time>
      </trkpt>
      <trkpt lat="43.39266" lon="3.67391">
        <ele>48</ele>
        <time>2016-04-17T13:01:16.959Z</time>
      </trkpt>
      <trkpt lat="43.39264" lon="3.67397">
        <ele>49</ele>
        <time>2016-04-17T13:01:17.931Z</time>
      </trkpt>
      <trkpt lat="43.39264" lon="3.67403">
        <ele>48</ele>
        <time>2016-04-17T13:01:18.987Z</time>
      </trkpt>
      <trkpt lat="43.39263" lon="3.6741">
        <ele>48</ele>
        <time>2016-04-17T13:01:19.932Z</time>
      </trkpt>
      <trkpt lat="43.39264" lon="3.67421">
        <ele>48</ele>
        <time>2016-04-17T13:01:22.020Z</time>
      </trkpt>
      <trkpt lat="43.39263" lon="3.67427">
        <ele>48</ele>
        <time>2016-04-17T13:01:22.931Z</time>
      </trkpt>
      <trkpt lat="43.39263" lon="3.67432">
        <ele>48</ele>
        <time>2016-04-17T13:01:23.959Z</time>
      </trkpt>
      <trkpt lat="43.3926" lon="3.67439">
        <ele>47</ele>
        <time>2016-04-17T13:01:24.931Z</time>
      </trkpt>
      <trkpt lat="43.39258" lon="3.67445">
        <ele>46</ele>
        <time>2016-04-17T13:01:25.958Z</time>
      </trkpt>
      <trkpt lat="43.3926" lon="3.67452">
        <ele>46</ele>
        <time>2016-04-17T13:01:26.928Z</time>
      </trkpt>
      <trkpt lat="43.39261" lon="3.67464">
        <ele>46</ele>
        <time>2016-04-17T13:01:28.957Z</time>
      </trkpt>
      <trkpt lat="43.39263" lon="3.67469">
        <ele>47</ele>
        <time>2016-04-17T13:01:29.933Z</time>
      </trkpt>
      <trkpt lat="43.39267" lon="3.67479">
        <ele>50</ele>
        <time>2016-04-17T13:01:31.958Z</time>
      </trkpt>
      <trkpt lat="43.39268" lon="3.67485">
        <ele>50</ele>
        <time>2016-04-17T13:01:32.929Z</time>
      </trkpt>
      <trkpt lat="43.3927" lon="3.67491">
        <ele>51</ele>
        <time>2016-04-17T13:01:33.958Z</time>
      </trkpt>
      <trkpt lat="43.39271" lon="3.67497">
        <ele>51</ele>
        <time>2016-04-17T13:01:34.955Z</time>
      </trkpt>
      <trkpt lat="43.39273" lon="3.67507">
        <ele>58</ele>
        <time>2016-04-17T13:01:37.960Z</time>
      </trkpt>
      <trkpt lat="43.39275" lon="3.67511">
        <ele>59</ele>
        <time>2016-04-17T13:01:38.931Z</time>
      </trkpt>
      <trkpt lat="43.39278" lon="3.6752">
        <ele>58</ele>
        <time>2016-04-17T13:01:40.958Z</time>
      </trkpt>
      <trkpt lat="43.39281" lon="3.67523">
        <ele>58</ele>
        <time>2016-04-17T13:01:41.932Z</time>
      </trkpt>
      <trkpt lat="43.39286" lon="3.67533">
        <ele>54</ele>
        <time>2016-04-17T13:01:44.957Z</time>
      </trkpt>
      <trkpt lat="43.39288" lon="3.67536">
        <ele>54</ele>
        <time>2016-04-17T13:01:45.954Z</time>
      </trkpt>
      <trkpt lat="43.39294" lon="3.67544">
        <ele>54</ele>
        <time>2016-04-17T13:01:47.958Z</time>
      </trkpt>
      <trkpt lat="43.39295" lon="3.67545">
        <ele>57</ele>
        <time>2016-04-17T13:01:48.930Z</time>
      </trkpt>
      <trkpt lat="43.39301" lon="3.67554">
        <ele>55</ele>
        <time>2016-04-17T13:01:50.958Z</time>
      </trkpt>
      <trkpt lat="43.39303" lon="3.67557">
        <ele>57</ele>
        <time>2016-04-17T13:01:51.931Z</time>
      </trkpt>
      <trkpt lat="43.39307" lon="3.67567">
        <ele>56</ele>
        <time>2016-04-17T13:01:54.960Z</time>
      </trkpt>
      <trkpt lat="43.39306" lon="3.67571">
        <ele>55</ele>
        <time>2016-04-17T13:01:55.931Z</time>
      </trkpt>
      <trkpt lat="43.39302" lon="3.67579">
        <ele>56</ele>
        <time>2016-04-17T13:01:57.958Z</time>
      </trkpt>
      <trkpt lat="43.39303" lon="3.67584">
        <ele>57</ele>
        <time>2016-04-17T13:01:58.929Z</time>
      </trkpt>
      <trkpt lat="43.39303" lon="3.67595">
        <ele>56</ele>
        <time>2016-04-17T13:02:00.959Z</time>
      </trkpt>
      <trkpt lat="43.39306" lon="3.67601">
        <ele>57</ele>
        <time>2016-04-17T13:02:01.932Z</time>
      </trkpt>
      <trkpt lat="43.39308" lon="3.67611">
        <ele>60</ele>
        <time>2016-04-17T13:02:03.959Z</time>
      </trkpt>
      <trkpt lat="43.39308" lon="3.67615">
        <ele>61</ele>
        <time>2016-04-17T13:02:04.930Z</time>
      </trkpt>
      <trkpt lat="43.39309" lon="3.67626">
        <ele>61</ele>
        <time>2016-04-17T13:02:07.957Z</time>
      </trkpt>
      <trkpt lat="43.39309" lon="3.67629">
        <ele>61</ele>
        <time>2016-04-17T13:02:08.928Z</time>
      </trkpt>
      <trkpt lat="43.39312" lon="3.67638">
        <ele>63</ele>
        <time>2016-04-17T13:02:13.961Z</time>
      </trkpt>
      <trkpt lat="43.39312" lon="3.67641">
        <ele>63</ele>
        <time>2016-04-17T13:02:14.925Z</time>
      </trkpt>
      <trkpt lat="43.3931" lon="3.67651">
        <ele>58</ele>
        <time>2016-04-17T13:02:29.962Z</time>
      </trkpt>
      <trkpt lat="43.39308" lon="3.67653">
        <ele>58</ele>
        <time>2016-04-17T13:02:30.929Z</time>
      </trkpt>
      <trkpt lat="43.39309" lon="3.67665">
        <ele>60</ele>
        <time>2016-04-17T13:02:34.038Z</time>
      </trkpt>
      <trkpt lat="43.39309" lon="3.6767">
        <ele>59</ele>
        <time>2016-04-17T13:02:34.930Z</time>
      </trkpt>
      <trkpt lat="43.39311" lon="3.67681">
        <ele>61</ele>
        <time>2016-04-17T13:02:37.949Z</time>
      </trkpt>
      <trkpt lat="43.39313" lon="3.67687">
        <ele>61</ele>
        <time>2016-04-17T13:02:38.932Z</time>
      </trkpt>
      <trkpt lat="43.39316" lon="3.67696">
        <ele>60</ele>
        <time>2016-04-17T13:02:40.962Z</time>
      </trkpt>
      <trkpt lat="43.39317" lon="3.677">
        <ele>61</ele>
        <time>2016-04-17T13:02:41.927Z</time>
      </trkpt>
      <trkpt lat="43.39318" lon="3.6771">
        <ele>61</ele>
        <time>2016-04-17T13:02:44.958Z</time>
      </trkpt>
      <trkpt lat="43.39319" lon="3.67714">
        <ele>61</ele>
        <time>2016-04-17T13:02:45.925Z</time>
      </trkpt>
      <trkpt lat="43.39321" lon="3.67721">
        <ele>60</ele>
        <time>2016-04-17T13:02:46.953Z</time>
      </trkpt>
      <trkpt lat="43.39322" lon="3.67727">
        <ele>59</ele>
        <time>2016-04-17T13:02:48.067Z</time>
      </trkpt>
      <trkpt lat="43.39327" lon="3.67737">
        <ele>58</ele>
        <time>2016-04-17T13:02:49.981Z</time>
      </trkpt>
      <trkpt lat="43.3933" lon="3.67742">
        <ele>59</ele>
        <time>2016-04-17T13:02:50.930Z</time>
      </trkpt>
      <trkpt lat="43.39332" lon="3.67753">
        <ele>60</ele>
        <time>2016-04-17T13:02:52.958Z</time>
      </trkpt>
      <trkpt lat="43.39332" lon="3.67759">
        <ele>59</ele>
        <time>2016-04-17T13:02:53.930Z</time>
      </trkpt>
      <trkpt lat="43.39333" lon="3.67771">
        <ele>60</ele>
        <time>2016-04-17T13:02:55.958Z</time>
      </trkpt>
      <trkpt lat="43.39334" lon="3.67777">
        <ele>60</ele>
        <time>2016-04-17T13:02:56.930Z</time>
      </trkpt>
      <trkpt lat="43.3934" lon="3.67785">
        <ele>59</ele>
        <time>2016-04-17T13:02:58.957Z</time>
      </trkpt>
      <trkpt lat="43.39341" lon="3.6779">
        <ele>60</ele>
        <time>2016-04-17T13:02:59.931Z</time>
      </trkpt>
      <trkpt lat="43.3934" lon="3.67796">
        <ele>59</ele>
        <time>2016-04-17T13:03:00.961Z</time>
      </trkpt>
      <trkpt lat="43.39338" lon="3.67803">
        <ele>59</ele>
        <time>2016-04-17T13:03:01.930Z</time>
      </trkpt>
      <trkpt lat="43.3934" lon="3.67809">
        <ele>61</ele>
        <time>2016-04-17T13:03:02.952Z</time>
      </trkpt>
      <trkpt lat="43.39342" lon="3.67815">
        <ele>60</ele>
        <time>2016-04-17T13:03:03.932Z</time>
      </trkpt>
      <trkpt lat="43.39344" lon="3.67823">
        <ele>61</ele>
        <time>2016-04-17T13:03:04.951Z</time>
      </trkpt>
      <trkpt lat="43.39345" lon="3.6783">
        <ele>60</ele>
        <time>2016-04-17T13:03:05.931Z</time>
      </trkpt>
      <trkpt lat="43.39347" lon="3.67837">
        <ele>61</ele>
        <time>2016-04-17T13:03:06.951Z</time>
      </trkpt>
      <trkpt lat="43.39349" lon="3.67843">
        <ele>63</ele>
        <time>2016-04-17T13:03:07.931Z</time>
      </trkpt>
      <trkpt lat="43.39352" lon="3.67849">
        <ele>56</ele>
        <time>2016-04-17T13:03:08.962Z</time>
      </trkpt>
      <trkpt lat="43.39352" lon="3.67856">
        <ele>58</ele>
        <time>2016-04-17T13:03:09.935Z</time>
      </trkpt>
      <trkpt lat="43.39355" lon="3.67867">
        <ele>62</ele>
        <time>2016-04-17T13:03:11.956Z</time>
      </trkpt>
      <trkpt lat="43.39357" lon="3.67873">
        <ele>63</ele>
        <time>2016-04-17T13:03:12.926Z</time>
      </trkpt>
      <trkpt lat="43.39359" lon="3.67885">
        <ele>63</ele>
        <time>2016-04-17T13:03:14.960Z</time>
      </trkpt>
      <trkpt lat="43.39361" lon="3.6789">
        <ele>64</ele>
        <time>2016-04-17T13:03:15.930Z</time>
      </trkpt>
      <trkpt lat="43.39362" lon="3.67897">
        <ele>64</ele>
        <time>2016-04-17T13:03:16.958Z</time>
      </trkpt>
      <trkpt lat="43.39362" lon="3.67904">
        <ele>64</ele>
        <time>2016-04-17T13:03:17.929Z</time>
      </trkpt>
      <trkpt lat="43.39363" lon="3.67911">
        <ele>63</ele>
        <time>2016-04-17T13:03:18.953Z</time>
      </trkpt>
      <trkpt lat="43.39364" lon="3.67917">
        <ele>63</ele>
        <time>2016-04-17T13:03:19.926Z</time>
      </trkpt>
      <trkpt lat="43.39367" lon="3.67927">
        <ele>63</ele>
        <time>2016-04-17T13:03:21.959Z</time>
      </trkpt>
      <trkpt lat="43.39367" lon="3.67933">
        <ele>63</ele>
        <time>2016-04-17T13:03:22.932Z</time>
      </trkpt>
      <trkpt lat="43.39369" lon="3.67944">
        <ele>63</ele>
        <time>2016-04-17T13:03:25.082Z</time>
      </trkpt>
      <trkpt lat="43.39371" lon="3.67948">
        <ele>64</ele>
        <time>2016-04-17T13:03:25.926Z</time>
      </trkpt>
      <trkpt lat="43.39374" lon="3.67958">
        <ele>65</ele>
        <time>2016-04-17T13:03:27.953Z</time>
      </trkpt>
      <trkpt lat="43.39375" lon="3.67962">
        <ele>65</ele>
        <time>2016-04-17T13:03:28.931Z</time>
      </trkpt>
      <trkpt lat="43.39382" lon="3.67967">
        <ele>64</ele>
        <time>2016-04-17T13:03:30.961Z</time>
      </trkpt>
      <trkpt lat="43.39383" lon="3.67971">
        <ele>64</ele>
        <time>2016-04-17T13:03:31.927Z</time>
      </trkpt>
      <trkpt lat="43.39381" lon="3.6798">
        <ele>64</ele>
        <time>2016-04-17T13:03:33.960Z</time>
      </trkpt>
      <trkpt lat="43.3938" lon="3.67984">
        <ele>63</ele>
        <time>2016-04-17T13:03:34.928Z</time>
      </trkpt>
      <trkpt lat="43.39382" lon="3.67995">
        <ele>64</ele>
        <time>2016-04-17T13:03:38.093Z</time>
      </trkpt>
      <trkpt lat="43.39383" lon="3.67997">
        <ele>64</ele>
        <time>2016-04-17T13:03:38.931Z</time>
      </trkpt>
      <trkpt lat="43.39382" lon="3.68007">
        <ele>64</ele>
        <time>2016-04-17T13:03:41.957Z</time>
      </trkpt>
      <trkpt lat="43.39382" lon="3.6801">
        <ele>64</ele>
        <time>2016-04-17T13:03:42.924Z</time>
      </trkpt>
      <trkpt lat="43.3938" lon="3.68016">
        <ele>58</ele>
        <time>2016-04-17T13:04:08.957Z</time>
      </trkpt>
      <trkpt lat="43.39379" lon="3.68015">
        <ele>57</ele>
        <time>2016-04-17T13:04:09.931Z</time>
      </trkpt>
      <trkpt lat="43.39379" lon="3.68015">
        <ele>57</ele>
        <time>2016-04-17T13:04:09.972Z</time>
      </trkpt>
      <trkpt lat="43.39379" lon="3.68014">
        <ele>56</ele>
        <time>2016-04-17T13:04:10.931Z</time>
      </trkpt>
      <trkpt lat="43.39378" lon="3.68013">
        <ele>57</ele>
        <time>2016-04-17T13:04:15.981Z</time>
      </trkpt>
      <trkpt lat="43.39378" lon="3.68013">
        <ele>56</ele>
        <time>2016-04-17T13:04:16.931Z</time>
      </trkpt>
      <trkpt lat="43.39377" lon="3.68016">
        <ele>65</ele>
        <time>2016-04-17T13:05:15.958Z</time>
      </trkpt>
      <trkpt lat="43.39377" lon="3.68016">
        <ele>67</ele>
        <time>2016-04-17T13:05:16.930Z</time>
      </trkpt>
      <trkpt lat="43.39376" lon="3.68026">
        <ele>65</ele>
        <time>2016-04-17T13:05:28.960Z</time>
      </trkpt>
      <trkpt lat="43.39377" lon="3.68029">
        <ele>65</ele>
        <time>2016-04-17T13:05:29.933Z</time>
      </trkpt>
      <trkpt lat="43.39378" lon="3.68041">
        <ele>62</ele>
        <time>2016-04-17T13:05:32.958Z</time>
      </trkpt>
      <trkpt lat="43.39377" lon="3.68045">
        <ele>63</ele>
        <time>2016-04-17T13:05:33.931Z</time>
      </trkpt>
      <trkpt lat="43.39378" lon="3.68054">
        <ele>62</ele>
        <time>2016-04-17T13:05:35.959Z</time>
      </trkpt>
      <trkpt lat="43.39378" lon="3.68058">
        <ele>64</ele>
        <time>2016-04-17T13:05:36.933Z</time>
      </trkpt>
      <trkpt lat="43.39378" lon="3.68068">
        <ele>64</ele>
        <time>2016-04-17T13:05:38.959Z</time>
      </trkpt>
      <trkpt lat="43.39378" lon="3.68073">
        <ele>63</ele>
        <time>2016-04-17T13:05:39.930Z</time>
      </trkpt>
      <trkpt lat="43.39379" lon="3.68083">
        <ele>64</ele>
        <time>2016-04-17T13:05:41.958Z</time>
      </trkpt>
      <trkpt lat="43.39379" lon="3.68088">
        <ele>65</ele>
        <time>2016-04-17T13:05:42.929Z</time>
      </trkpt>
      <trkpt lat="43.39378" lon="3.681">
        <ele>62</ele>
        <time>2016-04-17T13:05:44.958Z</time>
      </trkpt>
      <trkpt lat="43.39379" lon="3.68105">
        <ele>63</ele>
        <time>2016-04-17T13:05:45.931Z</time>
      </trkpt>
      <trkpt lat="43.39379" lon="3.68115">
        <ele>62</ele>
        <time>2016-04-17T13:05:47.959Z</time>
      </trkpt>
      <trkpt lat="43.39379" lon="3.6812">
        <ele>61</ele>
        <time>2016-04-17T13:05:48.929Z</time>
      </trkpt>
      <trkpt lat="43.39379" lon="3.68131">
        <ele>61</ele>
        <time>2016-04-17T13:05:50.959Z</time>
      </trkpt>
      <trkpt lat="43.39379" lon="3.68136">
        <ele>61</ele>
        <time>2016-04-17T13:05:51.956Z</time>
      </trkpt>
      <trkpt lat="43.3938" lon="3.68146">
        <ele>62</ele>
        <time>2016-04-17T13:05:54.087Z</time>
      </trkpt>
      <trkpt lat="43.39382" lon="3.68151">
        <ele>60</ele>
        <time>2016-04-17T13:05:54.930Z</time>
      </trkpt>
      <trkpt lat="43.39383" lon="3.68161">
        <ele>61</ele>
        <time>2016-04-17T13:05:56.958Z</time>
      </trkpt>
      <trkpt lat="43.39384" lon="3.68165">
        <ele>62</ele>
        <time>2016-04-17T13:05:57.929Z</time>
      </trkpt>
      <trkpt lat="43.39383" lon="3.68175">
        <ele>62</ele>
        <time>2016-04-17T13:05:59.960Z</time>
      </trkpt>
      <trkpt lat="43.39382" lon="3.68182">
        <ele>61</ele>
        <time>2016-04-17T13:06:00.931Z</time>
      </trkpt>
      <trkpt lat="43.39384" lon="3.68192">
        <ele>61</ele>
        <time>2016-04-17T13:06:02.958Z</time>
      </trkpt>
      <trkpt lat="43.39385" lon="3.68197">
        <ele>61</ele>
        <time>2016-04-17T13:06:03.932Z</time>
      </trkpt>
      <trkpt lat="43.39385" lon="3.68208">
        <ele>60</ele>
        <time>2016-04-17T13:06:05.958Z</time>
      </trkpt>
      <trkpt lat="43.39385" lon="3.68213">
        <ele>61</ele>
        <time>2016-04-17T13:06:06.931Z</time>
      </trkpt>
      <trkpt lat="43.39385" lon="3.68224">
        <ele>60</ele>
        <time>2016-04-17T13:06:08.958Z</time>
      </trkpt>
      <trkpt lat="43.39384" lon="3.68231">
        <ele>60</ele>
        <time>2016-04-17T13:06:09.929Z</time>
      </trkpt>
      <trkpt lat="43.39385" lon="3.68241">
        <ele>60</ele>
        <time>2016-04-17T13:06:11.959Z</time>
      </trkpt>
      <trkpt lat="43.39385" lon="3.68245">
        <ele>58</ele>
        <time>2016-04-17T13:06:12.932Z</time>
      </trkpt>
      <trkpt lat="43.39384" lon="3.68255">
        <ele>55</ele>
        <time>2016-04-17T13:06:14.955Z</time>
      </trkpt>
      <trkpt lat="43.39384" lon="3.6826">
        <ele>55</ele>
        <time>2016-04-17T13:06:15.931Z</time>
      </trkpt>
      <trkpt lat="43.39382" lon="3.68268">
        <ele>55</ele>
        <time>2016-04-17T13:06:17.958Z</time>
      </trkpt>
      <trkpt lat="43.39381" lon="3.68273">
        <ele>54</ele>
        <time>2016-04-17T13:06:18.930Z</time>
      </trkpt>
      <trkpt lat="43.39381" lon="3.68283">
        <ele>54</ele>
        <time>2016-04-17T13:06:21.949Z</time>
      </trkpt>
      <trkpt lat="43.3938" lon="3.68286">
        <ele>54</ele>
        <time>2016-04-17T13:06:22.929Z</time>
      </trkpt>
      <trkpt lat="43.39378" lon="3.68295">
        <ele>56</ele>
        <time>2016-04-17T13:06:25.953Z</time>
      </trkpt>
      <trkpt lat="43.39379" lon="3.68298">
        <ele>58</ele>
        <time>2016-04-17T13:06:26.931Z</time>
      </trkpt>
      <trkpt lat="43.39376" lon="3.68309">
        <ele>59</ele>
        <time>2016-04-17T13:06:29.962Z</time>
      </trkpt>
      <trkpt lat="43.39374" lon="3.68312">
        <ele>59</ele>
        <time>2016-04-17T13:06:30.931Z</time>
      </trkpt>
      <trkpt lat="43.39372" lon="3.6832">
        <ele>59</ele>
        <time>2016-04-17T13:06:32.961Z</time>
      </trkpt>
      <trkpt lat="43.3937" lon="3.68323">
        <ele>59</ele>
        <time>2016-04-17T13:06:33.933Z</time>
      </trkpt>
      <trkpt lat="43.39365" lon="3.68333">
        <ele>59</ele>
        <time>2016-04-17T13:06:36.963Z</time>
      </trkpt>
      <trkpt lat="43.39364" lon="3.68337">
        <ele>59</ele>
        <time>2016-04-17T13:06:37.932Z</time>
      </trkpt>
      <trkpt lat="43.3936" lon="3.68343">
        <ele>59</ele>
        <time>2016-04-17T13:06:39.963Z</time>
      </trkpt>
      <trkpt lat="43.39358" lon="3.68347">
        <ele>60</ele>
        <time>2016-04-17T13:06:40.930Z</time>
      </trkpt>
      <trkpt lat="43.39354" lon="3.68354">
        <ele>59</ele>
        <time>2016-04-17T13:06:42.959Z</time>
      </trkpt>
      <trkpt lat="43.39351" lon="3.6836">
        <ele>59</ele>
        <time>2016-04-17T13:06:43.930Z</time>
      </trkpt>
      <trkpt lat="43.39347" lon="3.68368">
        <ele>58</ele>
        <time>2016-04-17T13:06:45.962Z</time>
      </trkpt>
      <trkpt lat="43.39345" lon="3.68373">
        <ele>57</ele>
        <time>2016-04-17T13:06:46.932Z</time>
      </trkpt>
      <trkpt lat="43.39342" lon="3.68382">
        <ele>57</ele>
        <time>2016-04-17T13:06:48.960Z</time>
      </trkpt>
      <trkpt lat="43.3934" lon="3.68387">
        <ele>58</ele>
        <time>2016-04-17T13:06:49.932Z</time>
      </trkpt>
      <trkpt lat="43.39336" lon="3.68395">
        <ele>57</ele>
        <time>2016-04-17T13:06:51.959Z</time>
      </trkpt>
      <trkpt lat="43.39334" lon="3.68398">
        <ele>58</ele>
        <time>2016-04-17T13:06:52.931Z</time>
      </trkpt>
      <trkpt lat="43.3933" lon="3.68406">
        <ele>59</ele>
        <time>2016-04-17T13:06:54.961Z</time>
      </trkpt>
      <trkpt lat="43.39329" lon="3.6841">
        <ele>59</ele>
        <time>2016-04-17T13:06:55.933Z</time>
      </trkpt>
      <trkpt lat="43.39325" lon="3.68419">
        <ele>58</ele>
        <time>2016-04-17T13:06:57.961Z</time>
      </trkpt>
      <trkpt lat="43.39322" lon="3.68424">
        <ele>57</ele>
        <time>2016-04-17T13:06:58.930Z</time>
      </trkpt>
      <trkpt lat="43.39318" lon="3.68432">
        <ele>57</ele>
        <time>2016-04-17T13:07:00.984Z</time>
      </trkpt>
      <trkpt lat="43.39316" lon="3.68436">
        <ele>57</ele>
        <time>2016-04-17T13:07:01.929Z</time>
      </trkpt>
      <trkpt lat="43.39313" lon="3.68445">
        <ele>57</ele>
        <time>2016-04-17T13:07:03.959Z</time>
      </trkpt>
      <trkpt lat="43.39312" lon="3.68448">
        <ele>56</ele>
        <time>2016-04-17T13:07:04.931Z</time>
      </trkpt>
      <trkpt lat="43.39309" lon="3.68458">
        <ele>57</ele>
        <time>2016-04-17T13:07:06.959Z</time>
      </trkpt>
      <trkpt lat="43.39308" lon="3.68461">
        <ele>58</ele>
        <time>2016-04-17T13:07:07.932Z</time>
      </trkpt>
      <trkpt lat="43.39305" lon="3.68471">
        <ele>58</ele>
        <time>2016-04-17T13:07:09.957Z</time>
      </trkpt>
      <trkpt lat="43.39303" lon="3.68474">
        <ele>58</ele>
        <time>2016-04-17T13:07:10.930Z</time>
      </trkpt>
      <trkpt lat="43.39301" lon="3.68482">
        <ele>57</ele>
        <time>2016-04-17T13:07:12.952Z</time>
      </trkpt>
      <trkpt lat="43.393" lon="3.68487">
        <ele>58</ele>
        <time>2016-04-17T13:07:13.930Z</time>
      </trkpt>
      <trkpt lat="43.39297" lon="3.68496">
        <ele>60</ele>
        <time>2016-04-17T13:07:15.958Z</time>
      </trkpt>
      <trkpt lat="43.39295" lon="3.685">
        <ele>60</ele>
        <time>2016-04-17T13:07:16.956Z</time>
      </trkpt>
      <trkpt lat="43.39293" lon="3.6851">
        <ele>60</ele>
        <time>2016-04-17T13:07:18.954Z</time>
      </trkpt>
      <trkpt lat="43.39292" lon="3.68515">
        <ele>60</ele>
        <time>2016-04-17T13:07:19.930Z</time>
      </trkpt>
      <trkpt lat="43.39288" lon="3.68526">
        <ele>58</ele>
        <time>2016-04-17T13:07:21.958Z</time>
      </trkpt>
      <trkpt lat="43.39287" lon="3.68532">
        <ele>58</ele>
        <time>2016-04-17T13:07:22.931Z</time>
      </trkpt>
      <trkpt lat="43.39284" lon="3.68543">
        <ele>57</ele>
        <time>2016-04-17T13:07:24.958Z</time>
      </trkpt>
      <trkpt lat="43.39282" lon="3.68548">
        <ele>56</ele>
        <time>2016-04-17T13:07:25.932Z</time>
      </trkpt>
      <trkpt lat="43.39278" lon="3.68558">
        <ele>55</ele>
        <time>2016-04-17T13:07:27.959Z</time>
      </trkpt>
      <trkpt lat="43.39276" lon="3.68563">
        <ele>56</ele>
        <time>2016-04-17T13:07:28.929Z</time>
      </trkpt>
      <trkpt lat="43.39272" lon="3.68573">
        <ele>56</ele>
        <time>2016-04-17T13:07:31.016Z</time>
      </trkpt>
      <trkpt lat="43.3927" lon="3.68578">
        <ele>56</ele>
        <time>2016-04-17T13:07:31.932Z</time>
      </trkpt>
      <trkpt lat="43.39269" lon="3.68588">
        <ele>58</ele>
        <time>2016-04-17T13:07:33.960Z</time>
      </trkpt>
      <trkpt lat="43.39267" lon="3.68594">
        <ele>57</ele>
        <time>2016-04-17T13:07:34.929Z</time>
      </trkpt>
      <trkpt lat="43.39263" lon="3.68605">
        <ele>57</ele>
        <time>2016-04-17T13:07:36.958Z</time>
      </trkpt>
      <trkpt lat="43.39262" lon="3.68611">
        <ele>56</ele>
        <time>2016-04-17T13:07:37.956Z</time>
      </trkpt>
      <trkpt lat="43.3926" lon="3.68622">
        <ele>52</ele>
        <time>2016-04-17T13:07:39.963Z</time>
      </trkpt>
      <trkpt lat="43.3926" lon="3.68627">
        <ele>52</ele>
        <time>2016-04-17T13:07:40.931Z</time>
      </trkpt>
      <trkpt lat="43.39261" lon="3.68637">
        <ele>53</ele>
        <time>2016-04-17T13:07:42.957Z</time>
      </trkpt>
      <trkpt lat="43.3926" lon="3.68642">
        <ele>53</ele>
        <time>2016-04-17T13:07:43.932Z</time>
      </trkpt>
      <trkpt lat="43.3926" lon="3.68651">
        <ele>52</ele>
        <time>2016-04-17T13:07:45.958Z</time>
      </trkpt>
      <trkpt lat="43.39261" lon="3.68657">
        <ele>51</ele>
        <time>2016-04-17T13:07:46.932Z</time>
      </trkpt>
      <trkpt lat="43.39261" lon="3.68667">
        <ele>52</ele>
        <time>2016-04-17T13:07:48.959Z</time>
      </trkpt>
      <trkpt lat="43.39262" lon="3.68671">
        <ele>52</ele>
        <time>2016-04-17T13:07:49.932Z</time>
      </trkpt>
      <trkpt lat="43.39261" lon="3.68682">
        <ele>53</ele>
        <time>2016-04-17T13:07:51.960Z</time>
      </trkpt>
      <trkpt lat="43.39261" lon="3.68687">
        <ele>52</ele>
        <time>2016-04-17T13:07:52.932Z</time>
      </trkpt>
      <trkpt lat="43.3926" lon="3.68695">
        <ele>51</ele>
        <time>2016-04-17T13:07:54.962Z</time>
      </trkpt>
      <trkpt lat="43.3926" lon="3.687">
        <ele>51</ele>
        <time>2016-04-17T13:07:55.932Z</time>
      </trkpt>
      <trkpt lat="43.3926" lon="3.6871">
        <ele>51</ele>
        <time>2016-04-17T13:07:57.960Z</time>
      </trkpt>
      <trkpt lat="43.39259" lon="3.68715">
        <ele>50</ele>
        <time>2016-04-17T13:07:58.931Z</time>
      </trkpt>
      <trkpt lat="43.3926" lon="3.68725">
        <ele>51</ele>
        <time>2016-04-17T13:08:00.959Z</time>
      </trkpt>
      <trkpt lat="43.3926" lon="3.6873">
        <ele>50</ele>
        <time>2016-04-17T13:08:01.931Z</time>
      </trkpt>
      <trkpt lat="43.3926" lon="3.6874">
        <ele>49</ele>
        <time>2016-04-17T13:08:03.959Z</time>
      </trkpt>
      <trkpt lat="43.3926" lon="3.68746">
        <ele>51</ele>
        <time>2016-04-17T13:08:04.932Z</time>
      </trkpt>
      <trkpt lat="43.39259" lon="3.68756">
        <ele>53</ele>
        <time>2016-04-17T13:08:07.013Z</time>
      </trkpt>
      <trkpt lat="43.3926" lon="3.68763">
        <ele>53</ele>
        <time>2016-04-17T13:08:07.933Z</time>
      </trkpt>
      <trkpt lat="43.39258" lon="3.68773">
        <ele>53</ele>
        <time>2016-04-17T13:08:09.959Z</time>
      </trkpt>
      <trkpt lat="43.39258" lon="3.68779">
        <ele>54</ele>
        <time>2016-04-17T13:08:10.930Z</time>
      </trkpt>
      <trkpt lat="43.39257" lon="3.6879">
        <ele>53</ele>
        <time>2016-04-17T13:08:12.960Z</time>
      </trkpt>
      <trkpt lat="43.39256" lon="3.68796">
        <ele>54</ele>
        <time>2016-04-17T13:08:13.931Z</time>
      </trkpt>
      <trkpt lat="43.39256" lon="3.68805">
        <ele>54</ele>
        <time>2016-04-17T13:08:15.955Z</time>
      </trkpt>
      <trkpt lat="43.39255" lon="3.6881">
        <ele>55</ele>
        <time>2016-04-17T13:08:16.931Z</time>
      </trkpt>
      <trkpt lat="43.39253" lon="3.68821">
        <ele>54</ele>
        <time>2016-04-17T13:08:18.958Z</time>
      </trkpt>
      <trkpt lat="43.39253" lon="3.68828">
        <ele>53</ele>
        <time>2016-04-17T13:08:19.932Z</time>
      </trkpt>
      <trkpt lat="43.39252" lon="3.68838">
        <ele>52</ele>
        <time>2016-04-17T13:08:21.961Z</time>
      </trkpt>
      <trkpt lat="43.39252" lon="3.68843">
        <ele>53</ele>
        <time>2016-04-17T13:08:22.932Z</time>
      </trkpt>
      <trkpt lat="43.3925" lon="3.68854">
        <ele>53</ele>
        <time>2016-04-17T13:08:24.957Z</time>
      </trkpt>
      <trkpt lat="43.3925" lon="3.68859">
        <ele>51</ele>
        <time>2016-04-17T13:08:25.930Z</time>
      </trkpt>
      <trkpt lat="43.39248" lon="3.6887">
        <ele>51</ele>
        <time>2016-04-17T13:08:27.962Z</time>
      </trkpt>
      <trkpt lat="43.39249" lon="3.68874">
        <ele>53</ele>
        <time>2016-04-17T13:08:28.930Z</time>
      </trkpt>
      <trkpt lat="43.39247" lon="3.68885">
        <ele>56</ele>
        <time>2016-04-17T13:08:30.985Z</time>
      </trkpt>
      <trkpt lat="43.39248" lon="3.6889">
        <ele>57</ele>
        <time>2016-04-17T13:08:31.932Z</time>
      </trkpt>
      <trkpt lat="43.39248" lon="3.68901">
        <ele>57</ele>
        <time>2016-04-17T13:08:33.954Z</time>
      </trkpt>
      <trkpt lat="43.39248" lon="3.68906">
        <ele>58</ele>
        <time>2016-04-17T13:08:34.930Z</time>
      </trkpt>
      <trkpt lat="43.39248" lon="3.68918">
        <ele>59</ele>
        <time>2016-04-17T13:08:36.953Z</time>
      </trkpt>
      <trkpt lat="43.39247" lon="3.68924">
        <ele>59</ele>
        <time>2016-04-17T13:08:37.929Z</time>
      </trkpt>
      <trkpt lat="43.39246" lon="3.68935">
        <ele>60</ele>
        <time>2016-04-17T13:08:39.962Z</time>
      </trkpt>
      <trkpt lat="43.39246" lon="3.6894">
        <ele>60</ele>
        <time>2016-04-17T13:08:40.931Z</time>
      </trkpt>
      <trkpt lat="43.39244" lon="3.68948">
        <ele>57</ele>
        <time>2016-04-17T13:08:42.962Z</time>
      </trkpt>
      <trkpt lat="43.39244" lon="3.68953">
        <ele>57</ele>
        <time>2016-04-17T13:08:43.931Z</time>
      </trkpt>
      <trkpt lat="43.39244" lon="3.68965">
        <ele>58</ele>
        <time>2016-04-17T13:08:45.960Z</time>
      </trkpt>
      <trkpt lat="43.39243" lon="3.68971">
        <ele>58</ele>
        <time>2016-04-17T13:08:46.931Z</time>
      </trkpt>
      <trkpt lat="43.39243" lon="3.68982">
        <ele>59</ele>
        <time>2016-04-17T13:08:48.958Z</time>
      </trkpt>
      <trkpt lat="43.39243" lon="3.68988">
        <ele>59</ele>
        <time>2016-04-17T13:08:49.933Z</time>
      </trkpt>
      <trkpt lat="43.39243" lon="3.69">
        <ele>58</ele>
        <time>2016-04-17T13:08:51.992Z</time>
      </trkpt>
      <trkpt lat="43.39243" lon="3.69006">
        <ele>59</ele>
        <time>2016-04-17T13:08:52.932Z</time>
      </trkpt>
      <trkpt lat="43.39243" lon="3.69017">
        <ele>57</ele>
        <time>2016-04-17T13:08:54.963Z</time>
      </trkpt>
      <trkpt lat="43.39245" lon="3.69023">
        <ele>57</ele>
        <time>2016-04-17T13:08:55.931Z</time>
      </trkpt>
      <trkpt lat="43.39246" lon="3.69034">
        <ele>56</ele>
        <time>2016-04-17T13:08:57.963Z</time>
      </trkpt>
      <trkpt lat="43.39249" lon="3.69038">
        <ele>59</ele>
        <time>2016-04-17T13:08:58.930Z</time>
      </trkpt>
      <trkpt lat="43.39251" lon="3.6905">
        <ele>55</ele>
        <time>2016-04-17T13:09:00.960Z</time>
      </trkpt>
      <trkpt lat="43.39252" lon="3.69055">
        <ele>55</ele>
        <time>2016-04-17T13:09:01.932Z</time>
      </trkpt>
      <trkpt lat="43.39255" lon="3.69064">
        <ele>56</ele>
        <time>2016-04-17T13:09:03.959Z</time>
      </trkpt>
      <trkpt lat="43.39256" lon="3.69068">
        <ele>55</ele>
        <time>2016-04-17T13:09:04.932Z</time>
      </trkpt>
      <trkpt lat="43.39258" lon="3.69078">
        <ele>55</ele>
        <time>2016-04-17T13:09:06.956Z</time>
      </trkpt>
      <trkpt lat="43.39259" lon="3.69082">
        <ele>55</ele>
        <time>2016-04-17T13:09:07.930Z</time>
      </trkpt>
      <trkpt lat="43.39261" lon="3.69091">
        <ele>54</ele>
        <time>2016-04-17T13:09:09.960Z</time>
      </trkpt>
      <trkpt lat="43.39263" lon="3.69097">
        <ele>54</ele>
        <time>2016-04-17T13:09:10.933Z</time>
      </trkpt>
      <trkpt lat="43.39266" lon="3.69106">
        <ele>54</ele>
        <time>2016-04-17T13:09:12.990Z</time>
      </trkpt>
      <trkpt lat="43.39267" lon="3.69112">
        <ele>53</ele>
        <time>2016-04-17T13:09:13.933Z</time>
      </trkpt>
      <trkpt lat="43.39272" lon="3.69122">
        <ele>54</ele>
        <time>2016-04-17T13:09:15.959Z</time>
      </trkpt>
      <trkpt lat="43.39274" lon="3.69126">
        <ele>52</ele>
        <time>2016-04-17T13:09:16.933Z</time>
      </trkpt>
      <trkpt lat="43.3928" lon="3.69132">
        <ele>53</ele>
        <time>2016-04-17T13:09:18.959Z</time>
      </trkpt>
      <trkpt lat="43.39282" lon="3.69136">
        <ele>52</ele>
        <time>2016-04-17T13:09:19.931Z</time>
      </trkpt>
      <trkpt lat="43.39287" lon="3.69143">
        <ele>53</ele>
        <time>2016-04-17T13:09:21.958Z</time>
      </trkpt>
      <trkpt lat="43.3929" lon="3.69147">
        <ele>54</ele>
        <time>2016-04-17T13:09:22.933Z</time>
      </trkpt>
      <trkpt lat="43.39294" lon="3.69157">
        <ele>54</ele>
        <time>2016-04-17T13:09:24.959Z</time>
      </trkpt>
      <trkpt lat="43.39297" lon="3.6916">
        <ele>55</ele>
        <time>2016-04-17T13:09:25.929Z</time>
      </trkpt>
      <trkpt lat="43.39295" lon="3.69167">
        <ele>52</ele>
        <time>2016-04-17T13:09:26.958Z</time>
      </trkpt>
      <trkpt lat="43.39297" lon="3.69172">
        <ele>52</ele>
        <time>2016-04-17T13:09:27.932Z</time>
      </trkpt>
      <trkpt lat="43.393" lon="3.69176">
        <ele>52</ele>
        <time>2016-04-17T13:09:28.958Z</time>
      </trkpt>
      <trkpt lat="43.39305" lon="3.69178">
        <ele>53</ele>
        <time>2016-04-17T13:09:29.932Z</time>
      </trkpt>
      <trkpt lat="43.39311" lon="3.69186">
        <ele>53</ele>
        <time>2016-04-17T13:09:31.960Z</time>
      </trkpt>
      <trkpt lat="43.39315" lon="3.69189">
        <ele>54</ele>
        <time>2016-04-17T13:09:32.931Z</time>
      </trkpt>
      <trkpt lat="43.39323" lon="3.6919">
        <ele>53</ele>
        <time>2016-04-17T13:09:33.982Z</time>
      </trkpt>
      <trkpt lat="43.39326" lon="3.69194">
        <ele>54</ele>
        <time>2016-04-17T13:09:34.932Z</time>
      </trkpt>
      <trkpt lat="43.39334" lon="3.69199">
        <ele>55</ele>
        <time>2016-04-17T13:09:36.959Z</time>
      </trkpt>
      <trkpt lat="43.39341" lon="3.69204">
        <ele>51</ele>
        <time>2016-04-17T13:09:37.930Z</time>
      </trkpt>
      <trkpt lat="43.39346" lon="3.69211">
        <ele>51</ele>
        <time>2016-04-17T13:09:39.950Z</time>
      </trkpt>
      <trkpt lat="43.3935" lon="3.69214">
        <ele>49</ele>
        <time>2016-04-17T13:09:40.929Z</time>
      </trkpt>
      <trkpt lat="43.39358" lon="3.69217">
        <ele>48</ele>
        <time>2016-04-17T13:09:42.959Z</time>
      </trkpt>
      <trkpt lat="43.39361" lon="3.6922">
        <ele>48</ele>
        <time>2016-04-17T13:09:43.926Z</time>
      </trkpt>
      <trkpt lat="43.39366" lon="3.69221">
        <ele>49</ele>
        <time>2016-04-17T13:09:44.959Z</time>
      </trkpt>
      <trkpt lat="43.39371" lon="3.69225">
        <ele>50</ele>
        <time>2016-04-17T13:09:45.933Z</time>
      </trkpt>
      <trkpt lat="43.39379" lon="3.69229">
        <ele>51</ele>
        <time>2016-04-17T13:09:47.952Z</time>
      </trkpt>
      <trkpt lat="43.39383" lon="3.69232">
        <ele>51</ele>
        <time>2016-04-17T13:09:48.932Z</time>
      </trkpt>
      <trkpt lat="43.39389" lon="3.69234">
        <ele>53</ele>
        <time>2016-04-17T13:09:50.964Z</time>
      </trkpt>
      <trkpt lat="43.39392" lon="3.69235">
        <ele>53</ele>
        <time>2016-04-17T13:09:51.931Z</time>
      </trkpt>
      <trkpt lat="43.394" lon="3.69237">
        <ele>53</ele>
        <time>2016-04-17T13:09:53.956Z</time>
      </trkpt>
      <trkpt lat="43.39404" lon="3.6924">
        <ele>53</ele>
        <time>2016-04-17T13:09:54.932Z</time>
      </trkpt>
      <trkpt lat="43.3941" lon="3.69244">
        <ele>55</ele>
        <time>2016-04-17T13:09:56.992Z</time>
      </trkpt>
      <trkpt lat="43.39415" lon="3.69246">
        <ele>55</ele>
        <time>2016-04-17T13:09:57.932Z</time>
      </trkpt>
      <trkpt lat="43.39421" lon="3.69249">
        <ele>53</ele>
        <time>2016-04-17T13:09:58.954Z</time>
      </trkpt>
      <trkpt lat="43.39423" lon="3.69254">
        <ele>54</ele>
        <time>2016-04-17T13:09:59.933Z</time>
      </trkpt>
      <trkpt lat="43.39427" lon="3.69259">
        <ele>54</ele>
        <time>2016-04-17T13:10:00.952Z</time>
      </trkpt>
      <trkpt lat="43.39432" lon="3.69263">
        <ele>53</ele>
        <time>2016-04-17T13:10:01.929Z</time>
      </trkpt>
      <trkpt lat="43.39435" lon="3.69268">
        <ele>56</ele>
        <time>2016-04-17T13:10:02.951Z</time>
      </trkpt>
      <trkpt lat="43.39438" lon="3.69274">
        <ele>56</ele>
        <time>2016-04-17T13:10:03.930Z</time>
      </trkpt>
      <trkpt lat="43.39442" lon="3.69283">
        <ele>55</ele>
        <time>2016-04-17T13:10:05.956Z</time>
      </trkpt>
      <trkpt lat="43.39445" lon="3.69288">
        <ele>55</ele>
        <time>2016-04-17T13:10:06.941Z</time>
      </trkpt>
      <trkpt lat="43.39448" lon="3.693">
        <ele>55</ele>
        <time>2016-04-17T13:10:08.954Z</time>
      </trkpt>
      <trkpt lat="43.39449" lon="3.69305">
        <ele>57</ele>
        <time>2016-04-17T13:10:09.936Z</time>
      </trkpt>
      <trkpt lat="43.39451" lon="3.6931">
        <ele>57</ele>
        <time>2016-04-17T13:10:10.949Z</time>
      </trkpt>
      <trkpt lat="43.39451" lon="3.69319">
        <ele>57</ele>
        <time>2016-04-17T13:10:11.930Z</time>
      </trkpt>
      <trkpt lat="43.39452" lon="3.69327">
        <ele>55</ele>
        <time>2016-04-17T13:10:12.961Z</time>
      </trkpt>
      <trkpt lat="43.39453" lon="3.69333">
        <ele>55</ele>
        <time>2016-04-17T13:10:13.926Z</time>
      </trkpt>
      <trkpt lat="43.39457" lon="3.69337">
        <ele>54</ele>
        <time>2016-04-17T13:10:15.019Z</time>
      </trkpt>
      <trkpt lat="43.39459" lon="3.69343">
        <ele>54</ele>
        <time>2016-04-17T13:10:15.929Z</time>
      </trkpt>
      <trkpt lat="43.39463" lon="3.69352">
        <ele>53</ele>
        <time>2016-04-17T13:10:17.958Z</time>
      </trkpt>
      <trkpt lat="43.39464" lon="3.69358">
        <ele>54</ele>
        <time>2016-04-17T13:10:18.929Z</time>
      </trkpt>
      <trkpt lat="43.39467" lon="3.6937">
        <ele>53</ele>
        <time>2016-04-17T13:10:20.958Z</time>
      </trkpt>
      <trkpt lat="43.39468" lon="3.69375">
        <ele>53</ele>
        <time>2016-04-17T13:10:21.930Z</time>
      </trkpt>
      <trkpt lat="43.39472" lon="3.69385">
        <ele>52</ele>
        <time>2016-04-17T13:10:23.953Z</time>
      </trkpt>
      <trkpt lat="43.39476" lon="3.69388">
        <ele>50</ele>
        <time>2016-04-17T13:10:24.938Z</time>
      </trkpt>
      <trkpt lat="43.39478" lon="3.694">
        <ele>51</ele>
        <time>2016-04-17T13:10:26.960Z</time>
      </trkpt>
      <trkpt lat="43.39479" lon="3.69406">
        <ele>50</ele>
        <time>2016-04-17T13:10:27.933Z</time>
      </trkpt>
      <trkpt lat="43.3948" lon="3.69417">
        <ele>49</ele>
        <time>2016-04-17T13:10:29.961Z</time>
      </trkpt>
      <trkpt lat="43.39481" lon="3.69422">
        <ele>49</ele>
        <time>2016-04-17T13:10:30.930Z</time>
      </trkpt>
      <trkpt lat="43.39484" lon="3.69429">
        <ele>50</ele>
        <time>2016-04-17T13:10:32.960Z</time>
      </trkpt>
      <trkpt lat="43.39483" lon="3.69438">
        <ele>50</ele>
        <time>2016-04-17T13:10:33.931Z</time>
      </trkpt>
      <trkpt lat="43.3949" lon="3.69443">
        <ele>49</ele>
        <time>2016-04-17T13:10:50.938Z</time>
      </trkpt>
      <trkpt lat="43.3949" lon="3.69448">
        <ele>49</ele>
        <time>2016-04-17T13:10:51.933Z</time>
      </trkpt>
      <trkpt lat="43.39492" lon="3.69457">
        <ele>49</ele>
        <time>2016-04-17T13:10:54.952Z</time>
      </trkpt>
      <trkpt lat="43.39492" lon="3.6946">
        <ele>50</ele>
        <time>2016-04-17T13:10:55.931Z</time>
      </trkpt>
      <trkpt lat="43.39495" lon="3.69472">
        <ele>50</ele>
        <time>2016-04-17T13:10:59.959Z</time>
      </trkpt>
      <trkpt lat="43.39496" lon="3.69474">
        <ele>50</ele>
        <time>2016-04-17T13:11:00.932Z</time>
      </trkpt>
      <trkpt lat="43.39504" lon="3.69479">
        <ele>50</ele>
        <time>2016-04-17T13:11:05.958Z</time>
      </trkpt>
      <trkpt lat="43.39503" lon="3.69482">
        <ele>52</ele>
        <time>2016-04-17T13:11:06.931Z</time>
      </trkpt>
      <trkpt lat="43.39506" lon="3.69492">
        <ele>50</ele>
        <time>2016-04-17T13:11:09.960Z</time>
      </trkpt>
      <trkpt lat="43.39508" lon="3.69495">
        <ele>51</ele>
        <time>2016-04-17T13:11:10.931Z</time>
      </trkpt>
      <trkpt lat="43.39513" lon="3.69501">
        <ele>50</ele>
        <time>2016-04-17T13:11:12.962Z</time>
      </trkpt>
      <trkpt lat="43.39515" lon="3.69502">
        <ele>50</ele>
        <time>2016-04-17T13:11:13.958Z</time>
      </trkpt>
      <trkpt lat="43.39522" lon="3.69508">
        <ele>49</ele>
        <time>2016-04-17T13:11:16.959Z</time>
      </trkpt>
      <trkpt lat="43.39526" lon="3.69509">
        <ele>50</ele>
        <time>2016-04-17T13:11:17.930Z</time>
      </trkpt>
      <trkpt lat="43.39533" lon="3.69511">
        <ele>49</ele>
        <time>2016-04-17T13:11:19.963Z</time>
      </trkpt>
      <trkpt lat="43.39537" lon="3.69512">
        <ele>50</ele>
        <time>2016-04-17T13:11:20.931Z</time>
      </trkpt>
      <trkpt lat="43.39545" lon="3.69513">
        <ele>50</ele>
        <time>2016-04-17T13:11:22.961Z</time>
      </trkpt>
      <trkpt lat="43.3955" lon="3.69513">
        <ele>50</ele>
        <time>2016-04-17T13:11:24.740Z</time>
      </trkpt>
      <trkpt lat="43.39558" lon="3.69515">
        <ele>49</ele>
        <time>2016-04-17T13:11:24.949Z</time>
      </trkpt>
      <trkpt lat="43.3957" lon="3.6952">
        <ele>49</ele>
        <time>2016-04-17T13:11:26.930Z</time>
      </trkpt>
      <trkpt lat="43.39573" lon="3.69522">
        <ele>48</ele>
        <time>2016-04-17T13:11:28.006Z</time>
      </trkpt>
      <trkpt lat="43.39579" lon="3.69525">
        <ele>48</ele>
        <time>2016-04-17T13:11:28.929Z</time>
      </trkpt>
      <trkpt lat="43.39584" lon="3.69528">
        <ele>46</ele>
        <time>2016-04-17T13:11:29.959Z</time>
      </trkpt>
      <trkpt lat="43.39589" lon="3.69532">
        <ele>46</ele>
        <time>2016-04-17T13:11:30.930Z</time>
      </trkpt>
      <trkpt lat="43.39594" lon="3.69535">
        <ele>47</ele>
        <time>2016-04-17T13:11:31.951Z</time>
      </trkpt>
      <trkpt lat="43.39601" lon="3.69537">
        <ele>46</ele>
        <time>2016-04-17T13:11:32.935Z</time>
      </trkpt>
      <trkpt lat="43.39607" lon="3.69541">
        <ele>45</ele>
        <time>2016-04-17T13:11:33.957Z</time>
      </trkpt>
      <trkpt lat="43.39612" lon="3.69545">
        <ele>45</ele>
        <time>2016-04-17T13:11:34.947Z</time>
      </trkpt>
      <trkpt lat="43.39614" lon="3.69548">
        <ele>45</ele>
        <time>2016-04-17T13:11:35.957Z</time>
      </trkpt>
      <trkpt lat="43.39619" lon="3.69552">
        <ele>44</ele>
        <time>2016-04-17T13:11:36.932Z</time>
      </trkpt>
      <trkpt lat="43.39626" lon="3.69558">
        <ele>44</ele>
        <time>2016-04-17T13:11:38.959Z</time>
      </trkpt>
      <trkpt lat="43.3963" lon="3.6956">
        <ele>43</ele>
        <time>2016-04-17T13:11:39.930Z</time>
      </trkpt>
      <trkpt lat="43.39637" lon="3.69565">
        <ele>43</ele>
        <time>2016-04-17T13:11:41.950Z</time>
      </trkpt>
      <trkpt lat="43.3964" lon="3.69565">
        <ele>45</ele>
        <time>2016-04-17T13:11:42.930Z</time>
      </trkpt>
      <trkpt lat="43.39645" lon="3.69567">
        <ele>45</ele>
        <time>2016-04-17T13:11:43.963Z</time>
      </trkpt>
      <trkpt lat="43.3965" lon="3.69568">
        <ele>45</ele>
        <time>2016-04-17T13:11:44.931Z</time>
      </trkpt>
      <trkpt lat="43.39655" lon="3.6957">
        <ele>45</ele>
        <time>2016-04-17T13:11:45.950Z</time>
      </trkpt>
      <trkpt lat="43.39663" lon="3.69576">
        <ele>44</ele>
        <time>2016-04-17T13:11:46.931Z</time>
      </trkpt>
      <trkpt lat="43.39671" lon="3.6958">
        <ele>47</ele>
        <time>2016-04-17T13:11:48.958Z</time>
      </trkpt>
      <trkpt lat="43.39673" lon="3.6958">
        <ele>47</ele>
        <time>2016-04-17T13:11:49.930Z</time>
      </trkpt>
      <trkpt lat="43.39681" lon="3.69582">
        <ele>46</ele>
        <time>2016-04-17T13:11:51.958Z</time>
      </trkpt>
      <trkpt lat="43.39688" lon="3.69585">
        <ele>47</ele>
        <time>2016-04-17T13:11:52.934Z</time>
      </trkpt>
      <trkpt lat="43.39692" lon="3.69587">
        <ele>48</ele>
        <time>2016-04-17T13:11:53.950Z</time>
      </trkpt>
      <trkpt lat="43.397" lon="3.6959">
        <ele>46</ele>
        <time>2016-04-17T13:11:54.930Z</time>
      </trkpt>
      <trkpt lat="43.39708" lon="3.69594">
        <ele>46</ele>
        <time>2016-04-17T13:11:56.949Z</time>
      </trkpt>
      <trkpt lat="43.39711" lon="3.69595">
        <ele>46</ele>
        <time>2016-04-17T13:11:57.931Z</time>
      </trkpt>
      <trkpt lat="43.39719" lon="3.69597">
        <ele>47</ele>
        <time>2016-04-17T13:12:00.025Z</time>
      </trkpt>
      <trkpt lat="43.39723" lon="3.696">
        <ele>48</ele>
        <time>2016-04-17T13:12:00.930Z</time>
      </trkpt>
      <trkpt lat="43.39727" lon="3.69605">
        <ele>48</ele>
        <time>2016-04-17T13:12:01.981Z</time>
      </trkpt>
      <trkpt lat="43.39733" lon="3.69607">
        <ele>47</ele>
        <time>2016-04-17T13:12:02.932Z</time>
      </trkpt>
      <trkpt lat="43.39741" lon="3.69611">
        <ele>47</ele>
        <time>2016-04-17T13:12:04.964Z</time>
      </trkpt>
      <trkpt lat="43.39747" lon="3.69611">
        <ele>44</ele>
        <time>2016-04-17T13:12:05.932Z</time>
      </trkpt>
      <trkpt lat="43.39751" lon="3.69612">
        <ele>44</ele>
        <time>2016-04-17T13:12:06.958Z</time>
      </trkpt>
      <trkpt lat="43.39756" lon="3.69615">
        <ele>43</ele>
        <time>2016-04-17T13:12:08.009Z</time>
      </trkpt>
      <trkpt lat="43.39764" lon="3.69618">
        <ele>44</ele>
        <time>2016-04-17T13:12:09.964Z</time>
      </trkpt>
      <trkpt lat="43.39767" lon="3.6962">
        <ele>45</ele>
        <time>2016-04-17T13:12:10.935Z</time>
      </trkpt>
      <trkpt lat="43.39775" lon="3.69625">
        <ele>44</ele>
        <time>2016-04-17T13:12:12.956Z</time>
      </trkpt>
      <trkpt lat="43.39779" lon="3.69628">
        <ele>43</ele>
        <time>2016-04-17T13:12:13.930Z</time>
      </trkpt>
      <trkpt lat="43.39784" lon="3.69631">
        <ele>44</ele>
        <time>2016-04-17T13:12:14.966Z</time>
      </trkpt>
      <trkpt lat="43.39788" lon="3.69634">
        <ele>45</ele>
        <time>2016-04-17T13:12:15.934Z</time>
      </trkpt>
      <trkpt lat="43.39791" lon="3.69636">
        <ele>45</ele>
        <time>2016-04-17T13:12:16.962Z</time>
      </trkpt>
      <trkpt lat="43.39794" lon="3.69643">
        <ele>46</ele>
        <time>2016-04-17T13:12:17.971Z</time>
      </trkpt>
      <trkpt lat="43.39799" lon="3.69651">
        <ele>45</ele>
        <time>2016-04-17T13:12:19.974Z</time>
      </trkpt>
      <trkpt lat="43.39802" lon="3.69654">
        <ele>45</ele>
        <time>2016-04-17T13:12:20.929Z</time>
      </trkpt>
      <trkpt lat="43.39809" lon="3.69657">
        <ele>46</ele>
        <time>2016-04-17T13:12:23.959Z</time>
      </trkpt>
      <trkpt lat="43.39811" lon="3.69661">
        <ele>46</ele>
        <time>2016-04-17T13:12:24.936Z</time>
      </trkpt>
      <trkpt lat="43.39817" lon="3.69669">
        <ele>45</ele>
        <time>2016-04-17T13:12:30.961Z</time>
      </trkpt>
      <trkpt lat="43.39818" lon="3.69672">
        <ele>41</ele>
        <time>2016-04-17T13:12:31.931Z</time>
      </trkpt>
      <trkpt lat="43.39825" lon="3.69671">
        <ele>49</ele>
        <time>2016-04-17T13:13:02.952Z</time>
      </trkpt>
      <trkpt lat="43.39832" lon="3.6967">
        <ele>46</ele>
        <time>2016-04-17T13:13:03.932Z</time>
      </trkpt>
      <trkpt lat="43.3984" lon="3.69676">
        <ele>45</ele>
        <time>2016-04-17T13:13:07.999Z</time>
      </trkpt>
      <trkpt lat="43.39841" lon="3.69675">
        <ele>44</ele>
        <time>2016-04-17T13:13:08.929Z</time>
      </trkpt>
      <trkpt lat="43.39848" lon="3.69674">
        <ele>44</ele>
        <time>2016-04-17T13:13:12.962Z</time>
      </trkpt>
      <trkpt lat="43.39851" lon="3.69674">
        <ele>45</ele>
        <time>2016-04-17T13:13:14.076Z</time>
      </trkpt>
      <trkpt lat="43.39859" lon="3.69673">
        <ele>45</ele>
        <time>2016-04-17T13:13:17.974Z</time>
      </trkpt>
      <trkpt lat="43.3986" lon="3.69672">
        <ele>45</ele>
        <time>2016-04-17T13:13:18.929Z</time>
      </trkpt>
      <trkpt lat="43.39867" lon="3.69667">
        <ele>48</ele>
        <time>2016-04-17T13:13:23.953Z</time>
      </trkpt>
      <trkpt lat="43.39869" lon="3.69665">
        <ele>47</ele>
        <time>2016-04-17T13:13:24.930Z</time>
      </trkpt>
      <trkpt lat="43.39877" lon="3.69666">
        <ele>50</ele>
        <time>2016-04-17T13:13:27.960Z</time>
      </trkpt>
      <trkpt lat="43.39878" lon="3.69665">
        <ele>51</ele>
        <time>2016-04-17T13:13:28.927Z</time>
      </trkpt>
      <trkpt lat="43.39885" lon="3.69665">
        <ele>50</ele>
        <time>2016-04-17T13:13:31.955Z</time>
      </trkpt>
      <trkpt lat="43.39887" lon="3.69667">
        <ele>52</ele>
        <time>2016-04-17T13:13:32.933Z</time>
      </trkpt>
      <trkpt lat="43.39893" lon="3.69662">
        <ele>51</ele>
        <time>2016-04-17T13:13:35.933Z</time>
      </trkpt>
      <trkpt lat="43.39895" lon="3.6966">
        <ele>50</ele>
        <time>2016-04-17T13:13:36.933Z</time>
      </trkpt>
      <trkpt lat="43.39902" lon="3.69658">
        <ele>50</ele>
        <time>2016-04-17T13:13:39.003Z</time>
      </trkpt>
      <trkpt lat="43.39906" lon="3.69656">
        <ele>51</ele>
        <time>2016-04-17T13:13:39.930Z</time>
      </trkpt>
      <trkpt lat="43.39913" lon="3.69651">
        <ele>45</ele>
        <time>2016-04-17T13:13:41.960Z</time>
      </trkpt>
      <trkpt lat="43.39915" lon="3.6965">
        <ele>45</ele>
        <time>2016-04-17T13:13:42.931Z</time>
      </trkpt>
      <trkpt lat="43.39923" lon="3.6965">
        <ele>43</ele>
        <time>2016-04-17T13:13:43.960Z</time>
      </trkpt>
      <trkpt lat="43.39926" lon="3.69652">
        <ele>45</ele>
        <time>2016-04-17T13:13:44.932Z</time>
      </trkpt>
      <trkpt lat="43.39928" lon="3.69651">
        <ele>44</ele>
        <time>2016-04-17T13:13:45.955Z</time>
      </trkpt>
      <trkpt lat="43.39934" lon="3.69647">
        <ele>39</ele>
        <time>2016-04-17T13:13:46.929Z</time>
      </trkpt>
      <trkpt lat="43.39941" lon="3.69646">
        <ele>41</ele>
        <time>2016-04-17T13:13:48.960Z</time>
      </trkpt>
      <trkpt lat="43.39944" lon="3.69645">
        <ele>41</ele>
        <time>2016-04-17T13:13:49.928Z</time>
      </trkpt>
      <trkpt lat="43.39952" lon="3.69641">
        <ele>42</ele>
        <time>2016-04-17T13:13:52.968Z</time>
      </trkpt>
      <trkpt lat="43.39954" lon="3.69641">
        <ele>43</ele>
        <time>2016-04-17T13:13:53.932Z</time>
      </trkpt>
      <trkpt lat="43.39959" lon="3.69642">
        <ele>45</ele>
        <time>2016-04-17T13:13:54.957Z</time>
      </trkpt>
      <trkpt lat="43.39963" lon="3.69645">
        <ele>46</ele>
        <time>2016-04-17T13:13:55.931Z</time>
      </trkpt>
      <trkpt lat="43.39971" lon="3.69647">
        <ele>48</ele>
        <time>2016-04-17T13:13:58.967Z</time>
      </trkpt>
      <trkpt lat="43.39974" lon="3.69649">
        <ele>49</ele>
        <time>2016-04-17T13:13:59.932Z</time>
      </trkpt>
      <trkpt lat="43.39979" lon="3.69651">
        <ele>48</ele>
        <time>2016-04-17T13:14:01.953Z</time>
      </trkpt>
      <trkpt lat="43.39983" lon="3.69652">
        <ele>49</ele>
        <time>2016-04-17T13:14:02.933Z</time>
      </trkpt>
      <trkpt lat="43.39988" lon="3.69654">
        <ele>51</ele>
        <time>2016-04-17T13:14:05.959Z</time>
      </trkpt>
      <trkpt lat="43.39993" lon="3.69657">
        <ele>50</ele>
        <time>2016-04-17T13:14:06.933Z</time>
      </trkpt>
      <trkpt lat="43.39999" lon="3.69659">
        <ele>51</ele>
        <time>2016-04-17T13:14:08.990Z</time>
      </trkpt>
      <trkpt lat="43.40003" lon="3.6966">
        <ele>50</ele>
        <time>2016-04-17T13:14:09.934Z</time>
      </trkpt>
      <trkpt lat="43.40011" lon="3.6966">
        <ele>52</ele>
        <time>2016-04-17T13:14:12.963Z</time>
      </trkpt>
      <trkpt lat="43.40013" lon="3.6966">
        <ele>52</ele>
        <time>2016-04-17T13:14:13.929Z</time>
      </trkpt>
      <trkpt lat="43.40021" lon="3.69658">
        <ele>51</ele>
        <time>2016-04-17T13:14:15.962Z</time>
      </trkpt>
      <trkpt lat="43.40024" lon="3.6966">
        <ele>51</ele>
        <time>2016-04-17T13:14:16.931Z</time>
      </trkpt>
      <trkpt lat="43.40027" lon="3.69661">
        <ele>51</ele>
        <time>2016-04-17T13:14:17.954Z</time>
      </trkpt>
      <trkpt lat="43.40035" lon="3.6966">
        <ele>59</ele>
        <time>2016-04-17T13:14:18.938Z</time>
      </trkpt>
      <trkpt lat="43.40042" lon="3.69663">
        <ele>54</ele>
        <time>2016-04-17T13:14:20.952Z</time>
      </trkpt>
      <trkpt lat="43.40048" lon="3.69662">
        <ele>51</ele>
        <time>2016-04-17T13:14:21.932Z</time>
      </trkpt>
      <trkpt lat="43.40053" lon="3.69663">
        <ele>50</ele>
        <time>2016-04-17T13:14:23.954Z</time>
      </trkpt>
      <trkpt lat="43.40058" lon="3.69665">
        <ele>49</ele>
        <time>2016-04-17T13:14:24.931Z</time>
      </trkpt>
      <trkpt lat="43.40064" lon="3.69672">
        <ele>49</ele>
        <time>2016-04-17T13:14:27.960Z</time>
      </trkpt>
      <trkpt lat="43.40066" lon="3.69673">
        <ele>49</ele>
        <time>2016-04-17T13:14:28.932Z</time>
      </trkpt>
      <trkpt lat="43.40073" lon="3.69678">
        <ele>49</ele>
        <time>2016-04-17T13:14:36.961Z</time>
      </trkpt>
      <trkpt lat="43.40076" lon="3.6968">
        <ele>47</ele>
        <time>2016-04-17T13:14:37.931Z</time>
      </trkpt>
      <trkpt lat="43.40082" lon="3.69682">
        <ele>50</ele>
        <time>2016-04-17T13:14:40.951Z</time>
      </trkpt>
      <trkpt lat="43.40086" lon="3.69683">
        <ele>53</ele>
        <time>2016-04-17T13:14:41.931Z</time>
      </trkpt>
      <trkpt lat="43.40093" lon="3.69683">
        <ele>50</ele>
        <time>2016-04-17T13:14:43.956Z</time>
      </trkpt>
      <trkpt lat="43.40097" lon="3.69686">
        <ele>51</ele>
        <time>2016-04-17T13:14:44.932Z</time>
      </trkpt>
      <trkpt lat="43.40104" lon="3.69688">
        <ele>52</ele>
        <time>2016-04-17T13:14:46.958Z</time>
      </trkpt>
      <trkpt lat="43.40108" lon="3.69687">
        <ele>50</ele>
        <time>2016-04-17T13:14:47.933Z</time>
      </trkpt>
      <trkpt lat="43.40113" lon="3.69687">
        <ele>50</ele>
        <time>2016-04-17T13:14:49.961Z</time>
      </trkpt>
      <trkpt lat="43.40117" lon="3.69686">
        <ele>49</ele>
        <time>2016-04-17T13:14:50.933Z</time>
      </trkpt>
      <trkpt lat="43.40123" lon="3.69689">
        <ele>50</ele>
        <time>2016-04-17T13:14:52.957Z</time>
      </trkpt>
      <trkpt lat="43.40127" lon="3.6969">
        <ele>49</ele>
        <time>2016-04-17T13:14:53.931Z</time>
      </trkpt>
      <trkpt lat="43.40134" lon="3.69696">
        <ele>52</ele>
        <time>2016-04-17T13:14:55.957Z</time>
      </trkpt>
      <trkpt lat="43.40138" lon="3.69695">
        <ele>51</ele>
        <time>2016-04-17T13:14:56.932Z</time>
      </trkpt>
      <trkpt lat="43.40147" lon="3.69695">
        <ele>50</ele>
        <time>2016-04-17T13:14:58.956Z</time>
      </trkpt>
      <trkpt lat="43.40151" lon="3.69694">
        <ele>49</ele>
        <time>2016-04-17T13:14:59.933Z</time>
      </trkpt>
      <trkpt lat="43.40156" lon="3.69696">
        <ele>50</ele>
        <time>2016-04-17T13:15:01.981Z</time>
      </trkpt>
      <trkpt lat="43.40161" lon="3.69695">
        <ele>49</ele>
        <time>2016-04-17T13:15:02.933Z</time>
      </trkpt>
      <trkpt lat="43.40169" lon="3.69699">
        <ele>53</ele>
        <time>2016-04-17T13:15:05.994Z</time>
      </trkpt>
      <trkpt lat="43.4017" lon="3.69702">
        <ele>53</ele>
        <time>2016-04-17T13:15:06.938Z</time>
      </trkpt>
      <trkpt lat="43.40174" lon="3.69709">
        <ele>54</ele>
        <time>2016-04-17T13:15:08.958Z</time>
      </trkpt>
      <trkpt lat="43.40173" lon="3.69709">
        <ele>54</ele>
        <time>2016-04-17T13:15:09.931Z</time>
      </trkpt>
      <trkpt lat="43.40174" lon="3.6971">
        <ele>55</ele>
        <time>2016-04-17T13:15:57.960Z</time>
      </trkpt>
      <trkpt lat="43.40174" lon="3.6971">
        <ele>56</ele>
        <time>2016-04-17T13:15:58.933Z</time>
      </trkpt>
      <trkpt lat="43.4018" lon="3.69717">
        <ele>52</ele>
        <time>2016-04-17T13:16:12.957Z</time>
      </trkpt>
      <trkpt lat="43.40181" lon="3.69723">
        <ele>54</ele>
        <time>2016-04-17T13:16:13.934Z</time>
      </trkpt>
      <trkpt lat="43.40182" lon="3.69732">
        <ele>55</ele>
        <time>2016-04-17T13:16:15.969Z</time>
      </trkpt>
      <trkpt lat="43.40182" lon="3.69736">
        <ele>54</ele>
        <time>2016-04-17T13:16:16.935Z</time>
      </trkpt>
      <trkpt lat="43.40183" lon="3.69746">
        <ele>54</ele>
        <time>2016-04-17T13:16:19.983Z</time>
      </trkpt>
      <trkpt lat="43.40183" lon="3.69752">
        <ele>54</ele>
        <time>2016-04-17T13:16:20.933Z</time>
      </trkpt>
      <trkpt lat="43.40179" lon="3.69762">
        <ele>51</ele>
        <time>2016-04-17T13:16:22.962Z</time>
      </trkpt>
      <trkpt lat="43.40179" lon="3.69767">
        <ele>51</ele>
        <time>2016-04-17T13:16:23.933Z</time>
      </trkpt>
      <trkpt lat="43.40183" lon="3.69776">
        <ele>50</ele>
        <time>2016-04-17T13:16:40.963Z</time>
      </trkpt>
      <trkpt lat="43.40186" lon="3.69777">
        <ele>49</ele>
        <time>2016-04-17T13:16:41.932Z</time>
      </trkpt>
      <trkpt lat="43.40193" lon="3.69779">
        <ele>48</ele>
        <time>2016-04-17T13:16:42.961Z</time>
      </trkpt>
      <trkpt lat="43.40196" lon="3.69779">
        <ele>49</ele>
        <time>2016-04-17T13:16:43.932Z</time>
      </trkpt>
      <trkpt lat="43.40205" lon="3.69779">
        <ele>50</ele>
        <time>2016-04-17T13:16:45.962Z</time>
      </trkpt>
      <trkpt lat="43.40208" lon="3.6978">
        <ele>48</ele>
        <time>2016-04-17T13:16:46.931Z</time>
      </trkpt>
      <trkpt lat="43.40215" lon="3.69777">
        <ele>50</ele>
        <time>2016-04-17T13:16:48.961Z</time>
      </trkpt>
      <trkpt lat="43.40218" lon="3.69776">
        <ele>51</ele>
        <time>2016-04-17T13:16:49.931Z</time>
      </trkpt>
      <trkpt lat="43.40226" lon="3.69772">
        <ele>53</ele>
        <time>2016-04-17T13:16:51.961Z</time>
      </trkpt>
      <trkpt lat="43.40228" lon="3.69772">
        <ele>52</ele>
        <time>2016-04-17T13:16:52.933Z</time>
      </trkpt>
      <trkpt lat="43.40235" lon="3.6977">
        <ele>52</ele>
        <time>2016-04-17T13:16:55.958Z</time>
      </trkpt>
      <trkpt lat="43.40238" lon="3.69768">
        <ele>51</ele>
        <time>2016-04-17T13:16:56.932Z</time>
      </trkpt>
      <trkpt lat="43.40244" lon="3.69767">
        <ele>49</ele>
        <time>2016-04-17T13:16:58.964Z</time>
      </trkpt>
      <trkpt lat="43.40248" lon="3.69767">
        <ele>51</ele>
        <time>2016-04-17T13:16:59.933Z</time>
      </trkpt>
      <trkpt lat="43.40257" lon="3.69766">
        <ele>51</ele>
        <time>2016-04-17T13:17:01.960Z</time>
      </trkpt>
      <trkpt lat="43.4026" lon="3.69766">
        <ele>52</ele>
        <time>2016-04-17T13:17:02.932Z</time>
      </trkpt>
      <trkpt lat="43.40267" lon="3.69767">
        <ele>49</ele>
        <time>2016-04-17T13:17:05.960Z</time>
      </trkpt>
      <trkpt lat="43.40271" lon="3.69768">
        <ele>48</ele>
        <time>2016-04-17T13:17:06.932Z</time>
      </trkpt>
      <trkpt lat="43.40278" lon="3.69767">
        <ele>47</ele>
        <time>2016-04-17T13:17:08.960Z</time>
      </trkpt>
      <trkpt lat="43.40281" lon="3.69766">
        <ele>47</ele>
        <time>2016-04-17T13:17:09.958Z</time>
      </trkpt>
      <trkpt lat="43.40287" lon="3.6976">
        <ele>48</ele>
        <time>2016-04-17T13:17:11.960Z</time>
      </trkpt>
      <trkpt lat="43.40291" lon="3.69758">
        <ele>48</ele>
        <time>2016-04-17T13:17:12.928Z</time>
      </trkpt>
      <trkpt lat="43.40298" lon="3.69755">
        <ele>49</ele>
        <time>2016-04-17T13:17:14.964Z</time>
      </trkpt>
      <trkpt lat="43.40302" lon="3.69755">
        <ele>51</ele>
        <time>2016-04-17T13:17:15.933Z</time>
      </trkpt>
      <trkpt lat="43.40311" lon="3.69754">
        <ele>51</ele>
        <time>2016-04-17T13:17:19.963Z</time>
      </trkpt>
      <trkpt lat="43.40311" lon="3.69755">
        <ele>51</ele>
        <time>2016-04-17T13:17:20.956Z</time>
      </trkpt>
      <trkpt lat="43.40312" lon="3.69755">
        <ele>51</ele>
        <time>2016-04-17T13:17:22.960Z</time>
      </trkpt>
      <trkpt lat="43.40313" lon="3.69757">
        <ele>49</ele>
        <time>2016-04-17T13:17:23.933Z</time>
      </trkpt>
      <trkpt lat="43.40313" lon="3.69757">
        <ele>49</ele>
        <time>2016-04-17T13:17:23.979Z</time>
      </trkpt>
      <trkpt lat="43.40313" lon="3.69756">
        <ele>49</ele>
        <time>2016-04-17T13:17:24.932Z</time>
      </trkpt>
      <trkpt lat="43.40313" lon="3.69755">
        <ele>50</ele>
        <time>2016-04-17T13:17:25.964Z</time>
      </trkpt>
      <trkpt lat="43.40312" lon="3.69756">
        <ele>49</ele>
        <time>2016-04-17T13:17:26.932Z</time>
      </trkpt>
      <trkpt lat="43.40312" lon="3.69753">
        <ele>48</ele>
        <time>2016-04-17T13:17:35.960Z</time>
      </trkpt>
      <trkpt lat="43.40312" lon="3.69752">
        <ele>47</ele>
        <time>2016-04-17T13:17:36.933Z</time>
      </trkpt>
      <trkpt lat="43.40316" lon="3.69763">
        <ele>43</ele>
        <time>2016-04-17T13:20:09.955Z</time>
      </trkpt>
      <trkpt lat="43.40315" lon="3.69764">
        <ele>42</ele>
        <time>2016-04-17T13:20:10.935Z</time>
      </trkpt>
      <trkpt lat="43.40315" lon="3.69773">
        <ele>41</ele>
        <time>2016-04-17T13:21:16.962Z</time>
      </trkpt>
      <trkpt lat="43.40319" lon="3.69778">
        <ele>41</ele>
        <time>2016-04-17T13:21:17.932Z</time>
      </trkpt>
      <trkpt lat="43.40315" lon="3.69767">
        <ele>47</ele>
        <time>2016-04-17T13:21:27.954Z</time>
      </trkpt>
      <trkpt lat="43.40315" lon="3.69767">
        <ele>46</ele>
        <time>2016-04-17T13:21:28.931Z</time>
      </trkpt>
      <trkpt lat="43.40315" lon="3.69768">
        <ele>41</ele>
        <time>2016-04-17T13:21:59.956Z</time>
      </trkpt>
      <trkpt lat="43.40314" lon="3.6977">
        <ele>39</ele>
        <time>2016-04-17T13:22:00.932Z</time>
      </trkpt>
      <trkpt lat="43.40314" lon="3.69773">
        <ele>38</ele>
        <time>2016-04-17T13:22:42.983Z</time>
      </trkpt>
      <trkpt lat="43.40314" lon="3.69773">
        <ele>38</ele>
        <time>2016-04-17T13:22:43.934Z</time>
      </trkpt>
      <trkpt lat="43.40314" lon="3.69773">
        <ele>38</ele>
        <time>2016-04-17T13:22:43.969Z</time>
      </trkpt>
      <trkpt lat="43.40314" lon="3.69773">
        <ele>38</ele>
        <time>2016-04-17T13:22:44.933Z</time>
      </trkpt>
      <trkpt lat="43.40316" lon="3.69775">
        <ele>34</ele>
        <time>2016-04-17T13:22:54.956Z</time>
      </trkpt>
      <trkpt lat="43.40315" lon="3.69776">
        <ele>32</ele>
        <time>2016-04-17T13:22:55.937Z</time>
      </trkpt>
      <trkpt lat="43.40307" lon="3.69773">
        <ele>40</ele>
        <time>2016-04-17T13:23:32.962Z</time>
      </trkpt>
      <trkpt lat="43.40305" lon="3.69772">
        <ele>40</ele>
        <time>2016-04-17T13:23:33.926Z</time>
      </trkpt>
      <trkpt lat="43.40298" lon="3.69772">
        <ele>45</ele>
        <time>2016-04-17T13:23:39.962Z</time>
      </trkpt>
      <trkpt lat="43.40296" lon="3.6977">
        <ele>47</ele>
        <time>2016-04-17T13:23:40.934Z</time>
      </trkpt>
      <trkpt lat="43.40303" lon="3.69765">
        <ele>52</ele>
        <time>2016-04-17T13:24:30.963Z</time>
      </trkpt>
      <trkpt lat="43.40304" lon="3.69765">
        <ele>52</ele>
        <time>2016-04-17T13:24:31.933Z</time>
      </trkpt>
      <trkpt lat="43.40307" lon="3.69756">
        <ele>51</ele>
        <time>2016-04-17T13:24:38.976Z</time>
      </trkpt>
      <trkpt lat="43.40309" lon="3.69754">
        <ele>51</ele>
        <time>2016-04-17T13:24:39.932Z</time>
      </trkpt>
      <trkpt lat="43.40311" lon="3.6975">
        <ele>53</ele>
        <time>2016-04-17T13:24:46.960Z</time>
      </trkpt>
      <trkpt lat="43.40311" lon="3.69749">
        <ele>54</ele>
        <time>2016-04-17T13:24:47.933Z</time>
      </trkpt>
      <trkpt lat="43.40312" lon="3.69752">
        <ele>56</ele>
        <time>2016-04-17T13:24:51.951Z</time>
      </trkpt>
      <trkpt lat="43.40312" lon="3.69754">
        <ele>54</ele>
        <time>2016-04-17T13:24:52.932Z</time>
      </trkpt>
      <trkpt lat="43.4032" lon="3.6976">
        <ele>52</ele>
        <time>2016-04-17T13:26:27.957Z</time>
      </trkpt>
      <trkpt lat="43.40321" lon="3.6976">
        <ele>52</ele>
        <time>2016-04-17T13:26:28.934Z</time>
      </trkpt>
      <trkpt lat="43.4033" lon="3.69759">
        <ele>49</ele>
        <time>2016-04-17T13:26:33.999Z</time>
      </trkpt>
      <trkpt lat="43.4033" lon="3.69759">
        <ele>50</ele>
        <time>2016-04-17T13:26:34.934Z</time>
      </trkpt>
      <trkpt lat="43.40338" lon="3.69756">
        <ele>50</ele>
        <time>2016-04-17T13:26:39.973Z</time>
      </trkpt>
      <trkpt lat="43.4034" lon="3.69755">
        <ele>50</ele>
        <time>2016-04-17T13:26:40.935Z</time>
      </trkpt>
      <trkpt lat="43.40347" lon="3.69757">
        <ele>52</ele>
        <time>2016-04-17T13:26:45.964Z</time>
      </trkpt>
      <trkpt lat="43.40349" lon="3.69756">
        <ele>52</ele>
        <time>2016-04-17T13:26:46.933Z</time>
      </trkpt>
      <trkpt lat="43.40356" lon="3.69753">
        <ele>53</ele>
        <time>2016-04-17T13:26:49.966Z</time>
      </trkpt>
      <trkpt lat="43.40358" lon="3.69753">
        <ele>51</ele>
        <time>2016-04-17T13:26:50.936Z</time>
      </trkpt>
      <trkpt lat="43.40365" lon="3.69751">
        <ele>51</ele>
        <time>2016-04-17T13:26:54.959Z</time>
      </trkpt>
      <trkpt lat="43.40367" lon="3.69751">
        <ele>51</ele>
        <time>2016-04-17T13:26:55.932Z</time>
      </trkpt>
      <trkpt lat="43.40375" lon="3.69749">
        <ele>49</ele>
        <time>2016-04-17T13:26:59.969Z</time>
      </trkpt>
      <trkpt lat="43.40378" lon="3.6975">
        <ele>49</ele>
        <time>2016-04-17T13:27:00.933Z</time>
      </trkpt>
      <trkpt lat="43.40387" lon="3.69748">
        <ele>48</ele>
        <time>2016-04-17T13:27:04.966Z</time>
      </trkpt>
      <trkpt lat="43.40389" lon="3.69748">
        <ele>48</ele>
        <time>2016-04-17T13:27:06.003Z</time>
      </trkpt>
      <trkpt lat="43.40396" lon="3.69746">
        <ele>47</ele>
        <time>2016-04-17T13:27:08.991Z</time>
      </trkpt>
      <trkpt lat="43.40399" lon="3.69745">
        <ele>48</ele>
        <time>2016-04-17T13:27:09.932Z</time>
      </trkpt>
      <trkpt lat="43.40407" lon="3.69743">
        <ele>47</ele>
        <time>2016-04-17T13:27:13.961Z</time>
      </trkpt>
      <trkpt lat="43.4041" lon="3.69745">
        <ele>46</ele>
        <time>2016-04-17T13:27:14.932Z</time>
      </trkpt>
      <trkpt lat="43.40418" lon="3.69744">
        <ele>44</ele>
        <time>2016-04-17T13:27:18.953Z</time>
      </trkpt>
      <trkpt lat="43.40422" lon="3.69746">
        <ele>43</ele>
        <time>2016-04-17T13:27:19.934Z</time>
      </trkpt>
      <trkpt lat="43.40431" lon="3.69744">
        <ele>43</ele>
        <time>2016-04-17T13:27:31.964Z</time>
      </trkpt>
      <trkpt lat="43.40431" lon="3.69744">
        <ele>43</ele>
        <time>2016-04-17T13:27:32.931Z</time>
      </trkpt>
      <trkpt lat="43.40434" lon="3.69753">
        <ele>43</ele>
        <time>2016-04-17T13:27:36.966Z</time>
      </trkpt>
      <trkpt lat="43.40434" lon="3.69757">
        <ele>44</ele>
        <time>2016-04-17T13:27:37.934Z</time>
      </trkpt>
      <trkpt lat="43.40437" lon="3.69766">
        <ele>46</ele>
        <time>2016-04-17T13:27:40.965Z</time>
      </trkpt>
      <trkpt lat="43.40439" lon="3.69769">
        <ele>48</ele>
        <time>2016-04-17T13:27:41.934Z</time>
      </trkpt>
      <trkpt lat="43.40439" lon="3.69778">
        <ele>49</ele>
        <time>2016-04-17T13:27:44.962Z</time>
      </trkpt>
      <trkpt lat="43.4044" lon="3.69782">
        <ele>49</ele>
        <time>2016-04-17T13:27:45.959Z</time>
      </trkpt>
      <trkpt lat="43.40442" lon="3.69791">
        <ele>49</ele>
        <time>2016-04-17T13:27:47.961Z</time>
      </trkpt>
      <trkpt lat="43.40445" lon="3.69797">
        <ele>50</ele>
        <time>2016-04-17T13:27:48.932Z</time>
      </trkpt>
      <trkpt lat="43.40447" lon="3.69807">
        <ele>53</ele>
        <time>2016-04-17T13:27:51.961Z</time>
      </trkpt>
      <trkpt lat="43.40448" lon="3.69811">
        <ele>53</ele>
        <time>2016-04-17T13:27:52.930Z</time>
      </trkpt>
      <trkpt lat="43.40451" lon="3.69819">
        <ele>54</ele>
        <time>2016-04-17T13:27:56.951Z</time>
      </trkpt>
      <trkpt lat="43.40446" lon="3.69826">
        <ele>53</ele>
        <time>2016-04-17T13:27:57.933Z</time>
      </trkpt>
      <trkpt lat="43.40449" lon="3.69834">
        <ele>53</ele>
        <time>2016-04-17T13:28:00.960Z</time>
      </trkpt>
      <trkpt lat="43.40448" lon="3.69839">
        <ele>54</ele>
        <time>2016-04-17T13:28:01.958Z</time>
      </trkpt>
      <trkpt lat="43.40449" lon="3.69848">
        <ele>55</ele>
        <time>2016-04-17T13:28:03.961Z</time>
      </trkpt>
      <trkpt lat="43.40447" lon="3.69853">
        <ele>56</ele>
        <time>2016-04-17T13:28:04.936Z</time>
      </trkpt>
      <trkpt lat="43.40451" lon="3.69862">
        <ele>55</ele>
        <time>2016-04-17T13:28:07.960Z</time>
      </trkpt>
      <trkpt lat="43.40452" lon="3.69866">
        <ele>57</ele>
        <time>2016-04-17T13:28:08.937Z</time>
      </trkpt>
      <trkpt lat="43.40456" lon="3.69876">
        <ele>57</ele>
        <time>2016-04-17T13:28:11.958Z</time>
      </trkpt>
      <trkpt lat="43.40458" lon="3.6988">
        <ele>58</ele>
        <time>2016-04-17T13:28:12.961Z</time>
      </trkpt>
      <trkpt lat="43.40458" lon="3.6989">
        <ele>60</ele>
        <time>2016-04-17T13:28:15.951Z</time>
      </trkpt>
      <trkpt lat="43.40459" lon="3.69896">
        <ele>59</ele>
        <time>2016-04-17T13:28:16.929Z</time>
      </trkpt>
      <trkpt lat="43.40461" lon="3.69903">
        <ele>57</ele>
        <time>2016-04-17T13:28:18.958Z</time>
      </trkpt>
      <trkpt lat="43.40463" lon="3.69908">
        <ele>56</ele>
        <time>2016-04-17T13:28:19.932Z</time>
      </trkpt>
      <trkpt lat="43.40464" lon="3.69915">
        <ele>58</ele>
        <time>2016-04-17T13:28:21.957Z</time>
      </trkpt>
      <trkpt lat="43.40465" lon="3.69922">
        <ele>58</ele>
        <time>2016-04-17T13:28:22.933Z</time>
      </trkpt>
      <trkpt lat="43.40466" lon="3.69931">
        <ele>60</ele>
        <time>2016-04-17T13:28:26.958Z</time>
      </trkpt>
      <trkpt lat="43.40465" lon="3.69934">
        <ele>61</ele>
        <time>2016-04-17T13:28:27.934Z</time>
      </trkpt>
      <trkpt lat="43.40469" lon="3.69943">
        <ele>60</ele>
        <time>2016-04-17T13:28:31.957Z</time>
      </trkpt>
      <trkpt lat="43.40469" lon="3.69945">
        <ele>60</ele>
        <time>2016-04-17T13:28:32.934Z</time>
      </trkpt>
      <trkpt lat="43.40469" lon="3.69957">
        <ele>60</ele>
        <time>2016-04-17T13:28:41.956Z</time>
      </trkpt>
      <trkpt lat="43.40466" lon="3.6996">
        <ele>60</ele>
        <time>2016-04-17T13:28:42.933Z</time>
      </trkpt>
      <trkpt lat="43.40461" lon="3.69969">
        <ele>61</ele>
        <time>2016-04-17T13:28:46.957Z</time>
      </trkpt>
      <trkpt lat="43.40459" lon="3.6997">
        <ele>61</ele>
        <time>2016-04-17T13:28:47.934Z</time>
      </trkpt>
      <trkpt lat="43.4046" lon="3.69981">
        <ele>62</ele>
        <time>2016-04-17T13:29:17.957Z</time>
      </trkpt>
      <trkpt lat="43.40461" lon="3.69984">
        <ele>63</ele>
        <time>2016-04-17T13:29:18.935Z</time>
      </trkpt>
      <trkpt lat="43.40464" lon="3.69992">
        <ele>63</ele>
        <time>2016-04-17T13:29:21.961Z</time>
      </trkpt>
      <trkpt lat="43.40466" lon="3.69996">
        <ele>62</ele>
        <time>2016-04-17T13:29:22.933Z</time>
      </trkpt>
      <trkpt lat="43.4047" lon="3.70004">
        <ele>60</ele>
        <time>2016-04-17T13:29:25.956Z</time>
      </trkpt>
      <trkpt lat="43.40469" lon="3.70008">
        <ele>59</ele>
        <time>2016-04-17T13:29:26.933Z</time>
      </trkpt>
      <trkpt lat="43.40472" lon="3.70018">
        <ele>60</ele>
        <time>2016-04-17T13:29:29.970Z</time>
      </trkpt>
      <trkpt lat="43.40473" lon="3.70021">
        <ele>60</ele>
        <time>2016-04-17T13:29:30.933Z</time>
      </trkpt>
      <trkpt lat="43.40477" lon="3.70029">
        <ele>60</ele>
        <time>2016-04-17T13:29:34.958Z</time>
      </trkpt>
      <trkpt lat="43.40478" lon="3.70032">
        <ele>61</ele>
        <time>2016-04-17T13:29:35.933Z</time>
      </trkpt>
      <trkpt lat="43.40479" lon="3.70042">
        <ele>60</ele>
        <time>2016-04-17T13:29:38.958Z</time>
      </trkpt>
      <trkpt lat="43.40476" lon="3.70048">
        <ele>59</ele>
        <time>2016-04-17T13:29:39.934Z</time>
      </trkpt>
      <trkpt lat="43.40478" lon="3.70057">
        <ele>59</ele>
        <time>2016-04-17T13:29:44.092Z</time>
      </trkpt>
      <trkpt lat="43.40477" lon="3.70061">
        <ele>59</ele>
        <time>2016-04-17T13:29:44.934Z</time>
      </trkpt>
      <trkpt lat="43.40484" lon="3.70068">
        <ele>59</ele>
        <time>2016-04-17T13:29:48.958Z</time>
      </trkpt>
      <trkpt lat="43.40482" lon="3.70074">
        <ele>59</ele>
        <time>2016-04-17T13:29:49.935Z</time>
      </trkpt>
      <trkpt lat="43.40481" lon="3.70084">
        <ele>61</ele>
        <time>2016-04-17T13:29:51.959Z</time>
      </trkpt>
      <trkpt lat="43.40482" lon="3.70091">
        <ele>63</ele>
        <time>2016-04-17T13:29:52.934Z</time>
      </trkpt>
      <trkpt lat="43.40483" lon="3.70098">
        <ele>64</ele>
        <time>2016-04-17T13:29:53.958Z</time>
      </trkpt>
      <trkpt lat="43.40486" lon="3.70103">
        <ele>64</ele>
        <time>2016-04-17T13:29:54.936Z</time>
      </trkpt>
      <trkpt lat="43.40491" lon="3.70112">
        <ele>66</ele>
        <time>2016-04-17T13:29:56.958Z</time>
      </trkpt>
      <trkpt lat="43.4049" lon="3.7012">
        <ele>67</ele>
        <time>2016-04-17T13:29:57.935Z</time>
      </trkpt>
      <trkpt lat="43.4049" lon="3.70127">
        <ele>67</ele>
        <time>2016-04-17T13:29:58.960Z</time>
      </trkpt>
      <trkpt lat="43.40491" lon="3.70134">
        <ele>67</ele>
        <time>2016-04-17T13:29:59.935Z</time>
      </trkpt>
      <trkpt lat="43.40491" lon="3.7014">
        <ele>66</ele>
        <time>2016-04-17T13:30:00.961Z</time>
      </trkpt>
      <trkpt lat="43.40491" lon="3.70147">
        <ele>66</ele>
        <time>2016-04-17T13:30:01.940Z</time>
      </trkpt>
      <trkpt lat="43.40491" lon="3.70159">
        <ele>65</ele>
        <time>2016-04-17T13:30:03.958Z</time>
      </trkpt>
      <trkpt lat="43.40491" lon="3.70166">
        <ele>64</ele>
        <time>2016-04-17T13:30:04.934Z</time>
      </trkpt>
      <trkpt lat="43.40491" lon="3.70174">
        <ele>62</ele>
        <time>2016-04-17T13:30:05.968Z</time>
      </trkpt>
      <trkpt lat="43.40492" lon="3.70181">
        <ele>61</ele>
        <time>2016-04-17T13:30:06.933Z</time>
      </trkpt>
      <trkpt lat="43.40492" lon="3.70188">
        <ele>60</ele>
        <time>2016-04-17T13:30:07.991Z</time>
      </trkpt>
      <trkpt lat="43.40491" lon="3.70195">
        <ele>59</ele>
        <time>2016-04-17T13:30:08.934Z</time>
      </trkpt>
      <trkpt lat="43.40492" lon="3.70202">
        <ele>58</ele>
        <time>2016-04-17T13:30:09.961Z</time>
      </trkpt>
      <trkpt lat="43.40493" lon="3.70208">
        <ele>58</ele>
        <time>2016-04-17T13:30:10.932Z</time>
      </trkpt>
      <trkpt lat="43.40496" lon="3.70215">
        <ele>58</ele>
        <time>2016-04-17T13:30:11.964Z</time>
      </trkpt>
      <trkpt lat="43.40499" lon="3.70222">
        <ele>57</ele>
        <time>2016-04-17T13:30:12.934Z</time>
      </trkpt>
      <trkpt lat="43.40502" lon="3.70227">
        <ele>55</ele>
        <time>2016-04-17T13:30:13.964Z</time>
      </trkpt>
      <trkpt lat="43.40507" lon="3.70232">
        <ele>56</ele>
        <time>2016-04-17T13:30:14.935Z</time>
      </trkpt>
      <trkpt lat="43.40512" lon="3.70236">
        <ele>56</ele>
        <time>2016-04-17T13:30:15.966Z</time>
      </trkpt>
      <trkpt lat="43.40516" lon="3.7024">
        <ele>55</ele>
        <time>2016-04-17T13:30:16.934Z</time>
      </trkpt>
      <trkpt lat="43.40524" lon="3.70245">
        <ele>54</ele>
        <time>2016-04-17T13:30:18.963Z</time>
      </trkpt>
      <trkpt lat="43.40528" lon="3.7025">
        <ele>52</ele>
        <time>2016-04-17T13:30:19.933Z</time>
      </trkpt>
      <trkpt lat="43.40532" lon="3.70253">
        <ele>51</ele>
        <time>2016-04-17T13:30:20.952Z</time>
      </trkpt>
      <trkpt lat="43.40537" lon="3.70257">
        <ele>53</ele>
        <time>2016-04-17T13:30:21.932Z</time>
      </trkpt>
      <trkpt lat="43.40541" lon="3.70261">
        <ele>53</ele>
        <time>2016-04-17T13:30:23.171Z</time>
      </trkpt>
      <trkpt lat="43.40545" lon="3.70264">
        <ele>53</ele>
        <time>2016-04-17T13:30:23.950Z</time>
      </trkpt>
      <trkpt lat="43.40553" lon="3.70271">
        <ele>53</ele>
        <time>2016-04-17T13:30:25.958Z</time>
      </trkpt>
      <trkpt lat="43.40559" lon="3.7027">
        <ele>52</ele>
        <time>2016-04-17T13:30:26.933Z</time>
      </trkpt>
      <trkpt lat="43.40566" lon="3.70272">
        <ele>51</ele>
        <time>2016-04-17T13:30:27.958Z</time>
      </trkpt>
      <trkpt lat="43.4057" lon="3.70274">
        <ele>51</ele>
        <time>2016-04-17T13:30:28.934Z</time>
      </trkpt>
      <trkpt lat="43.40577" lon="3.70281">
        <ele>53</ele>
        <time>2016-04-17T13:30:30.958Z</time>
      </trkpt>
      <trkpt lat="43.40581" lon="3.70284">
        <ele>53</ele>
        <time>2016-04-17T13:30:31.933Z</time>
      </trkpt>
      <trkpt lat="43.40584" lon="3.70289">
        <ele>53</ele>
        <time>2016-04-17T13:30:32.957Z</time>
      </trkpt>
      <trkpt lat="43.4059" lon="3.70289">
        <ele>52</ele>
        <time>2016-04-17T13:30:33.933Z</time>
      </trkpt>
      <trkpt lat="43.40595" lon="3.70292">
        <ele>51</ele>
        <time>2016-04-17T13:30:34.958Z</time>
      </trkpt>
      <trkpt lat="43.40599" lon="3.70295">
        <ele>51</ele>
        <time>2016-04-17T13:30:35.933Z</time>
      </trkpt>
      <trkpt lat="43.40603" lon="3.70299">
        <ele>52</ele>
        <time>2016-04-17T13:30:36.958Z</time>
      </trkpt>
      <trkpt lat="43.40607" lon="3.70305">
        <ele>54</ele>
        <time>2016-04-17T13:30:37.935Z</time>
      </trkpt>
      <trkpt lat="43.4061" lon="3.70309">
        <ele>53</ele>
        <time>2016-04-17T13:30:39.026Z</time>
      </trkpt>
      <trkpt lat="43.40614" lon="3.70312">
        <ele>53</ele>
        <time>2016-04-17T13:30:39.934Z</time>
      </trkpt>
      <trkpt lat="43.40618" lon="3.70315">
        <ele>51</ele>
        <time>2016-04-17T13:30:40.964Z</time>
      </trkpt>
      <trkpt lat="43.40623" lon="3.70318">
        <ele>52</ele>
        <time>2016-04-17T13:30:41.936Z</time>
      </trkpt>
      <trkpt lat="43.40627" lon="3.7032">
        <ele>51</ele>
        <time>2016-04-17T13:30:42.938Z</time>
      </trkpt>
      <trkpt lat="43.40632" lon="3.70325">
        <ele>51</ele>
        <time>2016-04-17T13:30:43.928Z</time>
      </trkpt>
      <trkpt lat="43.40637" lon="3.70328">
        <ele>51</ele>
        <time>2016-04-17T13:30:44.999Z</time>
      </trkpt>
      <trkpt lat="43.40642" lon="3.70328">
        <ele>49</ele>
        <time>2016-04-17T13:30:45.934Z</time>
      </trkpt>
      <trkpt lat="43.40648" lon="3.70335">
        <ele>47</ele>
        <time>2016-04-17T13:30:47.963Z</time>
      </trkpt>
      <trkpt lat="43.4065" lon="3.7034">
        <ele>46</ele>
        <time>2016-04-17T13:30:48.935Z</time>
      </trkpt>
      <trkpt lat="43.40655" lon="3.70347">
        <ele>45</ele>
        <time>2016-04-17T13:30:50.964Z</time>
      </trkpt>
      <trkpt lat="43.4066" lon="3.70351">
        <ele>47</ele>
        <time>2016-04-17T13:30:51.932Z</time>
      </trkpt>
      <trkpt lat="43.40668" lon="3.70355">
        <ele>47</ele>
        <time>2016-04-17T13:30:53.973Z</time>
      </trkpt>
      <trkpt lat="43.40672" lon="3.70358">
        <ele>46</ele>
        <time>2016-04-17T13:30:54.933Z</time>
      </trkpt>
      <trkpt lat="43.40677" lon="3.70361">
        <ele>46</ele>
        <time>2016-04-17T13:30:55.962Z</time>
      </trkpt>
      <trkpt lat="43.4068" lon="3.70364">
        <ele>46</ele>
        <time>2016-04-17T13:30:56.936Z</time>
      </trkpt>
      <trkpt lat="43.40686" lon="3.7037">
        <ele>46</ele>
        <time>2016-04-17T13:30:58.961Z</time>
      </trkpt>
      <trkpt lat="43.40689" lon="3.70374">
        <ele>45</ele>
        <time>2016-04-17T13:30:59.935Z</time>
      </trkpt>
      <trkpt lat="43.40693" lon="3.70376">
        <ele>45</ele>
        <time>2016-04-17T13:31:00.963Z</time>
      </trkpt>
      <trkpt lat="43.40697" lon="3.7038">
        <ele>45</ele>
        <time>2016-04-17T13:31:01.928Z</time>
      </trkpt>
      <trkpt lat="43.40699" lon="3.70387">
        <ele>51</ele>
        <time>2016-04-17T13:31:02.959Z</time>
      </trkpt>
      <trkpt lat="43.40704" lon="3.70391">
        <ele>51</ele>
        <time>2016-04-17T13:31:03.929Z</time>
      </trkpt>
      <trkpt lat="43.4071" lon="3.70392">
        <ele>52</ele>
        <time>2016-04-17T13:31:04.958Z</time>
      </trkpt>
      <trkpt lat="43.40715" lon="3.70395">
        <ele>53</ele>
        <time>2016-04-17T13:31:05.931Z</time>
      </trkpt>
      <trkpt lat="43.40722" lon="3.70399">
        <ele>50</ele>
        <time>2016-04-17T13:31:06.962Z</time>
      </trkpt>
      <trkpt lat="43.40726" lon="3.70402">
        <ele>50</ele>
        <time>2016-04-17T13:31:07.936Z</time>
      </trkpt>
      <trkpt lat="43.40734" lon="3.70405">
        <ele>46</ele>
        <time>2016-04-17T13:31:09.963Z</time>
      </trkpt>
      <trkpt lat="43.40737" lon="3.70406">
        <ele>46</ele>
        <time>2016-04-17T13:31:10.953Z</time>
      </trkpt>
      <trkpt lat="43.40737" lon="3.70406">
        <ele>46</ele>
        <time>2016-04-17T13:31:10.984Z</time>
      </trkpt>
      <trkpt lat="43.40747" lon="3.70406">
        <ele>44</ele>
        <time>2016-04-17T13:31:11.934Z</time>
      </trkpt>
      <trkpt lat="43.4075" lon="3.70409">
        <ele>43</ele>
        <time>2016-04-17T13:31:12.965Z</time>
      </trkpt>
      <trkpt lat="43.40755" lon="3.70411">
        <ele>41</ele>
        <time>2016-04-17T13:31:13.939Z</time>
      </trkpt>
      <trkpt lat="43.40763" lon="3.70415">
        <ele>43</ele>
        <time>2016-04-17T13:31:15.966Z</time>
      </trkpt>
      <trkpt lat="43.40768" lon="3.70418">
        <ele>40</ele>
        <time>2016-04-17T13:31:16.934Z</time>
      </trkpt>
      <trkpt lat="43.40773" lon="3.70421">
        <ele>41</ele>
        <time>2016-04-17T13:31:17.965Z</time>
      </trkpt>
      <trkpt lat="43.40778" lon="3.70424">
        <ele>41</ele>
        <time>2016-04-17T13:31:18.934Z</time>
      </trkpt>
      <trkpt lat="43.40782" lon="3.70427">
        <ele>41</ele>
        <time>2016-04-17T13:31:19.964Z</time>
      </trkpt>
      <trkpt lat="43.40788" lon="3.70431">
        <ele>42</ele>
        <time>2016-04-17T13:31:20.934Z</time>
      </trkpt>
      <trkpt lat="43.40793" lon="3.70434">
        <ele>42</ele>
        <time>2016-04-17T13:31:21.953Z</time>
      </trkpt>
      <trkpt lat="43.40797" lon="3.70435">
        <ele>44</ele>
        <time>2016-04-17T13:31:22.934Z</time>
      </trkpt>
      <trkpt lat="43.40804" lon="3.70437">
        <ele>44</ele>
        <time>2016-04-17T13:31:23.970Z</time>
      </trkpt>
      <trkpt lat="43.40809" lon="3.7044">
        <ele>46</ele>
        <time>2016-04-17T13:31:24.933Z</time>
      </trkpt>
      <trkpt lat="43.40814" lon="3.70444">
        <ele>47</ele>
        <time>2016-04-17T13:31:25.961Z</time>
      </trkpt>
      <trkpt lat="43.40819" lon="3.70447">
        <ele>48</ele>
        <time>2016-04-17T13:31:26.934Z</time>
      </trkpt>
      <trkpt lat="43.40823" lon="3.70449">
        <ele>47</ele>
        <time>2016-04-17T13:31:27.962Z</time>
      </trkpt>
      <trkpt lat="43.40827" lon="3.70452">
        <ele>48</ele>
        <time>2016-04-17T13:31:28.933Z</time>
      </trkpt>
      <trkpt lat="43.40832" lon="3.70455">
        <ele>48</ele>
        <time>2016-04-17T13:31:29.960Z</time>
      </trkpt>
      <trkpt lat="43.40837" lon="3.70461">
        <ele>49</ele>
        <time>2016-04-17T13:31:30.932Z</time>
      </trkpt>
      <trkpt lat="43.40845" lon="3.70465">
        <ele>47</ele>
        <time>2016-04-17T13:31:32.962Z</time>
      </trkpt>
      <trkpt lat="43.4085" lon="3.70468">
        <ele>48</ele>
        <time>2016-04-17T13:31:33.934Z</time>
      </trkpt>
      <trkpt lat="43.40857" lon="3.70473">
        <ele>49</ele>
        <time>2016-04-17T13:31:35.962Z</time>
      </trkpt>
      <trkpt lat="43.40861" lon="3.70476">
        <ele>49</ele>
        <time>2016-04-17T13:31:36.932Z</time>
      </trkpt>
      <trkpt lat="43.40865" lon="3.70479">
        <ele>50</ele>
        <time>2016-04-17T13:31:37.959Z</time>
      </trkpt>
      <trkpt lat="43.4087" lon="3.70481">
        <ele>49</ele>
        <time>2016-04-17T13:31:38.936Z</time>
      </trkpt>
      <trkpt lat="43.40875" lon="3.70485">
        <ele>47</ele>
        <time>2016-04-17T13:31:39.961Z</time>
      </trkpt>
      <trkpt lat="43.4088" lon="3.70488">
        <ele>47</ele>
        <time>2016-04-17T13:31:40.949Z</time>
      </trkpt>
      <trkpt lat="43.40888" lon="3.70494">
        <ele>48</ele>
        <time>2016-04-17T13:31:42.964Z</time>
      </trkpt>
      <trkpt lat="43.40889" lon="3.70497">
        <ele>49</ele>
        <time>2016-04-17T13:31:43.933Z</time>
      </trkpt>
      <trkpt lat="43.40895" lon="3.70502">
        <ele>49</ele>
        <time>2016-04-17T13:31:45.961Z</time>
      </trkpt>
      <trkpt lat="43.40899" lon="3.70508">
        <ele>49</ele>
        <time>2016-04-17T13:31:46.933Z</time>
      </trkpt>
      <trkpt lat="43.40905" lon="3.70515">
        <ele>50</ele>
        <time>2016-04-17T13:31:48.962Z</time>
      </trkpt>
      <trkpt lat="43.40908" lon="3.70518">
        <ele>50</ele>
        <time>2016-04-17T13:31:49.938Z</time>
      </trkpt>
      <trkpt lat="43.40912" lon="3.70522">
        <ele>51</ele>
        <time>2016-04-17T13:31:50.962Z</time>
      </trkpt>
      <trkpt lat="43.40914" lon="3.70528">
        <ele>51</ele>
        <time>2016-04-17T13:31:51.935Z</time>
      </trkpt>
      <trkpt lat="43.40918" lon="3.70531">
        <ele>51</ele>
        <time>2016-04-17T13:31:52.964Z</time>
      </trkpt>
      <trkpt lat="43.40922" lon="3.70539">
        <ele>50</ele>
        <time>2016-04-17T13:31:53.934Z</time>
      </trkpt>
      <trkpt lat="43.40929" lon="3.70545">
        <ele>52</ele>
        <time>2016-04-17T13:31:55.960Z</time>
      </trkpt>
      <trkpt lat="43.40933" lon="3.70549">
        <ele>53</ele>
        <time>2016-04-17T13:31:56.937Z</time>
      </trkpt>
      <trkpt lat="43.40936" lon="3.70553">
        <ele>53</ele>
        <time>2016-04-17T13:31:57.962Z</time>
      </trkpt>
      <trkpt lat="43.40938" lon="3.70559">
        <ele>53</ele>
        <time>2016-04-17T13:31:58.934Z</time>
      </trkpt>
      <trkpt lat="43.40942" lon="3.70565">
        <ele>54</ele>
        <time>2016-04-17T13:31:59.969Z</time>
      </trkpt>
      <trkpt lat="43.40944" lon="3.7057">
        <ele>53</ele>
        <time>2016-04-17T13:32:00.938Z</time>
      </trkpt>
      <trkpt lat="43.40948" lon="3.70576">
        <ele>52</ele>
        <time>2016-04-17T13:32:01.968Z</time>
      </trkpt>
      <trkpt lat="43.40951" lon="3.70583">
        <ele>53</ele>
        <time>2016-04-17T13:32:02.935Z</time>
      </trkpt>
      <trkpt lat="43.40953" lon="3.70589">
        <ele>54</ele>
        <time>2016-04-17T13:32:03.967Z</time>
      </trkpt>
      <trkpt lat="43.40955" lon="3.70594">
        <ele>54</ele>
        <time>2016-04-17T13:32:04.934Z</time>
      </trkpt>
      <trkpt lat="43.40958" lon="3.70599">
        <ele>54</ele>
        <time>2016-04-17T13:32:05.963Z</time>
      </trkpt>
      <trkpt lat="43.4096" lon="3.70605">
        <ele>54</ele>
        <time>2016-04-17T13:32:06.934Z</time>
      </trkpt>
      <trkpt lat="43.40962" lon="3.70615">
        <ele>53</ele>
        <time>2016-04-17T13:32:07.962Z</time>
      </trkpt>
      <trkpt lat="43.40965" lon="3.7062">
        <ele>53</ele>
        <time>2016-04-17T13:32:08.960Z</time>
      </trkpt>
      <trkpt lat="43.4097" lon="3.70627">
        <ele>54</ele>
        <time>2016-04-17T13:32:10.963Z</time>
      </trkpt>
      <trkpt lat="43.40972" lon="3.70633">
        <ele>53</ele>
        <time>2016-04-17T13:32:11.935Z</time>
      </trkpt>
      <trkpt lat="43.40974" lon="3.70638">
        <ele>52</ele>
        <time>2016-04-17T13:32:12.964Z</time>
      </trkpt>
      <trkpt lat="43.40977" lon="3.70645">
        <ele>52</ele>
        <time>2016-04-17T13:32:13.936Z</time>
      </trkpt>
      <trkpt lat="43.40979" lon="3.70652">
        <ele>52</ele>
        <time>2016-04-17T13:32:14.963Z</time>
      </trkpt>
      <trkpt lat="43.40981" lon="3.70656">
        <ele>52</ele>
        <time>2016-04-17T13:32:15.935Z</time>
      </trkpt>
      <trkpt lat="43.40984" lon="3.70664">
        <ele>52</ele>
        <time>2016-04-17T13:32:16.962Z</time>
      </trkpt>
      <trkpt lat="43.40988" lon="3.7067">
        <ele>51</ele>
        <time>2016-04-17T13:32:17.935Z</time>
      </trkpt>
      <trkpt lat="43.4099" lon="3.70677">
        <ele>51</ele>
        <time>2016-04-17T13:32:18.962Z</time>
      </trkpt>
      <trkpt lat="43.40993" lon="3.70683">
        <ele>50</ele>
        <time>2016-04-17T13:32:19.934Z</time>
      </trkpt>
      <trkpt lat="43.40996" lon="3.7069">
        <ele>50</ele>
        <time>2016-04-17T13:32:20.966Z</time>
      </trkpt>
      <trkpt lat="43.40999" lon="3.70694">
        <ele>50</ele>
        <time>2016-04-17T13:32:21.933Z</time>
      </trkpt>
      <trkpt lat="43.41001" lon="3.70699">
        <ele>50</ele>
        <time>2016-04-17T13:32:22.963Z</time>
      </trkpt>
      <trkpt lat="43.41004" lon="3.70705">
        <ele>50</ele>
        <time>2016-04-17T13:32:23.933Z</time>
      </trkpt>
      <trkpt lat="43.41008" lon="3.70711">
        <ele>50</ele>
        <time>2016-04-17T13:32:24.987Z</time>
      </trkpt>
      <trkpt lat="43.41011" lon="3.70718">
        <ele>48</ele>
        <time>2016-04-17T13:32:25.935Z</time>
      </trkpt>
      <trkpt lat="43.41014" lon="3.70725">
        <ele>48</ele>
        <time>2016-04-17T13:32:26.963Z</time>
      </trkpt>
      <trkpt lat="43.41016" lon="3.70733">
        <ele>48</ele>
        <time>2016-04-17T13:32:27.934Z</time>
      </trkpt>
      <trkpt lat="43.41019" lon="3.70739">
        <ele>49</ele>
        <time>2016-04-17T13:32:28.962Z</time>
      </trkpt>
      <trkpt lat="43.41021" lon="3.70744">
        <ele>49</ele>
        <time>2016-04-17T13:32:30.090Z</time>
      </trkpt>
      <trkpt lat="43.41023" lon="3.70749">
        <ele>49</ele>
        <time>2016-04-17T13:32:30.966Z</time>
      </trkpt>
      <trkpt lat="43.41026" lon="3.70755">
        <ele>48</ele>
        <time>2016-04-17T13:32:31.939Z</time>
      </trkpt>
      <trkpt lat="43.41028" lon="3.7076">
        <ele>49</ele>
        <time>2016-04-17T13:32:32.963Z</time>
      </trkpt>
      <trkpt lat="43.41031" lon="3.70766">
        <ele>49</ele>
        <time>2016-04-17T13:32:33.933Z</time>
      </trkpt>
      <trkpt lat="43.41033" lon="3.70772">
        <ele>49</ele>
        <time>2016-04-17T13:32:34.963Z</time>
      </trkpt>
      <trkpt lat="43.41037" lon="3.70779">
        <ele>49</ele>
        <time>2016-04-17T13:32:35.935Z</time>
      </trkpt>
      <trkpt lat="43.4104" lon="3.70785">
        <ele>48</ele>
        <time>2016-04-17T13:32:36.964Z</time>
      </trkpt>
      <trkpt lat="43.41044" lon="3.70792">
        <ele>48</ele>
        <time>2016-04-17T13:32:37.935Z</time>
      </trkpt>
      <trkpt lat="43.41046" lon="3.70798">
        <ele>48</ele>
        <time>2016-04-17T13:32:38.961Z</time>
      </trkpt>
      <trkpt lat="43.41049" lon="3.70806">
        <ele>47</ele>
        <time>2016-04-17T13:32:39.933Z</time>
      </trkpt>
      <trkpt lat="43.41053" lon="3.70811">
        <ele>47</ele>
        <time>2016-04-17T13:32:40.994Z</time>
      </trkpt>
      <trkpt lat="43.41056" lon="3.70817">
        <ele>47</ele>
        <time>2016-04-17T13:32:41.933Z</time>
      </trkpt>
      <trkpt lat="43.41059" lon="3.70823">
        <ele>46</ele>
        <time>2016-04-17T13:32:42.963Z</time>
      </trkpt>
      <trkpt lat="43.41062" lon="3.7083">
        <ele>47</ele>
        <time>2016-04-17T13:32:43.936Z</time>
      </trkpt>
      <trkpt lat="43.41065" lon="3.70837">
        <ele>48</ele>
        <time>2016-04-17T13:32:44.962Z</time>
      </trkpt>
      <trkpt lat="43.41067" lon="3.70842">
        <ele>48</ele>
        <time>2016-04-17T13:32:45.938Z</time>
      </trkpt>
      <trkpt lat="43.41069" lon="3.70847">
        <ele>48</ele>
        <time>2016-04-17T13:32:46.970Z</time>
      </trkpt>
      <trkpt lat="43.4107" lon="3.70854">
        <ele>47</ele>
        <time>2016-04-17T13:32:47.935Z</time>
      </trkpt>
      <trkpt lat="43.41073" lon="3.7086">
        <ele>47</ele>
        <time>2016-04-17T13:32:48.963Z</time>
      </trkpt>
      <trkpt lat="43.41076" lon="3.70866">
        <ele>47</ele>
        <time>2016-04-17T13:32:49.934Z</time>
      </trkpt>
      <trkpt lat="43.4108" lon="3.70872">
        <ele>46</ele>
        <time>2016-04-17T13:32:50.962Z</time>
      </trkpt>
      <trkpt lat="43.41081" lon="3.70881">
        <ele>47</ele>
        <time>2016-04-17T13:32:51.935Z</time>
      </trkpt>
      <trkpt lat="43.41085" lon="3.70887">
        <ele>48</ele>
        <time>2016-04-17T13:32:53.085Z</time>
      </trkpt>
      <trkpt lat="43.41087" lon="3.70894">
        <ele>47</ele>
        <time>2016-04-17T13:32:53.934Z</time>
      </trkpt>
      <trkpt lat="43.41089" lon="3.70899">
        <ele>46</ele>
        <time>2016-04-17T13:32:54.963Z</time>
      </trkpt>
      <trkpt lat="43.41092" lon="3.70905">
        <ele>46</ele>
        <time>2016-04-17T13:32:55.935Z</time>
      </trkpt>
      <trkpt lat="43.41095" lon="3.70911">
        <ele>46</ele>
        <time>2016-04-17T13:32:56.998Z</time>
      </trkpt>
      <trkpt lat="43.41098" lon="3.70915">
        <ele>46</ele>
        <time>2016-04-17T13:32:57.934Z</time>
      </trkpt>
      <trkpt lat="43.41101" lon="3.70921">
        <ele>48</ele>
        <time>2016-04-17T13:32:58.969Z</time>
      </trkpt>
      <trkpt lat="43.41104" lon="3.70928">
        <ele>48</ele>
        <time>2016-04-17T13:32:59.935Z</time>
      </trkpt>
      <trkpt lat="43.41107" lon="3.70935">
        <ele>49</ele>
        <time>2016-04-17T13:33:00.966Z</time>
      </trkpt>
      <trkpt lat="43.4111" lon="3.70941">
        <ele>49</ele>
        <time>2016-04-17T13:33:01.935Z</time>
      </trkpt>
      <trkpt lat="43.41113" lon="3.70948">
        <ele>49</ele>
        <time>2016-04-17T13:33:02.962Z</time>
      </trkpt>
      <trkpt lat="43.41115" lon="3.70953">
        <ele>49</ele>
        <time>2016-04-17T13:33:03.935Z</time>
      </trkpt>
      <trkpt lat="43.41118" lon="3.70958">
        <ele>49</ele>
        <time>2016-04-17T13:33:04.963Z</time>
      </trkpt>
      <trkpt lat="43.41121" lon="3.70966">
        <ele>48</ele>
        <time>2016-04-17T13:33:05.935Z</time>
      </trkpt>
      <trkpt lat="43.41125" lon="3.70973">
        <ele>48</ele>
        <time>2016-04-17T13:33:06.964Z</time>
      </trkpt>
      <trkpt lat="43.41128" lon="3.70979">
        <ele>47</ele>
        <time>2016-04-17T13:33:07.935Z</time>
      </trkpt>
      <trkpt lat="43.41132" lon="3.70985">
        <ele>47</ele>
        <time>2016-04-17T13:33:08.964Z</time>
      </trkpt>
      <trkpt lat="43.41136" lon="3.7099">
        <ele>47</ele>
        <time>2016-04-17T13:33:09.936Z</time>
      </trkpt>
      <trkpt lat="43.41139" lon="3.70994">
        <ele>47</ele>
        <time>2016-04-17T13:33:10.963Z</time>
      </trkpt>
      <trkpt lat="43.41142" lon="3.71001">
        <ele>46</ele>
        <time>2016-04-17T13:33:11.935Z</time>
      </trkpt>
      <trkpt lat="43.41146" lon="3.71006">
        <ele>47</ele>
        <time>2016-04-17T13:33:12.991Z</time>
      </trkpt>
      <trkpt lat="43.41149" lon="3.71012">
        <ele>47</ele>
        <time>2016-04-17T13:33:13.934Z</time>
      </trkpt>
      <trkpt lat="43.41151" lon="3.71019">
        <ele>47</ele>
        <time>2016-04-17T13:33:14.963Z</time>
      </trkpt>
      <trkpt lat="43.41155" lon="3.71027">
        <ele>48</ele>
        <time>2016-04-17T13:33:15.934Z</time>
      </trkpt>
      <trkpt lat="43.41157" lon="3.71033">
        <ele>47</ele>
        <time>2016-04-17T13:33:16.962Z</time>
      </trkpt>
      <trkpt lat="43.41159" lon="3.71039">
        <ele>46</ele>
        <time>2016-04-17T13:33:17.934Z</time>
      </trkpt>
      <trkpt lat="43.41162" lon="3.71044">
        <ele>46</ele>
        <time>2016-04-17T13:33:18.962Z</time>
      </trkpt>
      <trkpt lat="43.41164" lon="3.7105">
        <ele>45</ele>
        <time>2016-04-17T13:33:19.936Z</time>
      </trkpt>
      <trkpt lat="43.41167" lon="3.71054">
        <ele>46</ele>
        <time>2016-04-17T13:33:20.963Z</time>
      </trkpt>
      <trkpt lat="43.4117" lon="3.71061">
        <ele>46</ele>
        <time>2016-04-17T13:33:21.935Z</time>
      </trkpt>
      <trkpt lat="43.41173" lon="3.71068">
        <ele>45</ele>
        <time>2016-04-17T13:33:22.963Z</time>
      </trkpt>
      <trkpt lat="43.41175" lon="3.71075">
        <ele>45</ele>
        <time>2016-04-17T13:33:23.937Z</time>
      </trkpt>
      <trkpt lat="43.41178" lon="3.71081">
        <ele>47</ele>
        <time>2016-04-17T13:33:24.956Z</time>
      </trkpt>
      <trkpt lat="43.4118" lon="3.7109">
        <ele>46</ele>
        <time>2016-04-17T13:33:25.941Z</time>
      </trkpt>
      <trkpt lat="43.41183" lon="3.71096">
        <ele>47</ele>
        <time>2016-04-17T13:33:27.086Z</time>
      </trkpt>
      <trkpt lat="43.41185" lon="3.71103">
        <ele>48</ele>
        <time>2016-04-17T13:33:27.935Z</time>
      </trkpt>
      <trkpt lat="43.41187" lon="3.71109">
        <ele>48</ele>
        <time>2016-04-17T13:33:28.986Z</time>
      </trkpt>
      <trkpt lat="43.4119" lon="3.71114">
        <ele>48</ele>
        <time>2016-04-17T13:33:29.935Z</time>
      </trkpt>
      <trkpt lat="43.41193" lon="3.7112">
        <ele>48</ele>
        <time>2016-04-17T13:33:30.961Z</time>
      </trkpt>
      <trkpt lat="43.41196" lon="3.71125">
        <ele>48</ele>
        <time>2016-04-17T13:33:31.936Z</time>
      </trkpt>
      <trkpt lat="43.41198" lon="3.71131">
        <ele>48</ele>
        <time>2016-04-17T13:33:32.964Z</time>
      </trkpt>
      <trkpt lat="43.41201" lon="3.71138">
        <ele>49</ele>
        <time>2016-04-17T13:33:33.934Z</time>
      </trkpt>
      <trkpt lat="43.41204" lon="3.71143">
        <ele>49</ele>
        <time>2016-04-17T13:33:34.963Z</time>
      </trkpt>
      <trkpt lat="43.41206" lon="3.7115">
        <ele>50</ele>
        <time>2016-04-17T13:33:35.936Z</time>
      </trkpt>
      <trkpt lat="43.41209" lon="3.71156">
        <ele>51</ele>
        <time>2016-04-17T13:33:36.962Z</time>
      </trkpt>
      <trkpt lat="43.4121" lon="3.71162">
        <ele>51</ele>
        <time>2016-04-17T13:33:37.935Z</time>
      </trkpt>
      <trkpt lat="43.41212" lon="3.71169">
        <ele>51</ele>
        <time>2016-04-17T13:33:38.962Z</time>
      </trkpt>
      <trkpt lat="43.41214" lon="3.71175">
        <ele>50</ele>
        <time>2016-04-17T13:33:39.934Z</time>
      </trkpt>
      <trkpt lat="43.41216" lon="3.71186">
        <ele>50</ele>
        <time>2016-04-17T13:33:41.962Z</time>
      </trkpt>
      <trkpt lat="43.41219" lon="3.71192">
        <ele>51</ele>
        <time>2016-04-17T13:33:42.935Z</time>
      </trkpt>
      <trkpt lat="43.41224" lon="3.71202">
        <ele>51</ele>
        <time>2016-04-17T13:33:44.987Z</time>
      </trkpt>
      <trkpt lat="43.41228" lon="3.71206">
        <ele>51</ele>
        <time>2016-04-17T13:33:45.936Z</time>
      </trkpt>
      <trkpt lat="43.41234" lon="3.7121">
        <ele>51</ele>
        <time>2016-04-17T13:33:47.958Z</time>
      </trkpt>
      <trkpt lat="43.41238" lon="3.71219">
        <ele>49</ele>
        <time>2016-04-17T13:33:48.934Z</time>
      </trkpt>
      <trkpt lat="43.41241" lon="3.71224">
        <ele>49</ele>
        <time>2016-04-17T13:33:49.962Z</time>
      </trkpt>
      <trkpt lat="43.41244" lon="3.7123">
        <ele>49</ele>
        <time>2016-04-17T13:33:50.936Z</time>
      </trkpt>
      <trkpt lat="43.41248" lon="3.71236">
        <ele>50</ele>
        <time>2016-04-17T13:33:51.961Z</time>
      </trkpt>
      <trkpt lat="43.41251" lon="3.71241">
        <ele>51</ele>
        <time>2016-04-17T13:33:52.935Z</time>
      </trkpt>
      <trkpt lat="43.41254" lon="3.71248">
        <ele>52</ele>
        <time>2016-04-17T13:33:53.963Z</time>
      </trkpt>
      <trkpt lat="43.41256" lon="3.71253">
        <ele>51</ele>
        <time>2016-04-17T13:33:54.936Z</time>
      </trkpt>
      <trkpt lat="43.41259" lon="3.71258">
        <ele>51</ele>
        <time>2016-04-17T13:33:55.962Z</time>
      </trkpt>
      <trkpt lat="43.41261" lon="3.71264">
        <ele>50</ele>
        <time>2016-04-17T13:33:56.934Z</time>
      </trkpt>
      <trkpt lat="43.41264" lon="3.7127">
        <ele>50</ele>
        <time>2016-04-17T13:33:57.968Z</time>
      </trkpt>
      <trkpt lat="43.41267" lon="3.71277">
        <ele>50</ele>
        <time>2016-04-17T13:33:58.936Z</time>
      </trkpt>
      <trkpt lat="43.41269" lon="3.71284">
        <ele>50</ele>
        <time>2016-04-17T13:33:59.969Z</time>
      </trkpt>
      <trkpt lat="43.41271" lon="3.71291">
        <ele>49</ele>
        <time>2016-04-17T13:34:00.932Z</time>
      </trkpt>
      <trkpt lat="43.41274" lon="3.71297">
        <ele>49</ele>
        <time>2016-04-17T13:34:01.953Z</time>
      </trkpt>
      <trkpt lat="43.41277" lon="3.71303">
        <ele>49</ele>
        <time>2016-04-17T13:34:02.935Z</time>
      </trkpt>
      <trkpt lat="43.4128" lon="3.71308">
        <ele>50</ele>
        <time>2016-04-17T13:34:03.963Z</time>
      </trkpt>
      <trkpt lat="43.41283" lon="3.71314">
        <ele>50</ele>
        <time>2016-04-17T13:34:04.935Z</time>
      </trkpt>
      <trkpt lat="43.41286" lon="3.71322">
        <ele>50</ele>
        <time>2016-04-17T13:34:05.963Z</time>
      </trkpt>
      <trkpt lat="43.41289" lon="3.71329">
        <ele>50</ele>
        <time>2016-04-17T13:34:06.932Z</time>
      </trkpt>
      <trkpt lat="43.41291" lon="3.71336">
        <ele>49</ele>
        <time>2016-04-17T13:34:07.966Z</time>
      </trkpt>
      <trkpt lat="43.41295" lon="3.71343">
        <ele>49</ele>
        <time>2016-04-17T13:34:08.935Z</time>
      </trkpt>
      <trkpt lat="43.41297" lon="3.71349">
        <ele>49</ele>
        <time>2016-04-17T13:34:09.962Z</time>
      </trkpt>
      <trkpt lat="43.413" lon="3.71356">
        <ele>49</ele>
        <time>2016-04-17T13:34:10.960Z</time>
      </trkpt>
      <trkpt lat="43.41305" lon="3.71365">
        <ele>50</ele>
        <time>2016-04-17T13:34:13.092Z</time>
      </trkpt>
      <trkpt lat="43.41309" lon="3.71371">
        <ele>51</ele>
        <time>2016-04-17T13:34:13.935Z</time>
      </trkpt>
      <trkpt lat="43.41303" lon="3.71366">
        <ele>51</ele>
        <time>2016-04-17T13:34:29.963Z</time>
      </trkpt>
      <trkpt lat="43.41303" lon="3.71365">
        <ele>51</ele>
        <time>2016-04-17T13:34:30.934Z</time>
      </trkpt>
      <trkpt lat="43.41303" lon="3.71365">
        <ele>50</ele>
        <time>2016-04-17T13:34:31.963Z</time>
      </trkpt>
      <trkpt lat="43.41303" lon="3.71365">
        <ele>51</ele>
        <time>2016-04-17T13:34:32.946Z</time>
      </trkpt>
      <trkpt lat="43.41307" lon="3.71373">
        <ele>50</ele>
        <time>2016-04-17T13:34:38.963Z</time>
      </trkpt>
      <trkpt lat="43.41309" lon="3.71376">
        <ele>52</ele>
        <time>2016-04-17T13:34:39.935Z</time>
      </trkpt>
      <trkpt lat="43.41312" lon="3.71383">
        <ele>53</ele>
        <time>2016-04-17T13:34:41.969Z</time>
      </trkpt>
      <trkpt lat="43.41314" lon="3.71387">
        <ele>52</ele>
        <time>2016-04-17T13:34:42.959Z</time>
      </trkpt>
      <trkpt lat="43.41319" lon="3.71396">
        <ele>51</ele>
        <time>2016-04-17T13:34:44.963Z</time>
      </trkpt>
      <trkpt lat="43.41322" lon="3.71398">
        <ele>51</ele>
        <time>2016-04-17T13:34:45.934Z</time>
      </trkpt>
      <trkpt lat="43.41325" lon="3.71407">
        <ele>50</ele>
        <time>2016-04-17T13:34:47.963Z</time>
      </trkpt>
      <trkpt lat="43.41327" lon="3.71411">
        <ele>50</ele>
        <time>2016-04-17T13:34:48.935Z</time>
      </trkpt>
      <trkpt lat="43.41329" lon="3.71415">
        <ele>50</ele>
        <time>2016-04-17T13:34:50.018Z</time>
      </trkpt>
      <trkpt lat="43.41331" lon="3.71422">
        <ele>49</ele>
        <time>2016-04-17T13:34:50.935Z</time>
      </trkpt>
      <trkpt lat="43.41334" lon="3.71428">
        <ele>49</ele>
        <time>2016-04-17T13:34:51.958Z</time>
      </trkpt>
      <trkpt lat="43.41336" lon="3.71433">
        <ele>49</ele>
        <time>2016-04-17T13:34:52.935Z</time>
      </trkpt>
      <trkpt lat="43.41341" lon="3.71442">
        <ele>50</ele>
        <time>2016-04-17T13:34:54.963Z</time>
      </trkpt>
      <trkpt lat="43.41343" lon="3.71447">
        <ele>50</ele>
        <time>2016-04-17T13:34:55.936Z</time>
      </trkpt>
      <trkpt lat="43.41348" lon="3.71456">
        <ele>50</ele>
        <time>2016-04-17T13:34:57.969Z</time>
      </trkpt>
      <trkpt lat="43.41351" lon="3.71461">
        <ele>49</ele>
        <time>2016-04-17T13:34:58.935Z</time>
      </trkpt>
      <trkpt lat="43.41356" lon="3.71471">
        <ele>49</ele>
        <time>2016-04-17T13:35:00.964Z</time>
      </trkpt>
      <trkpt lat="43.41358" lon="3.71476">
        <ele>50</ele>
        <time>2016-04-17T13:35:01.937Z</time>
      </trkpt>
      <trkpt lat="43.41361" lon="3.7148">
        <ele>50</ele>
        <time>2016-04-17T13:35:02.966Z</time>
      </trkpt>
      <trkpt lat="43.41364" lon="3.7149">
        <ele>48</ele>
        <time>2016-04-17T13:35:03.936Z</time>
      </trkpt>
      <trkpt lat="43.41368" lon="3.71495">
        <ele>46</ele>
        <time>2016-04-17T13:35:05.029Z</time>
      </trkpt>
      <trkpt lat="43.41371" lon="3.71499">
        <ele>47</ele>
        <time>2016-04-17T13:35:05.936Z</time>
      </trkpt>
      <trkpt lat="43.41374" lon="3.71505">
        <ele>46</ele>
        <time>2016-04-17T13:35:06.970Z</time>
      </trkpt>
      <trkpt lat="43.41377" lon="3.71509">
        <ele>46</ele>
        <time>2016-04-17T13:35:07.935Z</time>
      </trkpt>
      <trkpt lat="43.41383" lon="3.71517">
        <ele>47</ele>
        <time>2016-04-17T13:35:09.972Z</time>
      </trkpt>
      <trkpt lat="43.41384" lon="3.71522">
        <ele>46</ele>
        <time>2016-04-17T13:35:10.939Z</time>
      </trkpt>
      <trkpt lat="43.41387" lon="3.71527">
        <ele>46</ele>
        <time>2016-04-17T13:35:11.970Z</time>
      </trkpt>
      <trkpt lat="43.41389" lon="3.71533">
        <ele>46</ele>
        <time>2016-04-17T13:35:12.934Z</time>
      </trkpt>
      <trkpt lat="43.41392" lon="3.71539">
        <ele>47</ele>
        <time>2016-04-17T13:35:13.971Z</time>
      </trkpt>
      <trkpt lat="43.41394" lon="3.71545">
        <ele>47</ele>
        <time>2016-04-17T13:35:14.936Z</time>
      </trkpt>
      <trkpt lat="43.41398" lon="3.71554">
        <ele>48</ele>
        <time>2016-04-17T13:35:16.986Z</time>
      </trkpt>
      <trkpt lat="43.414" lon="3.7156">
        <ele>48</ele>
        <time>2016-04-17T13:35:17.947Z</time>
      </trkpt>
      <trkpt lat="43.41403" lon="3.71566">
        <ele>48</ele>
        <time>2016-04-17T13:35:18.970Z</time>
      </trkpt>
      <trkpt lat="43.41406" lon="3.71572">
        <ele>47</ele>
        <time>2016-04-17T13:35:19.937Z</time>
      </trkpt>
      <trkpt lat="43.41406" lon="3.71572">
        <ele>47</ele>
        <time>2016-04-17T13:35:19.996Z</time>
      </trkpt>
      <trkpt lat="43.41409" lon="3.71583">
        <ele>45</ele>
        <time>2016-04-17T13:35:20.937Z</time>
      </trkpt>
      <trkpt lat="43.41414" lon="3.71592">
        <ele>45</ele>
        <time>2016-04-17T13:35:22.970Z</time>
      </trkpt>
      <trkpt lat="43.41417" lon="3.71598">
        <ele>45</ele>
        <time>2016-04-17T13:35:23.936Z</time>
      </trkpt>
      <trkpt lat="43.41419" lon="3.71604">
        <ele>46</ele>
        <time>2016-04-17T13:35:24.993Z</time>
      </trkpt>
      <trkpt lat="43.41422" lon="3.71611">
        <ele>47</ele>
        <time>2016-04-17T13:35:25.933Z</time>
      </trkpt>
      <trkpt lat="43.41425" lon="3.71618">
        <ele>47</ele>
        <time>2016-04-17T13:35:26.971Z</time>
      </trkpt>
      <trkpt lat="43.41428" lon="3.71624">
        <ele>47</ele>
        <time>2016-04-17T13:35:27.935Z</time>
      </trkpt>
      <trkpt lat="43.4143" lon="3.71632">
        <ele>48</ele>
        <time>2016-04-17T13:35:28.961Z</time>
      </trkpt>
      <trkpt lat="43.41432" lon="3.71638">
        <ele>49</ele>
        <time>2016-04-17T13:35:29.945Z</time>
      </trkpt>
      <trkpt lat="43.41434" lon="3.71645">
        <ele>49</ele>
        <time>2016-04-17T13:35:30.973Z</time>
      </trkpt>
      <trkpt lat="43.41437" lon="3.7165">
        <ele>49</ele>
        <time>2016-04-17T13:35:31.936Z</time>
      </trkpt>
      <trkpt lat="43.4144" lon="3.71656">
        <ele>49</ele>
        <time>2016-04-17T13:35:32.975Z</time>
      </trkpt>
      <trkpt lat="43.41441" lon="3.71662">
        <ele>49</ele>
        <time>2016-04-17T13:35:33.937Z</time>
      </trkpt>
      <trkpt lat="43.41444" lon="3.71668">
        <ele>50</ele>
        <time>2016-04-17T13:35:34.968Z</time>
      </trkpt>
      <trkpt lat="43.41445" lon="3.71674">
        <ele>50</ele>
        <time>2016-04-17T13:35:35.933Z</time>
      </trkpt>
      <trkpt lat="43.41446" lon="3.7168">
        <ele>50</ele>
        <time>2016-04-17T13:35:36.969Z</time>
      </trkpt>
      <trkpt lat="43.41446" lon="3.71686">
        <ele>50</ele>
        <time>2016-04-17T13:35:37.936Z</time>
      </trkpt>
      <trkpt lat="43.41447" lon="3.71694">
        <ele>50</ele>
        <time>2016-04-17T13:35:38.967Z</time>
      </trkpt>
      <trkpt lat="43.41447" lon="3.717">
        <ele>50</ele>
        <time>2016-04-17T13:35:39.936Z</time>
      </trkpt>
      <trkpt lat="43.41449" lon="3.71706">
        <ele>49</ele>
        <time>2016-04-17T13:35:40.995Z</time>
      </trkpt>
      <trkpt lat="43.41452" lon="3.71712">
        <ele>50</ele>
        <time>2016-04-17T13:35:41.938Z</time>
      </trkpt>
      <trkpt lat="43.41457" lon="3.71718">
        <ele>49</ele>
        <time>2016-04-17T13:35:43.965Z</time>
      </trkpt>
      <trkpt lat="43.41461" lon="3.71721">
        <ele>50</ele>
        <time>2016-04-17T13:35:44.933Z</time>
      </trkpt>
      <trkpt lat="43.41464" lon="3.71725">
        <ele>50</ele>
        <time>2016-04-17T13:35:45.966Z</time>
      </trkpt>
      <trkpt lat="43.41469" lon="3.71735">
        <ele>47</ele>
        <time>2016-04-17T13:35:46.936Z</time>
      </trkpt>
      <trkpt lat="43.41473" lon="3.71741">
        <ele>47</ele>
        <time>2016-04-17T13:35:47.978Z</time>
      </trkpt>
      <trkpt lat="43.41476" lon="3.71745">
        <ele>47</ele>
        <time>2016-04-17T13:35:48.935Z</time>
      </trkpt>
      <trkpt lat="43.41479" lon="3.7175">
        <ele>48</ele>
        <time>2016-04-17T13:35:50.021Z</time>
      </trkpt>
      <trkpt lat="43.41484" lon="3.71754">
        <ele>48</ele>
        <time>2016-04-17T13:35:50.934Z</time>
      </trkpt>
      <trkpt lat="43.41487" lon="3.7176">
        <ele>48</ele>
        <time>2016-04-17T13:35:52.032Z</time>
      </trkpt>
      <trkpt lat="43.41491" lon="3.71765">
        <ele>48</ele>
        <time>2016-04-17T13:35:52.935Z</time>
      </trkpt>
      <trkpt lat="43.41495" lon="3.71775">
        <ele>49</ele>
        <time>2016-04-17T13:35:54.966Z</time>
      </trkpt>
      <trkpt lat="43.41496" lon="3.71781">
        <ele>48</ele>
        <time>2016-04-17T13:35:55.936Z</time>
      </trkpt>
      <trkpt lat="43.41502" lon="3.7179">
        <ele>50</ele>
        <time>2016-04-17T13:35:57.972Z</time>
      </trkpt>
      <trkpt lat="43.41504" lon="3.71795">
        <ele>50</ele>
        <time>2016-04-17T13:35:58.937Z</time>
      </trkpt>
      <trkpt lat="43.41509" lon="3.71804">
        <ele>53</ele>
        <time>2016-04-17T13:36:00.968Z</time>
      </trkpt>
      <trkpt lat="43.41511" lon="3.71809">
        <ele>51</ele>
        <time>2016-04-17T13:36:01.961Z</time>
      </trkpt>
      <trkpt lat="43.41515" lon="3.71815">
        <ele>51</ele>
        <time>2016-04-17T13:36:02.966Z</time>
      </trkpt>
      <trkpt lat="43.41517" lon="3.71823">
        <ele>50</ele>
        <time>2016-04-17T13:36:03.936Z</time>
      </trkpt>
      <trkpt lat="43.41519" lon="3.71829">
        <ele>49</ele>
        <time>2016-04-17T13:36:04.969Z</time>
      </trkpt>
      <trkpt lat="43.41522" lon="3.71835">
        <ele>50</ele>
        <time>2016-04-17T13:36:05.935Z</time>
      </trkpt>
      <trkpt lat="43.41525" lon="3.71841">
        <ele>50</ele>
        <time>2016-04-17T13:36:06.963Z</time>
      </trkpt>
      <trkpt lat="43.41528" lon="3.71848">
        <ele>50</ele>
        <time>2016-04-17T13:36:07.935Z</time>
      </trkpt>
      <trkpt lat="43.4153" lon="3.71855">
        <ele>49</ele>
        <time>2016-04-17T13:36:08.970Z</time>
      </trkpt>
      <trkpt lat="43.41533" lon="3.71861">
        <ele>51</ele>
        <time>2016-04-17T13:36:09.936Z</time>
      </trkpt>
      <trkpt lat="43.41536" lon="3.71867">
        <ele>50</ele>
        <time>2016-04-17T13:36:10.969Z</time>
      </trkpt>
      <trkpt lat="43.41539" lon="3.71873">
        <ele>51</ele>
        <time>2016-04-17T13:36:11.934Z</time>
      </trkpt>
      <trkpt lat="43.41541" lon="3.71879">
        <ele>50</ele>
        <time>2016-04-17T13:36:12.965Z</time>
      </trkpt>
      <trkpt lat="43.41544" lon="3.71885">
        <ele>50</ele>
        <time>2016-04-17T13:36:13.935Z</time>
      </trkpt>
      <trkpt lat="43.41547" lon="3.7189">
        <ele>50</ele>
        <time>2016-04-17T13:36:15.055Z</time>
      </trkpt>
      <trkpt lat="43.4155" lon="3.71895">
        <ele>50</ele>
        <time>2016-04-17T13:36:15.935Z</time>
      </trkpt>
      <trkpt lat="43.41552" lon="3.719">
        <ele>50</ele>
        <time>2016-04-17T13:36:16.963Z</time>
      </trkpt>
      <trkpt lat="43.41555" lon="3.71906">
        <ele>50</ele>
        <time>2016-04-17T13:36:17.937Z</time>
      </trkpt>
      <trkpt lat="43.41558" lon="3.71913">
        <ele>49</ele>
        <time>2016-04-17T13:36:18.970Z</time>
      </trkpt>
      <trkpt lat="43.4156" lon="3.71918">
        <ele>48</ele>
        <time>2016-04-17T13:36:19.936Z</time>
      </trkpt>
      <trkpt lat="43.41563" lon="3.71925">
        <ele>47</ele>
        <time>2016-04-17T13:36:20.966Z</time>
      </trkpt>
      <trkpt lat="43.41566" lon="3.7193">
        <ele>47</ele>
        <time>2016-04-17T13:36:21.936Z</time>
      </trkpt>
      <trkpt lat="43.41569" lon="3.71934">
        <ele>47</ele>
        <time>2016-04-17T13:36:22.994Z</time>
      </trkpt>
      <trkpt lat="43.41571" lon="3.7194">
        <ele>47</ele>
        <time>2016-04-17T13:36:23.936Z</time>
      </trkpt>
      <trkpt lat="43.41573" lon="3.71945">
        <ele>46</ele>
        <time>2016-04-17T13:36:24.970Z</time>
      </trkpt>
      <trkpt lat="43.41576" lon="3.71951">
        <ele>46</ele>
        <time>2016-04-17T13:36:25.937Z</time>
      </trkpt>
      <trkpt lat="43.41578" lon="3.71957">
        <ele>46</ele>
        <time>2016-04-17T13:36:27.003Z</time>
      </trkpt>
      <trkpt lat="43.41581" lon="3.71963">
        <ele>46</ele>
        <time>2016-04-17T13:36:27.934Z</time>
      </trkpt>
      <trkpt lat="43.41583" lon="3.71969">
        <ele>46</ele>
        <time>2016-04-17T13:36:28.964Z</time>
      </trkpt>
      <trkpt lat="43.41585" lon="3.71974">
        <ele>46</ele>
        <time>2016-04-17T13:36:29.936Z</time>
      </trkpt>
      <trkpt lat="43.4159" lon="3.71984">
        <ele>47</ele>
        <time>2016-04-17T13:36:31.967Z</time>
      </trkpt>
      <trkpt lat="43.41593" lon="3.71989">
        <ele>47</ele>
        <time>2016-04-17T13:36:32.937Z</time>
      </trkpt>
      <trkpt lat="43.41598" lon="3.71999">
        <ele>48</ele>
        <time>2016-04-17T13:36:34.966Z</time>
      </trkpt>
      <trkpt lat="43.41601" lon="3.72004">
        <ele>49</ele>
        <time>2016-04-17T13:36:35.936Z</time>
      </trkpt>
      <trkpt lat="43.41604" lon="3.72012">
        <ele>48</ele>
        <time>2016-04-17T13:36:36.962Z</time>
      </trkpt>
      <trkpt lat="43.41606" lon="3.72017">
        <ele>47</ele>
        <time>2016-04-17T13:36:37.935Z</time>
      </trkpt>
      <trkpt lat="43.41609" lon="3.72022">
        <ele>47</ele>
        <time>2016-04-17T13:36:38.990Z</time>
      </trkpt>
      <trkpt lat="43.41612" lon="3.72028">
        <ele>47</ele>
        <time>2016-04-17T13:36:39.932Z</time>
      </trkpt>
      <trkpt lat="43.41615" lon="3.72034">
        <ele>49</ele>
        <time>2016-04-17T13:36:40.967Z</time>
      </trkpt>
      <trkpt lat="43.41617" lon="3.72039">
        <ele>49</ele>
        <time>2016-04-17T13:36:41.936Z</time>
      </trkpt>
      <trkpt lat="43.41619" lon="3.72047">
        <ele>49</ele>
        <time>2016-04-17T13:36:42.964Z</time>
      </trkpt>
      <trkpt lat="43.41622" lon="3.72053">
        <ele>49</ele>
        <time>2016-04-17T13:36:43.936Z</time>
      </trkpt>
      <trkpt lat="43.41625" lon="3.72058">
        <ele>49</ele>
        <time>2016-04-17T13:36:44.967Z</time>
      </trkpt>
      <trkpt lat="43.41627" lon="3.72064">
        <ele>49</ele>
        <time>2016-04-17T13:36:45.935Z</time>
      </trkpt>
      <trkpt lat="43.41629" lon="3.72068">
        <ele>49</ele>
        <time>2016-04-17T13:36:46.967Z</time>
      </trkpt>
      <trkpt lat="43.41632" lon="3.72074">
        <ele>50</ele>
        <time>2016-04-17T13:36:47.936Z</time>
      </trkpt>
      <trkpt lat="43.41635" lon="3.7208">
        <ele>51</ele>
        <time>2016-04-17T13:36:48.965Z</time>
      </trkpt>
      <trkpt lat="43.41637" lon="3.72085">
        <ele>50</ele>
        <time>2016-04-17T13:36:49.936Z</time>
      </trkpt>
      <trkpt lat="43.41638" lon="3.72092">
        <ele>51</ele>
        <time>2016-04-17T13:36:51.097Z</time>
      </trkpt>
      <trkpt lat="43.41641" lon="3.72097">
        <ele>51</ele>
        <time>2016-04-17T13:36:51.933Z</time>
      </trkpt>
      <trkpt lat="43.41645" lon="3.72101">
        <ele>53</ele>
        <time>2016-04-17T13:36:52.965Z</time>
      </trkpt>
      <trkpt lat="43.41648" lon="3.72106">
        <ele>54</ele>
        <time>2016-04-17T13:36:53.935Z</time>
      </trkpt>
      <trkpt lat="43.41649" lon="3.72111">
        <ele>52</ele>
        <time>2016-04-17T13:36:54.965Z</time>
      </trkpt>
      <trkpt lat="43.41652" lon="3.72119">
        <ele>52</ele>
        <time>2016-04-17T13:36:55.932Z</time>
      </trkpt>
      <trkpt lat="43.41656" lon="3.72125">
        <ele>52</ele>
        <time>2016-04-17T13:36:56.968Z</time>
      </trkpt>
      <trkpt lat="43.4166" lon="3.72132">
        <ele>52</ele>
        <time>2016-04-17T13:36:57.936Z</time>
      </trkpt>
      <trkpt lat="43.41663" lon="3.72136">
        <ele>52</ele>
        <time>2016-04-17T13:36:58.967Z</time>
      </trkpt>
      <trkpt lat="43.41665" lon="3.72143">
        <ele>52</ele>
        <time>2016-04-17T13:36:59.963Z</time>
      </trkpt>
      <trkpt lat="43.41668" lon="3.72149">
        <ele>53</ele>
        <time>2016-04-17T13:37:00.965Z</time>
      </trkpt>
      <trkpt lat="43.41671" lon="3.72155">
        <ele>52</ele>
        <time>2016-04-17T13:37:01.937Z</time>
      </trkpt>
      <trkpt lat="43.41673" lon="3.72161">
        <ele>52</ele>
        <time>2016-04-17T13:37:02.966Z</time>
      </trkpt>
      <trkpt lat="43.41675" lon="3.72167">
        <ele>51</ele>
        <time>2016-04-17T13:37:03.935Z</time>
      </trkpt>
      <trkpt lat="43.41678" lon="3.72173">
        <ele>49</ele>
        <time>2016-04-17T13:37:04.967Z</time>
      </trkpt>
      <trkpt lat="43.4168" lon="3.7218">
        <ele>49</ele>
        <time>2016-04-17T13:37:05.935Z</time>
      </trkpt>
      <trkpt lat="43.41685" lon="3.7219">
        <ele>49</ele>
        <time>2016-04-17T13:37:07.967Z</time>
      </trkpt>
      <trkpt lat="43.41687" lon="3.72195">
        <ele>48</ele>
        <time>2016-04-17T13:37:08.936Z</time>
      </trkpt>
      <trkpt lat="43.4169" lon="3.72202">
        <ele>48</ele>
        <time>2016-04-17T13:37:09.965Z</time>
      </trkpt>
      <trkpt lat="43.41693" lon="3.72211">
        <ele>48</ele>
        <time>2016-04-17T13:37:10.935Z</time>
      </trkpt>
      <trkpt lat="43.41695" lon="3.72217">
        <ele>48</ele>
        <time>2016-04-17T13:37:11.963Z</time>
      </trkpt>
      <trkpt lat="43.41698" lon="3.72223">
        <ele>49</ele>
        <time>2016-04-17T13:37:12.937Z</time>
      </trkpt>
      <trkpt lat="43.41701" lon="3.72228">
        <ele>48</ele>
        <time>2016-04-17T13:37:13.965Z</time>
      </trkpt>
      <trkpt lat="43.41703" lon="3.72234">
        <ele>48</ele>
        <time>2016-04-17T13:37:14.936Z</time>
      </trkpt>
      <trkpt lat="43.41706" lon="3.7224">
        <ele>49</ele>
        <time>2016-04-17T13:37:15.993Z</time>
      </trkpt>
      <trkpt lat="43.41708" lon="3.72246">
        <ele>49</ele>
        <time>2016-04-17T13:37:16.934Z</time>
      </trkpt>
      <trkpt lat="43.4171" lon="3.72251">
        <ele>49</ele>
        <time>2016-04-17T13:37:17.963Z</time>
      </trkpt>
      <trkpt lat="43.41713" lon="3.72257">
        <ele>49</ele>
        <time>2016-04-17T13:37:18.935Z</time>
      </trkpt>
      <trkpt lat="43.41716" lon="3.72263">
        <ele>49</ele>
        <time>2016-04-17T13:37:19.965Z</time>
      </trkpt>
      <trkpt lat="43.41718" lon="3.72268">
        <ele>49</ele>
        <time>2016-04-17T13:37:20.935Z</time>
      </trkpt>
      <trkpt lat="43.4172" lon="3.72275">
        <ele>49</ele>
        <time>2016-04-17T13:37:21.964Z</time>
      </trkpt>
      <trkpt lat="43.41722" lon="3.7228">
        <ele>50</ele>
        <time>2016-04-17T13:37:22.932Z</time>
      </trkpt>
      <trkpt lat="43.41725" lon="3.7229">
        <ele>51</ele>
        <time>2016-04-17T13:37:24.964Z</time>
      </trkpt>
      <trkpt lat="43.41727" lon="3.72294">
        <ele>51</ele>
        <time>2016-04-17T13:37:26.101Z</time>
      </trkpt>
      <trkpt lat="43.41731" lon="3.72304">
        <ele>51</ele>
        <time>2016-04-17T13:37:27.963Z</time>
      </trkpt>
      <trkpt lat="43.41732" lon="3.72309">
        <ele>52</ele>
        <time>2016-04-17T13:37:28.934Z</time>
      </trkpt>
      <trkpt lat="43.41735" lon="3.72319">
        <ele>53</ele>
        <time>2016-04-17T13:37:30.966Z</time>
      </trkpt>
      <trkpt lat="43.41735" lon="3.72324">
        <ele>53</ele>
        <time>2016-04-17T13:37:31.937Z</time>
      </trkpt>
      <trkpt lat="43.41737" lon="3.72334">
        <ele>53</ele>
        <time>2016-04-17T13:37:33.965Z</time>
      </trkpt>
      <trkpt lat="43.41737" lon="3.72339">
        <ele>51</ele>
        <time>2016-04-17T13:37:34.934Z</time>
      </trkpt>
      <trkpt lat="43.41738" lon="3.72349">
        <ele>52</ele>
        <time>2016-04-17T13:37:36.989Z</time>
      </trkpt>
      <trkpt lat="43.41737" lon="3.72356">
        <ele>53</ele>
        <time>2016-04-17T13:37:37.935Z</time>
      </trkpt>
      <trkpt lat="43.41737" lon="3.72367">
        <ele>53</ele>
        <time>2016-04-17T13:37:39.965Z</time>
      </trkpt>
      <trkpt lat="43.41737" lon="3.72372">
        <ele>52</ele>
        <time>2016-04-17T13:37:40.935Z</time>
      </trkpt>
      <trkpt lat="43.41735" lon="3.72382">
        <ele>52</ele>
        <time>2016-04-17T13:37:42.968Z</time>
      </trkpt>
      <trkpt lat="43.41734" lon="3.72387">
        <ele>53</ele>
        <time>2016-04-17T13:37:43.935Z</time>
      </trkpt>
      <trkpt lat="43.41729" lon="3.72396">
        <ele>53</ele>
        <time>2016-04-17T13:37:45.969Z</time>
      </trkpt>
      <trkpt lat="43.41725" lon="3.724">
        <ele>56</ele>
        <time>2016-04-17T13:37:46.935Z</time>
      </trkpt>
      <trkpt lat="43.4172" lon="3.72409">
        <ele>55</ele>
        <time>2016-04-17T13:37:48.965Z</time>
      </trkpt>
      <trkpt lat="43.41718" lon="3.72412">
        <ele>55</ele>
        <time>2016-04-17T13:37:49.936Z</time>
      </trkpt>
      <trkpt lat="43.41712" lon="3.72416">
        <ele>53</ele>
        <time>2016-04-17T13:37:51.972Z</time>
      </trkpt>
      <trkpt lat="43.41701" lon="3.72415">
        <ele>51</ele>
        <time>2016-04-17T13:37:52.940Z</time>
      </trkpt>
      <trkpt lat="43.41695" lon="3.72417">
        <ele>52</ele>
        <time>2016-04-17T13:37:54.973Z</time>
      </trkpt>
      <trkpt lat="43.41692" lon="3.72419">
        <ele>52</ele>
        <time>2016-04-17T13:37:55.933Z</time>
      </trkpt>
      <trkpt lat="43.41686" lon="3.72421">
        <ele>52</ele>
        <time>2016-04-17T13:37:57.995Z</time>
      </trkpt>
      <trkpt lat="43.41681" lon="3.72423">
        <ele>53</ele>
        <time>2016-04-17T13:37:58.933Z</time>
      </trkpt>
      <trkpt lat="43.41674" lon="3.72426">
        <ele>55</ele>
        <time>2016-04-17T13:38:00.968Z</time>
      </trkpt>
      <trkpt lat="43.4167" lon="3.72427">
        <ele>55</ele>
        <time>2016-04-17T13:38:01.935Z</time>
      </trkpt>
      <trkpt lat="43.41666" lon="3.72431">
        <ele>56</ele>
        <time>2016-04-17T13:38:02.964Z</time>
      </trkpt>
      <trkpt lat="43.41662" lon="3.72433">
        <ele>56</ele>
        <time>2016-04-17T13:38:03.935Z</time>
      </trkpt>
      <trkpt lat="43.41658" lon="3.72436">
        <ele>56</ele>
        <time>2016-04-17T13:38:04.964Z</time>
      </trkpt>
      <trkpt lat="43.41654" lon="3.72439">
        <ele>56</ele>
        <time>2016-04-17T13:38:05.934Z</time>
      </trkpt>
      <trkpt lat="43.41647" lon="3.72447">
        <ele>56</ele>
        <time>2016-04-17T13:38:07.964Z</time>
      </trkpt>
      <trkpt lat="43.41645" lon="3.72453">
        <ele>56</ele>
        <time>2016-04-17T13:38:08.936Z</time>
      </trkpt>
      <trkpt lat="43.41643" lon="3.72459">
        <ele>56</ele>
        <time>2016-04-17T13:38:09.962Z</time>
      </trkpt>
      <trkpt lat="43.41642" lon="3.72465">
        <ele>57</ele>
        <time>2016-04-17T13:38:10.935Z</time>
      </trkpt>
      <trkpt lat="43.4164" lon="3.72471">
        <ele>57</ele>
        <time>2016-04-17T13:38:11.963Z</time>
      </trkpt>
      <trkpt lat="43.41639" lon="3.72478">
        <ele>57</ele>
        <time>2016-04-17T13:38:12.936Z</time>
      </trkpt>
      <trkpt lat="43.4164" lon="3.72485">
        <ele>57</ele>
        <time>2016-04-17T13:38:13.986Z</time>
      </trkpt>
      <trkpt lat="43.4164" lon="3.72491">
        <ele>58</ele>
        <time>2016-04-17T13:38:14.935Z</time>
      </trkpt>
      <trkpt lat="43.41641" lon="3.72497">
        <ele>58</ele>
        <time>2016-04-17T13:38:15.969Z</time>
      </trkpt>
      <trkpt lat="43.41641" lon="3.72504">
        <ele>58</ele>
        <time>2016-04-17T13:38:16.936Z</time>
      </trkpt>
      <trkpt lat="43.41645" lon="3.72513">
        <ele>59</ele>
        <time>2016-04-17T13:38:19.040Z</time>
      </trkpt>
      <trkpt lat="43.41648" lon="3.72519">
        <ele>58</ele>
        <time>2016-04-17T13:38:19.935Z</time>
      </trkpt>
      <trkpt lat="43.41651" lon="3.72524">
        <ele>57</ele>
        <time>2016-04-17T13:38:20.966Z</time>
      </trkpt>
      <trkpt lat="43.41654" lon="3.72529">
        <ele>56</ele>
        <time>2016-04-17T13:38:21.936Z</time>
      </trkpt>
      <trkpt lat="43.41658" lon="3.72534">
        <ele>57</ele>
        <time>2016-04-17T13:38:22.963Z</time>
      </trkpt>
      <trkpt lat="43.41661" lon="3.72537">
        <ele>57</ele>
        <time>2016-04-17T13:38:23.936Z</time>
      </trkpt>
      <trkpt lat="43.41665" lon="3.7254">
        <ele>56</ele>
        <time>2016-04-17T13:38:24.964Z</time>
      </trkpt>
      <trkpt lat="43.4167" lon="3.72541">
        <ele>57</ele>
        <time>2016-04-17T13:38:26.085Z</time>
      </trkpt>
      <trkpt lat="43.41678" lon="3.72546">
        <ele>55</ele>
        <time>2016-04-17T13:38:27.964Z</time>
      </trkpt>
      <trkpt lat="43.41683" lon="3.72549">
        <ele>53</ele>
        <time>2016-04-17T13:38:28.938Z</time>
      </trkpt>
      <trkpt lat="43.41691" lon="3.7255">
        <ele>52</ele>
        <time>2016-04-17T13:38:30.965Z</time>
      </trkpt>
      <trkpt lat="43.41694" lon="3.72549">
        <ele>52</ele>
        <time>2016-04-17T13:38:31.935Z</time>
      </trkpt>
      <trkpt lat="43.41699" lon="3.72548">
        <ele>52</ele>
        <time>2016-04-17T13:38:32.963Z</time>
      </trkpt>
      <trkpt lat="43.41703" lon="3.72546">
        <ele>52</ele>
        <time>2016-04-17T13:38:33.934Z</time>
      </trkpt>
      <trkpt lat="43.41709" lon="3.72542">
        <ele>51</ele>
        <time>2016-04-17T13:38:35.965Z</time>
      </trkpt>
      <trkpt lat="43.41711" lon="3.72539">
        <ele>52</ele>
        <time>2016-04-17T13:38:36.935Z</time>
      </trkpt>
      <trkpt lat="43.41716" lon="3.72533">
        <ele>53</ele>
        <time>2016-04-17T13:38:38.965Z</time>
      </trkpt>
      <trkpt lat="43.4172" lon="3.7253">
        <ele>55</ele>
        <time>2016-04-17T13:38:39.935Z</time>
      </trkpt>
      <trkpt lat="43.41727" lon="3.72523">
        <ele>55</ele>
        <time>2016-04-17T13:38:41.966Z</time>
      </trkpt>
      <trkpt lat="43.4173" lon="3.72519">
        <ele>56</ele>
        <time>2016-04-17T13:38:42.934Z</time>
      </trkpt>
      <trkpt lat="43.41734" lon="3.72515">
        <ele>55</ele>
        <time>2016-04-17T13:38:43.967Z</time>
      </trkpt>
      <trkpt lat="43.41737" lon="3.72511">
        <ele>55</ele>
        <time>2016-04-17T13:38:44.935Z</time>
      </trkpt>
      <trkpt lat="43.41743" lon="3.72503">
        <ele>56</ele>
        <time>2016-04-17T13:38:46.967Z</time>
      </trkpt>
      <trkpt lat="43.41747" lon="3.72498">
        <ele>58</ele>
        <time>2016-04-17T13:38:47.934Z</time>
      </trkpt>
      <trkpt lat="43.41753" lon="3.72495">
        <ele>58</ele>
        <time>2016-04-17T13:38:49.964Z</time>
      </trkpt>
      <trkpt lat="43.41756" lon="3.72493">
        <ele>58</ele>
        <time>2016-04-17T13:38:50.961Z</time>
      </trkpt>
      <trkpt lat="43.41762" lon="3.72485">
        <ele>57</ele>
        <time>2016-04-17T13:38:52.966Z</time>
      </trkpt>
      <trkpt lat="43.41766" lon="3.72483">
        <ele>57</ele>
        <time>2016-04-17T13:38:53.934Z</time>
      </trkpt>
      <trkpt lat="43.4177" lon="3.7248">
        <ele>57</ele>
        <time>2016-04-17T13:38:54.966Z</time>
      </trkpt>
      <trkpt lat="43.41777" lon="3.72478">
        <ele>55</ele>
        <time>2016-04-17T13:38:55.934Z</time>
      </trkpt>
      <trkpt lat="43.41782" lon="3.72477">
        <ele>57</ele>
        <time>2016-04-17T13:38:56.966Z</time>
      </trkpt>
      <trkpt lat="43.41787" lon="3.72476">
        <ele>57</ele>
        <time>2016-04-17T13:38:57.937Z</time>
      </trkpt>
      <trkpt lat="43.41792" lon="3.72478">
        <ele>58</ele>
        <time>2016-04-17T13:38:58.964Z</time>
      </trkpt>
      <trkpt lat="43.41797" lon="3.7248">
        <ele>58</ele>
        <time>2016-04-17T13:38:59.935Z</time>
      </trkpt>
      <trkpt lat="43.41801" lon="3.72482">
        <ele>58</ele>
        <time>2016-04-17T13:39:00.963Z</time>
      </trkpt>
      <trkpt lat="43.41806" lon="3.72483">
        <ele>60</ele>
        <time>2016-04-17T13:39:02.081Z</time>
      </trkpt>
      <trkpt lat="43.41814" lon="3.72484">
        <ele>62</ele>
        <time>2016-04-17T13:39:03.960Z</time>
      </trkpt>
      <trkpt lat="43.41817" lon="3.72488">
        <ele>61</ele>
        <time>2016-04-17T13:39:04.936Z</time>
      </trkpt>
      <trkpt lat="43.41825" lon="3.7249">
        <ele>61</ele>
        <time>2016-04-17T13:39:06.965Z</time>
      </trkpt>
      <trkpt lat="43.4183" lon="3.72491">
        <ele>62</ele>
        <time>2016-04-17T13:39:07.935Z</time>
      </trkpt>
      <trkpt lat="43.41838" lon="3.72493">
        <ele>62</ele>
        <time>2016-04-17T13:39:09.959Z</time>
      </trkpt>
      <trkpt lat="43.41842" lon="3.72494">
        <ele>63</ele>
        <time>2016-04-17T13:39:10.934Z</time>
      </trkpt>
      <trkpt lat="43.41846" lon="3.72495">
        <ele>63</ele>
        <time>2016-04-17T13:39:11.966Z</time>
      </trkpt>
      <trkpt lat="43.4185" lon="3.725">
        <ele>61</ele>
        <time>2016-04-17T13:39:12.961Z</time>
      </trkpt>
      <trkpt lat="43.41857" lon="3.725">
        <ele>61</ele>
        <time>2016-04-17T13:39:14.969Z</time>
      </trkpt>
      <trkpt lat="43.41862" lon="3.72501">
        <ele>61</ele>
        <time>2016-04-17T13:39:15.935Z</time>
      </trkpt>
      <trkpt lat="43.41869" lon="3.72498">
        <ele>62</ele>
        <time>2016-04-17T13:39:17.966Z</time>
      </trkpt>
      <trkpt lat="43.41874" lon="3.72497">
        <ele>62</ele>
        <time>2016-04-17T13:39:18.934Z</time>
      </trkpt>
      <trkpt lat="43.41879" lon="3.72495">
        <ele>62</ele>
        <time>2016-04-17T13:39:19.964Z</time>
      </trkpt>
      <trkpt lat="43.41883" lon="3.72493">
        <ele>62</ele>
        <time>2016-04-17T13:39:20.936Z</time>
      </trkpt>
      <trkpt lat="43.41891" lon="3.7249">
        <ele>62</ele>
        <time>2016-04-17T13:39:22.963Z</time>
      </trkpt>
      <trkpt lat="43.41896" lon="3.72487">
        <ele>61</ele>
        <time>2016-04-17T13:39:23.934Z</time>
      </trkpt>
      <trkpt lat="43.41902" lon="3.72485">
        <ele>58</ele>
        <time>2016-04-17T13:39:26.018Z</time>
      </trkpt>
      <trkpt lat="43.41906" lon="3.72485">
        <ele>57</ele>
        <time>2016-04-17T13:39:26.936Z</time>
      </trkpt>
      <trkpt lat="43.41914" lon="3.72482">
        <ele>56</ele>
        <time>2016-04-17T13:39:28.989Z</time>
      </trkpt>
      <trkpt lat="43.41918" lon="3.72481">
        <ele>54</ele>
        <time>2016-04-17T13:39:29.935Z</time>
      </trkpt>
      <trkpt lat="43.41923" lon="3.7248">
        <ele>54</ele>
        <time>2016-04-17T13:39:30.968Z</time>
      </trkpt>
      <trkpt lat="43.41928" lon="3.7248">
        <ele>54</ele>
        <time>2016-04-17T13:39:31.935Z</time>
      </trkpt>
      <trkpt lat="43.41936" lon="3.72476">
        <ele>55</ele>
        <time>2016-04-17T13:39:33.964Z</time>
      </trkpt>
      <trkpt lat="43.4194" lon="3.72474">
        <ele>55</ele>
        <time>2016-04-17T13:39:34.935Z</time>
      </trkpt>
      <trkpt lat="43.41946" lon="3.72473">
        <ele>54</ele>
        <time>2016-04-17T13:39:35.959Z</time>
      </trkpt>
      <trkpt lat="43.41951" lon="3.72473">
        <ele>54</ele>
        <time>2016-04-17T13:39:36.936Z</time>
      </trkpt>
      <trkpt lat="43.41957" lon="3.72471">
        <ele>55</ele>
        <time>2016-04-17T13:39:37.963Z</time>
      </trkpt>
      <trkpt lat="43.41961" lon="3.72468">
        <ele>56</ele>
        <time>2016-04-17T13:39:38.935Z</time>
      </trkpt>
      <trkpt lat="43.4197" lon="3.72464">
        <ele>57</ele>
        <time>2016-04-17T13:39:40.964Z</time>
      </trkpt>
      <trkpt lat="43.41974" lon="3.72462">
        <ele>57</ele>
        <time>2016-04-17T13:39:41.936Z</time>
      </trkpt>
      <trkpt lat="43.41979" lon="3.72459">
        <ele>57</ele>
        <time>2016-04-17T13:39:42.965Z</time>
      </trkpt>
      <trkpt lat="43.41984" lon="3.72458">
        <ele>56</ele>
        <time>2016-04-17T13:39:43.937Z</time>
      </trkpt>
      <trkpt lat="43.4199" lon="3.72458">
        <ele>56</ele>
        <time>2016-04-17T13:39:44.965Z</time>
      </trkpt>
      <trkpt lat="43.41995" lon="3.72456">
        <ele>56</ele>
        <time>2016-04-17T13:39:45.937Z</time>
      </trkpt>
      <trkpt lat="43.42003" lon="3.7245">
        <ele>58</ele>
        <time>2016-04-17T13:39:47.964Z</time>
      </trkpt>
      <trkpt lat="43.42006" lon="3.72446">
        <ele>59</ele>
        <time>2016-04-17T13:39:48.936Z</time>
      </trkpt>
      <trkpt lat="43.4201" lon="3.72444">
        <ele>59</ele>
        <time>2016-04-17T13:39:49.991Z</time>
      </trkpt>
      <trkpt lat="43.42017" lon="3.72444">
        <ele>57</ele>
        <time>2016-04-17T13:39:50.934Z</time>
      </trkpt>
      <trkpt lat="43.42021" lon="3.72443">
        <ele>56</ele>
        <time>2016-04-17T13:39:51.959Z</time>
      </trkpt>
      <trkpt lat="43.42026" lon="3.7244">
        <ele>57</ele>
        <time>2016-04-17T13:39:52.936Z</time>
      </trkpt>
      <trkpt lat="43.4203" lon="3.72438">
        <ele>57</ele>
        <time>2016-04-17T13:39:53.970Z</time>
      </trkpt>
      <trkpt lat="43.42035" lon="3.72436">
        <ele>57</ele>
        <time>2016-04-17T13:39:54.937Z</time>
      </trkpt>
      <trkpt lat="43.42039" lon="3.72435">
        <ele>55</ele>
        <time>2016-04-17T13:39:55.971Z</time>
      </trkpt>
      <trkpt lat="43.42044" lon="3.72434">
        <ele>54</ele>
        <time>2016-04-17T13:39:56.935Z</time>
      </trkpt>
      <trkpt lat="43.42053" lon="3.7243">
        <ele>54</ele>
        <time>2016-04-17T13:39:58.964Z</time>
      </trkpt>
      <trkpt lat="43.42055" lon="3.72425">
        <ele>54</ele>
        <time>2016-04-17T13:39:59.936Z</time>
      </trkpt>
      <trkpt lat="43.4206" lon="3.72425">
        <ele>54</ele>
        <time>2016-04-17T13:40:00.965Z</time>
      </trkpt>
      <trkpt lat="43.42064" lon="3.72424">
        <ele>54</ele>
        <time>2016-04-17T13:40:01.936Z</time>
      </trkpt>
      <trkpt lat="43.4207" lon="3.72424">
        <ele>56</ele>
        <time>2016-04-17T13:40:02.964Z</time>
      </trkpt>
      <trkpt lat="43.42074" lon="3.72422">
        <ele>55</ele>
        <time>2016-04-17T13:40:03.934Z</time>
      </trkpt>
      <trkpt lat="43.42079" lon="3.72422">
        <ele>55</ele>
        <time>2016-04-17T13:40:04.965Z</time>
      </trkpt>
      <trkpt lat="43.42084" lon="3.72421">
        <ele>55</ele>
        <time>2016-04-17T13:40:05.934Z</time>
      </trkpt>
      <trkpt lat="43.42088" lon="3.7242">
        <ele>52</ele>
        <time>2016-04-17T13:40:06.963Z</time>
      </trkpt>
      <trkpt lat="43.42093" lon="3.72421">
        <ele>48</ele>
        <time>2016-04-17T13:40:07.934Z</time>
      </trkpt>
      <trkpt lat="43.42096" lon="3.72416">
        <ele>48</ele>
        <time>2016-04-17T13:40:08.964Z</time>
      </trkpt>
      <trkpt lat="43.42102" lon="3.72417">
        <ele>47</ele>
        <time>2016-04-17T13:40:09.935Z</time>
      </trkpt>
      <trkpt lat="43.42107" lon="3.72415">
        <ele>48</ele>
        <time>2016-04-17T13:40:10.991Z</time>
      </trkpt>
      <trkpt lat="43.42111" lon="3.72413">
        <ele>50</ele>
        <time>2016-04-17T13:40:11.935Z</time>
      </trkpt>
      <trkpt lat="43.42115" lon="3.72411">
        <ele>51</ele>
        <time>2016-04-17T13:40:12.966Z</time>
      </trkpt>
      <trkpt lat="43.4212" lon="3.7241">
        <ele>53</ele>
        <time>2016-04-17T13:40:13.935Z</time>
      </trkpt>
      <trkpt lat="43.42128" lon="3.72406">
        <ele>51</ele>
        <time>2016-04-17T13:40:15.964Z</time>
      </trkpt>
      <trkpt lat="43.42132" lon="3.72404">
        <ele>51</ele>
        <time>2016-04-17T13:40:16.935Z</time>
      </trkpt>
      <trkpt lat="43.42141" lon="3.72405">
        <ele>51</ele>
        <time>2016-04-17T13:40:18.965Z</time>
      </trkpt>
      <trkpt lat="43.42144" lon="3.72404">
        <ele>53</ele>
        <time>2016-04-17T13:40:19.934Z</time>
      </trkpt>
      <trkpt lat="43.42152" lon="3.724">
        <ele>52</ele>
        <time>2016-04-17T13:40:21.964Z</time>
      </trkpt>
      <trkpt lat="43.42155" lon="3.72398">
        <ele>53</ele>
        <time>2016-04-17T13:40:22.939Z</time>
      </trkpt>
      <trkpt lat="43.42162" lon="3.72396">
        <ele>53</ele>
        <time>2016-04-17T13:40:24.963Z</time>
      </trkpt>
      <trkpt lat="43.42165" lon="3.72395">
        <ele>54</ele>
        <time>2016-04-17T13:40:25.936Z</time>
      </trkpt>
      <trkpt lat="43.42172" lon="3.72391">
        <ele>53</ele>
        <time>2016-04-17T13:40:27.968Z</time>
      </trkpt>
      <trkpt lat="43.42176" lon="3.7239">
        <ele>53</ele>
        <time>2016-04-17T13:40:28.934Z</time>
      </trkpt>
      <trkpt lat="43.42183" lon="3.72384">
        <ele>52</ele>
        <time>2016-04-17T13:40:31.964Z</time>
      </trkpt>
      <trkpt lat="43.42186" lon="3.72385">
        <ele>52</ele>
        <time>2016-04-17T13:40:32.933Z</time>
      </trkpt>
      <trkpt lat="43.42195" lon="3.72382">
        <ele>53</ele>
        <time>2016-04-17T13:40:35.964Z</time>
      </trkpt>
      <trkpt lat="43.42198" lon="3.7238">
        <ele>54</ele>
        <time>2016-04-17T13:40:36.935Z</time>
      </trkpt>
      <trkpt lat="43.42204" lon="3.72378">
        <ele>55</ele>
        <time>2016-04-17T13:40:38.964Z</time>
      </trkpt>
      <trkpt lat="43.42208" lon="3.72378">
        <ele>54</ele>
        <time>2016-04-17T13:40:39.934Z</time>
      </trkpt>
      <trkpt lat="43.42215" lon="3.72376">
        <ele>54</ele>
        <time>2016-04-17T13:40:42.962Z</time>
      </trkpt>
      <trkpt lat="43.42218" lon="3.72374">
        <ele>55</ele>
        <time>2016-04-17T13:40:43.935Z</time>
      </trkpt>
      <trkpt lat="43.42225" lon="3.72373">
        <ele>54</ele>
        <time>2016-04-17T13:40:45.964Z</time>
      </trkpt>
      <trkpt lat="43.42227" lon="3.72372">
        <ele>55</ele>
        <time>2016-04-17T13:40:46.934Z</time>
      </trkpt>
      <trkpt lat="43.42235" lon="3.72366">
        <ele>55</ele>
        <time>2016-04-17T13:40:49.963Z</time>
      </trkpt>
      <trkpt lat="43.42238" lon="3.72363">
        <ele>56</ele>
        <time>2016-04-17T13:40:50.933Z</time>
      </trkpt>
      <trkpt lat="43.42244" lon="3.7236">
        <ele>53</ele>
        <time>2016-04-17T13:40:53.994Z</time>
      </trkpt>
      <trkpt lat="43.42246" lon="3.72359">
        <ele>53</ele>
        <time>2016-04-17T13:40:54.937Z</time>
      </trkpt>
      <trkpt lat="43.42254" lon="3.72355">
        <ele>54</ele>
        <time>2016-04-17T13:40:57.962Z</time>
      </trkpt>
      <trkpt lat="43.42256" lon="3.72354">
        <ele>53</ele>
        <time>2016-04-17T13:40:58.935Z</time>
      </trkpt>
      <trkpt lat="43.42263" lon="3.72348">
        <ele>53</ele>
        <time>2016-04-17T13:41:01.966Z</time>
      </trkpt>
      <trkpt lat="43.42267" lon="3.72347">
        <ele>53</ele>
        <time>2016-04-17T13:41:02.935Z</time>
      </trkpt>
      <trkpt lat="43.42275" lon="3.72345">
        <ele>52</ele>
        <time>2016-04-17T13:41:05.964Z</time>
      </trkpt>
      <trkpt lat="43.42278" lon="3.72343">
        <ele>52</ele>
        <time>2016-04-17T13:41:06.933Z</time>
      </trkpt>
      <trkpt lat="43.42286" lon="3.72339">
        <ele>52</ele>
        <time>2016-04-17T13:41:09.991Z</time>
      </trkpt>
      <trkpt lat="43.42287" lon="3.72337">
        <ele>52</ele>
        <time>2016-04-17T13:41:10.937Z</time>
      </trkpt>
      <trkpt lat="43.42292" lon="3.72332">
        <ele>51</ele>
        <time>2016-04-17T13:41:12.963Z</time>
      </trkpt>
      <trkpt lat="43.42294" lon="3.72329">
        <ele>52</ele>
        <time>2016-04-17T13:41:13.933Z</time>
      </trkpt>
      <trkpt lat="43.42293" lon="3.72316">
        <ele>54</ele>
        <time>2016-04-17T13:41:31.958Z</time>
      </trkpt>
      <trkpt lat="43.42295" lon="3.72314">
        <ele>55</ele>
        <time>2016-04-17T13:41:32.934Z</time>
      </trkpt>
      <trkpt lat="43.42299" lon="3.7231">
        <ele>55</ele>
        <time>2016-04-17T13:41:34.963Z</time>
      </trkpt>
      <trkpt lat="43.42302" lon="3.72306">
        <ele>55</ele>
        <time>2016-04-17T13:41:35.935Z</time>
      </trkpt>
      <trkpt lat="43.42305" lon="3.723">
        <ele>55</ele>
        <time>2016-04-17T13:41:37.963Z</time>
      </trkpt>
      <trkpt lat="43.42307" lon="3.72294">
        <ele>55</ele>
        <time>2016-04-17T13:41:38.935Z</time>
      </trkpt>
      <trkpt lat="43.42309" lon="3.72283">
        <ele>54</ele>
        <time>2016-04-17T13:41:40.957Z</time>
      </trkpt>
      <trkpt lat="43.4231" lon="3.72278">
        <ele>54</ele>
        <time>2016-04-17T13:41:41.935Z</time>
      </trkpt>
      <trkpt lat="43.4231" lon="3.72269">
        <ele>54</ele>
        <time>2016-04-17T13:41:43.966Z</time>
      </trkpt>
      <trkpt lat="43.42311" lon="3.72264">
        <ele>55</ele>
        <time>2016-04-17T13:41:44.937Z</time>
      </trkpt>
      <trkpt lat="43.42308" lon="3.72255">
        <ele>57</ele>
        <time>2016-04-17T13:41:47.962Z</time>
      </trkpt>
      <trkpt lat="43.42305" lon="3.72254">
        <ele>57</ele>
        <time>2016-04-17T13:41:48.939Z</time>
      </trkpt>
      <trkpt lat="43.42298" lon="3.72253">
        <ele>56</ele>
        <time>2016-04-17T13:41:50.971Z</time>
      </trkpt>
      <trkpt lat="43.42295" lon="3.7225">
        <ele>56</ele>
        <time>2016-04-17T13:41:51.932Z</time>
      </trkpt>
      <trkpt lat="43.42287" lon="3.72245">
        <ele>55</ele>
        <time>2016-04-17T13:41:53.967Z</time>
      </trkpt>
      <trkpt lat="43.42283" lon="3.72243">
        <ele>55</ele>
        <time>2016-04-17T13:41:54.934Z</time>
      </trkpt>
      <trkpt lat="43.42277" lon="3.72235">
        <ele>55</ele>
        <time>2016-04-17T13:41:56.962Z</time>
      </trkpt>
      <trkpt lat="43.42274" lon="3.7223">
        <ele>55</ele>
        <time>2016-04-17T13:41:57.934Z</time>
      </trkpt>
      <trkpt lat="43.42267" lon="3.72237">
        <ele>55</ele>
        <time>2016-04-17T13:41:59.971Z</time>
      </trkpt>
      <trkpt lat="43.42268" lon="3.72243">
        <ele>56</ele>
        <time>2016-04-17T13:42:00.934Z</time>
      </trkpt>
      <trkpt lat="43.42265" lon="3.72254">
        <ele>52</ele>
        <time>2016-04-17T13:42:13.965Z</time>
      </trkpt>
      <trkpt lat="43.42265" lon="3.72256">
        <ele>52</ele>
        <time>2016-04-17T13:42:14.934Z</time>
      </trkpt>
      <trkpt lat="43.42268" lon="3.72267">
        <ele>52</ele>
        <time>2016-04-17T13:42:17.970Z</time>
      </trkpt>
      <trkpt lat="43.42268" lon="3.72272">
        <ele>54</ele>
        <time>2016-04-17T13:42:18.964Z</time>
      </trkpt>
      <trkpt lat="43.42268" lon="3.72283">
        <ele>53</ele>
        <time>2016-04-17T13:42:20.963Z</time>
      </trkpt>
      <trkpt lat="43.42267" lon="3.72289">
        <ele>52</ele>
        <time>2016-04-17T13:42:21.933Z</time>
      </trkpt>
      <trkpt lat="43.42267" lon="3.72301">
        <ele>52</ele>
        <time>2016-04-17T13:42:23.963Z</time>
      </trkpt>
      <trkpt lat="43.42267" lon="3.72308">
        <ele>52</ele>
        <time>2016-04-17T13:42:24.936Z</time>
      </trkpt>
      <trkpt lat="43.42267" lon="3.72315">
        <ele>52</ele>
        <time>2016-04-17T13:42:25.956Z</time>
      </trkpt>
      <trkpt lat="43.42266" lon="3.72322">
        <ele>52</ele>
        <time>2016-04-17T13:42:26.936Z</time>
      </trkpt>
      <trkpt lat="43.42266" lon="3.7233">
        <ele>52</ele>
        <time>2016-04-17T13:42:27.961Z</time>
      </trkpt>
      <trkpt lat="43.42266" lon="3.72337">
        <ele>52</ele>
        <time>2016-04-17T13:42:28.930Z</time>
      </trkpt>
      <trkpt lat="43.42266" lon="3.72345">
        <ele>51</ele>
        <time>2016-04-17T13:42:29.969Z</time>
      </trkpt>
      <trkpt lat="43.42267" lon="3.72353">
        <ele>51</ele>
        <time>2016-04-17T13:42:30.932Z</time>
      </trkpt>
      <trkpt lat="43.42272" lon="3.72357">
        <ele>50</ele>
        <time>2016-04-17T13:42:31.956Z</time>
      </trkpt>
      <trkpt lat="43.42277" lon="3.72366">
        <ele>46</ele>
        <time>2016-04-17T13:42:32.940Z</time>
      </trkpt>
      <trkpt lat="43.42279" lon="3.72374">
        <ele>46</ele>
        <time>2016-04-17T13:42:33.969Z</time>
      </trkpt>
      <trkpt lat="43.42281" lon="3.7238">
        <ele>45</ele>
        <time>2016-04-17T13:42:34.937Z</time>
      </trkpt>
      <trkpt lat="43.42283" lon="3.72386">
        <ele>46</ele>
        <time>2016-04-17T13:42:35.962Z</time>
      </trkpt>
      <trkpt lat="43.42284" lon="3.72393">
        <ele>47</ele>
        <time>2016-04-17T13:42:36.933Z</time>
      </trkpt>
      <trkpt lat="43.42284" lon="3.724">
        <ele>47</ele>
        <time>2016-04-17T13:42:37.962Z</time>
      </trkpt>
      <trkpt lat="43.42284" lon="3.72407">
        <ele>47</ele>
        <time>2016-04-17T13:42:38.935Z</time>
      </trkpt>
      <trkpt lat="43.42284" lon="3.72415">
        <ele>46</ele>
        <time>2016-04-17T13:42:39.988Z</time>
      </trkpt>
      <trkpt lat="43.42286" lon="3.72422">
        <ele>46</ele>
        <time>2016-04-17T13:42:40.936Z</time>
      </trkpt>
      <trkpt lat="43.42288" lon="3.72428">
        <ele>47</ele>
        <time>2016-04-17T13:42:41.965Z</time>
      </trkpt>
      <trkpt lat="43.42288" lon="3.72434">
        <ele>48</ele>
        <time>2016-04-17T13:42:42.935Z</time>
      </trkpt>
      <trkpt lat="43.4229" lon="3.72446">
        <ele>46</ele>
        <time>2016-04-17T13:42:44.954Z</time>
      </trkpt>
      <trkpt lat="43.4229" lon="3.72451">
        <ele>46</ele>
        <time>2016-04-17T13:42:45.933Z</time>
      </trkpt>
      <trkpt lat="43.42291" lon="3.72462">
        <ele>46</ele>
        <time>2016-04-17T13:42:47.962Z</time>
      </trkpt>
      <trkpt lat="43.42292" lon="3.72467">
        <ele>46</ele>
        <time>2016-04-17T13:42:48.937Z</time>
      </trkpt>
      <trkpt lat="43.42294" lon="3.72477">
        <ele>46</ele>
        <time>2016-04-17T13:42:50.968Z</time>
      </trkpt>
      <trkpt lat="43.42295" lon="3.72485">
        <ele>47</ele>
        <time>2016-04-17T13:42:51.932Z</time>
      </trkpt>
      <trkpt lat="43.42296" lon="3.72491">
        <ele>48</ele>
        <time>2016-04-17T13:42:52.968Z</time>
      </trkpt>
      <trkpt lat="43.42296" lon="3.72497">
        <ele>48</ele>
        <time>2016-04-17T13:42:53.935Z</time>
      </trkpt>
      <trkpt lat="43.42298" lon="3.72509">
        <ele>49</ele>
        <time>2016-04-17T13:42:55.989Z</time>
      </trkpt>
      <trkpt lat="43.423" lon="3.72515">
        <ele>49</ele>
        <time>2016-04-17T13:42:56.935Z</time>
      </trkpt>
      <trkpt lat="43.42302" lon="3.72526">
        <ele>50</ele>
        <time>2016-04-17T13:42:58.963Z</time>
      </trkpt>
      <trkpt lat="43.42302" lon="3.72532">
        <ele>49</ele>
        <time>2016-04-17T13:42:59.936Z</time>
      </trkpt>
      <trkpt lat="43.42305" lon="3.72542">
        <ele>50</ele>
        <time>2016-04-17T13:43:01.965Z</time>
      </trkpt>
      <trkpt lat="43.42305" lon="3.72547">
        <ele>50</ele>
        <time>2016-04-17T13:43:02.936Z</time>
      </trkpt>
      <trkpt lat="43.42307" lon="3.72558">
        <ele>51</ele>
        <time>2016-04-17T13:43:04.964Z</time>
      </trkpt>
      <trkpt lat="43.42308" lon="3.72564">
        <ele>51</ele>
        <time>2016-04-17T13:43:05.939Z</time>
      </trkpt>
      <trkpt lat="43.4231" lon="3.72569">
        <ele>51</ele>
        <time>2016-04-17T13:43:06.962Z</time>
      </trkpt>
      <trkpt lat="43.42311" lon="3.72578">
        <ele>52</ele>
        <time>2016-04-17T13:43:07.933Z</time>
      </trkpt>
      <trkpt lat="43.42313" lon="3.72589">
        <ele>53</ele>
        <time>2016-04-17T13:43:09.966Z</time>
      </trkpt>
      <trkpt lat="43.42315" lon="3.72595">
        <ele>54</ele>
        <time>2016-04-17T13:43:10.938Z</time>
      </trkpt>
      <trkpt lat="43.42316" lon="3.72607">
        <ele>53</ele>
        <time>2016-04-17T13:43:12.968Z</time>
      </trkpt>
      <trkpt lat="43.42317" lon="3.72613">
        <ele>51</ele>
        <time>2016-04-17T13:43:13.936Z</time>
      </trkpt>
      <trkpt lat="43.42318" lon="3.72624">
        <ele>50</ele>
        <time>2016-04-17T13:43:15.963Z</time>
      </trkpt>
      <trkpt lat="43.42321" lon="3.7263">
        <ele>50</ele>
        <time>2016-04-17T13:43:16.936Z</time>
      </trkpt>
      <trkpt lat="43.42323" lon="3.72637">
        <ele>51</ele>
        <time>2016-04-17T13:43:17.964Z</time>
      </trkpt>
      <trkpt lat="43.42323" lon="3.72643">
        <ele>51</ele>
        <time>2016-04-17T13:43:18.936Z</time>
      </trkpt>
      <trkpt lat="43.42326" lon="3.72654">
        <ele>51</ele>
        <time>2016-04-17T13:43:20.943Z</time>
      </trkpt>
      <trkpt lat="43.42327" lon="3.7266">
        <ele>51</ele>
        <time>2016-04-17T13:43:21.922Z</time>
      </trkpt>
      <trkpt lat="43.42329" lon="3.72671">
        <ele>51</ele>
        <time>2016-04-17T13:43:23.962Z</time>
      </trkpt>
      <trkpt lat="43.42329" lon="3.72677">
        <ele>50</ele>
        <time>2016-04-17T13:43:24.938Z</time>
      </trkpt>
      <trkpt lat="43.42331" lon="3.72689">
        <ele>49</ele>
        <time>2016-04-17T13:43:26.965Z</time>
      </trkpt>
      <trkpt lat="43.42333" lon="3.72694">
        <ele>49</ele>
        <time>2016-04-17T13:43:27.936Z</time>
      </trkpt>
      <trkpt lat="43.42334" lon="3.727">
        <ele>49</ele>
        <time>2016-04-17T13:43:28.964Z</time>
      </trkpt>
      <trkpt lat="43.42335" lon="3.72706">
        <ele>50</ele>
        <time>2016-04-17T13:43:29.932Z</time>
      </trkpt>
      <trkpt lat="43.42336" lon="3.72713">
        <ele>50</ele>
        <time>2016-04-17T13:43:30.966Z</time>
      </trkpt>
      <trkpt lat="43.42338" lon="3.72719">
        <ele>50</ele>
        <time>2016-04-17T13:43:31.935Z</time>
      </trkpt>
      <trkpt lat="43.4234" lon="3.7273">
        <ele>49</ele>
        <time>2016-04-17T13:43:33.963Z</time>
      </trkpt>
      <trkpt lat="43.42342" lon="3.72738">
        <ele>48</ele>
        <time>2016-04-17T13:43:34.936Z</time>
      </trkpt>
      <trkpt lat="43.42343" lon="3.72745">
        <ele>47</ele>
        <time>2016-04-17T13:43:35.964Z</time>
      </trkpt>
      <trkpt lat="43.42345" lon="3.72752">
        <ele>48</ele>
        <time>2016-04-17T13:43:36.937Z</time>
      </trkpt>
      <trkpt lat="43.42345" lon="3.72758">
        <ele>48</ele>
        <time>2016-04-17T13:43:37.965Z</time>
      </trkpt>
      <trkpt lat="43.42346" lon="3.72764">
        <ele>47</ele>
        <time>2016-04-17T13:43:38.961Z</time>
      </trkpt>
      <trkpt lat="43.42348" lon="3.7277">
        <ele>48</ele>
        <time>2016-04-17T13:43:39.959Z</time>
      </trkpt>
      <trkpt lat="43.42349" lon="3.72776">
        <ele>48</ele>
        <time>2016-04-17T13:43:40.933Z</time>
      </trkpt>
      <trkpt lat="43.42352" lon="3.72788">
        <ele>48</ele>
        <time>2016-04-17T13:43:42.965Z</time>
      </trkpt>
      <trkpt lat="43.42354" lon="3.72793">
        <ele>49</ele>
        <time>2016-04-17T13:43:43.942Z</time>
      </trkpt>
      <trkpt lat="43.42357" lon="3.72803">
        <ele>51</ele>
        <time>2016-04-17T13:43:45.957Z</time>
      </trkpt>
      <trkpt lat="43.42358" lon="3.72809">
        <ele>51</ele>
        <time>2016-04-17T13:43:46.933Z</time>
      </trkpt>
      <trkpt lat="43.4236" lon="3.72819">
        <ele>52</ele>
        <time>2016-04-17T13:43:48.963Z</time>
      </trkpt>
      <trkpt lat="43.42361" lon="3.72825">
        <ele>52</ele>
        <time>2016-04-17T13:43:49.935Z</time>
      </trkpt>
      <trkpt lat="43.42361" lon="3.72832">
        <ele>52</ele>
        <time>2016-04-17T13:43:50.964Z</time>
      </trkpt>
      <trkpt lat="43.42362" lon="3.72837">
        <ele>52</ele>
        <time>2016-04-17T13:43:51.935Z</time>
      </trkpt>
      <trkpt lat="43.42365" lon="3.72847">
        <ele>54</ele>
        <time>2016-04-17T13:43:54.049Z</time>
      </trkpt>
      <trkpt lat="43.42366" lon="3.72853">
        <ele>54</ele>
        <time>2016-04-17T13:43:54.960Z</time>
      </trkpt>
      <trkpt lat="43.42367" lon="3.7286">
        <ele>55</ele>
        <time>2016-04-17T13:43:55.964Z</time>
      </trkpt>
      <trkpt lat="43.42369" lon="3.72866">
        <ele>55</ele>
        <time>2016-04-17T13:43:56.936Z</time>
      </trkpt>
      <trkpt lat="43.42371" lon="3.72872">
        <ele>55</ele>
        <time>2016-04-17T13:43:57.963Z</time>
      </trkpt>
      <trkpt lat="43.42371" lon="3.72878">
        <ele>56</ele>
        <time>2016-04-17T13:43:58.934Z</time>
      </trkpt>
      <trkpt lat="43.42373" lon="3.72889">
        <ele>56</ele>
        <time>2016-04-17T13:44:00.964Z</time>
      </trkpt>
      <trkpt lat="43.42374" lon="3.72895">
        <ele>56</ele>
        <time>2016-04-17T13:44:01.936Z</time>
      </trkpt>
      <trkpt lat="43.42375" lon="3.72905">
        <ele>56</ele>
        <time>2016-04-17T13:44:03.963Z</time>
      </trkpt>
      <trkpt lat="43.42377" lon="3.72911">
        <ele>55</ele>
        <time>2016-04-17T13:44:04.935Z</time>
      </trkpt>
      <trkpt lat="43.4238" lon="3.72921">
        <ele>55</ele>
        <time>2016-04-17T13:44:06.965Z</time>
      </trkpt>
      <trkpt lat="43.42382" lon="3.72927">
        <ele>54</ele>
        <time>2016-04-17T13:44:07.936Z</time>
      </trkpt>
      <trkpt lat="43.42384" lon="3.72938">
        <ele>53</ele>
        <time>2016-04-17T13:44:09.963Z</time>
      </trkpt>
      <trkpt lat="43.42385" lon="3.72945">
        <ele>52</ele>
        <time>2016-04-17T13:44:10.934Z</time>
      </trkpt>
      <trkpt lat="43.42388" lon="3.72956">
        <ele>53</ele>
        <time>2016-04-17T13:44:12.954Z</time>
      </trkpt>
      <trkpt lat="43.42388" lon="3.72961">
        <ele>53</ele>
        <time>2016-04-17T13:44:13.933Z</time>
      </trkpt>
      <trkpt lat="43.4239" lon="3.72973">
        <ele>54</ele>
        <time>2016-04-17T13:44:15.985Z</time>
      </trkpt>
      <trkpt lat="43.42393" lon="3.72979">
        <ele>53</ele>
        <time>2016-04-17T13:44:16.937Z</time>
      </trkpt>
      <trkpt lat="43.42395" lon="3.72989">
        <ele>52</ele>
        <time>2016-04-17T13:44:18.963Z</time>
      </trkpt>
      <trkpt lat="43.42397" lon="3.72994">
        <ele>52</ele>
        <time>2016-04-17T13:44:19.933Z</time>
      </trkpt>
      <trkpt lat="43.42399" lon="3.73003">
        <ele>51</ele>
        <time>2016-04-17T13:44:21.951Z</time>
      </trkpt>
      <trkpt lat="43.42399" lon="3.73008">
        <ele>51</ele>
        <time>2016-04-17T13:44:22.937Z</time>
      </trkpt>
      <trkpt lat="43.42405" lon="3.73017">
        <ele>52</ele>
        <time>2016-04-17T13:44:28.024Z</time>
      </trkpt>
      <trkpt lat="43.42406" lon="3.73017">
        <ele>52</ele>
        <time>2016-04-17T13:44:28.934Z</time>
      </trkpt>
      <trkpt lat="43.42412" lon="3.73011">
        <ele>52</ele>
        <time>2016-04-17T13:44:32.964Z</time>
      </trkpt>
      <trkpt lat="43.42414" lon="3.73008">
        <ele>52</ele>
        <time>2016-04-17T13:44:33.934Z</time>
      </trkpt>
      <trkpt lat="43.42419" lon="3.73003">
        <ele>52</ele>
        <time>2016-04-17T13:44:35.963Z</time>
      </trkpt>
      <trkpt lat="43.42421" lon="3.73">
        <ele>51</ele>
        <time>2016-04-17T13:44:36.931Z</time>
      </trkpt>
      <trkpt lat="43.42426" lon="3.72995">
        <ele>52</ele>
        <time>2016-04-17T13:44:38.968Z</time>
      </trkpt>
      <trkpt lat="43.42429" lon="3.72992">
        <ele>52</ele>
        <time>2016-04-17T13:44:39.935Z</time>
      </trkpt>
      <trkpt lat="43.42435" lon="3.72987">
        <ele>52</ele>
        <time>2016-04-17T13:44:41.966Z</time>
      </trkpt>
      <trkpt lat="43.42438" lon="3.72984">
        <ele>51</ele>
        <time>2016-04-17T13:44:42.936Z</time>
      </trkpt>
      <trkpt lat="43.42443" lon="3.72979">
        <ele>51</ele>
        <time>2016-04-17T13:44:44.963Z</time>
      </trkpt>
      <trkpt lat="43.42444" lon="3.72975">
        <ele>49</ele>
        <time>2016-04-17T13:44:45.932Z</time>
      </trkpt>
      <trkpt lat="43.42452" lon="3.72971">
        <ele>50</ele>
        <time>2016-04-17T13:44:48.964Z</time>
      </trkpt>
      <trkpt lat="43.42453" lon="3.7297">
        <ele>50</ele>
        <time>2016-04-17T13:44:49.934Z</time>
      </trkpt>
      <trkpt lat="43.42461" lon="3.72969">
        <ele>51</ele>
        <time>2016-04-17T13:44:53.966Z</time>
      </trkpt>
      <trkpt lat="43.42463" lon="3.72968">
        <ele>54</ele>
        <time>2016-04-17T13:44:54.934Z</time>
      </trkpt>
      <trkpt lat="43.42466" lon="3.72977">
        <ele>55</ele>
        <time>2016-04-17T13:44:57.966Z</time>
      </trkpt>
      <trkpt lat="43.42467" lon="3.72981">
        <ele>54</ele>
        <time>2016-04-17T13:44:58.936Z</time>
      </trkpt>
      <trkpt lat="43.4247" lon="3.72986">
        <ele>55</ele>
        <time>2016-04-17T13:44:59.964Z</time>
      </trkpt>
      <trkpt lat="43.42473" lon="3.72993">
        <ele>56</ele>
        <time>2016-04-17T13:45:00.935Z</time>
      </trkpt>
      <trkpt lat="43.42479" lon="3.73002">
        <ele>56</ele>
        <time>2016-04-17T13:45:02.965Z</time>
      </trkpt>
      <trkpt lat="43.42482" lon="3.73007">
        <ele>55</ele>
        <time>2016-04-17T13:45:03.961Z</time>
      </trkpt>
      <trkpt lat="43.42488" lon="3.73016">
        <ele>54</ele>
        <time>2016-04-17T13:45:05.967Z</time>
      </trkpt>
      <trkpt lat="43.4249" lon="3.7302">
        <ele>53</ele>
        <time>2016-04-17T13:45:06.938Z</time>
      </trkpt>
      <trkpt lat="43.42493" lon="3.73024">
        <ele>52</ele>
        <time>2016-04-17T13:45:07.967Z</time>
      </trkpt>
      <trkpt lat="43.42497" lon="3.73027">
        <ele>53</ele>
        <time>2016-04-17T13:45:08.935Z</time>
      </trkpt>
      <trkpt lat="43.42502" lon="3.73037">
        <ele>52</ele>
        <time>2016-04-17T13:45:10.965Z</time>
      </trkpt>
      <trkpt lat="43.42504" lon="3.73042">
        <ele>52</ele>
        <time>2016-04-17T13:45:11.935Z</time>
      </trkpt>
      <trkpt lat="43.42509" lon="3.7305">
        <ele>51</ele>
        <time>2016-04-17T13:45:13.966Z</time>
      </trkpt>
      <trkpt lat="43.42511" lon="3.73054">
        <ele>51</ele>
        <time>2016-04-17T13:45:14.935Z</time>
      </trkpt>
      <trkpt lat="43.42518" lon="3.73061">
        <ele>50</ele>
        <time>2016-04-17T13:45:16.965Z</time>
      </trkpt>
      <trkpt lat="43.4252" lon="3.73066">
        <ele>50</ele>
        <time>2016-04-17T13:45:17.935Z</time>
      </trkpt>
      <trkpt lat="43.42525" lon="3.73074">
        <ele>51</ele>
        <time>2016-04-17T13:45:19.985Z</time>
      </trkpt>
      <trkpt lat="43.42527" lon="3.73078">
        <ele>51</ele>
        <time>2016-04-17T13:45:20.936Z</time>
      </trkpt>
      <trkpt lat="43.42531" lon="3.73086">
        <ele>52</ele>
        <time>2016-04-17T13:45:22.971Z</time>
      </trkpt>
      <trkpt lat="43.42533" lon="3.73092">
        <ele>52</ele>
        <time>2016-04-17T13:45:23.935Z</time>
      </trkpt>
      <trkpt lat="43.42536" lon="3.73104">
        <ele>51</ele>
        <time>2016-04-17T13:45:25.997Z</time>
      </trkpt>
      <trkpt lat="43.42537" lon="3.73109">
        <ele>51</ele>
        <time>2016-04-17T13:45:26.936Z</time>
      </trkpt>
      <trkpt lat="43.42539" lon="3.73114">
        <ele>50</ele>
        <time>2016-04-17T13:45:27.967Z</time>
      </trkpt>
      <trkpt lat="43.42541" lon="3.73121">
        <ele>51</ele>
        <time>2016-04-17T13:45:28.936Z</time>
      </trkpt>
      <trkpt lat="43.42542" lon="3.73129">
        <ele>49</ele>
        <time>2016-04-17T13:45:29.967Z</time>
      </trkpt>
      <trkpt lat="43.42545" lon="3.73133">
        <ele>50</ele>
        <time>2016-04-17T13:45:30.963Z</time>
      </trkpt>
      <trkpt lat="43.42545" lon="3.73141">
        <ele>48</ele>
        <time>2016-04-17T13:45:31.967Z</time>
      </trkpt>
      <trkpt lat="43.42546" lon="3.73145">
        <ele>48</ele>
        <time>2016-04-17T13:45:32.936Z</time>
      </trkpt>
      <trkpt lat="43.42547" lon="3.73156">
        <ele>48</ele>
        <time>2016-04-17T13:45:34.964Z</time>
      </trkpt>
      <trkpt lat="43.42549" lon="3.73161">
        <ele>48</ele>
        <time>2016-04-17T13:45:35.936Z</time>
      </trkpt>
      <trkpt lat="43.42549" lon="3.7317">
        <ele>48</ele>
        <time>2016-04-17T13:45:37.964Z</time>
      </trkpt>
      <trkpt lat="43.42549" lon="3.73176">
        <ele>48</ele>
        <time>2016-04-17T13:45:38.935Z</time>
      </trkpt>
      <trkpt lat="43.42549" lon="3.73187">
        <ele>48</ele>
        <time>2016-04-17T13:45:40.965Z</time>
      </trkpt>
      <trkpt lat="43.4255" lon="3.73194">
        <ele>48</ele>
        <time>2016-04-17T13:45:41.936Z</time>
      </trkpt>
      <trkpt lat="43.42552" lon="3.73206">
        <ele>49</ele>
        <time>2016-04-17T13:45:43.966Z</time>
      </trkpt>
      <trkpt lat="43.42552" lon="3.73212">
        <ele>50</ele>
        <time>2016-04-17T13:45:44.934Z</time>
      </trkpt>
      <trkpt lat="43.42551" lon="3.73224">
        <ele>48</ele>
        <time>2016-04-17T13:45:46.990Z</time>
      </trkpt>
      <trkpt lat="43.42551" lon="3.73229">
        <ele>47</ele>
        <time>2016-04-17T13:45:47.935Z</time>
      </trkpt>
      <trkpt lat="43.42551" lon="3.73241">
        <ele>48</ele>
        <time>2016-04-17T13:45:49.964Z</time>
      </trkpt>
      <trkpt lat="43.42553" lon="3.73246">
        <ele>50</ele>
        <time>2016-04-17T13:45:50.935Z</time>
      </trkpt>
      <trkpt lat="43.42554" lon="3.73257">
        <ele>49</ele>
        <time>2016-04-17T13:45:52.967Z</time>
      </trkpt>
      <trkpt lat="43.42554" lon="3.73264">
        <ele>49</ele>
        <time>2016-04-17T13:45:53.935Z</time>
      </trkpt>
      <trkpt lat="43.42555" lon="3.7327">
        <ele>49</ele>
        <time>2016-04-17T13:45:54.969Z</time>
      </trkpt>
      <trkpt lat="43.42556" lon="3.73279">
        <ele>48</ele>
        <time>2016-04-17T13:45:55.936Z</time>
      </trkpt>
      <trkpt lat="43.42558" lon="3.73285">
        <ele>48</ele>
        <time>2016-04-17T13:45:56.964Z</time>
      </trkpt>
      <trkpt lat="43.42559" lon="3.73292">
        <ele>48</ele>
        <time>2016-04-17T13:45:57.962Z</time>
      </trkpt>
      <trkpt lat="43.4256" lon="3.73298">
        <ele>48</ele>
        <time>2016-04-17T13:45:58.965Z</time>
      </trkpt>
      <trkpt lat="43.42562" lon="3.73304">
        <ele>49</ele>
        <time>2016-04-17T13:45:59.936Z</time>
      </trkpt>
      <trkpt lat="43.42566" lon="3.73314">
        <ele>52</ele>
        <time>2016-04-17T13:46:01.965Z</time>
      </trkpt>
      <trkpt lat="43.42569" lon="3.73319">
        <ele>52</ele>
        <time>2016-04-17T13:46:02.935Z</time>
      </trkpt>
      <trkpt lat="43.42571" lon="3.73327">
        <ele>52</ele>
        <time>2016-04-17T13:46:03.964Z</time>
      </trkpt>
      <trkpt lat="43.42573" lon="3.73332">
        <ele>52</ele>
        <time>2016-04-17T13:46:04.937Z</time>
      </trkpt>
      <trkpt lat="43.42575" lon="3.73338">
        <ele>51</ele>
        <time>2016-04-17T13:46:05.958Z</time>
      </trkpt>
      <trkpt lat="43.42578" lon="3.73344">
        <ele>51</ele>
        <time>2016-04-17T13:46:06.938Z</time>
      </trkpt>
      <trkpt lat="43.42581" lon="3.7335">
        <ele>50</ele>
        <time>2016-04-17T13:46:07.965Z</time>
      </trkpt>
      <trkpt lat="43.42584" lon="3.73355">
        <ele>50</ele>
        <time>2016-04-17T13:46:08.936Z</time>
      </trkpt>
      <trkpt lat="43.42586" lon="3.73361">
        <ele>49</ele>
        <time>2016-04-17T13:46:09.965Z</time>
      </trkpt>
      <trkpt lat="43.42588" lon="3.73368">
        <ele>49</ele>
        <time>2016-04-17T13:46:10.934Z</time>
      </trkpt>
      <trkpt lat="43.42592" lon="3.73377">
        <ele>47</ele>
        <time>2016-04-17T13:46:13.031Z</time>
      </trkpt>
      <trkpt lat="43.42595" lon="3.73383">
        <ele>47</ele>
        <time>2016-04-17T13:46:13.963Z</time>
      </trkpt>
      <trkpt lat="43.42597" lon="3.7339">
        <ele>47</ele>
        <time>2016-04-17T13:46:14.964Z</time>
      </trkpt>
      <trkpt lat="43.42599" lon="3.73395">
        <ele>46</ele>
        <time>2016-04-17T13:46:15.936Z</time>
      </trkpt>
      <trkpt lat="43.42601" lon="3.73401">
        <ele>46</ele>
        <time>2016-04-17T13:46:16.964Z</time>
      </trkpt>
      <trkpt lat="43.42603" lon="3.73407">
        <ele>47</ele>
        <time>2016-04-17T13:46:17.937Z</time>
      </trkpt>
      <trkpt lat="43.42605" lon="3.73413">
        <ele>47</ele>
        <time>2016-04-17T13:46:18.967Z</time>
      </trkpt>
      <trkpt lat="43.42607" lon="3.73419">
        <ele>47</ele>
        <time>2016-04-17T13:46:19.937Z</time>
      </trkpt>
      <trkpt lat="43.42609" lon="3.73428">
        <ele>47</ele>
        <time>2016-04-17T13:46:20.971Z</time>
      </trkpt>
      <trkpt lat="43.42611" lon="3.73433">
        <ele>47</ele>
        <time>2016-04-17T13:46:21.935Z</time>
      </trkpt>
      <trkpt lat="43.42614" lon="3.73439">
        <ele>48</ele>
        <time>2016-04-17T13:46:22.969Z</time>
      </trkpt>
      <trkpt lat="43.42616" lon="3.73445">
        <ele>48</ele>
        <time>2016-04-17T13:46:23.937Z</time>
      </trkpt>
      <trkpt lat="43.42621" lon="3.73454">
        <ele>48</ele>
        <time>2016-04-17T13:46:25.966Z</time>
      </trkpt>
      <trkpt lat="43.42624" lon="3.73461">
        <ele>48</ele>
        <time>2016-04-17T13:46:26.936Z</time>
      </trkpt>
      <trkpt lat="43.42628" lon="3.73466">
        <ele>48</ele>
        <time>2016-04-17T13:46:27.965Z</time>
      </trkpt>
      <trkpt lat="43.42631" lon="3.73472">
        <ele>47</ele>
        <time>2016-04-17T13:46:28.936Z</time>
      </trkpt>
      <trkpt lat="43.42633" lon="3.73478">
        <ele>48</ele>
        <time>2016-04-17T13:46:29.989Z</time>
      </trkpt>
      <trkpt lat="43.42637" lon="3.73484">
        <ele>48</ele>
        <time>2016-04-17T13:46:30.936Z</time>
      </trkpt>
      <trkpt lat="43.4264" lon="3.7349">
        <ele>49</ele>
        <time>2016-04-17T13:46:31.963Z</time>
      </trkpt>
      <trkpt lat="43.42642" lon="3.73496">
        <ele>50</ele>
        <time>2016-04-17T13:46:32.937Z</time>
      </trkpt>
      <trkpt lat="43.42644" lon="3.73504">
        <ele>49</ele>
        <time>2016-04-17T13:46:34.100Z</time>
      </trkpt>
      <trkpt lat="43.42646" lon="3.73509">
        <ele>50</ele>
        <time>2016-04-17T13:46:34.937Z</time>
      </trkpt>
      <trkpt lat="43.42649" lon="3.73514">
        <ele>49</ele>
        <time>2016-04-17T13:46:35.958Z</time>
      </trkpt>
      <trkpt lat="43.42652" lon="3.7352">
        <ele>49</ele>
        <time>2016-04-17T13:46:36.936Z</time>
      </trkpt>
      <trkpt lat="43.42656" lon="3.7353">
        <ele>50</ele>
        <time>2016-04-17T13:46:38.940Z</time>
      </trkpt>
      <trkpt lat="43.42659" lon="3.73537">
        <ele>49</ele>
        <time>2016-04-17T13:46:39.934Z</time>
      </trkpt>
      <trkpt lat="43.42661" lon="3.73542">
        <ele>50</ele>
        <time>2016-04-17T13:46:40.964Z</time>
      </trkpt>
      <trkpt lat="43.42663" lon="3.73551">
        <ele>50</ele>
        <time>2016-04-17T13:46:41.935Z</time>
      </trkpt>
      <trkpt lat="43.42666" lon="3.73558">
        <ele>50</ele>
        <time>2016-04-17T13:46:42.964Z</time>
      </trkpt>
      <trkpt lat="43.42669" lon="3.73564">
        <ele>49</ele>
        <time>2016-04-17T13:46:43.954Z</time>
      </trkpt>
      <trkpt lat="43.42671" lon="3.7357">
        <ele>49</ele>
        <time>2016-04-17T13:46:44.970Z</time>
      </trkpt>
      <trkpt lat="43.42674" lon="3.73575">
        <ele>49</ele>
        <time>2016-04-17T13:46:45.963Z</time>
      </trkpt>
      <trkpt lat="43.42675" lon="3.73585">
        <ele>48</ele>
        <time>2016-04-17T13:46:46.967Z</time>
      </trkpt>
      <trkpt lat="43.42676" lon="3.73591">
        <ele>48</ele>
        <time>2016-04-17T13:46:47.935Z</time>
      </trkpt>
      <trkpt lat="43.42681" lon="3.73601">
        <ele>49</ele>
        <time>2016-04-17T13:46:49.966Z</time>
      </trkpt>
      <trkpt lat="43.42683" lon="3.73606">
        <ele>48</ele>
        <time>2016-04-17T13:46:50.936Z</time>
      </trkpt>
      <trkpt lat="43.42686" lon="3.73612">
        <ele>48</ele>
        <time>2016-04-17T13:46:51.960Z</time>
      </trkpt>
      <trkpt lat="43.42689" lon="3.73621">
        <ele>45</ele>
        <time>2016-04-17T13:46:52.936Z</time>
      </trkpt>
      <trkpt lat="43.42692" lon="3.73626">
        <ele>46</ele>
        <time>2016-04-17T13:46:53.965Z</time>
      </trkpt>
      <trkpt lat="43.42694" lon="3.73632">
        <ele>44</ele>
        <time>2016-04-17T13:46:54.936Z</time>
      </trkpt>
      <trkpt lat="43.42699" lon="3.73641">
        <ele>45</ele>
        <time>2016-04-17T13:46:56.966Z</time>
      </trkpt>
      <trkpt lat="43.42701" lon="3.73646">
        <ele>44</ele>
        <time>2016-04-17T13:46:57.935Z</time>
      </trkpt>
      <trkpt lat="43.42706" lon="3.73653">
        <ele>45</ele>
        <time>2016-04-17T13:46:59.966Z</time>
      </trkpt>
      <trkpt lat="43.42709" lon="3.73657">
        <ele>45</ele>
        <time>2016-04-17T13:47:00.936Z</time>
      </trkpt>
      <trkpt lat="43.42714" lon="3.73667">
        <ele>45</ele>
        <time>2016-04-17T13:47:02.965Z</time>
      </trkpt>
      <trkpt lat="43.42716" lon="3.73673">
        <ele>45</ele>
        <time>2016-04-17T13:47:03.936Z</time>
      </trkpt>
      <trkpt lat="43.4272" lon="3.73677">
        <ele>44</ele>
        <time>2016-04-17T13:47:04.965Z</time>
      </trkpt>
      <trkpt lat="43.42723" lon="3.73682">
        <ele>45</ele>
        <time>2016-04-17T13:47:05.935Z</time>
      </trkpt>
      <trkpt lat="43.42727" lon="3.73686">
        <ele>45</ele>
        <time>2016-04-17T13:47:06.964Z</time>
      </trkpt>
      <trkpt lat="43.42731" lon="3.7369">
        <ele>44</ele>
        <time>2016-04-17T13:47:07.936Z</time>
      </trkpt>
      <trkpt lat="43.42735" lon="3.73694">
        <ele>45</ele>
        <time>2016-04-17T13:47:08.966Z</time>
      </trkpt>
      <trkpt lat="43.42738" lon="3.73699">
        <ele>46</ele>
        <time>2016-04-17T13:47:09.936Z</time>
      </trkpt>
      <trkpt lat="43.42744" lon="3.73705">
        <ele>48</ele>
        <time>2016-04-17T13:47:11.943Z</time>
      </trkpt>
      <trkpt lat="43.42747" lon="3.73708">
        <ele>49</ele>
        <time>2016-04-17T13:47:12.936Z</time>
      </trkpt>
      <trkpt lat="43.42754" lon="3.73714">
        <ele>50</ele>
        <time>2016-04-17T13:47:14.963Z</time>
      </trkpt>
      <trkpt lat="43.42758" lon="3.73718">
        <ele>49</ele>
        <time>2016-04-17T13:47:15.940Z</time>
      </trkpt>
      <trkpt lat="43.42761" lon="3.73722">
        <ele>49</ele>
        <time>2016-04-17T13:47:17.096Z</time>
      </trkpt>
      <trkpt lat="43.42766" lon="3.73725">
        <ele>48</ele>
        <time>2016-04-17T13:47:17.968Z</time>
      </trkpt>
      <trkpt lat="43.4277" lon="3.73729">
        <ele>47</ele>
        <time>2016-04-17T13:47:18.970Z</time>
      </trkpt>
      <trkpt lat="43.42775" lon="3.73739">
        <ele>45</ele>
        <time>2016-04-17T13:47:19.933Z</time>
      </trkpt>
      <trkpt lat="43.42779" lon="3.73742">
        <ele>46</ele>
        <time>2016-04-17T13:47:20.968Z</time>
      </trkpt>
      <trkpt lat="43.42783" lon="3.73743">
        <ele>46</ele>
        <time>2016-04-17T13:47:21.938Z</time>
      </trkpt>
      <trkpt lat="43.4279" lon="3.73743">
        <ele>47</ele>
        <time>2016-04-17T13:47:23.965Z</time>
      </trkpt>
      <trkpt lat="43.42794" lon="3.73746">
        <ele>46</ele>
        <time>2016-04-17T13:47:24.935Z</time>
      </trkpt>
      <trkpt lat="43.42799" lon="3.73752">
        <ele>46</ele>
        <time>2016-04-17T13:47:25.964Z</time>
      </trkpt>
      <trkpt lat="43.42803" lon="3.73755">
        <ele>46</ele>
        <time>2016-04-17T13:47:26.936Z</time>
      </trkpt>
      <trkpt lat="43.4281" lon="3.73761">
        <ele>47</ele>
        <time>2016-04-17T13:47:28.965Z</time>
      </trkpt>
      <trkpt lat="43.42814" lon="3.73765">
        <ele>47</ele>
        <time>2016-04-17T13:47:29.937Z</time>
      </trkpt>
      <trkpt lat="43.42821" lon="3.73771">
        <ele>47</ele>
        <time>2016-04-17T13:47:31.964Z</time>
      </trkpt>
      <trkpt lat="43.42825" lon="3.73775">
        <ele>46</ele>
        <time>2016-04-17T13:47:32.936Z</time>
      </trkpt>
      <trkpt lat="43.42832" lon="3.73781">
        <ele>46</ele>
        <time>2016-04-17T13:47:34.964Z</time>
      </trkpt>
      <trkpt lat="43.42834" lon="3.73784">
        <ele>46</ele>
        <time>2016-04-17T13:47:35.936Z</time>
      </trkpt>
      <trkpt lat="43.4284" lon="3.73792">
        <ele>47</ele>
        <time>2016-04-17T13:47:37.962Z</time>
      </trkpt>
      <trkpt lat="43.42843" lon="3.73796">
        <ele>48</ele>
        <time>2016-04-17T13:47:38.964Z</time>
      </trkpt>
      <trkpt lat="43.42848" lon="3.73806">
        <ele>48</ele>
        <time>2016-04-17T13:47:40.963Z</time>
      </trkpt>
      <trkpt lat="43.4285" lon="3.73808">
        <ele>49</ele>
        <time>2016-04-17T13:47:41.935Z</time>
      </trkpt>
      <trkpt lat="43.42855" lon="3.73816">
        <ele>49</ele>
        <time>2016-04-17T13:47:43.964Z</time>
      </trkpt>
      <trkpt lat="43.42857" lon="3.7382">
        <ele>49</ele>
        <time>2016-04-17T13:47:44.936Z</time>
      </trkpt>
      <trkpt lat="43.42861" lon="3.7383">
        <ele>49</ele>
        <time>2016-04-17T13:47:46.964Z</time>
      </trkpt>
      <trkpt lat="43.42863" lon="3.73833">
        <ele>51</ele>
        <time>2016-04-17T13:47:47.936Z</time>
      </trkpt>
      <trkpt lat="43.42869" lon="3.7384">
        <ele>50</ele>
        <time>2016-04-17T13:47:49.989Z</time>
      </trkpt>
      <trkpt lat="43.42872" lon="3.73844">
        <ele>50</ele>
        <time>2016-04-17T13:47:50.935Z</time>
      </trkpt>
      <trkpt lat="43.42875" lon="3.73849">
        <ele>50</ele>
        <time>2016-04-17T13:47:51.962Z</time>
      </trkpt>
      <trkpt lat="43.42879" lon="3.73853">
        <ele>51</ele>
        <time>2016-04-17T13:47:52.935Z</time>
      </trkpt>
      <trkpt lat="43.42882" lon="3.73858">
        <ele>51</ele>
        <time>2016-04-17T13:47:53.964Z</time>
      </trkpt>
      <trkpt lat="43.42885" lon="3.73863">
        <ele>50</ele>
        <time>2016-04-17T13:47:54.935Z</time>
      </trkpt>
      <trkpt lat="43.42891" lon="3.73869">
        <ele>52</ele>
        <time>2016-04-17T13:47:56.965Z</time>
      </trkpt>
      <trkpt lat="43.42893" lon="3.73873">
        <ele>53</ele>
        <time>2016-04-17T13:47:57.934Z</time>
      </trkpt>
      <trkpt lat="43.429" lon="3.73879">
        <ele>52</ele>
        <time>2016-04-17T13:47:59.964Z</time>
      </trkpt>
      <trkpt lat="43.42903" lon="3.73883">
        <ele>52</ele>
        <time>2016-04-17T13:48:00.935Z</time>
      </trkpt>
      <trkpt lat="43.42907" lon="3.73888">
        <ele>53</ele>
        <time>2016-04-17T13:48:01.968Z</time>
      </trkpt>
      <trkpt lat="43.42909" lon="3.73893">
        <ele>53</ele>
        <time>2016-04-17T13:48:02.935Z</time>
      </trkpt>
      <trkpt lat="43.42912" lon="3.73898">
        <ele>53</ele>
        <time>2016-04-17T13:48:03.962Z</time>
      </trkpt>
      <trkpt lat="43.42916" lon="3.73903">
        <ele>54</ele>
        <time>2016-04-17T13:48:04.936Z</time>
      </trkpt>
      <trkpt lat="43.4292" lon="3.73906">
        <ele>53</ele>
        <time>2016-04-17T13:48:05.992Z</time>
      </trkpt>
      <trkpt lat="43.42924" lon="3.73909">
        <ele>53</ele>
        <time>2016-04-17T13:48:06.935Z</time>
      </trkpt>
      <trkpt lat="43.42932" lon="3.73914">
        <ele>53</ele>
        <time>2016-04-17T13:48:08.963Z</time>
      </trkpt>
      <trkpt lat="43.42932" lon="3.73924">
        <ele>48</ele>
        <time>2016-04-17T13:48:09.934Z</time>
      </trkpt>
      <trkpt lat="43.42938" lon="3.73925">
        <ele>49</ele>
        <time>2016-04-17T13:48:11.036Z</time>
      </trkpt>
      <trkpt lat="43.42943" lon="3.73928">
        <ele>49</ele>
        <time>2016-04-17T13:48:11.935Z</time>
      </trkpt>
      <trkpt lat="43.42947" lon="3.73931">
        <ele>48</ele>
        <time>2016-04-17T13:48:12.963Z</time>
      </trkpt>
      <trkpt lat="43.42952" lon="3.73934">
        <ele>49</ele>
        <time>2016-04-17T13:48:13.935Z</time>
      </trkpt>
      <trkpt lat="43.42956" lon="3.73943">
        <ele>46</ele>
        <time>2016-04-17T13:48:14.964Z</time>
      </trkpt>
      <trkpt lat="43.42961" lon="3.73944">
        <ele>47</ele>
        <time>2016-04-17T13:48:15.934Z</time>
      </trkpt>
      <trkpt lat="43.42966" lon="3.73947">
        <ele>46</ele>
        <time>2016-04-17T13:48:16.966Z</time>
      </trkpt>
      <trkpt lat="43.4297" lon="3.73948">
        <ele>47</ele>
        <time>2016-04-17T13:48:17.935Z</time>
      </trkpt>
      <trkpt lat="43.42975" lon="3.73949">
        <ele>46</ele>
        <time>2016-04-17T13:48:18.969Z</time>
      </trkpt>
      <trkpt lat="43.4298" lon="3.7395">
        <ele>47</ele>
        <time>2016-04-17T13:48:19.938Z</time>
      </trkpt>
      <trkpt lat="43.42988" lon="3.73953">
        <ele>46</ele>
        <time>2016-04-17T13:48:21.988Z</time>
      </trkpt>
      <trkpt lat="43.42991" lon="3.73954">
        <ele>46</ele>
        <time>2016-04-17T13:48:22.936Z</time>
      </trkpt>
      <trkpt lat="43.42999" lon="3.73958">
        <ele>47</ele>
        <time>2016-04-17T13:48:24.963Z</time>
      </trkpt>
      <trkpt lat="43.43002" lon="3.7396">
        <ele>48</ele>
        <time>2016-04-17T13:48:25.935Z</time>
      </trkpt>
      <trkpt lat="43.43006" lon="3.73961">
        <ele>48</ele>
        <time>2016-04-17T13:48:26.964Z</time>
      </trkpt>
      <trkpt lat="43.43011" lon="3.73965">
        <ele>49</ele>
        <time>2016-04-17T13:48:27.935Z</time>
      </trkpt>
      <trkpt lat="43.43018" lon="3.73968">
        <ele>50</ele>
        <time>2016-04-17T13:48:29.959Z</time>
      </trkpt>
      <trkpt lat="43.43024" lon="3.73974">
        <ele>50</ele>
        <time>2016-04-17T13:48:30.936Z</time>
      </trkpt>
      <trkpt lat="43.43033" lon="3.73975">
        <ele>51</ele>
        <time>2016-04-17T13:48:32.964Z</time>
      </trkpt>
      <trkpt lat="43.43037" lon="3.7398">
        <ele>50</ele>
        <time>2016-04-17T13:48:33.936Z</time>
      </trkpt>
      <trkpt lat="43.43041" lon="3.73982">
        <ele>51</ele>
        <time>2016-04-17T13:48:34.963Z</time>
      </trkpt>
      <trkpt lat="43.43044" lon="3.73987">
        <ele>49</ele>
        <time>2016-04-17T13:48:35.936Z</time>
      </trkpt>
      <trkpt lat="43.43051" lon="3.73992">
        <ele>49</ele>
        <time>2016-04-17T13:48:37.993Z</time>
      </trkpt>
      <trkpt lat="43.43054" lon="3.73994">
        <ele>49</ele>
        <time>2016-04-17T13:48:38.936Z</time>
      </trkpt>
      <trkpt lat="43.43063" lon="3.73996">
        <ele>50</ele>
        <time>2016-04-17T13:48:41.098Z</time>
      </trkpt>
      <trkpt lat="43.43067" lon="3.73999">
        <ele>50</ele>
        <time>2016-04-17T13:48:41.936Z</time>
      </trkpt>
      <trkpt lat="43.43075" lon="3.73999">
        <ele>54</ele>
        <time>2016-04-17T13:48:43.963Z</time>
      </trkpt>
      <trkpt lat="43.43078" lon="3.74003">
        <ele>53</ele>
        <time>2016-04-17T13:48:44.935Z</time>
      </trkpt>
      <trkpt lat="43.43086" lon="3.74003">
        <ele>52</ele>
        <time>2016-04-17T13:48:46.963Z</time>
      </trkpt>
      <trkpt lat="43.43088" lon="3.74004">
        <ele>51</ele>
        <time>2016-04-17T13:48:47.936Z</time>
      </trkpt>
      <trkpt lat="43.43096" lon="3.74007">
        <ele>49</ele>
        <time>2016-04-17T13:48:50.028Z</time>
      </trkpt>
      <trkpt lat="43.431" lon="3.74006">
        <ele>48</ele>
        <time>2016-04-17T13:48:50.936Z</time>
      </trkpt>
      <trkpt lat="43.43107" lon="3.74003">
        <ele>48</ele>
        <time>2016-04-17T13:48:52.957Z</time>
      </trkpt>
      <trkpt lat="43.4311" lon="3.74001">
        <ele>48</ele>
        <time>2016-04-17T13:48:53.935Z</time>
      </trkpt>
      <trkpt lat="43.43116" lon="3.73997">
        <ele>48</ele>
        <time>2016-04-17T13:48:55.964Z</time>
      </trkpt>
      <trkpt lat="43.43118" lon="3.73995">
        <ele>49</ele>
        <time>2016-04-17T13:48:56.935Z</time>
      </trkpt>
      <trkpt lat="43.43125" lon="3.73994">
        <ele>50</ele>
        <time>2016-04-17T13:48:58.963Z</time>
      </trkpt>
      <trkpt lat="43.43128" lon="3.73992">
        <ele>50</ele>
        <time>2016-04-17T13:48:59.937Z</time>
      </trkpt>
      <trkpt lat="43.43137" lon="3.73994">
        <ele>49</ele>
        <time>2016-04-17T13:49:01.962Z</time>
      </trkpt>
      <trkpt lat="43.4314" lon="3.73996">
        <ele>49</ele>
        <time>2016-04-17T13:49:02.936Z</time>
      </trkpt>
      <trkpt lat="43.43148" lon="3.74001">
        <ele>48</ele>
        <time>2016-04-17T13:49:04.987Z</time>
      </trkpt>
      <trkpt lat="43.43152" lon="3.74001">
        <ele>49</ele>
        <time>2016-04-17T13:49:05.935Z</time>
      </trkpt>
      <trkpt lat="43.43158" lon="3.74005">
        <ele>51</ele>
        <time>2016-04-17T13:49:07.963Z</time>
      </trkpt>
      <trkpt lat="43.43161" lon="3.74007">
        <ele>51</ele>
        <time>2016-04-17T13:49:08.936Z</time>
      </trkpt>
      <trkpt lat="43.43164" lon="3.74011">
        <ele>51</ele>
        <time>2016-04-17T13:49:09.963Z</time>
      </trkpt>
      <trkpt lat="43.43167" lon="3.74017">
        <ele>51</ele>
        <time>2016-04-17T13:49:10.935Z</time>
      </trkpt>
      <trkpt lat="43.43173" lon="3.74022">
        <ele>51</ele>
        <time>2016-04-17T13:49:12.963Z</time>
      </trkpt>
      <trkpt lat="43.43176" lon="3.74024">
        <ele>52</ele>
        <time>2016-04-17T13:49:13.934Z</time>
      </trkpt>
      <trkpt lat="43.43178" lon="3.74034">
        <ele>50</ele>
        <time>2016-04-17T13:49:15.965Z</time>
      </trkpt>
      <trkpt lat="43.43179" lon="3.74037">
        <ele>50</ele>
        <time>2016-04-17T13:49:16.933Z</time>
      </trkpt>
      <trkpt lat="43.43184" lon="3.74044">
        <ele>49</ele>
        <time>2016-04-17T13:49:18.966Z</time>
      </trkpt>
      <trkpt lat="43.43186" lon="3.74047">
        <ele>48</ele>
        <time>2016-04-17T13:49:19.936Z</time>
      </trkpt>
      <trkpt lat="43.4319" lon="3.74051">
        <ele>47</ele>
        <time>2016-04-17T13:49:20.984Z</time>
      </trkpt>
      <trkpt lat="43.43193" lon="3.74056">
        <ele>48</ele>
        <time>2016-04-17T13:49:21.935Z</time>
      </trkpt>
      <trkpt lat="43.43195" lon="3.74062">
        <ele>47</ele>
        <time>2016-04-17T13:49:22.961Z</time>
      </trkpt>
      <trkpt lat="43.43197" lon="3.74068">
        <ele>48</ele>
        <time>2016-04-17T13:49:23.935Z</time>
      </trkpt>
      <trkpt lat="43.432" lon="3.74071">
        <ele>48</ele>
        <time>2016-04-17T13:49:24.963Z</time>
      </trkpt>
      <trkpt lat="43.43203" lon="3.74077">
        <ele>47</ele>
        <time>2016-04-17T13:49:25.934Z</time>
      </trkpt>
      <trkpt lat="43.4321" lon="3.74084">
        <ele>49</ele>
        <time>2016-04-17T13:49:27.964Z</time>
      </trkpt>
      <trkpt lat="43.43213" lon="3.74087">
        <ele>49</ele>
        <time>2016-04-17T13:49:28.935Z</time>
      </trkpt>
      <trkpt lat="43.43217" lon="3.74096">
        <ele>49</ele>
        <time>2016-04-17T13:49:30.964Z</time>
      </trkpt>
      <trkpt lat="43.43221" lon="3.74099">
        <ele>49</ele>
        <time>2016-04-17T13:49:31.934Z</time>
      </trkpt>
      <trkpt lat="43.43225" lon="3.74103">
        <ele>51</ele>
        <time>2016-04-17T13:49:32.958Z</time>
      </trkpt>
      <trkpt lat="43.43228" lon="3.74107">
        <ele>52</ele>
        <time>2016-04-17T13:49:33.934Z</time>
      </trkpt>
      <trkpt lat="43.43232" lon="3.74118">
        <ele>51</ele>
        <time>2016-04-17T13:49:35.966Z</time>
      </trkpt>
      <trkpt lat="43.43235" lon="3.74123">
        <ele>50</ele>
        <time>2016-04-17T13:49:36.960Z</time>
      </trkpt>
      <trkpt lat="43.43242" lon="3.74129">
        <ele>50</ele>
        <time>2016-04-17T13:49:38.963Z</time>
      </trkpt>
      <trkpt lat="43.43245" lon="3.74134">
        <ele>49</ele>
        <time>2016-04-17T13:49:39.933Z</time>
      </trkpt>
      <trkpt lat="43.43249" lon="3.74139">
        <ele>49</ele>
        <time>2016-04-17T13:49:40.961Z</time>
      </trkpt>
      <trkpt lat="43.43252" lon="3.74143">
        <ele>49</ele>
        <time>2016-04-17T13:49:41.935Z</time>
      </trkpt>
      <trkpt lat="43.43254" lon="3.7415">
        <ele>48</ele>
        <time>2016-04-17T13:49:42.963Z</time>
      </trkpt>
      <trkpt lat="43.43257" lon="3.74156">
        <ele>49</ele>
        <time>2016-04-17T13:49:43.935Z</time>
      </trkpt>
      <trkpt lat="43.4326" lon="3.74162">
        <ele>49</ele>
        <time>2016-04-17T13:49:44.963Z</time>
      </trkpt>
      <trkpt lat="43.43263" lon="3.74167">
        <ele>50</ele>
        <time>2016-04-17T13:49:45.937Z</time>
      </trkpt>
      <trkpt lat="43.43266" lon="3.74172">
        <ele>50</ele>
        <time>2016-04-17T13:49:46.964Z</time>
      </trkpt>
      <trkpt lat="43.4327" lon="3.74177">
        <ele>50</ele>
        <time>2016-04-17T13:49:47.936Z</time>
      </trkpt>
      <trkpt lat="43.43272" lon="3.74183">
        <ele>50</ele>
        <time>2016-04-17T13:49:48.964Z</time>
      </trkpt>
      <trkpt lat="43.43276" lon="3.74188">
        <ele>50</ele>
        <time>2016-04-17T13:49:49.934Z</time>
      </trkpt>
      <trkpt lat="43.43281" lon="3.74196">
        <ele>50</ele>
        <time>2016-04-17T13:49:51.963Z</time>
      </trkpt>
      <trkpt lat="43.43284" lon="3.74201">
        <ele>50</ele>
        <time>2016-04-17T13:49:52.960Z</time>
      </trkpt>
      <trkpt lat="43.43291" lon="3.74208">
        <ele>51</ele>
        <time>2016-04-17T13:49:55.093Z</time>
      </trkpt>
      <trkpt lat="43.43294" lon="3.74213">
        <ele>51</ele>
        <time>2016-04-17T13:49:55.934Z</time>
      </trkpt>
      <trkpt lat="43.43297" lon="3.74216">
        <ele>51</ele>
        <time>2016-04-17T13:49:56.963Z</time>
      </trkpt>
      <trkpt lat="43.43301" lon="3.7422">
        <ele>50</ele>
        <time>2016-04-17T13:49:57.934Z</time>
      </trkpt>
      <trkpt lat="43.43307" lon="3.74228">
        <ele>50</ele>
        <time>2016-04-17T13:49:59.963Z</time>
      </trkpt>
      <trkpt lat="43.4331" lon="3.74232">
        <ele>50</ele>
        <time>2016-04-17T13:50:00.935Z</time>
      </trkpt>
      <trkpt lat="43.43318" lon="3.74239">
        <ele>52</ele>
        <time>2016-04-17T13:50:02.965Z</time>
      </trkpt>
      <trkpt lat="43.4332" lon="3.7424">
        <ele>52</ele>
        <time>2016-04-17T13:50:03.935Z</time>
      </trkpt>
      <trkpt lat="43.43326" lon="3.74247">
        <ele>51</ele>
        <time>2016-04-17T13:50:05.964Z</time>
      </trkpt>
      <trkpt lat="43.4333" lon="3.74249">
        <ele>52</ele>
        <time>2016-04-17T13:50:06.935Z</time>
      </trkpt>
      <trkpt lat="43.43333" lon="3.74254">
        <ele>51</ele>
        <time>2016-04-17T13:50:07.963Z</time>
      </trkpt>
      <trkpt lat="43.43337" lon="3.74258">
        <ele>52</ele>
        <time>2016-04-17T13:50:08.961Z</time>
      </trkpt>
      <trkpt lat="43.4334" lon="3.74262">
        <ele>52</ele>
        <time>2016-04-17T13:50:10.029Z</time>
      </trkpt>
      <trkpt lat="43.43344" lon="3.74267">
        <ele>51</ele>
        <time>2016-04-17T13:50:10.934Z</time>
      </trkpt>
      <trkpt lat="43.43351" lon="3.74272">
        <ele>52</ele>
        <time>2016-04-17T13:50:12.962Z</time>
      </trkpt>
      <trkpt lat="43.43352" lon="3.7428">
        <ele>49</ele>
        <time>2016-04-17T13:50:13.936Z</time>
      </trkpt>
      <trkpt lat="43.43359" lon="3.74285">
        <ele>51</ele>
        <time>2016-04-17T13:50:15.970Z</time>
      </trkpt>
      <trkpt lat="43.43361" lon="3.74289">
        <ele>50</ele>
        <time>2016-04-17T13:50:16.934Z</time>
      </trkpt>
      <trkpt lat="43.43369" lon="3.74294">
        <ele>51</ele>
        <time>2016-04-17T13:50:18.969Z</time>
      </trkpt>
      <trkpt lat="43.43372" lon="3.74297">
        <ele>51</ele>
        <time>2016-04-17T13:50:19.935Z</time>
      </trkpt>
      <trkpt lat="43.43378" lon="3.74305">
        <ele>51</ele>
        <time>2016-04-17T13:50:21.962Z</time>
      </trkpt>
      <trkpt lat="43.4338" lon="3.74309">
        <ele>51</ele>
        <time>2016-04-17T13:50:22.935Z</time>
      </trkpt>
      <trkpt lat="43.43384" lon="3.74314">
        <ele>51</ele>
        <time>2016-04-17T13:50:23.963Z</time>
      </trkpt>
      <trkpt lat="43.43387" lon="3.74319">
        <ele>51</ele>
        <time>2016-04-17T13:50:24.935Z</time>
      </trkpt>
      <trkpt lat="43.43394" lon="3.74325">
        <ele>51</ele>
        <time>2016-04-17T13:50:26.964Z</time>
      </trkpt>
      <trkpt lat="43.43397" lon="3.74329">
        <ele>50</ele>
        <time>2016-04-17T13:50:27.936Z</time>
      </trkpt>
      <trkpt lat="43.434" lon="3.74333">
        <ele>50</ele>
        <time>2016-04-17T13:50:28.962Z</time>
      </trkpt>
      <trkpt lat="43.43403" lon="3.74341">
        <ele>48</ele>
        <time>2016-04-17T13:50:29.961Z</time>
      </trkpt>
      <trkpt lat="43.43409" lon="3.7435">
        <ele>47</ele>
        <time>2016-04-17T13:50:31.963Z</time>
      </trkpt>
      <trkpt lat="43.43413" lon="3.74354">
        <ele>47</ele>
        <time>2016-04-17T13:50:32.936Z</time>
      </trkpt>
      <trkpt lat="43.43419" lon="3.74362">
        <ele>47</ele>
        <time>2016-04-17T13:50:34.965Z</time>
      </trkpt>
      <trkpt lat="43.43422" lon="3.74365">
        <ele>49</ele>
        <time>2016-04-17T13:50:35.936Z</time>
      </trkpt>
      <trkpt lat="43.43426" lon="3.74369">
        <ele>49</ele>
        <time>2016-04-17T13:50:36.964Z</time>
      </trkpt>
      <trkpt lat="43.43429" lon="3.74375">
        <ele>47</ele>
        <time>2016-04-17T13:50:37.934Z</time>
      </trkpt>
      <trkpt lat="43.43436" lon="3.7438">
        <ele>47</ele>
        <time>2016-04-17T13:50:39.966Z</time>
      </trkpt>
      <trkpt lat="43.4344" lon="3.74383">
        <ele>47</ele>
        <time>2016-04-17T13:50:40.935Z</time>
      </trkpt>
      <trkpt lat="43.43445" lon="3.74385">
        <ele>47</ele>
        <time>2016-04-17T13:50:41.963Z</time>
      </trkpt>
      <trkpt lat="43.43448" lon="3.74388">
        <ele>48</ele>
        <time>2016-04-17T13:50:42.935Z</time>
      </trkpt>
      <trkpt lat="43.43453" lon="3.74391">
        <ele>47</ele>
        <time>2016-04-17T13:50:43.956Z</time>
      </trkpt>
      <trkpt lat="43.43456" lon="3.74398">
        <ele>46</ele>
        <time>2016-04-17T13:50:44.933Z</time>
      </trkpt>
      <trkpt lat="43.43464" lon="3.74404">
        <ele>47</ele>
        <time>2016-04-17T13:50:46.965Z</time>
      </trkpt>
      <trkpt lat="43.43469" lon="3.74406">
        <ele>48</ele>
        <time>2016-04-17T13:50:47.935Z</time>
      </trkpt>
      <trkpt lat="43.43476" lon="3.7441">
        <ele>48</ele>
        <time>2016-04-17T13:50:49.966Z</time>
      </trkpt>
      <trkpt lat="43.43481" lon="3.74411">
        <ele>48</ele>
        <time>2016-04-17T13:50:50.935Z</time>
      </trkpt>
      <trkpt lat="43.43489" lon="3.74411">
        <ele>47</ele>
        <time>2016-04-17T13:50:52.963Z</time>
      </trkpt>
      <trkpt lat="43.43492" lon="3.74411">
        <ele>45</ele>
        <time>2016-04-17T13:50:53.934Z</time>
      </trkpt>
      <trkpt lat="43.43501" lon="3.74409">
        <ele>46</ele>
        <time>2016-04-17T13:50:55.964Z</time>
      </trkpt>
      <trkpt lat="43.43505" lon="3.74409">
        <ele>45</ele>
        <time>2016-04-17T13:50:56.936Z</time>
      </trkpt>
      <trkpt lat="43.43509" lon="3.74409">
        <ele>45</ele>
        <time>2016-04-17T13:50:57.965Z</time>
      </trkpt>
      <trkpt lat="43.43514" lon="3.74411">
        <ele>45</ele>
        <time>2016-04-17T13:50:58.937Z</time>
      </trkpt>
      <trkpt lat="43.43519" lon="3.74411">
        <ele>46</ele>
        <time>2016-04-17T13:50:59.966Z</time>
      </trkpt>
      <trkpt lat="43.43523" lon="3.74411">
        <ele>47</ele>
        <time>2016-04-17T13:51:00.937Z</time>
      </trkpt>
      <trkpt lat="43.43532" lon="3.74409">
        <ele>46</ele>
        <time>2016-04-17T13:51:02.963Z</time>
      </trkpt>
      <trkpt lat="43.43536" lon="3.74408">
        <ele>45</ele>
        <time>2016-04-17T13:51:03.936Z</time>
      </trkpt>
      <trkpt lat="43.43544" lon="3.74406">
        <ele>44</ele>
        <time>2016-04-17T13:51:05.966Z</time>
      </trkpt>
      <trkpt lat="43.43548" lon="3.74404">
        <ele>43</ele>
        <time>2016-04-17T13:51:06.960Z</time>
      </trkpt>
      <trkpt lat="43.43552" lon="3.74405">
        <ele>44</ele>
        <time>2016-04-17T13:51:07.963Z</time>
      </trkpt>
      <trkpt lat="43.43558" lon="3.74408">
        <ele>43</ele>
        <time>2016-04-17T13:51:09.077Z</time>
      </trkpt>
      <trkpt lat="43.43565" lon="3.74408">
        <ele>43</ele>
        <time>2016-04-17T13:51:10.963Z</time>
      </trkpt>
      <trkpt lat="43.43568" lon="3.74408">
        <ele>43</ele>
        <time>2016-04-17T13:51:11.936Z</time>
      </trkpt>
      <trkpt lat="43.43573" lon="3.74409">
        <ele>43</ele>
        <time>2016-04-17T13:51:12.963Z</time>
      </trkpt>
      <trkpt lat="43.43578" lon="3.7441">
        <ele>43</ele>
        <time>2016-04-17T13:51:13.935Z</time>
      </trkpt>
      <trkpt lat="43.43584" lon="3.74411">
        <ele>43</ele>
        <time>2016-04-17T13:51:15.970Z</time>
      </trkpt>
      <trkpt lat="43.43587" lon="3.74411">
        <ele>43</ele>
        <time>2016-04-17T13:51:16.933Z</time>
      </trkpt>
      <trkpt lat="43.43592" lon="3.74413">
        <ele>42</ele>
        <time>2016-04-17T13:51:17.971Z</time>
      </trkpt>
      <trkpt lat="43.43597" lon="3.74416">
        <ele>41</ele>
        <time>2016-04-17T13:51:18.937Z</time>
      </trkpt>
      <trkpt lat="43.43606" lon="3.7442">
        <ele>42</ele>
        <time>2016-04-17T13:51:20.963Z</time>
      </trkpt>
      <trkpt lat="43.43609" lon="3.7442">
        <ele>42</ele>
        <time>2016-04-17T13:51:21.936Z</time>
      </trkpt>
      <trkpt lat="43.43617" lon="3.74421">
        <ele>42</ele>
        <time>2016-04-17T13:51:23.964Z</time>
      </trkpt>
      <trkpt lat="43.4362" lon="3.74421">
        <ele>42</ele>
        <time>2016-04-17T13:51:24.935Z</time>
      </trkpt>
      <trkpt lat="43.43627" lon="3.74425">
        <ele>42</ele>
        <time>2016-04-17T13:51:26.962Z</time>
      </trkpt>
      <trkpt lat="43.4363" lon="3.74427">
        <ele>42</ele>
        <time>2016-04-17T13:51:27.934Z</time>
      </trkpt>
      <trkpt lat="43.43638" lon="3.74429">
        <ele>42</ele>
        <time>2016-04-17T13:51:29.965Z</time>
      </trkpt>
      <trkpt lat="43.43642" lon="3.7443">
        <ele>43</ele>
        <time>2016-04-17T13:51:30.937Z</time>
      </trkpt>
      <trkpt lat="43.43649" lon="3.74431">
        <ele>44</ele>
        <time>2016-04-17T13:51:32.965Z</time>
      </trkpt>
      <trkpt lat="43.43652" lon="3.74431">
        <ele>43</ele>
        <time>2016-04-17T13:51:33.936Z</time>
      </trkpt>
      <trkpt lat="43.4366" lon="3.74433">
        <ele>43</ele>
        <time>2016-04-17T13:51:35.962Z</time>
      </trkpt>
      <trkpt lat="43.43663" lon="3.74432">
        <ele>44</ele>
        <time>2016-04-17T13:51:36.937Z</time>
      </trkpt>
      <trkpt lat="43.43669" lon="3.74435">
        <ele>44</ele>
        <time>2016-04-17T13:51:37.968Z</time>
      </trkpt>
      <trkpt lat="43.43672" lon="3.74437">
        <ele>44</ele>
        <time>2016-04-17T13:51:38.962Z</time>
      </trkpt>
      <trkpt lat="43.43679" lon="3.7444">
        <ele>44</ele>
        <time>2016-04-17T13:51:40.961Z</time>
      </trkpt>
      <trkpt lat="43.43683" lon="3.74449">
        <ele>43</ele>
        <time>2016-04-17T13:51:41.932Z</time>
      </trkpt>
      <trkpt lat="43.43691" lon="3.74454">
        <ele>43</ele>
        <time>2016-04-17T13:51:44.047Z</time>
      </trkpt>
      <trkpt lat="43.43694" lon="3.74455">
        <ele>45</ele>
        <time>2016-04-17T13:51:44.924Z</time>
      </trkpt>
      <trkpt lat="43.43701" lon="3.74458">
        <ele>46</ele>
        <time>2016-04-17T13:51:46.964Z</time>
      </trkpt>
      <trkpt lat="43.43705" lon="3.74461">
        <ele>46</ele>
        <time>2016-04-17T13:51:48.014Z</time>
      </trkpt>
      <trkpt lat="43.43712" lon="3.74463">
        <ele>47</ele>
        <time>2016-04-17T13:51:49.964Z</time>
      </trkpt>
      <trkpt lat="43.43715" lon="3.74466">
        <ele>47</ele>
        <time>2016-04-17T13:51:50.934Z</time>
      </trkpt>
      <trkpt lat="43.43723" lon="3.7447">
        <ele>47</ele>
        <time>2016-04-17T13:51:53.096Z</time>
      </trkpt>
      <trkpt lat="43.43727" lon="3.74473">
        <ele>47</ele>
        <time>2016-04-17T13:51:53.937Z</time>
      </trkpt>
      <trkpt lat="43.43734" lon="3.74477">
        <ele>46</ele>
        <time>2016-04-17T13:51:55.964Z</time>
      </trkpt>
      <trkpt lat="43.43737" lon="3.74477">
        <ele>47</ele>
        <time>2016-04-17T13:51:56.936Z</time>
      </trkpt>
      <trkpt lat="43.43743" lon="3.74481">
        <ele>47</ele>
        <time>2016-04-17T13:51:58.966Z</time>
      </trkpt>
      <trkpt lat="43.43747" lon="3.74485">
        <ele>47</ele>
        <time>2016-04-17T13:51:59.966Z</time>
      </trkpt>
      <trkpt lat="43.43753" lon="3.74482">
        <ele>45</ele>
        <time>2016-04-17T13:52:01.965Z</time>
      </trkpt>
      <trkpt lat="43.43757" lon="3.74483">
        <ele>45</ele>
        <time>2016-04-17T13:52:02.935Z</time>
      </trkpt>
      <trkpt lat="43.43761" lon="3.74486">
        <ele>46</ele>
        <time>2016-04-17T13:52:03.964Z</time>
      </trkpt>
      <trkpt lat="43.43766" lon="3.74488">
        <ele>46</ele>
        <time>2016-04-17T13:52:04.935Z</time>
      </trkpt>
      <trkpt lat="43.4377" lon="3.74492">
        <ele>46</ele>
        <time>2016-04-17T13:52:05.964Z</time>
      </trkpt>
      <trkpt lat="43.43774" lon="3.74495">
        <ele>45</ele>
        <time>2016-04-17T13:52:06.935Z</time>
      </trkpt>
      <trkpt lat="43.43781" lon="3.745">
        <ele>44</ele>
        <time>2016-04-17T13:52:08.967Z</time>
      </trkpt>
      <trkpt lat="43.43785" lon="3.74502">
        <ele>44</ele>
        <time>2016-04-17T13:52:09.935Z</time>
      </trkpt>
      <trkpt lat="43.43793" lon="3.74504">
        <ele>45</ele>
        <time>2016-04-17T13:52:11.966Z</time>
      </trkpt>
      <trkpt lat="43.43796" lon="3.74507">
        <ele>45</ele>
        <time>2016-04-17T13:52:12.931Z</time>
      </trkpt>
      <trkpt lat="43.43801" lon="3.74513">
        <ele>44</ele>
        <time>2016-04-17T13:52:13.969Z</time>
      </trkpt>
      <trkpt lat="43.43804" lon="3.74516">
        <ele>45</ele>
        <time>2016-04-17T13:52:14.925Z</time>
      </trkpt>
      <trkpt lat="43.43812" lon="3.7452">
        <ele>46</ele>
        <time>2016-04-17T13:52:16.961Z</time>
      </trkpt>
      <trkpt lat="43.43817" lon="3.74521">
        <ele>46</ele>
        <time>2016-04-17T13:52:17.943Z</time>
      </trkpt>
      <trkpt lat="43.43821" lon="3.74525">
        <ele>48</ele>
        <time>2016-04-17T13:52:18.967Z</time>
      </trkpt>
      <trkpt lat="43.43826" lon="3.74528">
        <ele>47</ele>
        <time>2016-04-17T13:52:19.941Z</time>
      </trkpt>
      <trkpt lat="43.43834" lon="3.74533">
        <ele>46</ele>
        <time>2016-04-17T13:52:21.964Z</time>
      </trkpt>
      <trkpt lat="43.43838" lon="3.74535">
        <ele>45</ele>
        <time>2016-04-17T13:52:22.936Z</time>
      </trkpt>
      <trkpt lat="43.43846" lon="3.74539">
        <ele>46</ele>
        <time>2016-04-17T13:52:24.964Z</time>
      </trkpt>
      <trkpt lat="43.43849" lon="3.74542">
        <ele>47</ele>
        <time>2016-04-17T13:52:25.936Z</time>
      </trkpt>
      <trkpt lat="43.43856" lon="3.74546">
        <ele>47</ele>
        <time>2016-04-17T13:52:27.963Z</time>
      </trkpt>
      <trkpt lat="43.43861" lon="3.74547">
        <ele>48</ele>
        <time>2016-04-17T13:52:28.939Z</time>
      </trkpt>
      <trkpt lat="43.43866" lon="3.74555">
        <ele>47</ele>
        <time>2016-04-17T13:52:29.949Z</time>
      </trkpt>
      <trkpt lat="43.4387" lon="3.74558">
        <ele>48</ele>
        <time>2016-04-17T13:52:30.936Z</time>
      </trkpt>
      <trkpt lat="43.43877" lon="3.74559">
        <ele>48</ele>
        <time>2016-04-17T13:52:32.964Z</time>
      </trkpt>
      <trkpt lat="43.43881" lon="3.74561">
        <ele>47</ele>
        <time>2016-04-17T13:52:33.937Z</time>
      </trkpt>
      <trkpt lat="43.43886" lon="3.74565">
        <ele>46</ele>
        <time>2016-04-17T13:52:34.978Z</time>
      </trkpt>
      <trkpt lat="43.43889" lon="3.74568">
        <ele>45</ele>
        <time>2016-04-17T13:52:35.935Z</time>
      </trkpt>
      <trkpt lat="43.43893" lon="3.7457">
        <ele>45</ele>
        <time>2016-04-17T13:52:36.977Z</time>
      </trkpt>
      <trkpt lat="43.43898" lon="3.74574">
        <ele>44</ele>
        <time>2016-04-17T13:52:37.936Z</time>
      </trkpt>
      <trkpt lat="43.43905" lon="3.74581">
        <ele>42</ele>
        <time>2016-04-17T13:52:39.974Z</time>
      </trkpt>
      <trkpt lat="43.43908" lon="3.74585">
        <ele>43</ele>
        <time>2016-04-17T13:52:40.939Z</time>
      </trkpt>
      <trkpt lat="43.43915" lon="3.74585">
        <ele>44</ele>
        <time>2016-04-17T13:52:42.967Z</time>
      </trkpt>
      <trkpt lat="43.43918" lon="3.74588">
        <ele>44</ele>
        <time>2016-04-17T13:52:43.936Z</time>
      </trkpt>
      <trkpt lat="43.43925" lon="3.74595">
        <ele>44</ele>
        <time>2016-04-17T13:52:45.958Z</time>
      </trkpt>
      <trkpt lat="43.43927" lon="3.74598">
        <ele>45</ele>
        <time>2016-04-17T13:52:46.935Z</time>
      </trkpt>
      <trkpt lat="43.43934" lon="3.74602">
        <ele>46</ele>
        <time>2016-04-17T13:52:48.964Z</time>
      </trkpt>
      <trkpt lat="43.43936" lon="3.74606">
        <ele>47</ele>
        <time>2016-04-17T13:52:49.936Z</time>
      </trkpt>
      <trkpt lat="43.43943" lon="3.74611">
        <ele>49</ele>
        <time>2016-04-17T13:52:51.965Z</time>
      </trkpt>
      <trkpt lat="43.43945" lon="3.74614">
        <ele>49</ele>
        <time>2016-04-17T13:52:52.962Z</time>
      </trkpt>
      <trkpt lat="43.43949" lon="3.74622">
        <ele>44</ele>
        <time>2016-04-17T13:52:54.966Z</time>
      </trkpt>
      <trkpt lat="43.43951" lon="3.74626">
        <ele>44</ele>
        <time>2016-04-17T13:52:55.934Z</time>
      </trkpt>
      <trkpt lat="43.43959" lon="3.7463">
        <ele>44</ele>
        <time>2016-04-17T13:52:57.966Z</time>
      </trkpt>
      <trkpt lat="43.43962" lon="3.74635">
        <ele>44</ele>
        <time>2016-04-17T13:52:58.935Z</time>
      </trkpt>
      <trkpt lat="43.43968" lon="3.74644">
        <ele>45</ele>
        <time>2016-04-17T13:53:00.964Z</time>
      </trkpt>
      <trkpt lat="43.43971" lon="3.74647">
        <ele>45</ele>
        <time>2016-04-17T13:53:01.937Z</time>
      </trkpt>
      <trkpt lat="43.43975" lon="3.74651">
        <ele>44</ele>
        <time>2016-04-17T13:53:02.965Z</time>
      </trkpt>
      <trkpt lat="43.43979" lon="3.74655">
        <ele>45</ele>
        <time>2016-04-17T13:53:03.936Z</time>
      </trkpt>
      <trkpt lat="43.43984" lon="3.74662">
        <ele>46</ele>
        <time>2016-04-17T13:53:05.966Z</time>
      </trkpt>
      <trkpt lat="43.43987" lon="3.74665">
        <ele>47</ele>
        <time>2016-04-17T13:53:06.935Z</time>
      </trkpt>
      <trkpt lat="43.43992" lon="3.74673">
        <ele>47</ele>
        <time>2016-04-17T13:53:08.968Z</time>
      </trkpt>
      <trkpt lat="43.43996" lon="3.74676">
        <ele>48</ele>
        <time>2016-04-17T13:53:09.935Z</time>
      </trkpt>
      <trkpt lat="43.43998" lon="3.74687">
        <ele>47</ele>
        <time>2016-04-17T13:53:11.962Z</time>
      </trkpt>
      <trkpt lat="43.44002" lon="3.7469">
        <ele>49</ele>
        <time>2016-04-17T13:53:12.935Z</time>
      </trkpt>
      <trkpt lat="43.44006" lon="3.74698">
        <ele>48</ele>
        <time>2016-04-17T13:53:14.979Z</time>
      </trkpt>
      <trkpt lat="43.44009" lon="3.74701">
        <ele>48</ele>
        <time>2016-04-17T13:53:15.940Z</time>
      </trkpt>
      <trkpt lat="43.44013" lon="3.74705">
        <ele>49</ele>
        <time>2016-04-17T13:53:16.970Z</time>
      </trkpt>
      <trkpt lat="43.44016" lon="3.74709">
        <ele>48</ele>
        <time>2016-04-17T13:53:17.938Z</time>
      </trkpt>
      <trkpt lat="43.44019" lon="3.74714">
        <ele>48</ele>
        <time>2016-04-17T13:53:18.969Z</time>
      </trkpt>
      <trkpt lat="43.44021" lon="3.7472">
        <ele>49</ele>
        <time>2016-04-17T13:53:19.938Z</time>
      </trkpt>
      <trkpt lat="43.44024" lon="3.74729">
        <ele>47</ele>
        <time>2016-04-17T13:53:21.984Z</time>
      </trkpt>
      <trkpt lat="43.44028" lon="3.74734">
        <ele>48</ele>
        <time>2016-04-17T13:53:22.937Z</time>
      </trkpt>
      <trkpt lat="43.44033" lon="3.74744">
        <ele>49</ele>
        <time>2016-04-17T13:53:24.987Z</time>
      </trkpt>
      <trkpt lat="43.44035" lon="3.74749">
        <ele>49</ele>
        <time>2016-04-17T13:53:25.939Z</time>
      </trkpt>
      <trkpt lat="43.44039" lon="3.74754">
        <ele>49</ele>
        <time>2016-04-17T13:53:26.968Z</time>
      </trkpt>
      <trkpt lat="43.44042" lon="3.7476">
        <ele>49</ele>
        <time>2016-04-17T13:53:27.937Z</time>
      </trkpt>
      <trkpt lat="43.44046" lon="3.74768">
        <ele>49</ele>
        <time>2016-04-17T13:53:28.971Z</time>
      </trkpt>
      <trkpt lat="43.44049" lon="3.74772">
        <ele>50</ele>
        <time>2016-04-17T13:53:29.935Z</time>
      </trkpt>
      <trkpt lat="43.44053" lon="3.74777">
        <ele>50</ele>
        <time>2016-04-17T13:53:31.032Z</time>
      </trkpt>
      <trkpt lat="43.44057" lon="3.74781">
        <ele>50</ele>
        <time>2016-04-17T13:53:31.933Z</time>
      </trkpt>
      <trkpt lat="43.4406" lon="3.74785">
        <ele>51</ele>
        <time>2016-04-17T13:53:32.964Z</time>
      </trkpt>
      <trkpt lat="43.44064" lon="3.7479">
        <ele>52</ele>
        <time>2016-04-17T13:53:33.937Z</time>
      </trkpt>
      <trkpt lat="43.44067" lon="3.74796">
        <ele>52</ele>
        <time>2016-04-17T13:53:34.962Z</time>
      </trkpt>
      <trkpt lat="43.4407" lon="3.748">
        <ele>52</ele>
        <time>2016-04-17T13:53:35.937Z</time>
      </trkpt>
      <trkpt lat="43.44075" lon="3.74804">
        <ele>52</ele>
        <time>2016-04-17T13:53:36.968Z</time>
      </trkpt>
      <trkpt lat="43.44077" lon="3.74809">
        <ele>52</ele>
        <time>2016-04-17T13:53:37.938Z</time>
      </trkpt>
      <trkpt lat="43.44079" lon="3.74814">
        <ele>53</ele>
        <time>2016-04-17T13:53:38.964Z</time>
      </trkpt>
      <trkpt lat="43.44083" lon="3.74819">
        <ele>53</ele>
        <time>2016-04-17T13:53:39.937Z</time>
      </trkpt>
      <trkpt lat="43.4409" lon="3.74826">
        <ele>55</ele>
        <time>2016-04-17T13:53:41.966Z</time>
      </trkpt>
      <trkpt lat="43.44094" lon="3.7483">
        <ele>55</ele>
        <time>2016-04-17T13:53:42.937Z</time>
      </trkpt>
      <trkpt lat="43.441" lon="3.74837">
        <ele>55</ele>
        <time>2016-04-17T13:53:44.966Z</time>
      </trkpt>
      <trkpt lat="43.44103" lon="3.7484">
        <ele>55</ele>
        <time>2016-04-17T13:53:45.937Z</time>
      </trkpt>
      <trkpt lat="43.44109" lon="3.74846">
        <ele>54</ele>
        <time>2016-04-17T13:53:47.963Z</time>
      </trkpt>
      <trkpt lat="43.44113" lon="3.7485">
        <ele>54</ele>
        <time>2016-04-17T13:53:48.937Z</time>
      </trkpt>
      <trkpt lat="43.44116" lon="3.74859">
        <ele>53</ele>
        <time>2016-04-17T13:53:50.969Z</time>
      </trkpt>
      <trkpt lat="43.44118" lon="3.74864">
        <ele>53</ele>
        <time>2016-04-17T13:53:51.936Z</time>
      </trkpt>
      <trkpt lat="43.44119" lon="3.74874">
        <ele>52</ele>
        <time>2016-04-17T13:53:53.967Z</time>
      </trkpt>
      <trkpt lat="43.4412" lon="3.74877">
        <ele>52</ele>
        <time>2016-04-17T13:53:54.936Z</time>
      </trkpt>
      <trkpt lat="43.44123" lon="3.74885">
        <ele>52</ele>
        <time>2016-04-17T13:53:56.989Z</time>
      </trkpt>
      <trkpt lat="43.44126" lon="3.74888">
        <ele>52</ele>
        <time>2016-04-17T13:53:57.935Z</time>
      </trkpt>
      <trkpt lat="43.44133" lon="3.74891">
        <ele>51</ele>
        <time>2016-04-17T13:54:00.966Z</time>
      </trkpt>
      <trkpt lat="43.44137" lon="3.74893">
        <ele>51</ele>
        <time>2016-04-17T13:54:01.937Z</time>
      </trkpt>
      <trkpt lat="43.44145" lon="3.74896">
        <ele>54</ele>
        <time>2016-04-17T13:54:04.965Z</time>
      </trkpt>
      <trkpt lat="43.44148" lon="3.74897">
        <ele>55</ele>
        <time>2016-04-17T13:54:05.937Z</time>
      </trkpt>
      <trkpt lat="43.44156" lon="3.74902">
        <ele>52</ele>
        <time>2016-04-17T13:54:08.966Z</time>
      </trkpt>
      <trkpt lat="43.44158" lon="3.74906">
        <ele>53</ele>
        <time>2016-04-17T13:54:09.937Z</time>
      </trkpt>
      <trkpt lat="43.44157" lon="3.74916">
        <ele>53</ele>
        <time>2016-04-17T13:54:11.967Z</time>
      </trkpt>
      <trkpt lat="43.44157" lon="3.74923">
        <ele>52</ele>
        <time>2016-04-17T13:54:12.985Z</time>
      </trkpt>
      <trkpt lat="43.44158" lon="3.74929">
        <ele>52</ele>
        <time>2016-04-17T13:54:13.954Z</time>
      </trkpt>
      <trkpt lat="43.44159" lon="3.74935">
        <ele>53</ele>
        <time>2016-04-17T13:54:14.937Z</time>
      </trkpt>
      <trkpt lat="43.44161" lon="3.74941">
        <ele>53</ele>
        <time>2016-04-17T13:54:15.964Z</time>
      </trkpt>
      <trkpt lat="43.44164" lon="3.74946">
        <ele>52</ele>
        <time>2016-04-17T13:54:16.936Z</time>
      </trkpt>
      <trkpt lat="43.44167" lon="3.74951">
        <ele>52</ele>
        <time>2016-04-17T13:54:17.949Z</time>
      </trkpt>
      <trkpt lat="43.44171" lon="3.74954">
        <ele>52</ele>
        <time>2016-04-17T13:54:18.935Z</time>
      </trkpt>
      <trkpt lat="43.44174" lon="3.74959">
        <ele>52</ele>
        <time>2016-04-17T13:54:19.963Z</time>
      </trkpt>
      <trkpt lat="43.44177" lon="3.74964">
        <ele>53</ele>
        <time>2016-04-17T13:54:20.999Z</time>
      </trkpt>
      <trkpt lat="43.44182" lon="3.74972">
        <ele>53</ele>
        <time>2016-04-17T13:54:22.954Z</time>
      </trkpt>
      <trkpt lat="43.44186" lon="3.74977">
        <ele>52</ele>
        <time>2016-04-17T13:54:23.936Z</time>
      </trkpt>
      <trkpt lat="43.44192" lon="3.74984">
        <ele>53</ele>
        <time>2016-04-17T13:54:25.965Z</time>
      </trkpt>
      <trkpt lat="43.44193" lon="3.74989">
        <ele>50</ele>
        <time>2016-04-17T13:54:26.935Z</time>
      </trkpt>
      <trkpt lat="43.44197" lon="3.74997">
        <ele>46</ele>
        <time>2016-04-17T13:54:28.961Z</time>
      </trkpt>
      <trkpt lat="43.44199" lon="3.75002">
        <ele>47</ele>
        <time>2016-04-17T13:54:29.929Z</time>
      </trkpt>
      <trkpt lat="43.44202" lon="3.75008">
        <ele>48</ele>
        <time>2016-04-17T13:54:30.972Z</time>
      </trkpt>
      <trkpt lat="43.44205" lon="3.75012">
        <ele>47</ele>
        <time>2016-04-17T13:54:31.936Z</time>
      </trkpt>
      <trkpt lat="43.44209" lon="3.75022">
        <ele>47</ele>
        <time>2016-04-17T13:54:34.038Z</time>
      </trkpt>
      <trkpt lat="43.44211" lon="3.75027">
        <ele>47</ele>
        <time>2016-04-17T13:54:34.932Z</time>
      </trkpt>
      <trkpt lat="43.44217" lon="3.75031">
        <ele>50</ele>
        <time>2016-04-17T13:54:35.965Z</time>
      </trkpt>
      <trkpt lat="43.4422" lon="3.75035">
        <ele>49</ele>
        <time>2016-04-17T13:54:36.941Z</time>
      </trkpt>
      <trkpt lat="43.44226" lon="3.75044">
        <ele>49</ele>
        <time>2016-04-17T13:54:38.966Z</time>
      </trkpt>
      <trkpt lat="43.44229" lon="3.75049">
        <ele>49</ele>
        <time>2016-04-17T13:54:39.938Z</time>
      </trkpt>
      <trkpt lat="43.44233" lon="3.75055">
        <ele>48</ele>
        <time>2016-04-17T13:54:40.960Z</time>
      </trkpt>
      <trkpt lat="43.44236" lon="3.7506">
        <ele>48</ele>
        <time>2016-04-17T13:54:41.936Z</time>
      </trkpt>
      <trkpt lat="43.44239" lon="3.75064">
        <ele>50</ele>
        <time>2016-04-17T13:54:43.030Z</time>
      </trkpt>
      <trkpt lat="43.44243" lon="3.75069">
        <ele>50</ele>
        <time>2016-04-17T13:54:43.936Z</time>
      </trkpt>
      <trkpt lat="43.44245" lon="3.75074">
        <ele>50</ele>
        <time>2016-04-17T13:54:44.991Z</time>
      </trkpt>
      <trkpt lat="43.44249" lon="3.75079">
        <ele>52</ele>
        <time>2016-04-17T13:54:45.934Z</time>
      </trkpt>
      <trkpt lat="43.44256" lon="3.75086">
        <ele>53</ele>
        <time>2016-04-17T13:54:47.967Z</time>
      </trkpt>
      <trkpt lat="43.44257" lon="3.75091">
        <ele>51</ele>
        <time>2016-04-17T13:54:48.941Z</time>
      </trkpt>
      <trkpt lat="43.44262" lon="3.75099">
        <ele>53</ele>
        <time>2016-04-17T13:54:50.965Z</time>
      </trkpt>
      <trkpt lat="43.44268" lon="3.751">
        <ele>53</ele>
        <time>2016-04-17T13:54:51.934Z</time>
      </trkpt>
      <trkpt lat="43.44274" lon="3.75109">
        <ele>51</ele>
        <time>2016-04-17T13:54:53.968Z</time>
      </trkpt>
      <trkpt lat="43.44277" lon="3.75113">
        <ele>50</ele>
        <time>2016-04-17T13:54:54.940Z</time>
      </trkpt>
      <trkpt lat="43.44282" lon="3.75123">
        <ele>51</ele>
        <time>2016-04-17T13:54:56.964Z</time>
      </trkpt>
      <trkpt lat="43.44284" lon="3.75127">
        <ele>52</ele>
        <time>2016-04-17T13:54:57.937Z</time>
      </trkpt>
      <trkpt lat="43.44286" lon="3.75132">
        <ele>52</ele>
        <time>2016-04-17T13:54:58.964Z</time>
      </trkpt>
      <trkpt lat="43.4429" lon="3.75136">
        <ele>53</ele>
        <time>2016-04-17T13:54:59.936Z</time>
      </trkpt>
      <trkpt lat="43.44297" lon="3.75144">
        <ele>54</ele>
        <time>2016-04-17T13:55:01.966Z</time>
      </trkpt>
      <trkpt lat="43.443" lon="3.75148">
        <ele>53</ele>
        <time>2016-04-17T13:55:02.935Z</time>
      </trkpt>
      <trkpt lat="43.44305" lon="3.75157">
        <ele>53</ele>
        <time>2016-04-17T13:55:04.968Z</time>
      </trkpt>
      <trkpt lat="43.44308" lon="3.75162">
        <ele>52</ele>
        <time>2016-04-17T13:55:05.935Z</time>
      </trkpt>
      <trkpt lat="43.44313" lon="3.75172">
        <ele>51</ele>
        <time>2016-04-17T13:55:07.962Z</time>
      </trkpt>
      <trkpt lat="43.44316" lon="3.75176">
        <ele>51</ele>
        <time>2016-04-17T13:55:08.935Z</time>
      </trkpt>
      <trkpt lat="43.44319" lon="3.75184">
        <ele>52</ele>
        <time>2016-04-17T13:55:09.960Z</time>
      </trkpt>
      <trkpt lat="43.44323" lon="3.75188">
        <ele>52</ele>
        <time>2016-04-17T13:55:10.963Z</time>
      </trkpt>
      <trkpt lat="43.44325" lon="3.75193">
        <ele>51</ele>
        <time>2016-04-17T13:55:11.965Z</time>
      </trkpt>
      <trkpt lat="43.44328" lon="3.75204">
        <ele>51</ele>
        <time>2016-04-17T13:55:12.935Z</time>
      </trkpt>
      <trkpt lat="43.44334" lon="3.75211">
        <ele>53</ele>
        <time>2016-04-17T13:55:14.966Z</time>
      </trkpt>
      <trkpt lat="43.44338" lon="3.75214">
        <ele>54</ele>
        <time>2016-04-17T13:55:15.936Z</time>
      </trkpt>
      <trkpt lat="43.44343" lon="3.75221">
        <ele>54</ele>
        <time>2016-04-17T13:55:17.965Z</time>
      </trkpt>
      <trkpt lat="43.44344" lon="3.75224">
        <ele>53</ele>
        <time>2016-04-17T13:55:18.937Z</time>
      </trkpt>
      <trkpt lat="43.44348" lon="3.75231">
        <ele>52</ele>
        <time>2016-04-17T13:55:20.965Z</time>
      </trkpt>
      <trkpt lat="43.4435" lon="3.75235">
        <ele>52</ele>
        <time>2016-04-17T13:55:21.936Z</time>
      </trkpt>
      <trkpt lat="43.44354" lon="3.7524">
        <ele>52</ele>
        <time>2016-04-17T13:55:22.964Z</time>
      </trkpt>
      <trkpt lat="43.44358" lon="3.75246">
        <ele>53</ele>
        <time>2016-04-17T13:55:23.935Z</time>
      </trkpt>
      <trkpt lat="43.44363" lon="3.75255">
        <ele>54</ele>
        <time>2016-04-17T13:55:25.965Z</time>
      </trkpt>
      <trkpt lat="43.44365" lon="3.7526">
        <ele>54</ele>
        <time>2016-04-17T13:55:26.953Z</time>
      </trkpt>
      <trkpt lat="43.44367" lon="3.75266">
        <ele>54</ele>
        <time>2016-04-17T13:55:27.958Z</time>
      </trkpt>
      <trkpt lat="43.44371" lon="3.75271">
        <ele>55</ele>
        <time>2016-04-17T13:55:28.939Z</time>
      </trkpt>
      <trkpt lat="43.44376" lon="3.75276">
        <ele>55</ele>
        <time>2016-04-17T13:55:29.962Z</time>
      </trkpt>
      <trkpt lat="43.4438" lon="3.75281">
        <ele>52</ele>
        <time>2016-04-17T13:55:30.939Z</time>
      </trkpt>
      <trkpt lat="43.44386" lon="3.75289">
        <ele>53</ele>
        <time>2016-04-17T13:55:32.961Z</time>
      </trkpt>
      <trkpt lat="43.44389" lon="3.75293">
        <ele>53</ele>
        <time>2016-04-17T13:55:33.968Z</time>
      </trkpt>
      <trkpt lat="43.44395" lon="3.75301">
        <ele>52</ele>
        <time>2016-04-17T13:55:35.970Z</time>
      </trkpt>
      <trkpt lat="43.44395" lon="3.75308">
        <ele>51</ele>
        <time>2016-04-17T13:55:36.937Z</time>
      </trkpt>
      <trkpt lat="43.44401" lon="3.75312">
        <ele>51</ele>
        <time>2016-04-17T13:55:38.964Z</time>
      </trkpt>
      <trkpt lat="43.44404" lon="3.75315">
        <ele>51</ele>
        <time>2016-04-17T13:55:39.934Z</time>
      </trkpt>
      <trkpt lat="43.44411" lon="3.75317">
        <ele>52</ele>
        <time>2016-04-17T13:55:41.967Z</time>
      </trkpt>
      <trkpt lat="43.44415" lon="3.75319">
        <ele>52</ele>
        <time>2016-04-17T13:55:42.937Z</time>
      </trkpt>
      <trkpt lat="43.44423" lon="3.75325">
        <ele>52</ele>
        <time>2016-04-17T13:55:44.968Z</time>
      </trkpt>
      <trkpt lat="43.44425" lon="3.75328">
        <ele>52</ele>
        <time>2016-04-17T13:55:45.935Z</time>
      </trkpt>
      <trkpt lat="43.44429" lon="3.75338">
        <ele>50</ele>
        <time>2016-04-17T13:55:47.986Z</time>
      </trkpt>
      <trkpt lat="43.44432" lon="3.75342">
        <ele>50</ele>
        <time>2016-04-17T13:55:48.932Z</time>
      </trkpt>
      <trkpt lat="43.44437" lon="3.75351">
        <ele>50</ele>
        <time>2016-04-17T13:55:50.960Z</time>
      </trkpt>
      <trkpt lat="43.44443" lon="3.75353">
        <ele>49</ele>
        <time>2016-04-17T13:55:51.938Z</time>
      </trkpt>
      <trkpt lat="43.44449" lon="3.75361">
        <ele>49</ele>
        <time>2016-04-17T13:55:53.968Z</time>
      </trkpt>
      <trkpt lat="43.44453" lon="3.75363">
        <ele>49</ele>
        <time>2016-04-17T13:55:54.936Z</time>
      </trkpt>
      <trkpt lat="43.44459" lon="3.75371">
        <ele>50</ele>
        <time>2016-04-17T13:55:56.964Z</time>
      </trkpt>
      <trkpt lat="43.44463" lon="3.75375">
        <ele>49</ele>
        <time>2016-04-17T13:55:57.932Z</time>
      </trkpt>
      <trkpt lat="43.44469" lon="3.75383">
        <ele>54</ele>
        <time>2016-04-17T13:55:59.970Z</time>
      </trkpt>
      <trkpt lat="43.44471" lon="3.75387">
        <ele>54</ele>
        <time>2016-04-17T13:56:00.931Z</time>
      </trkpt>
      <trkpt lat="43.44478" lon="3.75394">
        <ele>56</ele>
        <time>2016-04-17T13:56:02.966Z</time>
      </trkpt>
      <trkpt lat="43.4448" lon="3.75398">
        <ele>56</ele>
        <time>2016-04-17T13:56:03.935Z</time>
      </trkpt>
      <trkpt lat="43.44485" lon="3.75407">
        <ele>54</ele>
        <time>2016-04-17T13:56:05.957Z</time>
      </trkpt>
      <trkpt lat="43.44486" lon="3.75411">
        <ele>55</ele>
        <time>2016-04-17T13:56:06.937Z</time>
      </trkpt>
      <trkpt lat="43.4449" lon="3.75421">
        <ele>54</ele>
        <time>2016-04-17T13:56:09.105Z</time>
      </trkpt>
      <trkpt lat="43.44492" lon="3.75426">
        <ele>54</ele>
        <time>2016-04-17T13:56:09.931Z</time>
      </trkpt>
      <trkpt lat="43.44495" lon="3.75432">
        <ele>54</ele>
        <time>2016-04-17T13:56:10.953Z</time>
      </trkpt>
      <trkpt lat="43.44499" lon="3.75435">
        <ele>53</ele>
        <time>2016-04-17T13:56:11.937Z</time>
      </trkpt>
      <trkpt lat="43.44505" lon="3.75439">
        <ele>53</ele>
        <time>2016-04-17T13:56:12.964Z</time>
      </trkpt>
      <trkpt lat="43.44508" lon="3.75444">
        <ele>53</ele>
        <time>2016-04-17T13:56:13.937Z</time>
      </trkpt>
      <trkpt lat="43.44512" lon="3.75448">
        <ele>53</ele>
        <time>2016-04-17T13:56:14.962Z</time>
      </trkpt>
      <trkpt lat="43.44511" lon="3.75455">
        <ele>53</ele>
        <time>2016-04-17T13:56:15.936Z</time>
      </trkpt>
      <trkpt lat="43.44514" lon="3.75461">
        <ele>53</ele>
        <time>2016-04-17T13:56:16.954Z</time>
      </trkpt>
      <trkpt lat="43.4452" lon="3.75463">
        <ele>53</ele>
        <time>2016-04-17T13:56:17.933Z</time>
      </trkpt>
      <trkpt lat="43.44522" lon="3.75469">
        <ele>54</ele>
        <time>2016-04-17T13:56:18.956Z</time>
      </trkpt>
      <trkpt lat="43.44525" lon="3.75474">
        <ele>53</ele>
        <time>2016-04-17T13:56:19.960Z</time>
      </trkpt>
      <trkpt lat="43.4453" lon="3.75484">
        <ele>52</ele>
        <time>2016-04-17T13:56:21.957Z</time>
      </trkpt>
      <trkpt lat="43.44529" lon="3.75489">
        <ele>52</ele>
        <time>2016-04-17T13:56:22.955Z</time>
      </trkpt>
      <trkpt lat="43.44532" lon="3.75499">
        <ele>47</ele>
        <time>2016-04-17T13:56:28.955Z</time>
      </trkpt>
      <trkpt lat="43.44533" lon="3.755">
        <ele>48</ele>
        <time>2016-04-17T13:56:29.935Z</time>
      </trkpt>
      <trkpt lat="43.44526" lon="3.75497">
        <ele>48</ele>
        <time>2016-04-17T13:56:36.966Z</time>
      </trkpt>
      <trkpt lat="43.44522" lon="3.75499">
        <ele>47</ele>
        <time>2016-04-17T13:56:37.937Z</time>
      </trkpt>
      <trkpt lat="43.44518" lon="3.75507">
        <ele>49</ele>
        <time>2016-04-17T13:56:40.961Z</time>
      </trkpt>
      <trkpt lat="43.44517" lon="3.7551">
        <ele>50</ele>
        <time>2016-04-17T13:56:41.936Z</time>
      </trkpt>
      <trkpt lat="43.44511" lon="3.75516">
        <ele>48</ele>
        <time>2016-04-17T13:56:43.959Z</time>
      </trkpt>
      <trkpt lat="43.44509" lon="3.75521">
        <ele>50</ele>
        <time>2016-04-17T13:56:44.931Z</time>
      </trkpt>
      <trkpt lat="43.44506" lon="3.75529">
        <ele>49</ele>
        <time>2016-04-17T13:56:46.951Z</time>
      </trkpt>
      <trkpt lat="43.44502" lon="3.75533">
        <ele>47</ele>
        <time>2016-04-17T13:56:47.934Z</time>
      </trkpt>
      <trkpt lat="43.44495" lon="3.7554">
        <ele>48</ele>
        <time>2016-04-17T13:56:49.980Z</time>
      </trkpt>
      <trkpt lat="43.44492" lon="3.75543">
        <ele>48</ele>
        <time>2016-04-17T13:56:50.936Z</time>
      </trkpt>
      <trkpt lat="43.44487" lon="3.7555">
        <ele>48</ele>
        <time>2016-04-17T13:56:52.965Z</time>
      </trkpt>
      <trkpt lat="43.44484" lon="3.75554">
        <ele>48</ele>
        <time>2016-04-17T13:56:53.933Z</time>
      </trkpt>
      <trkpt lat="43.44479" lon="3.75563">
        <ele>50</ele>
        <time>2016-04-17T13:56:55.967Z</time>
      </trkpt>
      <trkpt lat="43.44477" lon="3.75566">
        <ele>50</ele>
        <time>2016-04-17T13:56:56.931Z</time>
      </trkpt>
      <trkpt lat="43.44473" lon="3.75577">
        <ele>51</ele>
        <time>2016-04-17T13:56:58.958Z</time>
      </trkpt>
      <trkpt lat="43.44472" lon="3.75585">
        <ele>51</ele>
        <time>2016-04-17T13:56:59.936Z</time>
      </trkpt>
      <trkpt lat="43.44468" lon="3.75589">
        <ele>51</ele>
        <time>2016-04-17T13:57:00.969Z</time>
      </trkpt>
      <trkpt lat="43.44465" lon="3.75594">
        <ele>51</ele>
        <time>2016-04-17T13:57:01.932Z</time>
      </trkpt>
      <trkpt lat="43.44461" lon="3.75598">
        <ele>51</ele>
        <time>2016-04-17T13:57:02.955Z</time>
      </trkpt>
      <trkpt lat="43.44457" lon="3.75601">
        <ele>50</ele>
        <time>2016-04-17T13:57:03.939Z</time>
      </trkpt>
      <trkpt lat="43.4445" lon="3.75606">
        <ele>50</ele>
        <time>2016-04-17T13:57:05.968Z</time>
      </trkpt>
      <trkpt lat="43.44451" lon="3.75613">
        <ele>50</ele>
        <time>2016-04-17T13:57:06.932Z</time>
      </trkpt>
      <trkpt lat="43.44446" lon="3.75617">
        <ele>48</ele>
        <time>2016-04-17T13:57:07.965Z</time>
      </trkpt>
      <trkpt lat="43.44443" lon="3.75624">
        <ele>46</ele>
        <time>2016-04-17T13:57:08.934Z</time>
      </trkpt>
      <trkpt lat="43.44437" lon="3.75626">
        <ele>47</ele>
        <time>2016-04-17T13:57:09.940Z</time>
      </trkpt>
      <trkpt lat="43.44435" lon="3.75632">
        <ele>48</ele>
        <time>2016-04-17T13:57:10.935Z</time>
      </trkpt>
      <trkpt lat="43.44433" lon="3.75642">
        <ele>46</ele>
        <time>2016-04-17T13:57:11.964Z</time>
      </trkpt>
      <trkpt lat="43.44429" lon="3.75647">
        <ele>46</ele>
        <time>2016-04-17T13:57:12.952Z</time>
      </trkpt>
      <trkpt lat="43.44425" lon="3.75655">
        <ele>48</ele>
        <time>2016-04-17T13:57:14.971Z</time>
      </trkpt>
      <trkpt lat="43.44422" lon="3.75659">
        <ele>48</ele>
        <time>2016-04-17T13:57:15.940Z</time>
      </trkpt>
      <trkpt lat="43.44416" lon="3.75668">
        <ele>49</ele>
        <time>2016-04-17T13:57:17.956Z</time>
      </trkpt>
      <trkpt lat="43.44413" lon="3.75671">
        <ele>51</ele>
        <time>2016-04-17T13:57:18.936Z</time>
      </trkpt>
      <trkpt lat="43.44408" lon="3.75677">
        <ele>52</ele>
        <time>2016-04-17T13:57:20.965Z</time>
      </trkpt>
      <trkpt lat="43.44405" lon="3.7568">
        <ele>52</ele>
        <time>2016-04-17T13:57:21.939Z</time>
      </trkpt>
      <trkpt lat="43.44402" lon="3.75688">
        <ele>52</ele>
        <time>2016-04-17T13:57:23.968Z</time>
      </trkpt>
      <trkpt lat="43.44401" lon="3.75692">
        <ele>52</ele>
        <time>2016-04-17T13:57:24.932Z</time>
      </trkpt>
      <trkpt lat="43.44403" lon="3.75702">
        <ele>49</ele>
        <time>2016-04-17T13:57:26.959Z</time>
      </trkpt>
      <trkpt lat="43.44408" lon="3.75709">
        <ele>48</ele>
        <time>2016-04-17T13:57:27.935Z</time>
      </trkpt>
      <trkpt lat="43.4441" lon="3.75719">
        <ele>48</ele>
        <time>2016-04-17T13:57:29.956Z</time>
      </trkpt>
      <trkpt lat="43.4441" lon="3.75726">
        <ele>48</ele>
        <time>2016-04-17T13:57:30.941Z</time>
      </trkpt>
      <trkpt lat="43.44413" lon="3.75732">
        <ele>46</ele>
        <time>2016-04-17T13:57:31.973Z</time>
      </trkpt>
      <trkpt lat="43.44414" lon="3.75738">
        <ele>46</ele>
        <time>2016-04-17T13:57:32.940Z</time>
      </trkpt>
      <trkpt lat="43.44417" lon="3.75749">
        <ele>47</ele>
        <time>2016-04-17T13:57:34.986Z</time>
      </trkpt>
      <trkpt lat="43.44418" lon="3.75754">
        <ele>46</ele>
        <time>2016-04-17T13:57:35.936Z</time>
      </trkpt>
      <trkpt lat="43.44422" lon="3.75765">
        <ele>47</ele>
        <time>2016-04-17T13:57:37.960Z</time>
      </trkpt>
      <trkpt lat="43.44427" lon="3.75773">
        <ele>44</ele>
        <time>2016-04-17T13:57:38.939Z</time>
      </trkpt>
      <trkpt lat="43.44426" lon="3.75781">
        <ele>46</ele>
        <time>2016-04-17T13:57:39.979Z</time>
      </trkpt>
      <trkpt lat="43.44427" lon="3.75786">
        <ele>46</ele>
        <time>2016-04-17T13:57:40.936Z</time>
      </trkpt>
      <trkpt lat="43.44428" lon="3.75792">
        <ele>47</ele>
        <time>2016-04-17T13:57:41.969Z</time>
      </trkpt>
      <trkpt lat="43.44429" lon="3.75798">
        <ele>47</ele>
        <time>2016-04-17T13:57:42.931Z</time>
      </trkpt>
      <trkpt lat="43.44429" lon="3.75808">
        <ele>49</ele>
        <time>2016-04-17T13:57:44.961Z</time>
      </trkpt>
      <trkpt lat="43.44426" lon="3.75818">
        <ele>54</ele>
        <time>2016-04-17T13:57:45.940Z</time>
      </trkpt>
      <trkpt lat="43.44427" lon="3.75827">
        <ele>54</ele>
        <time>2016-04-17T13:57:47.966Z</time>
      </trkpt>
      <trkpt lat="43.44428" lon="3.75832">
        <ele>55</ele>
        <time>2016-04-17T13:57:48.937Z</time>
      </trkpt>
      <trkpt lat="43.44432" lon="3.75838">
        <ele>56</ele>
        <time>2016-04-17T13:57:50.967Z</time>
      </trkpt>
      <trkpt lat="43.44434" lon="3.75845">
        <ele>53</ele>
        <time>2016-04-17T13:57:51.935Z</time>
      </trkpt>
      <trkpt lat="43.44436" lon="3.75856">
        <ele>52</ele>
        <time>2016-04-17T13:57:53.962Z</time>
      </trkpt>
      <trkpt lat="43.44438" lon="3.75862">
        <ele>55</ele>
        <time>2016-04-17T13:57:54.936Z</time>
      </trkpt>
      <trkpt lat="43.44439" lon="3.75868">
        <ele>54</ele>
        <time>2016-04-17T13:57:55.964Z</time>
      </trkpt>
      <trkpt lat="43.4444" lon="3.75874">
        <ele>54</ele>
        <time>2016-04-17T13:57:56.931Z</time>
      </trkpt>
      <trkpt lat="43.44442" lon="3.75884">
        <ele>54</ele>
        <time>2016-04-17T13:57:58.956Z</time>
      </trkpt>
      <trkpt lat="43.44447" lon="3.75896">
        <ele>53</ele>
        <time>2016-04-17T13:58:00.936Z</time>
      </trkpt>
      <trkpt lat="43.44455" lon="3.75902">
        <ele>51</ele>
        <time>2016-04-17T13:58:02.968Z</time>
      </trkpt>
      <trkpt lat="43.4446" lon="3.75906">
        <ele>51</ele>
        <time>2016-04-17T13:58:03.939Z</time>
      </trkpt>
      <trkpt lat="43.44466" lon="3.75912">
        <ele>55</ele>
        <time>2016-04-17T13:58:05.992Z</time>
      </trkpt>
      <trkpt lat="43.44469" lon="3.75915">
        <ele>56</ele>
        <time>2016-04-17T13:58:06.936Z</time>
      </trkpt>
      <trkpt lat="43.44472" lon="3.75921">
        <ele>56</ele>
        <time>2016-04-17T13:58:07.967Z</time>
      </trkpt>
      <trkpt lat="43.44474" lon="3.75928">
        <ele>56</ele>
        <time>2016-04-17T13:58:08.936Z</time>
      </trkpt>
      <trkpt lat="43.44476" lon="3.75938">
        <ele>53</ele>
        <time>2016-04-17T13:58:10.966Z</time>
      </trkpt>
      <trkpt lat="43.44479" lon="3.75944">
        <ele>52</ele>
        <time>2016-04-17T13:58:11.935Z</time>
      </trkpt>
      <trkpt lat="43.44481" lon="3.75951">
        <ele>53</ele>
        <time>2016-04-17T13:58:12.965Z</time>
      </trkpt>
      <trkpt lat="43.44483" lon="3.75956">
        <ele>52</ele>
        <time>2016-04-17T13:58:13.937Z</time>
      </trkpt>
      <trkpt lat="43.44486" lon="3.75961">
        <ele>52</ele>
        <time>2016-04-17T13:58:14.968Z</time>
      </trkpt>
      <trkpt lat="43.44489" lon="3.75971">
        <ele>51</ele>
        <time>2016-04-17T13:58:15.935Z</time>
      </trkpt>
      <trkpt lat="43.44494" lon="3.7598">
        <ele>51</ele>
        <time>2016-04-17T13:58:17.965Z</time>
      </trkpt>
      <trkpt lat="43.44495" lon="3.75985">
        <ele>52</ele>
        <time>2016-04-17T13:58:18.931Z</time>
      </trkpt>
      <trkpt lat="43.44497" lon="3.75993">
        <ele>53</ele>
        <time>2016-04-17T13:58:19.967Z</time>
      </trkpt>
      <trkpt lat="43.445" lon="3.75996">
        <ele>52</ele>
        <time>2016-04-17T13:58:20.935Z</time>
      </trkpt>
      <trkpt lat="43.44504" lon="3.76005">
        <ele>52</ele>
        <time>2016-04-17T13:58:22.960Z</time>
      </trkpt>
      <trkpt lat="43.44505" lon="3.76011">
        <ele>51</ele>
        <time>2016-04-17T13:58:23.934Z</time>
      </trkpt>
      <trkpt lat="43.44508" lon="3.76021">
        <ele>51</ele>
        <time>2016-04-17T13:58:25.959Z</time>
      </trkpt>
      <trkpt lat="43.44509" lon="3.76026">
        <ele>51</ele>
        <time>2016-04-17T13:58:26.996Z</time>
      </trkpt>
      <trkpt lat="43.44514" lon="3.76035">
        <ele>49</ele>
        <time>2016-04-17T13:58:29.964Z</time>
      </trkpt>
      <trkpt lat="43.44516" lon="3.76039">
        <ele>49</ele>
        <time>2016-04-17T13:58:30.934Z</time>
      </trkpt>
      <trkpt lat="43.44514" lon="3.76027">
        <ele>47</ele>
        <time>2016-04-17T13:58:38.959Z</time>
      </trkpt>
      <trkpt lat="43.44513" lon="3.76021">
        <ele>48</ele>
        <time>2016-04-17T13:58:39.936Z</time>
      </trkpt>
      <trkpt lat="43.44508" lon="3.76013">
        <ele>48</ele>
        <time>2016-04-17T13:58:41.966Z</time>
      </trkpt>
      <trkpt lat="43.44506" lon="3.76011">
        <ele>48</ele>
        <time>2016-04-17T13:58:42.962Z</time>
      </trkpt>
      <trkpt lat="43.44506" lon="3.76007">
        <ele>49</ele>
        <time>2016-04-17T13:58:43.969Z</time>
      </trkpt>
      <trkpt lat="43.44505" lon="3.75997">
        <ele>47</ele>
        <time>2016-04-17T13:58:44.934Z</time>
      </trkpt>
      <trkpt lat="43.44499" lon="3.75988">
        <ele>45</ele>
        <time>2016-04-17T13:58:46.966Z</time>
      </trkpt>
      <trkpt lat="43.44496" lon="3.75983">
        <ele>46</ele>
        <time>2016-04-17T13:58:47.936Z</time>
      </trkpt>
      <trkpt lat="43.4449" lon="3.75976">
        <ele>44</ele>
        <time>2016-04-17T13:58:49.969Z</time>
      </trkpt>
      <trkpt lat="43.44487" lon="3.75971">
        <ele>43</ele>
        <time>2016-04-17T13:58:50.936Z</time>
      </trkpt>
      <trkpt lat="43.44485" lon="3.75966">
        <ele>44</ele>
        <time>2016-04-17T13:58:51.966Z</time>
      </trkpt>
      <trkpt lat="43.4448" lon="3.75963">
        <ele>45</ele>
        <time>2016-04-17T13:58:52.935Z</time>
      </trkpt>
      <trkpt lat="43.44477" lon="3.75957">
        <ele>47</ele>
        <time>2016-04-17T13:58:53.959Z</time>
      </trkpt>
      <trkpt lat="43.44474" lon="3.75952">
        <ele>47</ele>
        <time>2016-04-17T13:58:54.934Z</time>
      </trkpt>
      <trkpt lat="43.4447" lon="3.75941">
        <ele>48</ele>
        <time>2016-04-17T13:58:56.966Z</time>
      </trkpt>
      <trkpt lat="43.44468" lon="3.75936">
        <ele>48</ele>
        <time>2016-04-17T13:58:57.934Z</time>
      </trkpt>
      <trkpt lat="43.44464" lon="3.75928">
        <ele>48</ele>
        <time>2016-04-17T13:58:59.969Z</time>
      </trkpt>
      <trkpt lat="43.44462" lon="3.75924">
        <ele>48</ele>
        <time>2016-04-17T13:59:00.935Z</time>
      </trkpt>
      <trkpt lat="43.44456" lon="3.75917">
        <ele>50</ele>
        <time>2016-04-17T13:59:02.965Z</time>
      </trkpt>
      <trkpt lat="43.44452" lon="3.75914">
        <ele>51</ele>
        <time>2016-04-17T13:59:03.935Z</time>
      </trkpt>
      <trkpt lat="43.44447" lon="3.75904">
        <ele>52</ele>
        <time>2016-04-17T13:59:05.965Z</time>
      </trkpt>
      <trkpt lat="43.44444" lon="3.75899">
        <ele>51</ele>
        <time>2016-04-17T13:59:06.934Z</time>
      </trkpt>
      <trkpt lat="43.44442" lon="3.75893">
        <ele>51</ele>
        <time>2016-04-17T13:59:07.954Z</time>
      </trkpt>
      <trkpt lat="43.4444" lon="3.75887">
        <ele>51</ele>
        <time>2016-04-17T13:59:09.085Z</time>
      </trkpt>
      <trkpt lat="43.44436" lon="3.75877">
        <ele>51</ele>
        <time>2016-04-17T13:59:10.955Z</time>
      </trkpt>
      <trkpt lat="43.44429" lon="3.7588">
        <ele>50</ele>
        <time>2016-04-17T13:59:11.937Z</time>
      </trkpt>
      <trkpt lat="43.44424" lon="3.75872">
        <ele>53</ele>
        <time>2016-04-17T13:59:13.969Z</time>
      </trkpt>
      <trkpt lat="43.44423" lon="3.75864">
        <ele>52</ele>
        <time>2016-04-17T13:59:14.939Z</time>
      </trkpt>
      <trkpt lat="43.44418" lon="3.7586">
        <ele>52</ele>
        <time>2016-04-17T13:59:17.959Z</time>
      </trkpt>
      <trkpt lat="43.44413" lon="3.7587">
        <ele>58</ele>
        <time>2016-04-17T13:59:18.934Z</time>
      </trkpt>
      <trkpt lat="43.44413" lon="3.75864">
        <ele>59</ele>
        <time>2016-04-17T13:59:19.992Z</time>
      </trkpt>
      <trkpt lat="43.44415" lon="3.75858">
        <ele>57</ele>
        <time>2016-04-17T13:59:20.936Z</time>
      </trkpt>
      <trkpt lat="43.44409" lon="3.7585">
        <ele>59</ele>
        <time>2016-04-17T13:59:27.965Z</time>
      </trkpt>
      <trkpt lat="43.44408" lon="3.75849">
        <ele>60</ele>
        <time>2016-04-17T13:59:28.935Z</time>
      </trkpt>
      <trkpt lat="43.44409" lon="3.75857">
        <ele>56</ele>
        <time>2016-04-17T13:59:35.965Z</time>
      </trkpt>
      <trkpt lat="43.44411" lon="3.75862">
        <ele>56</ele>
        <time>2016-04-17T13:59:36.933Z</time>
      </trkpt>
      <trkpt lat="43.44414" lon="3.7587">
        <ele>54</ele>
        <time>2016-04-17T13:59:38.964Z</time>
      </trkpt>
      <trkpt lat="43.44416" lon="3.75874">
        <ele>54</ele>
        <time>2016-04-17T13:59:39.932Z</time>
      </trkpt>
      <trkpt lat="43.44419" lon="3.75885">
        <ele>55</ele>
        <time>2016-04-17T13:59:42.030Z</time>
      </trkpt>
      <trkpt lat="43.4442" lon="3.75889">
        <ele>56</ele>
        <time>2016-04-17T13:59:42.956Z</time>
      </trkpt>
      <trkpt lat="43.44423" lon="3.75896">
        <ele>55</ele>
        <time>2016-04-17T13:59:44.963Z</time>
      </trkpt>
      <trkpt lat="43.44421" lon="3.75906">
        <ele>53</ele>
        <time>2016-04-17T13:59:45.941Z</time>
      </trkpt>
      <trkpt lat="43.44423" lon="3.75914">
        <ele>51</ele>
        <time>2016-04-17T13:59:47.968Z</time>
      </trkpt>
      <trkpt lat="43.44426" lon="3.75919">
        <ele>52</ele>
        <time>2016-04-17T13:59:48.935Z</time>
      </trkpt>
      <trkpt lat="43.44428" lon="3.75926">
        <ele>55</ele>
        <time>2016-04-17T13:59:49.965Z</time>
      </trkpt>
      <trkpt lat="43.44431" lon="3.75931">
        <ele>55</ele>
        <time>2016-04-17T13:59:50.935Z</time>
      </trkpt>
      <trkpt lat="43.44434" lon="3.75936">
        <ele>55</ele>
        <time>2016-04-17T13:59:51.965Z</time>
      </trkpt>
      <trkpt lat="43.44437" lon="3.75942">
        <ele>57</ele>
        <time>2016-04-17T13:59:52.936Z</time>
      </trkpt>
      <trkpt lat="43.44443" lon="3.75949">
        <ele>57</ele>
        <time>2016-04-17T13:59:54.964Z</time>
      </trkpt>
      <trkpt lat="43.44443" lon="3.75953">
        <ele>56</ele>
        <time>2016-04-17T13:59:55.936Z</time>
      </trkpt>
      <trkpt lat="43.44447" lon="3.75963">
        <ele>56</ele>
        <time>2016-04-17T13:59:57.966Z</time>
      </trkpt>
      <trkpt lat="43.44449" lon="3.75968">
        <ele>56</ele>
        <time>2016-04-17T13:59:58.940Z</time>
      </trkpt>
      <trkpt lat="43.44451" lon="3.75973">
        <ele>56</ele>
        <time>2016-04-17T13:59:59.966Z</time>
      </trkpt>
      <trkpt lat="43.44453" lon="3.75979">
        <ele>54</ele>
        <time>2016-04-17T14:00:00.937Z</time>
      </trkpt>
      <trkpt lat="43.44455" lon="3.75984">
        <ele>54</ele>
        <time>2016-04-17T14:00:01.964Z</time>
      </trkpt>
      <trkpt lat="43.44457" lon="3.75991">
        <ele>53</ele>
        <time>2016-04-17T14:00:02.935Z</time>
      </trkpt>
      <trkpt lat="43.44461" lon="3.76001">
        <ele>53</ele>
        <time>2016-04-17T14:00:04.964Z</time>
      </trkpt>
      <trkpt lat="43.44463" lon="3.76006">
        <ele>52</ele>
        <time>2016-04-17T14:00:05.935Z</time>
      </trkpt>
      <trkpt lat="43.44463" lon="3.76013">
        <ele>51</ele>
        <time>2016-04-17T14:00:06.988Z</time>
      </trkpt>
      <trkpt lat="43.44465" lon="3.76019">
        <ele>50</ele>
        <time>2016-04-17T14:00:07.936Z</time>
      </trkpt>
      <trkpt lat="43.44467" lon="3.76031">
        <ele>49</ele>
        <time>2016-04-17T14:00:09.963Z</time>
      </trkpt>
      <trkpt lat="43.44469" lon="3.76036">
        <ele>50</ele>
        <time>2016-04-17T14:00:10.936Z</time>
      </trkpt>
      <trkpt lat="43.44471" lon="3.76046">
        <ele>51</ele>
        <time>2016-04-17T14:00:12.965Z</time>
      </trkpt>
      <trkpt lat="43.44472" lon="3.76054">
        <ele>52</ele>
        <time>2016-04-17T14:00:13.936Z</time>
      </trkpt>
      <trkpt lat="43.44472" lon="3.76064">
        <ele>52</ele>
        <time>2016-04-17T14:00:15.961Z</time>
      </trkpt>
      <trkpt lat="43.44473" lon="3.76068">
        <ele>52</ele>
        <time>2016-04-17T14:00:16.934Z</time>
      </trkpt>
      <trkpt lat="43.44477" lon="3.76077">
        <ele>53</ele>
        <time>2016-04-17T14:00:19.963Z</time>
      </trkpt>
      <trkpt lat="43.44478" lon="3.76079">
        <ele>54</ele>
        <time>2016-04-17T14:00:20.934Z</time>
      </trkpt>
      <trkpt lat="43.4447" lon="3.76084">
        <ele>54</ele>
        <time>2016-04-17T14:00:25.967Z</time>
      </trkpt>
      <trkpt lat="43.44469" lon="3.76084">
        <ele>54</ele>
        <time>2016-04-17T14:00:26.931Z</time>
      </trkpt>
      <trkpt lat="43.44461" lon="3.76086">
        <ele>53</ele>
        <time>2016-04-17T14:00:29.961Z</time>
      </trkpt>
      <trkpt lat="43.4446" lon="3.76091">
        <ele>54</ele>
        <time>2016-04-17T14:00:30.933Z</time>
      </trkpt>
      <trkpt lat="43.44456" lon="3.76097">
        <ele>54</ele>
        <time>2016-04-17T14:00:32.952Z</time>
      </trkpt>
      <trkpt lat="43.44455" lon="3.76101">
        <ele>53</ele>
        <time>2016-04-17T14:00:33.934Z</time>
      </trkpt>
      <trkpt lat="43.44454" lon="3.76109">
        <ele>54</ele>
        <time>2016-04-17T14:00:35.963Z</time>
      </trkpt>
      <trkpt lat="43.44455" lon="3.76114">
        <ele>54</ele>
        <time>2016-04-17T14:00:36.935Z</time>
      </trkpt>
      <trkpt lat="43.44456" lon="3.76127">
        <ele>55</ele>
        <time>2016-04-17T14:00:38.963Z</time>
      </trkpt>
      <trkpt lat="43.44456" lon="3.76132">
        <ele>55</ele>
        <time>2016-04-17T14:00:39.934Z</time>
      </trkpt>
      <trkpt lat="43.44458" lon="3.76144">
        <ele>54</ele>
        <time>2016-04-17T14:00:41.963Z</time>
      </trkpt>
      <trkpt lat="43.44458" lon="3.7615">
        <ele>54</ele>
        <time>2016-04-17T14:00:42.935Z</time>
      </trkpt>
      <trkpt lat="43.44459" lon="3.76156">
        <ele>55</ele>
        <time>2016-04-17T14:00:43.988Z</time>
      </trkpt>
      <trkpt lat="43.44458" lon="3.76163">
        <ele>55</ele>
        <time>2016-04-17T14:00:44.936Z</time>
      </trkpt>
      <trkpt lat="43.44458" lon="3.76175">
        <ele>55</ele>
        <time>2016-04-17T14:00:46.969Z</time>
      </trkpt>
      <trkpt lat="43.44458" lon="3.76183">
        <ele>55</ele>
        <time>2016-04-17T14:00:47.935Z</time>
      </trkpt>
      <trkpt lat="43.44459" lon="3.76192">
        <ele>53</ele>
        <time>2016-04-17T14:00:49.951Z</time>
      </trkpt>
      <trkpt lat="43.4446" lon="3.762">
        <ele>54</ele>
        <time>2016-04-17T14:00:50.932Z</time>
      </trkpt>
      <trkpt lat="43.44458" lon="3.76206">
        <ele>55</ele>
        <time>2016-04-17T14:00:51.965Z</time>
      </trkpt>
      <trkpt lat="43.44458" lon="3.76212">
        <ele>52</ele>
        <time>2016-04-17T14:00:52.934Z</time>
      </trkpt>
      <trkpt lat="43.44457" lon="3.76224">
        <ele>51</ele>
        <time>2016-04-17T14:00:54.970Z</time>
      </trkpt>
      <trkpt lat="43.44456" lon="3.76231">
        <ele>49</ele>
        <time>2016-04-17T14:00:55.936Z</time>
      </trkpt>
      <trkpt lat="43.44456" lon="3.76238">
        <ele>51</ele>
        <time>2016-04-17T14:00:56.962Z</time>
      </trkpt>
      <trkpt lat="43.44457" lon="3.76244">
        <ele>54</ele>
        <time>2016-04-17T14:00:57.936Z</time>
      </trkpt>
      <trkpt lat="43.44457" lon="3.76251">
        <ele>53</ele>
        <time>2016-04-17T14:00:58.962Z</time>
      </trkpt>
      <trkpt lat="43.44456" lon="3.76259">
        <ele>52</ele>
        <time>2016-04-17T14:00:59.961Z</time>
      </trkpt>
      <trkpt lat="43.44456" lon="3.76266">
        <ele>51</ele>
        <time>2016-04-17T14:01:00.964Z</time>
      </trkpt>
      <trkpt lat="43.44455" lon="3.76273">
        <ele>50</ele>
        <time>2016-04-17T14:01:01.935Z</time>
      </trkpt>
      <trkpt lat="43.44453" lon="3.76284">
        <ele>52</ele>
        <time>2016-04-17T14:01:03.976Z</time>
      </trkpt>
      <trkpt lat="43.44454" lon="3.7629">
        <ele>53</ele>
        <time>2016-04-17T14:01:04.936Z</time>
      </trkpt>
      <trkpt lat="43.44455" lon="3.76302">
        <ele>53</ele>
        <time>2016-04-17T14:01:06.988Z</time>
      </trkpt>
      <trkpt lat="43.44455" lon="3.76309">
        <ele>53</ele>
        <time>2016-04-17T14:01:07.934Z</time>
      </trkpt>
      <trkpt lat="43.44457" lon="3.7632">
        <ele>54</ele>
        <time>2016-04-17T14:01:09.971Z</time>
      </trkpt>
      <trkpt lat="43.44458" lon="3.76326">
        <ele>54</ele>
        <time>2016-04-17T14:01:10.933Z</time>
      </trkpt>
      <trkpt lat="43.44459" lon="3.76335">
        <ele>56</ele>
        <time>2016-04-17T14:01:13.018Z</time>
      </trkpt>
      <trkpt lat="43.44459" lon="3.7634">
        <ele>55</ele>
        <time>2016-04-17T14:01:13.933Z</time>
      </trkpt>
      <trkpt lat="43.44459" lon="3.7635">
        <ele>54</ele>
        <time>2016-04-17T14:01:15.984Z</time>
      </trkpt>
      <trkpt lat="43.44456" lon="3.76356">
        <ele>54</ele>
        <time>2016-04-17T14:01:16.937Z</time>
      </trkpt>
      <trkpt lat="43.44453" lon="3.76362">
        <ele>52</ele>
        <time>2016-04-17T14:01:17.963Z</time>
      </trkpt>
      <trkpt lat="43.44451" lon="3.76367">
        <ele>52</ele>
        <time>2016-04-17T14:01:18.933Z</time>
      </trkpt>
      <trkpt lat="43.44446" lon="3.7637">
        <ele>51</ele>
        <time>2016-04-17T14:01:19.959Z</time>
      </trkpt>
      <trkpt lat="43.44441" lon="3.76371">
        <ele>51</ele>
        <time>2016-04-17T14:01:20.934Z</time>
      </trkpt>
      <trkpt lat="43.44434" lon="3.76375">
        <ele>50</ele>
        <time>2016-04-17T14:01:22.961Z</time>
      </trkpt>
      <trkpt lat="43.4443" lon="3.76376">
        <ele>51</ele>
        <time>2016-04-17T14:01:23.936Z</time>
      </trkpt>
      <trkpt lat="43.44424" lon="3.76381">
        <ele>50</ele>
        <time>2016-04-17T14:01:26.126Z</time>
      </trkpt>
      <trkpt lat="43.4442" lon="3.76383">
        <ele>51</ele>
        <time>2016-04-17T14:01:26.934Z</time>
      </trkpt>
      <trkpt lat="43.44413" lon="3.7639">
        <ele>49</ele>
        <time>2016-04-17T14:01:46.965Z</time>
      </trkpt>
      <trkpt lat="43.44412" lon="3.7639">
        <ele>49</ele>
        <time>2016-04-17T14:01:47.936Z</time>
      </trkpt>
      <trkpt lat="43.44411" lon="3.7639">
        <ele>50</ele>
        <time>2016-04-17T14:01:52.024Z</time>
      </trkpt>
      <trkpt lat="43.44411" lon="3.7639">
        <ele>51</ele>
        <time>2016-04-17T14:01:52.964Z</time>
      </trkpt>
      <trkpt lat="43.44411" lon="3.7639">
        <ele>51</ele>
        <time>2016-04-17T14:01:57.963Z</time>
      </trkpt>
      <trkpt lat="43.44413" lon="3.76391">
        <ele>51</ele>
        <time>2016-04-17T14:01:58.933Z</time>
      </trkpt>
      <trkpt lat="43.44419" lon="3.76399">
        <ele>43</ele>
        <time>2016-04-17T14:02:12.964Z</time>
      </trkpt>
      <trkpt lat="43.44421" lon="3.76399">
        <ele>43</ele>
        <time>2016-04-17T14:02:13.937Z</time>
      </trkpt>
      <trkpt lat="43.44421" lon="3.76399">
        <ele>43</ele>
        <time>2016-04-17T14:02:13.977Z</time>
      </trkpt>
      <trkpt lat="43.44421" lon="3.76399">
        <ele>44</ele>
        <time>2016-04-17T14:02:14.934Z</time>
      </trkpt>
      <trkpt lat="43.4442" lon="3.764">
        <ele>44</ele>
        <time>2016-04-17T14:02:21.963Z</time>
      </trkpt>
      <trkpt lat="43.44419" lon="3.764">
        <ele>46</ele>
        <time>2016-04-17T14:02:22.936Z</time>
      </trkpt>
      <trkpt lat="43.44418" lon="3.76401">
        <ele>46</ele>
        <time>2016-04-17T14:02:25.959Z</time>
      </trkpt>
      <trkpt lat="43.44418" lon="3.764">
        <ele>47</ele>
        <time>2016-04-17T14:02:26.937Z</time>
      </trkpt>
      <trkpt lat="43.44417" lon="3.76401">
        <ele>46</ele>
        <time>2016-04-17T14:02:37.960Z</time>
      </trkpt>
      <trkpt lat="43.44417" lon="3.764">
        <ele>47</ele>
        <time>2016-04-17T14:02:38.936Z</time>
      </trkpt>
      <trkpt lat="43.44417" lon="3.764">
        <ele>46</ele>
        <time>2016-04-17T14:02:39.963Z</time>
      </trkpt>
      <trkpt lat="43.44417" lon="3.764">
        <ele>47</ele>
        <time>2016-04-17T14:02:40.962Z</time>
      </trkpt>
      <trkpt lat="43.44418" lon="3.764">
        <ele>48</ele>
        <time>2016-04-17T14:02:45.962Z</time>
      </trkpt>
      <trkpt lat="43.44417" lon="3.764">
        <ele>47</ele>
        <time>2016-04-17T14:02:46.937Z</time>
      </trkpt>
      <trkpt lat="43.4441" lon="3.76395">
        <ele>45</ele>
        <time>2016-04-17T14:02:57.960Z</time>
      </trkpt>
      <trkpt lat="43.44408" lon="3.76392">
        <ele>45</ele>
        <time>2016-04-17T14:02:58.934Z</time>
      </trkpt>
      <trkpt lat="43.44404" lon="3.76383">
        <ele>46</ele>
        <time>2016-04-17T14:03:01.964Z</time>
      </trkpt>
      <trkpt lat="43.44402" lon="3.76381">
        <ele>45</ele>
        <time>2016-04-17T14:03:02.936Z</time>
      </trkpt>
      <trkpt lat="43.44393" lon="3.76384">
        <ele>44</ele>
        <time>2016-04-17T14:03:09.968Z</time>
      </trkpt>
      <trkpt lat="43.4439" lon="3.76383">
        <ele>45</ele>
        <time>2016-04-17T14:03:10.936Z</time>
      </trkpt>
      <trkpt lat="43.44384" lon="3.76385">
        <ele>46</ele>
        <time>2016-04-17T14:03:12.961Z</time>
      </trkpt>
      <trkpt lat="43.44381" lon="3.76386">
        <ele>47</ele>
        <time>2016-04-17T14:03:13.936Z</time>
      </trkpt>
      <trkpt lat="43.44372" lon="3.76386">
        <ele>47</ele>
        <time>2016-04-17T14:03:15.962Z</time>
      </trkpt>
      <trkpt lat="43.44368" lon="3.76386">
        <ele>48</ele>
        <time>2016-04-17T14:03:16.936Z</time>
      </trkpt>
      <trkpt lat="43.4436" lon="3.76387">
        <ele>48</ele>
        <time>2016-04-17T14:03:18.967Z</time>
      </trkpt>
      <trkpt lat="43.44355" lon="3.76387">
        <ele>47</ele>
        <time>2016-04-17T14:03:19.938Z</time>
      </trkpt>
      <trkpt lat="43.44351" lon="3.76389">
        <ele>48</ele>
        <time>2016-04-17T14:03:20.964Z</time>
      </trkpt>
      <trkpt lat="43.44344" lon="3.76388">
        <ele>45</ele>
        <time>2016-04-17T14:03:21.937Z</time>
      </trkpt>
      <trkpt lat="43.44339" lon="3.76389">
        <ele>45</ele>
        <time>2016-04-17T14:03:22.964Z</time>
      </trkpt>
      <trkpt lat="43.44335" lon="3.76389">
        <ele>45</ele>
        <time>2016-04-17T14:03:23.936Z</time>
      </trkpt>
      <trkpt lat="43.4433" lon="3.76388">
        <ele>48</ele>
        <time>2016-04-17T14:03:24.962Z</time>
      </trkpt>
      <trkpt lat="43.44325" lon="3.76388">
        <ele>48</ele>
        <time>2016-04-17T14:03:25.938Z</time>
      </trkpt>
      <trkpt lat="43.4432" lon="3.76388">
        <ele>48</ele>
        <time>2016-04-17T14:03:26.969Z</time>
      </trkpt>
      <trkpt lat="43.44316" lon="3.76388">
        <ele>47</ele>
        <time>2016-04-17T14:03:27.938Z</time>
      </trkpt>
      <trkpt lat="43.44311" lon="3.76389">
        <ele>47</ele>
        <time>2016-04-17T14:03:28.943Z</time>
      </trkpt>
      <trkpt lat="43.44306" lon="3.7639">
        <ele>49</ele>
        <time>2016-04-17T14:03:29.936Z</time>
      </trkpt>
      <trkpt lat="43.44301" lon="3.76391">
        <ele>49</ele>
        <time>2016-04-17T14:03:30.964Z</time>
      </trkpt>
      <trkpt lat="43.44296" lon="3.76393">
        <ele>49</ele>
        <time>2016-04-17T14:03:31.936Z</time>
      </trkpt>
      <trkpt lat="43.44292" lon="3.76395">
        <ele>50</ele>
        <time>2016-04-17T14:03:32.964Z</time>
      </trkpt>
      <trkpt lat="43.44287" lon="3.76395">
        <ele>50</ele>
        <time>2016-04-17T14:03:33.934Z</time>
      </trkpt>
      <trkpt lat="43.44279" lon="3.76395">
        <ele>49</ele>
        <time>2016-04-17T14:03:36.099Z</time>
      </trkpt>
      <trkpt lat="43.44276" lon="3.76394">
        <ele>49</ele>
        <time>2016-04-17T14:03:36.939Z</time>
      </trkpt>
      <trkpt lat="43.44267" lon="3.76392">
        <ele>47</ele>
        <time>2016-04-17T14:03:44.986Z</time>
      </trkpt>
      <trkpt lat="43.44266" lon="3.76391">
        <ele>46</ele>
        <time>2016-04-17T14:03:45.936Z</time>
      </trkpt>
      <trkpt lat="43.44258" lon="3.76386">
        <ele>47</ele>
        <time>2016-04-17T14:03:51.963Z</time>
      </trkpt>
      <trkpt lat="43.44257" lon="3.76387">
        <ele>47</ele>
        <time>2016-04-17T14:03:52.935Z</time>
      </trkpt>
      <trkpt lat="43.44249" lon="3.76384">
        <ele>44</ele>
        <time>2016-04-17T14:04:01.960Z</time>
      </trkpt>
      <trkpt lat="43.44249" lon="3.76384">
        <ele>45</ele>
        <time>2016-04-17T14:04:02.935Z</time>
      </trkpt>
      <trkpt lat="43.44249" lon="3.76384">
        <ele>45</ele>
        <time>2016-04-17T14:04:02.978Z</time>
      </trkpt>
      <trkpt lat="43.44249" lon="3.76385">
        <ele>45</ele>
        <time>2016-04-17T14:04:03.936Z</time>
      </trkpt>
      <trkpt lat="43.44241" lon="3.76387">
        <ele>47</ele>
        <time>2016-04-17T14:04:12.964Z</time>
      </trkpt>
      <trkpt lat="43.4424" lon="3.76387">
        <ele>47</ele>
        <time>2016-04-17T14:04:13.937Z</time>
      </trkpt>
      <trkpt lat="43.44231" lon="3.76386">
        <ele>46</ele>
        <time>2016-04-17T14:04:20.967Z</time>
      </trkpt>
      <trkpt lat="43.44231" lon="3.76387">
        <ele>48</ele>
        <time>2016-04-17T14:04:21.938Z</time>
      </trkpt>
      <trkpt lat="43.44228" lon="3.76376">
        <ele>47</ele>
        <time>2016-04-17T14:04:37.965Z</time>
      </trkpt>
      <trkpt lat="43.44227" lon="3.76375">
        <ele>48</ele>
        <time>2016-04-17T14:04:38.937Z</time>
      </trkpt>
      <trkpt lat="43.44227" lon="3.76375">
        <ele>48</ele>
        <time>2016-04-17T14:04:39.963Z</time>
      </trkpt>
      <trkpt lat="43.44227" lon="3.76375">
        <ele>47</ele>
        <time>2016-04-17T14:04:40.937Z</time>
      </trkpt>
      <trkpt lat="43.44227" lon="3.76375">
        <ele>47</ele>
        <time>2016-04-17T14:04:41.962Z</time>
      </trkpt>
      <trkpt lat="43.44227" lon="3.76375">
        <ele>47</ele>
        <time>2016-04-17T14:04:42.937Z</time>
      </trkpt>
      <trkpt lat="43.44219" lon="3.76374">
        <ele>49</ele>
        <time>2016-04-17T14:04:45.963Z</time>
      </trkpt>
      <trkpt lat="43.44216" lon="3.76374">
        <ele>49</ele>
        <time>2016-04-17T14:04:46.935Z</time>
      </trkpt>
      <trkpt lat="43.44211" lon="3.76369">
        <ele>48</ele>
        <time>2016-04-17T14:04:48.961Z</time>
      </trkpt>
      <trkpt lat="43.44208" lon="3.76369">
        <ele>50</ele>
        <time>2016-04-17T14:04:49.937Z</time>
      </trkpt>
      <trkpt lat="43.442" lon="3.76368">
        <ele>50</ele>
        <time>2016-04-17T14:04:51.962Z</time>
      </trkpt>
      <trkpt lat="43.44196" lon="3.76367">
        <ele>51</ele>
        <time>2016-04-17T14:04:52.935Z</time>
      </trkpt>
      <trkpt lat="43.44189" lon="3.76367">
        <ele>51</ele>
        <time>2016-04-17T14:04:55.023Z</time>
      </trkpt>
      <trkpt lat="43.44185" lon="3.76367">
        <ele>53</ele>
        <time>2016-04-17T14:04:55.937Z</time>
      </trkpt>
      <trkpt lat="43.44178" lon="3.76365">
        <ele>53</ele>
        <time>2016-04-17T14:04:57.964Z</time>
      </trkpt>
      <trkpt lat="43.44173" lon="3.76365">
        <ele>52</ele>
        <time>2016-04-17T14:04:58.938Z</time>
      </trkpt>
      <trkpt lat="43.44166" lon="3.76363">
        <ele>51</ele>
        <time>2016-04-17T14:05:00.962Z</time>
      </trkpt>
      <trkpt lat="43.44161" lon="3.76363">
        <ele>51</ele>
        <time>2016-04-17T14:05:01.936Z</time>
      </trkpt>
      <trkpt lat="43.44154" lon="3.76359">
        <ele>52</ele>
        <time>2016-04-17T14:05:04.048Z</time>
      </trkpt>
      <trkpt lat="43.4415" lon="3.76358">
        <ele>52</ele>
        <time>2016-04-17T14:05:04.936Z</time>
      </trkpt>
      <trkpt lat="43.44142" lon="3.76356">
        <ele>51</ele>
        <time>2016-04-17T14:05:07.095Z</time>
      </trkpt>
      <trkpt lat="43.44139" lon="3.76356">
        <ele>51</ele>
        <time>2016-04-17T14:05:07.936Z</time>
      </trkpt>
      <trkpt lat="43.44133" lon="3.76352">
        <ele>50</ele>
        <time>2016-04-17T14:05:09.964Z</time>
      </trkpt>
      <trkpt lat="43.4413" lon="3.76351">
        <ele>50</ele>
        <time>2016-04-17T14:05:10.936Z</time>
      </trkpt>
      <trkpt lat="43.44124" lon="3.76344">
        <ele>51</ele>
        <time>2016-04-17T14:05:12.963Z</time>
      </trkpt>
      <trkpt lat="43.4412" lon="3.76341">
        <ele>51</ele>
        <time>2016-04-17T14:05:13.937Z</time>
      </trkpt>
      <trkpt lat="43.44112" lon="3.76338">
        <ele>51</ele>
        <time>2016-04-17T14:05:15.969Z</time>
      </trkpt>
      <trkpt lat="43.44108" lon="3.76338">
        <ele>50</ele>
        <time>2016-04-17T14:05:16.937Z</time>
      </trkpt>
      <trkpt lat="43.44099" lon="3.76335">
        <ele>51</ele>
        <time>2016-04-17T14:05:18.963Z</time>
      </trkpt>
      <trkpt lat="43.44094" lon="3.76334">
        <ele>51</ele>
        <time>2016-04-17T14:05:19.937Z</time>
      </trkpt>
      <trkpt lat="43.44086" lon="3.76331">
        <ele>51</ele>
        <time>2016-04-17T14:05:21.961Z</time>
      </trkpt>
      <trkpt lat="43.44081" lon="3.76328">
        <ele>49</ele>
        <time>2016-04-17T14:05:22.938Z</time>
      </trkpt>
      <trkpt lat="43.44075" lon="3.76327">
        <ele>49</ele>
        <time>2016-04-17T14:05:23.964Z</time>
      </trkpt>
      <trkpt lat="43.44071" lon="3.76325">
        <ele>48</ele>
        <time>2016-04-17T14:05:24.937Z</time>
      </trkpt>
      <trkpt lat="43.44065" lon="3.76323">
        <ele>49</ele>
        <time>2016-04-17T14:05:25.962Z</time>
      </trkpt>
      <trkpt lat="43.4406" lon="3.76321">
        <ele>49</ele>
        <time>2016-04-17T14:05:26.937Z</time>
      </trkpt>
      <trkpt lat="43.44055" lon="3.7632">
        <ele>50</ele>
        <time>2016-04-17T14:05:27.963Z</time>
      </trkpt>
      <trkpt lat="43.44051" lon="3.76319">
        <ele>50</ele>
        <time>2016-04-17T14:05:28.936Z</time>
      </trkpt>
      <trkpt lat="43.44045" lon="3.76317">
        <ele>51</ele>
        <time>2016-04-17T14:05:29.962Z</time>
      </trkpt>
      <trkpt lat="43.4404" lon="3.76315">
        <ele>50</ele>
        <time>2016-04-17T14:05:30.964Z</time>
      </trkpt>
      <trkpt lat="43.44033" lon="3.7631">
        <ele>49</ele>
        <time>2016-04-17T14:05:32.968Z</time>
      </trkpt>
      <trkpt lat="43.44028" lon="3.76309">
        <ele>49</ele>
        <time>2016-04-17T14:05:33.935Z</time>
      </trkpt>
      <trkpt lat="43.44023" lon="3.76306">
        <ele>49</ele>
        <time>2016-04-17T14:05:34.963Z</time>
      </trkpt>
      <trkpt lat="43.44017" lon="3.76303">
        <ele>48</ele>
        <time>2016-04-17T14:05:35.936Z</time>
      </trkpt>
      <trkpt lat="43.44012" lon="3.76301">
        <ele>48</ele>
        <time>2016-04-17T14:05:36.962Z</time>
      </trkpt>
      <trkpt lat="43.44006" lon="3.76298">
        <ele>49</ele>
        <time>2016-04-17T14:05:37.938Z</time>
      </trkpt>
      <trkpt lat="43.44002" lon="3.76296">
        <ele>49</ele>
        <time>2016-04-17T14:05:38.962Z</time>
      </trkpt>
      <trkpt lat="43.43997" lon="3.76292">
        <ele>50</ele>
        <time>2016-04-17T14:05:39.949Z</time>
      </trkpt>
      <trkpt lat="43.43993" lon="3.76288">
        <ele>51</ele>
        <time>2016-04-17T14:05:40.969Z</time>
      </trkpt>
      <trkpt lat="43.43989" lon="3.76287">
        <ele>51</ele>
        <time>2016-04-17T14:05:41.939Z</time>
      </trkpt>
      <trkpt lat="43.43982" lon="3.7629">
        <ele>52</ele>
        <time>2016-04-17T14:05:42.966Z</time>
      </trkpt>
      <trkpt lat="43.43977" lon="3.76288">
        <ele>52</ele>
        <time>2016-04-17T14:05:43.937Z</time>
      </trkpt>
      <trkpt lat="43.43973" lon="3.76283">
        <ele>52</ele>
        <time>2016-04-17T14:05:44.962Z</time>
      </trkpt>
      <trkpt lat="43.43968" lon="3.76281">
        <ele>52</ele>
        <time>2016-04-17T14:05:45.936Z</time>
      </trkpt>
      <trkpt lat="43.43962" lon="3.76278">
        <ele>52</ele>
        <time>2016-04-17T14:05:46.985Z</time>
      </trkpt>
      <trkpt lat="43.43958" lon="3.76275">
        <ele>53</ele>
        <time>2016-04-17T14:05:47.938Z</time>
      </trkpt>
      <trkpt lat="43.43953" lon="3.76271">
        <ele>53</ele>
        <time>2016-04-17T14:05:48.962Z</time>
      </trkpt>
      <trkpt lat="43.43949" lon="3.76266">
        <ele>51</ele>
        <time>2016-04-17T14:05:49.935Z</time>
      </trkpt>
      <trkpt lat="43.43944" lon="3.76263">
        <ele>50</ele>
        <time>2016-04-17T14:05:50.963Z</time>
      </trkpt>
      <trkpt lat="43.43939" lon="3.76259">
        <ele>50</ele>
        <time>2016-04-17T14:05:51.939Z</time>
      </trkpt>
      <trkpt lat="43.43934" lon="3.76256">
        <ele>50</ele>
        <time>2016-04-17T14:05:53.088Z</time>
      </trkpt>
      <trkpt lat="43.43929" lon="3.76253">
        <ele>50</ele>
        <time>2016-04-17T14:05:53.937Z</time>
      </trkpt>
      <trkpt lat="43.43924" lon="3.76249">
        <ele>50</ele>
        <time>2016-04-17T14:05:54.962Z</time>
      </trkpt>
      <trkpt lat="43.43919" lon="3.76245">
        <ele>50</ele>
        <time>2016-04-17T14:05:55.936Z</time>
      </trkpt>
      <trkpt lat="43.43915" lon="3.76242">
        <ele>50</ele>
        <time>2016-04-17T14:05:56.963Z</time>
      </trkpt>
      <trkpt lat="43.4391" lon="3.76238">
        <ele>50</ele>
        <time>2016-04-17T14:05:57.937Z</time>
      </trkpt>
      <trkpt lat="43.43905" lon="3.76234">
        <ele>50</ele>
        <time>2016-04-17T14:05:58.963Z</time>
      </trkpt>
      <trkpt lat="43.43901" lon="3.76229">
        <ele>49</ele>
        <time>2016-04-17T14:05:59.938Z</time>
      </trkpt>
      <trkpt lat="43.43896" lon="3.76225">
        <ele>50</ele>
        <time>2016-04-17T14:06:00.964Z</time>
      </trkpt>
      <trkpt lat="43.43892" lon="3.76221">
        <ele>50</ele>
        <time>2016-04-17T14:06:01.936Z</time>
      </trkpt>
      <trkpt lat="43.43889" lon="3.76218">
        <ele>51</ele>
        <time>2016-04-17T14:06:02.990Z</time>
      </trkpt>
      <trkpt lat="43.43885" lon="3.76213">
        <ele>51</ele>
        <time>2016-04-17T14:06:03.937Z</time>
      </trkpt>
      <trkpt lat="43.43882" lon="3.76203">
        <ele>51</ele>
        <time>2016-04-17T14:06:04.964Z</time>
      </trkpt>
      <trkpt lat="43.43877" lon="3.76199">
        <ele>52</ele>
        <time>2016-04-17T14:06:05.937Z</time>
      </trkpt>
      <trkpt lat="43.43873" lon="3.76194">
        <ele>53</ele>
        <time>2016-04-17T14:06:06.960Z</time>
      </trkpt>
      <trkpt lat="43.43869" lon="3.76189">
        <ele>53</ele>
        <time>2016-04-17T14:06:07.937Z</time>
      </trkpt>
      <trkpt lat="43.43865" lon="3.76184">
        <ele>52</ele>
        <time>2016-04-17T14:06:08.963Z</time>
      </trkpt>
      <trkpt lat="43.43862" lon="3.7618">
        <ele>52</ele>
        <time>2016-04-17T14:06:09.947Z</time>
      </trkpt>
      <trkpt lat="43.43858" lon="3.76174">
        <ele>52</ele>
        <time>2016-04-17T14:06:11.030Z</time>
      </trkpt>
      <trkpt lat="43.43854" lon="3.7617">
        <ele>52</ele>
        <time>2016-04-17T14:06:11.934Z</time>
      </trkpt>
      <trkpt lat="43.43849" lon="3.76164">
        <ele>53</ele>
        <time>2016-04-17T14:06:13.964Z</time>
      </trkpt>
      <trkpt lat="43.43846" lon="3.76161">
        <ele>53</ele>
        <time>2016-04-17T14:06:14.937Z</time>
      </trkpt>
      <trkpt lat="43.43841" lon="3.76155">
        <ele>53</ele>
        <time>2016-04-17T14:06:16.962Z</time>
      </trkpt>
      <trkpt lat="43.43839" lon="3.76152">
        <ele>54</ele>
        <time>2016-04-17T14:06:17.936Z</time>
      </trkpt>
      <trkpt lat="43.43833" lon="3.76145">
        <ele>53</ele>
        <time>2016-04-17T14:06:19.963Z</time>
      </trkpt>
      <trkpt lat="43.43831" lon="3.76142">
        <ele>53</ele>
        <time>2016-04-17T14:06:20.936Z</time>
      </trkpt>
      <trkpt lat="43.43826" lon="3.76138">
        <ele>56</ele>
        <time>2016-04-17T14:06:22.962Z</time>
      </trkpt>
      <trkpt lat="43.43823" lon="3.76135">
        <ele>56</ele>
        <time>2016-04-17T14:06:23.937Z</time>
      </trkpt>
      <trkpt lat="43.43816" lon="3.7613">
        <ele>56</ele>
        <time>2016-04-17T14:06:26.965Z</time>
      </trkpt>
      <trkpt lat="43.43814" lon="3.76128">
        <ele>55</ele>
        <time>2016-04-17T14:06:27.938Z</time>
      </trkpt>
      <trkpt lat="43.43809" lon="3.76123">
        <ele>55</ele>
        <time>2016-04-17T14:06:29.964Z</time>
      </trkpt>
      <trkpt lat="43.43806" lon="3.7612">
        <ele>55</ele>
        <time>2016-04-17T14:06:30.935Z</time>
      </trkpt>
      <trkpt lat="43.43799" lon="3.76116">
        <ele>55</ele>
        <time>2016-04-17T14:06:32.963Z</time>
      </trkpt>
      <trkpt lat="43.43796" lon="3.76112">
        <ele>56</ele>
        <time>2016-04-17T14:06:33.937Z</time>
      </trkpt>
      <trkpt lat="43.43791" lon="3.76123">
        <ele>57</ele>
        <time>2016-04-17T14:06:37.963Z</time>
      </trkpt>
      <trkpt lat="43.43789" lon="3.76128">
        <ele>56</ele>
        <time>2016-04-17T14:06:38.937Z</time>
      </trkpt>
      <trkpt lat="43.43785" lon="3.76134">
        <ele>56</ele>
        <time>2016-04-17T14:06:40.962Z</time>
      </trkpt>
      <trkpt lat="43.43782" lon="3.76139">
        <ele>57</ele>
        <time>2016-04-17T14:06:41.937Z</time>
      </trkpt>
      <trkpt lat="43.43777" lon="3.76147">
        <ele>60</ele>
        <time>2016-04-17T14:06:44.965Z</time>
      </trkpt>
      <trkpt lat="43.43775" lon="3.7615">
        <ele>58</ele>
        <time>2016-04-17T14:06:45.937Z</time>
      </trkpt>
      <trkpt lat="43.43775" lon="3.76158">
        <ele>57</ele>
        <time>2016-04-17T14:06:47.968Z</time>
      </trkpt>
      <trkpt lat="43.43777" lon="3.76164">
        <ele>60</ele>
        <time>2016-04-17T14:06:48.938Z</time>
      </trkpt>
      <trkpt lat="43.43769" lon="3.76165">
        <ele>64</ele>
        <time>2016-04-17T14:06:52.012Z</time>
      </trkpt>
      <trkpt lat="43.43767" lon="3.76165">
        <ele>65</ele>
        <time>2016-04-17T14:06:52.940Z</time>
      </trkpt>
      <trkpt lat="43.43764" lon="3.76166">
        <ele>65</ele>
        <time>2016-04-17T14:06:53.968Z</time>
      </trkpt>
      <trkpt lat="43.43758" lon="3.76161">
        <ele>62</ele>
        <time>2016-04-17T14:06:54.936Z</time>
      </trkpt>
      <trkpt lat="43.4375" lon="3.76161">
        <ele>62</ele>
        <time>2016-04-17T14:06:56.963Z</time>
      </trkpt>
      <trkpt lat="43.43747" lon="3.76162">
        <ele>61</ele>
        <time>2016-04-17T14:06:57.937Z</time>
      </trkpt>
      <trkpt lat="43.43738" lon="3.76165">
        <ele>60</ele>
        <time>2016-04-17T14:07:00.969Z</time>
      </trkpt>
      <trkpt lat="43.43736" lon="3.76165">
        <ele>60</ele>
        <time>2016-04-17T14:07:01.937Z</time>
      </trkpt>
      <trkpt lat="43.43731" lon="3.76159">
        <ele>58</ele>
        <time>2016-04-17T14:07:05.960Z</time>
      </trkpt>
      <trkpt lat="43.43729" lon="3.76157">
        <ele>57</ele>
        <time>2016-04-17T14:07:06.937Z</time>
      </trkpt>
      <trkpt lat="43.43721" lon="3.7616">
        <ele>58</ele>
        <time>2016-04-17T14:07:12.965Z</time>
      </trkpt>
      <trkpt lat="43.43719" lon="3.76163">
        <ele>58</ele>
        <time>2016-04-17T14:07:13.937Z</time>
      </trkpt>
      <trkpt lat="43.43712" lon="3.7617">
        <ele>57</ele>
        <time>2016-04-17T14:07:16.964Z</time>
      </trkpt>
      <trkpt lat="43.4371" lon="3.76172">
        <ele>57</ele>
        <time>2016-04-17T14:07:17.936Z</time>
      </trkpt>
      <trkpt lat="43.43711" lon="3.76171">
        <ele>57</ele>
        <time>2016-04-17T14:07:25.963Z</time>
      </trkpt>
      <trkpt lat="43.4371" lon="3.76172">
        <ele>57</ele>
        <time>2016-04-17T14:07:26.936Z</time>
      </trkpt>
      <trkpt lat="43.4371" lon="3.76171">
        <ele>59</ele>
        <time>2016-04-17T14:07:33.963Z</time>
      </trkpt>
      <trkpt lat="43.4371" lon="3.76171">
        <ele>58</ele>
        <time>2016-04-17T14:07:34.937Z</time>
      </trkpt>
      <trkpt lat="43.43708" lon="3.7618">
        <ele>57</ele>
        <time>2016-04-17T14:07:39.965Z</time>
      </trkpt>
      <trkpt lat="43.43708" lon="3.76183">
        <ele>58</ele>
        <time>2016-04-17T14:07:40.937Z</time>
      </trkpt>
      <trkpt lat="43.43702" lon="3.76192">
        <ele>58</ele>
        <time>2016-04-17T14:07:43.992Z</time>
      </trkpt>
      <trkpt lat="43.437" lon="3.76196">
        <ele>58</ele>
        <time>2016-04-17T14:07:44.938Z</time>
      </trkpt>
      <trkpt lat="43.43693" lon="3.76204">
        <ele>55</ele>
        <time>2016-04-17T14:07:46.965Z</time>
      </trkpt>
      <trkpt lat="43.43691" lon="3.76208">
        <ele>55</ele>
        <time>2016-04-17T14:07:47.938Z</time>
      </trkpt>
      <trkpt lat="43.43685" lon="3.76216">
        <ele>56</ele>
        <time>2016-04-17T14:07:49.963Z</time>
      </trkpt>
      <trkpt lat="43.43683" lon="3.76221">
        <ele>56</ele>
        <time>2016-04-17T14:07:50.937Z</time>
      </trkpt>
      <trkpt lat="43.43677" lon="3.76228">
        <ele>55</ele>
        <time>2016-04-17T14:07:52.963Z</time>
      </trkpt>
      <trkpt lat="43.43675" lon="3.76233">
        <ele>55</ele>
        <time>2016-04-17T14:07:53.937Z</time>
      </trkpt>
      <trkpt lat="43.4367" lon="3.76242">
        <ele>55</ele>
        <time>2016-04-17T14:07:55.964Z</time>
      </trkpt>
      <trkpt lat="43.43668" lon="3.76247">
        <ele>55</ele>
        <time>2016-04-17T14:07:56.938Z</time>
      </trkpt>
      <trkpt lat="43.43665" lon="3.76253">
        <ele>55</ele>
        <time>2016-04-17T14:07:57.963Z</time>
      </trkpt>
      <trkpt lat="43.43662" lon="3.76258">
        <ele>55</ele>
        <time>2016-04-17T14:07:58.937Z</time>
      </trkpt>
      <trkpt lat="43.43659" lon="3.76262">
        <ele>55</ele>
        <time>2016-04-17T14:07:59.966Z</time>
      </trkpt>
      <trkpt lat="43.43655" lon="3.76268">
        <ele>55</ele>
        <time>2016-04-17T14:08:00.936Z</time>
      </trkpt>
      <trkpt lat="43.43652" lon="3.76274">
        <ele>55</ele>
        <time>2016-04-17T14:08:01.962Z</time>
      </trkpt>
      <trkpt lat="43.43648" lon="3.7628">
        <ele>55</ele>
        <time>2016-04-17T14:08:02.937Z</time>
      </trkpt>
      <trkpt lat="43.43644" lon="3.76286">
        <ele>54</ele>
        <time>2016-04-17T14:08:03.963Z</time>
      </trkpt>
      <trkpt lat="43.4364" lon="3.76293">
        <ele>53</ele>
        <time>2016-04-17T14:08:04.960Z</time>
      </trkpt>
      <trkpt lat="43.43636" lon="3.76299">
        <ele>53</ele>
        <time>2016-04-17T14:08:05.965Z</time>
      </trkpt>
      <trkpt lat="43.43631" lon="3.76306">
        <ele>53</ele>
        <time>2016-04-17T14:08:06.937Z</time>
      </trkpt>
      <trkpt lat="43.43626" lon="3.76316">
        <ele>52</ele>
        <time>2016-04-17T14:08:08.964Z</time>
      </trkpt>
      <trkpt lat="43.43624" lon="3.76319">
        <ele>52</ele>
        <time>2016-04-17T14:08:09.937Z</time>
      </trkpt>
      <trkpt lat="43.43621" lon="3.76329">
        <ele>52</ele>
        <time>2016-04-17T14:08:18.967Z</time>
      </trkpt>
      <trkpt lat="43.43619" lon="3.76333">
        <ele>52</ele>
        <time>2016-04-17T14:08:19.936Z</time>
      </trkpt>
      <trkpt lat="43.43616" lon="3.76343">
        <ele>51</ele>
        <time>2016-04-17T14:08:21.964Z</time>
      </trkpt>
      <trkpt lat="43.43613" lon="3.76349">
        <ele>51</ele>
        <time>2016-04-17T14:08:22.936Z</time>
      </trkpt>
      <trkpt lat="43.4361" lon="3.76355">
        <ele>51</ele>
        <time>2016-04-17T14:08:23.964Z</time>
      </trkpt>
      <trkpt lat="43.43606" lon="3.7636">
        <ele>51</ele>
        <time>2016-04-17T14:08:24.937Z</time>
      </trkpt>
      <trkpt lat="43.43602" lon="3.76367">
        <ele>50</ele>
        <time>2016-04-17T14:08:25.975Z</time>
      </trkpt>
      <trkpt lat="43.43599" lon="3.76374">
        <ele>49</ele>
        <time>2016-04-17T14:08:26.939Z</time>
      </trkpt>
      <trkpt lat="43.43597" lon="3.76381">
        <ele>48</ele>
        <time>2016-04-17T14:08:27.964Z</time>
      </trkpt>
      <trkpt lat="43.43594" lon="3.76389">
        <ele>47</ele>
        <time>2016-04-17T14:08:28.937Z</time>
      </trkpt>
      <trkpt lat="43.43593" lon="3.76397">
        <ele>47</ele>
        <time>2016-04-17T14:08:29.963Z</time>
      </trkpt>
      <trkpt lat="43.4359" lon="3.76404">
        <ele>46</ele>
        <time>2016-04-17T14:08:30.936Z</time>
      </trkpt>
      <trkpt lat="43.43587" lon="3.76411">
        <ele>46</ele>
        <time>2016-04-17T14:08:31.964Z</time>
      </trkpt>
      <trkpt lat="43.43584" lon="3.76417">
        <ele>44</ele>
        <time>2016-04-17T14:08:32.937Z</time>
      </trkpt>
      <trkpt lat="43.43581" lon="3.76423">
        <ele>42</ele>
        <time>2016-04-17T14:08:33.985Z</time>
      </trkpt>
      <trkpt lat="43.43579" lon="3.7643">
        <ele>42</ele>
        <time>2016-04-17T14:08:34.938Z</time>
      </trkpt>
      <trkpt lat="43.43582" lon="3.76437">
        <ele>43</ele>
        <time>2016-04-17T14:08:35.983Z</time>
      </trkpt>
      <trkpt lat="43.43579" lon="3.76443">
        <ele>43</ele>
        <time>2016-04-17T14:08:36.939Z</time>
      </trkpt>
      <trkpt lat="43.43575" lon="3.7645">
        <ele>42</ele>
        <time>2016-04-17T14:08:37.964Z</time>
      </trkpt>
      <trkpt lat="43.43573" lon="3.76456">
        <ele>42</ele>
        <time>2016-04-17T14:08:38.937Z</time>
      </trkpt>
      <trkpt lat="43.43573" lon="3.76467">
        <ele>42</ele>
        <time>2016-04-17T14:08:40.965Z</time>
      </trkpt>
      <trkpt lat="43.43573" lon="3.76474">
        <ele>42</ele>
        <time>2016-04-17T14:08:41.962Z</time>
      </trkpt>
      <trkpt lat="43.43572" lon="3.7648">
        <ele>44</ele>
        <time>2016-04-17T14:08:42.958Z</time>
      </trkpt>
      <trkpt lat="43.43571" lon="3.76486">
        <ele>43</ele>
        <time>2016-04-17T14:08:43.937Z</time>
      </trkpt>
      <trkpt lat="43.4357" lon="3.76497">
        <ele>44</ele>
        <time>2016-04-17T14:08:45.964Z</time>
      </trkpt>
      <trkpt lat="43.43571" lon="3.76502">
        <ele>45</ele>
        <time>2016-04-17T14:08:46.937Z</time>
      </trkpt>
      <trkpt lat="43.43573" lon="3.76514">
        <ele>49</ele>
        <time>2016-04-17T14:08:52.964Z</time>
      </trkpt>
      <trkpt lat="43.43574" lon="3.76516">
        <ele>48</ele>
        <time>2016-04-17T14:08:53.938Z</time>
      </trkpt>
      <trkpt lat="43.43572" lon="3.76527">
        <ele>48</ele>
        <time>2016-04-17T14:08:56.964Z</time>
      </trkpt>
      <trkpt lat="43.43572" lon="3.7653">
        <ele>48</ele>
        <time>2016-04-17T14:08:57.963Z</time>
      </trkpt>
      <trkpt lat="43.43571" lon="3.76538">
        <ele>48</ele>
        <time>2016-04-17T14:08:59.965Z</time>
      </trkpt>
      <trkpt lat="43.4357" lon="3.76544">
        <ele>49</ele>
        <time>2016-04-17T14:09:00.937Z</time>
      </trkpt>
      <trkpt lat="43.43569" lon="3.76555">
        <ele>49</ele>
        <time>2016-04-17T14:09:02.966Z</time>
      </trkpt>
      <trkpt lat="43.43569" lon="3.76561">
        <ele>51</ele>
        <time>2016-04-17T14:09:03.937Z</time>
      </trkpt>
      <trkpt lat="43.43567" lon="3.76571">
        <ele>51</ele>
        <time>2016-04-17T14:09:05.963Z</time>
      </trkpt>
      <trkpt lat="43.43566" lon="3.76577">
        <ele>52</ele>
        <time>2016-04-17T14:09:06.940Z</time>
      </trkpt>
      <trkpt lat="43.43566" lon="3.76583">
        <ele>52</ele>
        <time>2016-04-17T14:09:07.965Z</time>
      </trkpt>
      <trkpt lat="43.43565" lon="3.7659">
        <ele>50</ele>
        <time>2016-04-17T14:09:08.938Z</time>
      </trkpt>
      <trkpt lat="43.43564" lon="3.76597">
        <ele>50</ele>
        <time>2016-04-17T14:09:09.962Z</time>
      </trkpt>
      <trkpt lat="43.43563" lon="3.76604">
        <ele>50</ele>
        <time>2016-04-17T14:09:10.938Z</time>
      </trkpt>
      <trkpt lat="43.43563" lon="3.76611">
        <ele>50</ele>
        <time>2016-04-17T14:09:11.962Z</time>
      </trkpt>
      <trkpt lat="43.43563" lon="3.76618">
        <ele>49</ele>
        <time>2016-04-17T14:09:12.938Z</time>
      </trkpt>
      <trkpt lat="43.43562" lon="3.76625">
        <ele>49</ele>
        <time>2016-04-17T14:09:13.985Z</time>
      </trkpt>
      <trkpt lat="43.43561" lon="3.76632">
        <ele>48</ele>
        <time>2016-04-17T14:09:14.938Z</time>
      </trkpt>
      <trkpt lat="43.43563" lon="3.76639">
        <ele>49</ele>
        <time>2016-04-17T14:09:15.963Z</time>
      </trkpt>
      <trkpt lat="43.43563" lon="3.76644">
        <ele>49</ele>
        <time>2016-04-17T14:09:16.936Z</time>
      </trkpt>
      <trkpt lat="43.43566" lon="3.7665">
        <ele>53</ele>
        <time>2016-04-17T14:09:17.963Z</time>
      </trkpt>
      <trkpt lat="43.43566" lon="3.76656">
        <ele>53</ele>
        <time>2016-04-17T14:09:18.937Z</time>
      </trkpt>
      <trkpt lat="43.43566" lon="3.76663">
        <ele>54</ele>
        <time>2016-04-17T14:09:19.964Z</time>
      </trkpt>
      <trkpt lat="43.43566" lon="3.76671">
        <ele>53</ele>
        <time>2016-04-17T14:09:20.937Z</time>
      </trkpt>
      <trkpt lat="43.43567" lon="3.76678">
        <ele>53</ele>
        <time>2016-04-17T14:09:21.962Z</time>
      </trkpt>
      <trkpt lat="43.43567" lon="3.76685">
        <ele>53</ele>
        <time>2016-04-17T14:09:22.932Z</time>
      </trkpt>
      <trkpt lat="43.43565" lon="3.76691">
        <ele>53</ele>
        <time>2016-04-17T14:09:23.958Z</time>
      </trkpt>
      <trkpt lat="43.43565" lon="3.76698">
        <ele>52</ele>
        <time>2016-04-17T14:09:24.939Z</time>
      </trkpt>
      <trkpt lat="43.43565" lon="3.76706">
        <ele>53</ele>
        <time>2016-04-17T14:09:25.960Z</time>
      </trkpt>
      <trkpt lat="43.43564" lon="3.76712">
        <ele>52</ele>
        <time>2016-04-17T14:09:26.937Z</time>
      </trkpt>
      <trkpt lat="43.43565" lon="3.76719">
        <ele>53</ele>
        <time>2016-04-17T14:09:27.961Z</time>
      </trkpt>
      <trkpt lat="43.43564" lon="3.76726">
        <ele>52</ele>
        <time>2016-04-17T14:09:28.938Z</time>
      </trkpt>
      <trkpt lat="43.43563" lon="3.76732">
        <ele>53</ele>
        <time>2016-04-17T14:09:29.984Z</time>
      </trkpt>
      <trkpt lat="43.43563" lon="3.76739">
        <ele>53</ele>
        <time>2016-04-17T14:09:30.939Z</time>
      </trkpt>
      <trkpt lat="43.43563" lon="3.76746">
        <ele>53</ele>
        <time>2016-04-17T14:09:31.961Z</time>
      </trkpt>
      <trkpt lat="43.43563" lon="3.76753">
        <ele>53</ele>
        <time>2016-04-17T14:09:32.940Z</time>
      </trkpt>
      <trkpt lat="43.43563" lon="3.7676">
        <ele>53</ele>
        <time>2016-04-17T14:09:33.964Z</time>
      </trkpt>
      <trkpt lat="43.43563" lon="3.76767">
        <ele>52</ele>
        <time>2016-04-17T14:09:34.939Z</time>
      </trkpt>
      <trkpt lat="43.43562" lon="3.76774">
        <ele>52</ele>
        <time>2016-04-17T14:09:35.962Z</time>
      </trkpt>
      <trkpt lat="43.43562" lon="3.76781">
        <ele>52</ele>
        <time>2016-04-17T14:09:36.936Z</time>
      </trkpt>
      <trkpt lat="43.43561" lon="3.76788">
        <ele>51</ele>
        <time>2016-04-17T14:09:37.961Z</time>
      </trkpt>
      <trkpt lat="43.43561" lon="3.76795">
        <ele>51</ele>
        <time>2016-04-17T14:09:38.938Z</time>
      </trkpt>
      <trkpt lat="43.4356" lon="3.76802">
        <ele>51</ele>
        <time>2016-04-17T14:09:39.960Z</time>
      </trkpt>
      <trkpt lat="43.4356" lon="3.76809">
        <ele>51</ele>
        <time>2016-04-17T14:09:40.938Z</time>
      </trkpt>
      <trkpt lat="43.43559" lon="3.76815">
        <ele>52</ele>
        <time>2016-04-17T14:09:41.961Z</time>
      </trkpt>
      <trkpt lat="43.43559" lon="3.76821">
        <ele>51</ele>
        <time>2016-04-17T14:09:42.938Z</time>
      </trkpt>
      <trkpt lat="43.43558" lon="3.76833">
        <ele>51</ele>
        <time>2016-04-17T14:09:45.092Z</time>
      </trkpt>
      <trkpt lat="43.43557" lon="3.76839">
        <ele>52</ele>
        <time>2016-04-17T14:09:45.960Z</time>
      </trkpt>
      <trkpt lat="43.43556" lon="3.76846">
        <ele>52</ele>
        <time>2016-04-17T14:09:46.963Z</time>
      </trkpt>
      <trkpt lat="43.43555" lon="3.76852">
        <ele>52</ele>
        <time>2016-04-17T14:09:47.940Z</time>
      </trkpt>
      <trkpt lat="43.43554" lon="3.76858">
        <ele>52</ele>
        <time>2016-04-17T14:09:48.961Z</time>
      </trkpt>
      <trkpt lat="43.43554" lon="3.76865">
        <ele>51</ele>
        <time>2016-04-17T14:09:49.938Z</time>
      </trkpt>
      <trkpt lat="43.43554" lon="3.76872">
        <ele>51</ele>
        <time>2016-04-17T14:09:50.961Z</time>
      </trkpt>
      <trkpt lat="43.43554" lon="3.7688">
        <ele>51</ele>
        <time>2016-04-17T14:09:51.939Z</time>
      </trkpt>
      <trkpt lat="43.43554" lon="3.76886">
        <ele>51</ele>
        <time>2016-04-17T14:09:52.961Z</time>
      </trkpt>
      <trkpt lat="43.43554" lon="3.76893">
        <ele>52</ele>
        <time>2016-04-17T14:09:53.938Z</time>
      </trkpt>
      <trkpt lat="43.43554" lon="3.769">
        <ele>52</ele>
        <time>2016-04-17T14:09:54.961Z</time>
      </trkpt>
      <trkpt lat="43.43552" lon="3.76908">
        <ele>52</ele>
        <time>2016-04-17T14:09:55.938Z</time>
      </trkpt>
      <trkpt lat="43.43551" lon="3.76914">
        <ele>52</ele>
        <time>2016-04-17T14:09:56.961Z</time>
      </trkpt>
      <trkpt lat="43.43551" lon="3.76921">
        <ele>52</ele>
        <time>2016-04-17T14:09:57.939Z</time>
      </trkpt>
      <trkpt lat="43.43551" lon="3.76928">
        <ele>52</ele>
        <time>2016-04-17T14:09:58.961Z</time>
      </trkpt>
      <trkpt lat="43.43551" lon="3.76935">
        <ele>52</ele>
        <time>2016-04-17T14:09:59.938Z</time>
      </trkpt>
      <trkpt lat="43.43551" lon="3.76941">
        <ele>52</ele>
        <time>2016-04-17T14:10:00.961Z</time>
      </trkpt>
      <trkpt lat="43.43551" lon="3.76948">
        <ele>51</ele>
        <time>2016-04-17T14:10:01.960Z</time>
      </trkpt>
      <trkpt lat="43.43551" lon="3.76955">
        <ele>52</ele>
        <time>2016-04-17T14:10:02.962Z</time>
      </trkpt>
      <trkpt lat="43.43551" lon="3.76961">
        <ele>53</ele>
        <time>2016-04-17T14:10:03.938Z</time>
      </trkpt>
      <trkpt lat="43.4355" lon="3.76968">
        <ele>53</ele>
        <time>2016-04-17T14:10:04.952Z</time>
      </trkpt>
      <trkpt lat="43.4355" lon="3.76976">
        <ele>52</ele>
        <time>2016-04-17T14:10:05.937Z</time>
      </trkpt>
      <trkpt lat="43.43549" lon="3.76983">
        <ele>52</ele>
        <time>2016-04-17T14:10:06.961Z</time>
      </trkpt>
      <trkpt lat="43.43549" lon="3.7699">
        <ele>52</ele>
        <time>2016-04-17T14:10:07.938Z</time>
      </trkpt>
      <trkpt lat="43.43549" lon="3.76997">
        <ele>53</ele>
        <time>2016-04-17T14:10:08.962Z</time>
      </trkpt>
      <trkpt lat="43.43549" lon="3.77004">
        <ele>53</ele>
        <time>2016-04-17T14:10:09.939Z</time>
      </trkpt>
      <trkpt lat="43.43549" lon="3.77012">
        <ele>51</ele>
        <time>2016-04-17T14:10:10.967Z</time>
      </trkpt>
      <trkpt lat="43.43549" lon="3.77019">
        <ele>51</ele>
        <time>2016-04-17T14:10:11.940Z</time>
      </trkpt>
      <trkpt lat="43.43549" lon="3.77026">
        <ele>50</ele>
        <time>2016-04-17T14:10:12.965Z</time>
      </trkpt>
      <trkpt lat="43.43549" lon="3.77034">
        <ele>51</ele>
        <time>2016-04-17T14:10:13.937Z</time>
      </trkpt>
      <trkpt lat="43.43548" lon="3.77041">
        <ele>52</ele>
        <time>2016-04-17T14:10:14.964Z</time>
      </trkpt>
      <trkpt lat="43.43549" lon="3.77049">
        <ele>50</ele>
        <time>2016-04-17T14:10:15.938Z</time>
      </trkpt>
      <trkpt lat="43.43548" lon="3.77055">
        <ele>52</ele>
        <time>2016-04-17T14:10:16.964Z</time>
      </trkpt>
      <trkpt lat="43.43546" lon="3.77063">
        <ele>54</ele>
        <time>2016-04-17T14:10:17.963Z</time>
      </trkpt>
      <trkpt lat="43.43545" lon="3.7707">
        <ele>54</ele>
        <time>2016-04-17T14:10:18.965Z</time>
      </trkpt>
      <trkpt lat="43.43543" lon="3.77076">
        <ele>55</ele>
        <time>2016-04-17T14:10:19.941Z</time>
      </trkpt>
      <trkpt lat="43.4354" lon="3.77083">
        <ele>55</ele>
        <time>2016-04-17T14:10:20.962Z</time>
      </trkpt>
      <trkpt lat="43.43537" lon="3.77088">
        <ele>54</ele>
        <time>2016-04-17T14:10:21.936Z</time>
      </trkpt>
      <trkpt lat="43.43534" lon="3.77092">
        <ele>55</ele>
        <time>2016-04-17T14:10:22.964Z</time>
      </trkpt>
      <trkpt lat="43.4353" lon="3.77098">
        <ele>54</ele>
        <time>2016-04-17T14:10:23.936Z</time>
      </trkpt>
      <trkpt lat="43.43527" lon="3.77101">
        <ele>55</ele>
        <time>2016-04-17T14:10:24.965Z</time>
      </trkpt>
      <trkpt lat="43.43523" lon="3.77105">
        <ele>55</ele>
        <time>2016-04-17T14:10:25.939Z</time>
      </trkpt>
      <trkpt lat="43.43517" lon="3.77113">
        <ele>55</ele>
        <time>2016-04-17T14:10:27.967Z</time>
      </trkpt>
      <trkpt lat="43.43516" lon="3.77118">
        <ele>55</ele>
        <time>2016-04-17T14:10:28.938Z</time>
      </trkpt>
      <trkpt lat="43.43518" lon="3.77129">
        <ele>57</ele>
        <time>2016-04-17T14:10:31.964Z</time>
      </trkpt>
      <trkpt lat="43.43518" lon="3.77134">
        <ele>58</ele>
        <time>2016-04-17T14:10:32.936Z</time>
      </trkpt>
      <trkpt lat="43.43522" lon="3.77144">
        <ele>57</ele>
        <time>2016-04-17T14:10:35.964Z</time>
      </trkpt>
      <trkpt lat="43.43526" lon="3.77147">
        <ele>58</ele>
        <time>2016-04-17T14:10:36.938Z</time>
      </trkpt>
      <trkpt lat="43.43531" lon="3.77152">
        <ele>58</ele>
        <time>2016-04-17T14:10:38.963Z</time>
      </trkpt>
      <trkpt lat="43.43533" lon="3.77155">
        <ele>59</ele>
        <time>2016-04-17T14:10:39.936Z</time>
      </trkpt>
      <trkpt lat="43.43537" lon="3.77165">
        <ele>57</ele>
        <time>2016-04-17T14:10:41.963Z</time>
      </trkpt>
      <trkpt lat="43.43538" lon="3.77169">
        <ele>57</ele>
        <time>2016-04-17T14:10:42.937Z</time>
      </trkpt>
      <trkpt lat="43.43539" lon="3.77179">
        <ele>57</ele>
        <time>2016-04-17T14:10:45.026Z</time>
      </trkpt>
      <trkpt lat="43.4354" lon="3.77185">
        <ele>57</ele>
        <time>2016-04-17T14:10:45.937Z</time>
      </trkpt>
      <trkpt lat="43.43539" lon="3.77194">
        <ele>56</ele>
        <time>2016-04-17T14:10:47.964Z</time>
      </trkpt>
      <trkpt lat="43.4354" lon="3.77199">
        <ele>56</ele>
        <time>2016-04-17T14:10:48.937Z</time>
      </trkpt>
      <trkpt lat="43.4354" lon="3.77211">
        <ele>58</ele>
        <time>2016-04-17T14:10:50.966Z</time>
      </trkpt>
      <trkpt lat="43.4354" lon="3.77218">
        <ele>57</ele>
        <time>2016-04-17T14:10:51.937Z</time>
      </trkpt>
      <trkpt lat="43.43539" lon="3.77226">
        <ele>57</ele>
        <time>2016-04-17T14:10:52.963Z</time>
      </trkpt>
      <trkpt lat="43.43539" lon="3.77232">
        <ele>56</ele>
        <time>2016-04-17T14:10:53.938Z</time>
      </trkpt>
      <trkpt lat="43.4354" lon="3.77244">
        <ele>55</ele>
        <time>2016-04-17T14:10:56.032Z</time>
      </trkpt>
      <trkpt lat="43.43539" lon="3.7725">
        <ele>54</ele>
        <time>2016-04-17T14:10:56.938Z</time>
      </trkpt>
      <trkpt lat="43.43539" lon="3.77257">
        <ele>54</ele>
        <time>2016-04-17T14:10:57.962Z</time>
      </trkpt>
      <trkpt lat="43.43539" lon="3.77264">
        <ele>52</ele>
        <time>2016-04-17T14:10:58.936Z</time>
      </trkpt>
      <trkpt lat="43.43538" lon="3.77271">
        <ele>52</ele>
        <time>2016-04-17T14:10:59.964Z</time>
      </trkpt>
      <trkpt lat="43.43537" lon="3.77279">
        <ele>51</ele>
        <time>2016-04-17T14:11:00.937Z</time>
      </trkpt>
      <trkpt lat="43.43536" lon="3.77286">
        <ele>51</ele>
        <time>2016-04-17T14:11:01.963Z</time>
      </trkpt>
      <trkpt lat="43.43536" lon="3.77291">
        <ele>51</ele>
        <time>2016-04-17T14:11:02.937Z</time>
      </trkpt>
      <trkpt lat="43.43533" lon="3.77298">
        <ele>50</ele>
        <time>2016-04-17T14:11:03.966Z</time>
      </trkpt>
      <trkpt lat="43.43531" lon="3.77304">
        <ele>51</ele>
        <time>2016-04-17T14:11:04.937Z</time>
      </trkpt>
      <trkpt lat="43.43531" lon="3.7731">
        <ele>51</ele>
        <time>2016-04-17T14:11:05.966Z</time>
      </trkpt>
      <trkpt lat="43.43531" lon="3.77317">
        <ele>51</ele>
        <time>2016-04-17T14:11:06.937Z</time>
      </trkpt>
      <trkpt lat="43.43532" lon="3.77324">
        <ele>51</ele>
        <time>2016-04-17T14:11:07.965Z</time>
      </trkpt>
      <trkpt lat="43.43531" lon="3.77331">
        <ele>51</ele>
        <time>2016-04-17T14:11:08.937Z</time>
      </trkpt>
      <trkpt lat="43.4353" lon="3.77338">
        <ele>51</ele>
        <time>2016-04-17T14:11:09.963Z</time>
      </trkpt>
      <trkpt lat="43.43529" lon="3.77345">
        <ele>51</ele>
        <time>2016-04-17T14:11:10.963Z</time>
      </trkpt>
      <trkpt lat="43.43527" lon="3.77351">
        <ele>48</ele>
        <time>2016-04-17T14:11:11.964Z</time>
      </trkpt>
      <trkpt lat="43.43526" lon="3.77358">
        <ele>47</ele>
        <time>2016-04-17T14:11:12.939Z</time>
      </trkpt>
      <trkpt lat="43.43526" lon="3.77364">
        <ele>48</ele>
        <time>2016-04-17T14:11:13.962Z</time>
      </trkpt>
      <trkpt lat="43.43526" lon="3.77371">
        <ele>48</ele>
        <time>2016-04-17T14:11:14.936Z</time>
      </trkpt>
      <trkpt lat="43.43524" lon="3.77378">
        <ele>46</ele>
        <time>2016-04-17T14:11:15.965Z</time>
      </trkpt>
      <trkpt lat="43.43523" lon="3.77384">
        <ele>47</ele>
        <time>2016-04-17T14:11:16.937Z</time>
      </trkpt>
      <trkpt lat="43.4352" lon="3.77395">
        <ele>44</ele>
        <time>2016-04-17T14:11:18.966Z</time>
      </trkpt>
      <trkpt lat="43.43523" lon="3.77401">
        <ele>44</ele>
        <time>2016-04-17T14:11:19.938Z</time>
      </trkpt>
      <trkpt lat="43.43522" lon="3.77411">
        <ele>47</ele>
        <time>2016-04-17T14:11:21.961Z</time>
      </trkpt>
      <trkpt lat="43.43521" lon="3.77415">
        <ele>46</ele>
        <time>2016-04-17T14:11:22.938Z</time>
      </trkpt>
      <trkpt lat="43.4352" lon="3.77425">
        <ele>45</ele>
        <time>2016-04-17T14:11:24.965Z</time>
      </trkpt>
      <trkpt lat="43.43519" lon="3.77431">
        <ele>44</ele>
        <time>2016-04-17T14:11:25.937Z</time>
      </trkpt>
      <trkpt lat="43.43522" lon="3.7744">
        <ele>46</ele>
        <time>2016-04-17T14:11:27.965Z</time>
      </trkpt>
      <trkpt lat="43.43523" lon="3.77445">
        <ele>47</ele>
        <time>2016-04-17T14:11:28.939Z</time>
      </trkpt>
      <trkpt lat="43.43524" lon="3.77456">
        <ele>49</ele>
        <time>2016-04-17T14:11:30.968Z</time>
      </trkpt>
      <trkpt lat="43.43523" lon="3.77463">
        <ele>48</ele>
        <time>2016-04-17T14:11:31.938Z</time>
      </trkpt>
      <trkpt lat="43.43523" lon="3.77474">
        <ele>49</ele>
        <time>2016-04-17T14:11:33.970Z</time>
      </trkpt>
      <trkpt lat="43.43522" lon="3.77481">
        <ele>49</ele>
        <time>2016-04-17T14:11:34.938Z</time>
      </trkpt>
      <trkpt lat="43.43522" lon="3.77493">
        <ele>49</ele>
        <time>2016-04-17T14:11:36.967Z</time>
      </trkpt>
      <trkpt lat="43.43522" lon="3.77499">
        <ele>49</ele>
        <time>2016-04-17T14:11:37.937Z</time>
      </trkpt>
      <trkpt lat="43.43522" lon="3.77505">
        <ele>48</ele>
        <time>2016-04-17T14:11:38.963Z</time>
      </trkpt>
      <trkpt lat="43.43523" lon="3.77511">
        <ele>47</ele>
        <time>2016-04-17T14:11:39.938Z</time>
      </trkpt>
      <trkpt lat="43.43524" lon="3.77523">
        <ele>48</ele>
        <time>2016-04-17T14:11:41.968Z</time>
      </trkpt>
      <trkpt lat="43.43525" lon="3.77528">
        <ele>49</ele>
        <time>2016-04-17T14:11:42.963Z</time>
      </trkpt>
      <trkpt lat="43.43526" lon="3.77538">
        <ele>50</ele>
        <time>2016-04-17T14:11:44.965Z</time>
      </trkpt>
      <trkpt lat="43.43524" lon="3.77544">
        <ele>53</ele>
        <time>2016-04-17T14:11:45.937Z</time>
      </trkpt>
      <trkpt lat="43.43524" lon="3.77555">
        <ele>55</ele>
        <time>2016-04-17T14:11:47.964Z</time>
      </trkpt>
      <trkpt lat="43.43525" lon="3.7756">
        <ele>55</ele>
        <time>2016-04-17T14:11:48.939Z</time>
      </trkpt>
      <trkpt lat="43.43525" lon="3.77569">
        <ele>54</ele>
        <time>2016-04-17T14:11:50.966Z</time>
      </trkpt>
      <trkpt lat="43.43526" lon="3.77575">
        <ele>54</ele>
        <time>2016-04-17T14:11:51.938Z</time>
      </trkpt>
      <trkpt lat="43.43527" lon="3.77583">
        <ele>54</ele>
        <time>2016-04-17T14:11:53.965Z</time>
      </trkpt>
      <trkpt lat="43.43528" lon="3.7759">
        <ele>54</ele>
        <time>2016-04-17T14:11:54.939Z</time>
      </trkpt>
      <trkpt lat="43.43528" lon="3.77599">
        <ele>54</ele>
        <time>2016-04-17T14:11:56.961Z</time>
      </trkpt>
      <trkpt lat="43.43529" lon="3.77603">
        <ele>54</ele>
        <time>2016-04-17T14:11:57.938Z</time>
      </trkpt>
      <trkpt lat="43.43531" lon="3.77613">
        <ele>55</ele>
        <time>2016-04-17T14:11:59.965Z</time>
      </trkpt>
      <trkpt lat="43.43533" lon="3.77619">
        <ele>54</ele>
        <time>2016-04-17T14:12:00.938Z</time>
      </trkpt>
      <trkpt lat="43.43534" lon="3.77628">
        <ele>53</ele>
        <time>2016-04-17T14:12:02.967Z</time>
      </trkpt>
      <trkpt lat="43.43534" lon="3.77633">
        <ele>54</ele>
        <time>2016-04-17T14:12:03.938Z</time>
      </trkpt>
      <trkpt lat="43.43535" lon="3.77644">
        <ele>54</ele>
        <time>2016-04-17T14:12:05.965Z</time>
      </trkpt>
      <trkpt lat="43.43536" lon="3.7765">
        <ele>55</ele>
        <time>2016-04-17T14:12:06.937Z</time>
      </trkpt>
      <trkpt lat="43.43539" lon="3.77659">
        <ele>55</ele>
        <time>2016-04-17T14:12:09.079Z</time>
      </trkpt>
      <trkpt lat="43.43538" lon="3.77664">
        <ele>56</ele>
        <time>2016-04-17T14:12:09.937Z</time>
      </trkpt>
      <trkpt lat="43.43538" lon="3.77671">
        <ele>57</ele>
        <time>2016-04-17T14:12:10.964Z</time>
      </trkpt>
      <trkpt lat="43.43539" lon="3.77678">
        <ele>56</ele>
        <time>2016-04-17T14:12:11.938Z</time>
      </trkpt>
      <trkpt lat="43.4354" lon="3.77684">
        <ele>56</ele>
        <time>2016-04-17T14:12:12.963Z</time>
      </trkpt>
      <trkpt lat="43.43541" lon="3.77692">
        <ele>55</ele>
        <time>2016-04-17T14:12:13.936Z</time>
      </trkpt>
      <trkpt lat="43.43542" lon="3.777">
        <ele>55</ele>
        <time>2016-04-17T14:12:14.966Z</time>
      </trkpt>
      <trkpt lat="43.43542" lon="3.77708">
        <ele>54</ele>
        <time>2016-04-17T14:12:15.938Z</time>
      </trkpt>
      <trkpt lat="43.43543" lon="3.77716">
        <ele>54</ele>
        <time>2016-04-17T14:12:16.964Z</time>
      </trkpt>
      <trkpt lat="43.43544" lon="3.77725">
        <ele>53</ele>
        <time>2016-04-17T14:12:17.936Z</time>
      </trkpt>
      <trkpt lat="43.43545" lon="3.77732">
        <ele>53</ele>
        <time>2016-04-17T14:12:18.965Z</time>
      </trkpt>
      <trkpt lat="43.43546" lon="3.7774">
        <ele>53</ele>
        <time>2016-04-17T14:12:19.962Z</time>
      </trkpt>
      <trkpt lat="43.43547" lon="3.77749">
        <ele>53</ele>
        <time>2016-04-17T14:12:21.092Z</time>
      </trkpt>
      <trkpt lat="43.43548" lon="3.77757">
        <ele>53</ele>
        <time>2016-04-17T14:12:21.935Z</time>
      </trkpt>
      <trkpt lat="43.43548" lon="3.77766">
        <ele>52</ele>
        <time>2016-04-17T14:12:22.964Z</time>
      </trkpt>
      <trkpt lat="43.43545" lon="3.77774">
        <ele>53</ele>
        <time>2016-04-17T14:12:23.937Z</time>
      </trkpt>
      <trkpt lat="43.43542" lon="3.77782">
        <ele>54</ele>
        <time>2016-04-17T14:12:24.966Z</time>
      </trkpt>
      <trkpt lat="43.43538" lon="3.77789">
        <ele>55</ele>
        <time>2016-04-17T14:12:25.938Z</time>
      </trkpt>
      <trkpt lat="43.43535" lon="3.77798">
        <ele>54</ele>
        <time>2016-04-17T14:12:27.966Z</time>
      </trkpt>
      <trkpt lat="43.43534" lon="3.77802">
        <ele>54</ele>
        <time>2016-04-17T14:12:28.938Z</time>
      </trkpt>
      <trkpt lat="43.43538" lon="3.7781">
        <ele>53</ele>
        <time>2016-04-17T14:12:30.989Z</time>
      </trkpt>
      <trkpt lat="43.4354" lon="3.77815">
        <ele>54</ele>
        <time>2016-04-17T14:12:31.938Z</time>
      </trkpt>
      <trkpt lat="43.43541" lon="3.77825">
        <ele>54</ele>
        <time>2016-04-17T14:12:33.965Z</time>
      </trkpt>
      <trkpt lat="43.43543" lon="3.77829">
        <ele>55</ele>
        <time>2016-04-17T14:12:34.938Z</time>
      </trkpt>
      <trkpt lat="43.43549" lon="3.77831">
        <ele>55</ele>
        <time>2016-04-17T14:12:36.969Z</time>
      </trkpt>
      <trkpt lat="43.43552" lon="3.77833">
        <ele>55</ele>
        <time>2016-04-17T14:12:37.936Z</time>
      </trkpt>
      <trkpt lat="43.43559" lon="3.7784">
        <ele>56</ele>
        <time>2016-04-17T14:12:39.964Z</time>
      </trkpt>
      <trkpt lat="43.43562" lon="3.77845">
        <ele>55</ele>
        <time>2016-04-17T14:12:40.937Z</time>
      </trkpt>
      <trkpt lat="43.43566" lon="3.77849">
        <ele>55</ele>
        <time>2016-04-17T14:12:41.991Z</time>
      </trkpt>
      <trkpt lat="43.4357" lon="3.77853">
        <ele>55</ele>
        <time>2016-04-17T14:12:42.938Z</time>
      </trkpt>
      <trkpt lat="43.43576" lon="3.77861">
        <ele>56</ele>
        <time>2016-04-17T14:12:44.968Z</time>
      </trkpt>
      <trkpt lat="43.43579" lon="3.77865">
        <ele>55</ele>
        <time>2016-04-17T14:12:45.935Z</time>
      </trkpt>
      <trkpt lat="43.43582" lon="3.77871">
        <ele>54</ele>
        <time>2016-04-17T14:12:46.968Z</time>
      </trkpt>
      <trkpt lat="43.43584" lon="3.77875">
        <ele>54</ele>
        <time>2016-04-17T14:12:47.938Z</time>
      </trkpt>
      <trkpt lat="43.43589" lon="3.77883">
        <ele>54</ele>
        <time>2016-04-17T14:12:49.961Z</time>
      </trkpt>
      <trkpt lat="43.43593" lon="3.77889">
        <ele>54</ele>
        <time>2016-04-17T14:12:50.937Z</time>
      </trkpt>
      <trkpt lat="43.43594" lon="3.77896">
        <ele>53</ele>
        <time>2016-04-17T14:12:51.968Z</time>
      </trkpt>
      <trkpt lat="43.43596" lon="3.77902">
        <ele>53</ele>
        <time>2016-04-17T14:12:52.936Z</time>
      </trkpt>
      <trkpt lat="43.43598" lon="3.77908">
        <ele>53</ele>
        <time>2016-04-17T14:12:53.968Z</time>
      </trkpt>
      <trkpt lat="43.43601" lon="3.77912">
        <ele>52</ele>
        <time>2016-04-17T14:12:54.938Z</time>
      </trkpt>
      <trkpt lat="43.43601" lon="3.77921">
        <ele>50</ele>
        <time>2016-04-17T14:12:55.970Z</time>
      </trkpt>
      <trkpt lat="43.43604" lon="3.77927">
        <ele>50</ele>
        <time>2016-04-17T14:12:56.939Z</time>
      </trkpt>
      <trkpt lat="43.43607" lon="3.77932">
        <ele>49</ele>
        <time>2016-04-17T14:12:57.956Z</time>
      </trkpt>
      <trkpt lat="43.4361" lon="3.77937">
        <ele>50</ele>
        <time>2016-04-17T14:12:58.937Z</time>
      </trkpt>
      <trkpt lat="43.43611" lon="3.77943">
        <ele>47</ele>
        <time>2016-04-17T14:12:59.969Z</time>
      </trkpt>
      <trkpt lat="43.43613" lon="3.77948">
        <ele>47</ele>
        <time>2016-04-17T14:13:00.936Z</time>
      </trkpt>
      <trkpt lat="43.43616" lon="3.77954">
        <ele>47</ele>
        <time>2016-04-17T14:13:01.959Z</time>
      </trkpt>
      <trkpt lat="43.43619" lon="3.7796">
        <ele>47</ele>
        <time>2016-04-17T14:13:02.963Z</time>
      </trkpt>
      <trkpt lat="43.43622" lon="3.77966">
        <ele>45</ele>
        <time>2016-04-17T14:13:03.965Z</time>
      </trkpt>
      <trkpt lat="43.43625" lon="3.77972">
        <ele>46</ele>
        <time>2016-04-17T14:13:04.936Z</time>
      </trkpt>
      <trkpt lat="43.43627" lon="3.77977">
        <ele>47</ele>
        <time>2016-04-17T14:13:05.959Z</time>
      </trkpt>
      <trkpt lat="43.4363" lon="3.77983">
        <ele>46</ele>
        <time>2016-04-17T14:13:06.937Z</time>
      </trkpt>
      <trkpt lat="43.43634" lon="3.77988">
        <ele>45</ele>
        <time>2016-04-17T14:13:07.965Z</time>
      </trkpt>
      <trkpt lat="43.43637" lon="3.77994">
        <ele>45</ele>
        <time>2016-04-17T14:13:08.937Z</time>
      </trkpt>
      <trkpt lat="43.43642" lon="3.78003">
        <ele>46</ele>
        <time>2016-04-17T14:13:10.965Z</time>
      </trkpt>
      <trkpt lat="43.43645" lon="3.78009">
        <ele>46</ele>
        <time>2016-04-17T14:13:11.938Z</time>
      </trkpt>
      <trkpt lat="43.43648" lon="3.78016">
        <ele>46</ele>
        <time>2016-04-17T14:13:12.966Z</time>
      </trkpt>
      <trkpt lat="43.43651" lon="3.78019">
        <ele>45</ele>
        <time>2016-04-17T14:13:13.937Z</time>
      </trkpt>
      <trkpt lat="43.43652" lon="3.78026">
        <ele>44</ele>
        <time>2016-04-17T14:13:14.967Z</time>
      </trkpt>
      <trkpt lat="43.43654" lon="3.78033">
        <ele>44</ele>
        <time>2016-04-17T14:13:15.938Z</time>
      </trkpt>
      <trkpt lat="43.43656" lon="3.78039">
        <ele>45</ele>
        <time>2016-04-17T14:13:16.965Z</time>
      </trkpt>
      <trkpt lat="43.43659" lon="3.78045">
        <ele>45</ele>
        <time>2016-04-17T14:13:17.935Z</time>
      </trkpt>
      <trkpt lat="43.43663" lon="3.7805">
        <ele>44</ele>
        <time>2016-04-17T14:13:18.989Z</time>
      </trkpt>
      <trkpt lat="43.43666" lon="3.78055">
        <ele>44</ele>
        <time>2016-04-17T14:13:19.937Z</time>
      </trkpt>
      <trkpt lat="43.4367" lon="3.78062">
        <ele>45</ele>
        <time>2016-04-17T14:13:20.965Z</time>
      </trkpt>
      <trkpt lat="43.43672" lon="3.78067">
        <ele>45</ele>
        <time>2016-04-17T14:13:21.938Z</time>
      </trkpt>
      <trkpt lat="43.43674" lon="3.78073">
        <ele>44</ele>
        <time>2016-04-17T14:13:22.965Z</time>
      </trkpt>
      <trkpt lat="43.43677" lon="3.78079">
        <ele>45</ele>
        <time>2016-04-17T14:13:23.938Z</time>
      </trkpt>
      <trkpt lat="43.4368" lon="3.78086">
        <ele>45</ele>
        <time>2016-04-17T14:13:24.967Z</time>
      </trkpt>
      <trkpt lat="43.43683" lon="3.78093">
        <ele>45</ele>
        <time>2016-04-17T14:13:25.936Z</time>
      </trkpt>
      <trkpt lat="43.43687" lon="3.781">
        <ele>44</ele>
        <time>2016-04-17T14:13:26.964Z</time>
      </trkpt>
      <trkpt lat="43.43691" lon="3.78106">
        <ele>44</ele>
        <time>2016-04-17T14:13:27.937Z</time>
      </trkpt>
      <trkpt lat="43.43695" lon="3.78113">
        <ele>44</ele>
        <time>2016-04-17T14:13:28.966Z</time>
      </trkpt>
      <trkpt lat="43.43699" lon="3.78118">
        <ele>45</ele>
        <time>2016-04-17T14:13:29.938Z</time>
      </trkpt>
      <trkpt lat="43.43697" lon="3.78126">
        <ele>43</ele>
        <time>2016-04-17T14:13:30.968Z</time>
      </trkpt>
      <trkpt lat="43.437" lon="3.78132">
        <ele>44</ele>
        <time>2016-04-17T14:13:31.938Z</time>
      </trkpt>
      <trkpt lat="43.43703" lon="3.78138">
        <ele>44</ele>
        <time>2016-04-17T14:13:32.964Z</time>
      </trkpt>
      <trkpt lat="43.43706" lon="3.78146">
        <ele>45</ele>
        <time>2016-04-17T14:13:33.937Z</time>
      </trkpt>
      <trkpt lat="43.43709" lon="3.78151">
        <ele>46</ele>
        <time>2016-04-17T14:13:34.990Z</time>
      </trkpt>
      <trkpt lat="43.43712" lon="3.78157">
        <ele>46</ele>
        <time>2016-04-17T14:13:35.937Z</time>
      </trkpt>
      <trkpt lat="43.43715" lon="3.78163">
        <ele>45</ele>
        <time>2016-04-17T14:13:36.966Z</time>
      </trkpt>
      <trkpt lat="43.43717" lon="3.78169">
        <ele>42</ele>
        <time>2016-04-17T14:13:37.936Z</time>
      </trkpt>
      <trkpt lat="43.43719" lon="3.78175">
        <ele>43</ele>
        <time>2016-04-17T14:13:38.963Z</time>
      </trkpt>
      <trkpt lat="43.43723" lon="3.7818">
        <ele>44</ele>
        <time>2016-04-17T14:13:39.937Z</time>
      </trkpt>
      <trkpt lat="43.43726" lon="3.78186">
        <ele>43</ele>
        <time>2016-04-17T14:13:40.964Z</time>
      </trkpt>
      <trkpt lat="43.43729" lon="3.7819">
        <ele>44</ele>
        <time>2016-04-17T14:13:41.938Z</time>
      </trkpt>
      <trkpt lat="43.43732" lon="3.78196">
        <ele>42</ele>
        <time>2016-04-17T14:13:42.965Z</time>
      </trkpt>
      <trkpt lat="43.43737" lon="3.78199">
        <ele>43</ele>
        <time>2016-04-17T14:13:43.937Z</time>
      </trkpt>
      <trkpt lat="43.43739" lon="3.78206">
        <ele>43</ele>
        <time>2016-04-17T14:13:44.965Z</time>
      </trkpt>
      <trkpt lat="43.43742" lon="3.78211">
        <ele>41</ele>
        <time>2016-04-17T14:13:45.939Z</time>
      </trkpt>
      <trkpt lat="43.43746" lon="3.78216">
        <ele>42</ele>
        <time>2016-04-17T14:13:46.969Z</time>
      </trkpt>
      <trkpt lat="43.4375" lon="3.78221">
        <ele>43</ele>
        <time>2016-04-17T14:13:47.937Z</time>
      </trkpt>
      <trkpt lat="43.43753" lon="3.78227">
        <ele>44</ele>
        <time>2016-04-17T14:13:48.965Z</time>
      </trkpt>
      <trkpt lat="43.43756" lon="3.78232">
        <ele>45</ele>
        <time>2016-04-17T14:13:49.938Z</time>
      </trkpt>
      <trkpt lat="43.43756" lon="3.7824">
        <ele>44</ele>
        <time>2016-04-17T14:13:50.989Z</time>
      </trkpt>
      <trkpt lat="43.43758" lon="3.78246">
        <ele>45</ele>
        <time>2016-04-17T14:13:51.939Z</time>
      </trkpt>
      <trkpt lat="43.43761" lon="3.78252">
        <ele>46</ele>
        <time>2016-04-17T14:13:52.969Z</time>
      </trkpt>
      <trkpt lat="43.43764" lon="3.78258">
        <ele>45</ele>
        <time>2016-04-17T14:13:53.938Z</time>
      </trkpt>
      <trkpt lat="43.43769" lon="3.78269">
        <ele>46</ele>
        <time>2016-04-17T14:13:55.966Z</time>
      </trkpt>
      <trkpt lat="43.4377" lon="3.78275">
        <ele>46</ele>
        <time>2016-04-17T14:13:56.937Z</time>
      </trkpt>
      <trkpt lat="43.43772" lon="3.78282">
        <ele>44</ele>
        <time>2016-04-17T14:13:57.965Z</time>
      </trkpt>
      <trkpt lat="43.43775" lon="3.78287">
        <ele>44</ele>
        <time>2016-04-17T14:13:58.937Z</time>
      </trkpt>
      <trkpt lat="43.4378" lon="3.78297">
        <ele>42</ele>
        <time>2016-04-17T14:14:00.966Z</time>
      </trkpt>
      <trkpt lat="43.43782" lon="3.78302">
        <ele>42</ele>
        <time>2016-04-17T14:14:01.938Z</time>
      </trkpt>
      <trkpt lat="43.43786" lon="3.78312">
        <ele>41</ele>
        <time>2016-04-17T14:14:03.968Z</time>
      </trkpt>
      <trkpt lat="43.4379" lon="3.78316">
        <ele>43</ele>
        <time>2016-04-17T14:14:04.938Z</time>
      </trkpt>
      <trkpt lat="43.43793" lon="3.78322">
        <ele>44</ele>
        <time>2016-04-17T14:14:05.966Z</time>
      </trkpt>
      <trkpt lat="43.43796" lon="3.78328">
        <ele>44</ele>
        <time>2016-04-17T14:14:06.962Z</time>
      </trkpt>
      <trkpt lat="43.43799" lon="3.78333">
        <ele>45</ele>
        <time>2016-04-17T14:14:07.964Z</time>
      </trkpt>
      <trkpt lat="43.43803" lon="3.78338">
        <ele>45</ele>
        <time>2016-04-17T14:14:08.937Z</time>
      </trkpt>
      <trkpt lat="43.43807" lon="3.78349">
        <ele>44</ele>
        <time>2016-04-17T14:14:10.967Z</time>
      </trkpt>
      <trkpt lat="43.43809" lon="3.78354">
        <ele>45</ele>
        <time>2016-04-17T14:14:11.937Z</time>
      </trkpt>
      <trkpt lat="43.43813" lon="3.78364">
        <ele>45</ele>
        <time>2016-04-17T14:14:13.966Z</time>
      </trkpt>
      <trkpt lat="43.43815" lon="3.78369">
        <ele>45</ele>
        <time>2016-04-17T14:14:14.938Z</time>
      </trkpt>
      <trkpt lat="43.43818" lon="3.78372">
        <ele>45</ele>
        <time>2016-04-17T14:14:15.968Z</time>
      </trkpt>
      <trkpt lat="43.43821" lon="3.78378">
        <ele>46</ele>
        <time>2016-04-17T14:14:16.937Z</time>
      </trkpt>
      <trkpt lat="43.43823" lon="3.78383">
        <ele>46</ele>
        <time>2016-04-17T14:14:17.964Z</time>
      </trkpt>
      <trkpt lat="43.43826" lon="3.78389">
        <ele>47</ele>
        <time>2016-04-17T14:14:18.939Z</time>
      </trkpt>
      <trkpt lat="43.4383" lon="3.78393">
        <ele>47</ele>
        <time>2016-04-17T14:14:19.969Z</time>
      </trkpt>
      <trkpt lat="43.43833" lon="3.78398">
        <ele>47</ele>
        <time>2016-04-17T14:14:20.938Z</time>
      </trkpt>
      <trkpt lat="43.43835" lon="3.78404">
        <ele>45</ele>
        <time>2016-04-17T14:14:21.964Z</time>
      </trkpt>
      <trkpt lat="43.43837" lon="3.7841">
        <ele>44</ele>
        <time>2016-04-17T14:14:22.962Z</time>
      </trkpt>
      <trkpt lat="43.4384" lon="3.78416">
        <ele>43</ele>
        <time>2016-04-17T14:14:23.966Z</time>
      </trkpt>
      <trkpt lat="43.43843" lon="3.78422">
        <ele>44</ele>
        <time>2016-04-17T14:14:24.938Z</time>
      </trkpt>
      <trkpt lat="43.43847" lon="3.78428">
        <ele>45</ele>
        <time>2016-04-17T14:14:25.961Z</time>
      </trkpt>
      <trkpt lat="43.4385" lon="3.78434">
        <ele>45</ele>
        <time>2016-04-17T14:14:26.938Z</time>
      </trkpt>
      <trkpt lat="43.43855" lon="3.78439">
        <ele>44</ele>
        <time>2016-04-17T14:14:27.966Z</time>
      </trkpt>
      <trkpt lat="43.43857" lon="3.78445">
        <ele>44</ele>
        <time>2016-04-17T14:14:28.935Z</time>
      </trkpt>
      <trkpt lat="43.4386" lon="3.78452">
        <ele>46</ele>
        <time>2016-04-17T14:14:29.966Z</time>
      </trkpt>
      <trkpt lat="43.43862" lon="3.78458">
        <ele>45</ele>
        <time>2016-04-17T14:14:30.937Z</time>
      </trkpt>
      <trkpt lat="43.43864" lon="3.78464">
        <ele>46</ele>
        <time>2016-04-17T14:14:31.965Z</time>
      </trkpt>
      <trkpt lat="43.43867" lon="3.7847">
        <ele>46</ele>
        <time>2016-04-17T14:14:32.938Z</time>
      </trkpt>
      <trkpt lat="43.43872" lon="3.78479">
        <ele>48</ele>
        <time>2016-04-17T14:14:34.968Z</time>
      </trkpt>
      <trkpt lat="43.43875" lon="3.78484">
        <ele>47</ele>
        <time>2016-04-17T14:14:35.939Z</time>
      </trkpt>
      <trkpt lat="43.4388" lon="3.78493">
        <ele>48</ele>
        <time>2016-04-17T14:14:37.966Z</time>
      </trkpt>
      <trkpt lat="43.43882" lon="3.78498">
        <ele>50</ele>
        <time>2016-04-17T14:14:38.938Z</time>
      </trkpt>
      <trkpt lat="43.43885" lon="3.78504">
        <ele>51</ele>
        <time>2016-04-17T14:14:39.965Z</time>
      </trkpt>
      <trkpt lat="43.43887" lon="3.78509">
        <ele>52</ele>
        <time>2016-04-17T14:14:40.937Z</time>
      </trkpt>
      <trkpt lat="43.43889" lon="3.78516">
        <ele>49</ele>
        <time>2016-04-17T14:14:41.961Z</time>
      </trkpt>
      <trkpt lat="43.43892" lon="3.78523">
        <ele>48</ele>
        <time>2016-04-17T14:14:42.937Z</time>
      </trkpt>
      <trkpt lat="43.43894" lon="3.78528">
        <ele>47</ele>
        <time>2016-04-17T14:14:43.990Z</time>
      </trkpt>
      <trkpt lat="43.43897" lon="3.78534">
        <ele>47</ele>
        <time>2016-04-17T14:14:44.936Z</time>
      </trkpt>
      <trkpt lat="43.439" lon="3.78544">
        <ele>47</ele>
        <time>2016-04-17T14:14:46.966Z</time>
      </trkpt>
      <trkpt lat="43.43902" lon="3.78549">
        <ele>47</ele>
        <time>2016-04-17T14:14:47.937Z</time>
      </trkpt>
      <trkpt lat="43.43905" lon="3.78557">
        <ele>45</ele>
        <time>2016-04-17T14:14:48.967Z</time>
      </trkpt>
      <trkpt lat="43.43907" lon="3.78564">
        <ele>44</ele>
        <time>2016-04-17T14:14:49.938Z</time>
      </trkpt>
      <trkpt lat="43.43909" lon="3.78575">
        <ele>43</ele>
        <time>2016-04-17T14:14:51.970Z</time>
      </trkpt>
      <trkpt lat="43.43911" lon="3.7858">
        <ele>41</ele>
        <time>2016-04-17T14:14:52.938Z</time>
      </trkpt>
      <trkpt lat="43.43914" lon="3.78586">
        <ele>41</ele>
        <time>2016-04-17T14:14:53.966Z</time>
      </trkpt>
      <trkpt lat="43.43917" lon="3.78591">
        <ele>41</ele>
        <time>2016-04-17T14:14:54.938Z</time>
      </trkpt>
      <trkpt lat="43.43919" lon="3.78596">
        <ele>40</ele>
        <time>2016-04-17T14:14:55.966Z</time>
      </trkpt>
      <trkpt lat="43.43923" lon="3.78601">
        <ele>41</ele>
        <time>2016-04-17T14:14:56.938Z</time>
      </trkpt>
      <trkpt lat="43.43926" lon="3.78607">
        <ele>43</ele>
        <time>2016-04-17T14:14:57.963Z</time>
      </trkpt>
      <trkpt lat="43.43929" lon="3.78613">
        <ele>43</ele>
        <time>2016-04-17T14:14:58.938Z</time>
      </trkpt>
      <trkpt lat="43.43934" lon="3.78622">
        <ele>43</ele>
        <time>2016-04-17T14:15:00.966Z</time>
      </trkpt>
      <trkpt lat="43.43938" lon="3.78626">
        <ele>43</ele>
        <time>2016-04-17T14:15:01.938Z</time>
      </trkpt>
      <trkpt lat="43.43942" lon="3.78635">
        <ele>45</ele>
        <time>2016-04-17T14:15:03.965Z</time>
      </trkpt>
      <trkpt lat="43.43945" lon="3.7864">
        <ele>45</ele>
        <time>2016-04-17T14:15:04.942Z</time>
      </trkpt>
      <trkpt lat="43.43948" lon="3.78645">
        <ele>45</ele>
        <time>2016-04-17T14:15:05.964Z</time>
      </trkpt>
      <trkpt lat="43.4395" lon="3.78652">
        <ele>45</ele>
        <time>2016-04-17T14:15:06.937Z</time>
      </trkpt>
      <trkpt lat="43.43954" lon="3.78658">
        <ele>46</ele>
        <time>2016-04-17T14:15:07.967Z</time>
      </trkpt>
      <trkpt lat="43.43956" lon="3.78663">
        <ele>46</ele>
        <time>2016-04-17T14:15:08.937Z</time>
      </trkpt>
      <trkpt lat="43.43958" lon="3.78671">
        <ele>45</ele>
        <time>2016-04-17T14:15:09.966Z</time>
      </trkpt>
      <trkpt lat="43.4396" lon="3.78677">
        <ele>46</ele>
        <time>2016-04-17T14:15:10.936Z</time>
      </trkpt>
      <trkpt lat="43.43963" lon="3.78683">
        <ele>45</ele>
        <time>2016-04-17T14:15:11.964Z</time>
      </trkpt>
      <trkpt lat="43.43967" lon="3.78688">
        <ele>46</ele>
        <time>2016-04-17T14:15:12.938Z</time>
      </trkpt>
      <trkpt lat="43.43972" lon="3.78698">
        <ele>47</ele>
        <time>2016-04-17T14:15:14.964Z</time>
      </trkpt>
      <trkpt lat="43.43975" lon="3.78703">
        <ele>46</ele>
        <time>2016-04-17T14:15:15.963Z</time>
      </trkpt>
      <trkpt lat="43.43979" lon="3.78712">
        <ele>45</ele>
        <time>2016-04-17T14:15:18.029Z</time>
      </trkpt>
      <trkpt lat="43.43981" lon="3.78717">
        <ele>44</ele>
        <time>2016-04-17T14:15:18.937Z</time>
      </trkpt>
      <trkpt lat="43.43984" lon="3.78727">
        <ele>44</ele>
        <time>2016-04-17T14:15:20.967Z</time>
      </trkpt>
      <trkpt lat="43.43987" lon="3.78732">
        <ele>44</ele>
        <time>2016-04-17T14:15:21.938Z</time>
      </trkpt>
      <trkpt lat="43.43991" lon="3.78741">
        <ele>46</ele>
        <time>2016-04-17T14:15:23.965Z</time>
      </trkpt>
      <trkpt lat="43.43994" lon="3.78745">
        <ele>46</ele>
        <time>2016-04-17T14:15:24.938Z</time>
      </trkpt>
      <trkpt lat="43.43996" lon="3.78751">
        <ele>45</ele>
        <time>2016-04-17T14:15:25.965Z</time>
      </trkpt>
      <trkpt lat="43.43996" lon="3.7876">
        <ele>42</ele>
        <time>2016-04-17T14:15:26.964Z</time>
      </trkpt>
      <trkpt lat="43.44" lon="3.78769">
        <ele>42</ele>
        <time>2016-04-17T14:15:28.964Z</time>
      </trkpt>
      <trkpt lat="43.44002" lon="3.78774">
        <ele>42</ele>
        <time>2016-04-17T14:15:29.936Z</time>
      </trkpt>
      <trkpt lat="43.44005" lon="3.78782">
        <ele>42</ele>
        <time>2016-04-17T14:15:31.966Z</time>
      </trkpt>
      <trkpt lat="43.44008" lon="3.78787">
        <ele>42</ele>
        <time>2016-04-17T14:15:32.938Z</time>
      </trkpt>
      <trkpt lat="43.4401" lon="3.78792">
        <ele>42</ele>
        <time>2016-04-17T14:15:33.966Z</time>
      </trkpt>
      <trkpt lat="43.44013" lon="3.78797">
        <ele>42</ele>
        <time>2016-04-17T14:15:34.938Z</time>
      </trkpt>
      <trkpt lat="43.44017" lon="3.78805">
        <ele>43</ele>
        <time>2016-04-17T14:15:36.966Z</time>
      </trkpt>
      <trkpt lat="43.44019" lon="3.7881">
        <ele>44</ele>
        <time>2016-04-17T14:15:37.937Z</time>
      </trkpt>
      <trkpt lat="43.44021" lon="3.78815">
        <ele>44</ele>
        <time>2016-04-17T14:15:38.964Z</time>
      </trkpt>
      <trkpt lat="43.44023" lon="3.78821">
        <ele>45</ele>
        <time>2016-04-17T14:15:39.938Z</time>
      </trkpt>
      <trkpt lat="43.44026" lon="3.78826">
        <ele>45</ele>
        <time>2016-04-17T14:15:40.966Z</time>
      </trkpt>
      <trkpt lat="43.44028" lon="3.78832">
        <ele>46</ele>
        <time>2016-04-17T14:15:41.937Z</time>
      </trkpt>
      <trkpt lat="43.44032" lon="3.7884">
        <ele>45</ele>
        <time>2016-04-17T14:15:43.967Z</time>
      </trkpt>
      <trkpt lat="43.44033" lon="3.78845">
        <ele>45</ele>
        <time>2016-04-17T14:15:44.936Z</time>
      </trkpt>
      <trkpt lat="43.44038" lon="3.78853">
        <ele>45</ele>
        <time>2016-04-17T14:15:46.968Z</time>
      </trkpt>
      <trkpt lat="43.4404" lon="3.78859">
        <ele>45</ele>
        <time>2016-04-17T14:15:47.936Z</time>
      </trkpt>
      <trkpt lat="43.44044" lon="3.78869">
        <ele>45</ele>
        <time>2016-04-17T14:15:49.970Z</time>
      </trkpt>
      <trkpt lat="43.44046" lon="3.78874">
        <ele>45</ele>
        <time>2016-04-17T14:15:50.939Z</time>
      </trkpt>
      <trkpt lat="43.44051" lon="3.78882">
        <ele>44</ele>
        <time>2016-04-17T14:15:52.968Z</time>
      </trkpt>
      <trkpt lat="43.44053" lon="3.78886">
        <ele>44</ele>
        <time>2016-04-17T14:15:53.937Z</time>
      </trkpt>
      <trkpt lat="43.44057" lon="3.78897">
        <ele>45</ele>
        <time>2016-04-17T14:15:55.966Z</time>
      </trkpt>
      <trkpt lat="43.4406" lon="3.78904">
        <ele>45</ele>
        <time>2016-04-17T14:15:56.937Z</time>
      </trkpt>
      <trkpt lat="43.44063" lon="3.78909">
        <ele>45</ele>
        <time>2016-04-17T14:15:57.969Z</time>
      </trkpt>
      <trkpt lat="43.44065" lon="3.78914">
        <ele>46</ele>
        <time>2016-04-17T14:15:58.969Z</time>
      </trkpt>
      <trkpt lat="43.44068" lon="3.78921">
        <ele>44</ele>
        <time>2016-04-17T14:15:59.970Z</time>
      </trkpt>
      <trkpt lat="43.44071" lon="3.78924">
        <ele>44</ele>
        <time>2016-04-17T14:16:00.937Z</time>
      </trkpt>
      <trkpt lat="43.44076" lon="3.78932">
        <ele>45</ele>
        <time>2016-04-17T14:16:02.971Z</time>
      </trkpt>
      <trkpt lat="43.44078" lon="3.78937">
        <ele>45</ele>
        <time>2016-04-17T14:16:03.937Z</time>
      </trkpt>
      <trkpt lat="43.44082" lon="3.78946">
        <ele>46</ele>
        <time>2016-04-17T14:16:05.976Z</time>
      </trkpt>
      <trkpt lat="43.44085" lon="3.78951">
        <ele>45</ele>
        <time>2016-04-17T14:16:06.939Z</time>
      </trkpt>
      <trkpt lat="43.44089" lon="3.7896">
        <ele>46</ele>
        <time>2016-04-17T14:16:08.973Z</time>
      </trkpt>
      <trkpt lat="43.44092" lon="3.78964">
        <ele>48</ele>
        <time>2016-04-17T14:16:09.939Z</time>
      </trkpt>
      <trkpt lat="43.44095" lon="3.78975">
        <ele>47</ele>
        <time>2016-04-17T14:16:11.972Z</time>
      </trkpt>
      <trkpt lat="43.44096" lon="3.7898">
        <ele>47</ele>
        <time>2016-04-17T14:16:12.938Z</time>
      </trkpt>
      <trkpt lat="43.44099" lon="3.7899">
        <ele>48</ele>
        <time>2016-04-17T14:16:14.999Z</time>
      </trkpt>
      <trkpt lat="43.44101" lon="3.78995">
        <ele>47</ele>
        <time>2016-04-17T14:16:15.938Z</time>
      </trkpt>
      <trkpt lat="43.44105" lon="3.79005">
        <ele>47</ele>
        <time>2016-04-17T14:16:17.967Z</time>
      </trkpt>
      <trkpt lat="43.44106" lon="3.7901">
        <ele>46</ele>
        <time>2016-04-17T14:16:18.937Z</time>
      </trkpt>
      <trkpt lat="43.44106" lon="3.79016">
        <ele>46</ele>
        <time>2016-04-17T14:16:19.971Z</time>
      </trkpt>
      <trkpt lat="43.44107" lon="3.79023">
        <ele>46</ele>
        <time>2016-04-17T14:16:20.938Z</time>
      </trkpt>
      <trkpt lat="43.44107" lon="3.7903">
        <ele>46</ele>
        <time>2016-04-17T14:16:21.972Z</time>
      </trkpt>
      <trkpt lat="43.44107" lon="3.79036">
        <ele>46</ele>
        <time>2016-04-17T14:16:22.937Z</time>
      </trkpt>
      <trkpt lat="43.44107" lon="3.79042">
        <ele>46</ele>
        <time>2016-04-17T14:16:23.970Z</time>
      </trkpt>
      <trkpt lat="43.44108" lon="3.79049">
        <ele>45</ele>
        <time>2016-04-17T14:16:24.939Z</time>
      </trkpt>
      <trkpt lat="43.44108" lon="3.79055">
        <ele>45</ele>
        <time>2016-04-17T14:16:25.969Z</time>
      </trkpt>
      <trkpt lat="43.44108" lon="3.79064">
        <ele>46</ele>
        <time>2016-04-17T14:16:26.939Z</time>
      </trkpt>
      <trkpt lat="43.44109" lon="3.7907">
        <ele>45</ele>
        <time>2016-04-17T14:16:27.972Z</time>
      </trkpt>
      <trkpt lat="43.44109" lon="3.79078">
        <ele>46</ele>
        <time>2016-04-17T14:16:28.938Z</time>
      </trkpt>
      <trkpt lat="43.4411" lon="3.79089">
        <ele>47</ele>
        <time>2016-04-17T14:16:30.996Z</time>
      </trkpt>
      <trkpt lat="43.44111" lon="3.79095">
        <ele>48</ele>
        <time>2016-04-17T14:16:31.939Z</time>
      </trkpt>
      <trkpt lat="43.44109" lon="3.79105">
        <ele>45</ele>
        <time>2016-04-17T14:16:33.965Z</time>
      </trkpt>
      <trkpt lat="43.4411" lon="3.79111">
        <ele>45</ele>
        <time>2016-04-17T14:16:34.938Z</time>
      </trkpt>
      <trkpt lat="43.44111" lon="3.79122">
        <ele>45</ele>
        <time>2016-04-17T14:16:36.968Z</time>
      </trkpt>
      <trkpt lat="43.4411" lon="3.79127">
        <ele>45</ele>
        <time>2016-04-17T14:16:37.938Z</time>
      </trkpt>
      <trkpt lat="43.44104" lon="3.79136">
        <ele>44</ele>
        <time>2016-04-17T14:16:39.969Z</time>
      </trkpt>
      <trkpt lat="43.44101" lon="3.79139">
        <ele>44</ele>
        <time>2016-04-17T14:16:40.937Z</time>
      </trkpt>
      <trkpt lat="43.44096" lon="3.79144">
        <ele>44</ele>
        <time>2016-04-17T14:16:42.969Z</time>
      </trkpt>
      <trkpt lat="43.44093" lon="3.79148">
        <ele>44</ele>
        <time>2016-04-17T14:16:43.938Z</time>
      </trkpt>
      <trkpt lat="43.4409" lon="3.79157">
        <ele>43</ele>
        <time>2016-04-17T14:16:45.968Z</time>
      </trkpt>
      <trkpt lat="43.44091" lon="3.79162">
        <ele>43</ele>
        <time>2016-04-17T14:16:46.964Z</time>
      </trkpt>
      <trkpt lat="43.44095" lon="3.79166">
        <ele>45</ele>
        <time>2016-04-17T14:16:47.968Z</time>
      </trkpt>
      <trkpt lat="43.44098" lon="3.7917">
        <ele>46</ele>
        <time>2016-04-17T14:16:48.938Z</time>
      </trkpt>
      <trkpt lat="43.44103" lon="3.79172">
        <ele>45</ele>
        <time>2016-04-17T14:16:49.966Z</time>
      </trkpt>
      <trkpt lat="43.44106" lon="3.79175">
        <ele>45</ele>
        <time>2016-04-17T14:16:50.938Z</time>
      </trkpt>
      <trkpt lat="43.44112" lon="3.79183">
        <ele>46</ele>
        <time>2016-04-17T14:16:52.969Z</time>
      </trkpt>
      <trkpt lat="43.44115" lon="3.79186">
        <ele>46</ele>
        <time>2016-04-17T14:16:53.938Z</time>
      </trkpt>
      <trkpt lat="43.4412" lon="3.79193">
        <ele>46</ele>
        <time>2016-04-17T14:16:55.970Z</time>
      </trkpt>
      <trkpt lat="43.44123" lon="3.79197">
        <ele>46</ele>
        <time>2016-04-17T14:16:56.937Z</time>
      </trkpt>
      <trkpt lat="43.44131" lon="3.79203">
        <ele>46</ele>
        <time>2016-04-17T14:16:59.969Z</time>
      </trkpt>
      <trkpt lat="43.44134" lon="3.79202">
        <ele>45</ele>
        <time>2016-04-17T14:17:00.937Z</time>
      </trkpt>
      <trkpt lat="43.44141" lon="3.79198">
        <ele>44</ele>
        <time>2016-04-17T14:17:04.051Z</time>
      </trkpt>
      <trkpt lat="43.44142" lon="3.79193">
        <ele>43</ele>
        <time>2016-04-17T14:17:04.938Z</time>
      </trkpt>
      <trkpt lat="43.44147" lon="3.79186">
        <ele>45</ele>
        <time>2016-04-17T14:17:06.968Z</time>
      </trkpt>
      <trkpt lat="43.44148" lon="3.79182">
        <ele>45</ele>
        <time>2016-04-17T14:17:07.937Z</time>
      </trkpt>
      <trkpt lat="43.44154" lon="3.79177">
        <ele>45</ele>
        <time>2016-04-17T14:17:09.968Z</time>
      </trkpt>
      <trkpt lat="43.44155" lon="3.79173">
        <ele>47</ele>
        <time>2016-04-17T14:17:10.938Z</time>
      </trkpt>
      <trkpt lat="43.44163" lon="3.79167">
        <ele>47</ele>
        <time>2016-04-17T14:17:13.968Z</time>
      </trkpt>
      <trkpt lat="43.44166" lon="3.79166">
        <ele>46</ele>
        <time>2016-04-17T14:17:14.939Z</time>
      </trkpt>
      <trkpt lat="43.44173" lon="3.79165">
        <ele>47</ele>
        <time>2016-04-17T14:17:16.969Z</time>
      </trkpt>
      <trkpt lat="43.44176" lon="3.79167">
        <ele>48</ele>
        <time>2016-04-17T14:17:17.939Z</time>
      </trkpt>
      <trkpt lat="43.44185" lon="3.79168">
        <ele>48</ele>
        <time>2016-04-17T14:17:20.945Z</time>
      </trkpt>
      <trkpt lat="43.44188" lon="3.79168">
        <ele>49</ele>
        <time>2016-04-17T14:17:21.937Z</time>
      </trkpt>
      <trkpt lat="43.44194" lon="3.79171">
        <ele>48</ele>
        <time>2016-04-17T14:17:24.049Z</time>
      </trkpt>
      <trkpt lat="43.44198" lon="3.79177">
        <ele>47</ele>
        <time>2016-04-17T14:17:24.931Z</time>
      </trkpt>
      <trkpt lat="43.44204" lon="3.7918">
        <ele>46</ele>
        <time>2016-04-17T14:17:26.970Z</time>
      </trkpt>
      <trkpt lat="43.44207" lon="3.79182">
        <ele>46</ele>
        <time>2016-04-17T14:17:27.938Z</time>
      </trkpt>
      <trkpt lat="43.44214" lon="3.79187">
        <ele>46</ele>
        <time>2016-04-17T14:17:29.967Z</time>
      </trkpt>
      <trkpt lat="43.44217" lon="3.79191">
        <ele>47</ele>
        <time>2016-04-17T14:17:30.941Z</time>
      </trkpt>
      <trkpt lat="43.44222" lon="3.79197">
        <ele>47</ele>
        <time>2016-04-17T14:17:32.967Z</time>
      </trkpt>
      <trkpt lat="43.44226" lon="3.79203">
        <ele>48</ele>
        <time>2016-04-17T14:17:33.939Z</time>
      </trkpt>
      <trkpt lat="43.44229" lon="3.79208">
        <ele>47</ele>
        <time>2016-04-17T14:17:35.018Z</time>
      </trkpt>
      <trkpt lat="43.44232" lon="3.79212">
        <ele>48</ele>
        <time>2016-04-17T14:17:35.942Z</time>
      </trkpt>
      <trkpt lat="43.44239" lon="3.79221">
        <ele>47</ele>
        <time>2016-04-17T14:17:38.093Z</time>
      </trkpt>
      <trkpt lat="43.44242" lon="3.79225">
        <ele>47</ele>
        <time>2016-04-17T14:17:38.939Z</time>
      </trkpt>
      <trkpt lat="43.44248" lon="3.79232">
        <ele>45</ele>
        <time>2016-04-17T14:17:40.971Z</time>
      </trkpt>
      <trkpt lat="43.44251" lon="3.79236">
        <ele>46</ele>
        <time>2016-04-17T14:17:41.937Z</time>
      </trkpt>
      <trkpt lat="43.44256" lon="3.79242">
        <ele>46</ele>
        <time>2016-04-17T14:17:42.969Z</time>
      </trkpt>
      <trkpt lat="43.44259" lon="3.79245">
        <ele>45</ele>
        <time>2016-04-17T14:17:43.939Z</time>
      </trkpt>
      <trkpt lat="43.44265" lon="3.79252">
        <ele>43</ele>
        <time>2016-04-17T14:17:45.971Z</time>
      </trkpt>
      <trkpt lat="43.44269" lon="3.79256">
        <ele>44</ele>
        <time>2016-04-17T14:17:46.939Z</time>
      </trkpt>
      <trkpt lat="43.44273" lon="3.7926">
        <ele>45</ele>
        <time>2016-04-17T14:17:47.969Z</time>
      </trkpt>
      <trkpt lat="43.44279" lon="3.79266">
        <ele>43</ele>
        <time>2016-04-17T14:17:48.938Z</time>
      </trkpt>
      <trkpt lat="43.44284" lon="3.7927">
        <ele>43</ele>
        <time>2016-04-17T14:17:50.091Z</time>
      </trkpt>
      <trkpt lat="43.44287" lon="3.79273">
        <ele>41</ele>
        <time>2016-04-17T14:17:50.967Z</time>
      </trkpt>
      <trkpt lat="43.44292" lon="3.79276">
        <ele>41</ele>
        <time>2016-04-17T14:17:51.965Z</time>
      </trkpt>
      <trkpt lat="43.44295" lon="3.7928">
        <ele>42</ele>
        <time>2016-04-17T14:17:52.937Z</time>
      </trkpt>
      <trkpt lat="43.443" lon="3.79283">
        <ele>42</ele>
        <time>2016-04-17T14:17:53.965Z</time>
      </trkpt>
      <trkpt lat="43.44304" lon="3.79287">
        <ele>41</ele>
        <time>2016-04-17T14:17:54.937Z</time>
      </trkpt>
      <trkpt lat="43.44308" lon="3.79292">
        <ele>40</ele>
        <time>2016-04-17T14:17:55.974Z</time>
      </trkpt>
      <trkpt lat="43.44312" lon="3.79296">
        <ele>39</ele>
        <time>2016-04-17T14:17:56.938Z</time>
      </trkpt>
      <trkpt lat="43.44316" lon="3.793">
        <ele>39</ele>
        <time>2016-04-17T14:17:57.969Z</time>
      </trkpt>
      <trkpt lat="43.44321" lon="3.79304">
        <ele>39</ele>
        <time>2016-04-17T14:17:58.940Z</time>
      </trkpt>
      <trkpt lat="43.44326" lon="3.79309">
        <ele>38</ele>
        <time>2016-04-17T14:17:59.972Z</time>
      </trkpt>
      <trkpt lat="43.4433" lon="3.79313">
        <ele>37</ele>
        <time>2016-04-17T14:18:00.939Z</time>
      </trkpt>
      <trkpt lat="43.44335" lon="3.79318">
        <ele>38</ele>
        <time>2016-04-17T14:18:01.970Z</time>
      </trkpt>
      <trkpt lat="43.44338" lon="3.79322">
        <ele>37</ele>
        <time>2016-04-17T14:18:02.938Z</time>
      </trkpt>
      <trkpt lat="43.44343" lon="3.79324">
        <ele>38</ele>
        <time>2016-04-17T14:18:03.970Z</time>
      </trkpt>
      <trkpt lat="43.44347" lon="3.79328">
        <ele>39</ele>
        <time>2016-04-17T14:18:04.938Z</time>
      </trkpt>
      <trkpt lat="43.44354" lon="3.79333">
        <ele>40</ele>
        <time>2016-04-17T14:18:06.971Z</time>
      </trkpt>
      <trkpt lat="43.44358" lon="3.79337">
        <ele>40</ele>
        <time>2016-04-17T14:18:07.939Z</time>
      </trkpt>
      <trkpt lat="43.44364" lon="3.79344">
        <ele>39</ele>
        <time>2016-04-17T14:18:09.968Z</time>
      </trkpt>
      <trkpt lat="43.44368" lon="3.79348">
        <ele>39</ele>
        <time>2016-04-17T14:18:10.940Z</time>
      </trkpt>
      <trkpt lat="43.44372" lon="3.7935">
        <ele>41</ele>
        <time>2016-04-17T14:18:11.996Z</time>
      </trkpt>
      <trkpt lat="43.44376" lon="3.79354">
        <ele>41</ele>
        <time>2016-04-17T14:18:12.939Z</time>
      </trkpt>
      <trkpt lat="43.44381" lon="3.79358">
        <ele>39</ele>
        <time>2016-04-17T14:18:13.970Z</time>
      </trkpt>
      <trkpt lat="43.44386" lon="3.79363">
        <ele>39</ele>
        <time>2016-04-17T14:18:14.938Z</time>
      </trkpt>
      <trkpt lat="43.44391" lon="3.79367">
        <ele>39</ele>
        <time>2016-04-17T14:18:15.973Z</time>
      </trkpt>
      <trkpt lat="43.44395" lon="3.79371">
        <ele>40</ele>
        <time>2016-04-17T14:18:16.938Z</time>
      </trkpt>
      <trkpt lat="43.444" lon="3.79374">
        <ele>39</ele>
        <time>2016-04-17T14:18:17.967Z</time>
      </trkpt>
      <trkpt lat="43.44404" lon="3.79376">
        <ele>40</ele>
        <time>2016-04-17T14:18:18.939Z</time>
      </trkpt>
      <trkpt lat="43.44412" lon="3.79381">
        <ele>41</ele>
        <time>2016-04-17T14:18:20.972Z</time>
      </trkpt>
      <trkpt lat="43.44416" lon="3.79382">
        <ele>42</ele>
        <time>2016-04-17T14:18:21.938Z</time>
      </trkpt>
      <trkpt lat="43.4442" lon="3.79386">
        <ele>43</ele>
        <time>2016-04-17T14:18:22.971Z</time>
      </trkpt>
      <trkpt lat="43.44423" lon="3.79389">
        <ele>43</ele>
        <time>2016-04-17T14:18:23.939Z</time>
      </trkpt>
      <trkpt lat="43.44427" lon="3.79392">
        <ele>43</ele>
        <time>2016-04-17T14:18:24.967Z</time>
      </trkpt>
      <trkpt lat="43.44431" lon="3.79396">
        <ele>43</ele>
        <time>2016-04-17T14:18:25.939Z</time>
      </trkpt>
      <trkpt lat="43.44438" lon="3.79402">
        <ele>43</ele>
        <time>2016-04-17T14:18:27.989Z</time>
      </trkpt>
      <trkpt lat="43.44444" lon="3.79414">
        <ele>44</ele>
        <time>2016-04-17T14:18:28.939Z</time>
      </trkpt>
      <trkpt lat="43.4445" lon="3.79416">
        <ele>43</ele>
        <time>2016-04-17T14:18:30.972Z</time>
      </trkpt>
      <trkpt lat="43.44454" lon="3.7942">
        <ele>43</ele>
        <time>2016-04-17T14:18:31.938Z</time>
      </trkpt>
      <trkpt lat="43.44457" lon="3.79425">
        <ele>44</ele>
        <time>2016-04-17T14:18:32.968Z</time>
      </trkpt>
      <trkpt lat="43.4446" lon="3.79429">
        <ele>46</ele>
        <time>2016-04-17T14:18:33.938Z</time>
      </trkpt>
      <trkpt lat="43.44464" lon="3.79432">
        <ele>45</ele>
        <time>2016-04-17T14:18:34.968Z</time>
      </trkpt>
      <trkpt lat="43.44468" lon="3.79435">
        <ele>46</ele>
        <time>2016-04-17T14:18:35.939Z</time>
      </trkpt>
      <trkpt lat="43.44475" lon="3.7944">
        <ele>47</ele>
        <time>2016-04-17T14:18:37.971Z</time>
      </trkpt>
      <trkpt lat="43.44478" lon="3.79442">
        <ele>48</ele>
        <time>2016-04-17T14:18:38.939Z</time>
      </trkpt>
      <trkpt lat="43.44482" lon="3.79446">
        <ele>49</ele>
        <time>2016-04-17T14:18:39.971Z</time>
      </trkpt>
      <trkpt lat="43.44486" lon="3.7945">
        <ele>50</ele>
        <time>2016-04-17T14:18:40.938Z</time>
      </trkpt>
      <trkpt lat="43.4449" lon="3.79454">
        <ele>50</ele>
        <time>2016-04-17T14:18:41.966Z</time>
      </trkpt>
      <trkpt lat="43.44493" lon="3.79457">
        <ele>52</ele>
        <time>2016-04-17T14:18:42.936Z</time>
      </trkpt>
      <trkpt lat="43.445" lon="3.79459">
        <ele>50</ele>
        <time>2016-04-17T14:18:44.970Z</time>
      </trkpt>
      <trkpt lat="43.44504" lon="3.79459">
        <ele>51</ele>
        <time>2016-04-17T14:18:45.938Z</time>
      </trkpt>
      <trkpt lat="43.44507" lon="3.79464">
        <ele>52</ele>
        <time>2016-04-17T14:18:46.973Z</time>
      </trkpt>
      <trkpt lat="43.44512" lon="3.79466">
        <ele>53</ele>
        <time>2016-04-17T14:18:47.940Z</time>
      </trkpt>
      <trkpt lat="43.44516" lon="3.7947">
        <ele>53</ele>
        <time>2016-04-17T14:18:48.982Z</time>
      </trkpt>
      <trkpt lat="43.4452" lon="3.79472">
        <ele>53</ele>
        <time>2016-04-17T14:18:49.938Z</time>
      </trkpt>
      <trkpt lat="43.44524" lon="3.79478">
        <ele>54</ele>
        <time>2016-04-17T14:18:50.969Z</time>
      </trkpt>
      <trkpt lat="43.44529" lon="3.7948">
        <ele>54</ele>
        <time>2016-04-17T14:18:51.939Z</time>
      </trkpt>
      <trkpt lat="43.44533" lon="3.79484">
        <ele>53</ele>
        <time>2016-04-17T14:18:52.967Z</time>
      </trkpt>
      <trkpt lat="43.44537" lon="3.79487">
        <ele>53</ele>
        <time>2016-04-17T14:18:53.939Z</time>
      </trkpt>
      <trkpt lat="43.44545" lon="3.79493">
        <ele>53</ele>
        <time>2016-04-17T14:18:55.969Z</time>
      </trkpt>
      <trkpt lat="43.44548" lon="3.79495">
        <ele>53</ele>
        <time>2016-04-17T14:18:56.938Z</time>
      </trkpt>
      <trkpt lat="43.44556" lon="3.79498">
        <ele>55</ele>
        <time>2016-04-17T14:18:59.996Z</time>
      </trkpt>
      <trkpt lat="43.44562" lon="3.79507">
        <ele>49</ele>
        <time>2016-04-17T14:19:00.938Z</time>
      </trkpt>
      <trkpt lat="43.44568" lon="3.7951">
        <ele>50</ele>
        <time>2016-04-17T14:19:02.966Z</time>
      </trkpt>
      <trkpt lat="43.44572" lon="3.79516">
        <ele>50</ele>
        <time>2016-04-17T14:19:03.938Z</time>
      </trkpt>
      <trkpt lat="43.44578" lon="3.79522">
        <ele>49</ele>
        <time>2016-04-17T14:19:05.970Z</time>
      </trkpt>
      <trkpt lat="43.44581" lon="3.79526">
        <ele>49</ele>
        <time>2016-04-17T14:19:06.939Z</time>
      </trkpt>
      <trkpt lat="43.44585" lon="3.79531">
        <ele>48</ele>
        <time>2016-04-17T14:19:07.968Z</time>
      </trkpt>
      <trkpt lat="43.44589" lon="3.79535">
        <ele>48</ele>
        <time>2016-04-17T14:19:08.937Z</time>
      </trkpt>
      <trkpt lat="43.44597" lon="3.79538">
        <ele>46</ele>
        <time>2016-04-17T14:19:10.969Z</time>
      </trkpt>
      <trkpt lat="43.44601" lon="3.79543">
        <ele>47</ele>
        <time>2016-04-17T14:19:11.938Z</time>
      </trkpt>
      <trkpt lat="43.44605" lon="3.79547">
        <ele>48</ele>
        <time>2016-04-17T14:19:13.022Z</time>
      </trkpt>
      <trkpt lat="43.44609" lon="3.79549">
        <ele>49</ele>
        <time>2016-04-17T14:19:13.937Z</time>
      </trkpt>
      <trkpt lat="43.44613" lon="3.79552">
        <ele>49</ele>
        <time>2016-04-17T14:19:14.967Z</time>
      </trkpt>
      <trkpt lat="43.44617" lon="3.79555">
        <ele>50</ele>
        <time>2016-04-17T14:19:15.964Z</time>
      </trkpt>
      <trkpt lat="43.44622" lon="3.79558">
        <ele>50</ele>
        <time>2016-04-17T14:19:16.967Z</time>
      </trkpt>
      <trkpt lat="43.44625" lon="3.79562">
        <ele>51</ele>
        <time>2016-04-17T14:19:17.938Z</time>
      </trkpt>
      <trkpt lat="43.44633" lon="3.79565">
        <ele>51</ele>
        <time>2016-04-17T14:19:19.971Z</time>
      </trkpt>
      <trkpt lat="43.44639" lon="3.79568">
        <ele>50</ele>
        <time>2016-04-17T14:19:20.939Z</time>
      </trkpt>
      <trkpt lat="43.44647" lon="3.79574">
        <ele>50</ele>
        <time>2016-04-17T14:19:22.970Z</time>
      </trkpt>
      <trkpt lat="43.44651" lon="3.79578">
        <ele>51</ele>
        <time>2016-04-17T14:19:23.938Z</time>
      </trkpt>
      <trkpt lat="43.44655" lon="3.79582">
        <ele>50</ele>
        <time>2016-04-17T14:19:24.969Z</time>
      </trkpt>
      <trkpt lat="43.44657" lon="3.79587">
        <ele>49</ele>
        <time>2016-04-17T14:19:25.939Z</time>
      </trkpt>
      <trkpt lat="43.44664" lon="3.79594">
        <ele>48</ele>
        <time>2016-04-17T14:19:27.968Z</time>
      </trkpt>
      <trkpt lat="43.44667" lon="3.79596">
        <ele>49</ele>
        <time>2016-04-17T14:19:28.938Z</time>
      </trkpt>
      <trkpt lat="43.44673" lon="3.79603">
        <ele>50</ele>
        <time>2016-04-17T14:19:30.969Z</time>
      </trkpt>
      <trkpt lat="43.44677" lon="3.79607">
        <ele>50</ele>
        <time>2016-04-17T14:19:31.937Z</time>
      </trkpt>
      <trkpt lat="43.44681" lon="3.79611">
        <ele>51</ele>
        <time>2016-04-17T14:19:32.967Z</time>
      </trkpt>
      <trkpt lat="43.44685" lon="3.79613">
        <ele>52</ele>
        <time>2016-04-17T14:19:33.938Z</time>
      </trkpt>
      <trkpt lat="43.44689" lon="3.79617">
        <ele>52</ele>
        <time>2016-04-17T14:19:34.968Z</time>
      </trkpt>
      <trkpt lat="43.44693" lon="3.79621">
        <ele>53</ele>
        <time>2016-04-17T14:19:35.938Z</time>
      </trkpt>
      <trkpt lat="43.44697" lon="3.79626">
        <ele>54</ele>
        <time>2016-04-17T14:19:36.991Z</time>
      </trkpt>
      <trkpt lat="43.44701" lon="3.79628">
        <ele>53</ele>
        <time>2016-04-17T14:19:37.939Z</time>
      </trkpt>
      <trkpt lat="43.44701" lon="3.79628">
        <ele>53</ele>
        <time>2016-04-17T14:19:38.046Z</time>
      </trkpt>
      <trkpt lat="43.44707" lon="3.79652">
        <ele>51</ele>
        <time>2016-04-17T14:19:38.935Z</time>
      </trkpt>
      <trkpt lat="43.44715" lon="3.79655">
        <ele>50</ele>
        <time>2016-04-17T14:19:40.966Z</time>
      </trkpt>
      <trkpt lat="43.44717" lon="3.79655">
        <ele>48</ele>
        <time>2016-04-17T14:19:41.934Z</time>
      </trkpt>
      <trkpt lat="43.44724" lon="3.7966">
        <ele>50</ele>
        <time>2016-04-17T14:19:43.961Z</time>
      </trkpt>
      <trkpt lat="43.44728" lon="3.79663">
        <ele>49</ele>
        <time>2016-04-17T14:19:44.938Z</time>
      </trkpt>
      <trkpt lat="43.44733" lon="3.79666">
        <ele>51</ele>
        <time>2016-04-17T14:19:46.969Z</time>
      </trkpt>
      <trkpt lat="43.44736" lon="3.79669">
        <ele>51</ele>
        <time>2016-04-17T14:19:47.967Z</time>
      </trkpt>
      <trkpt lat="43.44744" lon="3.79673">
        <ele>52</ele>
        <time>2016-04-17T14:19:49.971Z</time>
      </trkpt>
      <trkpt lat="43.44747" lon="3.79673">
        <ele>53</ele>
        <time>2016-04-17T14:19:50.940Z</time>
      </trkpt>
      <trkpt lat="43.44754" lon="3.79678">
        <ele>53</ele>
        <time>2016-04-17T14:19:52.967Z</time>
      </trkpt>
      <trkpt lat="43.44756" lon="3.7968">
        <ele>54</ele>
        <time>2016-04-17T14:19:53.938Z</time>
      </trkpt>
      <trkpt lat="43.44763" lon="3.79685">
        <ele>54</ele>
        <time>2016-04-17T14:19:55.970Z</time>
      </trkpt>
      <trkpt lat="43.44767" lon="3.79686">
        <ele>54</ele>
        <time>2016-04-17T14:19:56.936Z</time>
      </trkpt>
      <trkpt lat="43.44773" lon="3.79688">
        <ele>53</ele>
        <time>2016-04-17T14:19:58.970Z</time>
      </trkpt>
      <trkpt lat="43.44776" lon="3.7969">
        <ele>53</ele>
        <time>2016-04-17T14:19:59.938Z</time>
      </trkpt>
      <trkpt lat="43.44783" lon="3.79693">
        <ele>53</ele>
        <time>2016-04-17T14:20:01.964Z</time>
      </trkpt>
      <trkpt lat="43.44786" lon="3.79699">
        <ele>51</ele>
        <time>2016-04-17T14:20:02.939Z</time>
      </trkpt>
      <trkpt lat="43.44794" lon="3.79706">
        <ele>49</ele>
        <time>2016-04-17T14:20:04.967Z</time>
      </trkpt>
      <trkpt lat="43.44796" lon="3.79709">
        <ele>50</ele>
        <time>2016-04-17T14:20:05.938Z</time>
      </trkpt>
      <trkpt lat="43.448" lon="3.79713">
        <ele>49</ele>
        <time>2016-04-17T14:20:06.969Z</time>
      </trkpt>
      <trkpt lat="43.44804" lon="3.79716">
        <ele>50</ele>
        <time>2016-04-17T14:20:07.937Z</time>
      </trkpt>
      <trkpt lat="43.44812" lon="3.79721">
        <ele>50</ele>
        <time>2016-04-17T14:20:09.967Z</time>
      </trkpt>
      <trkpt lat="43.44816" lon="3.79723">
        <ele>50</ele>
        <time>2016-04-17T14:20:10.939Z</time>
      </trkpt>
      <trkpt lat="43.44821" lon="3.79727">
        <ele>50</ele>
        <time>2016-04-17T14:20:12.965Z</time>
      </trkpt>
      <trkpt lat="43.44824" lon="3.79729">
        <ele>50</ele>
        <time>2016-04-17T14:20:13.937Z</time>
      </trkpt>
      <trkpt lat="43.44831" lon="3.79736">
        <ele>50</ele>
        <time>2016-04-17T14:20:15.966Z</time>
      </trkpt>
      <trkpt lat="43.44834" lon="3.79739">
        <ele>50</ele>
        <time>2016-04-17T14:20:16.938Z</time>
      </trkpt>
      <trkpt lat="43.4484" lon="3.79743">
        <ele>49</ele>
        <time>2016-04-17T14:20:18.968Z</time>
      </trkpt>
      <trkpt lat="43.44843" lon="3.79747">
        <ele>50</ele>
        <time>2016-04-17T14:20:19.936Z</time>
      </trkpt>
      <trkpt lat="43.44848" lon="3.79755">
        <ele>49</ele>
        <time>2016-04-17T14:20:20.971Z</time>
      </trkpt>
      <trkpt lat="43.44851" lon="3.79758">
        <ele>48</ele>
        <time>2016-04-17T14:20:21.937Z</time>
      </trkpt>
      <trkpt lat="43.44853" lon="3.79766">
        <ele>43</ele>
        <time>2016-04-17T14:20:22.970Z</time>
      </trkpt>
      <trkpt lat="43.44856" lon="3.7977">
        <ele>43</ele>
        <time>2016-04-17T14:20:23.939Z</time>
      </trkpt>
      <trkpt lat="43.44862" lon="3.79774">
        <ele>43</ele>
        <time>2016-04-17T14:20:25.966Z</time>
      </trkpt>
      <trkpt lat="43.44866" lon="3.79775">
        <ele>43</ele>
        <time>2016-04-17T14:20:26.938Z</time>
      </trkpt>
      <trkpt lat="43.4487" lon="3.7978">
        <ele>42</ele>
        <time>2016-04-17T14:20:27.969Z</time>
      </trkpt>
      <trkpt lat="43.44874" lon="3.79784">
        <ele>41</ele>
        <time>2016-04-17T14:20:28.938Z</time>
      </trkpt>
      <trkpt lat="43.44879" lon="3.7979">
        <ele>41</ele>
        <time>2016-04-17T14:20:30.968Z</time>
      </trkpt>
      <trkpt lat="43.44882" lon="3.79795">
        <ele>41</ele>
        <time>2016-04-17T14:20:31.937Z</time>
      </trkpt>
      <trkpt lat="43.44886" lon="3.79803">
        <ele>41</ele>
        <time>2016-04-17T14:20:33.963Z</time>
      </trkpt>
      <trkpt lat="43.4489" lon="3.79807">
        <ele>41</ele>
        <time>2016-04-17T14:20:34.938Z</time>
      </trkpt>
      <trkpt lat="43.44893" lon="3.79811">
        <ele>42</ele>
        <time>2016-04-17T14:20:35.968Z</time>
      </trkpt>
      <trkpt lat="43.44897" lon="3.79815">
        <ele>43</ele>
        <time>2016-04-17T14:20:36.935Z</time>
      </trkpt>
      <trkpt lat="43.449" lon="3.79821">
        <ele>43</ele>
        <time>2016-04-17T14:20:37.966Z</time>
      </trkpt>
      <trkpt lat="43.44904" lon="3.79826">
        <ele>44</ele>
        <time>2016-04-17T14:20:38.937Z</time>
      </trkpt>
      <trkpt lat="43.44907" lon="3.7983">
        <ele>44</ele>
        <time>2016-04-17T14:20:39.972Z</time>
      </trkpt>
      <trkpt lat="43.4491" lon="3.79835">
        <ele>45</ele>
        <time>2016-04-17T14:20:40.967Z</time>
      </trkpt>
      <trkpt lat="43.44913" lon="3.79839">
        <ele>44</ele>
        <time>2016-04-17T14:20:41.966Z</time>
      </trkpt>
      <trkpt lat="43.44916" lon="3.79844">
        <ele>43</ele>
        <time>2016-04-17T14:20:42.938Z</time>
      </trkpt>
      <trkpt lat="43.44922" lon="3.79852">
        <ele>44</ele>
        <time>2016-04-17T14:20:44.974Z</time>
      </trkpt>
      <trkpt lat="43.44924" lon="3.79855">
        <ele>44</ele>
        <time>2016-04-17T14:20:45.938Z</time>
      </trkpt>
      <trkpt lat="43.44931" lon="3.79864">
        <ele>44</ele>
        <time>2016-04-17T14:20:48.030Z</time>
      </trkpt>
      <trkpt lat="43.44933" lon="3.79867">
        <ele>44</ele>
        <time>2016-04-17T14:20:48.935Z</time>
      </trkpt>
      <trkpt lat="43.44938" lon="3.79876">
        <ele>45</ele>
        <time>2016-04-17T14:20:50.970Z</time>
      </trkpt>
      <trkpt lat="43.44941" lon="3.7988">
        <ele>44</ele>
        <time>2016-04-17T14:20:51.972Z</time>
      </trkpt>
      <trkpt lat="43.44944" lon="3.79886">
        <ele>42</ele>
        <time>2016-04-17T14:20:52.968Z</time>
      </trkpt>
      <trkpt lat="43.44947" lon="3.79891">
        <ele>41</ele>
        <time>2016-04-17T14:20:53.938Z</time>
      </trkpt>
      <trkpt lat="43.44951" lon="3.79896">
        <ele>42</ele>
        <time>2016-04-17T14:20:54.968Z</time>
      </trkpt>
      <trkpt lat="43.44953" lon="3.79901">
        <ele>41</ele>
        <time>2016-04-17T14:20:55.937Z</time>
      </trkpt>
      <trkpt lat="43.44959" lon="3.7991">
        <ele>41</ele>
        <time>2016-04-17T14:20:57.970Z</time>
      </trkpt>
      <trkpt lat="43.44961" lon="3.79914">
        <ele>41</ele>
        <time>2016-04-17T14:20:58.938Z</time>
      </trkpt>
      <trkpt lat="43.44964" lon="3.79922">
        <ele>41</ele>
        <time>2016-04-17T14:21:00.969Z</time>
      </trkpt>
      <trkpt lat="43.44967" lon="3.79927">
        <ele>42</ele>
        <time>2016-04-17T14:21:01.937Z</time>
      </trkpt>
      <trkpt lat="43.4497" lon="3.79932">
        <ele>44</ele>
        <time>2016-04-17T14:21:02.969Z</time>
      </trkpt>
      <trkpt lat="43.44973" lon="3.79937">
        <ele>45</ele>
        <time>2016-04-17T14:21:03.940Z</time>
      </trkpt>
      <trkpt lat="43.44977" lon="3.79947">
        <ele>43</ele>
        <time>2016-04-17T14:21:05.967Z</time>
      </trkpt>
      <trkpt lat="43.4498" lon="3.79952">
        <ele>43</ele>
        <time>2016-04-17T14:21:06.940Z</time>
      </trkpt>
      <trkpt lat="43.44985" lon="3.79962">
        <ele>41</ele>
        <time>2016-04-17T14:21:08.969Z</time>
      </trkpt>
      <trkpt lat="43.44988" lon="3.79965">
        <ele>42</ele>
        <time>2016-04-17T14:21:09.939Z</time>
      </trkpt>
      <trkpt lat="43.4499" lon="3.79971">
        <ele>41</ele>
        <time>2016-04-17T14:21:10.968Z</time>
      </trkpt>
      <trkpt lat="43.44993" lon="3.79976">
        <ele>40</ele>
        <time>2016-04-17T14:21:11.938Z</time>
      </trkpt>
      <trkpt lat="43.44997" lon="3.79986">
        <ele>41</ele>
        <time>2016-04-17T14:21:13.968Z</time>
      </trkpt>
      <trkpt lat="43.44999" lon="3.79991">
        <ele>39</ele>
        <time>2016-04-17T14:21:14.939Z</time>
      </trkpt>
      <trkpt lat="43.45005" lon="3.79998">
        <ele>39</ele>
        <time>2016-04-17T14:21:16.962Z</time>
      </trkpt>
      <trkpt lat="43.45008" lon="3.80004">
        <ele>46</ele>
        <time>2016-04-17T14:21:17.947Z</time>
      </trkpt>
      <trkpt lat="43.4501" lon="3.8001">
        <ele>44</ele>
        <time>2016-04-17T14:21:18.971Z</time>
      </trkpt>
      <trkpt lat="43.45013" lon="3.80015">
        <ele>44</ele>
        <time>2016-04-17T14:21:19.937Z</time>
      </trkpt>
      <trkpt lat="43.45014" lon="3.80021">
        <ele>42</ele>
        <time>2016-04-17T14:21:20.967Z</time>
      </trkpt>
      <trkpt lat="43.45016" lon="3.80027">
        <ele>42</ele>
        <time>2016-04-17T14:21:21.938Z</time>
      </trkpt>
      <trkpt lat="43.45018" lon="3.80039">
        <ele>42</ele>
        <time>2016-04-17T14:21:23.968Z</time>
      </trkpt>
      <trkpt lat="43.4502" lon="3.80041">
        <ele>42</ele>
        <time>2016-04-17T14:21:24.939Z</time>
      </trkpt>
      <trkpt lat="43.45023" lon="3.80045">
        <ele>42</ele>
        <time>2016-04-17T14:21:25.968Z</time>
      </trkpt>
      <trkpt lat="43.45025" lon="3.80053">
        <ele>42</ele>
        <time>2016-04-17T14:21:26.938Z</time>
      </trkpt>
      <trkpt lat="43.45028" lon="3.80059">
        <ele>42</ele>
        <time>2016-04-17T14:21:27.969Z</time>
      </trkpt>
      <trkpt lat="43.4503" lon="3.80065">
        <ele>43</ele>
        <time>2016-04-17T14:21:28.963Z</time>
      </trkpt>
      <trkpt lat="43.45035" lon="3.80072">
        <ele>43</ele>
        <time>2016-04-17T14:21:30.970Z</time>
      </trkpt>
      <trkpt lat="43.45037" lon="3.80074">
        <ele>43</ele>
        <time>2016-04-17T14:21:31.939Z</time>
      </trkpt>
      <trkpt lat="43.4504" lon="3.8008">
        <ele>43</ele>
        <time>2016-04-17T14:21:32.968Z</time>
      </trkpt>
      <trkpt lat="43.45042" lon="3.80085">
        <ele>43</ele>
        <time>2016-04-17T14:21:33.939Z</time>
      </trkpt>
      <trkpt lat="43.45045" lon="3.80096">
        <ele>42</ele>
        <time>2016-04-17T14:21:35.969Z</time>
      </trkpt>
      <trkpt lat="43.45049" lon="3.80102">
        <ele>42</ele>
        <time>2016-04-17T14:21:36.939Z</time>
      </trkpt>
      <trkpt lat="43.45053" lon="3.80108">
        <ele>42</ele>
        <time>2016-04-17T14:21:37.971Z</time>
      </trkpt>
      <trkpt lat="43.45053" lon="3.80115">
        <ele>43</ele>
        <time>2016-04-17T14:21:38.935Z</time>
      </trkpt>
      <trkpt lat="43.45057" lon="3.80126">
        <ele>42</ele>
        <time>2016-04-17T14:21:40.968Z</time>
      </trkpt>
      <trkpt lat="43.45059" lon="3.8013">
        <ele>43</ele>
        <time>2016-04-17T14:21:41.937Z</time>
      </trkpt>
      <trkpt lat="43.45064" lon="3.80139">
        <ele>45</ele>
        <time>2016-04-17T14:21:43.978Z</time>
      </trkpt>
      <trkpt lat="43.45067" lon="3.80143">
        <ele>44</ele>
        <time>2016-04-17T14:21:44.968Z</time>
      </trkpt>
      <trkpt lat="43.45069" lon="3.80148">
        <ele>44</ele>
        <time>2016-04-17T14:21:45.971Z</time>
      </trkpt>
      <trkpt lat="43.45072" lon="3.80153">
        <ele>44</ele>
        <time>2016-04-17T14:21:46.937Z</time>
      </trkpt>
      <trkpt lat="43.45076" lon="3.80158">
        <ele>44</ele>
        <time>2016-04-17T14:21:47.969Z</time>
      </trkpt>
      <trkpt lat="43.45079" lon="3.80163">
        <ele>41</ele>
        <time>2016-04-17T14:21:48.939Z</time>
      </trkpt>
      <trkpt lat="43.45084" lon="3.80173">
        <ele>40</ele>
        <time>2016-04-17T14:21:50.968Z</time>
      </trkpt>
      <trkpt lat="43.45086" lon="3.80178">
        <ele>41</ele>
        <time>2016-04-17T14:21:51.938Z</time>
      </trkpt>
      <trkpt lat="43.45089" lon="3.80183">
        <ele>41</ele>
        <time>2016-04-17T14:21:52.957Z</time>
      </trkpt>
      <trkpt lat="43.4509" lon="3.8019">
        <ele>42</ele>
        <time>2016-04-17T14:21:53.939Z</time>
      </trkpt>
      <trkpt lat="43.45092" lon="3.80196">
        <ele>44</ele>
        <time>2016-04-17T14:21:54.966Z</time>
      </trkpt>
      <trkpt lat="43.45095" lon="3.80201">
        <ele>44</ele>
        <time>2016-04-17T14:21:55.940Z</time>
      </trkpt>
      <trkpt lat="43.45098" lon="3.80206">
        <ele>44</ele>
        <time>2016-04-17T14:21:56.966Z</time>
      </trkpt>
      <trkpt lat="43.45101" lon="3.80212">
        <ele>45</ele>
        <time>2016-04-17T14:21:57.941Z</time>
      </trkpt>
      <trkpt lat="43.45103" lon="3.80217">
        <ele>45</ele>
        <time>2016-04-17T14:21:58.964Z</time>
      </trkpt>
      <trkpt lat="43.45106" lon="3.80224">
        <ele>46</ele>
        <time>2016-04-17T14:21:59.942Z</time>
      </trkpt>
      <trkpt lat="43.45111" lon="3.80233">
        <ele>46</ele>
        <time>2016-04-17T14:22:01.964Z</time>
      </trkpt>
      <trkpt lat="43.45115" lon="3.80238">
        <ele>47</ele>
        <time>2016-04-17T14:22:02.941Z</time>
      </trkpt>
      <trkpt lat="43.45116" lon="3.80243">
        <ele>46</ele>
        <time>2016-04-17T14:22:03.964Z</time>
      </trkpt>
      <trkpt lat="43.45119" lon="3.80249">
        <ele>48</ele>
        <time>2016-04-17T14:22:04.940Z</time>
      </trkpt>
      <trkpt lat="43.45121" lon="3.80254">
        <ele>48</ele>
        <time>2016-04-17T14:22:05.964Z</time>
      </trkpt>
      <trkpt lat="43.45124" lon="3.80259">
        <ele>48</ele>
        <time>2016-04-17T14:22:06.940Z</time>
      </trkpt>
      <trkpt lat="43.45127" lon="3.80269">
        <ele>47</ele>
        <time>2016-04-17T14:22:08.965Z</time>
      </trkpt>
      <trkpt lat="43.4513" lon="3.80275">
        <ele>47</ele>
        <time>2016-04-17T14:22:09.940Z</time>
      </trkpt>
      <trkpt lat="43.45131" lon="3.80282">
        <ele>48</ele>
        <time>2016-04-17T14:22:10.965Z</time>
      </trkpt>
      <trkpt lat="43.45134" lon="3.80287">
        <ele>48</ele>
        <time>2016-04-17T14:22:11.942Z</time>
      </trkpt>
      <trkpt lat="43.45137" lon="3.80293">
        <ele>48</ele>
        <time>2016-04-17T14:22:13.040Z</time>
      </trkpt>
      <trkpt lat="43.4514" lon="3.80297">
        <ele>48</ele>
        <time>2016-04-17T14:22:13.941Z</time>
      </trkpt>
      <trkpt lat="43.45142" lon="3.80302">
        <ele>48</ele>
        <time>2016-04-17T14:22:14.963Z</time>
      </trkpt>
      <trkpt lat="43.45145" lon="3.80307">
        <ele>48</ele>
        <time>2016-04-17T14:22:15.940Z</time>
      </trkpt>
      <trkpt lat="43.45148" lon="3.80313">
        <ele>49</ele>
        <time>2016-04-17T14:22:16.987Z</time>
      </trkpt>
      <trkpt lat="43.4515" lon="3.80318">
        <ele>50</ele>
        <time>2016-04-17T14:22:17.942Z</time>
      </trkpt>
      <trkpt lat="43.45155" lon="3.80328">
        <ele>51</ele>
        <time>2016-04-17T14:22:19.964Z</time>
      </trkpt>
      <trkpt lat="43.45155" lon="3.80333">
        <ele>50</ele>
        <time>2016-04-17T14:22:20.940Z</time>
      </trkpt>
      <trkpt lat="43.45158" lon="3.80338">
        <ele>50</ele>
        <time>2016-04-17T14:22:21.963Z</time>
      </trkpt>
      <trkpt lat="43.45161" lon="3.80343">
        <ele>50</ele>
        <time>2016-04-17T14:22:22.939Z</time>
      </trkpt>
      <trkpt lat="43.45164" lon="3.80353">
        <ele>50</ele>
        <time>2016-04-17T14:22:24.964Z</time>
      </trkpt>
      <trkpt lat="43.45168" lon="3.80359">
        <ele>50</ele>
        <time>2016-04-17T14:22:25.940Z</time>
      </trkpt>
      <trkpt lat="43.4517" lon="3.80364">
        <ele>49</ele>
        <time>2016-04-17T14:22:26.964Z</time>
      </trkpt>
      <trkpt lat="43.45173" lon="3.80369">
        <ele>49</ele>
        <time>2016-04-17T14:22:27.940Z</time>
      </trkpt>
      <trkpt lat="43.45176" lon="3.80374">
        <ele>49</ele>
        <time>2016-04-17T14:22:28.967Z</time>
      </trkpt>
      <trkpt lat="43.45179" lon="3.8038">
        <ele>50</ele>
        <time>2016-04-17T14:22:29.940Z</time>
      </trkpt>
      <trkpt lat="43.45181" lon="3.80386">
        <ele>48</ele>
        <time>2016-04-17T14:22:30.964Z</time>
      </trkpt>
      <trkpt lat="43.45184" lon="3.80391">
        <ele>48</ele>
        <time>2016-04-17T14:22:31.939Z</time>
      </trkpt>
      <trkpt lat="43.45189" lon="3.80401">
        <ele>48</ele>
        <time>2016-04-17T14:22:34.037Z</time>
      </trkpt>
      <trkpt lat="43.45192" lon="3.80406">
        <ele>48</ele>
        <time>2016-04-17T14:22:34.940Z</time>
      </trkpt>
      <trkpt lat="43.45194" lon="3.80411">
        <ele>49</ele>
        <time>2016-04-17T14:22:35.964Z</time>
      </trkpt>
      <trkpt lat="43.45197" lon="3.80417">
        <ele>49</ele>
        <time>2016-04-17T14:22:36.942Z</time>
      </trkpt>
      <trkpt lat="43.452" lon="3.80422">
        <ele>49</ele>
        <time>2016-04-17T14:22:37.967Z</time>
      </trkpt>
      <trkpt lat="43.45202" lon="3.80427">
        <ele>49</ele>
        <time>2016-04-17T14:22:38.941Z</time>
      </trkpt>
      <trkpt lat="43.45204" lon="3.80433">
        <ele>50</ele>
        <time>2016-04-17T14:22:39.970Z</time>
      </trkpt>
      <trkpt lat="43.45207" lon="3.80439">
        <ele>50</ele>
        <time>2016-04-17T14:22:40.943Z</time>
      </trkpt>
      <trkpt lat="43.4521" lon="3.80443">
        <ele>50</ele>
        <time>2016-04-17T14:22:41.966Z</time>
      </trkpt>
      <trkpt lat="43.45213" lon="3.80447">
        <ele>51</ele>
        <time>2016-04-17T14:22:42.940Z</time>
      </trkpt>
      <trkpt lat="43.45217" lon="3.80457">
        <ele>50</ele>
        <time>2016-04-17T14:22:44.973Z</time>
      </trkpt>
      <trkpt lat="43.45218" lon="3.8046">
        <ele>50</ele>
        <time>2016-04-17T14:22:45.940Z</time>
      </trkpt>
      <trkpt lat="43.45222" lon="3.80466">
        <ele>49</ele>
        <time>2016-04-17T14:22:46.969Z</time>
      </trkpt>
      <trkpt lat="43.45225" lon="3.8047">
        <ele>47</ele>
        <time>2016-04-17T14:22:47.940Z</time>
      </trkpt>
      <trkpt lat="43.45226" lon="3.80475">
        <ele>47</ele>
        <time>2016-04-17T14:22:48.973Z</time>
      </trkpt>
      <trkpt lat="43.45229" lon="3.80481">
        <ele>47</ele>
        <time>2016-04-17T14:22:49.938Z</time>
      </trkpt>
      <trkpt lat="43.45234" lon="3.80491">
        <ele>47</ele>
        <time>2016-04-17T14:22:51.967Z</time>
      </trkpt>
      <trkpt lat="43.45236" lon="3.80495">
        <ele>47</ele>
        <time>2016-04-17T14:22:52.937Z</time>
      </trkpt>
      <trkpt lat="43.45239" lon="3.80501">
        <ele>47</ele>
        <time>2016-04-17T14:22:53.970Z</time>
      </trkpt>
      <trkpt lat="43.45241" lon="3.80506">
        <ele>47</ele>
        <time>2016-04-17T14:22:54.938Z</time>
      </trkpt>
      <trkpt lat="43.45243" lon="3.80512">
        <ele>47</ele>
        <time>2016-04-17T14:22:55.966Z</time>
      </trkpt>
      <trkpt lat="43.45246" lon="3.80518">
        <ele>49</ele>
        <time>2016-04-17T14:22:56.940Z</time>
      </trkpt>
      <trkpt lat="43.45246" lon="3.80529">
        <ele>48</ele>
        <time>2016-04-17T14:22:58.968Z</time>
      </trkpt>
      <trkpt lat="43.45248" lon="3.80536">
        <ele>47</ele>
        <time>2016-04-17T14:22:59.939Z</time>
      </trkpt>
      <trkpt lat="43.4525" lon="3.80541">
        <ele>48</ele>
        <time>2016-04-17T14:23:00.968Z</time>
      </trkpt>
      <trkpt lat="43.45254" lon="3.80546">
        <ele>48</ele>
        <time>2016-04-17T14:23:01.938Z</time>
      </trkpt>
      <trkpt lat="43.45258" lon="3.8055">
        <ele>48</ele>
        <time>2016-04-17T14:23:02.966Z</time>
      </trkpt>
      <trkpt lat="43.45261" lon="3.80554">
        <ele>49</ele>
        <time>2016-04-17T14:23:03.938Z</time>
      </trkpt>
      <trkpt lat="43.45267" lon="3.80563">
        <ele>47</ele>
        <time>2016-04-17T14:23:05.970Z</time>
      </trkpt>
      <trkpt lat="43.4527" lon="3.80568">
        <ele>47</ele>
        <time>2016-04-17T14:23:06.937Z</time>
      </trkpt>
      <trkpt lat="43.45272" lon="3.80574">
        <ele>46</ele>
        <time>2016-04-17T14:23:07.966Z</time>
      </trkpt>
      <trkpt lat="43.45276" lon="3.80579">
        <ele>47</ele>
        <time>2016-04-17T14:23:08.937Z</time>
      </trkpt>
      <trkpt lat="43.4528" lon="3.8059">
        <ele>47</ele>
        <time>2016-04-17T14:23:10.966Z</time>
      </trkpt>
      <trkpt lat="43.45283" lon="3.80595">
        <ele>47</ele>
        <time>2016-04-17T14:23:11.937Z</time>
      </trkpt>
      <trkpt lat="43.45287" lon="3.80604">
        <ele>45</ele>
        <time>2016-04-17T14:23:13.968Z</time>
      </trkpt>
      <trkpt lat="43.4529" lon="3.8061">
        <ele>45</ele>
        <time>2016-04-17T14:23:14.937Z</time>
      </trkpt>
      <trkpt lat="43.45294" lon="3.80618">
        <ele>46</ele>
        <time>2016-04-17T14:23:16.968Z</time>
      </trkpt>
      <trkpt lat="43.45296" lon="3.80623">
        <ele>47</ele>
        <time>2016-04-17T14:23:17.939Z</time>
      </trkpt>
      <trkpt lat="43.45302" lon="3.80632">
        <ele>46</ele>
        <time>2016-04-17T14:23:19.966Z</time>
      </trkpt>
      <trkpt lat="43.45305" lon="3.80637">
        <ele>46</ele>
        <time>2016-04-17T14:23:20.939Z</time>
      </trkpt>
      <trkpt lat="43.4531" lon="3.80646">
        <ele>47</ele>
        <time>2016-04-17T14:23:22.966Z</time>
      </trkpt>
      <trkpt lat="43.45313" lon="3.8065">
        <ele>47</ele>
        <time>2016-04-17T14:23:23.939Z</time>
      </trkpt>
      <trkpt lat="43.45316" lon="3.8066">
        <ele>47</ele>
        <time>2016-04-17T14:23:25.990Z</time>
      </trkpt>
      <trkpt lat="43.45319" lon="3.80665">
        <ele>47</ele>
        <time>2016-04-17T14:23:26.939Z</time>
      </trkpt>
      <trkpt lat="43.45321" lon="3.80669">
        <ele>47</ele>
        <time>2016-04-17T14:23:27.965Z</time>
      </trkpt>
      <trkpt lat="43.45324" lon="3.80674">
        <ele>48</ele>
        <time>2016-04-17T14:23:28.939Z</time>
      </trkpt>
      <trkpt lat="43.45329" lon="3.80685">
        <ele>50</ele>
        <time>2016-04-17T14:23:30.964Z</time>
      </trkpt>
      <trkpt lat="43.45332" lon="3.80689">
        <ele>51</ele>
        <time>2016-04-17T14:23:31.937Z</time>
      </trkpt>
      <trkpt lat="43.45335" lon="3.80694">
        <ele>51</ele>
        <time>2016-04-17T14:23:32.967Z</time>
      </trkpt>
      <trkpt lat="43.45337" lon="3.80701">
        <ele>52</ele>
        <time>2016-04-17T14:23:33.938Z</time>
      </trkpt>
      <trkpt lat="43.45342" lon="3.80711">
        <ele>51</ele>
        <time>2016-04-17T14:23:35.967Z</time>
      </trkpt>
      <trkpt lat="43.45345" lon="3.80716">
        <ele>51</ele>
        <time>2016-04-17T14:23:36.937Z</time>
      </trkpt>
      <trkpt lat="43.45348" lon="3.80727">
        <ele>52</ele>
        <time>2016-04-17T14:23:38.965Z</time>
      </trkpt>
      <trkpt lat="43.45351" lon="3.80732">
        <ele>52</ele>
        <time>2016-04-17T14:23:39.939Z</time>
      </trkpt>
      <trkpt lat="43.45351" lon="3.80739">
        <ele>51</ele>
        <time>2016-04-17T14:23:40.971Z</time>
      </trkpt>
      <trkpt lat="43.45354" lon="3.80745">
        <ele>52</ele>
        <time>2016-04-17T14:23:41.962Z</time>
      </trkpt>
      <trkpt lat="43.45354" lon="3.80756">
        <ele>52</ele>
        <time>2016-04-17T14:23:43.970Z</time>
      </trkpt>
      <trkpt lat="43.45356" lon="3.8076">
        <ele>52</ele>
        <time>2016-04-17T14:23:44.941Z</time>
      </trkpt>
      <trkpt lat="43.45361" lon="3.80764">
        <ele>51</ele>
        <time>2016-04-17T14:23:45.969Z</time>
      </trkpt>
      <trkpt lat="43.45364" lon="3.80768">
        <ele>50</ele>
        <time>2016-04-17T14:23:46.937Z</time>
      </trkpt>
      <trkpt lat="43.45367" lon="3.80773">
        <ele>49</ele>
        <time>2016-04-17T14:23:48.031Z</time>
      </trkpt>
      <trkpt lat="43.45372" lon="3.80778">
        <ele>51</ele>
        <time>2016-04-17T14:23:48.937Z</time>
      </trkpt>
      <trkpt lat="43.45377" lon="3.80783">
        <ele>52</ele>
        <time>2016-04-17T14:23:49.965Z</time>
      </trkpt>
      <trkpt lat="43.4538" lon="3.80787">
        <ele>53</ele>
        <time>2016-04-17T14:23:50.937Z</time>
      </trkpt>
      <trkpt lat="43.45383" lon="3.80793">
        <ele>53</ele>
        <time>2016-04-17T14:23:51.967Z</time>
      </trkpt>
      <trkpt lat="43.45385" lon="3.80798">
        <ele>52</ele>
        <time>2016-04-17T14:23:52.938Z</time>
      </trkpt>
      <trkpt lat="43.45389" lon="3.80807">
        <ele>52</ele>
        <time>2016-04-17T14:23:54.968Z</time>
      </trkpt>
      <trkpt lat="43.45391" lon="3.80812">
        <ele>53</ele>
        <time>2016-04-17T14:23:55.938Z</time>
      </trkpt>
      <trkpt lat="43.45395" lon="3.80817">
        <ele>53</ele>
        <time>2016-04-17T14:23:56.969Z</time>
      </trkpt>
      <trkpt lat="43.45397" lon="3.80822">
        <ele>53</ele>
        <time>2016-04-17T14:23:57.964Z</time>
      </trkpt>
      <trkpt lat="43.45401" lon="3.80832">
        <ele>54</ele>
        <time>2016-04-17T14:23:59.967Z</time>
      </trkpt>
      <trkpt lat="43.45404" lon="3.80838">
        <ele>54</ele>
        <time>2016-04-17T14:24:00.938Z</time>
      </trkpt>
      <trkpt lat="43.45407" lon="3.80843">
        <ele>55</ele>
        <time>2016-04-17T14:24:01.967Z</time>
      </trkpt>
      <trkpt lat="43.45411" lon="3.80848">
        <ele>55</ele>
        <time>2016-04-17T14:24:02.936Z</time>
      </trkpt>
      <trkpt lat="43.45413" lon="3.80854">
        <ele>55</ele>
        <time>2016-04-17T14:24:03.969Z</time>
      </trkpt>
      <trkpt lat="43.45415" lon="3.80859">
        <ele>55</ele>
        <time>2016-04-17T14:24:04.939Z</time>
      </trkpt>
      <trkpt lat="43.45418" lon="3.80864">
        <ele>55</ele>
        <time>2016-04-17T14:24:05.966Z</time>
      </trkpt>
      <trkpt lat="43.4542" lon="3.8087">
        <ele>55</ele>
        <time>2016-04-17T14:24:06.940Z</time>
      </trkpt>
      <trkpt lat="43.45424" lon="3.80874">
        <ele>54</ele>
        <time>2016-04-17T14:24:07.968Z</time>
      </trkpt>
      <trkpt lat="43.45427" lon="3.80879">
        <ele>54</ele>
        <time>2016-04-17T14:24:08.938Z</time>
      </trkpt>
      <trkpt lat="43.45431" lon="3.80885">
        <ele>52</ele>
        <time>2016-04-17T14:24:09.966Z</time>
      </trkpt>
      <trkpt lat="43.45434" lon="3.8089">
        <ele>53</ele>
        <time>2016-04-17T14:24:10.937Z</time>
      </trkpt>
      <trkpt lat="43.45437" lon="3.80895">
        <ele>53</ele>
        <time>2016-04-17T14:24:11.970Z</time>
      </trkpt>
      <trkpt lat="43.45439" lon="3.809">
        <ele>53</ele>
        <time>2016-04-17T14:24:12.937Z</time>
      </trkpt>
      <trkpt lat="43.45441" lon="3.80906">
        <ele>52</ele>
        <time>2016-04-17T14:24:13.989Z</time>
      </trkpt>
      <trkpt lat="43.45444" lon="3.80911">
        <ele>52</ele>
        <time>2016-04-17T14:24:14.938Z</time>
      </trkpt>
      <trkpt lat="43.45447" lon="3.80917">
        <ele>53</ele>
        <time>2016-04-17T14:24:15.965Z</time>
      </trkpt>
      <trkpt lat="43.45449" lon="3.80922">
        <ele>53</ele>
        <time>2016-04-17T14:24:16.939Z</time>
      </trkpt>
      <trkpt lat="43.45451" lon="3.80927">
        <ele>53</ele>
        <time>2016-04-17T14:24:17.969Z</time>
      </trkpt>
      <trkpt lat="43.45454" lon="3.80933">
        <ele>53</ele>
        <time>2016-04-17T14:24:18.935Z</time>
      </trkpt>
      <trkpt lat="43.45458" lon="3.80942">
        <ele>53</ele>
        <time>2016-04-17T14:24:20.965Z</time>
      </trkpt>
      <trkpt lat="43.45461" lon="3.80947">
        <ele>52</ele>
        <time>2016-04-17T14:24:21.941Z</time>
      </trkpt>
      <trkpt lat="43.45463" lon="3.80951">
        <ele>52</ele>
        <time>2016-04-17T14:24:22.964Z</time>
      </trkpt>
      <trkpt lat="43.45466" lon="3.80958">
        <ele>52</ele>
        <time>2016-04-17T14:24:23.938Z</time>
      </trkpt>
      <trkpt lat="43.45469" lon="3.80963">
        <ele>52</ele>
        <time>2016-04-17T14:24:24.967Z</time>
      </trkpt>
      <trkpt lat="43.45472" lon="3.8097">
        <ele>52</ele>
        <time>2016-04-17T14:24:25.936Z</time>
      </trkpt>
      <trkpt lat="43.45475" lon="3.80975">
        <ele>51</ele>
        <time>2016-04-17T14:24:26.967Z</time>
      </trkpt>
      <trkpt lat="43.45477" lon="3.80981">
        <ele>51</ele>
        <time>2016-04-17T14:24:27.937Z</time>
      </trkpt>
      <trkpt lat="43.4548" lon="3.80987">
        <ele>51</ele>
        <time>2016-04-17T14:24:28.966Z</time>
      </trkpt>
      <trkpt lat="43.45482" lon="3.80992">
        <ele>53</ele>
        <time>2016-04-17T14:24:29.938Z</time>
      </trkpt>
      <trkpt lat="43.45485" lon="3.80998">
        <ele>54</ele>
        <time>2016-04-17T14:24:30.966Z</time>
      </trkpt>
      <trkpt lat="43.45488" lon="3.81003">
        <ele>56</ele>
        <time>2016-04-17T14:24:31.940Z</time>
      </trkpt>
      <trkpt lat="43.45494" lon="3.8101">
        <ele>56</ele>
        <time>2016-04-17T14:24:33.968Z</time>
      </trkpt>
      <trkpt lat="43.45496" lon="3.81016">
        <ele>56</ele>
        <time>2016-04-17T14:24:34.962Z</time>
      </trkpt>
      <trkpt lat="43.455" lon="3.81022">
        <ele>56</ele>
        <time>2016-04-17T14:24:35.967Z</time>
      </trkpt>
      <trkpt lat="43.45502" lon="3.81027">
        <ele>57</ele>
        <time>2016-04-17T14:24:36.949Z</time>
      </trkpt>
      <trkpt lat="43.45505" lon="3.81033">
        <ele>57</ele>
        <time>2016-04-17T14:24:37.967Z</time>
      </trkpt>
      <trkpt lat="43.45508" lon="3.8104">
        <ele>56</ele>
        <time>2016-04-17T14:24:38.938Z</time>
      </trkpt>
      <trkpt lat="43.45512" lon="3.81051">
        <ele>51</ele>
        <time>2016-04-17T14:24:40.972Z</time>
      </trkpt>
      <trkpt lat="43.45513" lon="3.81057">
        <ele>50</ele>
        <time>2016-04-17T14:24:41.934Z</time>
      </trkpt>
      <trkpt lat="43.45517" lon="3.81066">
        <ele>50</ele>
        <time>2016-04-17T14:24:43.967Z</time>
      </trkpt>
      <trkpt lat="43.45518" lon="3.8107">
        <ele>50</ele>
        <time>2016-04-17T14:24:44.939Z</time>
      </trkpt>
      <trkpt lat="43.45523" lon="3.81081">
        <ele>50</ele>
        <time>2016-04-17T14:24:46.972Z</time>
      </trkpt>
      <trkpt lat="43.45527" lon="3.81086">
        <ele>52</ele>
        <time>2016-04-17T14:24:47.940Z</time>
      </trkpt>
      <trkpt lat="43.45531" lon="3.81095">
        <ele>51</ele>
        <time>2016-04-17T14:24:49.966Z</time>
      </trkpt>
      <trkpt lat="43.45532" lon="3.811">
        <ele>51</ele>
        <time>2016-04-17T14:24:50.937Z</time>
      </trkpt>
      <trkpt lat="43.45536" lon="3.8111">
        <ele>50</ele>
        <time>2016-04-17T14:24:52.969Z</time>
      </trkpt>
      <trkpt lat="43.45537" lon="3.81114">
        <ele>50</ele>
        <time>2016-04-17T14:24:53.940Z</time>
      </trkpt>
      <trkpt lat="43.45539" lon="3.81121">
        <ele>50</ele>
        <time>2016-04-17T14:24:55.996Z</time>
      </trkpt>
      <trkpt lat="43.45542" lon="3.81124">
        <ele>50</ele>
        <time>2016-04-17T14:24:56.941Z</time>
      </trkpt>
      <trkpt lat="43.45548" lon="3.81131">
        <ele>49</ele>
        <time>2016-04-17T14:24:58.969Z</time>
      </trkpt>
      <trkpt lat="43.45551" lon="3.81136">
        <ele>48</ele>
        <time>2016-04-17T14:24:59.939Z</time>
      </trkpt>
      <trkpt lat="43.45557" lon="3.81145">
        <ele>48</ele>
        <time>2016-04-17T14:25:01.973Z</time>
      </trkpt>
      <trkpt lat="43.4556" lon="3.81149">
        <ele>48</ele>
        <time>2016-04-17T14:25:02.939Z</time>
      </trkpt>
      <trkpt lat="43.45563" lon="3.8116">
        <ele>47</ele>
        <time>2016-04-17T14:25:04.947Z</time>
      </trkpt>
      <trkpt lat="43.45565" lon="3.81164">
        <ele>46</ele>
        <time>2016-04-17T14:25:05.937Z</time>
      </trkpt>
      <trkpt lat="43.45569" lon="3.81169">
        <ele>47</ele>
        <time>2016-04-17T14:25:06.962Z</time>
      </trkpt>
      <trkpt lat="43.45572" lon="3.81174">
        <ele>46</ele>
        <time>2016-04-17T14:25:07.940Z</time>
      </trkpt>
      <trkpt lat="43.45574" lon="3.81179">
        <ele>46</ele>
        <time>2016-04-17T14:25:08.966Z</time>
      </trkpt>
      <trkpt lat="43.45577" lon="3.81186">
        <ele>47</ele>
        <time>2016-04-17T14:25:09.940Z</time>
      </trkpt>
      <trkpt lat="43.45583" lon="3.81195">
        <ele>47</ele>
        <time>2016-04-17T14:25:11.971Z</time>
      </trkpt>
      <trkpt lat="43.45585" lon="3.81201">
        <ele>48</ele>
        <time>2016-04-17T14:25:12.939Z</time>
      </trkpt>
      <trkpt lat="43.45589" lon="3.81206">
        <ele>47</ele>
        <time>2016-04-17T14:25:13.966Z</time>
      </trkpt>
      <trkpt lat="43.45591" lon="3.8121">
        <ele>48</ele>
        <time>2016-04-17T14:25:14.939Z</time>
      </trkpt>
      <trkpt lat="43.45595" lon="3.81221">
        <ele>49</ele>
        <time>2016-04-17T14:25:16.989Z</time>
      </trkpt>
      <trkpt lat="43.45597" lon="3.81226">
        <ele>49</ele>
        <time>2016-04-17T14:25:17.940Z</time>
      </trkpt>
      <trkpt lat="43.45599" lon="3.81231">
        <ele>48</ele>
        <time>2016-04-17T14:25:18.967Z</time>
      </trkpt>
      <trkpt lat="43.45602" lon="3.81237">
        <ele>49</ele>
        <time>2016-04-17T14:25:19.936Z</time>
      </trkpt>
      <trkpt lat="43.45605" lon="3.81244">
        <ele>48</ele>
        <time>2016-04-17T14:25:20.967Z</time>
      </trkpt>
      <trkpt lat="43.45609" lon="3.81249">
        <ele>50</ele>
        <time>2016-04-17T14:25:21.936Z</time>
      </trkpt>
      <trkpt lat="43.4561" lon="3.81256">
        <ele>47</ele>
        <time>2016-04-17T14:25:22.962Z</time>
      </trkpt>
      <trkpt lat="43.45612" lon="3.81261">
        <ele>45</ele>
        <time>2016-04-17T14:25:23.938Z</time>
      </trkpt>
      <trkpt lat="43.45615" lon="3.81273">
        <ele>43</ele>
        <time>2016-04-17T14:25:25.967Z</time>
      </trkpt>
      <trkpt lat="43.45619" lon="3.81277">
        <ele>44</ele>
        <time>2016-04-17T14:25:26.941Z</time>
      </trkpt>
      <trkpt lat="43.45624" lon="3.81287">
        <ele>45</ele>
        <time>2016-04-17T14:25:28.971Z</time>
      </trkpt>
      <trkpt lat="43.45628" lon="3.81292">
        <ele>45</ele>
        <time>2016-04-17T14:25:29.939Z</time>
      </trkpt>
      <trkpt lat="43.4563" lon="3.81297">
        <ele>45</ele>
        <time>2016-04-17T14:25:30.968Z</time>
      </trkpt>
      <trkpt lat="43.45633" lon="3.81304">
        <ele>44</ele>
        <time>2016-04-17T14:25:31.939Z</time>
      </trkpt>
      <trkpt lat="43.45638" lon="3.81313">
        <ele>44</ele>
        <time>2016-04-17T14:25:34.037Z</time>
      </trkpt>
      <trkpt lat="43.45641" lon="3.81317">
        <ele>44</ele>
        <time>2016-04-17T14:25:34.939Z</time>
      </trkpt>
      <trkpt lat="43.45645" lon="3.81321">
        <ele>44</ele>
        <time>2016-04-17T14:25:35.967Z</time>
      </trkpt>
      <trkpt lat="43.45648" lon="3.81326">
        <ele>44</ele>
        <time>2016-04-17T14:25:36.938Z</time>
      </trkpt>
      <trkpt lat="43.45653" lon="3.81335">
        <ele>46</ele>
        <time>2016-04-17T14:25:38.966Z</time>
      </trkpt>
      <trkpt lat="43.45656" lon="3.81339">
        <ele>47</ele>
        <time>2016-04-17T14:25:39.938Z</time>
      </trkpt>
      <trkpt lat="43.45659" lon="3.81349">
        <ele>46</ele>
        <time>2016-04-17T14:25:41.962Z</time>
      </trkpt>
      <trkpt lat="43.45662" lon="3.81354">
        <ele>47</ele>
        <time>2016-04-17T14:25:42.936Z</time>
      </trkpt>
      <trkpt lat="43.45665" lon="3.81359">
        <ele>47</ele>
        <time>2016-04-17T14:25:43.968Z</time>
      </trkpt>
      <trkpt lat="43.45667" lon="3.81364">
        <ele>48</ele>
        <time>2016-04-17T14:25:44.939Z</time>
      </trkpt>
      <trkpt lat="43.45669" lon="3.8137">
        <ele>48</ele>
        <time>2016-04-17T14:25:45.967Z</time>
      </trkpt>
      <trkpt lat="43.45672" lon="3.81375">
        <ele>48</ele>
        <time>2016-04-17T14:25:46.938Z</time>
      </trkpt>
      <trkpt lat="43.45675" lon="3.81386">
        <ele>48</ele>
        <time>2016-04-17T14:25:48.966Z</time>
      </trkpt>
      <trkpt lat="43.45679" lon="3.81392">
        <ele>50</ele>
        <time>2016-04-17T14:25:49.939Z</time>
      </trkpt>
      <trkpt lat="43.45683" lon="3.81402">
        <ele>51</ele>
        <time>2016-04-17T14:25:51.970Z</time>
      </trkpt>
      <trkpt lat="43.45685" lon="3.81406">
        <ele>51</ele>
        <time>2016-04-17T14:25:52.938Z</time>
      </trkpt>
      <trkpt lat="43.4569" lon="3.81416">
        <ele>51</ele>
        <time>2016-04-17T14:25:54.966Z</time>
      </trkpt>
      <trkpt lat="43.45692" lon="3.8142">
        <ele>49</ele>
        <time>2016-04-17T14:25:55.939Z</time>
      </trkpt>
      <trkpt lat="43.45696" lon="3.81423">
        <ele>50</ele>
        <time>2016-04-17T14:25:56.963Z</time>
      </trkpt>
      <trkpt lat="43.457" lon="3.81427">
        <ele>50</ele>
        <time>2016-04-17T14:25:57.940Z</time>
      </trkpt>
      <trkpt lat="43.45705" lon="3.81437">
        <ele>53</ele>
        <time>2016-04-17T14:25:59.968Z</time>
      </trkpt>
      <trkpt lat="43.45708" lon="3.81442">
        <ele>54</ele>
        <time>2016-04-17T14:26:00.938Z</time>
      </trkpt>
      <trkpt lat="43.45713" lon="3.81451">
        <ele>54</ele>
        <time>2016-04-17T14:26:02.970Z</time>
      </trkpt>
      <trkpt lat="43.45715" lon="3.81455">
        <ele>54</ele>
        <time>2016-04-17T14:26:03.942Z</time>
      </trkpt>
      <trkpt lat="43.45717" lon="3.81459">
        <ele>53</ele>
        <time>2016-04-17T14:26:04.967Z</time>
      </trkpt>
      <trkpt lat="43.45721" lon="3.81464">
        <ele>53</ele>
        <time>2016-04-17T14:26:05.939Z</time>
      </trkpt>
      <trkpt lat="43.45724" lon="3.81471">
        <ele>52</ele>
        <time>2016-04-17T14:26:06.969Z</time>
      </trkpt>
      <trkpt lat="43.45728" lon="3.81474">
        <ele>53</ele>
        <time>2016-04-17T14:26:07.938Z</time>
      </trkpt>
      <trkpt lat="43.45733" lon="3.81483">
        <ele>52</ele>
        <time>2016-04-17T14:26:10.097Z</time>
      </trkpt>
      <trkpt lat="43.45736" lon="3.81487">
        <ele>54</ele>
        <time>2016-04-17T14:26:10.936Z</time>
      </trkpt>
      <trkpt lat="43.45738" lon="3.81492">
        <ele>54</ele>
        <time>2016-04-17T14:26:11.966Z</time>
      </trkpt>
      <trkpt lat="43.45741" lon="3.81497">
        <ele>53</ele>
        <time>2016-04-17T14:26:12.938Z</time>
      </trkpt>
      <trkpt lat="43.45747" lon="3.81506">
        <ele>52</ele>
        <time>2016-04-17T14:26:14.992Z</time>
      </trkpt>
      <trkpt lat="43.45748" lon="3.81509">
        <ele>51</ele>
        <time>2016-04-17T14:26:15.939Z</time>
      </trkpt>
      <trkpt lat="43.45754" lon="3.81516">
        <ele>48</ele>
        <time>2016-04-17T14:26:17.967Z</time>
      </trkpt>
      <trkpt lat="43.45757" lon="3.8152">
        <ele>48</ele>
        <time>2016-04-17T14:26:18.938Z</time>
      </trkpt>
      <trkpt lat="43.4576" lon="3.81524">
        <ele>47</ele>
        <time>2016-04-17T14:26:19.968Z</time>
      </trkpt>
      <trkpt lat="43.45763" lon="3.81528">
        <ele>47</ele>
        <time>2016-04-17T14:26:20.938Z</time>
      </trkpt>
      <trkpt lat="43.45769" lon="3.81537">
        <ele>47</ele>
        <time>2016-04-17T14:26:22.967Z</time>
      </trkpt>
      <trkpt lat="43.45773" lon="3.81541">
        <ele>47</ele>
        <time>2016-04-17T14:26:23.939Z</time>
      </trkpt>
      <trkpt lat="43.45776" lon="3.81548">
        <ele>44</ele>
        <time>2016-04-17T14:26:25.967Z</time>
      </trkpt>
      <trkpt lat="43.45779" lon="3.81553">
        <ele>45</ele>
        <time>2016-04-17T14:26:26.936Z</time>
      </trkpt>
      <trkpt lat="43.45784" lon="3.81561">
        <ele>45</ele>
        <time>2016-04-17T14:26:28.968Z</time>
      </trkpt>
      <trkpt lat="43.45788" lon="3.81564">
        <ele>45</ele>
        <time>2016-04-17T14:26:29.939Z</time>
      </trkpt>
      <trkpt lat="43.45793" lon="3.81572">
        <ele>44</ele>
        <time>2016-04-17T14:26:31.970Z</time>
      </trkpt>
      <trkpt lat="43.45795" lon="3.81576">
        <ele>44</ele>
        <time>2016-04-17T14:26:32.938Z</time>
      </trkpt>
      <trkpt lat="43.458" lon="3.81583">
        <ele>44</ele>
        <time>2016-04-17T14:26:34.966Z</time>
      </trkpt>
      <trkpt lat="43.45802" lon="3.81587">
        <ele>45</ele>
        <time>2016-04-17T14:26:35.939Z</time>
      </trkpt>
      <trkpt lat="43.45806" lon="3.81595">
        <ele>44</ele>
        <time>2016-04-17T14:26:37.966Z</time>
      </trkpt>
      <trkpt lat="43.4581" lon="3.81598">
        <ele>43</ele>
        <time>2016-04-17T14:26:38.938Z</time>
      </trkpt>
      <trkpt lat="43.45816" lon="3.81604">
        <ele>42</ele>
        <time>2016-04-17T14:26:40.966Z</time>
      </trkpt>
      <trkpt lat="43.45819" lon="3.81607">
        <ele>42</ele>
        <time>2016-04-17T14:26:41.938Z</time>
      </trkpt>
      <trkpt lat="43.45822" lon="3.81614">
        <ele>42</ele>
        <time>2016-04-17T14:26:43.967Z</time>
      </trkpt>
      <trkpt lat="43.45825" lon="3.81618">
        <ele>42</ele>
        <time>2016-04-17T14:26:44.938Z</time>
      </trkpt>
      <trkpt lat="43.45828" lon="3.81624">
        <ele>44</ele>
        <time>2016-04-17T14:26:45.967Z</time>
      </trkpt>
      <trkpt lat="43.45831" lon="3.81627">
        <ele>46</ele>
        <time>2016-04-17T14:26:46.967Z</time>
      </trkpt>
      <trkpt lat="43.45834" lon="3.81632">
        <ele>46</ele>
        <time>2016-04-17T14:26:47.968Z</time>
      </trkpt>
      <trkpt lat="43.45837" lon="3.81636">
        <ele>46</ele>
        <time>2016-04-17T14:26:48.938Z</time>
      </trkpt>
      <trkpt lat="43.45842" lon="3.81644">
        <ele>46</ele>
        <time>2016-04-17T14:26:50.967Z</time>
      </trkpt>
      <trkpt lat="43.45845" lon="3.81649">
        <ele>46</ele>
        <time>2016-04-17T14:26:51.939Z</time>
      </trkpt>
      <trkpt lat="43.4585" lon="3.81655">
        <ele>46</ele>
        <time>2016-04-17T14:26:53.967Z</time>
      </trkpt>
      <trkpt lat="43.45853" lon="3.81659">
        <ele>46</ele>
        <time>2016-04-17T14:26:54.939Z</time>
      </trkpt>
      <trkpt lat="43.45856" lon="3.81667">
        <ele>46</ele>
        <time>2016-04-17T14:26:56.969Z</time>
      </trkpt>
      <trkpt lat="43.4586" lon="3.8167">
        <ele>45</ele>
        <time>2016-04-17T14:26:57.939Z</time>
      </trkpt>
      <trkpt lat="43.45863" lon="3.81676">
        <ele>45</ele>
        <time>2016-04-17T14:26:58.962Z</time>
      </trkpt>
      <trkpt lat="43.45865" lon="3.8168">
        <ele>45</ele>
        <time>2016-04-17T14:26:59.940Z</time>
      </trkpt>
      <trkpt lat="43.4587" lon="3.81684">
        <ele>47</ele>
        <time>2016-04-17T14:27:00.971Z</time>
      </trkpt>
      <trkpt lat="43.45873" lon="3.81688">
        <ele>46</ele>
        <time>2016-04-17T14:27:01.940Z</time>
      </trkpt>
      <trkpt lat="43.45876" lon="3.81691">
        <ele>46</ele>
        <time>2016-04-17T14:27:02.991Z</time>
      </trkpt>
      <trkpt lat="43.45879" lon="3.81696">
        <ele>46</ele>
        <time>2016-04-17T14:27:03.940Z</time>
      </trkpt>
      <trkpt lat="43.45882" lon="3.817">
        <ele>47</ele>
        <time>2016-04-17T14:27:04.968Z</time>
      </trkpt>
      <trkpt lat="43.45886" lon="3.81706">
        <ele>46</ele>
        <time>2016-04-17T14:27:05.939Z</time>
      </trkpt>
      <trkpt lat="43.45889" lon="3.81714">
        <ele>42</ele>
        <time>2016-04-17T14:27:08.967Z</time>
      </trkpt>
      <trkpt lat="43.45892" lon="3.8172">
        <ele>44</ele>
        <time>2016-04-17T14:27:09.939Z</time>
      </trkpt>
      <trkpt lat="43.45898" lon="3.81728">
        <ele>45</ele>
        <time>2016-04-17T14:27:11.970Z</time>
      </trkpt>
      <trkpt lat="43.45899" lon="3.81731">
        <ele>43</ele>
        <time>2016-04-17T14:27:12.939Z</time>
      </trkpt>
      <trkpt lat="43.45902" lon="3.81735">
        <ele>43</ele>
        <time>2016-04-17T14:27:13.969Z</time>
      </trkpt>
      <trkpt lat="43.45906" lon="3.8174">
        <ele>44</ele>
        <time>2016-04-17T14:27:14.938Z</time>
      </trkpt>
      <trkpt lat="43.4591" lon="3.81748">
        <ele>44</ele>
        <time>2016-04-17T14:27:16.968Z</time>
      </trkpt>
      <trkpt lat="43.45913" lon="3.81753">
        <ele>44</ele>
        <time>2016-04-17T14:27:17.939Z</time>
      </trkpt>
      <trkpt lat="43.45919" lon="3.81761">
        <ele>45</ele>
        <time>2016-04-17T14:27:19.987Z</time>
      </trkpt>
      <trkpt lat="43.45923" lon="3.81764">
        <ele>45</ele>
        <time>2016-04-17T14:27:20.939Z</time>
      </trkpt>
      <trkpt lat="43.45927" lon="3.81771">
        <ele>41</ele>
        <time>2016-04-17T14:27:22.973Z</time>
      </trkpt>
      <trkpt lat="43.4593" lon="3.81775">
        <ele>41</ele>
        <time>2016-04-17T14:27:23.964Z</time>
      </trkpt>
      <trkpt lat="43.45933" lon="3.8178">
        <ele>41</ele>
        <time>2016-04-17T14:27:24.967Z</time>
      </trkpt>
      <trkpt lat="43.45937" lon="3.81783">
        <ele>40</ele>
        <time>2016-04-17T14:27:25.940Z</time>
      </trkpt>
      <trkpt lat="43.45943" lon="3.81789">
        <ele>40</ele>
        <time>2016-04-17T14:27:27.966Z</time>
      </trkpt>
      <trkpt lat="43.45946" lon="3.81793">
        <ele>41</ele>
        <time>2016-04-17T14:27:28.938Z</time>
      </trkpt>
      <trkpt lat="43.4595" lon="3.818">
        <ele>39</ele>
        <time>2016-04-17T14:27:30.964Z</time>
      </trkpt>
      <trkpt lat="43.45954" lon="3.81804">
        <ele>40</ele>
        <time>2016-04-17T14:27:31.939Z</time>
      </trkpt>
      <trkpt lat="43.45956" lon="3.81807">
        <ele>40</ele>
        <time>2016-04-17T14:27:32.968Z</time>
      </trkpt>
      <trkpt lat="43.45961" lon="3.8181">
        <ele>37</ele>
        <time>2016-04-17T14:27:33.940Z</time>
      </trkpt>
      <trkpt lat="43.45967" lon="3.81818">
        <ele>39</ele>
        <time>2016-04-17T14:27:35.968Z</time>
      </trkpt>
      <trkpt lat="43.45969" lon="3.81822">
        <ele>40</ele>
        <time>2016-04-17T14:27:36.940Z</time>
      </trkpt>
      <trkpt lat="43.45974" lon="3.81829">
        <ele>41</ele>
        <time>2016-04-17T14:27:38.967Z</time>
      </trkpt>
      <trkpt lat="43.45977" lon="3.81833">
        <ele>41</ele>
        <time>2016-04-17T14:27:39.964Z</time>
      </trkpt>
      <trkpt lat="43.45982" lon="3.8184">
        <ele>42</ele>
        <time>2016-04-17T14:27:41.969Z</time>
      </trkpt>
      <trkpt lat="43.45984" lon="3.81844">
        <ele>41</ele>
        <time>2016-04-17T14:27:42.938Z</time>
      </trkpt>
      <trkpt lat="43.45989" lon="3.81851">
        <ele>42</ele>
        <time>2016-04-17T14:27:44.966Z</time>
      </trkpt>
      <trkpt lat="43.45992" lon="3.81854">
        <ele>42</ele>
        <time>2016-04-17T14:27:45.939Z</time>
      </trkpt>
      <trkpt lat="43.45994" lon="3.81858">
        <ele>43</ele>
        <time>2016-04-17T14:27:46.965Z</time>
      </trkpt>
      <trkpt lat="43.45998" lon="3.81864">
        <ele>44</ele>
        <time>2016-04-17T14:27:47.938Z</time>
      </trkpt>
      <trkpt lat="43.46003" lon="3.81871">
        <ele>44</ele>
        <time>2016-04-17T14:27:49.968Z</time>
      </trkpt>
      <trkpt lat="43.46006" lon="3.81874">
        <ele>44</ele>
        <time>2016-04-17T14:27:50.939Z</time>
      </trkpt>
      <trkpt lat="43.46012" lon="3.81878">
        <ele>45</ele>
        <time>2016-04-17T14:27:52.967Z</time>
      </trkpt>
      <trkpt lat="43.46016" lon="3.81882">
        <ele>44</ele>
        <time>2016-04-17T14:27:53.939Z</time>
      </trkpt>
      <trkpt lat="43.46021" lon="3.81888">
        <ele>44</ele>
        <time>2016-04-17T14:27:55.994Z</time>
      </trkpt>
      <trkpt lat="43.46025" lon="3.81891">
        <ele>44</ele>
        <time>2016-04-17T14:27:56.939Z</time>
      </trkpt>
      <trkpt lat="43.46031" lon="3.81897">
        <ele>45</ele>
        <time>2016-04-17T14:27:58.967Z</time>
      </trkpt>
      <trkpt lat="43.46034" lon="3.81902">
        <ele>44</ele>
        <time>2016-04-17T14:27:59.937Z</time>
      </trkpt>
      <trkpt lat="43.46041" lon="3.81905">
        <ele>44</ele>
        <time>2016-04-17T14:28:01.971Z</time>
      </trkpt>
      <trkpt lat="43.46044" lon="3.81907">
        <ele>44</ele>
        <time>2016-04-17T14:28:02.938Z</time>
      </trkpt>
      <trkpt lat="43.46049" lon="3.81911">
        <ele>42</ele>
        <time>2016-04-17T14:28:04.969Z</time>
      </trkpt>
      <trkpt lat="43.46054" lon="3.81916">
        <ele>43</ele>
        <time>2016-04-17T14:28:05.939Z</time>
      </trkpt>
      <trkpt lat="43.46062" lon="3.81922">
        <ele>43</ele>
        <time>2016-04-17T14:28:08.023Z</time>
      </trkpt>
      <trkpt lat="43.46065" lon="3.81926">
        <ele>44</ele>
        <time>2016-04-17T14:28:08.937Z</time>
      </trkpt>
      <trkpt lat="43.46068" lon="3.81929">
        <ele>44</ele>
        <time>2016-04-17T14:28:09.969Z</time>
      </trkpt>
      <trkpt lat="43.46072" lon="3.81933">
        <ele>45</ele>
        <time>2016-04-17T14:28:10.940Z</time>
      </trkpt>
      <trkpt lat="43.46079" lon="3.81937">
        <ele>46</ele>
        <time>2016-04-17T14:28:13.093Z</time>
      </trkpt>
      <trkpt lat="43.46082" lon="3.81939">
        <ele>47</ele>
        <time>2016-04-17T14:28:13.940Z</time>
      </trkpt>
      <trkpt lat="43.4609" lon="3.81944">
        <ele>48</ele>
        <time>2016-04-17T14:28:15.967Z</time>
      </trkpt>
      <trkpt lat="43.46094" lon="3.81948">
        <ele>50</ele>
        <time>2016-04-17T14:28:16.938Z</time>
      </trkpt>
      <trkpt lat="43.46101" lon="3.81952">
        <ele>51</ele>
        <time>2016-04-17T14:28:18.962Z</time>
      </trkpt>
      <trkpt lat="43.46104" lon="3.81953">
        <ele>51</ele>
        <time>2016-04-17T14:28:19.939Z</time>
      </trkpt>
      <trkpt lat="43.46112" lon="3.81956">
        <ele>50</ele>
        <time>2016-04-17T14:28:21.969Z</time>
      </trkpt>
      <trkpt lat="43.46115" lon="3.81955">
        <ele>51</ele>
        <time>2016-04-17T14:28:22.938Z</time>
      </trkpt>
      <trkpt lat="43.46123" lon="3.81958">
        <ele>50</ele>
        <time>2016-04-17T14:28:24.968Z</time>
      </trkpt>
      <trkpt lat="43.46127" lon="3.8196">
        <ele>50</ele>
        <time>2016-04-17T14:28:26.081Z</time>
      </trkpt>
      <trkpt lat="43.46134" lon="3.81958">
        <ele>49</ele>
        <time>2016-04-17T14:28:27.991Z</time>
      </trkpt>
      <trkpt lat="43.46138" lon="3.81958">
        <ele>49</ele>
        <time>2016-04-17T14:28:28.939Z</time>
      </trkpt>
      <trkpt lat="43.46146" lon="3.81959">
        <ele>49</ele>
        <time>2016-04-17T14:28:30.967Z</time>
      </trkpt>
      <trkpt lat="43.46149" lon="3.81959">
        <ele>50</ele>
        <time>2016-04-17T14:28:31.938Z</time>
      </trkpt>
      <trkpt lat="43.46157" lon="3.81961">
        <ele>50</ele>
        <time>2016-04-17T14:28:33.969Z</time>
      </trkpt>
      <trkpt lat="43.46161" lon="3.81961">
        <ele>51</ele>
        <time>2016-04-17T14:28:34.938Z</time>
      </trkpt>
      <trkpt lat="43.46169" lon="3.81962">
        <ele>51</ele>
        <time>2016-04-17T14:28:36.968Z</time>
      </trkpt>
      <trkpt lat="43.46172" lon="3.81962">
        <ele>51</ele>
        <time>2016-04-17T14:28:37.938Z</time>
      </trkpt>
      <trkpt lat="43.46179" lon="3.81962">
        <ele>52</ele>
        <time>2016-04-17T14:28:39.971Z</time>
      </trkpt>
      <trkpt lat="43.46183" lon="3.81962">
        <ele>52</ele>
        <time>2016-04-17T14:28:40.938Z</time>
      </trkpt>
      <trkpt lat="43.46191" lon="3.81963">
        <ele>52</ele>
        <time>2016-04-17T14:28:42.968Z</time>
      </trkpt>
      <trkpt lat="43.46195" lon="3.81963">
        <ele>51</ele>
        <time>2016-04-17T14:28:43.938Z</time>
      </trkpt>
      <trkpt lat="43.46201" lon="3.8196">
        <ele>50</ele>
        <time>2016-04-17T14:28:45.969Z</time>
      </trkpt>
      <trkpt lat="43.46205" lon="3.81959">
        <ele>51</ele>
        <time>2016-04-17T14:28:46.938Z</time>
      </trkpt>
      <trkpt lat="43.46213" lon="3.8196">
        <ele>50</ele>
        <time>2016-04-17T14:28:48.994Z</time>
      </trkpt>
      <trkpt lat="43.46217" lon="3.8196">
        <ele>51</ele>
        <time>2016-04-17T14:28:49.938Z</time>
      </trkpt>
      <trkpt lat="43.46224" lon="3.81961">
        <ele>52</ele>
        <time>2016-04-17T14:28:51.968Z</time>
      </trkpt>
      <trkpt lat="43.46229" lon="3.81962">
        <ele>50</ele>
        <time>2016-04-17T14:28:52.939Z</time>
      </trkpt>
      <trkpt lat="43.46236" lon="3.8196">
        <ele>50</ele>
        <time>2016-04-17T14:28:54.967Z</time>
      </trkpt>
      <trkpt lat="43.46239" lon="3.81959">
        <ele>51</ele>
        <time>2016-04-17T14:28:55.939Z</time>
      </trkpt>
      <trkpt lat="43.46245" lon="3.81955">
        <ele>50</ele>
        <time>2016-04-17T14:28:57.965Z</time>
      </trkpt>
      <trkpt lat="43.46249" lon="3.81954">
        <ele>51</ele>
        <time>2016-04-17T14:28:58.940Z</time>
      </trkpt>
      <trkpt lat="43.46256" lon="3.81952">
        <ele>52</ele>
        <time>2016-04-17T14:29:00.970Z</time>
      </trkpt>
      <trkpt lat="43.46259" lon="3.81951">
        <ele>52</ele>
        <time>2016-04-17T14:29:01.940Z</time>
      </trkpt>
      <trkpt lat="43.46265" lon="3.81947">
        <ele>52</ele>
        <time>2016-04-17T14:29:03.966Z</time>
      </trkpt>
      <trkpt lat="43.46268" lon="3.81945">
        <ele>52</ele>
        <time>2016-04-17T14:29:04.938Z</time>
      </trkpt>
      <trkpt lat="43.46274" lon="3.81942">
        <ele>53</ele>
        <time>2016-04-17T14:29:06.959Z</time>
      </trkpt>
      <trkpt lat="43.46278" lon="3.8194">
        <ele>54</ele>
        <time>2016-04-17T14:29:07.938Z</time>
      </trkpt>
      <trkpt lat="43.46283" lon="3.81935">
        <ele>53</ele>
        <time>2016-04-17T14:29:09.994Z</time>
      </trkpt>
      <trkpt lat="43.46286" lon="3.81934">
        <ele>53</ele>
        <time>2016-04-17T14:29:10.940Z</time>
      </trkpt>
      <trkpt lat="43.46294" lon="3.81931">
        <ele>54</ele>
        <time>2016-04-17T14:29:13.967Z</time>
      </trkpt>
      <trkpt lat="43.46296" lon="3.8193">
        <ele>54</ele>
        <time>2016-04-17T14:29:14.939Z</time>
      </trkpt>
      <trkpt lat="43.46303" lon="3.81931">
        <ele>54</ele>
        <time>2016-04-17T14:29:16.971Z</time>
      </trkpt>
      <trkpt lat="43.46307" lon="3.81931">
        <ele>55</ele>
        <time>2016-04-17T14:29:17.937Z</time>
      </trkpt>
      <trkpt lat="43.46313" lon="3.81929">
        <ele>54</ele>
        <time>2016-04-17T14:29:19.969Z</time>
      </trkpt>
      <trkpt lat="43.46316" lon="3.81927">
        <ele>54</ele>
        <time>2016-04-17T14:29:20.939Z</time>
      </trkpt>
      <trkpt lat="43.46323" lon="3.81921">
        <ele>55</ele>
        <time>2016-04-17T14:29:23.966Z</time>
      </trkpt>
      <trkpt lat="43.46327" lon="3.81924">
        <ele>57</ele>
        <time>2016-04-17T14:29:24.938Z</time>
      </trkpt>
      <trkpt lat="43.46335" lon="3.8192">
        <ele>57</ele>
        <time>2016-04-17T14:29:27.968Z</time>
      </trkpt>
      <trkpt lat="43.46338" lon="3.81918">
        <ele>57</ele>
        <time>2016-04-17T14:29:28.941Z</time>
      </trkpt>
      <trkpt lat="43.46346" lon="3.81914">
        <ele>56</ele>
        <time>2016-04-17T14:29:31.971Z</time>
      </trkpt>
      <trkpt lat="43.46349" lon="3.81913">
        <ele>57</ele>
        <time>2016-04-17T14:29:32.940Z</time>
      </trkpt>
      <trkpt lat="43.46355" lon="3.81906">
        <ele>55</ele>
        <time>2016-04-17T14:29:35.971Z</time>
      </trkpt>
      <trkpt lat="43.46358" lon="3.81903">
        <ele>55</ele>
        <time>2016-04-17T14:29:36.940Z</time>
      </trkpt>
      <trkpt lat="43.46365" lon="3.81897">
        <ele>53</ele>
        <time>2016-04-17T14:29:39.968Z</time>
      </trkpt>
      <trkpt lat="43.46367" lon="3.81895">
        <ele>53</ele>
        <time>2016-04-17T14:29:40.941Z</time>
      </trkpt>
      <trkpt lat="43.46373" lon="3.81888">
        <ele>52</ele>
        <time>2016-04-17T14:29:43.966Z</time>
      </trkpt>
      <trkpt lat="43.46375" lon="3.81886">
        <ele>52</ele>
        <time>2016-04-17T14:29:44.938Z</time>
      </trkpt>
      <trkpt lat="43.46383" lon="3.8188">
        <ele>51</ele>
        <time>2016-04-17T14:29:47.969Z</time>
      </trkpt>
      <trkpt lat="43.46385" lon="3.81878">
        <ele>51</ele>
        <time>2016-04-17T14:29:48.938Z</time>
      </trkpt>
      <trkpt lat="43.4639" lon="3.81869">
        <ele>49</ele>
        <time>2016-04-17T14:29:51.973Z</time>
      </trkpt>
      <trkpt lat="43.46392" lon="3.81867">
        <ele>49</ele>
        <time>2016-04-17T14:29:52.939Z</time>
      </trkpt>
      <trkpt lat="43.46401" lon="3.81864">
        <ele>47</ele>
        <time>2016-04-17T14:29:56.076Z</time>
      </trkpt>
      <trkpt lat="43.46402" lon="3.81861">
        <ele>47</ele>
        <time>2016-04-17T14:29:56.935Z</time>
      </trkpt>
      <trkpt lat="43.46406" lon="3.81854">
        <ele>45</ele>
        <time>2016-04-17T14:29:58.969Z</time>
      </trkpt>
      <trkpt lat="43.46408" lon="3.81851">
        <ele>45</ele>
        <time>2016-04-17T14:29:59.940Z</time>
      </trkpt>
      <trkpt lat="43.46414" lon="3.81843">
        <ele>46</ele>
        <time>2016-04-17T14:30:02.978Z</time>
      </trkpt>
      <trkpt lat="43.46417" lon="3.81841">
        <ele>46</ele>
        <time>2016-04-17T14:30:03.941Z</time>
      </trkpt>
      <trkpt lat="43.46421" lon="3.81831">
        <ele>47</ele>
        <time>2016-04-17T14:30:07.095Z</time>
      </trkpt>
      <trkpt lat="43.46424" lon="3.81828">
        <ele>46</ele>
        <time>2016-04-17T14:30:07.939Z</time>
      </trkpt>
      <trkpt lat="43.46426" lon="3.8182">
        <ele>46</ele>
        <time>2016-04-17T14:30:09.965Z</time>
      </trkpt>
      <trkpt lat="43.46426" lon="3.81816">
        <ele>46</ele>
        <time>2016-04-17T14:30:10.939Z</time>
      </trkpt>
      <trkpt lat="43.46432" lon="3.81809">
        <ele>47</ele>
        <time>2016-04-17T14:30:13.992Z</time>
      </trkpt>
      <trkpt lat="43.46434" lon="3.81807">
        <ele>47</ele>
        <time>2016-04-17T14:30:14.936Z</time>
      </trkpt>
      <trkpt lat="43.46439" lon="3.81803">
        <ele>51</ele>
        <time>2016-04-17T14:30:23.965Z</time>
      </trkpt>
      <trkpt lat="43.46439" lon="3.81804">
        <ele>51</ele>
        <time>2016-04-17T14:30:24.966Z</time>
      </trkpt>
      <trkpt lat="43.46438" lon="3.81805">
        <ele>51</ele>
        <time>2016-04-17T14:30:35.094Z</time>
      </trkpt>
      <trkpt lat="43.46438" lon="3.81805">
        <ele>51</ele>
        <time>2016-04-17T14:30:35.940Z</time>
      </trkpt>
      <trkpt lat="43.46447" lon="3.81808">
        <ele>53</ele>
        <time>2016-04-17T14:30:41.966Z</time>
      </trkpt>
      <trkpt lat="43.46448" lon="3.81809">
        <ele>53</ele>
        <time>2016-04-17T14:30:42.937Z</time>
      </trkpt>
      <trkpt lat="43.46455" lon="3.81814">
        <ele>51</ele>
        <time>2016-04-17T14:30:45.968Z</time>
      </trkpt>
      <trkpt lat="43.46458" lon="3.81816">
        <ele>51</ele>
        <time>2016-04-17T14:30:46.941Z</time>
      </trkpt>
      <trkpt lat="43.46464" lon="3.81821">
        <ele>51</ele>
        <time>2016-04-17T14:30:48.969Z</time>
      </trkpt>
      <trkpt lat="43.46467" lon="3.81822">
        <ele>52</ele>
        <time>2016-04-17T14:30:49.940Z</time>
      </trkpt>
      <trkpt lat="43.46472" lon="3.81825">
        <ele>51</ele>
        <time>2016-04-17T14:30:51.975Z</time>
      </trkpt>
      <trkpt lat="43.46475" lon="3.81828">
        <ele>52</ele>
        <time>2016-04-17T14:30:52.939Z</time>
      </trkpt>
      <trkpt lat="43.46479" lon="3.81834">
        <ele>51</ele>
        <time>2016-04-17T14:30:54.969Z</time>
      </trkpt>
      <trkpt lat="43.46483" lon="3.81838">
        <ele>51</ele>
        <time>2016-04-17T14:30:55.959Z</time>
      </trkpt>
      <trkpt lat="43.46489" lon="3.81843">
        <ele>54</ele>
        <time>2016-04-17T14:30:57.965Z</time>
      </trkpt>
      <trkpt lat="43.46493" lon="3.8185">
        <ele>52</ele>
        <time>2016-04-17T14:30:58.939Z</time>
      </trkpt>
      <trkpt lat="43.46499" lon="3.81855">
        <ele>49</ele>
        <time>2016-04-17T14:31:00.970Z</time>
      </trkpt>
      <trkpt lat="43.46502" lon="3.81858">
        <ele>48</ele>
        <time>2016-04-17T14:31:01.943Z</time>
      </trkpt>
      <trkpt lat="43.46506" lon="3.81867">
        <ele>49</ele>
        <time>2016-04-17T14:31:02.971Z</time>
      </trkpt>
      <trkpt lat="43.46509" lon="3.81867">
        <ele>50</ele>
        <time>2016-04-17T14:31:03.938Z</time>
      </trkpt>
      <trkpt lat="43.46516" lon="3.81873">
        <ele>49</ele>
        <time>2016-04-17T14:31:06.971Z</time>
      </trkpt>
      <trkpt lat="43.4652" lon="3.8188">
        <ele>48</ele>
        <time>2016-04-17T14:31:07.940Z</time>
      </trkpt>
      <trkpt lat="43.46524" lon="3.81887">
        <ele>49</ele>
        <time>2016-04-17T14:31:09.969Z</time>
      </trkpt>
      <trkpt lat="43.46528" lon="3.8189">
        <ele>50</ele>
        <time>2016-04-17T14:31:10.939Z</time>
      </trkpt>
      <trkpt lat="43.46533" lon="3.81893">
        <ele>51</ele>
        <time>2016-04-17T14:31:12.987Z</time>
      </trkpt>
      <trkpt lat="43.46536" lon="3.81896">
        <ele>51</ele>
        <time>2016-04-17T14:31:13.940Z</time>
      </trkpt>
      <trkpt lat="43.46541" lon="3.81904">
        <ele>52</ele>
        <time>2016-04-17T14:31:15.968Z</time>
      </trkpt>
      <trkpt lat="43.46543" lon="3.81907">
        <ele>51</ele>
        <time>2016-04-17T14:31:16.940Z</time>
      </trkpt>
      <trkpt lat="43.46549" lon="3.81915">
        <ele>51</ele>
        <time>2016-04-17T14:31:18.960Z</time>
      </trkpt>
      <trkpt lat="43.46551" lon="3.81917">
        <ele>52</ele>
        <time>2016-04-17T14:31:19.940Z</time>
      </trkpt>
      <trkpt lat="43.46555" lon="3.81923">
        <ele>53</ele>
        <time>2016-04-17T14:31:21.969Z</time>
      </trkpt>
      <trkpt lat="43.46559" lon="3.81924">
        <ele>53</ele>
        <time>2016-04-17T14:31:22.937Z</time>
      </trkpt>
      <trkpt lat="43.46566" lon="3.81928">
        <ele>52</ele>
        <time>2016-04-17T14:31:25.097Z</time>
      </trkpt>
      <trkpt lat="43.46569" lon="3.81932">
        <ele>52</ele>
        <time>2016-04-17T14:31:25.939Z</time>
      </trkpt>
      <trkpt lat="43.46575" lon="3.81937">
        <ele>52</ele>
        <time>2016-04-17T14:31:27.967Z</time>
      </trkpt>
      <trkpt lat="43.46578" lon="3.8194">
        <ele>52</ele>
        <time>2016-04-17T14:31:28.938Z</time>
      </trkpt>
      <trkpt lat="43.46584" lon="3.81946">
        <ele>51</ele>
        <time>2016-04-17T14:31:30.970Z</time>
      </trkpt>
      <trkpt lat="43.46587" lon="3.81949">
        <ele>51</ele>
        <time>2016-04-17T14:31:31.941Z</time>
      </trkpt>
      <trkpt lat="43.46593" lon="3.81956">
        <ele>50</ele>
        <time>2016-04-17T14:31:33.987Z</time>
      </trkpt>
      <trkpt lat="43.46596" lon="3.81959">
        <ele>51</ele>
        <time>2016-04-17T14:31:34.940Z</time>
      </trkpt>
      <trkpt lat="43.46601" lon="3.81964">
        <ele>50</ele>
        <time>2016-04-17T14:31:36.970Z</time>
      </trkpt>
      <trkpt lat="43.46604" lon="3.81967">
        <ele>49</ele>
        <time>2016-04-17T14:31:38.075Z</time>
      </trkpt>
      <trkpt lat="43.46607" lon="3.81969">
        <ele>51</ele>
        <time>2016-04-17T14:31:38.969Z</time>
      </trkpt>
      <trkpt lat="43.46612" lon="3.81973">
        <ele>51</ele>
        <time>2016-04-17T14:31:39.942Z</time>
      </trkpt>
      <trkpt lat="43.46618" lon="3.81979">
        <ele>51</ele>
        <time>2016-04-17T14:31:41.971Z</time>
      </trkpt>
      <trkpt lat="43.46621" lon="3.81982">
        <ele>52</ele>
        <time>2016-04-17T14:31:42.939Z</time>
      </trkpt>
      <trkpt lat="43.46626" lon="3.81987">
        <ele>54</ele>
        <time>2016-04-17T14:31:44.974Z</time>
      </trkpt>
      <trkpt lat="43.46631" lon="3.81993">
        <ele>51</ele>
        <time>2016-04-17T14:31:45.938Z</time>
      </trkpt>
      <trkpt lat="43.46636" lon="3.81998">
        <ele>53</ele>
        <time>2016-04-17T14:31:47.967Z</time>
      </trkpt>
      <trkpt lat="43.46639" lon="3.82001">
        <ele>53</ele>
        <time>2016-04-17T14:31:48.939Z</time>
      </trkpt>
      <trkpt lat="43.46644" lon="3.82005">
        <ele>56</ele>
        <time>2016-04-17T14:31:50.967Z</time>
      </trkpt>
      <trkpt lat="43.46647" lon="3.82008">
        <ele>56</ele>
        <time>2016-04-17T14:31:51.939Z</time>
      </trkpt>
      <trkpt lat="43.46653" lon="3.82017">
        <ele>52</ele>
        <time>2016-04-17T14:31:54.030Z</time>
      </trkpt>
      <trkpt lat="43.46656" lon="3.82019">
        <ele>52</ele>
        <time>2016-04-17T14:31:54.939Z</time>
      </trkpt>
      <trkpt lat="43.46661" lon="3.82025">
        <ele>52</ele>
        <time>2016-04-17T14:31:56.970Z</time>
      </trkpt>
      <trkpt lat="43.46664" lon="3.82029">
        <ele>51</ele>
        <time>2016-04-17T14:31:57.939Z</time>
      </trkpt>
      <trkpt lat="43.46667" lon="3.82038">
        <ele>47</ele>
        <time>2016-04-17T14:31:59.975Z</time>
      </trkpt>
      <trkpt lat="43.4667" lon="3.82041">
        <ele>47</ele>
        <time>2016-04-17T14:32:00.938Z</time>
      </trkpt>
      <trkpt lat="43.46676" lon="3.82049">
        <ele>47</ele>
        <time>2016-04-17T14:32:03.971Z</time>
      </trkpt>
      <trkpt lat="43.46679" lon="3.82052">
        <ele>48</ele>
        <time>2016-04-17T14:32:04.937Z</time>
      </trkpt>
      <trkpt lat="43.46685" lon="3.82057">
        <ele>49</ele>
        <time>2016-04-17T14:32:06.964Z</time>
      </trkpt>
      <trkpt lat="43.46689" lon="3.82059">
        <ele>49</ele>
        <time>2016-04-17T14:32:07.938Z</time>
      </trkpt>
      <trkpt lat="43.46694" lon="3.82065">
        <ele>49</ele>
        <time>2016-04-17T14:32:09.967Z</time>
      </trkpt>
      <trkpt lat="43.46696" lon="3.82069">
        <ele>49</ele>
        <time>2016-04-17T14:32:10.964Z</time>
      </trkpt>
      <trkpt lat="43.46703" lon="3.82076">
        <ele>50</ele>
        <time>2016-04-17T14:32:12.967Z</time>
      </trkpt>
      <trkpt lat="43.46706" lon="3.82079">
        <ele>50</ele>
        <time>2016-04-17T14:32:13.939Z</time>
      </trkpt>
      <trkpt lat="43.46711" lon="3.82082">
        <ele>50</ele>
        <time>2016-04-17T14:32:15.969Z</time>
      </trkpt>
      <trkpt lat="43.46715" lon="3.82084">
        <ele>50</ele>
        <time>2016-04-17T14:32:16.941Z</time>
      </trkpt>
      <trkpt lat="43.46721" lon="3.82089">
        <ele>51</ele>
        <time>2016-04-17T14:32:18.967Z</time>
      </trkpt>
      <trkpt lat="43.46724" lon="3.82094">
        <ele>50</ele>
        <time>2016-04-17T14:32:19.940Z</time>
      </trkpt>
      <trkpt lat="43.46731" lon="3.82099">
        <ele>52</ele>
        <time>2016-04-17T14:32:21.969Z</time>
      </trkpt>
      <trkpt lat="43.46735" lon="3.82102">
        <ele>52</ele>
        <time>2016-04-17T14:32:22.937Z</time>
      </trkpt>
      <trkpt lat="43.4674" lon="3.82107">
        <ele>53</ele>
        <time>2016-04-17T14:32:24.967Z</time>
      </trkpt>
      <trkpt lat="43.46744" lon="3.82111">
        <ele>55</ele>
        <time>2016-04-17T14:32:25.939Z</time>
      </trkpt>
      <trkpt lat="43.4675" lon="3.82117">
        <ele>54</ele>
        <time>2016-04-17T14:32:27.967Z</time>
      </trkpt>
      <trkpt lat="43.46753" lon="3.8212">
        <ele>54</ele>
        <time>2016-04-17T14:32:28.941Z</time>
      </trkpt>
      <trkpt lat="43.46758" lon="3.82127">
        <ele>52</ele>
        <time>2016-04-17T14:32:30.967Z</time>
      </trkpt>
      <trkpt lat="43.46761" lon="3.82129">
        <ele>52</ele>
        <time>2016-04-17T14:32:31.939Z</time>
      </trkpt>
      <trkpt lat="43.46766" lon="3.82132">
        <ele>51</ele>
        <time>2016-04-17T14:32:33.970Z</time>
      </trkpt>
      <trkpt lat="43.4677" lon="3.82138">
        <ele>50</ele>
        <time>2016-04-17T14:32:34.939Z</time>
      </trkpt>
      <trkpt lat="43.46776" lon="3.82142">
        <ele>51</ele>
        <time>2016-04-17T14:32:36.968Z</time>
      </trkpt>
      <trkpt lat="43.46779" lon="3.82145">
        <ele>51</ele>
        <time>2016-04-17T14:32:37.940Z</time>
      </trkpt>
      <trkpt lat="43.46787" lon="3.8215">
        <ele>52</ele>
        <time>2016-04-17T14:32:40.967Z</time>
      </trkpt>
      <trkpt lat="43.46789" lon="3.82156">
        <ele>51</ele>
        <time>2016-04-17T14:32:41.940Z</time>
      </trkpt>
      <trkpt lat="43.46795" lon="3.82164">
        <ele>53</ele>
        <time>2016-04-17T14:32:43.968Z</time>
      </trkpt>
      <trkpt lat="43.46798" lon="3.82167">
        <ele>53</ele>
        <time>2016-04-17T14:32:44.939Z</time>
      </trkpt>
      <trkpt lat="43.46803" lon="3.82172">
        <ele>54</ele>
        <time>2016-04-17T14:32:46.971Z</time>
      </trkpt>
      <trkpt lat="43.46806" lon="3.82175">
        <ele>54</ele>
        <time>2016-04-17T14:32:47.939Z</time>
      </trkpt>
      <trkpt lat="43.4681" lon="3.82182">
        <ele>54</ele>
        <time>2016-04-17T14:32:49.967Z</time>
      </trkpt>
      <trkpt lat="43.46814" lon="3.82185">
        <ele>55</ele>
        <time>2016-04-17T14:32:50.939Z</time>
      </trkpt>
      <trkpt lat="43.46818" lon="3.82195">
        <ele>51</ele>
        <time>2016-04-17T14:32:51.967Z</time>
      </trkpt>
      <trkpt lat="43.46821" lon="3.82199">
        <ele>50</ele>
        <time>2016-04-17T14:32:52.939Z</time>
      </trkpt>
      <trkpt lat="43.46826" lon="3.82204">
        <ele>51</ele>
        <time>2016-04-17T14:32:54.964Z</time>
      </trkpt>
      <trkpt lat="43.46829" lon="3.82207">
        <ele>52</ele>
        <time>2016-04-17T14:32:55.940Z</time>
      </trkpt>
      <trkpt lat="43.46836" lon="3.82213">
        <ele>50</ele>
        <time>2016-04-17T14:32:57.967Z</time>
      </trkpt>
      <trkpt lat="43.46839" lon="3.82216">
        <ele>51</ele>
        <time>2016-04-17T14:32:58.937Z</time>
      </trkpt>
      <trkpt lat="43.46844" lon="3.82221">
        <ele>52</ele>
        <time>2016-04-17T14:33:00.973Z</time>
      </trkpt>
      <trkpt lat="43.46847" lon="3.82224">
        <ele>53</ele>
        <time>2016-04-17T14:33:01.941Z</time>
      </trkpt>
      <trkpt lat="43.46855" lon="3.82228">
        <ele>53</ele>
        <time>2016-04-17T14:33:03.987Z</time>
      </trkpt>
      <trkpt lat="43.46857" lon="3.8223">
        <ele>53</ele>
        <time>2016-04-17T14:33:04.939Z</time>
      </trkpt>
      <trkpt lat="43.46863" lon="3.82237">
        <ele>51</ele>
        <time>2016-04-17T14:33:06.970Z</time>
      </trkpt>
      <trkpt lat="43.46867" lon="3.82241">
        <ele>51</ele>
        <time>2016-04-17T14:33:07.938Z</time>
      </trkpt>
      <trkpt lat="43.46872" lon="3.82246">
        <ele>50</ele>
        <time>2016-04-17T14:33:09.967Z</time>
      </trkpt>
      <trkpt lat="43.46875" lon="3.82249">
        <ele>50</ele>
        <time>2016-04-17T14:33:10.936Z</time>
      </trkpt>
      <trkpt lat="43.46881" lon="3.82254">
        <ele>51</ele>
        <time>2016-04-17T14:33:12.967Z</time>
      </trkpt>
      <trkpt lat="43.46883" lon="3.82258">
        <ele>51</ele>
        <time>2016-04-17T14:33:13.940Z</time>
      </trkpt>
      <trkpt lat="43.46891" lon="3.82265">
        <ele>51</ele>
        <time>2016-04-17T14:33:16.969Z</time>
      </trkpt>
      <trkpt lat="43.46894" lon="3.8227">
        <ele>52</ele>
        <time>2016-04-17T14:33:17.939Z</time>
      </trkpt>
      <trkpt lat="43.469" lon="3.82275">
        <ele>52</ele>
        <time>2016-04-17T14:33:19.966Z</time>
      </trkpt>
      <trkpt lat="43.46903" lon="3.82279">
        <ele>52</ele>
        <time>2016-04-17T14:33:20.940Z</time>
      </trkpt>
      <trkpt lat="43.46909" lon="3.82286">
        <ele>52</ele>
        <time>2016-04-17T14:33:22.968Z</time>
      </trkpt>
      <trkpt lat="43.46912" lon="3.82289">
        <ele>52</ele>
        <time>2016-04-17T14:33:23.939Z</time>
      </trkpt>
      <trkpt lat="43.46919" lon="3.82296">
        <ele>52</ele>
        <time>2016-04-17T14:33:25.968Z</time>
      </trkpt>
      <trkpt lat="43.46922" lon="3.823">
        <ele>53</ele>
        <time>2016-04-17T14:33:26.937Z</time>
      </trkpt>
      <trkpt lat="43.46927" lon="3.82307">
        <ele>55</ele>
        <time>2016-04-17T14:33:28.966Z</time>
      </trkpt>
      <trkpt lat="43.4693" lon="3.82312">
        <ele>53</ele>
        <time>2016-04-17T14:33:29.938Z</time>
      </trkpt>
      <trkpt lat="43.46935" lon="3.82317">
        <ele>52</ele>
        <time>2016-04-17T14:33:31.971Z</time>
      </trkpt>
      <trkpt lat="43.46937" lon="3.8232">
        <ele>52</ele>
        <time>2016-04-17T14:33:32.939Z</time>
      </trkpt>
      <trkpt lat="43.46944" lon="3.82325">
        <ele>54</ele>
        <time>2016-04-17T14:33:34.967Z</time>
      </trkpt>
      <trkpt lat="43.46947" lon="3.82328">
        <ele>54</ele>
        <time>2016-04-17T14:33:35.939Z</time>
      </trkpt>
      <trkpt lat="43.46953" lon="3.82336">
        <ele>54</ele>
        <time>2016-04-17T14:33:37.970Z</time>
      </trkpt>
      <trkpt lat="43.46957" lon="3.82337">
        <ele>55</ele>
        <time>2016-04-17T14:33:38.939Z</time>
      </trkpt>
      <trkpt lat="43.46964" lon="3.82343">
        <ele>54</ele>
        <time>2016-04-17T14:33:40.987Z</time>
      </trkpt>
      <trkpt lat="43.46967" lon="3.82346">
        <ele>54</ele>
        <time>2016-04-17T14:33:41.939Z</time>
      </trkpt>
      <trkpt lat="43.46973" lon="3.82352">
        <ele>54</ele>
        <time>2016-04-17T14:33:43.968Z</time>
      </trkpt>
      <trkpt lat="43.46978" lon="3.82355">
        <ele>54</ele>
        <time>2016-04-17T14:33:44.938Z</time>
      </trkpt>
      <trkpt lat="43.46982" lon="3.82362">
        <ele>53</ele>
        <time>2016-04-17T14:33:46.969Z</time>
      </trkpt>
      <trkpt lat="43.46986" lon="3.82366">
        <ele>53</ele>
        <time>2016-04-17T14:33:47.940Z</time>
      </trkpt>
      <trkpt lat="43.46992" lon="3.82373">
        <ele>54</ele>
        <time>2016-04-17T14:33:49.969Z</time>
      </trkpt>
      <trkpt lat="43.46995" lon="3.82377">
        <ele>53</ele>
        <time>2016-04-17T14:33:50.938Z</time>
      </trkpt>
      <trkpt lat="43.47" lon="3.82379">
        <ele>53</ele>
        <time>2016-04-17T14:33:51.968Z</time>
      </trkpt>
      <trkpt lat="43.47003" lon="3.82385">
        <ele>52</ele>
        <time>2016-04-17T14:33:52.939Z</time>
      </trkpt>
      <trkpt lat="43.47006" lon="3.8239">
        <ele>50</ele>
        <time>2016-04-17T14:33:53.968Z</time>
      </trkpt>
      <trkpt lat="43.4701" lon="3.82393">
        <ele>50</ele>
        <time>2016-04-17T14:33:54.938Z</time>
      </trkpt>
      <trkpt lat="43.47016" lon="3.82401">
        <ele>49</ele>
        <time>2016-04-17T14:33:56.969Z</time>
      </trkpt>
      <trkpt lat="43.47019" lon="3.82405">
        <ele>48</ele>
        <time>2016-04-17T14:33:57.939Z</time>
      </trkpt>
      <trkpt lat="43.47025" lon="3.82413">
        <ele>48</ele>
        <time>2016-04-17T14:33:59.972Z</time>
      </trkpt>
      <trkpt lat="43.47028" lon="3.82417">
        <ele>47</ele>
        <time>2016-04-17T14:34:00.941Z</time>
      </trkpt>
      <trkpt lat="43.47034" lon="3.82422">
        <ele>47</ele>
        <time>2016-04-17T14:34:02.970Z</time>
      </trkpt>
      <trkpt lat="43.47038" lon="3.82425">
        <ele>47</ele>
        <time>2016-04-17T14:34:03.939Z</time>
      </trkpt>
      <trkpt lat="43.47041" lon="3.82428">
        <ele>47</ele>
        <time>2016-04-17T14:34:04.967Z</time>
      </trkpt>
      <trkpt lat="43.47045" lon="3.82433">
        <ele>48</ele>
        <time>2016-04-17T14:34:05.941Z</time>
      </trkpt>
      <trkpt lat="43.4705" lon="3.8244">
        <ele>49</ele>
        <time>2016-04-17T14:34:07.967Z</time>
      </trkpt>
      <trkpt lat="43.47052" lon="3.82443">
        <ele>49</ele>
        <time>2016-04-17T14:34:08.940Z</time>
      </trkpt>
      <trkpt lat="43.47055" lon="3.82446">
        <ele>49</ele>
        <time>2016-04-17T14:34:09.967Z</time>
      </trkpt>
      <trkpt lat="43.47061" lon="3.8245">
        <ele>50</ele>
        <time>2016-04-17T14:34:10.938Z</time>
      </trkpt>
      <trkpt lat="43.47065" lon="3.82452">
        <ele>51</ele>
        <time>2016-04-17T14:34:11.969Z</time>
      </trkpt>
      <trkpt lat="43.47068" lon="3.82457">
        <ele>49</ele>
        <time>2016-04-17T14:34:12.938Z</time>
      </trkpt>
      <trkpt lat="43.47073" lon="3.82465">
        <ele>48</ele>
        <time>2016-04-17T14:34:14.960Z</time>
      </trkpt>
      <trkpt lat="43.47076" lon="3.82467">
        <ele>48</ele>
        <time>2016-04-17T14:34:15.939Z</time>
      </trkpt>
      <trkpt lat="43.47081" lon="3.82474">
        <ele>49</ele>
        <time>2016-04-17T14:34:17.993Z</time>
      </trkpt>
      <trkpt lat="43.47085" lon="3.82478">
        <ele>50</ele>
        <time>2016-04-17T14:34:18.938Z</time>
      </trkpt>
      <trkpt lat="43.47088" lon="3.82482">
        <ele>50</ele>
        <time>2016-04-17T14:34:19.967Z</time>
      </trkpt>
      <trkpt lat="43.47092" lon="3.82485">
        <ele>51</ele>
        <time>2016-04-17T14:34:20.938Z</time>
      </trkpt>
      <trkpt lat="43.47097" lon="3.82492">
        <ele>51</ele>
        <time>2016-04-17T14:34:21.970Z</time>
      </trkpt>
      <trkpt lat="43.47101" lon="3.82495">
        <ele>51</ele>
        <time>2016-04-17T14:34:22.939Z</time>
      </trkpt>
      <trkpt lat="43.47106" lon="3.82502">
        <ele>51</ele>
        <time>2016-04-17T14:34:24.967Z</time>
      </trkpt>
      <trkpt lat="43.47109" lon="3.82504">
        <ele>52</ele>
        <time>2016-04-17T14:34:25.938Z</time>
      </trkpt>
      <trkpt lat="43.47115" lon="3.82512">
        <ele>51</ele>
        <time>2016-04-17T14:34:27.967Z</time>
      </trkpt>
      <trkpt lat="43.47119" lon="3.82515">
        <ele>51</ele>
        <time>2016-04-17T14:34:28.939Z</time>
      </trkpt>
      <trkpt lat="43.47126" lon="3.82521">
        <ele>49</ele>
        <time>2016-04-17T14:34:31.096Z</time>
      </trkpt>
      <trkpt lat="43.4713" lon="3.82524">
        <ele>48</ele>
        <time>2016-04-17T14:34:31.940Z</time>
      </trkpt>
      <trkpt lat="43.47136" lon="3.8253">
        <ele>50</ele>
        <time>2016-04-17T14:34:33.992Z</time>
      </trkpt>
      <trkpt lat="43.47139" lon="3.82535">
        <ele>50</ele>
        <time>2016-04-17T14:34:34.940Z</time>
      </trkpt>
      <trkpt lat="43.47146" lon="3.82544">
        <ele>51</ele>
        <time>2016-04-17T14:34:36.969Z</time>
      </trkpt>
      <trkpt lat="43.47149" lon="3.82548">
        <ele>52</ele>
        <time>2016-04-17T14:34:37.939Z</time>
      </trkpt>
      <trkpt lat="43.47153" lon="3.82557">
        <ele>50</ele>
        <time>2016-04-17T14:34:39.968Z</time>
      </trkpt>
      <trkpt lat="43.47154" lon="3.82561">
        <ele>48</ele>
        <time>2016-04-17T14:34:40.940Z</time>
      </trkpt>
      <trkpt lat="43.47161" lon="3.82568">
        <ele>47</ele>
        <time>2016-04-17T14:34:42.967Z</time>
      </trkpt>
      <trkpt lat="43.47164" lon="3.82571">
        <ele>48</ele>
        <time>2016-04-17T14:34:43.939Z</time>
      </trkpt>
      <trkpt lat="43.47172" lon="3.82577">
        <ele>48</ele>
        <time>2016-04-17T14:34:45.968Z</time>
      </trkpt>
      <trkpt lat="43.47176" lon="3.82582">
        <ele>49</ele>
        <time>2016-04-17T14:34:46.938Z</time>
      </trkpt>
      <trkpt lat="43.4718" lon="3.82586">
        <ele>51</ele>
        <time>2016-04-17T14:34:47.968Z</time>
      </trkpt>
      <trkpt lat="43.47183" lon="3.82589">
        <ele>51</ele>
        <time>2016-04-17T14:34:48.940Z</time>
      </trkpt>
      <trkpt lat="43.47189" lon="3.82597">
        <ele>51</ele>
        <time>2016-04-17T14:34:50.968Z</time>
      </trkpt>
      <trkpt lat="43.47192" lon="3.82601">
        <ele>51</ele>
        <time>2016-04-17T14:34:51.940Z</time>
      </trkpt>
      <trkpt lat="43.47199" lon="3.82607">
        <ele>52</ele>
        <time>2016-04-17T14:34:53.967Z</time>
      </trkpt>
      <trkpt lat="43.47202" lon="3.82612">
        <ele>51</ele>
        <time>2016-04-17T14:34:54.964Z</time>
      </trkpt>
      <trkpt lat="43.47206" lon="3.82617">
        <ele>52</ele>
        <time>2016-04-17T14:34:55.968Z</time>
      </trkpt>
      <trkpt lat="43.4721" lon="3.82621">
        <ele>52</ele>
        <time>2016-04-17T14:34:56.939Z</time>
      </trkpt>
      <trkpt lat="43.47217" lon="3.82626">
        <ele>51</ele>
        <time>2016-04-17T14:34:58.972Z</time>
      </trkpt>
      <trkpt lat="43.47221" lon="3.8263">
        <ele>51</ele>
        <time>2016-04-17T14:34:59.941Z</time>
      </trkpt>
      <trkpt lat="43.47228" lon="3.82637">
        <ele>52</ele>
        <time>2016-04-17T14:35:01.970Z</time>
      </trkpt>
      <trkpt lat="43.47232" lon="3.82643">
        <ele>50</ele>
        <time>2016-04-17T14:35:02.939Z</time>
      </trkpt>
      <trkpt lat="43.47238" lon="3.8265">
        <ele>50</ele>
        <time>2016-04-17T14:35:04.959Z</time>
      </trkpt>
      <trkpt lat="43.47241" lon="3.82652">
        <ele>51</ele>
        <time>2016-04-17T14:35:05.939Z</time>
      </trkpt>
      <trkpt lat="43.47245" lon="3.82655">
        <ele>51</ele>
        <time>2016-04-17T14:35:07.102Z</time>
      </trkpt>
      <trkpt lat="43.47248" lon="3.82658">
        <ele>52</ele>
        <time>2016-04-17T14:35:07.940Z</time>
      </trkpt>
      <trkpt lat="43.47253" lon="3.82666">
        <ele>50</ele>
        <time>2016-04-17T14:35:09.966Z</time>
      </trkpt>
      <trkpt lat="43.47256" lon="3.8267">
        <ele>50</ele>
        <time>2016-04-17T14:35:10.966Z</time>
      </trkpt>
      <trkpt lat="43.47264" lon="3.82675">
        <ele>48</ele>
        <time>2016-04-17T14:35:12.968Z</time>
      </trkpt>
      <trkpt lat="43.47267" lon="3.82679">
        <ele>49</ele>
        <time>2016-04-17T14:35:13.940Z</time>
      </trkpt>
      <trkpt lat="43.4727" lon="3.82682">
        <ele>49</ele>
        <time>2016-04-17T14:35:14.967Z</time>
      </trkpt>
      <trkpt lat="43.47274" lon="3.82685">
        <ele>50</ele>
        <time>2016-04-17T14:35:15.939Z</time>
      </trkpt>
      <trkpt lat="43.47281" lon="3.82692">
        <ele>48</ele>
        <time>2016-04-17T14:35:17.969Z</time>
      </trkpt>
      <trkpt lat="43.47285" lon="3.82694">
        <ele>49</ele>
        <time>2016-04-17T14:35:18.938Z</time>
      </trkpt>
      <trkpt lat="43.47292" lon="3.827">
        <ele>50</ele>
        <time>2016-04-17T14:35:20.974Z</time>
      </trkpt>
      <trkpt lat="43.47295" lon="3.82704">
        <ele>48</ele>
        <time>2016-04-17T14:35:21.940Z</time>
      </trkpt>
      <trkpt lat="43.47301" lon="3.82707">
        <ele>50</ele>
        <time>2016-04-17T14:35:23.969Z</time>
      </trkpt>
      <trkpt lat="43.47305" lon="3.8271">
        <ele>51</ele>
        <time>2016-04-17T14:35:24.940Z</time>
      </trkpt>
      <trkpt lat="43.47312" lon="3.82716">
        <ele>53</ele>
        <time>2016-04-17T14:35:26.989Z</time>
      </trkpt>
      <trkpt lat="43.47315" lon="3.8272">
        <ele>52</ele>
        <time>2016-04-17T14:35:27.940Z</time>
      </trkpt>
      <trkpt lat="43.47321" lon="3.82728">
        <ele>54</ele>
        <time>2016-04-17T14:35:29.969Z</time>
      </trkpt>
      <trkpt lat="43.47324" lon="3.82732">
        <ele>54</ele>
        <time>2016-04-17T14:35:30.938Z</time>
      </trkpt>
      <trkpt lat="43.47329" lon="3.82738">
        <ele>55</ele>
        <time>2016-04-17T14:35:32.968Z</time>
      </trkpt>
      <trkpt lat="43.47332" lon="3.82741">
        <ele>53</ele>
        <time>2016-04-17T14:35:33.940Z</time>
      </trkpt>
      <trkpt lat="43.47339" lon="3.82748">
        <ele>52</ele>
        <time>2016-04-17T14:35:35.970Z</time>
      </trkpt>
      <trkpt lat="43.47341" lon="3.8275">
        <ele>52</ele>
        <time>2016-04-17T14:35:36.939Z</time>
      </trkpt>
      <trkpt lat="43.47347" lon="3.82757">
        <ele>52</ele>
        <time>2016-04-17T14:35:38.970Z</time>
      </trkpt>
      <trkpt lat="43.47349" lon="3.82762">
        <ele>51</ele>
        <time>2016-04-17T14:35:39.940Z</time>
      </trkpt>
      <trkpt lat="43.47355" lon="3.82769">
        <ele>51</ele>
        <time>2016-04-17T14:35:41.973Z</time>
      </trkpt>
      <trkpt lat="43.47358" lon="3.82774">
        <ele>51</ele>
        <time>2016-04-17T14:35:42.965Z</time>
      </trkpt>
      <trkpt lat="43.47363" lon="3.82782">
        <ele>49</ele>
        <time>2016-04-17T14:35:45.055Z</time>
      </trkpt>
      <trkpt lat="43.47366" lon="3.82785">
        <ele>48</ele>
        <time>2016-04-17T14:35:45.961Z</time>
      </trkpt>
      <trkpt lat="43.47372" lon="3.8279">
        <ele>48</ele>
        <time>2016-04-17T14:35:47.970Z</time>
      </trkpt>
      <trkpt lat="43.47375" lon="3.82794">
        <ele>48</ele>
        <time>2016-04-17T14:35:48.941Z</time>
      </trkpt>
      <trkpt lat="43.47381" lon="3.82801">
        <ele>49</ele>
        <time>2016-04-17T14:35:50.963Z</time>
      </trkpt>
      <trkpt lat="43.47383" lon="3.82805">
        <ele>48</ele>
        <time>2016-04-17T14:35:51.938Z</time>
      </trkpt>
      <trkpt lat="43.4739" lon="3.82814">
        <ele>49</ele>
        <time>2016-04-17T14:35:53.969Z</time>
      </trkpt>
      <trkpt lat="43.47393" lon="3.82817">
        <ele>49</ele>
        <time>2016-04-17T14:35:54.939Z</time>
      </trkpt>
      <trkpt lat="43.47399" lon="3.82824">
        <ele>49</ele>
        <time>2016-04-17T14:35:56.973Z</time>
      </trkpt>
      <trkpt lat="43.47402" lon="3.82825">
        <ele>48</ele>
        <time>2016-04-17T14:35:57.942Z</time>
      </trkpt>
      <trkpt lat="43.47407" lon="3.82831">
        <ele>48</ele>
        <time>2016-04-17T14:35:59.969Z</time>
      </trkpt>
      <trkpt lat="43.47411" lon="3.82833">
        <ele>48</ele>
        <time>2016-04-17T14:36:00.940Z</time>
      </trkpt>
      <trkpt lat="43.47416" lon="3.8284">
        <ele>49</ele>
        <time>2016-04-17T14:36:02.968Z</time>
      </trkpt>
      <trkpt lat="43.47419" lon="3.82844">
        <ele>49</ele>
        <time>2016-04-17T14:36:03.943Z</time>
      </trkpt>
      <trkpt lat="43.47424" lon="3.82849">
        <ele>49</ele>
        <time>2016-04-17T14:36:05.969Z</time>
      </trkpt>
      <trkpt lat="43.47426" lon="3.82853">
        <ele>49</ele>
        <time>2016-04-17T14:36:06.939Z</time>
      </trkpt>
      <trkpt lat="43.47433" lon="3.8286">
        <ele>48</ele>
        <time>2016-04-17T14:36:10.090Z</time>
      </trkpt>
      <trkpt lat="43.47434" lon="3.82863">
        <ele>46</ele>
        <time>2016-04-17T14:36:10.940Z</time>
      </trkpt>
      <trkpt lat="43.47437" lon="3.82874">
        <ele>47</ele>
        <time>2016-04-17T14:36:13.967Z</time>
      </trkpt>
      <trkpt lat="43.47438" lon="3.82877">
        <ele>46</ele>
        <time>2016-04-17T14:36:14.964Z</time>
      </trkpt>
      <trkpt lat="43.47434" lon="3.82885">
        <ele>47</ele>
        <time>2016-04-17T14:36:24.100Z</time>
      </trkpt>
      <trkpt lat="43.47434" lon="3.82885">
        <ele>46</ele>
        <time>2016-04-17T14:36:24.941Z</time>
      </trkpt>
      <trkpt lat="43.47435" lon="3.82886">
        <ele>46</ele>
        <time>2016-04-17T14:36:25.968Z</time>
      </trkpt>
      <trkpt lat="43.47435" lon="3.82885">
        <ele>47</ele>
        <time>2016-04-17T14:36:26.939Z</time>
      </trkpt>
      <trkpt lat="43.47437" lon="3.82883">
        <ele>46</ele>
        <time>2016-04-17T14:36:31.970Z</time>
      </trkpt>
      <trkpt lat="43.47438" lon="3.82883">
        <ele>45</ele>
        <time>2016-04-17T14:36:32.939Z</time>
      </trkpt>
      <trkpt lat="43.47438" lon="3.82883">
        <ele>45</ele>
        <time>2016-04-17T14:36:32.978Z</time>
      </trkpt>
      <trkpt lat="43.47438" lon="3.82882">
        <ele>46</ele>
        <time>2016-04-17T14:36:33.940Z</time>
      </trkpt>
      <trkpt lat="43.47446" lon="3.8288">
        <ele>47</ele>
        <time>2016-04-17T14:36:38.966Z</time>
      </trkpt>
      <trkpt lat="43.47448" lon="3.8288">
        <ele>47</ele>
        <time>2016-04-17T14:36:39.942Z</time>
      </trkpt>
      <trkpt lat="43.4745" lon="3.82876">
        <ele>50</ele>
        <time>2016-04-17T14:36:45.969Z</time>
      </trkpt>
      <trkpt lat="43.47449" lon="3.82876">
        <ele>49</ele>
        <time>2016-04-17T14:36:46.966Z</time>
      </trkpt>
      <trkpt lat="43.4745" lon="3.82876">
        <ele>49</ele>
        <time>2016-04-17T14:36:50.967Z</time>
      </trkpt>
      <trkpt lat="43.4745" lon="3.82877">
        <ele>48</ele>
        <time>2016-04-17T14:36:51.941Z</time>
      </trkpt>
      <trkpt lat="43.47457" lon="3.82884">
        <ele>49</ele>
        <time>2016-04-17T14:37:01.974Z</time>
      </trkpt>
      <trkpt lat="43.47458" lon="3.82885">
        <ele>48</ele>
        <time>2016-04-17T14:37:02.971Z</time>
      </trkpt>
      <trkpt lat="43.47466" lon="3.82891">
        <ele>48</ele>
        <time>2016-04-17T14:37:11.970Z</time>
      </trkpt>
      <trkpt lat="43.47467" lon="3.82893">
        <ele>48</ele>
        <time>2016-04-17T14:37:12.938Z</time>
      </trkpt>
      <trkpt lat="43.47473" lon="3.82899">
        <ele>48</ele>
        <time>2016-04-17T14:37:15.968Z</time>
      </trkpt>
      <trkpt lat="43.47476" lon="3.82902">
        <ele>49</ele>
        <time>2016-04-17T14:37:16.939Z</time>
      </trkpt>
      <trkpt lat="43.47482" lon="3.82908">
        <ele>48</ele>
        <time>2016-04-17T14:37:19.969Z</time>
      </trkpt>
      <trkpt lat="43.47483" lon="3.8291">
        <ele>48</ele>
        <time>2016-04-17T14:37:20.940Z</time>
      </trkpt>
      <trkpt lat="43.47489" lon="3.82918">
        <ele>48</ele>
        <time>2016-04-17T14:37:24.967Z</time>
      </trkpt>
      <trkpt lat="43.47491" lon="3.82921">
        <ele>47</ele>
        <time>2016-04-17T14:37:25.940Z</time>
      </trkpt>
      <trkpt lat="43.47497" lon="3.82929">
        <ele>47</ele>
        <time>2016-04-17T14:37:29.994Z</time>
      </trkpt>
      <trkpt lat="43.47499" lon="3.82932">
        <ele>48</ele>
        <time>2016-04-17T14:37:30.939Z</time>
      </trkpt>
      <trkpt lat="43.47505" lon="3.82937">
        <ele>48</ele>
        <time>2016-04-17T14:37:33.970Z</time>
      </trkpt>
      <trkpt lat="43.47507" lon="3.82939">
        <ele>48</ele>
        <time>2016-04-17T14:37:34.940Z</time>
      </trkpt>
      <trkpt lat="43.47513" lon="3.82946">
        <ele>46</ele>
        <time>2016-04-17T14:37:37.968Z</time>
      </trkpt>
      <trkpt lat="43.47515" lon="3.82948">
        <ele>46</ele>
        <time>2016-04-17T14:37:38.940Z</time>
      </trkpt>
      <trkpt lat="43.47522" lon="3.82956">
        <ele>45</ele>
        <time>2016-04-17T14:37:41.968Z</time>
      </trkpt>
      <trkpt lat="43.47525" lon="3.82958">
        <ele>44</ele>
        <time>2016-04-17T14:37:42.938Z</time>
      </trkpt>
      <trkpt lat="43.47533" lon="3.82963">
        <ele>42</ele>
        <time>2016-04-17T14:37:45.991Z</time>
      </trkpt>
      <trkpt lat="43.47535" lon="3.82966">
        <ele>44</ele>
        <time>2016-04-17T14:37:46.939Z</time>
      </trkpt>
      <trkpt lat="43.4754" lon="3.82972">
        <ele>45</ele>
        <time>2016-04-17T14:37:49.968Z</time>
      </trkpt>
      <trkpt lat="43.47541" lon="3.82974">
        <ele>45</ele>
        <time>2016-04-17T14:37:50.939Z</time>
      </trkpt>
      <trkpt lat="43.47548" lon="3.82981">
        <ele>46</ele>
        <time>2016-04-17T14:37:55.062Z</time>
      </trkpt>
      <trkpt lat="43.47551" lon="3.82982">
        <ele>45</ele>
        <time>2016-04-17T14:37:55.940Z</time>
      </trkpt>
      <trkpt lat="43.47556" lon="3.82989">
        <ele>46</ele>
        <time>2016-04-17T14:37:58.963Z</time>
      </trkpt>
      <trkpt lat="43.47559" lon="3.82991">
        <ele>45</ele>
        <time>2016-04-17T14:37:59.939Z</time>
      </trkpt>
      <trkpt lat="43.47563" lon="3.82997">
        <ele>46</ele>
        <time>2016-04-17T14:38:02.973Z</time>
      </trkpt>
      <trkpt lat="43.47566" lon="3.83001">
        <ele>46</ele>
        <time>2016-04-17T14:38:03.941Z</time>
      </trkpt>
      <trkpt lat="43.47572" lon="3.83008">
        <ele>49</ele>
        <time>2016-04-17T14:38:07.969Z</time>
      </trkpt>
      <trkpt lat="43.47573" lon="3.8301">
        <ele>49</ele>
        <time>2016-04-17T14:38:08.941Z</time>
      </trkpt>
      <trkpt lat="43.47579" lon="3.83017">
        <ele>48</ele>
        <time>2016-04-17T14:38:12.972Z</time>
      </trkpt>
      <trkpt lat="43.4758" lon="3.8302">
        <ele>49</ele>
        <time>2016-04-17T14:38:13.941Z</time>
      </trkpt>
      <trkpt lat="43.47586" lon="3.83029">
        <ele>46</ele>
        <time>2016-04-17T14:38:17.994Z</time>
      </trkpt>
      <trkpt lat="43.47587" lon="3.8303">
        <ele>47</ele>
        <time>2016-04-17T14:38:18.939Z</time>
      </trkpt>
      <trkpt lat="43.47594" lon="3.83036">
        <ele>50</ele>
        <time>2016-04-17T14:38:22.988Z</time>
      </trkpt>
      <trkpt lat="43.47596" lon="3.83037">
        <ele>50</ele>
        <time>2016-04-17T14:38:23.942Z</time>
      </trkpt>
      <trkpt lat="43.47601" lon="3.83042">
        <ele>50</ele>
        <time>2016-04-17T14:38:26.968Z</time>
      </trkpt>
      <trkpt lat="43.47604" lon="3.83044">
        <ele>50</ele>
        <time>2016-04-17T14:38:27.939Z</time>
      </trkpt>
      <trkpt lat="43.4761" lon="3.83051">
        <ele>51</ele>
        <time>2016-04-17T14:38:30.990Z</time>
      </trkpt>
      <trkpt lat="43.47611" lon="3.83053">
        <ele>51</ele>
        <time>2016-04-17T14:38:31.940Z</time>
      </trkpt>
      <trkpt lat="43.47617" lon="3.8306">
        <ele>51</ele>
        <time>2016-04-17T14:38:34.970Z</time>
      </trkpt>
      <trkpt lat="43.47618" lon="3.83062">
        <ele>51</ele>
        <time>2016-04-17T14:38:35.939Z</time>
      </trkpt>
      <trkpt lat="43.47623" lon="3.83069">
        <ele>51</ele>
        <time>2016-04-17T14:38:39.970Z</time>
      </trkpt>
      <trkpt lat="43.47624" lon="3.83071">
        <ele>50</ele>
        <time>2016-04-17T14:38:40.942Z</time>
      </trkpt>
      <trkpt lat="43.47629" lon="3.83078">
        <ele>50</ele>
        <time>2016-04-17T14:38:43.968Z</time>
      </trkpt>
      <trkpt lat="43.47631" lon="3.83081">
        <ele>51</ele>
        <time>2016-04-17T14:38:44.940Z</time>
      </trkpt>
      <trkpt lat="43.47637" lon="3.83085">
        <ele>54</ele>
        <time>2016-04-17T14:38:47.971Z</time>
      </trkpt>
      <trkpt lat="43.47639" lon="3.83087">
        <ele>54</ele>
        <time>2016-04-17T14:38:48.939Z</time>
      </trkpt>
      <trkpt lat="43.47645" lon="3.83092">
        <ele>54</ele>
        <time>2016-04-17T14:38:52.969Z</time>
      </trkpt>
      <trkpt lat="43.47646" lon="3.83094">
        <ele>54</ele>
        <time>2016-04-17T14:38:53.941Z</time>
      </trkpt>
      <trkpt lat="43.47651" lon="3.83095">
        <ele>53</ele>
        <time>2016-04-17T14:38:57.969Z</time>
      </trkpt>
      <trkpt lat="43.47651" lon="3.83095">
        <ele>52</ele>
        <time>2016-04-17T14:38:58.939Z</time>
      </trkpt>
      <trkpt lat="43.47651" lon="3.83095">
        <ele>52</ele>
        <time>2016-04-17T14:38:58.982Z</time>
      </trkpt>
      <trkpt lat="43.4765" lon="3.83094">
        <ele>50</ele>
        <time>2016-04-17T14:38:59.939Z</time>
      </trkpt>
      <trkpt lat="43.47656" lon="3.83102">
        <ele>49</ele>
        <time>2016-04-17T14:39:05.969Z</time>
      </trkpt>
      <trkpt lat="43.47657" lon="3.83102">
        <ele>49</ele>
        <time>2016-04-17T14:39:06.941Z</time>
      </trkpt>
      <trkpt lat="43.47663" lon="3.83111">
        <ele>46</ele>
        <time>2016-04-17T14:39:10.970Z</time>
      </trkpt>
      <trkpt lat="43.47664" lon="3.83113">
        <ele>47</ele>
        <time>2016-04-17T14:39:11.940Z</time>
      </trkpt>
      <trkpt lat="43.47669" lon="3.8312">
        <ele>46</ele>
        <time>2016-04-17T14:39:14.968Z</time>
      </trkpt>
      <trkpt lat="43.47671" lon="3.83121">
        <ele>46</ele>
        <time>2016-04-17T14:39:15.939Z</time>
      </trkpt>
      <trkpt lat="43.47676" lon="3.83128">
        <ele>46</ele>
        <time>2016-04-17T14:39:17.969Z</time>
      </trkpt>
      <trkpt lat="43.47678" lon="3.83131">
        <ele>47</ele>
        <time>2016-04-17T14:39:18.938Z</time>
      </trkpt>
      <trkpt lat="43.47685" lon="3.83135">
        <ele>47</ele>
        <time>2016-04-17T14:39:21.974Z</time>
      </trkpt>
      <trkpt lat="43.47687" lon="3.83136">
        <ele>47</ele>
        <time>2016-04-17T14:39:22.942Z</time>
      </trkpt>
      <trkpt lat="43.47691" lon="3.83145">
        <ele>49</ele>
        <time>2016-04-17T14:39:25.968Z</time>
      </trkpt>
      <trkpt lat="43.47693" lon="3.83146">
        <ele>50</ele>
        <time>2016-04-17T14:39:26.939Z</time>
      </trkpt>
      <trkpt lat="43.47699" lon="3.83148">
        <ele>53</ele>
        <time>2016-04-17T14:39:30.969Z</time>
      </trkpt>
      <trkpt lat="43.47701" lon="3.83152">
        <ele>51</ele>
        <time>2016-04-17T14:39:31.941Z</time>
      </trkpt>
      <trkpt lat="43.47706" lon="3.8316">
        <ele>50</ele>
        <time>2016-04-17T14:39:34.964Z</time>
      </trkpt>
      <trkpt lat="43.47708" lon="3.83162">
        <ele>51</ele>
        <time>2016-04-17T14:39:35.940Z</time>
      </trkpt>
      <trkpt lat="43.47714" lon="3.83169">
        <ele>50</ele>
        <time>2016-04-17T14:39:38.968Z</time>
      </trkpt>
      <trkpt lat="43.47716" lon="3.83171">
        <ele>49</ele>
        <time>2016-04-17T14:39:39.938Z</time>
      </trkpt>
      <trkpt lat="43.47723" lon="3.83177">
        <ele>49</ele>
        <time>2016-04-17T14:39:42.984Z</time>
      </trkpt>
      <trkpt lat="43.47724" lon="3.83179">
        <ele>49</ele>
        <time>2016-04-17T14:39:43.940Z</time>
      </trkpt>
      <trkpt lat="43.4773" lon="3.83188">
        <ele>48</ele>
        <time>2016-04-17T14:39:49.969Z</time>
      </trkpt>
      <trkpt lat="43.47732" lon="3.83189">
        <ele>48</ele>
        <time>2016-04-17T14:39:50.938Z</time>
      </trkpt>
      <trkpt lat="43.47738" lon="3.83194">
        <ele>48</ele>
        <time>2016-04-17T14:39:53.969Z</time>
      </trkpt>
      <trkpt lat="43.4774" lon="3.83195">
        <ele>47</ele>
        <time>2016-04-17T14:39:54.939Z</time>
      </trkpt>
      <trkpt lat="43.47746" lon="3.83201">
        <ele>48</ele>
        <time>2016-04-17T14:39:57.972Z</time>
      </trkpt>
      <trkpt lat="43.47748" lon="3.83202">
        <ele>48</ele>
        <time>2016-04-17T14:39:58.941Z</time>
      </trkpt>
      <trkpt lat="43.47753" lon="3.83208">
        <ele>47</ele>
        <time>2016-04-17T14:40:01.967Z</time>
      </trkpt>
      <trkpt lat="43.47755" lon="3.8321">
        <ele>47</ele>
        <time>2016-04-17T14:40:02.940Z</time>
      </trkpt>
      <trkpt lat="43.47759" lon="3.83216">
        <ele>45</ele>
        <time>2016-04-17T14:40:05.969Z</time>
      </trkpt>
      <trkpt lat="43.47761" lon="3.8322">
        <ele>44</ele>
        <time>2016-04-17T14:40:06.939Z</time>
      </trkpt>
      <trkpt lat="43.47768" lon="3.83223">
        <ele>47</ele>
        <time>2016-04-17T14:40:13.968Z</time>
      </trkpt>
      <trkpt lat="43.4777" lon="3.83229">
        <ele>44</ele>
        <time>2016-04-17T14:40:14.940Z</time>
      </trkpt>
      <trkpt lat="43.47775" lon="3.83236">
        <ele>44</ele>
        <time>2016-04-17T14:40:19.972Z</time>
      </trkpt>
      <trkpt lat="43.47776" lon="3.83238">
        <ele>44</ele>
        <time>2016-04-17T14:40:20.939Z</time>
      </trkpt>
      <trkpt lat="43.47782" lon="3.83243">
        <ele>43</ele>
        <time>2016-04-17T14:40:24.972Z</time>
      </trkpt>
      <trkpt lat="43.47784" lon="3.83245">
        <ele>42</ele>
        <time>2016-04-17T14:40:25.972Z</time>
      </trkpt>
      <trkpt lat="43.4779" lon="3.83252">
        <ele>45</ele>
        <time>2016-04-17T14:40:30.972Z</time>
      </trkpt>
      <trkpt lat="43.47792" lon="3.83253">
        <ele>44</ele>
        <time>2016-04-17T14:40:31.942Z</time>
      </trkpt>
      <trkpt lat="43.47798" lon="3.83259">
        <ele>46</ele>
        <time>2016-04-17T14:40:35.969Z</time>
      </trkpt>
      <trkpt lat="43.478" lon="3.83261">
        <ele>46</ele>
        <time>2016-04-17T14:40:36.944Z</time>
      </trkpt>
      <trkpt lat="43.47806" lon="3.83268">
        <ele>44</ele>
        <time>2016-04-17T14:40:50.969Z</time>
      </trkpt>
      <trkpt lat="43.47807" lon="3.83269">
        <ele>44</ele>
        <time>2016-04-17T14:40:51.940Z</time>
      </trkpt>
      <trkpt lat="43.47813" lon="3.83274">
        <ele>44</ele>
        <time>2016-04-17T14:41:04.967Z</time>
      </trkpt>
      <trkpt lat="43.47814" lon="3.83276">
        <ele>45</ele>
        <time>2016-04-17T14:41:05.939Z</time>
      </trkpt>
      <trkpt lat="43.47821" lon="3.83283">
        <ele>45</ele>
        <time>2016-04-17T14:41:15.967Z</time>
      </trkpt>
      <trkpt lat="43.47822" lon="3.83285">
        <ele>45</ele>
        <time>2016-04-17T14:41:16.940Z</time>
      </trkpt>
      <trkpt lat="43.47827" lon="3.83293">
        <ele>46</ele>
        <time>2016-04-17T14:41:21.972Z</time>
      </trkpt>
      <trkpt lat="43.47828" lon="3.83294">
        <ele>47</ele>
        <time>2016-04-17T14:41:22.939Z</time>
      </trkpt>
      <trkpt lat="43.47833" lon="3.83294">
        <ele>49</ele>
        <time>2016-04-17T14:41:31.970Z</time>
      </trkpt>
      <trkpt lat="43.47833" lon="3.83295">
        <ele>50</ele>
        <time>2016-04-17T14:41:32.942Z</time>
      </trkpt>
      <trkpt lat="43.47833" lon="3.83295">
        <ele>49</ele>
        <time>2016-04-17T14:41:34.993Z</time>
      </trkpt>
      <trkpt lat="43.47834" lon="3.83295">
        <ele>49</ele>
        <time>2016-04-17T14:41:35.964Z</time>
      </trkpt>
      <trkpt lat="43.47839" lon="3.83302">
        <ele>50</ele>
        <time>2016-04-17T14:41:38.968Z</time>
      </trkpt>
      <trkpt lat="43.47841" lon="3.83304">
        <ele>50</ele>
        <time>2016-04-17T14:41:39.939Z</time>
      </trkpt>
      <trkpt lat="43.47846" lon="3.83311">
        <ele>51</ele>
        <time>2016-04-17T14:41:42.962Z</time>
      </trkpt>
      <trkpt lat="43.47848" lon="3.83312">
        <ele>51</ele>
        <time>2016-04-17T14:41:43.940Z</time>
      </trkpt>
      <trkpt lat="43.47854" lon="3.83319">
        <ele>50</ele>
        <time>2016-04-17T14:41:46.972Z</time>
      </trkpt>
      <trkpt lat="43.47856" lon="3.83321">
        <ele>49</ele>
        <time>2016-04-17T14:41:47.941Z</time>
      </trkpt>
      <trkpt lat="43.47862" lon="3.83326">
        <ele>46</ele>
        <time>2016-04-17T14:41:51.968Z</time>
      </trkpt>
      <trkpt lat="43.47864" lon="3.8333">
        <ele>46</ele>
        <time>2016-04-17T14:41:52.939Z</time>
      </trkpt>
      <trkpt lat="43.4787" lon="3.83338">
        <ele>45</ele>
        <time>2016-04-17T14:42:01.970Z</time>
      </trkpt>
      <trkpt lat="43.47872" lon="3.83339">
        <ele>46</ele>
        <time>2016-04-17T14:42:02.943Z</time>
      </trkpt>
      <trkpt lat="43.47878" lon="3.83346">
        <ele>43</ele>
        <time>2016-04-17T14:42:06.961Z</time>
      </trkpt>
      <trkpt lat="43.47879" lon="3.8335">
        <ele>43</ele>
        <time>2016-04-17T14:42:07.941Z</time>
      </trkpt>
      <trkpt lat="43.47886" lon="3.83356">
        <ele>45</ele>
        <time>2016-04-17T14:42:11.995Z</time>
      </trkpt>
      <trkpt lat="43.47887" lon="3.83357">
        <ele>45</ele>
        <time>2016-04-17T14:42:12.939Z</time>
      </trkpt>
      <trkpt lat="43.47891" lon="3.83361">
        <ele>45</ele>
        <time>2016-04-17T14:42:14.959Z</time>
      </trkpt>
      <trkpt lat="43.47897" lon="3.83373">
        <ele>44</ele>
        <time>2016-04-17T14:42:15.939Z</time>
      </trkpt>
      <trkpt lat="43.47905" lon="3.83374">
        <ele>46</ele>
        <time>2016-04-17T14:42:21.969Z</time>
      </trkpt>
      <trkpt lat="43.47906" lon="3.83376">
        <ele>48</ele>
        <time>2016-04-17T14:42:22.966Z</time>
      </trkpt>
      <trkpt lat="43.47912" lon="3.83382">
        <ele>50</ele>
        <time>2016-04-17T14:42:25.968Z</time>
      </trkpt>
      <trkpt lat="43.47914" lon="3.83383">
        <ele>50</ele>
        <time>2016-04-17T14:42:26.939Z</time>
      </trkpt>
      <trkpt lat="43.47918" lon="3.83393">
        <ele>51</ele>
        <time>2016-04-17T14:42:29.970Z</time>
      </trkpt>
      <trkpt lat="43.47921" lon="3.83395">
        <ele>51</ele>
        <time>2016-04-17T14:42:30.938Z</time>
      </trkpt>
      <trkpt lat="43.47928" lon="3.83394">
        <ele>50</ele>
        <time>2016-04-17T14:42:35.968Z</time>
      </trkpt>
      <trkpt lat="43.4793" lon="3.83396">
        <ele>51</ele>
        <time>2016-04-17T14:42:36.941Z</time>
      </trkpt>
      <trkpt lat="43.47935" lon="3.83403">
        <ele>54</ele>
        <time>2016-04-17T14:42:40.098Z</time>
      </trkpt>
      <trkpt lat="43.47937" lon="3.83405">
        <ele>54</ele>
        <time>2016-04-17T14:42:40.940Z</time>
      </trkpt>
      <trkpt lat="43.47944" lon="3.83412">
        <ele>55</ele>
        <time>2016-04-17T14:42:43.969Z</time>
      </trkpt>
      <trkpt lat="43.47946" lon="3.83414">
        <ele>55</ele>
        <time>2016-04-17T14:42:44.938Z</time>
      </trkpt>
      <trkpt lat="43.47951" lon="3.8342">
        <ele>55</ele>
        <time>2016-04-17T14:42:47.958Z</time>
      </trkpt>
      <trkpt lat="43.47954" lon="3.83422">
        <ele>55</ele>
        <time>2016-04-17T14:42:48.940Z</time>
      </trkpt>
      <trkpt lat="43.47962" lon="3.83427">
        <ele>56</ele>
        <time>2016-04-17T14:42:53.095Z</time>
      </trkpt>
      <trkpt lat="43.47964" lon="3.83429">
        <ele>57</ele>
        <time>2016-04-17T14:42:53.939Z</time>
      </trkpt>
      <trkpt lat="43.47968" lon="3.83434">
        <ele>58</ele>
        <time>2016-04-17T14:42:56.967Z</time>
      </trkpt>
      <trkpt lat="43.47974" lon="3.83457">
        <ele>51</ele>
        <time>2016-04-17T14:42:57.940Z</time>
      </trkpt>
      <trkpt lat="43.47978" lon="3.83465">
        <ele>51</ele>
        <time>2016-04-17T14:43:00.970Z</time>
      </trkpt>
      <trkpt lat="43.47979" lon="3.83469">
        <ele>50</ele>
        <time>2016-04-17T14:43:01.939Z</time>
      </trkpt>
      <trkpt lat="43.47984" lon="3.83476">
        <ele>51</ele>
        <time>2016-04-17T14:43:05.076Z</time>
      </trkpt>
      <trkpt lat="43.47986" lon="3.83479">
        <ele>50</ele>
        <time>2016-04-17T14:43:05.941Z</time>
      </trkpt>
      <trkpt lat="43.47991" lon="3.83487">
        <ele>50</ele>
        <time>2016-04-17T14:43:08.970Z</time>
      </trkpt>
      <trkpt lat="43.47993" lon="3.83489">
        <ele>50</ele>
        <time>2016-04-17T14:43:09.937Z</time>
      </trkpt>
      <trkpt lat="43.48001" lon="3.83495">
        <ele>51</ele>
        <time>2016-04-17T14:43:12.963Z</time>
      </trkpt>
      <trkpt lat="43.48004" lon="3.83489">
        <ele>52</ele>
        <time>2016-04-17T14:43:13.941Z</time>
      </trkpt>
      <trkpt lat="43.4801" lon="3.83498">
        <ele>54</ele>
        <time>2016-04-17T14:43:16.959Z</time>
      </trkpt>
      <trkpt lat="43.48013" lon="3.83497">
        <ele>54</ele>
        <time>2016-04-17T14:43:17.939Z</time>
      </trkpt>
      <trkpt lat="43.48019" lon="3.83503">
        <ele>54</ele>
        <time>2016-04-17T14:43:20.968Z</time>
      </trkpt>
      <trkpt lat="43.48021" lon="3.83504">
        <ele>54</ele>
        <time>2016-04-17T14:43:21.937Z</time>
      </trkpt>
      <trkpt lat="43.48026" lon="3.83512">
        <ele>55</ele>
        <time>2016-04-17T14:43:25.968Z</time>
      </trkpt>
      <trkpt lat="43.48028" lon="3.83515">
        <ele>55</ele>
        <time>2016-04-17T14:43:26.940Z</time>
      </trkpt>
      <trkpt lat="43.48034" lon="3.83518">
        <ele>55</ele>
        <time>2016-04-17T14:43:30.965Z</time>
      </trkpt>
      <trkpt lat="43.48037" lon="3.83522">
        <ele>50</ele>
        <time>2016-04-17T14:43:31.970Z</time>
      </trkpt>
      <trkpt lat="43.48042" lon="3.83528">
        <ele>51</ele>
        <time>2016-04-17T14:43:36.968Z</time>
      </trkpt>
      <trkpt lat="43.48044" lon="3.8353">
        <ele>50</ele>
        <time>2016-04-17T14:43:37.941Z</time>
      </trkpt>
      <trkpt lat="43.48049" lon="3.83536">
        <ele>50</ele>
        <time>2016-04-17T14:43:42.097Z</time>
      </trkpt>
      <trkpt lat="43.48051" lon="3.83543">
        <ele>48</ele>
        <time>2016-04-17T14:43:42.939Z</time>
      </trkpt>
      <trkpt lat="43.48056" lon="3.83552">
        <ele>48</ele>
        <time>2016-04-17T14:43:45.971Z</time>
      </trkpt>
      <trkpt lat="43.48057" lon="3.83554">
        <ele>48</ele>
        <time>2016-04-17T14:43:46.937Z</time>
      </trkpt>
      <trkpt lat="43.48064" lon="3.83559">
        <ele>50</ele>
        <time>2016-04-17T14:43:50.964Z</time>
      </trkpt>
      <trkpt lat="43.48065" lon="3.83562">
        <ele>49</ele>
        <time>2016-04-17T14:43:51.939Z</time>
      </trkpt>
      <trkpt lat="43.48074" lon="3.83565">
        <ele>52</ele>
        <time>2016-04-17T14:43:59.969Z</time>
      </trkpt>
      <trkpt lat="43.48075" lon="3.83568">
        <ele>54</ele>
        <time>2016-04-17T14:44:00.939Z</time>
      </trkpt>
      <trkpt lat="43.48081" lon="3.83574">
        <ele>54</ele>
        <time>2016-04-17T14:44:05.969Z</time>
      </trkpt>
      <trkpt lat="43.48083" lon="3.83575">
        <ele>54</ele>
        <time>2016-04-17T14:44:06.942Z</time>
      </trkpt>
      <trkpt lat="43.48091" lon="3.83579">
        <ele>53</ele>
        <time>2016-04-17T14:44:10.969Z</time>
      </trkpt>
      <trkpt lat="43.48092" lon="3.83581">
        <ele>53</ele>
        <time>2016-04-17T14:44:11.940Z</time>
      </trkpt>
      <trkpt lat="43.48096" lon="3.83587">
        <ele>52</ele>
        <time>2016-04-17T14:44:14.962Z</time>
      </trkpt>
      <trkpt lat="43.48098" lon="3.83591">
        <ele>52</ele>
        <time>2016-04-17T14:44:15.940Z</time>
      </trkpt>
      <trkpt lat="43.48103" lon="3.83599">
        <ele>54</ele>
        <time>2016-04-17T14:44:19.967Z</time>
      </trkpt>
      <trkpt lat="43.48104" lon="3.83603">
        <ele>54</ele>
        <time>2016-04-17T14:44:20.935Z</time>
      </trkpt>
      <trkpt lat="43.48111" lon="3.83601">
        <ele>56</ele>
        <time>2016-04-17T14:44:25.974Z</time>
      </trkpt>
      <trkpt lat="43.48113" lon="3.83602">
        <ele>56</ele>
        <time>2016-04-17T14:44:26.938Z</time>
      </trkpt>
      <trkpt lat="43.48118" lon="3.83611">
        <ele>59</ele>
        <time>2016-04-17T14:44:35.106Z</time>
      </trkpt>
      <trkpt lat="43.48119" lon="3.83612">
        <ele>59</ele>
        <time>2016-04-17T14:44:35.937Z</time>
      </trkpt>
      <trkpt lat="43.48123" lon="3.83618">
        <ele>54</ele>
        <time>2016-04-17T14:44:36.962Z</time>
      </trkpt>
      <trkpt lat="43.48126" lon="3.83621">
        <ele>51</ele>
        <time>2016-04-17T14:44:37.943Z</time>
      </trkpt>
      <trkpt lat="43.48132" lon="3.8363">
        <ele>49</ele>
        <time>2016-04-17T14:44:40.977Z</time>
      </trkpt>
      <trkpt lat="43.48135" lon="3.83633">
        <ele>47</ele>
        <time>2016-04-17T14:44:41.962Z</time>
      </trkpt>
      <trkpt lat="43.4814" lon="3.83639">
        <ele>47</ele>
        <time>2016-04-17T14:44:44.968Z</time>
      </trkpt>
      <trkpt lat="43.48143" lon="3.8364">
        <ele>46</ele>
        <time>2016-04-17T14:44:45.965Z</time>
      </trkpt>
      <trkpt lat="43.48151" lon="3.83645">
        <ele>48</ele>
        <time>2016-04-17T14:44:54.966Z</time>
      </trkpt>
      <trkpt lat="43.48153" lon="3.83649">
        <ele>50</ele>
        <time>2016-04-17T14:44:55.942Z</time>
      </trkpt>
      <trkpt lat="43.48159" lon="3.83655">
        <ele>52</ele>
        <time>2016-04-17T14:45:00.125Z</time>
      </trkpt>
      <trkpt lat="43.48161" lon="3.83658">
        <ele>51</ele>
        <time>2016-04-17T14:45:00.939Z</time>
      </trkpt>
      <trkpt lat="43.48166" lon="3.83668">
        <ele>49</ele>
        <time>2016-04-17T14:45:08.977Z</time>
      </trkpt>
      <trkpt lat="43.48166" lon="3.83669">
        <ele>49</ele>
        <time>2016-04-17T14:45:09.941Z</time>
      </trkpt>
      <trkpt lat="43.48172" lon="3.83677">
        <ele>49</ele>
        <time>2016-04-17T14:45:14.968Z</time>
      </trkpt>
      <trkpt lat="43.48173" lon="3.83679">
        <ele>49</ele>
        <time>2016-04-17T14:45:15.939Z</time>
      </trkpt>
      <trkpt lat="43.4818" lon="3.83682">
        <ele>48</ele>
        <time>2016-04-17T14:45:22.994Z</time>
      </trkpt>
      <trkpt lat="43.48182" lon="3.83682">
        <ele>48</ele>
        <time>2016-04-17T14:45:23.954Z</time>
      </trkpt>
      <trkpt lat="43.48189" lon="3.83686">
        <ele>47</ele>
        <time>2016-04-17T14:45:27.977Z</time>
      </trkpt>
      <trkpt lat="43.4819" lon="3.83687">
        <ele>47</ele>
        <time>2016-04-17T14:45:28.941Z</time>
      </trkpt>
      <trkpt lat="43.48195" lon="3.83696">
        <ele>46</ele>
        <time>2016-04-17T14:45:32.971Z</time>
      </trkpt>
      <trkpt lat="43.48196" lon="3.83698">
        <ele>46</ele>
        <time>2016-04-17T14:45:33.939Z</time>
      </trkpt>
      <trkpt lat="43.48201" lon="3.83705">
        <ele>45</ele>
        <time>2016-04-17T14:45:36.959Z</time>
      </trkpt>
      <trkpt lat="43.48203" lon="3.83709">
        <ele>45</ele>
        <time>2016-04-17T14:45:37.940Z</time>
      </trkpt>
      <trkpt lat="43.48209" lon="3.83715">
        <ele>46</ele>
        <time>2016-04-17T14:45:40.968Z</time>
      </trkpt>
      <trkpt lat="43.48212" lon="3.83719">
        <ele>45</ele>
        <time>2016-04-17T14:45:41.939Z</time>
      </trkpt>
      <trkpt lat="43.48218" lon="3.83726">
        <ele>45</ele>
        <time>2016-04-17T14:45:44.969Z</time>
      </trkpt>
      <trkpt lat="43.48219" lon="3.83726">
        <ele>45</ele>
        <time>2016-04-17T14:45:45.940Z</time>
      </trkpt>
      <trkpt lat="43.48225" lon="3.83733">
        <ele>44</ele>
        <time>2016-04-17T14:45:48.971Z</time>
      </trkpt>
      <trkpt lat="43.48227" lon="3.83735">
        <ele>44</ele>
        <time>2016-04-17T14:45:49.941Z</time>
      </trkpt>
      <trkpt lat="43.48233" lon="3.8374">
        <ele>43</ele>
        <time>2016-04-17T14:45:53.968Z</time>
      </trkpt>
      <trkpt lat="43.48235" lon="3.83741">
        <ele>43</ele>
        <time>2016-04-17T14:45:54.939Z</time>
      </trkpt>
      <trkpt lat="43.4824" lon="3.83748">
        <ele>44</ele>
        <time>2016-04-17T14:45:56.969Z</time>
      </trkpt>
      <trkpt lat="43.48244" lon="3.83753">
        <ele>43</ele>
        <time>2016-04-17T14:45:57.941Z</time>
      </trkpt>
      <trkpt lat="43.4825" lon="3.8376">
        <ele>46</ele>
        <time>2016-04-17T14:46:00.968Z</time>
      </trkpt>
      <trkpt lat="43.48252" lon="3.83762">
        <ele>46</ele>
        <time>2016-04-17T14:46:01.935Z</time>
      </trkpt>
      <trkpt lat="43.48259" lon="3.83767">
        <ele>45</ele>
        <time>2016-04-17T14:46:04.984Z</time>
      </trkpt>
      <trkpt lat="43.48263" lon="3.83782">
        <ele>44</ele>
        <time>2016-04-17T14:46:05.940Z</time>
      </trkpt>
      <trkpt lat="43.48269" lon="3.8379">
        <ele>46</ele>
        <time>2016-04-17T14:46:08.973Z</time>
      </trkpt>
      <trkpt lat="43.48271" lon="3.83792">
        <ele>45</ele>
        <time>2016-04-17T14:46:09.941Z</time>
      </trkpt>
      <trkpt lat="43.48274" lon="3.83797">
        <ele>43</ele>
        <time>2016-04-17T14:46:10.972Z</time>
      </trkpt>
      <trkpt lat="43.48277" lon="3.838">
        <ele>44</ele>
        <time>2016-04-17T14:46:11.954Z</time>
      </trkpt>
      <trkpt lat="43.48283" lon="3.83805">
        <ele>45</ele>
        <time>2016-04-17T14:46:14.960Z</time>
      </trkpt>
      <trkpt lat="43.48286" lon="3.83807">
        <ele>47</ele>
        <time>2016-04-17T14:46:16.106Z</time>
      </trkpt>
      <trkpt lat="43.48292" lon="3.83814">
        <ele>48</ele>
        <time>2016-04-17T14:46:17.968Z</time>
      </trkpt>
      <trkpt lat="43.48294" lon="3.83817">
        <ele>48</ele>
        <time>2016-04-17T14:46:18.941Z</time>
      </trkpt>
      <trkpt lat="43.483" lon="3.83823">
        <ele>48</ele>
        <time>2016-04-17T14:46:20.970Z</time>
      </trkpt>
      <trkpt lat="43.48302" lon="3.83827">
        <ele>48</ele>
        <time>2016-04-17T14:46:21.941Z</time>
      </trkpt>
      <trkpt lat="43.4831" lon="3.83831">
        <ele>49</ele>
        <time>2016-04-17T14:46:24.968Z</time>
      </trkpt>
      <trkpt lat="43.48313" lon="3.83835">
        <ele>49</ele>
        <time>2016-04-17T14:46:25.940Z</time>
      </trkpt>
      <trkpt lat="43.48318" lon="3.83839">
        <ele>49</ele>
        <time>2016-04-17T14:46:27.968Z</time>
      </trkpt>
      <trkpt lat="43.48321" lon="3.8384">
        <ele>49</ele>
        <time>2016-04-17T14:46:29.080Z</time>
      </trkpt>
      <trkpt lat="43.48327" lon="3.83847">
        <ele>50</ele>
        <time>2016-04-17T14:46:30.966Z</time>
      </trkpt>
      <trkpt lat="43.48329" lon="3.8385">
        <ele>50</ele>
        <time>2016-04-17T14:46:31.939Z</time>
      </trkpt>
      <trkpt lat="43.48334" lon="3.83858">
        <ele>50</ele>
        <time>2016-04-17T14:46:33.969Z</time>
      </trkpt>
      <trkpt lat="43.48336" lon="3.8386">
        <ele>50</ele>
        <time>2016-04-17T14:46:34.944Z</time>
      </trkpt>
      <trkpt lat="43.48341" lon="3.83867">
        <ele>51</ele>
        <time>2016-04-17T14:46:36.970Z</time>
      </trkpt>
      <trkpt lat="43.48343" lon="3.8387">
        <ele>49</ele>
        <time>2016-04-17T14:46:37.940Z</time>
      </trkpt>
      <trkpt lat="43.48349" lon="3.83878">
        <ele>48</ele>
        <time>2016-04-17T14:46:39.970Z</time>
      </trkpt>
      <trkpt lat="43.48352" lon="3.83884">
        <ele>48</ele>
        <time>2016-04-17T14:46:40.939Z</time>
      </trkpt>
      <trkpt lat="43.48355" lon="3.83891">
        <ele>49</ele>
        <time>2016-04-17T14:46:42.988Z</time>
      </trkpt>
      <trkpt lat="43.48358" lon="3.83894">
        <ele>49</ele>
        <time>2016-04-17T14:46:43.936Z</time>
      </trkpt>
      <trkpt lat="43.48363" lon="3.83901">
        <ele>50</ele>
        <time>2016-04-17T14:46:45.962Z</time>
      </trkpt>
      <trkpt lat="43.48368" lon="3.83903">
        <ele>49</ele>
        <time>2016-04-17T14:46:46.939Z</time>
      </trkpt>
      <trkpt lat="43.48373" lon="3.83909">
        <ele>50</ele>
        <time>2016-04-17T14:46:48.967Z</time>
      </trkpt>
      <trkpt lat="43.48376" lon="3.83912">
        <ele>49</ele>
        <time>2016-04-17T14:46:49.940Z</time>
      </trkpt>
      <trkpt lat="43.48379" lon="3.83915">
        <ele>50</ele>
        <time>2016-04-17T14:46:50.959Z</time>
      </trkpt>
      <trkpt lat="43.48382" lon="3.83922">
        <ele>49</ele>
        <time>2016-04-17T14:46:51.940Z</time>
      </trkpt>
      <trkpt lat="43.48387" lon="3.83932">
        <ele>47</ele>
        <time>2016-04-17T14:46:53.967Z</time>
      </trkpt>
      <trkpt lat="43.48391" lon="3.83936">
        <ele>47</ele>
        <time>2016-04-17T14:46:54.941Z</time>
      </trkpt>
      <trkpt lat="43.48397" lon="3.83937">
        <ele>48</ele>
        <time>2016-04-17T14:46:56.968Z</time>
      </trkpt>
      <trkpt lat="43.48402" lon="3.83942">
        <ele>48</ele>
        <time>2016-04-17T14:46:57.939Z</time>
      </trkpt>
      <trkpt lat="43.48408" lon="3.83949">
        <ele>48</ele>
        <time>2016-04-17T14:46:59.971Z</time>
      </trkpt>
      <trkpt lat="43.48412" lon="3.83953">
        <ele>49</ele>
        <time>2016-04-17T14:47:00.940Z</time>
      </trkpt>
      <trkpt lat="43.4842" lon="3.83956">
        <ele>48</ele>
        <time>2016-04-17T14:47:05.969Z</time>
      </trkpt>
      <trkpt lat="43.48425" lon="3.83962">
        <ele>48</ele>
        <time>2016-04-17T14:47:06.940Z</time>
      </trkpt>
      <trkpt lat="43.48431" lon="3.83967">
        <ele>49</ele>
        <time>2016-04-17T14:47:08.970Z</time>
      </trkpt>
      <trkpt lat="43.48434" lon="3.83971">
        <ele>49</ele>
        <time>2016-04-17T14:47:09.941Z</time>
      </trkpt>
      <trkpt lat="43.48438" lon="3.83977">
        <ele>49</ele>
        <time>2016-04-17T14:47:10.968Z</time>
      </trkpt>
      <trkpt lat="43.48442" lon="3.8398">
        <ele>49</ele>
        <time>2016-04-17T14:47:11.941Z</time>
      </trkpt>
      <trkpt lat="43.48445" lon="3.83988">
        <ele>49</ele>
        <time>2016-04-17T14:47:12.968Z</time>
      </trkpt>
      <trkpt lat="43.48448" lon="3.83992">
        <ele>48</ele>
        <time>2016-04-17T14:47:13.941Z</time>
      </trkpt>
      <trkpt lat="43.48452" lon="3.83995">
        <ele>50</ele>
        <time>2016-04-17T14:47:14.969Z</time>
      </trkpt>
      <trkpt lat="43.48457" lon="3.84">
        <ele>49</ele>
        <time>2016-04-17T14:47:15.941Z</time>
      </trkpt>
      <trkpt lat="43.4846" lon="3.84005">
        <ele>50</ele>
        <time>2016-04-17T14:47:17.095Z</time>
      </trkpt>
      <trkpt lat="43.48464" lon="3.84008">
        <ele>50</ele>
        <time>2016-04-17T14:47:17.941Z</time>
      </trkpt>
      <trkpt lat="43.4847" lon="3.84015">
        <ele>50</ele>
        <time>2016-04-17T14:47:19.968Z</time>
      </trkpt>
      <trkpt lat="43.48473" lon="3.84019">
        <ele>49</ele>
        <time>2016-04-17T14:47:20.940Z</time>
      </trkpt>
      <trkpt lat="43.4848" lon="3.84026">
        <ele>51</ele>
        <time>2016-04-17T14:47:22.970Z</time>
      </trkpt>
      <trkpt lat="43.48483" lon="3.84029">
        <ele>51</ele>
        <time>2016-04-17T14:47:23.940Z</time>
      </trkpt>
      <trkpt lat="43.48491" lon="3.84032">
        <ele>52</ele>
        <time>2016-04-17T14:47:26.968Z</time>
      </trkpt>
      <trkpt lat="43.48495" lon="3.8404">
        <ele>52</ele>
        <time>2016-04-17T14:47:27.939Z</time>
      </trkpt>
      <trkpt lat="43.48501" lon="3.84046">
        <ele>51</ele>
        <time>2016-04-17T14:47:30.033Z</time>
      </trkpt>
      <trkpt lat="43.48503" lon="3.8405">
        <ele>50</ele>
        <time>2016-04-17T14:47:30.941Z</time>
      </trkpt>
      <trkpt lat="43.48509" lon="3.84058">
        <ele>51</ele>
        <time>2016-04-17T14:47:32.969Z</time>
      </trkpt>
      <trkpt lat="43.48512" lon="3.84062">
        <ele>51</ele>
        <time>2016-04-17T14:47:33.941Z</time>
      </trkpt>
      <trkpt lat="43.48515" lon="3.84067">
        <ele>50</ele>
        <time>2016-04-17T14:47:34.966Z</time>
      </trkpt>
      <trkpt lat="43.48519" lon="3.84071">
        <ele>50</ele>
        <time>2016-04-17T14:47:35.941Z</time>
      </trkpt>
      <trkpt lat="43.48524" lon="3.84077">
        <ele>49</ele>
        <time>2016-04-17T14:47:37.968Z</time>
      </trkpt>
      <trkpt lat="43.48528" lon="3.8408">
        <ele>50</ele>
        <time>2016-04-17T14:47:38.940Z</time>
      </trkpt>
      <trkpt lat="43.48533" lon="3.84082">
        <ele>50</ele>
        <time>2016-04-17T14:47:40.994Z</time>
      </trkpt>
      <trkpt lat="43.48536" lon="3.84088">
        <ele>51</ele>
        <time>2016-04-17T14:47:41.940Z</time>
      </trkpt>
      <trkpt lat="43.4854" lon="3.84092">
        <ele>51</ele>
        <time>2016-04-17T14:47:42.968Z</time>
      </trkpt>
      <trkpt lat="43.48545" lon="3.84098">
        <ele>49</ele>
        <time>2016-04-17T14:47:43.940Z</time>
      </trkpt>
      <trkpt lat="43.48551" lon="3.84103">
        <ele>49</ele>
        <time>2016-04-17T14:47:45.970Z</time>
      </trkpt>
      <trkpt lat="43.48554" lon="3.84106">
        <ele>50</ele>
        <time>2016-04-17T14:47:46.940Z</time>
      </trkpt>
      <trkpt lat="43.48559" lon="3.84114">
        <ele>48</ele>
        <time>2016-04-17T14:47:49.035Z</time>
      </trkpt>
      <trkpt lat="43.48562" lon="3.84117">
        <ele>48</ele>
        <time>2016-04-17T14:47:49.941Z</time>
      </trkpt>
      <trkpt lat="43.48568" lon="3.84124">
        <ele>48</ele>
        <time>2016-04-17T14:47:51.989Z</time>
      </trkpt>
      <trkpt lat="43.4857" lon="3.84127">
        <ele>47</ele>
        <time>2016-04-17T14:47:52.940Z</time>
      </trkpt>
      <trkpt lat="43.48575" lon="3.84134">
        <ele>47</ele>
        <time>2016-04-17T14:47:53.968Z</time>
      </trkpt>
      <trkpt lat="43.48578" lon="3.84138">
        <ele>47</ele>
        <time>2016-04-17T14:47:54.936Z</time>
      </trkpt>
      <trkpt lat="43.48582" lon="3.84143">
        <ele>46</ele>
        <time>2016-04-17T14:47:55.968Z</time>
      </trkpt>
      <trkpt lat="43.48586" lon="3.84145">
        <ele>46</ele>
        <time>2016-04-17T14:47:56.957Z</time>
      </trkpt>
      <trkpt lat="43.48593" lon="3.84149">
        <ele>46</ele>
        <time>2016-04-17T14:47:58.960Z</time>
      </trkpt>
      <trkpt lat="43.48594" lon="3.84154">
        <ele>45</ele>
        <time>2016-04-17T14:47:59.940Z</time>
      </trkpt>
      <trkpt lat="43.486" lon="3.84157">
        <ele>46</ele>
        <time>2016-04-17T14:48:02.054Z</time>
      </trkpt>
      <trkpt lat="43.48603" lon="3.8416">
        <ele>47</ele>
        <time>2016-04-17T14:48:02.941Z</time>
      </trkpt>
      <trkpt lat="43.48609" lon="3.84168">
        <ele>49</ele>
        <time>2016-04-17T14:48:05.957Z</time>
      </trkpt>
      <trkpt lat="43.48611" lon="3.84171">
        <ele>48</ele>
        <time>2016-04-17T14:48:06.937Z</time>
      </trkpt>
      <trkpt lat="43.48617" lon="3.84179">
        <ele>48</ele>
        <time>2016-04-17T14:48:08.968Z</time>
      </trkpt>
      <trkpt lat="43.48619" lon="3.84183">
        <ele>49</ele>
        <time>2016-04-17T14:48:09.941Z</time>
      </trkpt>
      <trkpt lat="43.48623" lon="3.84189">
        <ele>47</ele>
        <time>2016-04-17T14:48:10.970Z</time>
      </trkpt>
      <trkpt lat="43.48626" lon="3.84192">
        <ele>46</ele>
        <time>2016-04-17T14:48:11.943Z</time>
      </trkpt>
      <trkpt lat="43.4863" lon="3.84197">
        <ele>48</ele>
        <time>2016-04-17T14:48:13.968Z</time>
      </trkpt>
      <trkpt lat="43.48634" lon="3.84201">
        <ele>48</ele>
        <time>2016-04-17T14:48:14.945Z</time>
      </trkpt>
      <trkpt lat="43.48638" lon="3.84208">
        <ele>46</ele>
        <time>2016-04-17T14:48:15.969Z</time>
      </trkpt>
      <trkpt lat="43.48641" lon="3.84213">
        <ele>46</ele>
        <time>2016-04-17T14:48:16.940Z</time>
      </trkpt>
      <trkpt lat="43.48647" lon="3.8422">
        <ele>46</ele>
        <time>2016-04-17T14:48:18.958Z</time>
      </trkpt>
      <trkpt lat="43.4865" lon="3.84221">
        <ele>47</ele>
        <time>2016-04-17T14:48:19.941Z</time>
      </trkpt>
      <trkpt lat="43.48655" lon="3.84223">
        <ele>49</ele>
        <time>2016-04-17T14:48:21.969Z</time>
      </trkpt>
      <trkpt lat="43.48658" lon="3.84226">
        <ele>49</ele>
        <time>2016-04-17T14:48:22.938Z</time>
      </trkpt>
      <trkpt lat="43.48661" lon="3.8423">
        <ele>49</ele>
        <time>2016-04-17T14:48:23.969Z</time>
      </trkpt>
      <trkpt lat="43.48667" lon="3.84238">
        <ele>46</ele>
        <time>2016-04-17T14:48:24.940Z</time>
      </trkpt>
      <trkpt lat="43.48673" lon="3.84245">
        <ele>46</ele>
        <time>2016-04-17T14:48:26.969Z</time>
      </trkpt>
      <trkpt lat="43.48675" lon="3.84246">
        <ele>48</ele>
        <time>2016-04-17T14:48:27.941Z</time>
      </trkpt>
      <trkpt lat="43.48683" lon="3.84252">
        <ele>46</ele>
        <time>2016-04-17T14:48:29.969Z</time>
      </trkpt>
      <trkpt lat="43.48684" lon="3.84255">
        <ele>47</ele>
        <time>2016-04-17T14:48:30.941Z</time>
      </trkpt>
      <trkpt lat="43.48691" lon="3.84258">
        <ele>48</ele>
        <time>2016-04-17T14:48:33.970Z</time>
      </trkpt>
      <trkpt lat="43.48693" lon="3.84262">
        <ele>47</ele>
        <time>2016-04-17T14:48:34.940Z</time>
      </trkpt>
      <trkpt lat="43.48698" lon="3.84267">
        <ele>46</ele>
        <time>2016-04-17T14:48:36.972Z</time>
      </trkpt>
      <trkpt lat="43.48701" lon="3.84271">
        <ele>47</ele>
        <time>2016-04-17T14:48:37.940Z</time>
      </trkpt>
      <trkpt lat="43.48705" lon="3.84282">
        <ele>47</ele>
        <time>2016-04-17T14:48:39.971Z</time>
      </trkpt>
      <trkpt lat="43.48709" lon="3.84285">
        <ele>47</ele>
        <time>2016-04-17T14:48:40.941Z</time>
      </trkpt>
      <trkpt lat="43.48715" lon="3.84289">
        <ele>49</ele>
        <time>2016-04-17T14:48:42.971Z</time>
      </trkpt>
      <trkpt lat="43.48718" lon="3.84292">
        <ele>51</ele>
        <time>2016-04-17T14:48:43.941Z</time>
      </trkpt>
      <trkpt lat="43.48722" lon="3.84299">
        <ele>52</ele>
        <time>2016-04-17T14:48:45.967Z</time>
      </trkpt>
      <trkpt lat="43.48725" lon="3.84301">
        <ele>51</ele>
        <time>2016-04-17T14:48:46.940Z</time>
      </trkpt>
      <trkpt lat="43.48731" lon="3.84306">
        <ele>52</ele>
        <time>2016-04-17T14:48:48.971Z</time>
      </trkpt>
      <trkpt lat="43.48734" lon="3.84309">
        <ele>52</ele>
        <time>2016-04-17T14:48:49.940Z</time>
      </trkpt>
      <trkpt lat="43.48741" lon="3.84315">
        <ele>51</ele>
        <time>2016-04-17T14:48:51.969Z</time>
      </trkpt>
      <trkpt lat="43.48744" lon="3.84319">
        <ele>52</ele>
        <time>2016-04-17T14:48:52.941Z</time>
      </trkpt>
      <trkpt lat="43.48748" lon="3.84325">
        <ele>52</ele>
        <time>2016-04-17T14:48:53.968Z</time>
      </trkpt>
      <trkpt lat="43.48751" lon="3.84329">
        <ele>54</ele>
        <time>2016-04-17T14:48:54.963Z</time>
      </trkpt>
      <trkpt lat="43.48758" lon="3.84337">
        <ele>52</ele>
        <time>2016-04-17T14:48:56.971Z</time>
      </trkpt>
      <trkpt lat="43.4876" lon="3.84339">
        <ele>52</ele>
        <time>2016-04-17T14:48:57.940Z</time>
      </trkpt>
      <trkpt lat="43.48765" lon="3.84346">
        <ele>51</ele>
        <time>2016-04-17T14:48:58.973Z</time>
      </trkpt>
      <trkpt lat="43.48768" lon="3.84351">
        <ele>52</ele>
        <time>2016-04-17T14:48:59.941Z</time>
      </trkpt>
      <trkpt lat="43.48774" lon="3.84356">
        <ele>51</ele>
        <time>2016-04-17T14:49:01.973Z</time>
      </trkpt>
      <trkpt lat="43.48779" lon="3.84366">
        <ele>49</ele>
        <time>2016-04-17T14:49:02.941Z</time>
      </trkpt>
      <trkpt lat="43.48785" lon="3.84372">
        <ele>48</ele>
        <time>2016-04-17T14:49:04.968Z</time>
      </trkpt>
      <trkpt lat="43.48788" lon="3.84374">
        <ele>49</ele>
        <time>2016-04-17T14:49:05.941Z</time>
      </trkpt>
      <trkpt lat="43.48794" lon="3.84378">
        <ele>50</ele>
        <time>2016-04-17T14:49:07.970Z</time>
      </trkpt>
      <trkpt lat="43.48798" lon="3.84388">
        <ele>49</ele>
        <time>2016-04-17T14:49:08.940Z</time>
      </trkpt>
      <trkpt lat="43.48805" lon="3.84391">
        <ele>49</ele>
        <time>2016-04-17T14:49:10.988Z</time>
      </trkpt>
      <trkpt lat="43.48808" lon="3.84394">
        <ele>49</ele>
        <time>2016-04-17T14:49:11.940Z</time>
      </trkpt>
      <trkpt lat="43.48812" lon="3.84399">
        <ele>48</ele>
        <time>2016-04-17T14:49:13.969Z</time>
      </trkpt>
      <trkpt lat="43.48817" lon="3.84404">
        <ele>47</ele>
        <time>2016-04-17T14:49:14.940Z</time>
      </trkpt>
      <trkpt lat="43.48821" lon="3.8441">
        <ele>47</ele>
        <time>2016-04-17T14:49:15.967Z</time>
      </trkpt>
      <trkpt lat="43.48825" lon="3.84411">
        <ele>47</ele>
        <time>2016-04-17T14:49:16.941Z</time>
      </trkpt>
      <trkpt lat="43.48832" lon="3.84417">
        <ele>49</ele>
        <time>2016-04-17T14:49:19.971Z</time>
      </trkpt>
      <trkpt lat="43.48835" lon="3.84421">
        <ele>48</ele>
        <time>2016-04-17T14:49:20.940Z</time>
      </trkpt>
      <trkpt lat="43.48842" lon="3.84427">
        <ele>49</ele>
        <time>2016-04-17T14:49:22.968Z</time>
      </trkpt>
      <trkpt lat="43.48845" lon="3.8443">
        <ele>50</ele>
        <time>2016-04-17T14:49:23.940Z</time>
      </trkpt>
      <trkpt lat="43.48851" lon="3.84434">
        <ele>51</ele>
        <time>2016-04-17T14:49:25.969Z</time>
      </trkpt>
      <trkpt lat="43.48854" lon="3.84439">
        <ele>50</ele>
        <time>2016-04-17T14:49:26.939Z</time>
      </trkpt>
      <trkpt lat="43.4886" lon="3.84445">
        <ele>51</ele>
        <time>2016-04-17T14:49:28.967Z</time>
      </trkpt>
      <trkpt lat="43.48864" lon="3.84451">
        <ele>50</ele>
        <time>2016-04-17T14:49:29.941Z</time>
      </trkpt>
      <trkpt lat="43.48867" lon="3.84454">
        <ele>50</ele>
        <time>2016-04-17T14:49:31.084Z</time>
      </trkpt>
      <trkpt lat="43.48869" lon="3.84462">
        <ele>50</ele>
        <time>2016-04-17T14:49:31.966Z</time>
      </trkpt>
      <trkpt lat="43.48876" lon="3.84465">
        <ele>51</ele>
        <time>2016-04-17T14:49:33.968Z</time>
      </trkpt>
      <trkpt lat="43.48879" lon="3.84465">
        <ele>52</ele>
        <time>2016-04-17T14:49:34.940Z</time>
      </trkpt>
      <trkpt lat="43.48879" lon="3.84465">
        <ele>52</ele>
        <time>2016-04-17T14:49:34.977Z</time>
      </trkpt>
      <trkpt lat="43.48884" lon="3.84479">
        <ele>48</ele>
        <time>2016-04-17T14:49:35.941Z</time>
      </trkpt>
      <trkpt lat="43.48891" lon="3.84483">
        <ele>49</ele>
        <time>2016-04-17T14:49:38.967Z</time>
      </trkpt>
      <trkpt lat="43.48894" lon="3.84486">
        <ele>49</ele>
        <time>2016-04-17T14:49:39.941Z</time>
      </trkpt>
      <trkpt lat="43.489" lon="3.84491">
        <ele>49</ele>
        <time>2016-04-17T14:49:41.969Z</time>
      </trkpt>
      <trkpt lat="43.48904" lon="3.845">
        <ele>46</ele>
        <time>2016-04-17T14:49:42.962Z</time>
      </trkpt>
      <trkpt lat="43.48911" lon="3.84503">
        <ele>50</ele>
        <time>2016-04-17T14:49:45.968Z</time>
      </trkpt>
      <trkpt lat="43.48914" lon="3.84506">
        <ele>50</ele>
        <time>2016-04-17T14:49:46.936Z</time>
      </trkpt>
      <trkpt lat="43.48919" lon="3.84508">
        <ele>51</ele>
        <time>2016-04-17T14:49:48.972Z</time>
      </trkpt>
      <trkpt lat="43.48922" lon="3.84511">
        <ele>51</ele>
        <time>2016-04-17T14:49:49.941Z</time>
      </trkpt>
      <trkpt lat="43.48928" lon="3.84517">
        <ele>48</ele>
        <time>2016-04-17T14:49:50.968Z</time>
      </trkpt>
      <trkpt lat="43.48931" lon="3.8452">
        <ele>49</ele>
        <time>2016-04-17T14:49:51.936Z</time>
      </trkpt>
      <trkpt lat="43.48938" lon="3.84527">
        <ele>49</ele>
        <time>2016-04-17T14:49:53.993Z</time>
      </trkpt>
      <trkpt lat="43.48941" lon="3.8453">
        <ele>49</ele>
        <time>2016-04-17T14:49:54.936Z</time>
      </trkpt>
      <trkpt lat="43.48948" lon="3.84538">
        <ele>48</ele>
        <time>2016-04-17T14:49:57.968Z</time>
      </trkpt>
      <trkpt lat="43.4895" lon="3.84541">
        <ele>48</ele>
        <time>2016-04-17T14:49:58.935Z</time>
      </trkpt>
      <trkpt lat="43.48956" lon="3.84546">
        <ele>48</ele>
        <time>2016-04-17T14:50:01.003Z</time>
      </trkpt>
      <trkpt lat="43.48955" lon="3.84553">
        <ele>46</ele>
        <time>2016-04-17T14:50:01.942Z</time>
      </trkpt>
      <trkpt lat="43.48961" lon="3.84558">
        <ele>46</ele>
        <time>2016-04-17T14:50:03.970Z</time>
      </trkpt>
      <trkpt lat="43.48964" lon="3.84561">
        <ele>46</ele>
        <time>2016-04-17T14:50:04.940Z</time>
      </trkpt>
      <trkpt lat="43.48971" lon="3.84568">
        <ele>47</ele>
        <time>2016-04-17T14:50:07.970Z</time>
      </trkpt>
      <trkpt lat="43.48974" lon="3.8457">
        <ele>47</ele>
        <time>2016-04-17T14:50:08.941Z</time>
      </trkpt>
      <trkpt lat="43.4898" lon="3.84576">
        <ele>47</ele>
        <time>2016-04-17T14:50:11.970Z</time>
      </trkpt>
      <trkpt lat="43.48981" lon="3.84578">
        <ele>48</ele>
        <time>2016-04-17T14:50:12.941Z</time>
      </trkpt>
      <trkpt lat="43.48988" lon="3.84584">
        <ele>51</ele>
        <time>2016-04-17T14:50:15.969Z</time>
      </trkpt>
      <trkpt lat="43.48992" lon="3.84588">
        <ele>50</ele>
        <time>2016-04-17T14:50:16.940Z</time>
      </trkpt>
      <trkpt lat="43.48997" lon="3.84592">
        <ele>54</ele>
        <time>2016-04-17T14:50:19.979Z</time>
      </trkpt>
      <trkpt lat="43.49" lon="3.84595">
        <ele>54</ele>
        <time>2016-04-17T14:50:20.958Z</time>
      </trkpt>
      <trkpt lat="43.49007" lon="3.84601">
        <ele>56</ele>
        <time>2016-04-17T14:50:22.969Z</time>
      </trkpt>
      <trkpt lat="43.49009" lon="3.84602">
        <ele>57</ele>
        <time>2016-04-17T14:50:23.941Z</time>
      </trkpt>
      <trkpt lat="43.49015" lon="3.84609">
        <ele>59</ele>
        <time>2016-04-17T14:50:26.968Z</time>
      </trkpt>
      <trkpt lat="43.49017" lon="3.84611">
        <ele>60</ele>
        <time>2016-04-17T14:50:27.942Z</time>
      </trkpt>
      <trkpt lat="43.49023" lon="3.84619">
        <ele>60</ele>
        <time>2016-04-17T14:50:29.967Z</time>
      </trkpt>
      <trkpt lat="43.49026" lon="3.84623">
        <ele>60</ele>
        <time>2016-04-17T14:50:30.957Z</time>
      </trkpt>
      <trkpt lat="43.4903" lon="3.84624">
        <ele>60</ele>
        <time>2016-04-17T14:50:31.968Z</time>
      </trkpt>
      <trkpt lat="43.49034" lon="3.84629">
        <ele>59</ele>
        <time>2016-04-17T14:50:32.942Z</time>
      </trkpt>
      <trkpt lat="43.49034" lon="3.84629">
        <ele>59</ele>
        <time>2016-04-17T14:50:32.998Z</time>
      </trkpt>
      <trkpt lat="43.49041" lon="3.84654">
        <ele>50</ele>
        <time>2016-04-17T14:50:33.965Z</time>
      </trkpt>
      <trkpt lat="43.49048" lon="3.8466">
        <ele>49</ele>
        <time>2016-04-17T14:50:35.992Z</time>
      </trkpt>
      <trkpt lat="43.49051" lon="3.84663">
        <ele>49</ele>
        <time>2016-04-17T14:50:36.964Z</time>
      </trkpt>
      <trkpt lat="43.49058" lon="3.84668">
        <ele>49</ele>
        <time>2016-04-17T14:50:39.027Z</time>
      </trkpt>
      <trkpt lat="43.4906" lon="3.8467">
        <ele>50</ele>
        <time>2016-04-17T14:50:39.942Z</time>
      </trkpt>
      <trkpt lat="43.49066" lon="3.84675">
        <ele>51</ele>
        <time>2016-04-17T14:50:42.969Z</time>
      </trkpt>
      <trkpt lat="43.49069" lon="3.84677">
        <ele>52</ele>
        <time>2016-04-17T14:50:43.943Z</time>
      </trkpt>
      <trkpt lat="43.49074" lon="3.84684">
        <ele>48</ele>
        <time>2016-04-17T14:50:45.094Z</time>
      </trkpt>
      <trkpt lat="43.49077" lon="3.84687">
        <ele>47</ele>
        <time>2016-04-17T14:50:45.942Z</time>
      </trkpt>
      <trkpt lat="43.49083" lon="3.84692">
        <ele>48</ele>
        <time>2016-04-17T14:50:47.970Z</time>
      </trkpt>
      <trkpt lat="43.49088" lon="3.84701">
        <ele>46</ele>
        <time>2016-04-17T14:50:48.940Z</time>
      </trkpt>
      <trkpt lat="43.49093" lon="3.84708">
        <ele>47</ele>
        <time>2016-04-17T14:50:50.971Z</time>
      </trkpt>
      <trkpt lat="43.49095" lon="3.8471">
        <ele>48</ele>
        <time>2016-04-17T14:50:51.964Z</time>
      </trkpt>
      <trkpt lat="43.49102" lon="3.84716">
        <ele>45</ele>
        <time>2016-04-17T14:50:53.970Z</time>
      </trkpt>
      <trkpt lat="43.49105" lon="3.84718">
        <ele>45</ele>
        <time>2016-04-17T14:50:54.941Z</time>
      </trkpt>
      <trkpt lat="43.4911" lon="3.84725">
        <ele>46</ele>
        <time>2016-04-17T14:50:58.039Z</time>
      </trkpt>
      <trkpt lat="43.49113" lon="3.84732">
        <ele>44</ele>
        <time>2016-04-17T14:50:58.939Z</time>
      </trkpt>
      <trkpt lat="43.4912" lon="3.84738">
        <ele>44</ele>
        <time>2016-04-17T14:51:01.972Z</time>
      </trkpt>
      <trkpt lat="43.49123" lon="3.84742">
        <ele>44</ele>
        <time>2016-04-17T14:51:02.939Z</time>
      </trkpt>
      <trkpt lat="43.49132" lon="3.84745">
        <ele>42</ele>
        <time>2016-04-17T14:51:06.969Z</time>
      </trkpt>
      <trkpt lat="43.49134" lon="3.84747">
        <ele>43</ele>
        <time>2016-04-17T14:51:07.940Z</time>
      </trkpt>
      <trkpt lat="43.49138" lon="3.84757">
        <ele>41</ele>
        <time>2016-04-17T14:51:09.968Z</time>
      </trkpt>
      <trkpt lat="43.49141" lon="3.84761">
        <ele>42</ele>
        <time>2016-04-17T14:51:10.938Z</time>
      </trkpt>
      <trkpt lat="43.49146" lon="3.84767">
        <ele>42</ele>
        <time>2016-04-17T14:51:12.986Z</time>
      </trkpt>
      <trkpt lat="43.49148" lon="3.84768">
        <ele>42</ele>
        <time>2016-04-17T14:51:13.943Z</time>
      </trkpt>
      <trkpt lat="43.49155" lon="3.84771">
        <ele>44</ele>
        <time>2016-04-17T14:51:16.966Z</time>
      </trkpt>
      <trkpt lat="43.49158" lon="3.84773">
        <ele>44</ele>
        <time>2016-04-17T14:51:17.942Z</time>
      </trkpt>
      <trkpt lat="43.49164" lon="3.84779">
        <ele>45</ele>
        <time>2016-04-17T14:51:20.967Z</time>
      </trkpt>
      <trkpt lat="43.49166" lon="3.84782">
        <ele>45</ele>
        <time>2016-04-17T14:51:21.942Z</time>
      </trkpt>
      <trkpt lat="43.49171" lon="3.84788">
        <ele>45</ele>
        <time>2016-04-17T14:51:23.965Z</time>
      </trkpt>
      <trkpt lat="43.49174" lon="3.84789">
        <ele>45</ele>
        <time>2016-04-17T14:51:24.944Z</time>
      </trkpt>
      <trkpt lat="43.49177" lon="3.84792">
        <ele>47</ele>
        <time>2016-04-17T14:51:26.972Z</time>
      </trkpt>
      <trkpt lat="43.49186" lon="3.84798">
        <ele>39</ele>
        <time>2016-04-17T14:51:27.942Z</time>
      </trkpt>
      <trkpt lat="43.49193" lon="3.848">
        <ele>47</ele>
        <time>2016-04-17T14:51:37.968Z</time>
      </trkpt>
      <trkpt lat="43.49194" lon="3.84802">
        <ele>47</ele>
        <time>2016-04-17T14:51:38.942Z</time>
      </trkpt>
      <trkpt lat="43.49199" lon="3.84808">
        <ele>47</ele>
        <time>2016-04-17T14:51:40.972Z</time>
      </trkpt>
      <trkpt lat="43.49201" lon="3.84811">
        <ele>48</ele>
        <time>2016-04-17T14:51:41.941Z</time>
      </trkpt>
      <trkpt lat="43.49206" lon="3.84817">
        <ele>48</ele>
        <time>2016-04-17T14:51:43.966Z</time>
      </trkpt>
      <trkpt lat="43.49208" lon="3.84821">
        <ele>47</ele>
        <time>2016-04-17T14:51:44.943Z</time>
      </trkpt>
      <trkpt lat="43.49213" lon="3.84827">
        <ele>47</ele>
        <time>2016-04-17T14:51:47.091Z</time>
      </trkpt>
      <trkpt lat="43.49215" lon="3.84829">
        <ele>48</ele>
        <time>2016-04-17T14:51:47.944Z</time>
      </trkpt>
      <trkpt lat="43.4922" lon="3.84836">
        <ele>49</ele>
        <time>2016-04-17T14:51:50.001Z</time>
      </trkpt>
      <trkpt lat="43.49223" lon="3.8484">
        <ele>48</ele>
        <time>2016-04-17T14:51:50.940Z</time>
      </trkpt>
      <trkpt lat="43.49228" lon="3.84845">
        <ele>47</ele>
        <time>2016-04-17T14:51:52.971Z</time>
      </trkpt>
      <trkpt lat="43.49231" lon="3.84847">
        <ele>49</ele>
        <time>2016-04-17T14:51:53.941Z</time>
      </trkpt>
      <trkpt lat="43.49236" lon="3.84855">
        <ele>50</ele>
        <time>2016-04-17T14:51:56.026Z</time>
      </trkpt>
      <trkpt lat="43.49238" lon="3.84859">
        <ele>51</ele>
        <time>2016-04-17T14:51:56.940Z</time>
      </trkpt>
      <trkpt lat="43.49243" lon="3.84866">
        <ele>52</ele>
        <time>2016-04-17T14:51:58.970Z</time>
      </trkpt>
      <trkpt lat="43.49245" lon="3.84869">
        <ele>53</ele>
        <time>2016-04-17T14:51:59.942Z</time>
      </trkpt>
      <trkpt lat="43.4925" lon="3.84877">
        <ele>52</ele>
        <time>2016-04-17T14:52:00.999Z</time>
      </trkpt>
      <trkpt lat="43.49253" lon="3.84881">
        <ele>52</ele>
        <time>2016-04-17T14:52:01.943Z</time>
      </trkpt>
      <trkpt lat="43.49256" lon="3.8489">
        <ele>50</ele>
        <time>2016-04-17T14:52:03.968Z</time>
      </trkpt>
      <trkpt lat="43.49259" lon="3.84895">
        <ele>51</ele>
        <time>2016-04-17T14:52:04.941Z</time>
      </trkpt>
      <trkpt lat="43.49265" lon="3.84904">
        <ele>51</ele>
        <time>2016-04-17T14:52:06.968Z</time>
      </trkpt>
      <trkpt lat="43.49267" lon="3.84907">
        <ele>52</ele>
        <time>2016-04-17T14:52:07.941Z</time>
      </trkpt>
      <trkpt lat="43.49271" lon="3.84915">
        <ele>50</ele>
        <time>2016-04-17T14:52:10.973Z</time>
      </trkpt>
      <trkpt lat="43.49275" lon="3.84916">
        <ele>51</ele>
        <time>2016-04-17T14:52:11.939Z</time>
      </trkpt>
      <trkpt lat="43.49281" lon="3.84923">
        <ele>52</ele>
        <time>2016-04-17T14:52:14.971Z</time>
      </trkpt>
      <trkpt lat="43.49283" lon="3.84928">
        <ele>52</ele>
        <time>2016-04-17T14:52:15.941Z</time>
      </trkpt>
      <trkpt lat="43.49289" lon="3.84936">
        <ele>51</ele>
        <time>2016-04-17T14:52:18.968Z</time>
      </trkpt>
      <trkpt lat="43.49292" lon="3.84941">
        <ele>51</ele>
        <time>2016-04-17T14:52:19.940Z</time>
      </trkpt>
      <trkpt lat="43.49297" lon="3.84948">
        <ele>50</ele>
        <time>2016-04-17T14:52:22.086Z</time>
      </trkpt>
      <trkpt lat="43.49299" lon="3.8495">
        <ele>50</ele>
        <time>2016-04-17T14:52:22.940Z</time>
      </trkpt>
      <trkpt lat="43.49306" lon="3.84956">
        <ele>50</ele>
        <time>2016-04-17T14:52:25.971Z</time>
      </trkpt>
      <trkpt lat="43.49306" lon="3.84957">
        <ele>50</ele>
        <time>2016-04-17T14:52:26.942Z</time>
      </trkpt>
      <trkpt lat="43.49312" lon="3.8496">
        <ele>51</ele>
        <time>2016-04-17T14:52:29.968Z</time>
      </trkpt>
      <trkpt lat="43.49314" lon="3.84962">
        <ele>52</ele>
        <time>2016-04-17T14:52:30.941Z</time>
      </trkpt>
      <trkpt lat="43.49319" lon="3.84967">
        <ele>52</ele>
        <time>2016-04-17T14:52:32.958Z</time>
      </trkpt>
      <trkpt lat="43.4932" lon="3.84973">
        <ele>50</ele>
        <time>2016-04-17T14:52:33.940Z</time>
      </trkpt>
      <trkpt lat="43.49327" lon="3.84979">
        <ele>51</ele>
        <time>2016-04-17T14:52:35.969Z</time>
      </trkpt>
      <trkpt lat="43.49329" lon="3.84981">
        <ele>51</ele>
        <time>2016-04-17T14:52:36.943Z</time>
      </trkpt>
      <trkpt lat="43.49334" lon="3.84987">
        <ele>51</ele>
        <time>2016-04-17T14:52:38.965Z</time>
      </trkpt>
      <trkpt lat="43.49337" lon="3.84992">
        <ele>50</ele>
        <time>2016-04-17T14:52:39.942Z</time>
      </trkpt>
      <trkpt lat="43.49342" lon="3.84999">
        <ele>49</ele>
        <time>2016-04-17T14:52:41.968Z</time>
      </trkpt>
      <trkpt lat="43.49343" lon="3.85002">
        <ele>50</ele>
        <time>2016-04-17T14:52:42.941Z</time>
      </trkpt>
      <trkpt lat="43.4935" lon="3.85008">
        <ele>52</ele>
        <time>2016-04-17T14:52:45.969Z</time>
      </trkpt>
      <trkpt lat="43.49353" lon="3.8501">
        <ele>52</ele>
        <time>2016-04-17T14:52:46.942Z</time>
      </trkpt>
      <trkpt lat="43.4936" lon="3.85015">
        <ele>53</ele>
        <time>2016-04-17T14:52:49.969Z</time>
      </trkpt>
      <trkpt lat="43.49363" lon="3.85017">
        <ele>53</ele>
        <time>2016-04-17T14:52:50.937Z</time>
      </trkpt>
      <trkpt lat="43.49369" lon="3.85023">
        <ele>52</ele>
        <time>2016-04-17T14:52:52.962Z</time>
      </trkpt>
      <trkpt lat="43.49372" lon="3.8503">
        <ele>51</ele>
        <time>2016-04-17T14:52:53.942Z</time>
      </trkpt>
      <trkpt lat="43.49376" lon="3.85032">
        <ele>52</ele>
        <time>2016-04-17T14:52:54.967Z</time>
      </trkpt>
      <trkpt lat="43.4938" lon="3.85044">
        <ele>49</ele>
        <time>2016-04-17T14:52:55.942Z</time>
      </trkpt>
      <trkpt lat="43.49382" lon="3.85052">
        <ele>49</ele>
        <time>2016-04-17T14:52:57.971Z</time>
      </trkpt>
      <trkpt lat="43.49385" lon="3.85055">
        <ele>50</ele>
        <time>2016-04-17T14:52:58.966Z</time>
      </trkpt>
      <trkpt lat="43.49389" lon="3.85063">
        <ele>50</ele>
        <time>2016-04-17T14:53:00.970Z</time>
      </trkpt>
      <trkpt lat="43.49392" lon="3.8507">
        <ele>51</ele>
        <time>2016-04-17T14:53:01.941Z</time>
      </trkpt>
      <trkpt lat="43.49398" lon="3.85074">
        <ele>50</ele>
        <time>2016-04-17T14:53:02.971Z</time>
      </trkpt>
      <trkpt lat="43.49402" lon="3.85077">
        <ele>49</ele>
        <time>2016-04-17T14:53:03.942Z</time>
      </trkpt>
      <trkpt lat="43.49406" lon="3.85084">
        <ele>50</ele>
        <time>2016-04-17T14:53:05.970Z</time>
      </trkpt>
      <trkpt lat="43.4941" lon="3.85088">
        <ele>50</ele>
        <time>2016-04-17T14:53:06.940Z</time>
      </trkpt>
      <trkpt lat="43.49412" lon="3.85091">
        <ele>51</ele>
        <time>2016-04-17T14:53:07.973Z</time>
      </trkpt>
      <trkpt lat="43.49421" lon="3.85099">
        <ele>49</ele>
        <time>2016-04-17T14:53:08.941Z</time>
      </trkpt>
      <trkpt lat="43.49428" lon="3.85105">
        <ele>50</ele>
        <time>2016-04-17T14:53:12.030Z</time>
      </trkpt>
      <trkpt lat="43.4943" lon="3.85108">
        <ele>50</ele>
        <time>2016-04-17T14:53:12.942Z</time>
      </trkpt>
      <trkpt lat="43.49437" lon="3.85115">
        <ele>49</ele>
        <time>2016-04-17T14:53:14.993Z</time>
      </trkpt>
      <trkpt lat="43.49439" lon="3.85119">
        <ele>50</ele>
        <time>2016-04-17T14:53:15.942Z</time>
      </trkpt>
      <trkpt lat="43.49444" lon="3.85124">
        <ele>50</ele>
        <time>2016-04-17T14:53:17.971Z</time>
      </trkpt>
      <trkpt lat="43.49448" lon="3.85134">
        <ele>46</ele>
        <time>2016-04-17T14:53:18.942Z</time>
      </trkpt>
      <trkpt lat="43.49451" lon="3.85139">
        <ele>45</ele>
        <time>2016-04-17T14:53:19.969Z</time>
      </trkpt>
      <trkpt lat="43.49455" lon="3.85144">
        <ele>43</ele>
        <time>2016-04-17T14:53:20.941Z</time>
      </trkpt>
      <trkpt lat="43.49458" lon="3.85149">
        <ele>42</ele>
        <time>2016-04-17T14:53:21.970Z</time>
      </trkpt>
      <trkpt lat="43.4946" lon="3.85153">
        <ele>42</ele>
        <time>2016-04-17T14:53:22.942Z</time>
      </trkpt>
      <trkpt lat="43.49467" lon="3.85159">
        <ele>43</ele>
        <time>2016-04-17T14:53:25.971Z</time>
      </trkpt>
      <trkpt lat="43.49469" lon="3.85162">
        <ele>43</ele>
        <time>2016-04-17T14:53:26.941Z</time>
      </trkpt>
      <trkpt lat="43.49475" lon="3.85169">
        <ele>42</ele>
        <time>2016-04-17T14:53:28.969Z</time>
      </trkpt>
      <trkpt lat="43.49477" lon="3.85174">
        <ele>43</ele>
        <time>2016-04-17T14:53:29.940Z</time>
      </trkpt>
      <trkpt lat="43.49483" lon="3.8518">
        <ele>44</ele>
        <time>2016-04-17T14:53:31.970Z</time>
      </trkpt>
      <trkpt lat="43.49485" lon="3.85182">
        <ele>44</ele>
        <time>2016-04-17T14:53:32.941Z</time>
      </trkpt>
      <trkpt lat="43.4949" lon="3.85188">
        <ele>44</ele>
        <time>2016-04-17T14:53:34.970Z</time>
      </trkpt>
      <trkpt lat="43.49493" lon="3.85193">
        <ele>44</ele>
        <time>2016-04-17T14:53:35.939Z</time>
      </trkpt>
      <trkpt lat="43.49496" lon="3.85198">
        <ele>44</ele>
        <time>2016-04-17T14:53:38.969Z</time>
      </trkpt>
      <trkpt lat="43.495" lon="3.85202">
        <ele>42</ele>
        <time>2016-04-17T14:53:39.940Z</time>
      </trkpt>
      <trkpt lat="43.49505" lon="3.85208">
        <ele>43</ele>
        <time>2016-04-17T14:53:41.968Z</time>
      </trkpt>
      <trkpt lat="43.49508" lon="3.8521">
        <ele>44</ele>
        <time>2016-04-17T14:53:42.940Z</time>
      </trkpt>
      <trkpt lat="43.49513" lon="3.85216">
        <ele>42</ele>
        <time>2016-04-17T14:53:44.970Z</time>
      </trkpt>
      <trkpt lat="43.49516" lon="3.8522">
        <ele>42</ele>
        <time>2016-04-17T14:53:45.941Z</time>
      </trkpt>
      <trkpt lat="43.4952" lon="3.85227">
        <ele>43</ele>
        <time>2016-04-17T14:53:47.969Z</time>
      </trkpt>
      <trkpt lat="43.49523" lon="3.85231">
        <ele>43</ele>
        <time>2016-04-17T14:53:48.944Z</time>
      </trkpt>
      <trkpt lat="43.49529" lon="3.85238">
        <ele>43</ele>
        <time>2016-04-17T14:53:51.968Z</time>
      </trkpt>
      <trkpt lat="43.49532" lon="3.85244">
        <ele>40</ele>
        <time>2016-04-17T14:53:52.942Z</time>
      </trkpt>
      <trkpt lat="43.49534" lon="3.85248">
        <ele>39</ele>
        <time>2016-04-17T14:53:53.969Z</time>
      </trkpt>
      <trkpt lat="43.49537" lon="3.85255">
        <ele>37</ele>
        <time>2016-04-17T14:53:54.942Z</time>
      </trkpt>
      <trkpt lat="43.4954" lon="3.85259">
        <ele>37</ele>
        <time>2016-04-17T14:53:56.969Z</time>
      </trkpt>
      <trkpt lat="43.49546" lon="3.85263">
        <ele>35</ele>
        <time>2016-04-17T14:53:57.943Z</time>
      </trkpt>
      <trkpt lat="43.49552" lon="3.8527">
        <ele>37</ele>
        <time>2016-04-17T14:54:00.968Z</time>
      </trkpt>
      <trkpt lat="43.49555" lon="3.85274">
        <ele>38</ele>
        <time>2016-04-17T14:54:01.940Z</time>
      </trkpt>
      <trkpt lat="43.4956" lon="3.85283">
        <ele>41</ele>
        <time>2016-04-17T14:54:04.970Z</time>
      </trkpt>
      <trkpt lat="43.49562" lon="3.85285">
        <ele>41</ele>
        <time>2016-04-17T14:54:05.942Z</time>
      </trkpt>
      <trkpt lat="43.49567" lon="3.85289">
        <ele>42</ele>
        <time>2016-04-17T14:54:07.973Z</time>
      </trkpt>
      <trkpt lat="43.4957" lon="3.85293">
        <ele>42</ele>
        <time>2016-04-17T14:54:08.943Z</time>
      </trkpt>
      <trkpt lat="43.49574" lon="3.85298">
        <ele>42</ele>
        <time>2016-04-17T14:54:10.971Z</time>
      </trkpt>
      <trkpt lat="43.49576" lon="3.85302">
        <ele>43</ele>
        <time>2016-04-17T14:54:11.942Z</time>
      </trkpt>
      <trkpt lat="43.4958" lon="3.85307">
        <ele>40</ele>
        <time>2016-04-17T14:54:12.968Z</time>
      </trkpt>
      <trkpt lat="43.49582" lon="3.85312">
        <ele>39</ele>
        <time>2016-04-17T14:54:13.940Z</time>
      </trkpt>
      <trkpt lat="43.49586" lon="3.8532">
        <ele>41</ele>
        <time>2016-04-17T14:54:15.970Z</time>
      </trkpt>
      <trkpt lat="43.49588" lon="3.85324">
        <ele>41</ele>
        <time>2016-04-17T14:54:16.941Z</time>
      </trkpt>
      <trkpt lat="43.49592" lon="3.85331">
        <ele>39</ele>
        <time>2016-04-17T14:54:17.969Z</time>
      </trkpt>
      <trkpt lat="43.49595" lon="3.85336">
        <ele>39</ele>
        <time>2016-04-17T14:54:18.966Z</time>
      </trkpt>
      <trkpt lat="43.49599" lon="3.85339">
        <ele>40</ele>
        <time>2016-04-17T14:54:20.970Z</time>
      </trkpt>
      <trkpt lat="43.49604" lon="3.85346">
        <ele>37</ele>
        <time>2016-04-17T14:54:21.942Z</time>
      </trkpt>
      <trkpt lat="43.49608" lon="3.85351">
        <ele>38</ele>
        <time>2016-04-17T14:54:23.969Z</time>
      </trkpt>
      <trkpt lat="43.49611" lon="3.85355">
        <ele>38</ele>
        <time>2016-04-17T14:54:24.941Z</time>
      </trkpt>
      <trkpt lat="43.49616" lon="3.85362">
        <ele>38</ele>
        <time>2016-04-17T14:54:26.961Z</time>
      </trkpt>
      <trkpt lat="43.49621" lon="3.85366">
        <ele>36</ele>
        <time>2016-04-17T14:54:27.941Z</time>
      </trkpt>
      <trkpt lat="43.49628" lon="3.85373">
        <ele>38</ele>
        <time>2016-04-17T14:54:31.969Z</time>
      </trkpt>
      <trkpt lat="43.49631" lon="3.85381">
        <ele>36</ele>
        <time>2016-04-17T14:54:32.941Z</time>
      </trkpt>
      <trkpt lat="43.49637" lon="3.8539">
        <ele>36</ele>
        <time>2016-04-17T14:54:34.994Z</time>
      </trkpt>
      <trkpt lat="43.49641" lon="3.85393">
        <ele>35</ele>
        <time>2016-04-17T14:54:35.941Z</time>
      </trkpt>
      <trkpt lat="43.49646" lon="3.85399">
        <ele>35</ele>
        <time>2016-04-17T14:54:37.971Z</time>
      </trkpt>
      <trkpt lat="43.4965" lon="3.85403">
        <ele>36</ele>
        <time>2016-04-17T14:54:38.942Z</time>
      </trkpt>
      <trkpt lat="43.49654" lon="3.85409">
        <ele>36</ele>
        <time>2016-04-17T14:54:40.969Z</time>
      </trkpt>
      <trkpt lat="43.49657" lon="3.85414">
        <ele>37</ele>
        <time>2016-04-17T14:54:41.942Z</time>
      </trkpt>
      <trkpt lat="43.49663" lon="3.85419">
        <ele>38</ele>
        <time>2016-04-17T14:54:43.971Z</time>
      </trkpt>
      <trkpt lat="43.49665" lon="3.85422">
        <ele>40</ele>
        <time>2016-04-17T14:54:44.942Z</time>
      </trkpt>
      <trkpt lat="43.49671" lon="3.85431">
        <ele>41</ele>
        <time>2016-04-17T14:54:46.964Z</time>
      </trkpt>
      <trkpt lat="43.49673" lon="3.85435">
        <ele>40</ele>
        <time>2016-04-17T14:54:47.965Z</time>
      </trkpt>
      <trkpt lat="43.49679" lon="3.85441">
        <ele>41</ele>
        <time>2016-04-17T14:54:50.993Z</time>
      </trkpt>
      <trkpt lat="43.49682" lon="3.85446">
        <ele>41</ele>
        <time>2016-04-17T14:54:51.942Z</time>
      </trkpt>
      <trkpt lat="43.49687" lon="3.85452">
        <ele>41</ele>
        <time>2016-04-17T14:54:53.970Z</time>
      </trkpt>
      <trkpt lat="43.49691" lon="3.85456">
        <ele>41</ele>
        <time>2016-04-17T14:54:54.942Z</time>
      </trkpt>
      <trkpt lat="43.49694" lon="3.85462">
        <ele>42</ele>
        <time>2016-04-17T14:54:56.970Z</time>
      </trkpt>
      <trkpt lat="43.49698" lon="3.85466">
        <ele>42</ele>
        <time>2016-04-17T14:54:57.941Z</time>
      </trkpt>
      <trkpt lat="43.49706" lon="3.85471">
        <ele>44</ele>
        <time>2016-04-17T14:55:00.971Z</time>
      </trkpt>
      <trkpt lat="43.49708" lon="3.85474">
        <ele>45</ele>
        <time>2016-04-17T14:55:01.967Z</time>
      </trkpt>
      <trkpt lat="43.49715" lon="3.85479">
        <ele>47</ele>
        <time>2016-04-17T14:55:04.952Z</time>
      </trkpt>
      <trkpt lat="43.49717" lon="3.85482">
        <ele>47</ele>
        <time>2016-04-17T14:55:05.942Z</time>
      </trkpt>
      <trkpt lat="43.49723" lon="3.85491">
        <ele>47</ele>
        <time>2016-04-17T14:55:07.971Z</time>
      </trkpt>
      <trkpt lat="43.49726" lon="3.85494">
        <ele>48</ele>
        <time>2016-04-17T14:55:08.943Z</time>
      </trkpt>
      <trkpt lat="43.4973" lon="3.85501">
        <ele>48</ele>
        <time>2016-04-17T14:55:10.969Z</time>
      </trkpt>
      <trkpt lat="43.49732" lon="3.85505">
        <ele>48</ele>
        <time>2016-04-17T14:55:11.941Z</time>
      </trkpt>
      <trkpt lat="43.49737" lon="3.85512">
        <ele>48</ele>
        <time>2016-04-17T14:55:13.971Z</time>
      </trkpt>
      <trkpt lat="43.4974" lon="3.85514">
        <ele>48</ele>
        <time>2016-04-17T14:55:14.942Z</time>
      </trkpt>
      <trkpt lat="43.49744" lon="3.85522">
        <ele>49</ele>
        <time>2016-04-17T14:55:15.970Z</time>
      </trkpt>
      <trkpt lat="43.49747" lon="3.85527">
        <ele>50</ele>
        <time>2016-04-17T14:55:16.938Z</time>
      </trkpt>
      <trkpt lat="43.49754" lon="3.8553">
        <ele>52</ele>
        <time>2016-04-17T14:55:20.972Z</time>
      </trkpt>
      <trkpt lat="43.49756" lon="3.85531">
        <ele>51</ele>
        <time>2016-04-17T14:55:21.944Z</time>
      </trkpt>
      <trkpt lat="43.49761" lon="3.85537">
        <ele>51</ele>
        <time>2016-04-17T14:55:23.962Z</time>
      </trkpt>
      <trkpt lat="43.49763" lon="3.85541">
        <ele>51</ele>
        <time>2016-04-17T14:55:24.941Z</time>
      </trkpt>
      <trkpt lat="43.49768" lon="3.85546">
        <ele>54</ele>
        <time>2016-04-17T14:55:27.969Z</time>
      </trkpt>
      <trkpt lat="43.49772" lon="3.85551">
        <ele>56</ele>
        <time>2016-04-17T14:55:28.941Z</time>
      </trkpt>
      <trkpt lat="43.49778" lon="3.85558">
        <ele>58</ele>
        <time>2016-04-17T14:55:30.970Z</time>
      </trkpt>
      <trkpt lat="43.49778" lon="3.85559">
        <ele>57</ele>
        <time>2016-04-17T14:55:31.943Z</time>
      </trkpt>
      <trkpt lat="43.49784" lon="3.85566">
        <ele>56</ele>
        <time>2016-04-17T14:55:33.994Z</time>
      </trkpt>
      <trkpt lat="43.49786" lon="3.85569">
        <ele>56</ele>
        <time>2016-04-17T14:55:34.940Z</time>
      </trkpt>
      <trkpt lat="43.49789" lon="3.85573">
        <ele>56</ele>
        <time>2016-04-17T14:55:35.969Z</time>
      </trkpt>
      <trkpt lat="43.49794" lon="3.85578">
        <ele>55</ele>
        <time>2016-04-17T14:55:36.942Z</time>
      </trkpt>
      <trkpt lat="43.49798" lon="3.85584">
        <ele>52</ele>
        <time>2016-04-17T14:55:38.969Z</time>
      </trkpt>
      <trkpt lat="43.49802" lon="3.85587">
        <ele>54</ele>
        <time>2016-04-17T14:55:39.942Z</time>
      </trkpt>
      <trkpt lat="43.49808" lon="3.85595">
        <ele>55</ele>
        <time>2016-04-17T14:55:41.972Z</time>
      </trkpt>
      <trkpt lat="43.4981" lon="3.85598">
        <ele>54</ele>
        <time>2016-04-17T14:55:42.942Z</time>
      </trkpt>
      <trkpt lat="43.49815" lon="3.85606">
        <ele>55</ele>
        <time>2016-04-17T14:55:44.959Z</time>
      </trkpt>
      <trkpt lat="43.49817" lon="3.85608">
        <ele>54</ele>
        <time>2016-04-17T14:55:45.939Z</time>
      </trkpt>
      <trkpt lat="43.4982" lon="3.85612">
        <ele>54</ele>
        <time>2016-04-17T14:55:46.971Z</time>
      </trkpt>
      <trkpt lat="43.49823" lon="3.85619">
        <ele>53</ele>
        <time>2016-04-17T14:55:47.944Z</time>
      </trkpt>
      <trkpt lat="43.49828" lon="3.85625">
        <ele>53</ele>
        <time>2016-04-17T14:55:49.993Z</time>
      </trkpt>
      <trkpt lat="43.49831" lon="3.85629">
        <ele>53</ele>
        <time>2016-04-17T14:55:50.940Z</time>
      </trkpt>
      <trkpt lat="43.49836" lon="3.85632">
        <ele>53</ele>
        <time>2016-04-17T14:55:52.970Z</time>
      </trkpt>
      <trkpt lat="43.49839" lon="3.85638">
        <ele>53</ele>
        <time>2016-04-17T14:55:53.939Z</time>
      </trkpt>
      <trkpt lat="43.49843" lon="3.85646">
        <ele>54</ele>
        <time>2016-04-17T14:55:55.969Z</time>
      </trkpt>
      <trkpt lat="43.49847" lon="3.85651">
        <ele>53</ele>
        <time>2016-04-17T14:55:56.941Z</time>
      </trkpt>
      <trkpt lat="43.49853" lon="3.8566">
        <ele>52</ele>
        <time>2016-04-17T14:55:59.971Z</time>
      </trkpt>
      <trkpt lat="43.49855" lon="3.85663">
        <ele>52</ele>
        <time>2016-04-17T14:56:00.942Z</time>
      </trkpt>
      <trkpt lat="43.4986" lon="3.85671">
        <ele>54</ele>
        <time>2016-04-17T14:56:02.970Z</time>
      </trkpt>
      <trkpt lat="43.49861" lon="3.85672">
        <ele>54</ele>
        <time>2016-04-17T14:56:03.942Z</time>
      </trkpt>
      <trkpt lat="43.49867" lon="3.85679">
        <ele>59</ele>
        <time>2016-04-17T14:56:06.971Z</time>
      </trkpt>
      <trkpt lat="43.4987" lon="3.85683">
        <ele>60</ele>
        <time>2016-04-17T14:56:07.941Z</time>
      </trkpt>
      <trkpt lat="43.49872" lon="3.85687">
        <ele>59</ele>
        <time>2016-04-17T14:56:08.970Z</time>
      </trkpt>
      <trkpt lat="43.49875" lon="3.85695">
        <ele>57</ele>
        <time>2016-04-17T14:56:09.943Z</time>
      </trkpt>
      <trkpt lat="43.49882" lon="3.85702">
        <ele>55</ele>
        <time>2016-04-17T14:56:12.961Z</time>
      </trkpt>
      <trkpt lat="43.49887" lon="3.85703">
        <ele>55</ele>
        <time>2016-04-17T14:56:13.942Z</time>
      </trkpt>
      <trkpt lat="43.49893" lon="3.85711">
        <ele>54</ele>
        <time>2016-04-17T14:56:15.969Z</time>
      </trkpt>
      <trkpt lat="43.49893" lon="3.85715">
        <ele>55</ele>
        <time>2016-04-17T14:56:16.944Z</time>
      </trkpt>
      <trkpt lat="43.49899" lon="3.85725">
        <ele>53</ele>
        <time>2016-04-17T14:56:19.969Z</time>
      </trkpt>
      <trkpt lat="43.49902" lon="3.85727">
        <ele>52</ele>
        <time>2016-04-17T14:56:20.941Z</time>
      </trkpt>
      <trkpt lat="43.49906" lon="3.85735">
        <ele>50</ele>
        <time>2016-04-17T14:56:21.969Z</time>
      </trkpt>
      <trkpt lat="43.49908" lon="3.85737">
        <ele>50</ele>
        <time>2016-04-17T14:56:22.940Z</time>
      </trkpt>
      <trkpt lat="43.49911" lon="3.85743">
        <ele>50</ele>
        <time>2016-04-17T14:56:24.969Z</time>
      </trkpt>
      <trkpt lat="43.49914" lon="3.8575">
        <ele>49</ele>
        <time>2016-04-17T14:56:25.942Z</time>
      </trkpt>
      <trkpt lat="43.49921" lon="3.85758">
        <ele>51</ele>
        <time>2016-04-17T14:56:28.970Z</time>
      </trkpt>
      <trkpt lat="43.49923" lon="3.8576">
        <ele>50</ele>
        <time>2016-04-17T14:56:29.942Z</time>
      </trkpt>
      <trkpt lat="43.4993" lon="3.85767">
        <ele>50</ele>
        <time>2016-04-17T14:56:32.968Z</time>
      </trkpt>
      <trkpt lat="43.49933" lon="3.8577">
        <ele>51</ele>
        <time>2016-04-17T14:56:33.940Z</time>
      </trkpt>
      <trkpt lat="43.49939" lon="3.85775">
        <ele>52</ele>
        <time>2016-04-17T14:56:35.969Z</time>
      </trkpt>
      <trkpt lat="43.49942" lon="3.85778">
        <ele>52</ele>
        <time>2016-04-17T14:56:36.968Z</time>
      </trkpt>
      <trkpt lat="43.49949" lon="3.85785">
        <ele>51</ele>
        <time>2016-04-17T14:56:39.970Z</time>
      </trkpt>
      <trkpt lat="43.49952" lon="3.85788">
        <ele>52</ele>
        <time>2016-04-17T14:56:40.941Z</time>
      </trkpt>
      <trkpt lat="43.49957" lon="3.8579">
        <ele>51</ele>
        <time>2016-04-17T14:56:42.969Z</time>
      </trkpt>
      <trkpt lat="43.49959" lon="3.85796">
        <ele>52</ele>
        <time>2016-04-17T14:56:43.940Z</time>
      </trkpt>
      <trkpt lat="43.49963" lon="3.85805">
        <ele>51</ele>
        <time>2016-04-17T14:56:45.969Z</time>
      </trkpt>
      <trkpt lat="43.49965" lon="3.85807">
        <ele>50</ele>
        <time>2016-04-17T14:56:46.942Z</time>
      </trkpt>
      <trkpt lat="43.49968" lon="3.85814">
        <ele>50</ele>
        <time>2016-04-17T14:56:48.971Z</time>
      </trkpt>
      <trkpt lat="43.49971" lon="3.85816">
        <ele>51</ele>
        <time>2016-04-17T14:56:49.942Z</time>
      </trkpt>
      <trkpt lat="43.49975" lon="3.85821">
        <ele>53</ele>
        <time>2016-04-17T14:56:51.970Z</time>
      </trkpt>
      <trkpt lat="43.49979" lon="3.85826">
        <ele>53</ele>
        <time>2016-04-17T14:56:52.941Z</time>
      </trkpt>
      <trkpt lat="43.49983" lon="3.85831">
        <ele>53</ele>
        <time>2016-04-17T14:56:54.965Z</time>
      </trkpt>
      <trkpt lat="43.49987" lon="3.85833">
        <ele>52</ele>
        <time>2016-04-17T14:56:55.943Z</time>
      </trkpt>
      <trkpt lat="43.49992" lon="3.85839">
        <ele>52</ele>
        <time>2016-04-17T14:56:57.969Z</time>
      </trkpt>
      <trkpt lat="43.49995" lon="3.85844">
        <ele>52</ele>
        <time>2016-04-17T14:56:58.941Z</time>
      </trkpt>
      <trkpt lat="43.50003" lon="3.8585">
        <ele>53</ele>
        <time>2016-04-17T14:57:01.971Z</time>
      </trkpt>
      <trkpt lat="43.50005" lon="3.85853">
        <ele>52</ele>
        <time>2016-04-17T14:57:02.943Z</time>
      </trkpt>
      <trkpt lat="43.5001" lon="3.85863">
        <ele>49</ele>
        <time>2016-04-17T14:57:04.973Z</time>
      </trkpt>
      <trkpt lat="43.50013" lon="3.85866">
        <ele>50</ele>
        <time>2016-04-17T14:57:05.944Z</time>
      </trkpt>
      <trkpt lat="43.5002" lon="3.85872">
        <ele>53</ele>
        <time>2016-04-17T14:57:10.969Z</time>
      </trkpt>
      <trkpt lat="43.50021" lon="3.85874">
        <ele>53</ele>
        <time>2016-04-17T14:57:11.943Z</time>
      </trkpt>
      <trkpt lat="43.50028" lon="3.8588">
        <ele>54</ele>
        <time>2016-04-17T14:57:15.971Z</time>
      </trkpt>
      <trkpt lat="43.50032" lon="3.85885">
        <ele>53</ele>
        <time>2016-04-17T14:57:16.942Z</time>
      </trkpt>
      <trkpt lat="43.50038" lon="3.85893">
        <ele>54</ele>
        <time>2016-04-17T14:57:18.974Z</time>
      </trkpt>
      <trkpt lat="43.5004" lon="3.85897">
        <ele>55</ele>
        <time>2016-04-17T14:57:19.970Z</time>
      </trkpt>
      <trkpt lat="43.50045" lon="3.85907">
        <ele>54</ele>
        <time>2016-04-17T14:57:22.047Z</time>
      </trkpt>
      <trkpt lat="43.50048" lon="3.8591">
        <ele>55</ele>
        <time>2016-04-17T14:57:22.941Z</time>
      </trkpt>
      <trkpt lat="43.50051" lon="3.85916">
        <ele>54</ele>
        <time>2016-04-17T14:57:24.969Z</time>
      </trkpt>
      <trkpt lat="43.50054" lon="3.85919">
        <ele>55</ele>
        <time>2016-04-17T14:57:25.942Z</time>
      </trkpt>
      <trkpt lat="43.50059" lon="3.85926">
        <ele>55</ele>
        <time>2016-04-17T14:57:27.974Z</time>
      </trkpt>
      <trkpt lat="43.50062" lon="3.8593">
        <ele>55</ele>
        <time>2016-04-17T14:57:28.943Z</time>
      </trkpt>
      <trkpt lat="43.50067" lon="3.85937">
        <ele>55</ele>
        <time>2016-04-17T14:57:31.006Z</time>
      </trkpt>
      <trkpt lat="43.5007" lon="3.85942">
        <ele>53</ele>
        <time>2016-04-17T14:57:31.942Z</time>
      </trkpt>
      <trkpt lat="43.50077" lon="3.85951">
        <ele>50</ele>
        <time>2016-04-17T14:57:34.971Z</time>
      </trkpt>
      <trkpt lat="43.50079" lon="3.85954">
        <ele>50</ele>
        <time>2016-04-17T14:57:35.942Z</time>
      </trkpt>
      <trkpt lat="43.50084" lon="3.8596">
        <ele>51</ele>
        <time>2016-04-17T14:57:38.970Z</time>
      </trkpt>
      <trkpt lat="43.50086" lon="3.85963">
        <ele>51</ele>
        <time>2016-04-17T14:57:39.941Z</time>
      </trkpt>
      <trkpt lat="43.50091" lon="3.85969">
        <ele>49</ele>
        <time>2016-04-17T14:57:41.971Z</time>
      </trkpt>
      <trkpt lat="43.50094" lon="3.85973">
        <ele>49</ele>
        <time>2016-04-17T14:57:42.940Z</time>
      </trkpt>
      <trkpt lat="43.50101" lon="3.85978">
        <ele>50</ele>
        <time>2016-04-17T14:57:45.971Z</time>
      </trkpt>
      <trkpt lat="43.50104" lon="3.85982">
        <ele>49</ele>
        <time>2016-04-17T14:57:46.967Z</time>
      </trkpt>
      <trkpt lat="43.50109" lon="3.85991">
        <ele>49</ele>
        <time>2016-04-17T14:57:50.091Z</time>
      </trkpt>
      <trkpt lat="43.50112" lon="3.85994">
        <ele>49</ele>
        <time>2016-04-17T14:57:50.942Z</time>
      </trkpt>
      <trkpt lat="43.50114" lon="3.85996">
        <ele>49</ele>
        <time>2016-04-17T14:57:51.968Z</time>
      </trkpt>
      <trkpt lat="43.50118" lon="3.86003">
        <ele>48</ele>
        <time>2016-04-17T14:57:52.940Z</time>
      </trkpt>
      <trkpt lat="43.50125" lon="3.86008">
        <ele>48</ele>
        <time>2016-04-17T14:57:57.972Z</time>
      </trkpt>
      <trkpt lat="43.50126" lon="3.8601">
        <ele>49</ele>
        <time>2016-04-17T14:57:58.940Z</time>
      </trkpt>
      <trkpt lat="43.50131" lon="3.86018">
        <ele>48</ele>
        <time>2016-04-17T14:58:03.047Z</time>
      </trkpt>
      <trkpt lat="43.50132" lon="3.8602">
        <ele>49</ele>
        <time>2016-04-17T14:58:03.941Z</time>
      </trkpt>
      <trkpt lat="43.50138" lon="3.86022">
        <ele>50</ele>
        <time>2016-04-17T14:58:06.971Z</time>
      </trkpt>
      <trkpt lat="43.5014" lon="3.86024">
        <ele>50</ele>
        <time>2016-04-17T14:58:07.941Z</time>
      </trkpt>
      <trkpt lat="43.50145" lon="3.86034">
        <ele>49</ele>
        <time>2016-04-17T14:58:11.970Z</time>
      </trkpt>
      <trkpt lat="43.50147" lon="3.86036">
        <ele>49</ele>
        <time>2016-04-17T14:58:12.942Z</time>
      </trkpt>
      <trkpt lat="43.50153" lon="3.86043">
        <ele>48</ele>
        <time>2016-04-17T14:58:15.970Z</time>
      </trkpt>
      <trkpt lat="43.50154" lon="3.86045">
        <ele>49</ele>
        <time>2016-04-17T14:58:17.080Z</time>
      </trkpt>
      <trkpt lat="43.50159" lon="3.86052">
        <ele>47</ele>
        <time>2016-04-17T14:58:18.993Z</time>
      </trkpt>
      <trkpt lat="43.5016" lon="3.86055">
        <ele>47</ele>
        <time>2016-04-17T14:58:19.942Z</time>
      </trkpt>
      <trkpt lat="43.50166" lon="3.86062">
        <ele>50</ele>
        <time>2016-04-17T14:58:22.971Z</time>
      </trkpt>
      <trkpt lat="43.50168" lon="3.86064">
        <ele>49</ele>
        <time>2016-04-17T14:58:23.942Z</time>
      </trkpt>
      <trkpt lat="43.50172" lon="3.86069">
        <ele>49</ele>
        <time>2016-04-17T14:58:25.969Z</time>
      </trkpt>
      <trkpt lat="43.50175" lon="3.86074">
        <ele>49</ele>
        <time>2016-04-17T14:58:26.941Z</time>
      </trkpt>
      <trkpt lat="43.50181" lon="3.86083">
        <ele>48</ele>
        <time>2016-04-17T14:58:30.971Z</time>
      </trkpt>
      <trkpt lat="43.50183" lon="3.86084">
        <ele>48</ele>
        <time>2016-04-17T14:58:31.942Z</time>
      </trkpt>
      <trkpt lat="43.50188" lon="3.86091">
        <ele>48</ele>
        <time>2016-04-17T14:58:34.969Z</time>
      </trkpt>
      <trkpt lat="43.5019" lon="3.86093">
        <ele>49</ele>
        <time>2016-04-17T14:58:35.942Z</time>
      </trkpt>
      <trkpt lat="43.50191" lon="3.86095">
        <ele>48</ele>
        <time>2016-04-17T14:58:36.972Z</time>
      </trkpt>
      <trkpt lat="43.50195" lon="3.86108">
        <ele>45</ele>
        <time>2016-04-17T14:58:37.942Z</time>
      </trkpt>
      <trkpt lat="43.502" lon="3.86112">
        <ele>47</ele>
        <time>2016-04-17T14:58:41.028Z</time>
      </trkpt>
      <trkpt lat="43.50202" lon="3.86115">
        <ele>48</ele>
        <time>2016-04-17T14:58:41.944Z</time>
      </trkpt>
      <trkpt lat="43.50207" lon="3.86117">
        <ele>49</ele>
        <time>2016-04-17T14:58:44.971Z</time>
      </trkpt>
      <trkpt lat="43.50209" lon="3.86125">
        <ele>49</ele>
        <time>2016-04-17T14:58:45.942Z</time>
      </trkpt>
      <trkpt lat="43.50213" lon="3.8613">
        <ele>49</ele>
        <time>2016-04-17T14:58:47.974Z</time>
      </trkpt>
      <trkpt lat="43.50216" lon="3.86134">
        <ele>48</ele>
        <time>2016-04-17T14:58:48.942Z</time>
      </trkpt>
      <trkpt lat="43.5022" lon="3.86139">
        <ele>47</ele>
        <time>2016-04-17T14:58:50.974Z</time>
      </trkpt>
      <trkpt lat="43.50223" lon="3.86144">
        <ele>48</ele>
        <time>2016-04-17T14:58:51.943Z</time>
      </trkpt>
      <trkpt lat="43.50229" lon="3.86151">
        <ele>48</ele>
        <time>2016-04-17T14:58:53.969Z</time>
      </trkpt>
      <trkpt lat="43.5023" lon="3.86153">
        <ele>47</ele>
        <time>2016-04-17T14:58:54.941Z</time>
      </trkpt>
      <trkpt lat="43.50237" lon="3.86158">
        <ele>47</ele>
        <time>2016-04-17T14:58:58.969Z</time>
      </trkpt>
      <trkpt lat="43.5024" lon="3.86162">
        <ele>45</ele>
        <time>2016-04-17T14:58:59.942Z</time>
      </trkpt>
      <trkpt lat="43.50245" lon="3.86169">
        <ele>46</ele>
        <time>2016-04-17T14:59:01.970Z</time>
      </trkpt>
      <trkpt lat="43.50247" lon="3.86172">
        <ele>45</ele>
        <time>2016-04-17T14:59:02.940Z</time>
      </trkpt>
      <trkpt lat="43.50254" lon="3.86176">
        <ele>45</ele>
        <time>2016-04-17T14:59:06.970Z</time>
      </trkpt>
      <trkpt lat="43.50255" lon="3.86179">
        <ele>44</ele>
        <time>2016-04-17T14:59:07.941Z</time>
      </trkpt>
      <trkpt lat="43.50255" lon="3.86179">
        <ele>44</ele>
        <time>2016-04-17T14:59:07.985Z</time>
      </trkpt>
      <trkpt lat="43.5026" lon="3.86193">
        <ele>43</ele>
        <time>2016-04-17T14:59:08.942Z</time>
      </trkpt>
      <trkpt lat="43.50263" lon="3.86196">
        <ele>42</ele>
        <time>2016-04-17T14:59:15.971Z</time>
      </trkpt>
      <trkpt lat="43.50266" lon="3.86204">
        <ele>40</ele>
        <time>2016-04-17T14:59:16.942Z</time>
      </trkpt>
      <trkpt lat="43.50272" lon="3.8621">
        <ele>42</ele>
        <time>2016-04-17T14:59:20.969Z</time>
      </trkpt>
      <trkpt lat="43.50273" lon="3.86213">
        <ele>43</ele>
        <time>2016-04-17T14:59:21.942Z</time>
      </trkpt>
      <trkpt lat="43.5028" lon="3.86217">
        <ele>46</ele>
        <time>2016-04-17T14:59:25.969Z</time>
      </trkpt>
      <trkpt lat="43.50282" lon="3.86219">
        <ele>46</ele>
        <time>2016-04-17T14:59:26.968Z</time>
      </trkpt>
      <trkpt lat="43.50288" lon="3.86227">
        <ele>48</ele>
        <time>2016-04-17T14:59:30.970Z</time>
      </trkpt>
      <trkpt lat="43.50288" lon="3.86228">
        <ele>48</ele>
        <time>2016-04-17T14:59:31.943Z</time>
      </trkpt>
      <trkpt lat="43.50294" lon="3.86236">
        <ele>47</ele>
        <time>2016-04-17T14:59:34.966Z</time>
      </trkpt>
      <trkpt lat="43.50296" lon="3.86239">
        <ele>46</ele>
        <time>2016-04-17T14:59:35.942Z</time>
      </trkpt>
      <trkpt lat="43.50301" lon="3.86245">
        <ele>46</ele>
        <time>2016-04-17T14:59:38.970Z</time>
      </trkpt>
      <trkpt lat="43.50302" lon="3.86249">
        <ele>46</ele>
        <time>2016-04-17T14:59:39.943Z</time>
      </trkpt>
      <trkpt lat="43.50309" lon="3.86254">
        <ele>45</ele>
        <time>2016-04-17T14:59:42.996Z</time>
      </trkpt>
      <trkpt lat="43.5031" lon="3.86256">
        <ele>45</ele>
        <time>2016-04-17T14:59:43.941Z</time>
      </trkpt>
      <trkpt lat="43.50316" lon="3.86261">
        <ele>46</ele>
        <time>2016-04-17T14:59:47.100Z</time>
      </trkpt>
      <trkpt lat="43.50318" lon="3.86265">
        <ele>46</ele>
        <time>2016-04-17T14:59:47.942Z</time>
      </trkpt>
      <trkpt lat="43.50322" lon="3.86272">
        <ele>43</ele>
        <time>2016-04-17T14:59:50.968Z</time>
      </trkpt>
      <trkpt lat="43.50325" lon="3.86274">
        <ele>43</ele>
        <time>2016-04-17T14:59:51.942Z</time>
      </trkpt>
      <trkpt lat="43.50331" lon="3.8628">
        <ele>43</ele>
        <time>2016-04-17T14:59:54.964Z</time>
      </trkpt>
      <trkpt lat="43.50333" lon="3.86282">
        <ele>44</ele>
        <time>2016-04-17T14:59:55.941Z</time>
      </trkpt>
      <trkpt lat="43.50338" lon="3.86286">
        <ele>46</ele>
        <time>2016-04-17T14:59:57.969Z</time>
      </trkpt>
      <trkpt lat="43.50341" lon="3.86289">
        <ele>45</ele>
        <time>2016-04-17T14:59:58.964Z</time>
      </trkpt>
      <trkpt lat="43.50347" lon="3.86298">
        <ele>45</ele>
        <time>2016-04-17T15:00:00.969Z</time>
      </trkpt>
      <trkpt lat="43.50349" lon="3.86301">
        <ele>45</ele>
        <time>2016-04-17T15:00:01.942Z</time>
      </trkpt>
      <trkpt lat="43.50356" lon="3.86309">
        <ele>45</ele>
        <time>2016-04-17T15:00:06.032Z</time>
      </trkpt>
      <trkpt lat="43.50358" lon="3.86312">
        <ele>45</ele>
        <time>2016-04-17T15:00:06.942Z</time>
      </trkpt>
      <trkpt lat="43.50364" lon="3.86317">
        <ele>47</ele>
        <time>2016-04-17T15:00:08.970Z</time>
      </trkpt>
      <trkpt lat="43.50366" lon="3.86319">
        <ele>48</ele>
        <time>2016-04-17T15:00:09.942Z</time>
      </trkpt>
      <trkpt lat="43.50371" lon="3.86324">
        <ele>50</ele>
        <time>2016-04-17T15:00:12.971Z</time>
      </trkpt>
      <trkpt lat="43.50374" lon="3.86327">
        <ele>50</ele>
        <time>2016-04-17T15:00:13.942Z</time>
      </trkpt>
      <trkpt lat="43.50376" lon="3.8633">
        <ele>50</ele>
        <time>2016-04-17T15:00:14.983Z</time>
      </trkpt>
      <trkpt lat="43.5038" lon="3.86336">
        <ele>51</ele>
        <time>2016-04-17T15:00:15.943Z</time>
      </trkpt>
      <trkpt lat="43.50385" lon="3.86342">
        <ele>50</ele>
        <time>2016-04-17T15:00:17.971Z</time>
      </trkpt>
      <trkpt lat="43.5039" lon="3.86354">
        <ele>49</ele>
        <time>2016-04-17T15:00:18.942Z</time>
      </trkpt>
      <trkpt lat="43.50395" lon="3.86362">
        <ele>48</ele>
        <time>2016-04-17T15:00:21.971Z</time>
      </trkpt>
      <trkpt lat="43.50398" lon="3.86364">
        <ele>49</ele>
        <time>2016-04-17T15:00:22.941Z</time>
      </trkpt>
      <trkpt lat="43.50403" lon="3.8637">
        <ele>50</ele>
        <time>2016-04-17T15:00:24.972Z</time>
      </trkpt>
      <trkpt lat="43.50406" lon="3.86373">
        <ele>50</ele>
        <time>2016-04-17T15:00:25.944Z</time>
      </trkpt>
      <trkpt lat="43.50412" lon="3.86381">
        <ele>47</ele>
        <time>2016-04-17T15:00:29.971Z</time>
      </trkpt>
      <trkpt lat="43.50413" lon="3.86383">
        <ele>47</ele>
        <time>2016-04-17T15:00:30.968Z</time>
      </trkpt>
      <trkpt lat="43.50421" lon="3.86389">
        <ele>48</ele>
        <time>2016-04-17T15:00:35.970Z</time>
      </trkpt>
      <trkpt lat="43.50421" lon="3.86388">
        <ele>48</ele>
        <time>2016-04-17T15:00:36.942Z</time>
      </trkpt>
      <trkpt lat="43.50426" lon="3.86395">
        <ele>49</ele>
        <time>2016-04-17T15:00:39.969Z</time>
      </trkpt>
      <trkpt lat="43.50427" lon="3.86397">
        <ele>49</ele>
        <time>2016-04-17T15:00:40.942Z</time>
      </trkpt>
      <trkpt lat="43.50432" lon="3.86406">
        <ele>48</ele>
        <time>2016-04-17T15:00:43.971Z</time>
      </trkpt>
      <trkpt lat="43.50441" lon="3.86425">
        <ele>46</ele>
        <time>2016-04-17T15:00:44.941Z</time>
      </trkpt>
      <trkpt lat="43.50447" lon="3.8643">
        <ele>46</ele>
        <time>2016-04-17T15:00:49.974Z</time>
      </trkpt>
      <trkpt lat="43.50449" lon="3.86431">
        <ele>47</ele>
        <time>2016-04-17T15:00:50.942Z</time>
      </trkpt>
      <trkpt lat="43.50453" lon="3.86439">
        <ele>46</ele>
        <time>2016-04-17T15:00:53.971Z</time>
      </trkpt>
      <trkpt lat="43.50455" lon="3.86443">
        <ele>46</ele>
        <time>2016-04-17T15:00:54.940Z</time>
      </trkpt>
      <trkpt lat="43.50461" lon="3.8645">
        <ele>46</ele>
        <time>2016-04-17T15:00:58.968Z</time>
      </trkpt>
      <trkpt lat="43.50463" lon="3.86452">
        <ele>45</ele>
        <time>2016-04-17T15:00:59.942Z</time>
      </trkpt>
      <trkpt lat="43.50468" lon="3.86459">
        <ele>46</ele>
        <time>2016-04-17T15:01:01.970Z</time>
      </trkpt>
      <trkpt lat="43.50471" lon="3.8646">
        <ele>47</ele>
        <time>2016-04-17T15:01:02.969Z</time>
      </trkpt>
      <trkpt lat="43.50477" lon="3.86466">
        <ele>46</ele>
        <time>2016-04-17T15:01:06.964Z</time>
      </trkpt>
      <trkpt lat="43.50478" lon="3.86467">
        <ele>45</ele>
        <time>2016-04-17T15:01:07.942Z</time>
      </trkpt>
      <trkpt lat="43.50485" lon="3.86472">
        <ele>45</ele>
        <time>2016-04-17T15:01:10.966Z</time>
      </trkpt>
      <trkpt lat="43.50487" lon="3.86473">
        <ele>45</ele>
        <time>2016-04-17T15:01:11.942Z</time>
      </trkpt>
      <trkpt lat="43.50495" lon="3.86478">
        <ele>46</ele>
        <time>2016-04-17T15:01:16.969Z</time>
      </trkpt>
      <trkpt lat="43.50496" lon="3.86479">
        <ele>46</ele>
        <time>2016-04-17T15:01:17.940Z</time>
      </trkpt>
      <trkpt lat="43.50499" lon="3.86484">
        <ele>46</ele>
        <time>2016-04-17T15:01:19.960Z</time>
      </trkpt>
      <trkpt lat="43.50498" lon="3.86493">
        <ele>45</ele>
        <time>2016-04-17T15:01:20.941Z</time>
      </trkpt>
      <trkpt lat="43.50502" lon="3.86502">
        <ele>42</ele>
        <time>2016-04-17T15:01:23.972Z</time>
      </trkpt>
      <trkpt lat="43.50504" lon="3.86504">
        <ele>42</ele>
        <time>2016-04-17T15:01:24.941Z</time>
      </trkpt>
      <trkpt lat="43.50507" lon="3.86514">
        <ele>40</ele>
        <time>2016-04-17T15:01:25.970Z</time>
      </trkpt>
      <trkpt lat="43.5051" lon="3.86521">
        <ele>40</ele>
        <time>2016-04-17T15:01:26.963Z</time>
      </trkpt>
      <trkpt lat="43.50516" lon="3.86528">
        <ele>37</ele>
        <time>2016-04-17T15:01:30.974Z</time>
      </trkpt>
      <trkpt lat="43.50517" lon="3.86529">
        <ele>38</ele>
        <time>2016-04-17T15:01:31.943Z</time>
      </trkpt>
      <trkpt lat="43.50521" lon="3.86535">
        <ele>37</ele>
        <time>2016-04-17T15:01:33.970Z</time>
      </trkpt>
      <trkpt lat="43.50523" lon="3.86539">
        <ele>39</ele>
        <time>2016-04-17T15:01:34.943Z</time>
      </trkpt>
      <trkpt lat="43.5053" lon="3.86532">
        <ele>44</ele>
        <time>2016-04-17T15:01:49.961Z</time>
      </trkpt>
      <trkpt lat="43.50532" lon="3.86537">
        <ele>44</ele>
        <time>2016-04-17T15:01:50.967Z</time>
      </trkpt>
      <trkpt lat="43.50538" lon="3.8654">
        <ele>45</ele>
        <time>2016-04-17T15:01:56.121Z</time>
      </trkpt>
      <trkpt lat="43.5054" lon="3.86546">
        <ele>46</ele>
        <time>2016-04-17T15:01:56.941Z</time>
      </trkpt>
      <trkpt lat="43.50544" lon="3.86552">
        <ele>45</ele>
        <time>2016-04-17T15:01:59.973Z</time>
      </trkpt>
      <trkpt lat="43.50546" lon="3.86557">
        <ele>44</ele>
        <time>2016-04-17T15:02:00.942Z</time>
      </trkpt>
      <trkpt lat="43.5055" lon="3.86564">
        <ele>45</ele>
        <time>2016-04-17T15:02:02.969Z</time>
      </trkpt>
      <trkpt lat="43.50552" lon="3.86567">
        <ele>45</ele>
        <time>2016-04-17T15:02:03.943Z</time>
      </trkpt>
      <trkpt lat="43.50555" lon="3.86575">
        <ele>43</ele>
        <time>2016-04-17T15:02:05.971Z</time>
      </trkpt>
      <trkpt lat="43.50557" lon="3.86578">
        <ele>42</ele>
        <time>2016-04-17T15:02:06.967Z</time>
      </trkpt>
      <trkpt lat="43.50561" lon="3.86584">
        <ele>42</ele>
        <time>2016-04-17T15:02:09.971Z</time>
      </trkpt>
      <trkpt lat="43.50563" lon="3.86586">
        <ele>43</ele>
        <time>2016-04-17T15:02:10.942Z</time>
      </trkpt>
      <trkpt lat="43.50569" lon="3.86592">
        <ele>44</ele>
        <time>2016-04-17T15:02:13.971Z</time>
      </trkpt>
      <trkpt lat="43.50571" lon="3.86595">
        <ele>44</ele>
        <time>2016-04-17T15:02:14.940Z</time>
      </trkpt>
      <trkpt lat="43.50577" lon="3.86599">
        <ele>43</ele>
        <time>2016-04-17T15:02:17.994Z</time>
      </trkpt>
      <trkpt lat="43.5058" lon="3.86604">
        <ele>42</ele>
        <time>2016-04-17T15:02:18.943Z</time>
      </trkpt>
      <trkpt lat="43.50588" lon="3.8661">
        <ele>44</ele>
        <time>2016-04-17T15:02:22.101Z</time>
      </trkpt>
      <trkpt lat="43.5059" lon="3.86615">
        <ele>43</ele>
        <time>2016-04-17T15:02:22.944Z</time>
      </trkpt>
      <trkpt lat="43.50595" lon="3.86621">
        <ele>43</ele>
        <time>2016-04-17T15:02:24.970Z</time>
      </trkpt>
      <trkpt lat="43.50597" lon="3.86625">
        <ele>44</ele>
        <time>2016-04-17T15:02:25.944Z</time>
      </trkpt>
      <trkpt lat="43.50601" lon="3.86631">
        <ele>41</ele>
        <time>2016-04-17T15:02:27.971Z</time>
      </trkpt>
      <trkpt lat="43.50603" lon="3.86635">
        <ele>41</ele>
        <time>2016-04-17T15:02:28.943Z</time>
      </trkpt>
      <trkpt lat="43.5061" lon="3.8664">
        <ele>42</ele>
        <time>2016-04-17T15:02:30.968Z</time>
      </trkpt>
      <trkpt lat="43.50612" lon="3.86642">
        <ele>42</ele>
        <time>2016-04-17T15:02:31.944Z</time>
      </trkpt>
      <trkpt lat="43.50618" lon="3.86647">
        <ele>43</ele>
        <time>2016-04-17T15:02:35.056Z</time>
      </trkpt>
      <trkpt lat="43.50621" lon="3.86649">
        <ele>44</ele>
        <time>2016-04-17T15:02:35.943Z</time>
      </trkpt>
      <trkpt lat="43.50626" lon="3.86654">
        <ele>43</ele>
        <time>2016-04-17T15:02:38.970Z</time>
      </trkpt>
      <trkpt lat="43.50628" lon="3.86658">
        <ele>44</ele>
        <time>2016-04-17T15:02:39.941Z</time>
      </trkpt>
      <trkpt lat="43.50632" lon="3.86663">
        <ele>46</ele>
        <time>2016-04-17T15:02:41.976Z</time>
      </trkpt>
      <trkpt lat="43.50635" lon="3.86669">
        <ele>47</ele>
        <time>2016-04-17T15:02:42.940Z</time>
      </trkpt>
      <trkpt lat="43.50641" lon="3.86673">
        <ele>47</ele>
        <time>2016-04-17T15:02:46.970Z</time>
      </trkpt>
      <trkpt lat="43.50643" lon="3.86677">
        <ele>49</ele>
        <time>2016-04-17T15:02:47.944Z</time>
      </trkpt>
      <trkpt lat="43.50648" lon="3.86685">
        <ele>50</ele>
        <time>2016-04-17T15:02:49.990Z</time>
      </trkpt>
      <trkpt lat="43.50652" lon="3.86694">
        <ele>49</ele>
        <time>2016-04-17T15:02:50.942Z</time>
      </trkpt>
      <trkpt lat="43.50656" lon="3.867">
        <ele>51</ele>
        <time>2016-04-17T15:02:52.974Z</time>
      </trkpt>
      <trkpt lat="43.5066" lon="3.86702">
        <ele>51</ele>
        <time>2016-04-17T15:02:53.941Z</time>
      </trkpt>
      <trkpt lat="43.50668" lon="3.86705">
        <ele>52</ele>
        <time>2016-04-17T15:02:56.971Z</time>
      </trkpt>
      <trkpt lat="43.5067" lon="3.86707">
        <ele>51</ele>
        <time>2016-04-17T15:02:57.948Z</time>
      </trkpt>
      <trkpt lat="43.50676" lon="3.86714">
        <ele>51</ele>
        <time>2016-04-17T15:03:00.969Z</time>
      </trkpt>
      <trkpt lat="43.50678" lon="3.86716">
        <ele>52</ele>
        <time>2016-04-17T15:03:01.943Z</time>
      </trkpt>
      <trkpt lat="43.50683" lon="3.86725">
        <ele>52</ele>
        <time>2016-04-17T15:03:04.971Z</time>
      </trkpt>
      <trkpt lat="43.50684" lon="3.8673">
        <ele>51</ele>
        <time>2016-04-17T15:03:05.945Z</time>
      </trkpt>
      <trkpt lat="43.5069" lon="3.86739">
        <ele>51</ele>
        <time>2016-04-17T15:03:08.970Z</time>
      </trkpt>
      <trkpt lat="43.50691" lon="3.86742">
        <ele>50</ele>
        <time>2016-04-17T15:03:09.944Z</time>
      </trkpt>
      <trkpt lat="43.50697" lon="3.8675">
        <ele>49</ele>
        <time>2016-04-17T15:03:13.093Z</time>
      </trkpt>
      <trkpt lat="43.50699" lon="3.86751">
        <ele>49</ele>
        <time>2016-04-17T15:03:13.942Z</time>
      </trkpt>
      <trkpt lat="43.50703" lon="3.86757">
        <ele>49</ele>
        <time>2016-04-17T15:03:15.970Z</time>
      </trkpt>
      <trkpt lat="43.50705" lon="3.8676">
        <ele>49</ele>
        <time>2016-04-17T15:03:16.939Z</time>
      </trkpt>
      <trkpt lat="43.50711" lon="3.86769">
        <ele>49</ele>
        <time>2016-04-17T15:03:19.971Z</time>
      </trkpt>
      <trkpt lat="43.50713" lon="3.86772">
        <ele>48</ele>
        <time>2016-04-17T15:03:20.942Z</time>
      </trkpt>
      <trkpt lat="43.50719" lon="3.86779">
        <ele>46</ele>
        <time>2016-04-17T15:03:23.971Z</time>
      </trkpt>
      <trkpt lat="43.5072" lon="3.86781">
        <ele>46</ele>
        <time>2016-04-17T15:03:24.944Z</time>
      </trkpt>
      <trkpt lat="43.50723" lon="3.8679">
        <ele>47</ele>
        <time>2016-04-17T15:03:30.971Z</time>
      </trkpt>
      <trkpt lat="43.50724" lon="3.86794">
        <ele>44</ele>
        <time>2016-04-17T15:03:31.945Z</time>
      </trkpt>
      <trkpt lat="43.50728" lon="3.86793">
        <ele>44</ele>
        <time>2016-04-17T15:03:35.032Z</time>
      </trkpt>
      <trkpt lat="43.50729" lon="3.86792">
        <ele>45</ele>
        <time>2016-04-17T15:03:35.945Z</time>
      </trkpt>
      <trkpt lat="43.50729" lon="3.86792">
        <ele>45</ele>
        <time>2016-04-17T15:03:35.980Z</time>
      </trkpt>
      <trkpt lat="43.50729" lon="3.86793">
        <ele>45</ele>
        <time>2016-04-17T15:03:36.969Z</time>
      </trkpt>
      <trkpt lat="43.50731" lon="3.86789">
        <ele>44</ele>
        <time>2016-04-17T15:03:41.970Z</time>
      </trkpt>
      <trkpt lat="43.50731" lon="3.86789">
        <ele>44</ele>
        <time>2016-04-17T15:03:42.944Z</time>
      </trkpt>
      <trkpt lat="43.50731" lon="3.86789">
        <ele>44</ele>
        <time>2016-04-17T15:03:42.988Z</time>
      </trkpt>
      <trkpt lat="43.50731" lon="3.8679">
        <ele>44</ele>
        <time>2016-04-17T15:03:43.941Z</time>
      </trkpt>
      <trkpt lat="43.50734" lon="3.868">
        <ele>47</ele>
        <time>2016-04-17T15:03:57.974Z</time>
      </trkpt>
      <trkpt lat="43.50734" lon="3.86802">
        <ele>47</ele>
        <time>2016-04-17T15:03:58.943Z</time>
      </trkpt>
      <trkpt lat="43.50741" lon="3.86808">
        <ele>46</ele>
        <time>2016-04-17T15:04:04.972Z</time>
      </trkpt>
      <trkpt lat="43.50742" lon="3.86809">
        <ele>46</ele>
        <time>2016-04-17T15:04:05.940Z</time>
      </trkpt>
      <trkpt lat="43.50746" lon="3.86816">
        <ele>46</ele>
        <time>2016-04-17T15:04:10.027Z</time>
      </trkpt>
      <trkpt lat="43.50748" lon="3.8682">
        <ele>45</ele>
        <time>2016-04-17T15:04:10.943Z</time>
      </trkpt>
      <trkpt lat="43.50752" lon="3.86829">
        <ele>44</ele>
        <time>2016-04-17T15:04:18.971Z</time>
      </trkpt>
      <trkpt lat="43.50753" lon="3.8683">
        <ele>44</ele>
        <time>2016-04-17T15:04:19.944Z</time>
      </trkpt>
      <trkpt lat="43.5076" lon="3.86835">
        <ele>46</ele>
        <time>2016-04-17T15:04:35.977Z</time>
      </trkpt>
      <trkpt lat="43.50762" lon="3.86837">
        <ele>47</ele>
        <time>2016-04-17T15:04:36.943Z</time>
      </trkpt>
      <trkpt lat="43.50768" lon="3.86844">
        <ele>48</ele>
        <time>2016-04-17T15:04:39.971Z</time>
      </trkpt>
      <trkpt lat="43.50769" lon="3.86846">
        <ele>47</ele>
        <time>2016-04-17T15:04:40.944Z</time>
      </trkpt>
      <trkpt lat="43.50775" lon="3.86851">
        <ele>49</ele>
        <time>2016-04-17T15:04:43.971Z</time>
      </trkpt>
      <trkpt lat="43.50777" lon="3.86853">
        <ele>50</ele>
        <time>2016-04-17T15:04:44.944Z</time>
      </trkpt>
      <trkpt lat="43.50783" lon="3.86858">
        <ele>51</ele>
        <time>2016-04-17T15:04:47.971Z</time>
      </trkpt>
      <trkpt lat="43.50785" lon="3.8686">
        <ele>52</ele>
        <time>2016-04-17T15:04:48.943Z</time>
      </trkpt>
      <trkpt lat="43.5079" lon="3.86868">
        <ele>51</ele>
        <time>2016-04-17T15:04:50.972Z</time>
      </trkpt>
      <trkpt lat="43.50792" lon="3.86871">
        <ele>51</ele>
        <time>2016-04-17T15:04:51.943Z</time>
      </trkpt>
      <trkpt lat="43.50798" lon="3.8688">
        <ele>52</ele>
        <time>2016-04-17T15:04:54.971Z</time>
      </trkpt>
      <trkpt lat="43.50799" lon="3.86882">
        <ele>53</ele>
        <time>2016-04-17T15:04:55.942Z</time>
      </trkpt>
      <trkpt lat="43.50805" lon="3.86889">
        <ele>50</ele>
        <time>2016-04-17T15:04:59.976Z</time>
      </trkpt>
      <trkpt lat="43.50806" lon="3.86892">
        <ele>50</ele>
        <time>2016-04-17T15:05:00.944Z</time>
      </trkpt>
      <trkpt lat="43.5081" lon="3.86901">
        <ele>46</ele>
        <time>2016-04-17T15:05:03.971Z</time>
      </trkpt>
      <trkpt lat="43.50814" lon="3.86903">
        <ele>47</ele>
        <time>2016-04-17T15:05:04.943Z</time>
      </trkpt>
      <trkpt lat="43.50818" lon="3.86909">
        <ele>48</ele>
        <time>2016-04-17T15:05:06.999Z</time>
      </trkpt>
      <trkpt lat="43.5082" lon="3.86912">
        <ele>47</ele>
        <time>2016-04-17T15:05:07.945Z</time>
      </trkpt>
      <trkpt lat="43.50826" lon="3.86921">
        <ele>48</ele>
        <time>2016-04-17T15:05:10.974Z</time>
      </trkpt>
      <trkpt lat="43.50827" lon="3.86922">
        <ele>49</ele>
        <time>2016-04-17T15:05:11.942Z</time>
      </trkpt>
      <trkpt lat="43.50829" lon="3.8693">
        <ele>52</ele>
        <time>2016-04-17T15:05:14.972Z</time>
      </trkpt>
      <trkpt lat="43.50832" lon="3.86934">
        <ele>52</ele>
        <time>2016-04-17T15:05:15.945Z</time>
      </trkpt>
      <trkpt lat="43.50835" lon="3.86942">
        <ele>50</ele>
        <time>2016-04-17T15:05:17.974Z</time>
      </trkpt>
      <trkpt lat="43.50839" lon="3.86945">
        <ele>51</ele>
        <time>2016-04-17T15:05:18.946Z</time>
      </trkpt>
      <trkpt lat="43.50847" lon="3.86948">
        <ele>54</ele>
        <time>2016-04-17T15:05:22.997Z</time>
      </trkpt>
      <trkpt lat="43.50849" lon="3.8695">
        <ele>55</ele>
        <time>2016-04-17T15:05:23.945Z</time>
      </trkpt>
      <trkpt lat="43.50856" lon="3.86955">
        <ele>56</ele>
        <time>2016-04-17T15:05:26.972Z</time>
      </trkpt>
      <trkpt lat="43.50856" lon="3.86959">
        <ele>55</ele>
        <time>2016-04-17T15:05:27.943Z</time>
      </trkpt>
      <trkpt lat="43.50863" lon="3.86966">
        <ele>55</ele>
        <time>2016-04-17T15:05:31.971Z</time>
      </trkpt>
      <trkpt lat="43.50864" lon="3.86968">
        <ele>55</ele>
        <time>2016-04-17T15:05:32.945Z</time>
      </trkpt>
      <trkpt lat="43.5087" lon="3.86974">
        <ele>55</ele>
        <time>2016-04-17T15:05:36.030Z</time>
      </trkpt>
      <trkpt lat="43.50872" lon="3.86977">
        <ele>54</ele>
        <time>2016-04-17T15:05:36.944Z</time>
      </trkpt>
      <trkpt lat="43.50878" lon="3.86986">
        <ele>54</ele>
        <time>2016-04-17T15:05:38.996Z</time>
      </trkpt>
      <trkpt lat="43.5088" lon="3.86991">
        <ele>54</ele>
        <time>2016-04-17T15:05:39.945Z</time>
      </trkpt>
      <trkpt lat="43.50886" lon="3.86998">
        <ele>53</ele>
        <time>2016-04-17T15:05:41.971Z</time>
      </trkpt>
      <trkpt lat="43.50888" lon="3.87002">
        <ele>53</ele>
        <time>2016-04-17T15:05:42.945Z</time>
      </trkpt>
      <trkpt lat="43.50893" lon="3.87009">
        <ele>52</ele>
        <time>2016-04-17T15:05:44.972Z</time>
      </trkpt>
      <trkpt lat="43.50895" lon="3.87011">
        <ele>51</ele>
        <time>2016-04-17T15:05:45.944Z</time>
      </trkpt>
      <trkpt lat="43.50901" lon="3.87019">
        <ele>51</ele>
        <time>2016-04-17T15:05:48.971Z</time>
      </trkpt>
      <trkpt lat="43.50902" lon="3.87021">
        <ele>51</ele>
        <time>2016-04-17T15:05:49.945Z</time>
      </trkpt>
      <trkpt lat="43.50907" lon="3.87027">
        <ele>53</ele>
        <time>2016-04-17T15:05:51.970Z</time>
      </trkpt>
      <trkpt lat="43.50909" lon="3.87029">
        <ele>53</ele>
        <time>2016-04-17T15:05:52.944Z</time>
      </trkpt>
      <trkpt lat="43.50915" lon="3.87037">
        <ele>54</ele>
        <time>2016-04-17T15:05:55.972Z</time>
      </trkpt>
      <trkpt lat="43.50918" lon="3.8704">
        <ele>54</ele>
        <time>2016-04-17T15:05:56.944Z</time>
      </trkpt>
      <trkpt lat="43.50921" lon="3.87044">
        <ele>52</ele>
        <time>2016-04-17T15:05:58.972Z</time>
      </trkpt>
      <trkpt lat="43.50924" lon="3.87049">
        <ele>51</ele>
        <time>2016-04-17T15:05:59.943Z</time>
      </trkpt>
      <trkpt lat="43.50929" lon="3.87056">
        <ele>50</ele>
        <time>2016-04-17T15:06:01.971Z</time>
      </trkpt>
      <trkpt lat="43.5093" lon="3.87059">
        <ele>50</ele>
        <time>2016-04-17T15:06:02.943Z</time>
      </trkpt>
      <trkpt lat="43.50936" lon="3.87067">
        <ele>50</ele>
        <time>2016-04-17T15:06:04.971Z</time>
      </trkpt>
      <trkpt lat="43.50939" lon="3.8707">
        <ele>50</ele>
        <time>2016-04-17T15:06:05.943Z</time>
      </trkpt>
      <trkpt lat="43.50943" lon="3.8708">
        <ele>50</ele>
        <time>2016-04-17T15:06:07.965Z</time>
      </trkpt>
      <trkpt lat="43.50945" lon="3.87084">
        <ele>50</ele>
        <time>2016-04-17T15:06:08.941Z</time>
      </trkpt>
      <trkpt lat="43.50949" lon="3.87092">
        <ele>49</ele>
        <time>2016-04-17T15:06:10.995Z</time>
      </trkpt>
      <trkpt lat="43.50953" lon="3.87094">
        <ele>49</ele>
        <time>2016-04-17T15:06:11.942Z</time>
      </trkpt>
      <trkpt lat="43.50958" lon="3.87104">
        <ele>50</ele>
        <time>2016-04-17T15:06:14.970Z</time>
      </trkpt>
      <trkpt lat="43.50961" lon="3.87108">
        <ele>49</ele>
        <time>2016-04-17T15:06:15.944Z</time>
      </trkpt>
      <trkpt lat="43.50966" lon="3.87116">
        <ele>49</ele>
        <time>2016-04-17T15:06:18.036Z</time>
      </trkpt>
      <trkpt lat="43.50966" lon="3.87119">
        <ele>49</ele>
        <time>2016-04-17T15:06:18.946Z</time>
      </trkpt>
      <trkpt lat="43.50972" lon="3.87125">
        <ele>47</ele>
        <time>2016-04-17T15:06:20.979Z</time>
      </trkpt>
      <trkpt lat="43.50974" lon="3.87128">
        <ele>48</ele>
        <time>2016-04-17T15:06:21.946Z</time>
      </trkpt>
      <trkpt lat="43.50981" lon="3.87135">
        <ele>48</ele>
        <time>2016-04-17T15:06:23.979Z</time>
      </trkpt>
      <trkpt lat="43.50985" lon="3.87139">
        <ele>47</ele>
        <time>2016-04-17T15:06:24.944Z</time>
      </trkpt>
      <trkpt lat="43.5099" lon="3.87147">
        <ele>47</ele>
        <time>2016-04-17T15:06:26.993Z</time>
      </trkpt>
      <trkpt lat="43.50992" lon="3.8715">
        <ele>48</ele>
        <time>2016-04-17T15:06:27.944Z</time>
      </trkpt>
      <trkpt lat="43.50996" lon="3.87155">
        <ele>46</ele>
        <time>2016-04-17T15:06:29.973Z</time>
      </trkpt>
      <trkpt lat="43.50999" lon="3.87158">
        <ele>47</ele>
        <time>2016-04-17T15:06:30.942Z</time>
      </trkpt>
      <trkpt lat="43.51001" lon="3.87165">
        <ele>46</ele>
        <time>2016-04-17T15:06:31.971Z</time>
      </trkpt>
      <trkpt lat="43.51003" lon="3.87169">
        <ele>45</ele>
        <time>2016-04-17T15:06:32.945Z</time>
      </trkpt>
      <trkpt lat="43.51009" lon="3.87177">
        <ele>45</ele>
        <time>2016-04-17T15:06:34.975Z</time>
      </trkpt>
      <trkpt lat="43.51012" lon="3.87181">
        <ele>46</ele>
        <time>2016-04-17T15:06:35.944Z</time>
      </trkpt>
      <trkpt lat="43.51015" lon="3.87187">
        <ele>45</ele>
        <time>2016-04-17T15:06:37.971Z</time>
      </trkpt>
      <trkpt lat="43.51018" lon="3.8719">
        <ele>45</ele>
        <time>2016-04-17T15:06:38.945Z</time>
      </trkpt>
      <trkpt lat="43.51025" lon="3.87197">
        <ele>44</ele>
        <time>2016-04-17T15:06:40.973Z</time>
      </trkpt>
      <trkpt lat="43.51028" lon="3.87201">
        <ele>46</ele>
        <time>2016-04-17T15:06:41.943Z</time>
      </trkpt>
      <trkpt lat="43.51035" lon="3.87208">
        <ele>47</ele>
        <time>2016-04-17T15:06:43.972Z</time>
      </trkpt>
      <trkpt lat="43.51038" lon="3.87212">
        <ele>48</ele>
        <time>2016-04-17T15:06:44.944Z</time>
      </trkpt>
      <trkpt lat="43.51042" lon="3.87217">
        <ele>47</ele>
        <time>2016-04-17T15:06:46.971Z</time>
      </trkpt>
      <trkpt lat="43.51046" lon="3.87223">
        <ele>45</ele>
        <time>2016-04-17T15:06:47.940Z</time>
      </trkpt>
      <trkpt lat="43.51052" lon="3.8723">
        <ele>45</ele>
        <time>2016-04-17T15:06:49.978Z</time>
      </trkpt>
      <trkpt lat="43.51054" lon="3.87234">
        <ele>45</ele>
        <time>2016-04-17T15:06:50.944Z</time>
      </trkpt>
      <trkpt lat="43.51059" lon="3.87241">
        <ele>44</ele>
        <time>2016-04-17T15:06:52.971Z</time>
      </trkpt>
      <trkpt lat="43.51061" lon="3.87244">
        <ele>44</ele>
        <time>2016-04-17T15:06:53.943Z</time>
      </trkpt>
      <trkpt lat="43.51065" lon="3.8725">
        <ele>46</ele>
        <time>2016-04-17T15:06:55.971Z</time>
      </trkpt>
      <trkpt lat="43.51067" lon="3.87253">
        <ele>45</ele>
        <time>2016-04-17T15:06:56.942Z</time>
      </trkpt>
      <trkpt lat="43.51071" lon="3.87259">
        <ele>45</ele>
        <time>2016-04-17T15:06:58.993Z</time>
      </trkpt>
      <trkpt lat="43.51075" lon="3.8726">
        <ele>46</ele>
        <time>2016-04-17T15:06:59.943Z</time>
      </trkpt>
      <trkpt lat="43.51079" lon="3.87269">
        <ele>48</ele>
        <time>2016-04-17T15:07:02.097Z</time>
      </trkpt>
      <trkpt lat="43.51081" lon="3.87273">
        <ele>48</ele>
        <time>2016-04-17T15:07:02.944Z</time>
      </trkpt>
      <trkpt lat="43.51085" lon="3.87277">
        <ele>47</ele>
        <time>2016-04-17T15:07:04.978Z</time>
      </trkpt>
      <trkpt lat="43.51088" lon="3.8728">
        <ele>46</ele>
        <time>2016-04-17T15:07:05.945Z</time>
      </trkpt>
      <trkpt lat="43.51094" lon="3.87288">
        <ele>47</ele>
        <time>2016-04-17T15:07:07.972Z</time>
      </trkpt>
      <trkpt lat="43.51095" lon="3.87293">
        <ele>46</ele>
        <time>2016-04-17T15:07:08.943Z</time>
      </trkpt>
      <trkpt lat="43.51101" lon="3.873">
        <ele>47</ele>
        <time>2016-04-17T15:07:10.966Z</time>
      </trkpt>
      <trkpt lat="43.51102" lon="3.87304">
        <ele>46</ele>
        <time>2016-04-17T15:07:11.944Z</time>
      </trkpt>
      <trkpt lat="43.51108" lon="3.8731">
        <ele>48</ele>
        <time>2016-04-17T15:07:13.972Z</time>
      </trkpt>
      <trkpt lat="43.51109" lon="3.87313">
        <ele>47</ele>
        <time>2016-04-17T15:07:14.944Z</time>
      </trkpt>
      <trkpt lat="43.51114" lon="3.87315">
        <ele>48</ele>
        <time>2016-04-17T15:07:15.972Z</time>
      </trkpt>
      <trkpt lat="43.51117" lon="3.87319">
        <ele>49</ele>
        <time>2016-04-17T15:07:16.943Z</time>
      </trkpt>
      <trkpt lat="43.51121" lon="3.87324">
        <ele>50</ele>
        <time>2016-04-17T15:07:17.972Z</time>
      </trkpt>
      <trkpt lat="43.51125" lon="3.87328">
        <ele>50</ele>
        <time>2016-04-17T15:07:18.945Z</time>
      </trkpt>
      <trkpt lat="43.51129" lon="3.87332">
        <ele>50</ele>
        <time>2016-04-17T15:07:19.997Z</time>
      </trkpt>
      <trkpt lat="43.51133" lon="3.87337">
        <ele>51</ele>
        <time>2016-04-17T15:07:20.944Z</time>
      </trkpt>
      <trkpt lat="43.51139" lon="3.87345">
        <ele>51</ele>
        <time>2016-04-17T15:07:22.980Z</time>
      </trkpt>
      <trkpt lat="43.51141" lon="3.87349">
        <ele>52</ele>
        <time>2016-04-17T15:07:23.944Z</time>
      </trkpt>
      <trkpt lat="43.51146" lon="3.87356">
        <ele>53</ele>
        <time>2016-04-17T15:07:25.979Z</time>
      </trkpt>
      <trkpt lat="43.51149" lon="3.87359">
        <ele>52</ele>
        <time>2016-04-17T15:07:26.943Z</time>
      </trkpt>
      <trkpt lat="43.51153" lon="3.87364">
        <ele>52</ele>
        <time>2016-04-17T15:07:28.971Z</time>
      </trkpt>
      <trkpt lat="43.51157" lon="3.87367">
        <ele>53</ele>
        <time>2016-04-17T15:07:29.943Z</time>
      </trkpt>
      <trkpt lat="43.5116" lon="3.87369">
        <ele>53</ele>
        <time>2016-04-17T15:07:30.972Z</time>
      </trkpt>
      <trkpt lat="43.51165" lon="3.87373">
        <ele>51</ele>
        <time>2016-04-17T15:07:31.945Z</time>
      </trkpt>
      <trkpt lat="43.51172" lon="3.87381">
        <ele>52</ele>
        <time>2016-04-17T15:07:33.975Z</time>
      </trkpt>
      <trkpt lat="43.51174" lon="3.87385">
        <ele>53</ele>
        <time>2016-04-17T15:07:34.946Z</time>
      </trkpt>
      <trkpt lat="43.5118" lon="3.87393">
        <ele>52</ele>
        <time>2016-04-17T15:07:36.973Z</time>
      </trkpt>
      <trkpt lat="43.51183" lon="3.87397">
        <ele>53</ele>
        <time>2016-04-17T15:07:37.942Z</time>
      </trkpt>
      <trkpt lat="43.51188" lon="3.87402">
        <ele>53</ele>
        <time>2016-04-17T15:07:39.972Z</time>
      </trkpt>
      <trkpt lat="43.5119" lon="3.87406">
        <ele>53</ele>
        <time>2016-04-17T15:07:40.944Z</time>
      </trkpt>
      <trkpt lat="43.51195" lon="3.87412">
        <ele>53</ele>
        <time>2016-04-17T15:07:42.973Z</time>
      </trkpt>
      <trkpt lat="43.51197" lon="3.87415">
        <ele>53</ele>
        <time>2016-04-17T15:07:43.943Z</time>
      </trkpt>
      <trkpt lat="43.51201" lon="3.87425">
        <ele>52</ele>
        <time>2016-04-17T15:07:46.972Z</time>
      </trkpt>
      <trkpt lat="43.51204" lon="3.87428">
        <ele>54</ele>
        <time>2016-04-17T15:07:47.944Z</time>
      </trkpt>
      <trkpt lat="43.51207" lon="3.87435">
        <ele>52</ele>
        <time>2016-04-17T15:07:48.971Z</time>
      </trkpt>
      <trkpt lat="43.51213" lon="3.87439">
        <ele>51</ele>
        <time>2016-04-17T15:07:49.944Z</time>
      </trkpt>
      <trkpt lat="43.51217" lon="3.87443">
        <ele>51</ele>
        <time>2016-04-17T15:07:50.994Z</time>
      </trkpt>
      <trkpt lat="43.5122" lon="3.87448">
        <ele>52</ele>
        <time>2016-04-17T15:07:51.942Z</time>
      </trkpt>
      <trkpt lat="43.51223" lon="3.87454">
        <ele>52</ele>
        <time>2016-04-17T15:07:53.972Z</time>
      </trkpt>
      <trkpt lat="43.51228" lon="3.87457">
        <ele>49</ele>
        <time>2016-04-17T15:07:54.944Z</time>
      </trkpt>
      <trkpt lat="43.51233" lon="3.87465">
        <ele>48</ele>
        <time>2016-04-17T15:07:56.970Z</time>
      </trkpt>
      <trkpt lat="43.51236" lon="3.87469">
        <ele>47</ele>
        <time>2016-04-17T15:07:57.943Z</time>
      </trkpt>
      <trkpt lat="43.51242" lon="3.87477">
        <ele>46</ele>
        <time>2016-04-17T15:07:59.964Z</time>
      </trkpt>
      <trkpt lat="43.51244" lon="3.87481">
        <ele>47</ele>
        <time>2016-04-17T15:08:00.942Z</time>
      </trkpt>
      <trkpt lat="43.51247" lon="3.87489">
        <ele>44</ele>
        <time>2016-04-17T15:08:03.095Z</time>
      </trkpt>
      <trkpt lat="43.5125" lon="3.87491">
        <ele>44</ele>
        <time>2016-04-17T15:08:03.943Z</time>
      </trkpt>
      <trkpt lat="43.51257" lon="3.87498">
        <ele>48</ele>
        <time>2016-04-17T15:08:05.973Z</time>
      </trkpt>
      <trkpt lat="43.51261" lon="3.875">
        <ele>49</ele>
        <time>2016-04-17T15:08:06.943Z</time>
      </trkpt>
      <trkpt lat="43.51267" lon="3.87509">
        <ele>49</ele>
        <time>2016-04-17T15:08:08.972Z</time>
      </trkpt>
      <trkpt lat="43.5127" lon="3.87514">
        <ele>50</ele>
        <time>2016-04-17T15:08:09.945Z</time>
      </trkpt>
      <trkpt lat="43.51276" lon="3.8752">
        <ele>51</ele>
        <time>2016-04-17T15:08:11.994Z</time>
      </trkpt>
      <trkpt lat="43.51278" lon="3.87521">
        <ele>51</ele>
        <time>2016-04-17T15:08:12.944Z</time>
      </trkpt>
      <trkpt lat="43.51281" lon="3.87529">
        <ele>51</ele>
        <time>2016-04-17T15:08:14.971Z</time>
      </trkpt>
      <trkpt lat="43.51283" lon="3.87531">
        <ele>51</ele>
        <time>2016-04-17T15:08:16.086Z</time>
      </trkpt>
      <trkpt lat="43.51287" lon="3.87535">
        <ele>51</ele>
        <time>2016-04-17T15:08:17.042Z</time>
      </trkpt>
      <trkpt lat="43.5129" lon="3.8754">
        <ele>52</ele>
        <time>2016-04-17T15:08:17.944Z</time>
      </trkpt>
      <trkpt lat="43.51295" lon="3.8755">
        <ele>51</ele>
        <time>2016-04-17T15:08:20.970Z</time>
      </trkpt>
      <trkpt lat="43.51297" lon="3.87551">
        <ele>51</ele>
        <time>2016-04-17T15:08:21.944Z</time>
      </trkpt>
      <trkpt lat="43.51301" lon="3.87558">
        <ele>49</ele>
        <time>2016-04-17T15:08:23.971Z</time>
      </trkpt>
      <trkpt lat="43.51305" lon="3.87561">
        <ele>50</ele>
        <time>2016-04-17T15:08:24.944Z</time>
      </trkpt>
      <trkpt lat="43.5131" lon="3.87569">
        <ele>49</ele>
        <time>2016-04-17T15:08:26.975Z</time>
      </trkpt>
      <trkpt lat="43.51311" lon="3.87571">
        <ele>49</ele>
        <time>2016-04-17T15:08:27.968Z</time>
      </trkpt>
      <trkpt lat="43.51319" lon="3.87576">
        <ele>48</ele>
        <time>2016-04-17T15:08:29.972Z</time>
      </trkpt>
      <trkpt lat="43.51322" lon="3.87581">
        <ele>48</ele>
        <time>2016-04-17T15:08:30.945Z</time>
      </trkpt>
      <trkpt lat="43.51325" lon="3.87588">
        <ele>45</ele>
        <time>2016-04-17T15:08:31.976Z</time>
      </trkpt>
      <trkpt lat="43.51328" lon="3.87594">
        <ele>45</ele>
        <time>2016-04-17T15:08:32.944Z</time>
      </trkpt>
      <trkpt lat="43.51334" lon="3.87602">
        <ele>44</ele>
        <time>2016-04-17T15:08:34.971Z</time>
      </trkpt>
      <trkpt lat="43.51337" lon="3.87606">
        <ele>44</ele>
        <time>2016-04-17T15:08:35.943Z</time>
      </trkpt>
      <trkpt lat="43.51342" lon="3.87615">
        <ele>44</ele>
        <time>2016-04-17T15:08:38.971Z</time>
      </trkpt>
      <trkpt lat="43.51344" lon="3.87618">
        <ele>46</ele>
        <time>2016-04-17T15:08:39.944Z</time>
      </trkpt>
      <trkpt lat="43.51351" lon="3.87625">
        <ele>49</ele>
        <time>2016-04-17T15:08:41.977Z</time>
      </trkpt>
      <trkpt lat="43.51355" lon="3.87628">
        <ele>48</ele>
        <time>2016-04-17T15:08:42.946Z</time>
      </trkpt>
      <trkpt lat="43.51361" lon="3.87636">
        <ele>48</ele>
        <time>2016-04-17T15:08:44.976Z</time>
      </trkpt>
      <trkpt lat="43.51364" lon="3.87639">
        <ele>47</ele>
        <time>2016-04-17T15:08:45.946Z</time>
      </trkpt>
      <trkpt lat="43.5137" lon="3.87648">
        <ele>45</ele>
        <time>2016-04-17T15:08:48.973Z</time>
      </trkpt>
      <trkpt lat="43.51372" lon="3.87653">
        <ele>45</ele>
        <time>2016-04-17T15:08:49.944Z</time>
      </trkpt>
      <trkpt lat="43.51378" lon="3.8766">
        <ele>44</ele>
        <time>2016-04-17T15:08:51.972Z</time>
      </trkpt>
      <trkpt lat="43.51383" lon="3.87663">
        <ele>45</ele>
        <time>2016-04-17T15:08:53.091Z</time>
      </trkpt>
      <trkpt lat="43.51388" lon="3.87666">
        <ele>46</ele>
        <time>2016-04-17T15:08:53.975Z</time>
      </trkpt>
      <trkpt lat="43.51392" lon="3.8767">
        <ele>47</ele>
        <time>2016-04-17T15:08:54.971Z</time>
      </trkpt>
      <trkpt lat="43.51397" lon="3.87675">
        <ele>47</ele>
        <time>2016-04-17T15:08:56.971Z</time>
      </trkpt>
      <trkpt lat="43.51399" lon="3.87678">
        <ele>48</ele>
        <time>2016-04-17T15:08:57.943Z</time>
      </trkpt>
      <trkpt lat="43.51407" lon="3.87684">
        <ele>49</ele>
        <time>2016-04-17T15:08:59.974Z</time>
      </trkpt>
      <trkpt lat="43.51411" lon="3.87688">
        <ele>49</ele>
        <time>2016-04-17T15:09:00.949Z</time>
      </trkpt>
      <trkpt lat="43.51417" lon="3.87695">
        <ele>49</ele>
        <time>2016-04-17T15:09:02.973Z</time>
      </trkpt>
      <trkpt lat="43.5142" lon="3.87698">
        <ele>50</ele>
        <time>2016-04-17T15:09:03.946Z</time>
      </trkpt>
      <trkpt lat="43.51425" lon="3.87707">
        <ele>50</ele>
        <time>2016-04-17T15:09:06.971Z</time>
      </trkpt>
      <trkpt lat="43.51427" lon="3.87711">
        <ele>51</ele>
        <time>2016-04-17T15:09:07.944Z</time>
      </trkpt>
      <trkpt lat="43.51431" lon="3.87719">
        <ele>50</ele>
        <time>2016-04-17T15:09:09.972Z</time>
      </trkpt>
      <trkpt lat="43.51432" lon="3.87722">
        <ele>50</ele>
        <time>2016-04-17T15:09:10.968Z</time>
      </trkpt>
      <trkpt lat="43.51437" lon="3.87725">
        <ele>49</ele>
        <time>2016-04-17T15:09:11.971Z</time>
      </trkpt>
      <trkpt lat="43.51441" lon="3.87727">
        <ele>50</ele>
        <time>2016-04-17T15:09:12.943Z</time>
      </trkpt>
      <trkpt lat="43.51446" lon="3.87734">
        <ele>51</ele>
        <time>2016-04-17T15:09:14.972Z</time>
      </trkpt>
      <trkpt lat="43.5145" lon="3.87736">
        <ele>50</ele>
        <time>2016-04-17T15:09:15.945Z</time>
      </trkpt>
      <trkpt lat="43.51453" lon="3.87744">
        <ele>47</ele>
        <time>2016-04-17T15:09:18.971Z</time>
      </trkpt>
      <trkpt lat="43.51455" lon="3.87748">
        <ele>47</ele>
        <time>2016-04-17T15:09:19.944Z</time>
      </trkpt>
      <trkpt lat="43.5146" lon="3.87756">
        <ele>49</ele>
        <time>2016-04-17T15:09:21.972Z</time>
      </trkpt>
      <trkpt lat="43.51463" lon="3.87761">
        <ele>48</ele>
        <time>2016-04-17T15:09:22.945Z</time>
      </trkpt>
      <trkpt lat="43.51468" lon="3.87767">
        <ele>50</ele>
        <time>2016-04-17T15:09:24.973Z</time>
      </trkpt>
      <trkpt lat="43.51471" lon="3.87771">
        <ele>50</ele>
        <time>2016-04-17T15:09:25.944Z</time>
      </trkpt>
      <trkpt lat="43.51474" lon="3.87776">
        <ele>50</ele>
        <time>2016-04-17T15:09:26.994Z</time>
      </trkpt>
      <trkpt lat="43.51478" lon="3.8778">
        <ele>50</ele>
        <time>2016-04-17T15:09:27.943Z</time>
      </trkpt>
      <trkpt lat="43.51483" lon="3.87786">
        <ele>51</ele>
        <time>2016-04-17T15:09:29.975Z</time>
      </trkpt>
      <trkpt lat="43.51486" lon="3.87789">
        <ele>52</ele>
        <time>2016-04-17T15:09:30.944Z</time>
      </trkpt>
      <trkpt lat="43.51492" lon="3.87795">
        <ele>52</ele>
        <time>2016-04-17T15:09:32.970Z</time>
      </trkpt>
      <trkpt lat="43.51495" lon="3.87798">
        <ele>53</ele>
        <time>2016-04-17T15:09:33.943Z</time>
      </trkpt>
      <trkpt lat="43.51499" lon="3.87807">
        <ele>53</ele>
        <time>2016-04-17T15:09:35.970Z</time>
      </trkpt>
      <trkpt lat="43.51502" lon="3.8781">
        <ele>54</ele>
        <time>2016-04-17T15:09:36.944Z</time>
      </trkpt>
      <trkpt lat="43.51508" lon="3.87818">
        <ele>54</ele>
        <time>2016-04-17T15:09:39.972Z</time>
      </trkpt>
      <trkpt lat="43.51509" lon="3.87822">
        <ele>52</ele>
        <time>2016-04-17T15:09:40.942Z</time>
      </trkpt>
      <trkpt lat="43.51515" lon="3.87829">
        <ele>54</ele>
        <time>2016-04-17T15:09:42.972Z</time>
      </trkpt>
      <trkpt lat="43.51517" lon="3.87833">
        <ele>54</ele>
        <time>2016-04-17T15:09:43.946Z</time>
      </trkpt>
      <trkpt lat="43.51523" lon="3.87841">
        <ele>54</ele>
        <time>2016-04-17T15:09:45.972Z</time>
      </trkpt>
      <trkpt lat="43.51526" lon="3.87843">
        <ele>53</ele>
        <time>2016-04-17T15:09:46.943Z</time>
      </trkpt>
      <trkpt lat="43.51529" lon="3.87849">
        <ele>52</ele>
        <time>2016-04-17T15:09:48.973Z</time>
      </trkpt>
      <trkpt lat="43.51534" lon="3.87852">
        <ele>54</ele>
        <time>2016-04-17T15:09:49.944Z</time>
      </trkpt>
      <trkpt lat="43.51539" lon="3.87859">
        <ele>52</ele>
        <time>2016-04-17T15:09:51.973Z</time>
      </trkpt>
      <trkpt lat="43.51541" lon="3.87861">
        <ele>53</ele>
        <time>2016-04-17T15:09:52.970Z</time>
      </trkpt>
      <trkpt lat="43.51547" lon="3.8787">
        <ele>52</ele>
        <time>2016-04-17T15:09:54.971Z</time>
      </trkpt>
      <trkpt lat="43.51548" lon="3.87876">
        <ele>53</ele>
        <time>2016-04-17T15:09:55.944Z</time>
      </trkpt>
      <trkpt lat="43.51553" lon="3.87879">
        <ele>53</ele>
        <time>2016-04-17T15:09:56.970Z</time>
      </trkpt>
      <trkpt lat="43.51556" lon="3.87884">
        <ele>53</ele>
        <time>2016-04-17T15:09:57.944Z</time>
      </trkpt>
      <trkpt lat="43.51561" lon="3.87892">
        <ele>55</ele>
        <time>2016-04-17T15:09:59.972Z</time>
      </trkpt>
      <trkpt lat="43.51564" lon="3.87896">
        <ele>55</ele>
        <time>2016-04-17T15:10:00.944Z</time>
      </trkpt>
      <trkpt lat="43.51568" lon="3.87901">
        <ele>56</ele>
        <time>2016-04-17T15:10:01.969Z</time>
      </trkpt>
      <trkpt lat="43.51572" lon="3.87905">
        <ele>55</ele>
        <time>2016-04-17T15:10:02.946Z</time>
      </trkpt>
      <trkpt lat="43.51577" lon="3.8791">
        <ele>55</ele>
        <time>2016-04-17T15:10:04.956Z</time>
      </trkpt>
      <trkpt lat="43.5158" lon="3.87913">
        <ele>51</ele>
        <time>2016-04-17T15:10:05.944Z</time>
      </trkpt>
      <trkpt lat="43.51584" lon="3.8792">
        <ele>51</ele>
        <time>2016-04-17T15:10:07.973Z</time>
      </trkpt>
      <trkpt lat="43.51587" lon="3.87926">
        <ele>53</ele>
        <time>2016-04-17T15:10:08.944Z</time>
      </trkpt>
      <trkpt lat="43.51592" lon="3.87933">
        <ele>53</ele>
        <time>2016-04-17T15:10:10.971Z</time>
      </trkpt>
      <trkpt lat="43.51594" lon="3.87937">
        <ele>53</ele>
        <time>2016-04-17T15:10:11.942Z</time>
      </trkpt>
      <trkpt lat="43.51599" lon="3.87943">
        <ele>54</ele>
        <time>2016-04-17T15:10:13.994Z</time>
      </trkpt>
      <trkpt lat="43.51602" lon="3.87947">
        <ele>55</ele>
        <time>2016-04-17T15:10:14.947Z</time>
      </trkpt>
      <trkpt lat="43.51608" lon="3.87955">
        <ele>54</ele>
        <time>2016-04-17T15:10:16.973Z</time>
      </trkpt>
      <trkpt lat="43.5161" lon="3.87959">
        <ele>55</ele>
        <time>2016-04-17T15:10:17.945Z</time>
      </trkpt>
      <trkpt lat="43.51615" lon="3.87968">
        <ele>54</ele>
        <time>2016-04-17T15:10:19.973Z</time>
      </trkpt>
      <trkpt lat="43.51616" lon="3.87972">
        <ele>53</ele>
        <time>2016-04-17T15:10:20.944Z</time>
      </trkpt>
      <trkpt lat="43.51621" lon="3.87979">
        <ele>53</ele>
        <time>2016-04-17T15:10:22.973Z</time>
      </trkpt>
      <trkpt lat="43.51624" lon="3.87983">
        <ele>53</ele>
        <time>2016-04-17T15:10:23.943Z</time>
      </trkpt>
      <trkpt lat="43.51629" lon="3.8799">
        <ele>54</ele>
        <time>2016-04-17T15:10:25.973Z</time>
      </trkpt>
      <trkpt lat="43.51631" lon="3.87995">
        <ele>54</ele>
        <time>2016-04-17T15:10:26.944Z</time>
      </trkpt>
      <trkpt lat="43.51635" lon="3.88005">
        <ele>53</ele>
        <time>2016-04-17T15:10:28.972Z</time>
      </trkpt>
      <trkpt lat="43.51639" lon="3.8801">
        <ele>52</ele>
        <time>2016-04-17T15:10:29.945Z</time>
      </trkpt>
      <trkpt lat="43.51644" lon="3.88019">
        <ele>52</ele>
        <time>2016-04-17T15:10:31.974Z</time>
      </trkpt>
      <trkpt lat="43.51646" lon="3.88024">
        <ele>52</ele>
        <time>2016-04-17T15:10:32.944Z</time>
      </trkpt>
      <trkpt lat="43.51653" lon="3.88029">
        <ele>53</ele>
        <time>2016-04-17T15:10:34.996Z</time>
      </trkpt>
      <trkpt lat="43.51655" lon="3.88032">
        <ele>52</ele>
        <time>2016-04-17T15:10:35.944Z</time>
      </trkpt>
      <trkpt lat="43.51656" lon="3.88041">
        <ele>50</ele>
        <time>2016-04-17T15:10:37.974Z</time>
      </trkpt>
      <trkpt lat="43.51658" lon="3.88045">
        <ele>49</ele>
        <time>2016-04-17T15:10:38.945Z</time>
      </trkpt>
      <trkpt lat="43.5166" lon="3.88055">
        <ele>50</ele>
        <time>2016-04-17T15:10:40.970Z</time>
      </trkpt>
      <trkpt lat="43.51661" lon="3.88058">
        <ele>51</ele>
        <time>2016-04-17T15:10:41.944Z</time>
      </trkpt>
      <trkpt lat="43.51668" lon="3.88064">
        <ele>51</ele>
        <time>2016-04-17T15:10:43.971Z</time>
      </trkpt>
      <trkpt lat="43.5167" lon="3.8807">
        <ele>50</ele>
        <time>2016-04-17T15:10:44.944Z</time>
      </trkpt>
      <trkpt lat="43.51669" lon="3.88076">
        <ele>52</ele>
        <time>2016-04-17T15:10:45.971Z</time>
      </trkpt>
      <trkpt lat="43.51672" lon="3.88083">
        <ele>49</ele>
        <time>2016-04-17T15:10:46.944Z</time>
      </trkpt>
      <trkpt lat="43.51675" lon="3.88091">
        <ele>49</ele>
        <time>2016-04-17T15:10:48.972Z</time>
      </trkpt>
      <trkpt lat="43.51676" lon="3.88096">
        <ele>49</ele>
        <time>2016-04-17T15:10:49.945Z</time>
      </trkpt>
      <trkpt lat="43.5168" lon="3.88104">
        <ele>49</ele>
        <time>2016-04-17T15:10:51.973Z</time>
      </trkpt>
      <trkpt lat="43.51683" lon="3.88107">
        <ele>50</ele>
        <time>2016-04-17T15:10:52.944Z</time>
      </trkpt>
      <trkpt lat="43.51686" lon="3.88117">
        <ele>48</ele>
        <time>2016-04-17T15:10:54.972Z</time>
      </trkpt>
      <trkpt lat="43.51685" lon="3.88122">
        <ele>48</ele>
        <time>2016-04-17T15:10:56.097Z</time>
      </trkpt>
      <trkpt lat="43.51689" lon="3.88129">
        <ele>49</ele>
        <time>2016-04-17T15:10:57.972Z</time>
      </trkpt>
      <trkpt lat="43.51689" lon="3.88134">
        <ele>48</ele>
        <time>2016-04-17T15:10:58.944Z</time>
      </trkpt>
      <trkpt lat="43.5169" lon="3.88144">
        <ele>49</ele>
        <time>2016-04-17T15:11:00.975Z</time>
      </trkpt>
      <trkpt lat="43.51692" lon="3.88148">
        <ele>49</ele>
        <time>2016-04-17T15:11:01.947Z</time>
      </trkpt>
      <trkpt lat="43.51695" lon="3.88157">
        <ele>51</ele>
        <time>2016-04-17T15:11:03.978Z</time>
      </trkpt>
      <trkpt lat="43.51696" lon="3.88161">
        <ele>51</ele>
        <time>2016-04-17T15:11:04.945Z</time>
      </trkpt>
      <trkpt lat="43.517" lon="3.88169">
        <ele>50</ele>
        <time>2016-04-17T15:11:06.996Z</time>
      </trkpt>
      <trkpt lat="43.51703" lon="3.88174">
        <ele>49</ele>
        <time>2016-04-17T15:11:07.942Z</time>
      </trkpt>
      <trkpt lat="43.51704" lon="3.88182">
        <ele>50</ele>
        <time>2016-04-17T15:11:09.974Z</time>
      </trkpt>
      <trkpt lat="43.51705" lon="3.88187">
        <ele>49</ele>
        <time>2016-04-17T15:11:10.944Z</time>
      </trkpt>
      <trkpt lat="43.5171" lon="3.88195">
        <ele>51</ele>
        <time>2016-04-17T15:11:12.979Z</time>
      </trkpt>
      <trkpt lat="43.51711" lon="3.88198">
        <ele>52</ele>
        <time>2016-04-17T15:11:13.945Z</time>
      </trkpt>
      <trkpt lat="43.51713" lon="3.88207">
        <ele>51</ele>
        <time>2016-04-17T15:11:15.972Z</time>
      </trkpt>
      <trkpt lat="43.51714" lon="3.88211">
        <ele>51</ele>
        <time>2016-04-17T15:11:16.945Z</time>
      </trkpt>
      <trkpt lat="43.51717" lon="3.8822">
        <ele>51</ele>
        <time>2016-04-17T15:11:18.970Z</time>
      </trkpt>
      <trkpt lat="43.51718" lon="3.88223">
        <ele>51</ele>
        <time>2016-04-17T15:11:19.946Z</time>
      </trkpt>
      <trkpt lat="43.5172" lon="3.88233">
        <ele>50</ele>
        <time>2016-04-17T15:11:21.978Z</time>
      </trkpt>
      <trkpt lat="43.51721" lon="3.88237">
        <ele>50</ele>
        <time>2016-04-17T15:11:22.943Z</time>
      </trkpt>
      <trkpt lat="43.51723" lon="3.88246">
        <ele>50</ele>
        <time>2016-04-17T15:11:24.973Z</time>
      </trkpt>
      <trkpt lat="43.51725" lon="3.88252">
        <ele>50</ele>
        <time>2016-04-17T15:11:25.942Z</time>
      </trkpt>
      <trkpt lat="43.51728" lon="3.88262">
        <ele>49</ele>
        <time>2016-04-17T15:11:27.974Z</time>
      </trkpt>
      <trkpt lat="43.51728" lon="3.88268">
        <ele>47</ele>
        <time>2016-04-17T15:11:28.946Z</time>
      </trkpt>
      <trkpt lat="43.51733" lon="3.88275">
        <ele>47</ele>
        <time>2016-04-17T15:11:30.971Z</time>
      </trkpt>
      <trkpt lat="43.51734" lon="3.88279">
        <ele>46</ele>
        <time>2016-04-17T15:11:31.944Z</time>
      </trkpt>
      <trkpt lat="43.51737" lon="3.88289">
        <ele>46</ele>
        <time>2016-04-17T15:11:33.993Z</time>
      </trkpt>
      <trkpt lat="43.51738" lon="3.88295">
        <ele>47</ele>
        <time>2016-04-17T15:11:34.943Z</time>
      </trkpt>
      <trkpt lat="43.51739" lon="3.88306">
        <ele>47</ele>
        <time>2016-04-17T15:11:36.974Z</time>
      </trkpt>
      <trkpt lat="43.5174" lon="3.88312">
        <ele>48</ele>
        <time>2016-04-17T15:11:37.945Z</time>
      </trkpt>
      <trkpt lat="43.51742" lon="3.88324">
        <ele>49</ele>
        <time>2016-04-17T15:11:39.972Z</time>
      </trkpt>
      <trkpt lat="43.51742" lon="3.88329">
        <ele>48</ele>
        <time>2016-04-17T15:11:40.944Z</time>
      </trkpt>
      <trkpt lat="43.51743" lon="3.88339">
        <ele>47</ele>
        <time>2016-04-17T15:11:42.971Z</time>
      </trkpt>
      <trkpt lat="43.51744" lon="3.88344">
        <ele>48</ele>
        <time>2016-04-17T15:11:43.942Z</time>
      </trkpt>
      <trkpt lat="43.51747" lon="3.88353">
        <ele>48</ele>
        <time>2016-04-17T15:11:45.972Z</time>
      </trkpt>
      <trkpt lat="43.51748" lon="3.88358">
        <ele>49</ele>
        <time>2016-04-17T15:11:46.944Z</time>
      </trkpt>
      <trkpt lat="43.51749" lon="3.88368">
        <ele>50</ele>
        <time>2016-04-17T15:11:48.966Z</time>
      </trkpt>
      <trkpt lat="43.5175" lon="3.88371">
        <ele>51</ele>
        <time>2016-04-17T15:11:49.944Z</time>
      </trkpt>
      <trkpt lat="43.5175" lon="3.88383">
        <ele>49</ele>
        <time>2016-04-17T15:11:51.971Z</time>
      </trkpt>
      <trkpt lat="43.5175" lon="3.88388">
        <ele>49</ele>
        <time>2016-04-17T15:11:52.938Z</time>
      </trkpt>
      <trkpt lat="43.51751" lon="3.884">
        <ele>49</ele>
        <time>2016-04-17T15:11:54.993Z</time>
      </trkpt>
      <trkpt lat="43.51752" lon="3.88405">
        <ele>49</ele>
        <time>2016-04-17T15:11:55.945Z</time>
      </trkpt>
      <trkpt lat="43.51755" lon="3.88416">
        <ele>49</ele>
        <time>2016-04-17T15:11:57.967Z</time>
      </trkpt>
      <trkpt lat="43.51756" lon="3.88421">
        <ele>49</ele>
        <time>2016-04-17T15:11:58.945Z</time>
      </trkpt>
      <trkpt lat="43.51759" lon="3.88432">
        <ele>49</ele>
        <time>2016-04-17T15:12:00.968Z</time>
      </trkpt>
      <trkpt lat="43.5176" lon="3.88437">
        <ele>49</ele>
        <time>2016-04-17T15:12:01.944Z</time>
      </trkpt>
      <trkpt lat="43.51762" lon="3.88447">
        <ele>49</ele>
        <time>2016-04-17T15:12:03.968Z</time>
      </trkpt>
      <trkpt lat="43.51763" lon="3.88453">
        <ele>48</ele>
        <time>2016-04-17T15:12:04.945Z</time>
      </trkpt>
      <trkpt lat="43.51766" lon="3.88463">
        <ele>48</ele>
        <time>2016-04-17T15:12:07.020Z</time>
      </trkpt>
      <trkpt lat="43.51767" lon="3.88468">
        <ele>49</ele>
        <time>2016-04-17T15:12:07.944Z</time>
      </trkpt>
      <trkpt lat="43.51769" lon="3.88479">
        <ele>49</ele>
        <time>2016-04-17T15:12:09.967Z</time>
      </trkpt>
      <trkpt lat="43.5177" lon="3.88484">
        <ele>49</ele>
        <time>2016-04-17T15:12:10.966Z</time>
      </trkpt>
      <trkpt lat="43.51772" lon="3.88493">
        <ele>49</ele>
        <time>2016-04-17T15:12:12.968Z</time>
      </trkpt>
      <trkpt lat="43.51773" lon="3.88498">
        <ele>49</ele>
        <time>2016-04-17T15:12:13.945Z</time>
      </trkpt>
      <trkpt lat="43.51775" lon="3.88508">
        <ele>49</ele>
        <time>2016-04-17T15:12:15.992Z</time>
      </trkpt>
      <trkpt lat="43.51776" lon="3.88513">
        <ele>49</ele>
        <time>2016-04-17T15:12:16.946Z</time>
      </trkpt>
      <trkpt lat="43.51776" lon="3.88524">
        <ele>49</ele>
        <time>2016-04-17T15:12:18.972Z</time>
      </trkpt>
      <trkpt lat="43.51775" lon="3.8853">
        <ele>48</ele>
        <time>2016-04-17T15:12:19.946Z</time>
      </trkpt>
      <trkpt lat="43.51777" lon="3.8854">
        <ele>48</ele>
        <time>2016-04-17T15:12:21.970Z</time>
      </trkpt>
      <trkpt lat="43.51778" lon="3.88546">
        <ele>48</ele>
        <time>2016-04-17T15:12:22.946Z</time>
      </trkpt>
      <trkpt lat="43.5178" lon="3.88557">
        <ele>48</ele>
        <time>2016-04-17T15:12:24.970Z</time>
      </trkpt>
      <trkpt lat="43.5178" lon="3.88562">
        <ele>48</ele>
        <time>2016-04-17T15:12:25.946Z</time>
      </trkpt>
      <trkpt lat="43.51782" lon="3.88573">
        <ele>48</ele>
        <time>2016-04-17T15:12:27.972Z</time>
      </trkpt>
      <trkpt lat="43.51784" lon="3.88578">
        <ele>48</ele>
        <time>2016-04-17T15:12:28.946Z</time>
      </trkpt>
      <trkpt lat="43.51786" lon="3.88588">
        <ele>49</ele>
        <time>2016-04-17T15:12:31.106Z</time>
      </trkpt>
      <trkpt lat="43.51787" lon="3.88592">
        <ele>48</ele>
        <time>2016-04-17T15:12:31.945Z</time>
      </trkpt>
      <trkpt lat="43.51789" lon="3.88603">
        <ele>49</ele>
        <time>2016-04-17T15:12:33.967Z</time>
      </trkpt>
      <trkpt lat="43.5179" lon="3.88609">
        <ele>49</ele>
        <time>2016-04-17T15:12:34.944Z</time>
      </trkpt>
      <trkpt lat="43.51792" lon="3.88619">
        <ele>49</ele>
        <time>2016-04-17T15:12:36.969Z</time>
      </trkpt>
      <trkpt lat="43.51792" lon="3.88625">
        <ele>49</ele>
        <time>2016-04-17T15:12:37.944Z</time>
      </trkpt>
      <trkpt lat="43.51794" lon="3.88635">
        <ele>49</ele>
        <time>2016-04-17T15:12:39.968Z</time>
      </trkpt>
      <trkpt lat="43.51795" lon="3.8864">
        <ele>49</ele>
        <time>2016-04-17T15:12:40.945Z</time>
      </trkpt>
      <trkpt lat="43.51798" lon="3.88651">
        <ele>50</ele>
        <time>2016-04-17T15:12:42.975Z</time>
      </trkpt>
      <trkpt lat="43.51799" lon="3.88656">
        <ele>50</ele>
        <time>2016-04-17T15:12:43.948Z</time>
      </trkpt>
      <trkpt lat="43.51801" lon="3.88666">
        <ele>49</ele>
        <time>2016-04-17T15:12:45.973Z</time>
      </trkpt>
      <trkpt lat="43.51802" lon="3.88672">
        <ele>49</ele>
        <time>2016-04-17T15:12:46.944Z</time>
      </trkpt>
      <trkpt lat="43.51805" lon="3.88683">
        <ele>49</ele>
        <time>2016-04-17T15:12:48.975Z</time>
      </trkpt>
      <trkpt lat="43.51807" lon="3.88689">
        <ele>50</ele>
        <time>2016-04-17T15:12:49.950Z</time>
      </trkpt>
      <trkpt lat="43.5181" lon="3.88694">
        <ele>50</ele>
        <time>2016-04-17T15:12:50.974Z</time>
      </trkpt>
      <trkpt lat="43.51812" lon="3.88699">
        <ele>50</ele>
        <time>2016-04-17T15:12:51.945Z</time>
      </trkpt>
      <trkpt lat="43.51815" lon="3.8871">
        <ele>52</ele>
        <time>2016-04-17T15:12:53.974Z</time>
      </trkpt>
      <trkpt lat="43.51816" lon="3.88715">
        <ele>51</ele>
        <time>2016-04-17T15:12:54.944Z</time>
      </trkpt>
      <trkpt lat="43.5182" lon="3.88724">
        <ele>51</ele>
        <time>2016-04-17T15:12:56.974Z</time>
      </trkpt>
      <trkpt lat="43.51823" lon="3.88728">
        <ele>51</ele>
        <time>2016-04-17T15:12:57.944Z</time>
      </trkpt>
      <trkpt lat="43.51826" lon="3.88736">
        <ele>49</ele>
        <time>2016-04-17T15:12:59.976Z</time>
      </trkpt>
      <trkpt lat="43.51828" lon="3.88741">
        <ele>50</ele>
        <time>2016-04-17T15:13:00.945Z</time>
      </trkpt>
      <trkpt lat="43.51831" lon="3.88749">
        <ele>49</ele>
        <time>2016-04-17T15:13:02.992Z</time>
      </trkpt>
      <trkpt lat="43.51834" lon="3.88755">
        <ele>50</ele>
        <time>2016-04-17T15:13:03.946Z</time>
      </trkpt>
      <trkpt lat="43.51838" lon="3.88765">
        <ele>51</ele>
        <time>2016-04-17T15:13:05.973Z</time>
      </trkpt>
      <trkpt lat="43.51839" lon="3.88769">
        <ele>52</ele>
        <time>2016-04-17T15:13:06.945Z</time>
      </trkpt>
      <trkpt lat="43.51842" lon="3.88779">
        <ele>53</ele>
        <time>2016-04-17T15:13:09.972Z</time>
      </trkpt>
      <trkpt lat="43.51843" lon="3.88782">
        <ele>52</ele>
        <time>2016-04-17T15:13:10.944Z</time>
      </trkpt>
      <trkpt lat="43.51845" lon="3.88792">
        <ele>50</ele>
        <time>2016-04-17T15:13:12.973Z</time>
      </trkpt>
      <trkpt lat="43.51847" lon="3.88796">
        <ele>50</ele>
        <time>2016-04-17T15:13:13.946Z</time>
      </trkpt>
      <trkpt lat="43.5185" lon="3.88802">
        <ele>49</ele>
        <time>2016-04-17T15:13:15.973Z</time>
      </trkpt>
      <trkpt lat="43.51852" lon="3.88807">
        <ele>48</ele>
        <time>2016-04-17T15:13:16.944Z</time>
      </trkpt>
      <trkpt lat="43.51854" lon="3.88818">
        <ele>47</ele>
        <time>2016-04-17T15:13:18.992Z</time>
      </trkpt>
      <trkpt lat="43.51857" lon="3.88822">
        <ele>48</ele>
        <time>2016-04-17T15:13:19.944Z</time>
      </trkpt>
      <trkpt lat="43.51863" lon="3.8883">
        <ele>47</ele>
        <time>2016-04-17T15:13:21.972Z</time>
      </trkpt>
      <trkpt lat="43.51865" lon="3.88835">
        <ele>46</ele>
        <time>2016-04-17T15:13:22.944Z</time>
      </trkpt>
      <trkpt lat="43.5187" lon="3.88843">
        <ele>46</ele>
        <time>2016-04-17T15:13:24.974Z</time>
      </trkpt>
      <trkpt lat="43.51872" lon="3.88847">
        <ele>46</ele>
        <time>2016-04-17T15:13:25.945Z</time>
      </trkpt>
      <trkpt lat="43.51876" lon="3.88857">
        <ele>47</ele>
        <time>2016-04-17T15:13:27.977Z</time>
      </trkpt>
      <trkpt lat="43.51877" lon="3.88862">
        <ele>47</ele>
        <time>2016-04-17T15:13:28.947Z</time>
      </trkpt>
      <trkpt lat="43.5188" lon="3.88871">
        <ele>48</ele>
        <time>2016-04-17T15:13:30.974Z</time>
      </trkpt>
      <trkpt lat="43.51883" lon="3.88876">
        <ele>47</ele>
        <time>2016-04-17T15:13:31.943Z</time>
      </trkpt>
      <trkpt lat="43.51884" lon="3.88887">
        <ele>47</ele>
        <time>2016-04-17T15:13:34.103Z</time>
      </trkpt>
      <trkpt lat="43.51886" lon="3.88891">
        <ele>47</ele>
        <time>2016-04-17T15:13:34.946Z</time>
      </trkpt>
      <trkpt lat="43.51889" lon="3.88896">
        <ele>47</ele>
        <time>2016-04-17T15:13:35.972Z</time>
      </trkpt>
      <trkpt lat="43.51892" lon="3.88901">
        <ele>45</ele>
        <time>2016-04-17T15:13:36.944Z</time>
      </trkpt>
      <trkpt lat="43.51898" lon="3.8891">
        <ele>47</ele>
        <time>2016-04-17T15:13:38.973Z</time>
      </trkpt>
      <trkpt lat="43.51899" lon="3.88915">
        <ele>46</ele>
        <time>2016-04-17T15:13:39.970Z</time>
      </trkpt>
      <trkpt lat="43.51904" lon="3.88923">
        <ele>46</ele>
        <time>2016-04-17T15:13:41.976Z</time>
      </trkpt>
      <trkpt lat="43.51906" lon="3.88927">
        <ele>46</ele>
        <time>2016-04-17T15:13:42.944Z</time>
      </trkpt>
      <trkpt lat="43.51911" lon="3.88935">
        <ele>46</ele>
        <time>2016-04-17T15:13:44.971Z</time>
      </trkpt>
      <trkpt lat="43.51913" lon="3.88941">
        <ele>47</ele>
        <time>2016-04-17T15:13:45.946Z</time>
      </trkpt>
      <trkpt lat="43.51916" lon="3.8895">
        <ele>46</ele>
        <time>2016-04-17T15:13:47.975Z</time>
      </trkpt>
      <trkpt lat="43.51918" lon="3.88956">
        <ele>47</ele>
        <time>2016-04-17T15:13:48.946Z</time>
      </trkpt>
      <trkpt lat="43.51922" lon="3.88965">
        <ele>48</ele>
        <time>2016-04-17T15:13:50.993Z</time>
      </trkpt>
      <trkpt lat="43.51921" lon="3.88971">
        <ele>47</ele>
        <time>2016-04-17T15:13:51.946Z</time>
      </trkpt>
      <trkpt lat="43.51924" lon="3.88982">
        <ele>49</ele>
        <time>2016-04-17T15:13:53.973Z</time>
      </trkpt>
      <trkpt lat="43.51925" lon="3.88987">
        <ele>48</ele>
        <time>2016-04-17T15:13:54.946Z</time>
      </trkpt>
      <trkpt lat="43.51927" lon="3.88994">
        <ele>49</ele>
        <time>2016-04-17T15:13:55.972Z</time>
      </trkpt>
      <trkpt lat="43.51932" lon="3.88999">
        <ele>50</ele>
        <time>2016-04-17T15:13:56.945Z</time>
      </trkpt>
      <trkpt lat="43.51936" lon="3.89008">
        <ele>49</ele>
        <time>2016-04-17T15:13:59.040Z</time>
      </trkpt>
      <trkpt lat="43.51936" lon="3.89013">
        <ele>48</ele>
        <time>2016-04-17T15:13:59.943Z</time>
      </trkpt>
      <trkpt lat="43.51941" lon="3.89022">
        <ele>49</ele>
        <time>2016-04-17T15:14:01.973Z</time>
      </trkpt>
      <trkpt lat="43.51943" lon="3.89027">
        <ele>48</ele>
        <time>2016-04-17T15:14:02.943Z</time>
      </trkpt>
      <trkpt lat="43.51944" lon="3.89038">
        <ele>47</ele>
        <time>2016-04-17T15:14:04.974Z</time>
      </trkpt>
      <trkpt lat="43.51946" lon="3.89043">
        <ele>46</ele>
        <time>2016-04-17T15:14:05.943Z</time>
      </trkpt>
      <trkpt lat="43.51949" lon="3.89052">
        <ele>47</ele>
        <time>2016-04-17T15:14:07.975Z</time>
      </trkpt>
      <trkpt lat="43.51951" lon="3.89058">
        <ele>47</ele>
        <time>2016-04-17T15:14:08.944Z</time>
      </trkpt>
      <trkpt lat="43.51953" lon="3.89067">
        <ele>47</ele>
        <time>2016-04-17T15:14:10.974Z</time>
      </trkpt>
      <trkpt lat="43.51954" lon="3.89071">
        <ele>48</ele>
        <time>2016-04-17T15:14:11.945Z</time>
      </trkpt>
      <trkpt lat="43.51956" lon="3.8908">
        <ele>48</ele>
        <time>2016-04-17T15:14:13.972Z</time>
      </trkpt>
      <trkpt lat="43.51955" lon="3.89085">
        <ele>47</ele>
        <time>2016-04-17T15:14:14.946Z</time>
      </trkpt>
      <trkpt lat="43.51957" lon="3.89096">
        <ele>47</ele>
        <time>2016-04-17T15:14:16.976Z</time>
      </trkpt>
      <trkpt lat="43.51959" lon="3.89101">
        <ele>46</ele>
        <time>2016-04-17T15:14:17.946Z</time>
      </trkpt>
      <trkpt lat="43.51964" lon="3.89111">
        <ele>46</ele>
        <time>2016-04-17T15:14:19.974Z</time>
      </trkpt>
      <trkpt lat="43.51966" lon="3.89116">
        <ele>46</ele>
        <time>2016-04-17T15:14:20.944Z</time>
      </trkpt>
      <trkpt lat="43.5197" lon="3.89125">
        <ele>45</ele>
        <time>2016-04-17T15:14:22.993Z</time>
      </trkpt>
      <trkpt lat="43.51974" lon="3.89129">
        <ele>44</ele>
        <time>2016-04-17T15:14:23.944Z</time>
      </trkpt>
      <trkpt lat="43.51978" lon="3.89137">
        <ele>43</ele>
        <time>2016-04-17T15:14:25.976Z</time>
      </trkpt>
      <trkpt lat="43.51979" lon="3.89143">
        <ele>43</ele>
        <time>2016-04-17T15:14:26.945Z</time>
      </trkpt>
      <trkpt lat="43.51981" lon="3.89148">
        <ele>42</ele>
        <time>2016-04-17T15:14:27.980Z</time>
      </trkpt>
      <trkpt lat="43.51984" lon="3.89153">
        <ele>42</ele>
        <time>2016-04-17T15:14:28.945Z</time>
      </trkpt>
      <trkpt lat="43.51987" lon="3.89164">
        <ele>42</ele>
        <time>2016-04-17T15:14:30.974Z</time>
      </trkpt>
      <trkpt lat="43.51989" lon="3.89169">
        <ele>43</ele>
        <time>2016-04-17T15:14:31.944Z</time>
      </trkpt>
      <trkpt lat="43.51994" lon="3.89177">
        <ele>43</ele>
        <time>2016-04-17T15:14:33.978Z</time>
      </trkpt>
      <trkpt lat="43.51996" lon="3.89183">
        <ele>43</ele>
        <time>2016-04-17T15:14:34.946Z</time>
      </trkpt>
      <trkpt lat="43.52" lon="3.89189">
        <ele>43</ele>
        <time>2016-04-17T15:14:36.980Z</time>
      </trkpt>
      <trkpt lat="43.52002" lon="3.89194">
        <ele>43</ele>
        <time>2016-04-17T15:14:37.948Z</time>
      </trkpt>
      <trkpt lat="43.52005" lon="3.89202">
        <ele>44</ele>
        <time>2016-04-17T15:14:39.976Z</time>
      </trkpt>
      <trkpt lat="43.52006" lon="3.89207">
        <ele>44</ele>
        <time>2016-04-17T15:14:40.946Z</time>
      </trkpt>
      <trkpt lat="43.52009" lon="3.89214">
        <ele>45</ele>
        <time>2016-04-17T15:14:42.978Z</time>
      </trkpt>
      <trkpt lat="43.5201" lon="3.89219">
        <ele>45</ele>
        <time>2016-04-17T15:14:43.971Z</time>
      </trkpt>
      <trkpt lat="43.52014" lon="3.89227">
        <ele>45</ele>
        <time>2016-04-17T15:14:45.974Z</time>
      </trkpt>
      <trkpt lat="43.52016" lon="3.89231">
        <ele>45</ele>
        <time>2016-04-17T15:14:46.947Z</time>
      </trkpt>
      <trkpt lat="43.52021" lon="3.89238">
        <ele>46</ele>
        <time>2016-04-17T15:14:48.973Z</time>
      </trkpt>
      <trkpt lat="43.52024" lon="3.8924">
        <ele>47</ele>
        <time>2016-04-17T15:14:49.945Z</time>
      </trkpt>
      <trkpt lat="43.5203" lon="3.89245">
        <ele>49</ele>
        <time>2016-04-17T15:14:51.974Z</time>
      </trkpt>
      <trkpt lat="43.52033" lon="3.89248">
        <ele>47</ele>
        <time>2016-04-17T15:14:52.947Z</time>
      </trkpt>
      <trkpt lat="43.52036" lon="3.89256">
        <ele>47</ele>
        <time>2016-04-17T15:14:54.995Z</time>
      </trkpt>
      <trkpt lat="43.52037" lon="3.89261">
        <ele>47</ele>
        <time>2016-04-17T15:14:55.944Z</time>
      </trkpt>
      <trkpt lat="43.52043" lon="3.89268">
        <ele>48</ele>
        <time>2016-04-17T15:14:57.973Z</time>
      </trkpt>
      <trkpt lat="43.52046" lon="3.89274">
        <ele>49</ele>
        <time>2016-04-17T15:14:58.944Z</time>
      </trkpt>
      <trkpt lat="43.52048" lon="3.89284">
        <ele>48</ele>
        <time>2016-04-17T15:15:00.974Z</time>
      </trkpt>
      <trkpt lat="43.52051" lon="3.89292">
        <ele>45</ele>
        <time>2016-04-17T15:15:01.946Z</time>
      </trkpt>
      <trkpt lat="43.52056" lon="3.89302">
        <ele>49</ele>
        <time>2016-04-17T15:15:04.954Z</time>
      </trkpt>
      <trkpt lat="43.52059" lon="3.89306">
        <ele>49</ele>
        <time>2016-04-17T15:15:05.945Z</time>
      </trkpt>
      <trkpt lat="43.52063" lon="3.89315">
        <ele>50</ele>
        <time>2016-04-17T15:15:07.973Z</time>
      </trkpt>
      <trkpt lat="43.52067" lon="3.89318">
        <ele>48</ele>
        <time>2016-04-17T15:15:08.943Z</time>
      </trkpt>
      <trkpt lat="43.52073" lon="3.89324">
        <ele>48</ele>
        <time>2016-04-17T15:15:10.995Z</time>
      </trkpt>
      <trkpt lat="43.52075" lon="3.89327">
        <ele>49</ele>
        <time>2016-04-17T15:15:11.944Z</time>
      </trkpt>
      <trkpt lat="43.5208" lon="3.89336">
        <ele>49</ele>
        <time>2016-04-17T15:15:13.978Z</time>
      </trkpt>
      <trkpt lat="43.52082" lon="3.89339">
        <ele>49</ele>
        <time>2016-04-17T15:15:14.946Z</time>
      </trkpt>
      <trkpt lat="43.52087" lon="3.89345">
        <ele>50</ele>
        <time>2016-04-17T15:15:16.972Z</time>
      </trkpt>
      <trkpt lat="43.52088" lon="3.8935">
        <ele>49</ele>
        <time>2016-04-17T15:15:17.946Z</time>
      </trkpt>
      <trkpt lat="43.52091" lon="3.89358">
        <ele>50</ele>
        <time>2016-04-17T15:15:19.973Z</time>
      </trkpt>
      <trkpt lat="43.52093" lon="3.89364">
        <ele>50</ele>
        <time>2016-04-17T15:15:20.946Z</time>
      </trkpt>
      <trkpt lat="43.52098" lon="3.89372">
        <ele>51</ele>
        <time>2016-04-17T15:15:22.973Z</time>
      </trkpt>
      <trkpt lat="43.52099" lon="3.89377">
        <ele>52</ele>
        <time>2016-04-17T15:15:23.946Z</time>
      </trkpt>
      <trkpt lat="43.52105" lon="3.89385">
        <ele>51</ele>
        <time>2016-04-17T15:15:25.974Z</time>
      </trkpt>
      <trkpt lat="43.52106" lon="3.89391">
        <ele>51</ele>
        <time>2016-04-17T15:15:26.945Z</time>
      </trkpt>
      <trkpt lat="43.5211" lon="3.89398">
        <ele>51</ele>
        <time>2016-04-17T15:15:28.974Z</time>
      </trkpt>
      <trkpt lat="43.52112" lon="3.89401">
        <ele>52</ele>
        <time>2016-04-17T15:15:29.944Z</time>
      </trkpt>
      <trkpt lat="43.52117" lon="3.89408">
        <ele>52</ele>
        <time>2016-04-17T15:15:31.995Z</time>
      </trkpt>
      <trkpt lat="43.52119" lon="3.89415">
        <ele>51</ele>
        <time>2016-04-17T15:15:32.945Z</time>
      </trkpt>
      <trkpt lat="43.52123" lon="3.89425">
        <ele>51</ele>
        <time>2016-04-17T15:15:35.040Z</time>
      </trkpt>
      <trkpt lat="43.52126" lon="3.89428">
        <ele>53</ele>
        <time>2016-04-17T15:15:35.944Z</time>
      </trkpt>
      <trkpt lat="43.5213" lon="3.89436">
        <ele>55</ele>
        <time>2016-04-17T15:15:37.974Z</time>
      </trkpt>
      <trkpt lat="43.52132" lon="3.8944">
        <ele>55</ele>
        <time>2016-04-17T15:15:38.944Z</time>
      </trkpt>
      <trkpt lat="43.52136" lon="3.89449">
        <ele>55</ele>
        <time>2016-04-17T15:15:40.979Z</time>
      </trkpt>
      <trkpt lat="43.52138" lon="3.89454">
        <ele>54</ele>
        <time>2016-04-17T15:15:41.947Z</time>
      </trkpt>
      <trkpt lat="43.52142" lon="3.89459">
        <ele>54</ele>
        <time>2016-04-17T15:15:43.972Z</time>
      </trkpt>
      <trkpt lat="43.52143" lon="3.89465">
        <ele>53</ele>
        <time>2016-04-17T15:15:44.943Z</time>
      </trkpt>
      <trkpt lat="43.52146" lon="3.89471">
        <ele>52</ele>
        <time>2016-04-17T15:15:45.974Z</time>
      </trkpt>
      <trkpt lat="43.52149" lon="3.89475">
        <ele>52</ele>
        <time>2016-04-17T15:15:46.945Z</time>
      </trkpt>
      <trkpt lat="43.52154" lon="3.89484">
        <ele>52</ele>
        <time>2016-04-17T15:15:48.974Z</time>
      </trkpt>
      <trkpt lat="43.5216" lon="3.89486">
        <ele>52</ele>
        <time>2016-04-17T15:15:49.945Z</time>
      </trkpt>
      <trkpt lat="43.52165" lon="3.89492">
        <ele>52</ele>
        <time>2016-04-17T15:15:50.973Z</time>
      </trkpt>
      <trkpt lat="43.52168" lon="3.89495">
        <ele>53</ele>
        <time>2016-04-17T15:15:51.944Z</time>
      </trkpt>
      <trkpt lat="43.5217" lon="3.895">
        <ele>53</ele>
        <time>2016-04-17T15:15:52.972Z</time>
      </trkpt>
      <trkpt lat="43.52174" lon="3.89505">
        <ele>52</ele>
        <time>2016-04-17T15:15:53.944Z</time>
      </trkpt>
      <trkpt lat="43.52178" lon="3.89513">
        <ele>54</ele>
        <time>2016-04-17T15:15:55.974Z</time>
      </trkpt>
      <trkpt lat="43.5218" lon="3.89518">
        <ele>56</ele>
        <time>2016-04-17T15:15:56.945Z</time>
      </trkpt>
      <trkpt lat="43.52185" lon="3.89526">
        <ele>56</ele>
        <time>2016-04-17T15:15:58.971Z</time>
      </trkpt>
      <trkpt lat="43.52188" lon="3.89531">
        <ele>54</ele>
        <time>2016-04-17T15:15:59.944Z</time>
      </trkpt>
      <trkpt lat="43.52191" lon="3.8954">
        <ele>54</ele>
        <time>2016-04-17T15:16:01.973Z</time>
      </trkpt>
      <trkpt lat="43.52191" lon="3.89545">
        <ele>54</ele>
        <time>2016-04-17T15:16:02.944Z</time>
      </trkpt>
      <trkpt lat="43.52193" lon="3.89557">
        <ele>53</ele>
        <time>2016-04-17T15:16:04.973Z</time>
      </trkpt>
      <trkpt lat="43.52196" lon="3.89561">
        <ele>52</ele>
        <time>2016-04-17T15:16:05.945Z</time>
      </trkpt>
      <trkpt lat="43.52201" lon="3.89569">
        <ele>51</ele>
        <time>2016-04-17T15:16:07.973Z</time>
      </trkpt>
      <trkpt lat="43.52203" lon="3.89574">
        <ele>50</ele>
        <time>2016-04-17T15:16:08.945Z</time>
      </trkpt>
      <trkpt lat="43.52207" lon="3.89585">
        <ele>50</ele>
        <time>2016-04-17T15:16:10.978Z</time>
      </trkpt>
      <trkpt lat="43.52209" lon="3.89589">
        <ele>50</ele>
        <time>2016-04-17T15:16:11.947Z</time>
      </trkpt>
      <trkpt lat="43.52212" lon="3.89597">
        <ele>52</ele>
        <time>2016-04-17T15:16:13.973Z</time>
      </trkpt>
      <trkpt lat="43.52215" lon="3.89603">
        <ele>52</ele>
        <time>2016-04-17T15:16:14.944Z</time>
      </trkpt>
      <trkpt lat="43.52221" lon="3.8961">
        <ele>52</ele>
        <time>2016-04-17T15:16:16.974Z</time>
      </trkpt>
      <trkpt lat="43.52224" lon="3.89614">
        <ele>52</ele>
        <time>2016-04-17T15:16:17.945Z</time>
      </trkpt>
      <trkpt lat="43.52229" lon="3.89623">
        <ele>52</ele>
        <time>2016-04-17T15:16:19.997Z</time>
      </trkpt>
      <trkpt lat="43.52232" lon="3.89628">
        <ele>52</ele>
        <time>2016-04-17T15:16:20.944Z</time>
      </trkpt>
      <trkpt lat="43.52237" lon="3.89638">
        <ele>51</ele>
        <time>2016-04-17T15:16:22.974Z</time>
      </trkpt>
      <trkpt lat="43.52238" lon="3.89643">
        <ele>51</ele>
        <time>2016-04-17T15:16:23.946Z</time>
      </trkpt>
      <trkpt lat="43.52245" lon="3.89651">
        <ele>53</ele>
        <time>2016-04-17T15:16:25.974Z</time>
      </trkpt>
      <trkpt lat="43.52247" lon="3.89655">
        <ele>54</ele>
        <time>2016-04-17T15:16:26.944Z</time>
      </trkpt>
      <trkpt lat="43.52251" lon="3.89662">
        <ele>53</ele>
        <time>2016-04-17T15:16:28.971Z</time>
      </trkpt>
      <trkpt lat="43.52256" lon="3.89667">
        <ele>50</ele>
        <time>2016-04-17T15:16:29.946Z</time>
      </trkpt>
      <trkpt lat="43.52259" lon="3.89675">
        <ele>49</ele>
        <time>2016-04-17T15:16:31.973Z</time>
      </trkpt>
      <trkpt lat="43.52259" lon="3.89682">
        <ele>49</ele>
        <time>2016-04-17T15:16:32.944Z</time>
      </trkpt>
      <trkpt lat="43.52263" lon="3.89691">
        <ele>49</ele>
        <time>2016-04-17T15:16:34.975Z</time>
      </trkpt>
      <trkpt lat="43.52266" lon="3.89695">
        <ele>48</ele>
        <time>2016-04-17T15:16:35.947Z</time>
      </trkpt>
      <trkpt lat="43.5227" lon="3.89704">
        <ele>48</ele>
        <time>2016-04-17T15:16:37.974Z</time>
      </trkpt>
      <trkpt lat="43.52274" lon="3.89708">
        <ele>48</ele>
        <time>2016-04-17T15:16:38.944Z</time>
      </trkpt>
      <trkpt lat="43.52279" lon="3.89712">
        <ele>49</ele>
        <time>2016-04-17T15:16:39.970Z</time>
      </trkpt>
      <trkpt lat="43.52281" lon="3.89717">
        <ele>49</ele>
        <time>2016-04-17T15:16:40.974Z</time>
      </trkpt>
      <trkpt lat="43.52284" lon="3.89724">
        <ele>48</ele>
        <time>2016-04-17T15:16:41.980Z</time>
      </trkpt>
      <trkpt lat="43.52285" lon="3.89729">
        <ele>49</ele>
        <time>2016-04-17T15:16:42.945Z</time>
      </trkpt>
      <trkpt lat="43.52291" lon="3.89737">
        <ele>49</ele>
        <time>2016-04-17T15:16:44.972Z</time>
      </trkpt>
      <trkpt lat="43.52293" lon="3.89741">
        <ele>50</ele>
        <time>2016-04-17T15:16:45.945Z</time>
      </trkpt>
      <trkpt lat="43.52297" lon="3.89751">
        <ele>50</ele>
        <time>2016-04-17T15:16:47.975Z</time>
      </trkpt>
      <trkpt lat="43.52297" lon="3.89755">
        <ele>50</ele>
        <time>2016-04-17T15:16:48.945Z</time>
      </trkpt>
      <trkpt lat="43.523" lon="3.89763">
        <ele>50</ele>
        <time>2016-04-17T15:16:50.974Z</time>
      </trkpt>
      <trkpt lat="43.52302" lon="3.89768">
        <ele>50</ele>
        <time>2016-04-17T15:16:51.943Z</time>
      </trkpt>
      <trkpt lat="43.52308" lon="3.89777">
        <ele>50</ele>
        <time>2016-04-17T15:16:54.031Z</time>
      </trkpt>
      <trkpt lat="43.52311" lon="3.89781">
        <ele>51</ele>
        <time>2016-04-17T15:16:54.950Z</time>
      </trkpt>
      <trkpt lat="43.52315" lon="3.89786">
        <ele>50</ele>
        <time>2016-04-17T15:16:55.980Z</time>
      </trkpt>
      <trkpt lat="43.52317" lon="3.8979">
        <ele>50</ele>
        <time>2016-04-17T15:16:56.971Z</time>
      </trkpt>
      <trkpt lat="43.52319" lon="3.89795">
        <ele>49</ele>
        <time>2016-04-17T15:16:57.974Z</time>
      </trkpt>
      <trkpt lat="43.52322" lon="3.898">
        <ele>49</ele>
        <time>2016-04-17T15:16:58.951Z</time>
      </trkpt>
      <trkpt lat="43.52325" lon="3.89806">
        <ele>50</ele>
        <time>2016-04-17T15:16:59.977Z</time>
      </trkpt>
      <trkpt lat="43.52328" lon="3.89811">
        <ele>49</ele>
        <time>2016-04-17T15:17:00.949Z</time>
      </trkpt>
      <trkpt lat="43.52334" lon="3.89819">
        <ele>51</ele>
        <time>2016-04-17T15:17:02.971Z</time>
      </trkpt>
      <trkpt lat="43.52336" lon="3.89824">
        <ele>51</ele>
        <time>2016-04-17T15:17:03.944Z</time>
      </trkpt>
      <trkpt lat="43.52341" lon="3.89833">
        <ele>50</ele>
        <time>2016-04-17T15:17:05.975Z</time>
      </trkpt>
      <trkpt lat="43.52345" lon="3.89837">
        <ele>51</ele>
        <time>2016-04-17T15:17:06.945Z</time>
      </trkpt>
      <trkpt lat="43.52352" lon="3.89845">
        <ele>52</ele>
        <time>2016-04-17T15:17:08.974Z</time>
      </trkpt>
      <trkpt lat="43.52354" lon="3.89848">
        <ele>52</ele>
        <time>2016-04-17T15:17:09.944Z</time>
      </trkpt>
      <trkpt lat="43.52359" lon="3.89856">
        <ele>53</ele>
        <time>2016-04-17T15:17:11.965Z</time>
      </trkpt>
      <trkpt lat="43.52361" lon="3.8986">
        <ele>54</ele>
        <time>2016-04-17T15:17:12.945Z</time>
      </trkpt>
      <trkpt lat="43.52366" lon="3.8987">
        <ele>52</ele>
        <time>2016-04-17T15:17:15.098Z</time>
      </trkpt>
      <trkpt lat="43.52367" lon="3.89875">
        <ele>53</ele>
        <time>2016-04-17T15:17:15.946Z</time>
      </trkpt>
      <trkpt lat="43.52373" lon="3.89882">
        <ele>53</ele>
        <time>2016-04-17T15:17:17.998Z</time>
      </trkpt>
      <trkpt lat="43.52375" lon="3.89885">
        <ele>54</ele>
        <time>2016-04-17T15:17:18.945Z</time>
      </trkpt>
      <trkpt lat="43.52382" lon="3.89894">
        <ele>55</ele>
        <time>2016-04-17T15:17:23.974Z</time>
      </trkpt>
      <trkpt lat="43.52381" lon="3.89894">
        <ele>54</ele>
        <time>2016-04-17T15:17:24.945Z</time>
      </trkpt>
      <trkpt lat="43.52381" lon="3.89898">
        <ele>50</ele>
        <time>2016-04-17T15:17:31.974Z</time>
      </trkpt>
      <trkpt lat="43.52382" lon="3.89899">
        <ele>50</ele>
        <time>2016-04-17T15:17:32.943Z</time>
      </trkpt>
      <trkpt lat="43.52381" lon="3.89899">
        <ele>50</ele>
        <time>2016-04-17T15:17:33.979Z</time>
      </trkpt>
      <trkpt lat="43.52382" lon="3.89898">
        <ele>50</ele>
        <time>2016-04-17T15:17:34.946Z</time>
      </trkpt>
      <trkpt lat="43.52383" lon="3.899">
        <ele>48</ele>
        <time>2016-04-17T15:17:39.980Z</time>
      </trkpt>
      <trkpt lat="43.52383" lon="3.899">
        <ele>48</ele>
        <time>2016-04-17T15:17:40.944Z</time>
      </trkpt>
      <trkpt lat="43.52383" lon="3.899">
        <ele>46</ele>
        <time>2016-04-17T15:17:41.978Z</time>
      </trkpt>
      <trkpt lat="43.52384" lon="3.899">
        <ele>46</ele>
        <time>2016-04-17T15:17:42.946Z</time>
      </trkpt>
      <trkpt lat="43.52383" lon="3.89899">
        <ele>47</ele>
        <time>2016-04-17T15:17:45.974Z</time>
      </trkpt>
      <trkpt lat="43.52383" lon="3.899">
        <ele>47</ele>
        <time>2016-04-17T15:17:46.945Z</time>
      </trkpt>
      <trkpt lat="43.52384" lon="3.89899">
        <ele>48</ele>
        <time>2016-04-17T15:17:55.973Z</time>
      </trkpt>
      <trkpt lat="43.52384" lon="3.89899">
        <ele>48</ele>
        <time>2016-04-17T15:17:56.946Z</time>
      </trkpt>
      <trkpt lat="43.52389" lon="3.89906">
        <ele>46</ele>
        <time>2016-04-17T15:18:03.974Z</time>
      </trkpt>
      <trkpt lat="43.52391" lon="3.89908">
        <ele>46</ele>
        <time>2016-04-17T15:18:04.948Z</time>
      </trkpt>
      <trkpt lat="43.52395" lon="3.89916">
        <ele>45</ele>
        <time>2016-04-17T15:18:13.977Z</time>
      </trkpt>
      <trkpt lat="43.52394" lon="3.89916">
        <ele>46</ele>
        <time>2016-04-17T15:18:14.946Z</time>
      </trkpt>
      <trkpt lat="43.52394" lon="3.89918">
        <ele>48</ele>
        <time>2016-04-17T15:18:21.994Z</time>
      </trkpt>
      <trkpt lat="43.52393" lon="3.89918">
        <ele>47</ele>
        <time>2016-04-17T15:18:22.946Z</time>
      </trkpt>
      <trkpt lat="43.52394" lon="3.89916">
        <ele>49</ele>
        <time>2016-04-17T15:18:25.973Z</time>
      </trkpt>
      <trkpt lat="43.52394" lon="3.89916">
        <ele>50</ele>
        <time>2016-04-17T15:18:26.946Z</time>
      </trkpt>
      <trkpt lat="43.52394" lon="3.89917">
        <ele>50</ele>
        <time>2016-04-17T15:18:31.974Z</time>
      </trkpt>
      <trkpt lat="43.52394" lon="3.89917">
        <ele>50</ele>
        <time>2016-04-17T15:18:32.946Z</time>
      </trkpt>
      <trkpt lat="43.52396" lon="3.89916">
        <ele>50</ele>
        <time>2016-04-17T15:18:45.973Z</time>
      </trkpt>
      <trkpt lat="43.52395" lon="3.89916">
        <ele>50</ele>
        <time>2016-04-17T15:18:46.946Z</time>
      </trkpt>
      <trkpt lat="43.52394" lon="3.89915">
        <ele>50</ele>
        <time>2016-04-17T15:18:54.971Z</time>
      </trkpt>
      <trkpt lat="43.52394" lon="3.89915">
        <ele>50</ele>
        <time>2016-04-17T15:18:55.943Z</time>
      </trkpt>
      <trkpt lat="43.52398" lon="3.89924">
        <ele>49</ele>
        <time>2016-04-17T15:18:59.041Z</time>
      </trkpt>
      <trkpt lat="43.524" lon="3.89926">
        <ele>49</ele>
        <time>2016-04-17T15:18:59.945Z</time>
      </trkpt>
      <trkpt lat="43.52402" lon="3.89932">
        <ele>48</ele>
        <time>2016-04-17T15:19:00.974Z</time>
      </trkpt>
      <trkpt lat="43.52405" lon="3.89936">
        <ele>46</ele>
        <time>2016-04-17T15:19:01.946Z</time>
      </trkpt>
      <trkpt lat="43.5241" lon="3.89943">
        <ele>47</ele>
        <time>2016-04-17T15:19:03.974Z</time>
      </trkpt>
      <trkpt lat="43.52411" lon="3.89947">
        <ele>47</ele>
        <time>2016-04-17T15:19:04.944Z</time>
      </trkpt>
      <trkpt lat="43.52415" lon="3.89953">
        <ele>48</ele>
        <time>2016-04-17T15:19:06.973Z</time>
      </trkpt>
      <trkpt lat="43.52417" lon="3.89956">
        <ele>48</ele>
        <time>2016-04-17T15:19:07.946Z</time>
      </trkpt>
      <trkpt lat="43.52421" lon="3.89963">
        <ele>49</ele>
        <time>2016-04-17T15:19:09.997Z</time>
      </trkpt>
      <trkpt lat="43.52422" lon="3.89967">
        <ele>48</ele>
        <time>2016-04-17T15:19:10.944Z</time>
      </trkpt>
      <trkpt lat="43.52426" lon="3.89976">
        <ele>49</ele>
        <time>2016-04-17T15:19:12.974Z</time>
      </trkpt>
      <trkpt lat="43.52429" lon="3.89982">
        <ele>48</ele>
        <time>2016-04-17T15:19:13.947Z</time>
      </trkpt>
      <trkpt lat="43.52433" lon="3.89991">
        <ele>47</ele>
        <time>2016-04-17T15:19:15.977Z</time>
      </trkpt>
      <trkpt lat="43.52434" lon="3.89996">
        <ele>47</ele>
        <time>2016-04-17T15:19:16.945Z</time>
      </trkpt>
      <trkpt lat="43.52438" lon="3.90002">
        <ele>47</ele>
        <time>2016-04-17T15:19:18.974Z</time>
      </trkpt>
      <trkpt lat="43.52441" lon="3.90005">
        <ele>47</ele>
        <time>2016-04-17T15:19:19.947Z</time>
      </trkpt>
      <trkpt lat="43.52446" lon="3.90013">
        <ele>47</ele>
        <time>2016-04-17T15:19:21.973Z</time>
      </trkpt>
      <trkpt lat="43.52448" lon="3.90016">
        <ele>47</ele>
        <time>2016-04-17T15:19:22.946Z</time>
      </trkpt>
      <trkpt lat="43.52452" lon="3.90022">
        <ele>48</ele>
        <time>2016-04-17T15:19:24.973Z</time>
      </trkpt>
      <trkpt lat="43.52455" lon="3.90026">
        <ele>47</ele>
        <time>2016-04-17T15:19:25.944Z</time>
      </trkpt>
      <trkpt lat="43.52461" lon="3.90036">
        <ele>47</ele>
        <time>2016-04-17T15:19:28.974Z</time>
      </trkpt>
      <trkpt lat="43.52463" lon="3.9004">
        <ele>47</ele>
        <time>2016-04-17T15:19:29.943Z</time>
      </trkpt>
      <trkpt lat="43.52466" lon="3.90047">
        <ele>46</ele>
        <time>2016-04-17T15:19:31.971Z</time>
      </trkpt>
      <trkpt lat="43.52468" lon="3.90052">
        <ele>46</ele>
        <time>2016-04-17T15:19:32.945Z</time>
      </trkpt>
      <trkpt lat="43.52472" lon="3.90059">
        <ele>46</ele>
        <time>2016-04-17T15:19:34.973Z</time>
      </trkpt>
      <trkpt lat="43.52474" lon="3.90062">
        <ele>47</ele>
        <time>2016-04-17T15:19:35.946Z</time>
      </trkpt>
      <trkpt lat="43.52478" lon="3.90071">
        <ele>47</ele>
        <time>2016-04-17T15:19:38.034Z</time>
      </trkpt>
      <trkpt lat="43.52481" lon="3.90075">
        <ele>48</ele>
        <time>2016-04-17T15:19:38.946Z</time>
      </trkpt>
      <trkpt lat="43.52485" lon="3.90084">
        <ele>47</ele>
        <time>2016-04-17T15:19:41.001Z</time>
      </trkpt>
      <trkpt lat="43.52487" lon="3.90088">
        <ele>46</ele>
        <time>2016-04-17T15:19:41.947Z</time>
      </trkpt>
      <trkpt lat="43.5249" lon="3.90096">
        <ele>43</ele>
        <time>2016-04-17T15:19:43.975Z</time>
      </trkpt>
      <trkpt lat="43.52493" lon="3.90099">
        <ele>45</ele>
        <time>2016-04-17T15:19:44.944Z</time>
      </trkpt>
      <trkpt lat="43.52498" lon="3.90108">
        <ele>46</ele>
        <time>2016-04-17T15:19:46.973Z</time>
      </trkpt>
      <trkpt lat="43.52501" lon="3.90111">
        <ele>47</ele>
        <time>2016-04-17T15:19:47.946Z</time>
      </trkpt>
      <trkpt lat="43.52506" lon="3.90118">
        <ele>47</ele>
        <time>2016-04-17T15:19:49.973Z</time>
      </trkpt>
      <trkpt lat="43.52508" lon="3.90122">
        <ele>47</ele>
        <time>2016-04-17T15:19:50.946Z</time>
      </trkpt>
      <trkpt lat="43.52512" lon="3.90129">
        <ele>48</ele>
        <time>2016-04-17T15:19:52.974Z</time>
      </trkpt>
      <trkpt lat="43.52514" lon="3.90133">
        <ele>48</ele>
        <time>2016-04-17T15:19:53.946Z</time>
      </trkpt>
      <trkpt lat="43.52518" lon="3.90141">
        <ele>46</ele>
        <time>2016-04-17T15:19:55.972Z</time>
      </trkpt>
      <trkpt lat="43.5252" lon="3.90145">
        <ele>45</ele>
        <time>2016-04-17T15:19:56.945Z</time>
      </trkpt>
      <trkpt lat="43.52524" lon="3.90152">
        <ele>45</ele>
        <time>2016-04-17T15:19:58.973Z</time>
      </trkpt>
      <trkpt lat="43.52527" lon="3.90156">
        <ele>45</ele>
        <time>2016-04-17T15:19:59.945Z</time>
      </trkpt>
      <trkpt lat="43.52532" lon="3.90166">
        <ele>46</ele>
        <time>2016-04-17T15:20:01.999Z</time>
      </trkpt>
      <trkpt lat="43.52534" lon="3.90171">
        <ele>44</ele>
        <time>2016-04-17T15:20:02.950Z</time>
      </trkpt>
      <trkpt lat="43.52538" lon="3.90178">
        <ele>46</ele>
        <time>2016-04-17T15:20:04.950Z</time>
      </trkpt>
      <trkpt lat="43.5254" lon="3.90181">
        <ele>45</ele>
        <time>2016-04-17T15:20:05.945Z</time>
      </trkpt>
      <trkpt lat="43.52544" lon="3.90191">
        <ele>45</ele>
        <time>2016-04-17T15:20:07.974Z</time>
      </trkpt>
      <trkpt lat="43.52547" lon="3.90194">
        <ele>46</ele>
        <time>2016-04-17T15:20:08.945Z</time>
      </trkpt>
      <trkpt lat="43.52552" lon="3.90203">
        <ele>46</ele>
        <time>2016-04-17T15:20:10.973Z</time>
      </trkpt>
      <trkpt lat="43.52554" lon="3.90207">
        <ele>46</ele>
        <time>2016-04-17T15:20:11.944Z</time>
      </trkpt>
      <trkpt lat="43.52558" lon="3.90214">
        <ele>45</ele>
        <time>2016-04-17T15:20:13.976Z</time>
      </trkpt>
      <trkpt lat="43.52561" lon="3.90218">
        <ele>46</ele>
        <time>2016-04-17T15:20:14.944Z</time>
      </trkpt>
      <trkpt lat="43.52564" lon="3.90225">
        <ele>47</ele>
        <time>2016-04-17T15:20:16.968Z</time>
      </trkpt>
      <trkpt lat="43.52566" lon="3.90228">
        <ele>48</ele>
        <time>2016-04-17T15:20:17.946Z</time>
      </trkpt>
      <trkpt lat="43.52569" lon="3.90235">
        <ele>49</ele>
        <time>2016-04-17T15:20:19.974Z</time>
      </trkpt>
      <trkpt lat="43.52572" lon="3.90238">
        <ele>49</ele>
        <time>2016-04-17T15:20:20.946Z</time>
      </trkpt>
      <trkpt lat="43.52577" lon="3.90248">
        <ele>48</ele>
        <time>2016-04-17T15:20:22.996Z</time>
      </trkpt>
      <trkpt lat="43.52579" lon="3.90252">
        <ele>48</ele>
        <time>2016-04-17T15:20:23.945Z</time>
      </trkpt>
      <trkpt lat="43.52581" lon="3.90258">
        <ele>46</ele>
        <time>2016-04-17T15:20:25.975Z</time>
      </trkpt>
      <trkpt lat="43.52584" lon="3.90262">
        <ele>46</ele>
        <time>2016-04-17T15:20:26.949Z</time>
      </trkpt>
      <trkpt lat="43.5259" lon="3.90268">
        <ele>48</ele>
        <time>2016-04-17T15:20:28.973Z</time>
      </trkpt>
      <trkpt lat="43.52594" lon="3.90271">
        <ele>49</ele>
        <time>2016-04-17T15:20:29.945Z</time>
      </trkpt>
      <trkpt lat="43.52596" lon="3.90279">
        <ele>49</ele>
        <time>2016-04-17T15:20:31.971Z</time>
      </trkpt>
      <trkpt lat="43.52598" lon="3.90283">
        <ele>49</ele>
        <time>2016-04-17T15:20:32.945Z</time>
      </trkpt>
      <trkpt lat="43.52602" lon="3.90292">
        <ele>50</ele>
        <time>2016-04-17T15:20:34.974Z</time>
      </trkpt>
      <trkpt lat="43.52604" lon="3.90295">
        <ele>50</ele>
        <time>2016-04-17T15:20:35.944Z</time>
      </trkpt>
      <trkpt lat="43.52607" lon="3.90303">
        <ele>47</ele>
        <time>2016-04-17T15:20:37.978Z</time>
      </trkpt>
      <trkpt lat="43.5261" lon="3.90305">
        <ele>47</ele>
        <time>2016-04-17T15:20:38.947Z</time>
      </trkpt>
      <trkpt lat="43.52616" lon="3.90313">
        <ele>46</ele>
        <time>2016-04-17T15:20:40.974Z</time>
      </trkpt>
      <trkpt lat="43.52618" lon="3.90316">
        <ele>46</ele>
        <time>2016-04-17T15:20:41.946Z</time>
      </trkpt>
      <trkpt lat="43.52623" lon="3.90322">
        <ele>47</ele>
        <time>2016-04-17T15:20:43.997Z</time>
      </trkpt>
      <trkpt lat="43.52625" lon="3.90326">
        <ele>47</ele>
        <time>2016-04-17T15:20:44.948Z</time>
      </trkpt>
      <trkpt lat="43.5263" lon="3.90335">
        <ele>46</ele>
        <time>2016-04-17T15:20:46.966Z</time>
      </trkpt>
      <trkpt lat="43.52632" lon="3.90338">
        <ele>46</ele>
        <time>2016-04-17T15:20:47.944Z</time>
      </trkpt>
      <trkpt lat="43.52635" lon="3.90348">
        <ele>47</ele>
        <time>2016-04-17T15:20:49.973Z</time>
      </trkpt>
      <trkpt lat="43.52637" lon="3.90349">
        <ele>48</ele>
        <time>2016-04-17T15:20:50.944Z</time>
      </trkpt>
      <trkpt lat="43.52643" lon="3.90356">
        <ele>49</ele>
        <time>2016-04-17T15:20:52.973Z</time>
      </trkpt>
      <trkpt lat="43.52645" lon="3.90362">
        <ele>48</ele>
        <time>2016-04-17T15:20:53.945Z</time>
      </trkpt>
      <trkpt lat="43.52649" lon="3.90369">
        <ele>47</ele>
        <time>2016-04-17T15:20:55.973Z</time>
      </trkpt>
      <trkpt lat="43.52651" lon="3.90373">
        <ele>48</ele>
        <time>2016-04-17T15:20:56.945Z</time>
      </trkpt>
      <trkpt lat="43.52656" lon="3.90381">
        <ele>48</ele>
        <time>2016-04-17T15:20:58.967Z</time>
      </trkpt>
      <trkpt lat="43.52658" lon="3.90386">
        <ele>48</ele>
        <time>2016-04-17T15:20:59.972Z</time>
      </trkpt>
      <trkpt lat="43.52661" lon="3.90393">
        <ele>48</ele>
        <time>2016-04-17T15:21:01.974Z</time>
      </trkpt>
      <trkpt lat="43.52663" lon="3.90396">
        <ele>47</ele>
        <time>2016-04-17T15:21:02.945Z</time>
      </trkpt>
      <trkpt lat="43.52667" lon="3.90406">
        <ele>47</ele>
        <time>2016-04-17T15:21:04.973Z</time>
      </trkpt>
      <trkpt lat="43.52669" lon="3.90412">
        <ele>48</ele>
        <time>2016-04-17T15:21:05.947Z</time>
      </trkpt>
      <trkpt lat="43.52673" lon="3.9042">
        <ele>48</ele>
        <time>2016-04-17T15:21:07.975Z</time>
      </trkpt>
      <trkpt lat="43.52676" lon="3.90424">
        <ele>48</ele>
        <time>2016-04-17T15:21:08.944Z</time>
      </trkpt>
      <trkpt lat="43.5268" lon="3.90432">
        <ele>48</ele>
        <time>2016-04-17T15:21:10.979Z</time>
      </trkpt>
      <trkpt lat="43.52682" lon="3.90434">
        <ele>48</ele>
        <time>2016-04-17T15:21:11.946Z</time>
      </trkpt>
      <trkpt lat="43.52686" lon="3.90443">
        <ele>47</ele>
        <time>2016-04-17T15:21:13.978Z</time>
      </trkpt>
      <trkpt lat="43.52687" lon="3.90448">
        <ele>47</ele>
        <time>2016-04-17T15:21:14.945Z</time>
      </trkpt>
      <trkpt lat="43.52691" lon="3.90457">
        <ele>47</ele>
        <time>2016-04-17T15:21:17.056Z</time>
      </trkpt>
      <trkpt lat="43.52693" lon="3.90462">
        <ele>45</ele>
        <time>2016-04-17T15:21:17.944Z</time>
      </trkpt>
      <trkpt lat="43.52695" lon="3.9047">
        <ele>43</ele>
        <time>2016-04-17T15:21:18.973Z</time>
      </trkpt>
      <trkpt lat="43.52697" lon="3.90474">
        <ele>43</ele>
        <time>2016-04-17T15:21:19.944Z</time>
      </trkpt>
      <trkpt lat="43.52702" lon="3.90481">
        <ele>43</ele>
        <time>2016-04-17T15:21:21.974Z</time>
      </trkpt>
      <trkpt lat="43.52704" lon="3.90485">
        <ele>43</ele>
        <time>2016-04-17T15:21:22.945Z</time>
      </trkpt>
      <trkpt lat="43.5271" lon="3.90492">
        <ele>45</ele>
        <time>2016-04-17T15:21:24.977Z</time>
      </trkpt>
      <trkpt lat="43.52712" lon="3.90496">
        <ele>46</ele>
        <time>2016-04-17T15:21:25.944Z</time>
      </trkpt>
      <trkpt lat="43.52716" lon="3.90504">
        <ele>47</ele>
        <time>2016-04-17T15:21:27.980Z</time>
      </trkpt>
      <trkpt lat="43.52719" lon="3.90506">
        <ele>46</ele>
        <time>2016-04-17T15:21:28.947Z</time>
      </trkpt>
      <trkpt lat="43.52723" lon="3.90513">
        <ele>46</ele>
        <time>2016-04-17T15:21:30.974Z</time>
      </trkpt>
      <trkpt lat="43.52725" lon="3.90519">
        <ele>46</ele>
        <time>2016-04-17T15:21:31.946Z</time>
      </trkpt>
      <trkpt lat="43.52727" lon="3.90524">
        <ele>46</ele>
        <time>2016-04-17T15:21:32.975Z</time>
      </trkpt>
      <trkpt lat="43.52729" lon="3.90531">
        <ele>43</ele>
        <time>2016-04-17T15:21:33.945Z</time>
      </trkpt>
      <trkpt lat="43.52734" lon="3.90537">
        <ele>43</ele>
        <time>2016-04-17T15:21:35.976Z</time>
      </trkpt>
      <trkpt lat="43.52736" lon="3.90541">
        <ele>43</ele>
        <time>2016-04-17T15:21:36.972Z</time>
      </trkpt>
      <trkpt lat="43.52741" lon="3.9055">
        <ele>44</ele>
        <time>2016-04-17T15:21:38.973Z</time>
      </trkpt>
      <trkpt lat="43.52743" lon="3.90554">
        <ele>44</ele>
        <time>2016-04-17T15:21:39.945Z</time>
      </trkpt>
      <trkpt lat="43.52747" lon="3.90562">
        <ele>44</ele>
        <time>2016-04-17T15:21:41.973Z</time>
      </trkpt>
      <trkpt lat="43.52748" lon="3.90567">
        <ele>44</ele>
        <time>2016-04-17T15:21:42.944Z</time>
      </trkpt>
      <trkpt lat="43.52752" lon="3.90576">
        <ele>44</ele>
        <time>2016-04-17T15:21:44.974Z</time>
      </trkpt>
      <trkpt lat="43.52754" lon="3.90579">
        <ele>44</ele>
        <time>2016-04-17T15:21:45.946Z</time>
      </trkpt>
      <trkpt lat="43.52756" lon="3.90588">
        <ele>43</ele>
        <time>2016-04-17T15:21:47.972Z</time>
      </trkpt>
      <trkpt lat="43.52759" lon="3.90591">
        <ele>43</ele>
        <time>2016-04-17T15:21:48.945Z</time>
      </trkpt>
      <trkpt lat="43.52763" lon="3.90601">
        <ele>44</ele>
        <time>2016-04-17T15:21:51.974Z</time>
      </trkpt>
      <trkpt lat="43.52765" lon="3.90603">
        <ele>44</ele>
        <time>2016-04-17T15:21:52.971Z</time>
      </trkpt>
      <trkpt lat="43.52771" lon="3.90608">
        <ele>46</ele>
        <time>2016-04-17T15:21:54.975Z</time>
      </trkpt>
      <trkpt lat="43.52774" lon="3.90609">
        <ele>47</ele>
        <time>2016-04-17T15:21:55.946Z</time>
      </trkpt>
      <trkpt lat="43.52779" lon="3.90616">
        <ele>45</ele>
        <time>2016-04-17T15:21:57.975Z</time>
      </trkpt>
      <trkpt lat="43.52783" lon="3.90621">
        <ele>43</ele>
        <time>2016-04-17T15:21:58.946Z</time>
      </trkpt>
      <trkpt lat="43.52788" lon="3.90629">
        <ele>43</ele>
        <time>2016-04-17T15:22:00.975Z</time>
      </trkpt>
      <trkpt lat="43.52789" lon="3.90633">
        <ele>44</ele>
        <time>2016-04-17T15:22:01.946Z</time>
      </trkpt>
      <trkpt lat="43.52795" lon="3.90638">
        <ele>45</ele>
        <time>2016-04-17T15:22:03.974Z</time>
      </trkpt>
      <trkpt lat="43.52796" lon="3.90641">
        <ele>46</ele>
        <time>2016-04-17T15:22:04.946Z</time>
      </trkpt>
      <trkpt lat="43.52798" lon="3.90649">
        <ele>44</ele>
        <time>2016-04-17T15:22:06.976Z</time>
      </trkpt>
      <trkpt lat="43.52799" lon="3.90653">
        <ele>43</ele>
        <time>2016-04-17T15:22:07.946Z</time>
      </trkpt>
      <trkpt lat="43.52803" lon="3.90661">
        <ele>43</ele>
        <time>2016-04-17T15:22:09.980Z</time>
      </trkpt>
      <trkpt lat="43.52804" lon="3.90665">
        <ele>44</ele>
        <time>2016-04-17T15:22:10.949Z</time>
      </trkpt>
      <trkpt lat="43.52807" lon="3.90674">
        <ele>44</ele>
        <time>2016-04-17T15:22:12.979Z</time>
      </trkpt>
      <trkpt lat="43.52809" lon="3.90682">
        <ele>42</ele>
        <time>2016-04-17T15:22:13.946Z</time>
      </trkpt>
      <trkpt lat="43.52813" lon="3.90691">
        <ele>42</ele>
        <time>2016-04-17T15:22:15.978Z</time>
      </trkpt>
      <trkpt lat="43.52815" lon="3.90694">
        <ele>43</ele>
        <time>2016-04-17T15:22:16.946Z</time>
      </trkpt>
      <trkpt lat="43.52818" lon="3.90702">
        <ele>43</ele>
        <time>2016-04-17T15:22:18.975Z</time>
      </trkpt>
      <trkpt lat="43.52821" lon="3.90704">
        <ele>43</ele>
        <time>2016-04-17T15:22:19.947Z</time>
      </trkpt>
      <trkpt lat="43.52827" lon="3.90712">
        <ele>44</ele>
        <time>2016-04-17T15:22:21.977Z</time>
      </trkpt>
      <trkpt lat="43.52829" lon="3.90716">
        <ele>45</ele>
        <time>2016-04-17T15:22:22.947Z</time>
      </trkpt>
      <trkpt lat="43.52835" lon="3.90725">
        <ele>47</ele>
        <time>2016-04-17T15:22:25.974Z</time>
      </trkpt>
      <trkpt lat="43.52837" lon="3.90729">
        <ele>47</ele>
        <time>2016-04-17T15:22:26.945Z</time>
      </trkpt>
      <trkpt lat="43.52842" lon="3.90737">
        <ele>47</ele>
        <time>2016-04-17T15:22:28.974Z</time>
      </trkpt>
      <trkpt lat="43.52844" lon="3.9074">
        <ele>48</ele>
        <time>2016-04-17T15:22:29.946Z</time>
      </trkpt>
      <trkpt lat="43.52848" lon="3.90747">
        <ele>49</ele>
        <time>2016-04-17T15:22:32.030Z</time>
      </trkpt>
      <trkpt lat="43.52851" lon="3.90751">
        <ele>50</ele>
        <time>2016-04-17T15:22:32.946Z</time>
      </trkpt>
      <trkpt lat="43.52856" lon="3.9076">
        <ele>49</ele>
        <time>2016-04-17T15:22:35.973Z</time>
      </trkpt>
      <trkpt lat="43.52858" lon="3.90763">
        <ele>49</ele>
        <time>2016-04-17T15:22:36.945Z</time>
      </trkpt>
      <trkpt lat="43.52862" lon="3.90769">
        <ele>51</ele>
        <time>2016-04-17T15:22:38.972Z</time>
      </trkpt>
      <trkpt lat="43.52865" lon="3.90772">
        <ele>50</ele>
        <time>2016-04-17T15:22:39.948Z</time>
      </trkpt>
      <trkpt lat="43.5287" lon="3.90777">
        <ele>50</ele>
        <time>2016-04-17T15:22:41.974Z</time>
      </trkpt>
      <trkpt lat="43.52872" lon="3.9078">
        <ele>49</ele>
        <time>2016-04-17T15:22:42.946Z</time>
      </trkpt>
      <trkpt lat="43.52875" lon="3.90786">
        <ele>50</ele>
        <time>2016-04-17T15:22:44.973Z</time>
      </trkpt>
      <trkpt lat="43.52876" lon="3.90791">
        <ele>51</ele>
        <time>2016-04-17T15:22:45.943Z</time>
      </trkpt>
      <trkpt lat="43.5288" lon="3.90797">
        <ele>51</ele>
        <time>2016-04-17T15:22:47.969Z</time>
      </trkpt>
      <trkpt lat="43.52881" lon="3.90804">
        <ele>50</ele>
        <time>2016-04-17T15:22:48.946Z</time>
      </trkpt>
      <trkpt lat="43.52885" lon="3.90812">
        <ele>49</ele>
        <time>2016-04-17T15:22:50.973Z</time>
      </trkpt>
      <trkpt lat="43.52887" lon="3.90815">
        <ele>49</ele>
        <time>2016-04-17T15:22:51.946Z</time>
      </trkpt>
      <trkpt lat="43.52891" lon="3.90822">
        <ele>49</ele>
        <time>2016-04-17T15:22:53.974Z</time>
      </trkpt>
      <trkpt lat="43.52893" lon="3.90826">
        <ele>50</ele>
        <time>2016-04-17T15:22:54.946Z</time>
      </trkpt>
      <trkpt lat="43.52898" lon="3.90834">
        <ele>48</ele>
        <time>2016-04-17T15:22:56.995Z</time>
      </trkpt>
      <trkpt lat="43.529" lon="3.90837">
        <ele>49</ele>
        <time>2016-04-17T15:22:57.945Z</time>
      </trkpt>
      <trkpt lat="43.52904" lon="3.90848">
        <ele>49</ele>
        <time>2016-04-17T15:22:59.976Z</time>
      </trkpt>
      <trkpt lat="43.52906" lon="3.9085">
        <ele>49</ele>
        <time>2016-04-17T15:23:00.945Z</time>
      </trkpt>
      <trkpt lat="43.52911" lon="3.90859">
        <ele>51</ele>
        <time>2016-04-17T15:23:02.973Z</time>
      </trkpt>
      <trkpt lat="43.52914" lon="3.90863">
        <ele>51</ele>
        <time>2016-04-17T15:23:03.943Z</time>
      </trkpt>
      <trkpt lat="43.52921" lon="3.90869">
        <ele>51</ele>
        <time>2016-04-17T15:23:05.973Z</time>
      </trkpt>
      <trkpt lat="43.52924" lon="3.90873">
        <ele>51</ele>
        <time>2016-04-17T15:23:06.947Z</time>
      </trkpt>
      <trkpt lat="43.5293" lon="3.90879">
        <ele>51</ele>
        <time>2016-04-17T15:23:08.972Z</time>
      </trkpt>
      <trkpt lat="43.52932" lon="3.90885">
        <ele>50</ele>
        <time>2016-04-17T15:23:09.947Z</time>
      </trkpt>
      <trkpt lat="43.52937" lon="3.90893">
        <ele>51</ele>
        <time>2016-04-17T15:23:11.972Z</time>
      </trkpt>
      <trkpt lat="43.5294" lon="3.90897">
        <ele>51</ele>
        <time>2016-04-17T15:23:12.947Z</time>
      </trkpt>
      <trkpt lat="43.52945" lon="3.90906">
        <ele>51</ele>
        <time>2016-04-17T15:23:14.974Z</time>
      </trkpt>
      <trkpt lat="43.52947" lon="3.9091">
        <ele>51</ele>
        <time>2016-04-17T15:23:15.946Z</time>
      </trkpt>
      <trkpt lat="43.52951" lon="3.90919">
        <ele>52</ele>
        <time>2016-04-17T15:23:17.989Z</time>
      </trkpt>
      <trkpt lat="43.52952" lon="3.90924">
        <ele>52</ele>
        <time>2016-04-17T15:23:18.951Z</time>
      </trkpt>
      <trkpt lat="43.52954" lon="3.90932">
        <ele>53</ele>
        <time>2016-04-17T15:23:20.983Z</time>
      </trkpt>
      <trkpt lat="43.52956" lon="3.90937">
        <ele>54</ele>
        <time>2016-04-17T15:23:21.945Z</time>
      </trkpt>
      <trkpt lat="43.52961" lon="3.90946">
        <ele>55</ele>
        <time>2016-04-17T15:23:24.974Z</time>
      </trkpt>
      <trkpt lat="43.5296" lon="3.90951">
        <ele>55</ele>
        <time>2016-04-17T15:23:25.946Z</time>
      </trkpt>
      <trkpt lat="43.52963" lon="3.90961">
        <ele>54</ele>
        <time>2016-04-17T15:23:27.972Z</time>
      </trkpt>
      <trkpt lat="43.52965" lon="3.90965">
        <ele>53</ele>
        <time>2016-04-17T15:23:28.949Z</time>
      </trkpt>
      <trkpt lat="43.52969" lon="3.90972">
        <ele>53</ele>
        <time>2016-04-17T15:23:30.981Z</time>
      </trkpt>
      <trkpt lat="43.52971" lon="3.90976">
        <ele>53</ele>
        <time>2016-04-17T15:23:31.947Z</time>
      </trkpt>
      <trkpt lat="43.52975" lon="3.90985">
        <ele>53</ele>
        <time>2016-04-17T15:23:33.991Z</time>
      </trkpt>
      <trkpt lat="43.52977" lon="3.9099">
        <ele>53</ele>
        <time>2016-04-17T15:23:34.949Z</time>
      </trkpt>
      <trkpt lat="43.52981" lon="3.90998">
        <ele>55</ele>
        <time>2016-04-17T15:23:36.975Z</time>
      </trkpt>
      <trkpt lat="43.52984" lon="3.91004">
        <ele>53</ele>
        <time>2016-04-17T15:23:37.946Z</time>
      </trkpt>
      <trkpt lat="43.52988" lon="3.91012">
        <ele>52</ele>
        <time>2016-04-17T15:23:39.974Z</time>
      </trkpt>
      <trkpt lat="43.52991" lon="3.91015">
        <ele>52</ele>
        <time>2016-04-17T15:23:40.946Z</time>
      </trkpt>
      <trkpt lat="43.52992" lon="3.91023">
        <ele>49</ele>
        <time>2016-04-17T15:23:41.974Z</time>
      </trkpt>
      <trkpt lat="43.52994" lon="3.91026">
        <ele>48</ele>
        <time>2016-04-17T15:23:42.947Z</time>
      </trkpt>
      <trkpt lat="43.52998" lon="3.91035">
        <ele>47</ele>
        <time>2016-04-17T15:23:44.975Z</time>
      </trkpt>
      <trkpt lat="43.52999" lon="3.91041">
        <ele>48</ele>
        <time>2016-04-17T15:23:45.946Z</time>
      </trkpt>
      <trkpt lat="43.53002" lon="3.91053">
        <ele>48</ele>
        <time>2016-04-17T15:23:47.975Z</time>
      </trkpt>
      <trkpt lat="43.53005" lon="3.91058">
        <ele>48</ele>
        <time>2016-04-17T15:23:48.944Z</time>
      </trkpt>
      <trkpt lat="43.53011" lon="3.91066">
        <ele>49</ele>
        <time>2016-04-17T15:23:50.973Z</time>
      </trkpt>
      <trkpt lat="43.53014" lon="3.91069">
        <ele>50</ele>
        <time>2016-04-17T15:23:51.946Z</time>
      </trkpt>
      <trkpt lat="43.53018" lon="3.91074">
        <ele>50</ele>
        <time>2016-04-17T15:23:53.969Z</time>
      </trkpt>
      <trkpt lat="43.53021" lon="3.91078">
        <ele>50</ele>
        <time>2016-04-17T15:23:54.947Z</time>
      </trkpt>
      <trkpt lat="43.53027" lon="3.91086">
        <ele>49</ele>
        <time>2016-04-17T15:23:56.973Z</time>
      </trkpt>
      <trkpt lat="43.5303" lon="3.9109">
        <ele>47</ele>
        <time>2016-04-17T15:23:57.946Z</time>
      </trkpt>
      <trkpt lat="43.53031" lon="3.911">
        <ele>46</ele>
        <time>2016-04-17T15:24:00.126Z</time>
      </trkpt>
      <trkpt lat="43.53033" lon="3.91103">
        <ele>47</ele>
        <time>2016-04-17T15:24:00.946Z</time>
      </trkpt>
      <trkpt lat="43.53036" lon="3.91112">
        <ele>48</ele>
        <time>2016-04-17T15:24:02.973Z</time>
      </trkpt>
      <trkpt lat="43.53038" lon="3.91116">
        <ele>47</ele>
        <time>2016-04-17T15:24:03.950Z</time>
      </trkpt>
      <trkpt lat="43.53044" lon="3.91125">
        <ele>48</ele>
        <time>2016-04-17T15:24:06.975Z</time>
      </trkpt>
      <trkpt lat="43.53046" lon="3.91129">
        <ele>48</ele>
        <time>2016-04-17T15:24:07.945Z</time>
      </trkpt>
      <trkpt lat="43.53051" lon="3.91135">
        <ele>47</ele>
        <time>2016-04-17T15:24:09.972Z</time>
      </trkpt>
      <trkpt lat="43.53054" lon="3.91139">
        <ele>48</ele>
        <time>2016-04-17T15:24:10.970Z</time>
      </trkpt>
      <trkpt lat="43.53059" lon="3.91146">
        <ele>49</ele>
        <time>2016-04-17T15:24:13.110Z</time>
      </trkpt>
      <trkpt lat="43.53061" lon="3.91148">
        <ele>49</ele>
        <time>2016-04-17T15:24:13.947Z</time>
      </trkpt>
      <trkpt lat="43.53065" lon="3.91154">
        <ele>51</ele>
        <time>2016-04-17T15:24:15.973Z</time>
      </trkpt>
      <trkpt lat="43.53068" lon="3.91158">
        <ele>50</ele>
        <time>2016-04-17T15:24:16.944Z</time>
      </trkpt>
      <trkpt lat="43.53073" lon="3.91166">
        <ele>50</ele>
        <time>2016-04-17T15:24:18.975Z</time>
      </trkpt>
      <trkpt lat="43.53074" lon="3.91169">
        <ele>49</ele>
        <time>2016-04-17T15:24:19.946Z</time>
      </trkpt>
      <trkpt lat="43.5308" lon="3.91175">
        <ele>48</ele>
        <time>2016-04-17T15:24:22.036Z</time>
      </trkpt>
      <trkpt lat="43.53082" lon="3.91179">
        <ele>48</ele>
        <time>2016-04-17T15:24:22.941Z</time>
      </trkpt>
      <trkpt lat="43.53084" lon="3.91186">
        <ele>47</ele>
        <time>2016-04-17T15:24:23.968Z</time>
      </trkpt>
      <trkpt lat="43.53085" lon="3.9119">
        <ele>48</ele>
        <time>2016-04-17T15:24:24.949Z</time>
      </trkpt>
      <trkpt lat="43.53089" lon="3.912">
        <ele>47</ele>
        <time>2016-04-17T15:24:26.993Z</time>
      </trkpt>
      <trkpt lat="43.53091" lon="3.91204">
        <ele>47</ele>
        <time>2016-04-17T15:24:27.948Z</time>
      </trkpt>
      <trkpt lat="43.53096" lon="3.91213">
        <ele>48</ele>
        <time>2016-04-17T15:24:29.973Z</time>
      </trkpt>
      <trkpt lat="43.53098" lon="3.91217">
        <ele>48</ele>
        <time>2016-04-17T15:24:30.951Z</time>
      </trkpt>
      <trkpt lat="43.53101" lon="3.91226">
        <ele>48</ele>
        <time>2016-04-17T15:24:32.971Z</time>
      </trkpt>
      <trkpt lat="43.53103" lon="3.91231">
        <ele>48</ele>
        <time>2016-04-17T15:24:33.948Z</time>
      </trkpt>
      <trkpt lat="43.53108" lon="3.91239">
        <ele>49</ele>
        <time>2016-04-17T15:24:35.971Z</time>
      </trkpt>
      <trkpt lat="43.5311" lon="3.91243">
        <ele>49</ele>
        <time>2016-04-17T15:24:36.948Z</time>
      </trkpt>
      <trkpt lat="43.53116" lon="3.91252">
        <ele>48</ele>
        <time>2016-04-17T15:24:38.971Z</time>
      </trkpt>
      <trkpt lat="43.53118" lon="3.91256">
        <ele>49</ele>
        <time>2016-04-17T15:24:39.949Z</time>
      </trkpt>
      <trkpt lat="43.53123" lon="3.91264">
        <ele>50</ele>
        <time>2016-04-17T15:24:41.971Z</time>
      </trkpt>
      <trkpt lat="43.53126" lon="3.91267">
        <ele>51</ele>
        <time>2016-04-17T15:24:42.948Z</time>
      </trkpt>
      <trkpt lat="43.53131" lon="3.91276">
        <ele>51</ele>
        <time>2016-04-17T15:24:44.971Z</time>
      </trkpt>
      <trkpt lat="43.53134" lon="3.9128">
        <ele>51</ele>
        <time>2016-04-17T15:24:45.947Z</time>
      </trkpt>
      <trkpt lat="43.53138" lon="3.9129">
        <ele>52</ele>
        <time>2016-04-17T15:24:47.992Z</time>
      </trkpt>
      <trkpt lat="43.53141" lon="3.91294">
        <ele>52</ele>
        <time>2016-04-17T15:24:48.947Z</time>
      </trkpt>
      <trkpt lat="43.53147" lon="3.91302">
        <ele>52</ele>
        <time>2016-04-17T15:24:50.970Z</time>
      </trkpt>
      <trkpt lat="43.53149" lon="3.91307">
        <ele>52</ele>
        <time>2016-04-17T15:24:51.947Z</time>
      </trkpt>
      <trkpt lat="43.53154" lon="3.91316">
        <ele>52</ele>
        <time>2016-04-17T15:24:53.971Z</time>
      </trkpt>
      <trkpt lat="43.53157" lon="3.9132">
        <ele>52</ele>
        <time>2016-04-17T15:24:54.947Z</time>
      </trkpt>
      <trkpt lat="43.53161" lon="3.91328">
        <ele>53</ele>
        <time>2016-04-17T15:24:56.970Z</time>
      </trkpt>
      <trkpt lat="43.53163" lon="3.91333">
        <ele>52</ele>
        <time>2016-04-17T15:24:57.953Z</time>
      </trkpt>
      <trkpt lat="43.53167" lon="3.91339">
        <ele>53</ele>
        <time>2016-04-17T15:24:59.981Z</time>
      </trkpt>
      <trkpt lat="43.53169" lon="3.91343">
        <ele>54</ele>
        <time>2016-04-17T15:25:00.953Z</time>
      </trkpt>
      <trkpt lat="43.53173" lon="3.91351">
        <ele>54</ele>
        <time>2016-04-17T15:25:02.971Z</time>
      </trkpt>
      <trkpt lat="43.53175" lon="3.91356">
        <ele>53</ele>
        <time>2016-04-17T15:25:03.948Z</time>
      </trkpt>
      <trkpt lat="43.5318" lon="3.91364">
        <ele>53</ele>
        <time>2016-04-17T15:25:05.969Z</time>
      </trkpt>
      <trkpt lat="43.53184" lon="3.91367">
        <ele>53</ele>
        <time>2016-04-17T15:25:06.947Z</time>
      </trkpt>
      <trkpt lat="43.53188" lon="3.91375">
        <ele>53</ele>
        <time>2016-04-17T15:25:08.993Z</time>
      </trkpt>
      <trkpt lat="43.53191" lon="3.91379">
        <ele>53</ele>
        <time>2016-04-17T15:25:09.947Z</time>
      </trkpt>
      <trkpt lat="43.53195" lon="3.91389">
        <ele>52</ele>
        <time>2016-04-17T15:25:11.976Z</time>
      </trkpt>
      <trkpt lat="43.53197" lon="3.91392">
        <ele>52</ele>
        <time>2016-04-17T15:25:12.948Z</time>
      </trkpt>
      <trkpt lat="43.532" lon="3.91401">
        <ele>53</ele>
        <time>2016-04-17T15:25:14.973Z</time>
      </trkpt>
      <trkpt lat="43.53204" lon="3.91403">
        <ele>52</ele>
        <time>2016-04-17T15:25:15.945Z</time>
      </trkpt>
      <trkpt lat="43.53207" lon="3.9141">
        <ele>51</ele>
        <time>2016-04-17T15:25:17.973Z</time>
      </trkpt>
      <trkpt lat="43.53209" lon="3.91414">
        <ele>52</ele>
        <time>2016-04-17T15:25:18.947Z</time>
      </trkpt>
      <trkpt lat="43.53213" lon="3.91424">
        <ele>53</ele>
        <time>2016-04-17T15:25:20.977Z</time>
      </trkpt>
      <trkpt lat="43.53215" lon="3.91428">
        <ele>53</ele>
        <time>2016-04-17T15:25:21.946Z</time>
      </trkpt>
      <trkpt lat="43.5322" lon="3.91436">
        <ele>52</ele>
        <time>2016-04-17T15:25:23.974Z</time>
      </trkpt>
      <trkpt lat="43.53221" lon="3.91442">
        <ele>51</ele>
        <time>2016-04-17T15:25:24.971Z</time>
      </trkpt>
      <trkpt lat="43.53226" lon="3.9145">
        <ele>53</ele>
        <time>2016-04-17T15:25:26.976Z</time>
      </trkpt>
      <trkpt lat="43.53228" lon="3.91454">
        <ele>53</ele>
        <time>2016-04-17T15:25:27.949Z</time>
      </trkpt>
      <trkpt lat="43.53232" lon="3.91463">
        <ele>52</ele>
        <time>2016-04-17T15:25:29.986Z</time>
      </trkpt>
      <trkpt lat="43.53234" lon="3.91467">
        <ele>53</ele>
        <time>2016-04-17T15:25:30.946Z</time>
      </trkpt>
      <trkpt lat="43.5324" lon="3.91472">
        <ele>51</ele>
        <time>2016-04-17T15:25:32.978Z</time>
      </trkpt>
      <trkpt lat="43.53241" lon="3.91476">
        <ele>50</ele>
        <time>2016-04-17T15:25:33.953Z</time>
      </trkpt>
      <trkpt lat="43.53248" lon="3.91482">
        <ele>50</ele>
        <time>2016-04-17T15:25:35.971Z</time>
      </trkpt>
      <trkpt lat="43.53252" lon="3.91486">
        <ele>51</ele>
        <time>2016-04-17T15:25:36.949Z</time>
      </trkpt>
      <trkpt lat="43.53258" lon="3.91494">
        <ele>52</ele>
        <time>2016-04-17T15:25:38.974Z</time>
      </trkpt>
      <trkpt lat="43.53261" lon="3.91497">
        <ele>52</ele>
        <time>2016-04-17T15:25:39.946Z</time>
      </trkpt>
      <trkpt lat="43.53265" lon="3.91508">
        <ele>53</ele>
        <time>2016-04-17T15:25:41.981Z</time>
      </trkpt>
      <trkpt lat="43.53267" lon="3.91512">
        <ele>53</ele>
        <time>2016-04-17T15:25:42.947Z</time>
      </trkpt>
      <trkpt lat="43.53271" lon="3.91521">
        <ele>53</ele>
        <time>2016-04-17T15:25:44.972Z</time>
      </trkpt>
      <trkpt lat="43.53272" lon="3.91524">
        <ele>53</ele>
        <time>2016-04-17T15:25:45.947Z</time>
      </trkpt>
      <trkpt lat="43.53277" lon="3.91531">
        <ele>50</ele>
        <time>2016-04-17T15:25:47.979Z</time>
      </trkpt>
      <trkpt lat="43.5328" lon="3.91533">
        <ele>48</ele>
        <time>2016-04-17T15:25:48.948Z</time>
      </trkpt>
      <trkpt lat="43.53286" lon="3.9154">
        <ele>51</ele>
        <time>2016-04-17T15:25:51.975Z</time>
      </trkpt>
      <trkpt lat="43.53287" lon="3.91542">
        <ele>51</ele>
        <time>2016-04-17T15:25:52.949Z</time>
      </trkpt>
      <trkpt lat="43.53292" lon="3.91552">
        <ele>52</ele>
        <time>2016-04-17T15:25:56.975Z</time>
      </trkpt>
      <trkpt lat="43.53294" lon="3.91557">
        <ele>51</ele>
        <time>2016-04-17T15:25:57.949Z</time>
      </trkpt>
      <trkpt lat="43.533" lon="3.91566">
        <ele>52</ele>
        <time>2016-04-17T15:26:00.973Z</time>
      </trkpt>
      <trkpt lat="43.53302" lon="3.91568">
        <ele>51</ele>
        <time>2016-04-17T15:26:01.969Z</time>
      </trkpt>
      <trkpt lat="43.53305" lon="3.91574">
        <ele>48</ele>
        <time>2016-04-17T15:26:02.975Z</time>
      </trkpt>
      <trkpt lat="43.53307" lon="3.91578">
        <ele>48</ele>
        <time>2016-04-17T15:26:03.947Z</time>
      </trkpt>
      <trkpt lat="43.53313" lon="3.91586">
        <ele>49</ele>
        <time>2016-04-17T15:26:05.975Z</time>
      </trkpt>
      <trkpt lat="43.53315" lon="3.9159">
        <ele>48</ele>
        <time>2016-04-17T15:26:06.946Z</time>
      </trkpt>
      <trkpt lat="43.53319" lon="3.91599">
        <ele>49</ele>
        <time>2016-04-17T15:26:08.977Z</time>
      </trkpt>
      <trkpt lat="43.53321" lon="3.91603">
        <ele>50</ele>
        <time>2016-04-17T15:26:09.946Z</time>
      </trkpt>
      <trkpt lat="43.53326" lon="3.91611">
        <ele>50</ele>
        <time>2016-04-17T15:26:11.975Z</time>
      </trkpt>
      <trkpt lat="43.53328" lon="3.91613">
        <ele>51</ele>
        <time>2016-04-17T15:26:12.948Z</time>
      </trkpt>
      <trkpt lat="43.53334" lon="3.9162">
        <ele>51</ele>
        <time>2016-04-17T15:26:14.975Z</time>
      </trkpt>
      <trkpt lat="43.53336" lon="3.91624">
        <ele>51</ele>
        <time>2016-04-17T15:26:15.948Z</time>
      </trkpt>
      <trkpt lat="43.53338" lon="3.91631">
        <ele>50</ele>
        <time>2016-04-17T15:26:16.973Z</time>
      </trkpt>
      <trkpt lat="43.5334" lon="3.91635">
        <ele>51</ele>
        <time>2016-04-17T15:26:17.971Z</time>
      </trkpt>
      <trkpt lat="43.53344" lon="3.91644">
        <ele>52</ele>
        <time>2016-04-17T15:26:19.977Z</time>
      </trkpt>
      <trkpt lat="43.53346" lon="3.91649">
        <ele>52</ele>
        <time>2016-04-17T15:26:20.946Z</time>
      </trkpt>
      <trkpt lat="43.53351" lon="3.91656">
        <ele>51</ele>
        <time>2016-04-17T15:26:22.978Z</time>
      </trkpt>
      <trkpt lat="43.53353" lon="3.9166">
        <ele>51</ele>
        <time>2016-04-17T15:26:23.947Z</time>
      </trkpt>
      <trkpt lat="43.53358" lon="3.91666">
        <ele>52</ele>
        <time>2016-04-17T15:26:25.974Z</time>
      </trkpt>
      <trkpt lat="43.53361" lon="3.91669">
        <ele>53</ele>
        <time>2016-04-17T15:26:26.944Z</time>
      </trkpt>
      <trkpt lat="43.53365" lon="3.91676">
        <ele>54</ele>
        <time>2016-04-17T15:26:28.980Z</time>
      </trkpt>
      <trkpt lat="43.53367" lon="3.91685">
        <ele>51</ele>
        <time>2016-04-17T15:26:29.946Z</time>
      </trkpt>
      <trkpt lat="43.53369" lon="3.91694">
        <ele>50</ele>
        <time>2016-04-17T15:26:31.974Z</time>
      </trkpt>
      <trkpt lat="43.5337" lon="3.91698">
        <ele>51</ele>
        <time>2016-04-17T15:26:32.941Z</time>
      </trkpt>
      <trkpt lat="43.53373" lon="3.91708">
        <ele>51</ele>
        <time>2016-04-17T15:26:34.974Z</time>
      </trkpt>
      <trkpt lat="43.53375" lon="3.91712">
        <ele>51</ele>
        <time>2016-04-17T15:26:35.944Z</time>
      </trkpt>
      <trkpt lat="43.53379" lon="3.91718">
        <ele>52</ele>
        <time>2016-04-17T15:26:37.961Z</time>
      </trkpt>
      <trkpt lat="43.53384" lon="3.91725">
        <ele>52</ele>
        <time>2016-04-17T15:26:39.945Z</time>
      </trkpt>
      <trkpt lat="43.53384" lon="3.91733">
        <ele>51</ele>
        <time>2016-04-17T15:26:40.971Z</time>
      </trkpt>
      <trkpt lat="43.53384" lon="3.91739">
        <ele>52</ele>
        <time>2016-04-17T15:26:41.944Z</time>
      </trkpt>
      <trkpt lat="43.53388" lon="3.91745">
        <ele>51</ele>
        <time>2016-04-17T15:26:43.979Z</time>
      </trkpt>
      <trkpt lat="43.5339" lon="3.91749">
        <ele>52</ele>
        <time>2016-04-17T15:26:44.970Z</time>
      </trkpt>
      <trkpt lat="43.53394" lon="3.91758">
        <ele>54</ele>
        <time>2016-04-17T15:26:47.979Z</time>
      </trkpt>
      <trkpt lat="43.53395" lon="3.91762">
        <ele>55</ele>
        <time>2016-04-17T15:26:48.947Z</time>
      </trkpt>
      <trkpt lat="43.53397" lon="3.91772">
        <ele>54</ele>
        <time>2016-04-17T15:26:50.975Z</time>
      </trkpt>
      <trkpt lat="43.53397" lon="3.91777">
        <ele>54</ele>
        <time>2016-04-17T15:26:51.944Z</time>
      </trkpt>
      <trkpt lat="43.53397" lon="3.91788">
        <ele>53</ele>
        <time>2016-04-17T15:26:54.976Z</time>
      </trkpt>
      <trkpt lat="43.534" lon="3.91791">
        <ele>54</ele>
        <time>2016-04-17T15:26:55.947Z</time>
      </trkpt>
      <trkpt lat="43.53403" lon="3.91802">
        <ele>52</ele>
        <time>2016-04-17T15:27:01.985Z</time>
      </trkpt>
      <trkpt lat="43.53403" lon="3.91804">
        <ele>52</ele>
        <time>2016-04-17T15:27:02.950Z</time>
      </trkpt>
      <trkpt lat="43.53404" lon="3.91806">
        <ele>51</ele>
        <time>2016-04-17T15:27:03.974Z</time>
      </trkpt>
      <trkpt lat="43.53402" lon="3.91806">
        <ele>51</ele>
        <time>2016-04-17T15:27:04.945Z</time>
      </trkpt>
      <trkpt lat="43.53402" lon="3.91807">
        <ele>53</ele>
        <time>2016-04-17T15:27:15.974Z</time>
      </trkpt>
      <trkpt lat="43.53403" lon="3.91808">
        <ele>54</ele>
        <time>2016-04-17T15:27:16.944Z</time>
      </trkpt>
      <trkpt lat="43.53411" lon="3.91812">
        <ele>56</ele>
        <time>2016-04-17T15:27:27.980Z</time>
      </trkpt>
      <trkpt lat="43.53412" lon="3.91813">
        <ele>55</ele>
        <time>2016-04-17T15:27:28.944Z</time>
      </trkpt>
      <trkpt lat="43.53417" lon="3.91818">
        <ele>55</ele>
        <time>2016-04-17T15:27:30.971Z</time>
      </trkpt>
      <trkpt lat="43.53419" lon="3.91823">
        <ele>54</ele>
        <time>2016-04-17T15:27:31.944Z</time>
      </trkpt>
      <trkpt lat="43.53422" lon="3.9183">
        <ele>54</ele>
        <time>2016-04-17T15:27:32.974Z</time>
      </trkpt>
      <trkpt lat="43.53424" lon="3.91838">
        <ele>54</ele>
        <time>2016-04-17T15:27:33.944Z</time>
      </trkpt>
      <trkpt lat="43.53426" lon="3.91846">
        <ele>52</ele>
        <time>2016-04-17T15:27:35.101Z</time>
      </trkpt>
      <trkpt lat="43.53428" lon="3.91854">
        <ele>53</ele>
        <time>2016-04-17T15:27:35.944Z</time>
      </trkpt>
      <trkpt lat="43.5343" lon="3.91861">
        <ele>53</ele>
        <time>2016-04-17T15:27:36.973Z</time>
      </trkpt>
      <trkpt lat="43.53432" lon="3.91868">
        <ele>54</ele>
        <time>2016-04-17T15:27:37.944Z</time>
      </trkpt>
      <trkpt lat="43.53434" lon="3.9188">
        <ele>53</ele>
        <time>2016-04-17T15:27:40.973Z</time>
      </trkpt>
      <trkpt lat="43.53434" lon="3.91883">
        <ele>53</ele>
        <time>2016-04-17T15:27:41.947Z</time>
      </trkpt>
      <trkpt lat="43.53432" lon="3.91892">
        <ele>53</ele>
        <time>2016-04-17T15:27:43.977Z</time>
      </trkpt>
      <trkpt lat="43.53431" lon="3.91895">
        <ele>54</ele>
        <time>2016-04-17T15:27:44.948Z</time>
      </trkpt>
      <trkpt lat="43.53432" lon="3.91907">
        <ele>55</ele>
        <time>2016-04-17T15:27:48.124Z</time>
      </trkpt>
      <trkpt lat="43.53433" lon="3.91908">
        <ele>54</ele>
        <time>2016-04-17T15:27:48.944Z</time>
      </trkpt>
      <trkpt lat="43.53438" lon="3.919">
        <ele>53</ele>
        <time>2016-04-17T15:27:52.975Z</time>
      </trkpt>
      <trkpt lat="43.5344" lon="3.91895">
        <ele>53</ele>
        <time>2016-04-17T15:27:53.945Z</time>
      </trkpt>
      <trkpt lat="43.53443" lon="3.91889">
        <ele>53</ele>
        <time>2016-04-17T15:27:55.976Z</time>
      </trkpt>
      <trkpt lat="43.53445" lon="3.91885">
        <ele>54</ele>
        <time>2016-04-17T15:27:56.953Z</time>
      </trkpt>
      <trkpt lat="43.53449" lon="3.91875">
        <ele>53</ele>
        <time>2016-04-17T15:28:01.971Z</time>
      </trkpt>
      <trkpt lat="43.53451" lon="3.91873">
        <ele>53</ele>
        <time>2016-04-17T15:28:02.945Z</time>
      </trkpt>
      <trkpt lat="43.53456" lon="3.91865">
        <ele>54</ele>
        <time>2016-04-17T15:28:06.974Z</time>
      </trkpt>
      <trkpt lat="43.53457" lon="3.91863">
        <ele>53</ele>
        <time>2016-04-17T15:28:07.945Z</time>
      </trkpt>
      <trkpt lat="43.53457" lon="3.9186">
        <ele>52</ele>
        <time>2016-04-17T15:28:09.972Z</time>
      </trkpt>
      <trkpt lat="43.53458" lon="3.9186">
        <ele>50</ele>
        <time>2016-04-17T15:28:10.944Z</time>
      </trkpt>
      <trkpt lat="43.53459" lon="3.91858">
        <ele>49</ele>
        <time>2016-04-17T15:28:18.973Z</time>
      </trkpt>
      <trkpt lat="43.53459" lon="3.91857">
        <ele>49</ele>
        <time>2016-04-17T15:28:19.945Z</time>
      </trkpt>
      <trkpt lat="43.53459" lon="3.91859">
        <ele>48</ele>
        <time>2016-04-17T15:28:35.988Z</time>
      </trkpt>
      <trkpt lat="43.5346" lon="3.91859">
        <ele>46</ele>
        <time>2016-04-17T15:28:36.954Z</time>
      </trkpt>
      <trkpt lat="43.5346" lon="3.91859">
        <ele>46</ele>
        <time>2016-04-17T15:28:36.990Z</time>
      </trkpt>
      <trkpt lat="43.5346" lon="3.91859">
        <ele>47</ele>
        <time>2016-04-17T15:28:37.940Z</time>
      </trkpt>
      <trkpt lat="43.53459" lon="3.91859">
        <ele>47</ele>
        <time>2016-04-17T15:28:43.977Z</time>
      </trkpt>
      <trkpt lat="43.53459" lon="3.91859">
        <ele>47</ele>
        <time>2016-04-17T15:28:44.944Z</time>
      </trkpt>
      <trkpt lat="43.53459" lon="3.91861">
        <ele>48</ele>
        <time>2016-04-17T15:28:49.974Z</time>
      </trkpt>
      <trkpt lat="43.53459" lon="3.91861">
        <ele>47</ele>
        <time>2016-04-17T15:28:50.945Z</time>
      </trkpt>
      <trkpt lat="43.5346" lon="3.91861">
        <ele>48</ele>
        <time>2016-04-17T15:28:53.975Z</time>
      </trkpt>
      <trkpt lat="43.5346" lon="3.91862">
        <ele>48</ele>
        <time>2016-04-17T15:28:54.945Z</time>
      </trkpt>
      <trkpt lat="43.53461" lon="3.91862">
        <ele>49</ele>
        <time>2016-04-17T15:28:57.986Z</time>
      </trkpt>
      <trkpt lat="43.53462" lon="3.91862">
        <ele>49</ele>
        <time>2016-04-17T15:28:58.947Z</time>
      </trkpt>
      <trkpt lat="43.53465" lon="3.9185">
        <ele>45</ele>
        <time>2016-04-17T15:29:24.974Z</time>
      </trkpt>
      <trkpt lat="43.53465" lon="3.9185">
        <ele>44</ele>
        <time>2016-04-17T15:29:25.945Z</time>
      </trkpt>
      <trkpt lat="43.53464" lon="3.91847">
        <ele>36</ele>
        <time>2016-04-17T15:31:11.978Z</time>
      </trkpt>
      <trkpt lat="43.53464" lon="3.91846">
        <ele>37</ele>
        <time>2016-04-17T15:31:12.947Z</time>
      </trkpt>
      <trkpt lat="43.53466" lon="3.91849">
        <ele>42</ele>
        <time>2016-04-17T15:31:39.972Z</time>
      </trkpt>
      <trkpt lat="43.53465" lon="3.91848">
        <ele>42</ele>
        <time>2016-04-17T15:31:40.947Z</time>
      </trkpt>
      <trkpt lat="43.53468" lon="3.9185">
        <ele>47</ele>
        <time>2016-04-17T15:32:31.969Z</time>
      </trkpt>
      <trkpt lat="43.53468" lon="3.91849">
        <ele>48</ele>
        <time>2016-04-17T15:32:32.947Z</time>
      </trkpt>
      <trkpt lat="43.53468" lon="3.91852">
        <ele>49</ele>
        <time>2016-04-17T15:32:59.974Z</time>
      </trkpt>
      <trkpt lat="43.53468" lon="3.91852">
        <ele>49</ele>
        <time>2016-04-17T15:33:01.178Z</time>
      </trkpt>
      <trkpt lat="43.53468" lon="3.91851">
        <ele>50</ele>
        <time>2016-04-17T15:33:10.055Z</time>
      </trkpt>
      <trkpt lat="43.53469" lon="3.91851">
        <ele>50</ele>
        <time>2016-04-17T15:33:10.948Z</time>
      </trkpt>
      <trkpt lat="43.5347" lon="3.91851">
        <ele>49</ele>
        <time>2016-04-17T15:33:15.974Z</time>
      </trkpt>
      <trkpt lat="43.5347" lon="3.9185">
        <ele>49</ele>
        <time>2016-04-17T15:33:16.948Z</time>
      </trkpt>
      <trkpt lat="43.53469" lon="3.91849">
        <ele>49</ele>
        <time>2016-04-17T15:34:30.978Z</time>
      </trkpt>
      <trkpt lat="43.53469" lon="3.91848">
        <ele>48</ele>
        <time>2016-04-17T15:34:31.969Z</time>
      </trkpt>
      <trkpt lat="43.53468" lon="3.91845">
        <ele>43</ele>
        <time>2016-04-17T15:34:56.978Z</time>
      </trkpt>
      <trkpt lat="43.53469" lon="3.91843">
        <ele>44</ele>
        <time>2016-04-17T15:34:57.949Z</time>
      </trkpt>
      <trkpt lat="43.53474" lon="3.91836">
        <ele>46</ele>
        <time>2016-04-17T15:35:00.979Z</time>
      </trkpt>
      <trkpt lat="43.53477" lon="3.91831">
        <ele>46</ele>
        <time>2016-04-17T15:35:01.946Z</time>
      </trkpt>
      <trkpt lat="43.53482" lon="3.91824">
        <ele>46</ele>
        <time>2016-04-17T15:35:02.972Z</time>
      </trkpt>
      <trkpt lat="43.53485" lon="3.91819">
        <ele>45</ele>
        <time>2016-04-17T15:35:03.944Z</time>
      </trkpt>
      <trkpt lat="43.53488" lon="3.91813">
        <ele>44</ele>
        <time>2016-04-17T15:35:05.086Z</time>
      </trkpt>
      <trkpt lat="43.53496" lon="3.91803">
        <ele>43</ele>
        <time>2016-04-17T15:35:06.963Z</time>
      </trkpt>
      <trkpt lat="43.53497" lon="3.91795">
        <ele>42</ele>
        <time>2016-04-17T15:35:07.968Z</time>
      </trkpt>
      <trkpt lat="43.53499" lon="3.9179">
        <ele>43</ele>
        <time>2016-04-17T15:35:08.947Z</time>
      </trkpt>
      <trkpt lat="43.53502" lon="3.91783">
        <ele>42</ele>
        <time>2016-04-17T15:35:09.952Z</time>
      </trkpt>
      <trkpt lat="43.53503" lon="3.91774">
        <ele>42</ele>
        <time>2016-04-17T15:35:10.948Z</time>
      </trkpt>
      <trkpt lat="43.53504" lon="3.91767">
        <ele>41</ele>
        <time>2016-04-17T15:35:11.965Z</time>
      </trkpt>
      <trkpt lat="43.53506" lon="3.91761">
        <ele>40</ele>
        <time>2016-04-17T15:35:12.948Z</time>
      </trkpt>
      <trkpt lat="43.53509" lon="3.91756">
        <ele>41</ele>
        <time>2016-04-17T15:35:13.971Z</time>
      </trkpt>
      <trkpt lat="43.53511" lon="3.9175">
        <ele>42</ele>
        <time>2016-04-17T15:35:14.948Z</time>
      </trkpt>
      <trkpt lat="43.53514" lon="3.91745">
        <ele>43</ele>
        <time>2016-04-17T15:35:15.973Z</time>
      </trkpt>
      <trkpt lat="43.53516" lon="3.91739">
        <ele>43</ele>
        <time>2016-04-17T15:35:16.949Z</time>
      </trkpt>
      <trkpt lat="43.5352" lon="3.91734">
        <ele>44</ele>
        <time>2016-04-17T15:35:17.976Z</time>
      </trkpt>
      <trkpt lat="43.53522" lon="3.91728">
        <ele>43</ele>
        <time>2016-04-17T15:35:18.955Z</time>
      </trkpt>
      <trkpt lat="43.53526" lon="3.91723">
        <ele>44</ele>
        <time>2016-04-17T15:35:19.979Z</time>
      </trkpt>
      <trkpt lat="43.53529" lon="3.91717">
        <ele>45</ele>
        <time>2016-04-17T15:35:20.949Z</time>
      </trkpt>
      <trkpt lat="43.53531" lon="3.91711">
        <ele>44</ele>
        <time>2016-04-17T15:35:21.971Z</time>
      </trkpt>
      <trkpt lat="43.53534" lon="3.91705">
        <ele>44</ele>
        <time>2016-04-17T15:35:22.950Z</time>
      </trkpt>
      <trkpt lat="43.53535" lon="3.91699">
        <ele>45</ele>
        <time>2016-04-17T15:35:23.979Z</time>
      </trkpt>
      <trkpt lat="43.53538" lon="3.91692">
        <ele>46</ele>
        <time>2016-04-17T15:35:24.950Z</time>
      </trkpt>
      <trkpt lat="43.53539" lon="3.91686">
        <ele>46</ele>
        <time>2016-04-17T15:35:25.995Z</time>
      </trkpt>
      <trkpt lat="43.53542" lon="3.91679">
        <ele>46</ele>
        <time>2016-04-17T15:35:26.942Z</time>
      </trkpt>
      <trkpt lat="43.53545" lon="3.91674">
        <ele>45</ele>
        <time>2016-04-17T15:35:27.979Z</time>
      </trkpt>
      <trkpt lat="43.53546" lon="3.91667">
        <ele>44</ele>
        <time>2016-04-17T15:35:28.949Z</time>
      </trkpt>
      <trkpt lat="43.53547" lon="3.91662">
        <ele>44</ele>
        <time>2016-04-17T15:35:29.975Z</time>
      </trkpt>
      <trkpt lat="43.53549" lon="3.91655">
        <ele>43</ele>
        <time>2016-04-17T15:35:30.947Z</time>
      </trkpt>
      <trkpt lat="43.53551" lon="3.91648">
        <ele>45</ele>
        <time>2016-04-17T15:35:32.039Z</time>
      </trkpt>
      <trkpt lat="43.53552" lon="3.91641">
        <ele>45</ele>
        <time>2016-04-17T15:35:32.949Z</time>
      </trkpt>
      <trkpt lat="43.53552" lon="3.91634">
        <ele>46</ele>
        <time>2016-04-17T15:35:33.975Z</time>
      </trkpt>
      <trkpt lat="43.53551" lon="3.91624">
        <ele>44</ele>
        <time>2016-04-17T15:35:34.945Z</time>
      </trkpt>
      <trkpt lat="43.53552" lon="3.91617">
        <ele>44</ele>
        <time>2016-04-17T15:35:35.964Z</time>
      </trkpt>
      <trkpt lat="43.53556" lon="3.91612">
        <ele>44</ele>
        <time>2016-04-17T15:35:36.947Z</time>
      </trkpt>
      <trkpt lat="43.5356" lon="3.91606">
        <ele>43</ele>
        <time>2016-04-17T15:35:37.979Z</time>
      </trkpt>
      <trkpt lat="43.53561" lon="3.916">
        <ele>42</ele>
        <time>2016-04-17T15:35:38.947Z</time>
      </trkpt>
      <trkpt lat="43.5356" lon="3.91592">
        <ele>40</ele>
        <time>2016-04-17T15:35:39.976Z</time>
      </trkpt>
      <trkpt lat="43.53562" lon="3.91584">
        <ele>40</ele>
        <time>2016-04-17T15:35:40.945Z</time>
      </trkpt>
      <trkpt lat="43.53564" lon="3.91577">
        <ele>40</ele>
        <time>2016-04-17T15:35:41.987Z</time>
      </trkpt>
      <trkpt lat="43.53567" lon="3.9157">
        <ele>41</ele>
        <time>2016-04-17T15:35:42.949Z</time>
      </trkpt>
      <trkpt lat="43.53569" lon="3.91563">
        <ele>41</ele>
        <time>2016-04-17T15:35:43.968Z</time>
      </trkpt>
      <trkpt lat="43.53571" lon="3.91557">
        <ele>40</ele>
        <time>2016-04-17T15:35:44.947Z</time>
      </trkpt>
      <trkpt lat="43.53574" lon="3.91551">
        <ele>39</ele>
        <time>2016-04-17T15:35:45.978Z</time>
      </trkpt>
      <trkpt lat="43.53578" lon="3.91547">
        <ele>40</ele>
        <time>2016-04-17T15:35:46.946Z</time>
      </trkpt>
      <trkpt lat="43.53578" lon="3.9154">
        <ele>39</ele>
        <time>2016-04-17T15:35:47.977Z</time>
      </trkpt>
      <trkpt lat="43.53579" lon="3.91534">
        <ele>40</ele>
        <time>2016-04-17T15:35:48.946Z</time>
      </trkpt>
      <trkpt lat="43.53581" lon="3.91527">
        <ele>40</ele>
        <time>2016-04-17T15:35:49.965Z</time>
      </trkpt>
      <trkpt lat="43.53581" lon="3.9152">
        <ele>42</ele>
        <time>2016-04-17T15:35:50.946Z</time>
      </trkpt>
      <trkpt lat="43.53582" lon="3.91512">
        <ele>43</ele>
        <time>2016-04-17T15:35:51.976Z</time>
      </trkpt>
      <trkpt lat="43.53583" lon="3.91505">
        <ele>43</ele>
        <time>2016-04-17T15:35:52.945Z</time>
      </trkpt>
      <trkpt lat="43.53583" lon="3.91498">
        <ele>43</ele>
        <time>2016-04-17T15:35:53.964Z</time>
      </trkpt>
      <trkpt lat="43.53588" lon="3.91495">
        <ele>46</ele>
        <time>2016-04-17T15:35:54.947Z</time>
      </trkpt>
      <trkpt lat="43.53589" lon="3.91488">
        <ele>46</ele>
        <time>2016-04-17T15:35:55.968Z</time>
      </trkpt>
      <trkpt lat="43.53593" lon="3.91483">
        <ele>46</ele>
        <time>2016-04-17T15:35:56.947Z</time>
      </trkpt>
      <trkpt lat="43.53594" lon="3.91477">
        <ele>47</ele>
        <time>2016-04-17T15:35:57.997Z</time>
      </trkpt>
      <trkpt lat="43.53595" lon="3.9147">
        <ele>47</ele>
        <time>2016-04-17T15:35:58.941Z</time>
      </trkpt>
      <trkpt lat="43.53599" lon="3.91465">
        <ele>47</ele>
        <time>2016-04-17T15:35:59.976Z</time>
      </trkpt>
      <trkpt lat="43.53601" lon="3.91459">
        <ele>48</ele>
        <time>2016-04-17T15:36:00.947Z</time>
      </trkpt>
      <trkpt lat="43.53601" lon="3.91452">
        <ele>48</ele>
        <time>2016-04-17T15:36:01.969Z</time>
      </trkpt>
      <trkpt lat="43.53602" lon="3.91445">
        <ele>48</ele>
        <time>2016-04-17T15:36:02.947Z</time>
      </trkpt>
      <trkpt lat="43.53604" lon="3.91439">
        <ele>48</ele>
        <time>2016-04-17T15:36:03.971Z</time>
      </trkpt>
      <trkpt lat="43.53605" lon="3.91432">
        <ele>48</ele>
        <time>2016-04-17T15:36:04.948Z</time>
      </trkpt>
      <trkpt lat="43.53607" lon="3.91426">
        <ele>48</ele>
        <time>2016-04-17T15:36:05.971Z</time>
      </trkpt>
      <trkpt lat="43.5361" lon="3.9142">
        <ele>48</ele>
        <time>2016-04-17T15:36:06.947Z</time>
      </trkpt>
      <trkpt lat="43.53612" lon="3.91414">
        <ele>48</ele>
        <time>2016-04-17T15:36:07.972Z</time>
      </trkpt>
      <trkpt lat="43.53612" lon="3.91407">
        <ele>48</ele>
        <time>2016-04-17T15:36:08.949Z</time>
      </trkpt>
      <trkpt lat="43.53609" lon="3.91398">
        <ele>46</ele>
        <time>2016-04-17T15:36:09.972Z</time>
      </trkpt>
      <trkpt lat="43.53609" lon="3.91391">
        <ele>46</ele>
        <time>2016-04-17T15:36:10.947Z</time>
      </trkpt>
      <trkpt lat="43.53608" lon="3.91384">
        <ele>44</ele>
        <time>2016-04-17T15:36:11.971Z</time>
      </trkpt>
      <trkpt lat="43.53608" lon="3.91377">
        <ele>43</ele>
        <time>2016-04-17T15:36:12.947Z</time>
      </trkpt>
      <trkpt lat="43.53608" lon="3.9137">
        <ele>44</ele>
        <time>2016-04-17T15:36:13.994Z</time>
      </trkpt>
      <trkpt lat="43.53607" lon="3.91363">
        <ele>43</ele>
        <time>2016-04-17T15:36:14.951Z</time>
      </trkpt>
      <trkpt lat="43.53609" lon="3.91352">
        <ele>46</ele>
        <time>2016-04-17T15:36:16.978Z</time>
      </trkpt>
      <trkpt lat="43.53609" lon="3.91346">
        <ele>45</ele>
        <time>2016-04-17T15:36:17.954Z</time>
      </trkpt>
      <trkpt lat="43.53609" lon="3.91335">
        <ele>47</ele>
        <time>2016-04-17T15:36:19.984Z</time>
      </trkpt>
      <trkpt lat="43.53609" lon="3.9133">
        <ele>48</ele>
        <time>2016-04-17T15:36:20.951Z</time>
      </trkpt>
      <trkpt lat="43.53609" lon="3.91321">
        <ele>49</ele>
        <time>2016-04-17T15:36:22.972Z</time>
      </trkpt>
      <trkpt lat="43.53609" lon="3.91315">
        <ele>48</ele>
        <time>2016-04-17T15:36:23.949Z</time>
      </trkpt>
      <trkpt lat="43.53609" lon="3.91309">
        <ele>48</ele>
        <time>2016-04-17T15:36:24.979Z</time>
      </trkpt>
      <trkpt lat="43.53605" lon="3.91301">
        <ele>44</ele>
        <time>2016-04-17T15:36:25.947Z</time>
      </trkpt>
      <trkpt lat="43.53607" lon="3.9129">
        <ele>44</ele>
        <time>2016-04-17T15:36:28.021Z</time>
      </trkpt>
      <trkpt lat="43.53608" lon="3.91285">
        <ele>44</ele>
        <time>2016-04-17T15:36:28.947Z</time>
      </trkpt>
      <trkpt lat="43.53609" lon="3.91279">
        <ele>44</ele>
        <time>2016-04-17T15:36:30.097Z</time>
      </trkpt>
      <trkpt lat="43.53608" lon="3.91271">
        <ele>43</ele>
        <time>2016-04-17T15:36:30.947Z</time>
      </trkpt>
      <trkpt lat="43.53609" lon="3.91259">
        <ele>44</ele>
        <time>2016-04-17T15:36:32.981Z</time>
      </trkpt>
      <trkpt lat="43.53609" lon="3.91254">
        <ele>45</ele>
        <time>2016-04-17T15:36:33.948Z</time>
      </trkpt>
      <trkpt lat="43.53609" lon="3.91242">
        <ele>45</ele>
        <time>2016-04-17T15:36:35.965Z</time>
      </trkpt>
      <trkpt lat="43.53609" lon="3.91237">
        <ele>44</ele>
        <time>2016-04-17T15:36:36.947Z</time>
      </trkpt>
      <trkpt lat="43.53609" lon="3.9123">
        <ele>44</ele>
        <time>2016-04-17T15:36:37.979Z</time>
      </trkpt>
      <trkpt lat="43.53608" lon="3.91224">
        <ele>43</ele>
        <time>2016-04-17T15:36:38.947Z</time>
      </trkpt>
      <trkpt lat="43.53609" lon="3.91212">
        <ele>44</ele>
        <time>2016-04-17T15:36:40.967Z</time>
      </trkpt>
      <trkpt lat="43.53609" lon="3.91205">
        <ele>44</ele>
        <time>2016-04-17T15:36:42.089Z</time>
      </trkpt>
      <trkpt lat="43.53608" lon="3.91194">
        <ele>46</ele>
        <time>2016-04-17T15:36:43.974Z</time>
      </trkpt>
      <trkpt lat="43.53609" lon="3.9119">
        <ele>46</ele>
        <time>2016-04-17T15:36:44.945Z</time>
      </trkpt>
      <trkpt lat="43.5361" lon="3.9118">
        <ele>44</ele>
        <time>2016-04-17T15:36:46.966Z</time>
      </trkpt>
      <trkpt lat="43.53608" lon="3.91174">
        <ele>44</ele>
        <time>2016-04-17T15:36:47.947Z</time>
      </trkpt>
      <trkpt lat="43.53608" lon="3.91162">
        <ele>44</ele>
        <time>2016-04-17T15:36:49.968Z</time>
      </trkpt>
      <trkpt lat="43.53608" lon="3.91157">
        <ele>44</ele>
        <time>2016-04-17T15:36:50.972Z</time>
      </trkpt>
      <trkpt lat="43.53608" lon="3.9115">
        <ele>45</ele>
        <time>2016-04-17T15:36:51.979Z</time>
      </trkpt>
      <trkpt lat="43.53608" lon="3.91145">
        <ele>45</ele>
        <time>2016-04-17T15:36:52.945Z</time>
      </trkpt>
      <trkpt lat="43.5361" lon="3.91134">
        <ele>46</ele>
        <time>2016-04-17T15:36:54.973Z</time>
      </trkpt>
      <trkpt lat="43.5361" lon="3.91128">
        <ele>46</ele>
        <time>2016-04-17T15:36:55.950Z</time>
      </trkpt>
      <trkpt lat="43.53609" lon="3.91121">
        <ele>47</ele>
        <time>2016-04-17T15:36:56.971Z</time>
      </trkpt>
      <trkpt lat="43.53608" lon="3.91114">
        <ele>46</ele>
        <time>2016-04-17T15:36:57.949Z</time>
      </trkpt>
      <trkpt lat="43.53607" lon="3.91107">
        <ele>46</ele>
        <time>2016-04-17T15:36:58.972Z</time>
      </trkpt>
      <trkpt lat="43.53607" lon="3.91101">
        <ele>46</ele>
        <time>2016-04-17T15:36:59.949Z</time>
      </trkpt>
      <trkpt lat="43.53607" lon="3.91095">
        <ele>46</ele>
        <time>2016-04-17T15:37:00.963Z</time>
      </trkpt>
      <trkpt lat="43.53607" lon="3.91088">
        <ele>46</ele>
        <time>2016-04-17T15:37:01.949Z</time>
      </trkpt>
      <trkpt lat="43.53607" lon="3.91082">
        <ele>46</ele>
        <time>2016-04-17T15:37:02.974Z</time>
      </trkpt>
      <trkpt lat="43.53607" lon="3.91075">
        <ele>47</ele>
        <time>2016-04-17T15:37:03.950Z</time>
      </trkpt>
      <trkpt lat="43.53608" lon="3.91069">
        <ele>46</ele>
        <time>2016-04-17T15:37:04.974Z</time>
      </trkpt>
      <trkpt lat="43.53607" lon="3.91062">
        <ele>44</ele>
        <time>2016-04-17T15:37:05.951Z</time>
      </trkpt>
      <trkpt lat="43.53607" lon="3.91055">
        <ele>44</ele>
        <time>2016-04-17T15:37:06.995Z</time>
      </trkpt>
      <trkpt lat="43.53607" lon="3.91048">
        <ele>45</ele>
        <time>2016-04-17T15:37:07.950Z</time>
      </trkpt>
      <trkpt lat="43.53607" lon="3.91042">
        <ele>45</ele>
        <time>2016-04-17T15:37:08.973Z</time>
      </trkpt>
      <trkpt lat="43.53607" lon="3.91035">
        <ele>45</ele>
        <time>2016-04-17T15:37:09.950Z</time>
      </trkpt>
      <trkpt lat="43.53608" lon="3.91029">
        <ele>45</ele>
        <time>2016-04-17T15:37:10.976Z</time>
      </trkpt>
      <trkpt lat="43.53608" lon="3.91023">
        <ele>45</ele>
        <time>2016-04-17T15:37:11.951Z</time>
      </trkpt>
      <trkpt lat="43.53608" lon="3.91016">
        <ele>44</ele>
        <time>2016-04-17T15:37:12.975Z</time>
      </trkpt>
      <trkpt lat="43.53608" lon="3.91008">
        <ele>44</ele>
        <time>2016-04-17T15:37:13.950Z</time>
      </trkpt>
      <trkpt lat="43.53607" lon="3.91002">
        <ele>44</ele>
        <time>2016-04-17T15:37:14.974Z</time>
      </trkpt>
      <trkpt lat="43.53607" lon="3.90996">
        <ele>45</ele>
        <time>2016-04-17T15:37:15.950Z</time>
      </trkpt>
      <trkpt lat="43.53606" lon="3.90988">
        <ele>46</ele>
        <time>2016-04-17T15:37:16.973Z</time>
      </trkpt>
      <trkpt lat="43.53606" lon="3.90981">
        <ele>46</ele>
        <time>2016-04-17T15:37:17.950Z</time>
      </trkpt>
      <trkpt lat="43.53606" lon="3.90975">
        <ele>46</ele>
        <time>2016-04-17T15:37:18.972Z</time>
      </trkpt>
      <trkpt lat="43.53607" lon="3.90968">
        <ele>45</ele>
        <time>2016-04-17T15:37:19.949Z</time>
      </trkpt>
      <trkpt lat="43.53607" lon="3.90961">
        <ele>45</ele>
        <time>2016-04-17T15:37:20.973Z</time>
      </trkpt>
      <trkpt lat="43.53607" lon="3.90954">
        <ele>44</ele>
        <time>2016-04-17T15:37:21.950Z</time>
      </trkpt>
      <trkpt lat="43.53606" lon="3.90947">
        <ele>44</ele>
        <time>2016-04-17T15:37:22.997Z</time>
      </trkpt>
      <trkpt lat="43.53607" lon="3.9094">
        <ele>44</ele>
        <time>2016-04-17T15:37:23.951Z</time>
      </trkpt>
      <trkpt lat="43.53606" lon="3.90933">
        <ele>45</ele>
        <time>2016-04-17T15:37:24.986Z</time>
      </trkpt>
      <trkpt lat="43.53606" lon="3.90926">
        <ele>45</ele>
        <time>2016-04-17T15:37:25.950Z</time>
      </trkpt>
      <trkpt lat="43.53605" lon="3.90919">
        <ele>45</ele>
        <time>2016-04-17T15:37:26.972Z</time>
      </trkpt>
      <trkpt lat="43.53605" lon="3.90912">
        <ele>45</ele>
        <time>2016-04-17T15:37:27.951Z</time>
      </trkpt>
      <trkpt lat="43.53605" lon="3.90906">
        <ele>46</ele>
        <time>2016-04-17T15:37:28.974Z</time>
      </trkpt>
      <trkpt lat="43.53605" lon="3.90899">
        <ele>45</ele>
        <time>2016-04-17T15:37:29.950Z</time>
      </trkpt>
      <trkpt lat="43.53605" lon="3.90892">
        <ele>45</ele>
        <time>2016-04-17T15:37:30.974Z</time>
      </trkpt>
      <trkpt lat="43.53605" lon="3.90885">
        <ele>46</ele>
        <time>2016-04-17T15:37:31.951Z</time>
      </trkpt>
      <trkpt lat="43.53605" lon="3.90878">
        <ele>45</ele>
        <time>2016-04-17T15:37:32.976Z</time>
      </trkpt>
      <trkpt lat="43.53605" lon="3.90871">
        <ele>46</ele>
        <time>2016-04-17T15:37:33.950Z</time>
      </trkpt>
      <trkpt lat="43.53606" lon="3.90863">
        <ele>45</ele>
        <time>2016-04-17T15:37:34.973Z</time>
      </trkpt>
      <trkpt lat="43.53605" lon="3.90857">
        <ele>45</ele>
        <time>2016-04-17T15:37:35.951Z</time>
      </trkpt>
      <trkpt lat="43.53605" lon="3.9085">
        <ele>45</ele>
        <time>2016-04-17T15:37:36.974Z</time>
      </trkpt>
      <trkpt lat="43.53605" lon="3.90843">
        <ele>45</ele>
        <time>2016-04-17T15:37:37.951Z</time>
      </trkpt>
      <trkpt lat="43.53605" lon="3.90837">
        <ele>46</ele>
        <time>2016-04-17T15:37:38.999Z</time>
      </trkpt>
      <trkpt lat="43.53606" lon="3.90829">
        <ele>46</ele>
        <time>2016-04-17T15:37:39.952Z</time>
      </trkpt>
      <trkpt lat="43.53606" lon="3.90822">
        <ele>45</ele>
        <time>2016-04-17T15:37:40.978Z</time>
      </trkpt>
      <trkpt lat="43.53607" lon="3.90815">
        <ele>45</ele>
        <time>2016-04-17T15:37:41.956Z</time>
      </trkpt>
      <trkpt lat="43.53606" lon="3.90808">
        <ele>43</ele>
        <time>2016-04-17T15:37:42.980Z</time>
      </trkpt>
      <trkpt lat="43.53607" lon="3.90801">
        <ele>42</ele>
        <time>2016-04-17T15:37:43.946Z</time>
      </trkpt>
      <trkpt lat="43.53607" lon="3.90794">
        <ele>41</ele>
        <time>2016-04-17T15:37:44.974Z</time>
      </trkpt>
      <trkpt lat="43.53608" lon="3.90787">
        <ele>41</ele>
        <time>2016-04-17T15:37:45.950Z</time>
      </trkpt>
      <trkpt lat="43.53609" lon="3.90781">
        <ele>41</ele>
        <time>2016-04-17T15:37:46.979Z</time>
      </trkpt>
      <trkpt lat="43.53609" lon="3.90774">
        <ele>41</ele>
        <time>2016-04-17T15:37:47.944Z</time>
      </trkpt>
      <trkpt lat="43.5361" lon="3.90766">
        <ele>41</ele>
        <time>2016-04-17T15:37:48.974Z</time>
      </trkpt>
      <trkpt lat="43.53611" lon="3.90759">
        <ele>42</ele>
        <time>2016-04-17T15:37:49.950Z</time>
      </trkpt>
      <trkpt lat="43.53611" lon="3.90752">
        <ele>42</ele>
        <time>2016-04-17T15:37:51.101Z</time>
      </trkpt>
      <trkpt lat="43.53612" lon="3.90745">
        <ele>42</ele>
        <time>2016-04-17T15:37:51.948Z</time>
      </trkpt>
      <trkpt lat="43.53613" lon="3.90738">
        <ele>44</ele>
        <time>2016-04-17T15:37:52.983Z</time>
      </trkpt>
      <trkpt lat="43.53613" lon="3.90731">
        <ele>44</ele>
        <time>2016-04-17T15:37:53.943Z</time>
      </trkpt>
      <trkpt lat="43.53615" lon="3.90723">
        <ele>45</ele>
        <time>2016-04-17T15:37:54.997Z</time>
      </trkpt>
      <trkpt lat="43.53616" lon="3.90716">
        <ele>44</ele>
        <time>2016-04-17T15:37:55.944Z</time>
      </trkpt>
      <trkpt lat="43.53617" lon="3.9071">
        <ele>44</ele>
        <time>2016-04-17T15:37:57.023Z</time>
      </trkpt>
      <trkpt lat="43.53619" lon="3.90704">
        <ele>44</ele>
        <time>2016-04-17T15:37:57.949Z</time>
      </trkpt>
      <trkpt lat="43.53621" lon="3.90698">
        <ele>43</ele>
        <time>2016-04-17T15:37:58.965Z</time>
      </trkpt>
      <trkpt lat="43.53624" lon="3.90692">
        <ele>43</ele>
        <time>2016-04-17T15:37:59.946Z</time>
      </trkpt>
      <trkpt lat="43.53628" lon="3.90682">
        <ele>44</ele>
        <time>2016-04-17T15:38:01.978Z</time>
      </trkpt>
      <trkpt lat="43.53631" lon="3.90676">
        <ele>44</ele>
        <time>2016-04-17T15:38:02.948Z</time>
      </trkpt>
      <trkpt lat="43.53632" lon="3.9067">
        <ele>43</ele>
        <time>2016-04-17T15:38:03.973Z</time>
      </trkpt>
      <trkpt lat="43.53634" lon="3.90665">
        <ele>43</ele>
        <time>2016-04-17T15:38:04.943Z</time>
      </trkpt>
      <trkpt lat="43.53637" lon="3.90659">
        <ele>43</ele>
        <time>2016-04-17T15:38:05.978Z</time>
      </trkpt>
      <trkpt lat="43.53638" lon="3.90653">
        <ele>42</ele>
        <time>2016-04-17T15:38:06.950Z</time>
      </trkpt>
      <trkpt lat="43.53641" lon="3.90648">
        <ele>42</ele>
        <time>2016-04-17T15:38:07.975Z</time>
      </trkpt>
      <trkpt lat="43.53644" lon="3.90643">
        <ele>43</ele>
        <time>2016-04-17T15:38:08.948Z</time>
      </trkpt>
      <trkpt lat="43.53646" lon="3.90636">
        <ele>42</ele>
        <time>2016-04-17T15:38:09.978Z</time>
      </trkpt>
      <trkpt lat="43.53648" lon="3.90629">
        <ele>42</ele>
        <time>2016-04-17T15:38:10.974Z</time>
      </trkpt>
      <trkpt lat="43.5365" lon="3.90623">
        <ele>42</ele>
        <time>2016-04-17T15:38:12.095Z</time>
      </trkpt>
      <trkpt lat="43.53652" lon="3.90617">
        <ele>42</ele>
        <time>2016-04-17T15:38:12.941Z</time>
      </trkpt>
      <trkpt lat="43.53655" lon="3.90611">
        <ele>44</ele>
        <time>2016-04-17T15:38:13.973Z</time>
      </trkpt>
      <trkpt lat="43.53657" lon="3.90606">
        <ele>44</ele>
        <time>2016-04-17T15:38:14.949Z</time>
      </trkpt>
      <trkpt lat="43.53659" lon="3.906">
        <ele>44</ele>
        <time>2016-04-17T15:38:15.969Z</time>
      </trkpt>
      <trkpt lat="43.53663" lon="3.90594">
        <ele>45</ele>
        <time>2016-04-17T15:38:16.950Z</time>
      </trkpt>
      <trkpt lat="43.53664" lon="3.90587">
        <ele>45</ele>
        <time>2016-04-17T15:38:17.977Z</time>
      </trkpt>
      <trkpt lat="43.53665" lon="3.9058">
        <ele>45</ele>
        <time>2016-04-17T15:38:18.949Z</time>
      </trkpt>
      <trkpt lat="43.53666" lon="3.90573">
        <ele>44</ele>
        <time>2016-04-17T15:38:19.972Z</time>
      </trkpt>
      <trkpt lat="43.53668" lon="3.90566">
        <ele>44</ele>
        <time>2016-04-17T15:38:20.948Z</time>
      </trkpt>
      <trkpt lat="43.53672" lon="3.90562">
        <ele>44</ele>
        <time>2016-04-17T15:38:21.992Z</time>
      </trkpt>
      <trkpt lat="43.53675" lon="3.90556">
        <ele>45</ele>
        <time>2016-04-17T15:38:22.948Z</time>
      </trkpt>
      <trkpt lat="43.53678" lon="3.90551">
        <ele>45</ele>
        <time>2016-04-17T15:38:23.971Z</time>
      </trkpt>
      <trkpt lat="43.53673" lon="3.90541">
        <ele>41</ele>
        <time>2016-04-17T15:38:24.949Z</time>
      </trkpt>
      <trkpt lat="43.53682" lon="3.90539">
        <ele>40</ele>
        <time>2016-04-17T15:38:26.029Z</time>
      </trkpt>
      <trkpt lat="43.53683" lon="3.90533">
        <ele>41</ele>
        <time>2016-04-17T15:38:26.945Z</time>
      </trkpt>
      <trkpt lat="43.53687" lon="3.90525">
        <ele>42</ele>
        <time>2016-04-17T15:38:28.979Z</time>
      </trkpt>
      <trkpt lat="43.53691" lon="3.90521">
        <ele>42</ele>
        <time>2016-04-17T15:38:29.947Z</time>
      </trkpt>
      <trkpt lat="43.53694" lon="3.90517">
        <ele>44</ele>
        <time>2016-04-17T15:38:30.977Z</time>
      </trkpt>
      <trkpt lat="43.53697" lon="3.90511">
        <ele>43</ele>
        <time>2016-04-17T15:38:31.946Z</time>
      </trkpt>
      <trkpt lat="43.53702" lon="3.90508">
        <ele>45</ele>
        <time>2016-04-17T15:38:32.976Z</time>
      </trkpt>
      <trkpt lat="43.53706" lon="3.90505">
        <ele>45</ele>
        <time>2016-04-17T15:38:33.948Z</time>
      </trkpt>
      <trkpt lat="43.53713" lon="3.90502">
        <ele>44</ele>
        <time>2016-04-17T15:38:34.974Z</time>
      </trkpt>
      <trkpt lat="43.53714" lon="3.90497">
        <ele>44</ele>
        <time>2016-04-17T15:38:35.947Z</time>
      </trkpt>
      <trkpt lat="43.53718" lon="3.90492">
        <ele>43</ele>
        <time>2016-04-17T15:38:36.974Z</time>
      </trkpt>
      <trkpt lat="43.53723" lon="3.90488">
        <ele>44</ele>
        <time>2016-04-17T15:38:37.973Z</time>
      </trkpt>
      <trkpt lat="43.53723" lon="3.9048">
        <ele>41</ele>
        <time>2016-04-17T15:38:38.980Z</time>
      </trkpt>
      <trkpt lat="43.53724" lon="3.90473">
        <ele>39</ele>
        <time>2016-04-17T15:38:39.946Z</time>
      </trkpt>
      <trkpt lat="43.53728" lon="3.90469">
        <ele>36</ele>
        <time>2016-04-17T15:38:40.974Z</time>
      </trkpt>
      <trkpt lat="43.53731" lon="3.90465">
        <ele>35</ele>
        <time>2016-04-17T15:38:41.946Z</time>
      </trkpt>
      <trkpt lat="43.53738" lon="3.90457">
        <ele>35</ele>
        <time>2016-04-17T15:38:43.979Z</time>
      </trkpt>
      <trkpt lat="43.53741" lon="3.90453">
        <ele>36</ele>
        <time>2016-04-17T15:38:44.947Z</time>
      </trkpt>
      <trkpt lat="43.53745" lon="3.90449">
        <ele>37</ele>
        <time>2016-04-17T15:38:45.978Z</time>
      </trkpt>
      <trkpt lat="43.53748" lon="3.90445">
        <ele>37</ele>
        <time>2016-04-17T15:38:46.947Z</time>
      </trkpt>
      <trkpt lat="43.53751" lon="3.9044">
        <ele>38</ele>
        <time>2016-04-17T15:38:47.978Z</time>
      </trkpt>
      <trkpt lat="43.53755" lon="3.90435">
        <ele>38</ele>
        <time>2016-04-17T15:38:48.947Z</time>
      </trkpt>
      <trkpt lat="43.53759" lon="3.9043">
        <ele>38</ele>
        <time>2016-04-17T15:38:49.974Z</time>
      </trkpt>
      <trkpt lat="43.53763" lon="3.90425">
        <ele>38</ele>
        <time>2016-04-17T15:38:50.948Z</time>
      </trkpt>
      <trkpt lat="43.53767" lon="3.90421">
        <ele>37</ele>
        <time>2016-04-17T15:38:51.977Z</time>
      </trkpt>
      <trkpt lat="43.53771" lon="3.90415">
        <ele>36</ele>
        <time>2016-04-17T15:38:52.948Z</time>
      </trkpt>
      <trkpt lat="43.53774" lon="3.90411">
        <ele>37</ele>
        <time>2016-04-17T15:38:54.000Z</time>
      </trkpt>
      <trkpt lat="43.53778" lon="3.90407">
        <ele>38</ele>
        <time>2016-04-17T15:38:54.948Z</time>
      </trkpt>
      <trkpt lat="43.53782" lon="3.90402">
        <ele>37</ele>
        <time>2016-04-17T15:38:55.979Z</time>
      </trkpt>
      <trkpt lat="43.53785" lon="3.90397">
        <ele>37</ele>
        <time>2016-04-17T15:38:56.946Z</time>
      </trkpt>
      <trkpt lat="43.53788" lon="3.90392">
        <ele>39</ele>
        <time>2016-04-17T15:38:57.976Z</time>
      </trkpt>
      <trkpt lat="43.53792" lon="3.90388">
        <ele>38</ele>
        <time>2016-04-17T15:38:58.946Z</time>
      </trkpt>
      <trkpt lat="43.53796" lon="3.90383">
        <ele>36</ele>
        <time>2016-04-17T15:38:59.975Z</time>
      </trkpt>
      <trkpt lat="43.53799" lon="3.90378">
        <ele>36</ele>
        <time>2016-04-17T15:39:00.945Z</time>
      </trkpt>
      <trkpt lat="43.53803" lon="3.90375">
        <ele>36</ele>
        <time>2016-04-17T15:39:01.975Z</time>
      </trkpt>
      <trkpt lat="43.53808" lon="3.90371">
        <ele>37</ele>
        <time>2016-04-17T15:39:02.948Z</time>
      </trkpt>
      <trkpt lat="43.53812" lon="3.90367">
        <ele>39</ele>
        <time>2016-04-17T15:39:03.975Z</time>
      </trkpt>
      <trkpt lat="43.53817" lon="3.90362">
        <ele>39</ele>
        <time>2016-04-17T15:39:04.947Z</time>
      </trkpt>
      <trkpt lat="43.53821" lon="3.90359">
        <ele>40</ele>
        <time>2016-04-17T15:39:05.973Z</time>
      </trkpt>
      <trkpt lat="43.53825" lon="3.90355">
        <ele>42</ele>
        <time>2016-04-17T15:39:06.946Z</time>
      </trkpt>
      <trkpt lat="43.53828" lon="3.9035">
        <ele>42</ele>
        <time>2016-04-17T15:39:07.983Z</time>
      </trkpt>
      <trkpt lat="43.53832" lon="3.90347">
        <ele>45</ele>
        <time>2016-04-17T15:39:08.948Z</time>
      </trkpt>
      <trkpt lat="43.53837" lon="3.90345">
        <ele>47</ele>
        <time>2016-04-17T15:39:10.113Z</time>
      </trkpt>
      <trkpt lat="43.53843" lon="3.90343">
        <ele>50</ele>
        <time>2016-04-17T15:39:10.948Z</time>
      </trkpt>
      <trkpt lat="43.53849" lon="3.90334">
        <ele>51</ele>
        <time>2016-04-17T15:39:12.984Z</time>
      </trkpt>
      <trkpt lat="43.53853" lon="3.9033">
        <ele>50</ele>
        <time>2016-04-17T15:39:13.948Z</time>
      </trkpt>
      <trkpt lat="43.53858" lon="3.90326">
        <ele>48</ele>
        <time>2016-04-17T15:39:14.980Z</time>
      </trkpt>
      <trkpt lat="43.53862" lon="3.90323">
        <ele>50</ele>
        <time>2016-04-17T15:39:15.949Z</time>
      </trkpt>
      <trkpt lat="43.53868" lon="3.90317">
        <ele>50</ele>
        <time>2016-04-17T15:39:17.983Z</time>
      </trkpt>
      <trkpt lat="43.53872" lon="3.90313">
        <ele>51</ele>
        <time>2016-04-17T15:39:18.942Z</time>
      </trkpt>
      <trkpt lat="43.53879" lon="3.90313">
        <ele>48</ele>
        <time>2016-04-17T15:39:19.977Z</time>
      </trkpt>
      <trkpt lat="43.53882" lon="3.9031">
        <ele>48</ele>
        <time>2016-04-17T15:39:20.950Z</time>
      </trkpt>
      <trkpt lat="43.53887" lon="3.90301">
        <ele>44</ele>
        <time>2016-04-17T15:39:22.977Z</time>
      </trkpt>
      <trkpt lat="43.5389" lon="3.90297">
        <ele>44</ele>
        <time>2016-04-17T15:39:23.947Z</time>
      </trkpt>
      <trkpt lat="43.53894" lon="3.90293">
        <ele>45</ele>
        <time>2016-04-17T15:39:24.976Z</time>
      </trkpt>
      <trkpt lat="43.53897" lon="3.90289">
        <ele>46</ele>
        <time>2016-04-17T15:39:25.971Z</time>
      </trkpt>
      <trkpt lat="43.539" lon="3.90279">
        <ele>43</ele>
        <time>2016-04-17T15:39:27.981Z</time>
      </trkpt>
      <trkpt lat="43.53903" lon="3.90274">
        <ele>42</ele>
        <time>2016-04-17T15:39:28.947Z</time>
      </trkpt>
      <trkpt lat="43.53905" lon="3.90268">
        <ele>41</ele>
        <time>2016-04-17T15:39:29.973Z</time>
      </trkpt>
      <trkpt lat="43.53908" lon="3.90263">
        <ele>42</ele>
        <time>2016-04-17T15:39:30.946Z</time>
      </trkpt>
      <trkpt lat="43.53913" lon="3.90256">
        <ele>43</ele>
        <time>2016-04-17T15:39:33.100Z</time>
      </trkpt>
      <trkpt lat="43.53914" lon="3.90251">
        <ele>41</ele>
        <time>2016-04-17T15:39:33.948Z</time>
      </trkpt>
      <trkpt lat="43.53921" lon="3.90244">
        <ele>41</ele>
        <time>2016-04-17T15:39:35.978Z</time>
      </trkpt>
      <trkpt lat="43.53927" lon="3.90241">
        <ele>38</ele>
        <time>2016-04-17T15:39:36.948Z</time>
      </trkpt>
      <trkpt lat="43.53934" lon="3.90233">
        <ele>38</ele>
        <time>2016-04-17T15:39:38.976Z</time>
      </trkpt>
      <trkpt lat="43.53936" lon="3.90228">
        <ele>39</ele>
        <time>2016-04-17T15:39:39.948Z</time>
      </trkpt>
      <trkpt lat="43.53944" lon="3.90222">
        <ele>40</ele>
        <time>2016-04-17T15:39:41.996Z</time>
      </trkpt>
      <trkpt lat="43.53948" lon="3.90218">
        <ele>38</ele>
        <time>2016-04-17T15:39:42.947Z</time>
      </trkpt>
      <trkpt lat="43.53952" lon="3.90215">
        <ele>38</ele>
        <time>2016-04-17T15:39:43.977Z</time>
      </trkpt>
      <trkpt lat="43.53957" lon="3.90211">
        <ele>39</ele>
        <time>2016-04-17T15:39:44.946Z</time>
      </trkpt>
      <trkpt lat="43.53961" lon="3.90203">
        <ele>37</ele>
        <time>2016-04-17T15:39:46.982Z</time>
      </trkpt>
      <trkpt lat="43.53965" lon="3.902">
        <ele>40</ele>
        <time>2016-04-17T15:39:47.950Z</time>
      </trkpt>
      <trkpt lat="43.53968" lon="3.90196">
        <ele>40</ele>
        <time>2016-04-17T15:39:48.978Z</time>
      </trkpt>
      <trkpt lat="43.53971" lon="3.90191">
        <ele>40</ele>
        <time>2016-04-17T15:39:49.948Z</time>
      </trkpt>
      <trkpt lat="43.53976" lon="3.90182">
        <ele>40</ele>
        <time>2016-04-17T15:39:51.975Z</time>
      </trkpt>
      <trkpt lat="43.53979" lon="3.90178">
        <ele>41</ele>
        <time>2016-04-17T15:39:52.943Z</time>
      </trkpt>
      <trkpt lat="43.53983" lon="3.90172">
        <ele>40</ele>
        <time>2016-04-17T15:39:53.973Z</time>
      </trkpt>
      <trkpt lat="43.53986" lon="3.90167">
        <ele>40</ele>
        <time>2016-04-17T15:39:54.949Z</time>
      </trkpt>
      <trkpt lat="43.53993" lon="3.9016">
        <ele>41</ele>
        <time>2016-04-17T15:39:57.104Z</time>
      </trkpt>
      <trkpt lat="43.53996" lon="3.90157">
        <ele>42</ele>
        <time>2016-04-17T15:39:57.972Z</time>
      </trkpt>
      <trkpt lat="43.54003" lon="3.90149">
        <ele>43</ele>
        <time>2016-04-17T15:39:59.978Z</time>
      </trkpt>
      <trkpt lat="43.54007" lon="3.90146">
        <ele>43</ele>
        <time>2016-04-17T15:40:00.944Z</time>
      </trkpt>
      <trkpt lat="43.54015" lon="3.90144">
        <ele>43</ele>
        <time>2016-04-17T15:40:01.977Z</time>
      </trkpt>
      <trkpt lat="43.5402" lon="3.90139">
        <ele>38</ele>
        <time>2016-04-17T15:40:02.949Z</time>
      </trkpt>
      <trkpt lat="43.54025" lon="3.90132">
        <ele>37</ele>
        <time>2016-04-17T15:40:04.975Z</time>
      </trkpt>
      <trkpt lat="43.54028" lon="3.90128">
        <ele>37</ele>
        <time>2016-04-17T15:40:06.303Z</time>
      </trkpt>
      <trkpt lat="43.54035" lon="3.90121">
        <ele>37</ele>
        <time>2016-04-17T15:40:07.978Z</time>
      </trkpt>
      <trkpt lat="43.54037" lon="3.90115">
        <ele>37</ele>
        <time>2016-04-17T15:40:08.949Z</time>
      </trkpt>
      <trkpt lat="43.54041" lon="3.90111">
        <ele>37</ele>
        <time>2016-04-17T15:40:09.973Z</time>
      </trkpt>
      <trkpt lat="43.54044" lon="3.90106">
        <ele>38</ele>
        <time>2016-04-17T15:40:10.946Z</time>
      </trkpt>
      <trkpt lat="43.54048" lon="3.90102">
        <ele>37</ele>
        <time>2016-04-17T15:40:11.975Z</time>
      </trkpt>
      <trkpt lat="43.54049" lon="3.90095">
        <ele>32</ele>
        <time>2016-04-17T15:40:12.947Z</time>
      </trkpt>
      <trkpt lat="43.54052" lon="3.90089">
        <ele>33</ele>
        <time>2016-04-17T15:40:14.002Z</time>
      </trkpt>
      <trkpt lat="43.54055" lon="3.90085">
        <ele>33</ele>
        <time>2016-04-17T15:40:14.947Z</time>
      </trkpt>
      <trkpt lat="43.54059" lon="3.90081">
        <ele>34</ele>
        <time>2016-04-17T15:40:15.976Z</time>
      </trkpt>
      <trkpt lat="43.54062" lon="3.90077">
        <ele>34</ele>
        <time>2016-04-17T15:40:16.947Z</time>
      </trkpt>
      <trkpt lat="43.54066" lon="3.90072">
        <ele>33</ele>
        <time>2016-04-17T15:40:17.977Z</time>
      </trkpt>
      <trkpt lat="43.54069" lon="3.90068">
        <ele>33</ele>
        <time>2016-04-17T15:40:18.942Z</time>
      </trkpt>
      <trkpt lat="43.54073" lon="3.9006">
        <ele>33</ele>
        <time>2016-04-17T15:40:20.981Z</time>
      </trkpt>
      <trkpt lat="43.54076" lon="3.90057">
        <ele>33</ele>
        <time>2016-04-17T15:40:21.947Z</time>
      </trkpt>
      <trkpt lat="43.54082" lon="3.9005">
        <ele>34</ele>
        <time>2016-04-17T15:40:23.976Z</time>
      </trkpt>
      <trkpt lat="43.54085" lon="3.90047">
        <ele>33</ele>
        <time>2016-04-17T15:40:24.945Z</time>
      </trkpt>
      <trkpt lat="43.54092" lon="3.90039">
        <ele>34</ele>
        <time>2016-04-17T15:40:26.978Z</time>
      </trkpt>
      <trkpt lat="43.54096" lon="3.90036">
        <ele>34</ele>
        <time>2016-04-17T15:40:27.947Z</time>
      </trkpt>
      <trkpt lat="43.54101" lon="3.90032">
        <ele>33</ele>
        <time>2016-04-17T15:40:28.977Z</time>
      </trkpt>
      <trkpt lat="43.54104" lon="3.90029">
        <ele>33</ele>
        <time>2016-04-17T15:40:29.972Z</time>
      </trkpt>
      <trkpt lat="43.54108" lon="3.90026">
        <ele>33</ele>
        <time>2016-04-17T15:40:30.978Z</time>
      </trkpt>
      <trkpt lat="43.54112" lon="3.90022">
        <ele>34</ele>
        <time>2016-04-17T15:40:31.946Z</time>
      </trkpt>
      <trkpt lat="43.54119" lon="3.90014">
        <ele>33</ele>
        <time>2016-04-17T15:40:33.977Z</time>
      </trkpt>
      <trkpt lat="43.54122" lon="3.90011">
        <ele>34</ele>
        <time>2016-04-17T15:40:34.947Z</time>
      </trkpt>
      <trkpt lat="43.54129" lon="3.90007">
        <ele>37</ele>
        <time>2016-04-17T15:40:36.975Z</time>
      </trkpt>
      <trkpt lat="43.54133" lon="3.90005">
        <ele>39</ele>
        <time>2016-04-17T15:40:37.946Z</time>
      </trkpt>
      <trkpt lat="43.54139" lon="3.89997">
        <ele>38</ele>
        <time>2016-04-17T15:40:39.976Z</time>
      </trkpt>
      <trkpt lat="43.54142" lon="3.89993">
        <ele>39</ele>
        <time>2016-04-17T15:40:40.948Z</time>
      </trkpt>
      <trkpt lat="43.54146" lon="3.8999">
        <ele>41</ele>
        <time>2016-04-17T15:40:41.979Z</time>
      </trkpt>
      <trkpt lat="43.5415" lon="3.89987">
        <ele>42</ele>
        <time>2016-04-17T15:40:42.948Z</time>
      </trkpt>
      <trkpt lat="43.54155" lon="3.89981">
        <ele>42</ele>
        <time>2016-04-17T15:40:44.969Z</time>
      </trkpt>
      <trkpt lat="43.54159" lon="3.89977">
        <ele>42</ele>
        <time>2016-04-17T15:40:45.973Z</time>
      </trkpt>
      <trkpt lat="43.54167" lon="3.89973">
        <ele>44</ele>
        <time>2016-04-17T15:40:47.980Z</time>
      </trkpt>
      <trkpt lat="43.54169" lon="3.8997">
        <ele>44</ele>
        <time>2016-04-17T15:40:48.947Z</time>
      </trkpt>
      <trkpt lat="43.54174" lon="3.89965">
        <ele>42</ele>
        <time>2016-04-17T15:40:50.976Z</time>
      </trkpt>
      <trkpt lat="43.54179" lon="3.89962">
        <ele>40</ele>
        <time>2016-04-17T15:40:51.947Z</time>
      </trkpt>
      <trkpt lat="43.54183" lon="3.89959">
        <ele>40</ele>
        <time>2016-04-17T15:40:52.976Z</time>
      </trkpt>
      <trkpt lat="43.54186" lon="3.89955">
        <ele>40</ele>
        <time>2016-04-17T15:40:53.948Z</time>
      </trkpt>
      <trkpt lat="43.5419" lon="3.8995">
        <ele>41</ele>
        <time>2016-04-17T15:40:54.975Z</time>
      </trkpt>
      <trkpt lat="43.54193" lon="3.89945">
        <ele>41</ele>
        <time>2016-04-17T15:40:55.947Z</time>
      </trkpt>
      <trkpt lat="43.54197" lon="3.89941">
        <ele>41</ele>
        <time>2016-04-17T15:40:56.970Z</time>
      </trkpt>
      <trkpt lat="43.54201" lon="3.89939">
        <ele>40</ele>
        <time>2016-04-17T15:40:57.946Z</time>
      </trkpt>
      <trkpt lat="43.54208" lon="3.89932">
        <ele>41</ele>
        <time>2016-04-17T15:40:59.978Z</time>
      </trkpt>
      <trkpt lat="43.5421" lon="3.89928">
        <ele>40</ele>
        <time>2016-04-17T15:41:00.943Z</time>
      </trkpt>
      <trkpt lat="43.54214" lon="3.89919">
        <ele>37</ele>
        <time>2016-04-17T15:41:02.979Z</time>
      </trkpt>
      <trkpt lat="43.54218" lon="3.89916">
        <ele>36</ele>
        <time>2016-04-17T15:41:03.948Z</time>
      </trkpt>
      <trkpt lat="43.54221" lon="3.89913">
        <ele>34</ele>
        <time>2016-04-17T15:41:04.976Z</time>
      </trkpt>
      <trkpt lat="43.54225" lon="3.89908">
        <ele>33</ele>
        <time>2016-04-17T15:41:05.947Z</time>
      </trkpt>
      <trkpt lat="43.54228" lon="3.89903">
        <ele>33</ele>
        <time>2016-04-17T15:41:06.997Z</time>
      </trkpt>
      <trkpt lat="43.54231" lon="3.89898">
        <ele>34</ele>
        <time>2016-04-17T15:41:07.945Z</time>
      </trkpt>
      <trkpt lat="43.54235" lon="3.89893">
        <ele>34</ele>
        <time>2016-04-17T15:41:08.974Z</time>
      </trkpt>
      <trkpt lat="43.54237" lon="3.89888">
        <ele>34</ele>
        <time>2016-04-17T15:41:09.946Z</time>
      </trkpt>
      <trkpt lat="43.54243" lon="3.8988">
        <ele>33</ele>
        <time>2016-04-17T15:41:11.978Z</time>
      </trkpt>
      <trkpt lat="43.54245" lon="3.89875">
        <ele>33</ele>
        <time>2016-04-17T15:41:12.947Z</time>
      </trkpt>
      <trkpt lat="43.54253" lon="3.8987">
        <ele>35</ele>
        <time>2016-04-17T15:41:14.974Z</time>
      </trkpt>
      <trkpt lat="43.54255" lon="3.89867">
        <ele>36</ele>
        <time>2016-04-17T15:41:15.946Z</time>
      </trkpt>
      <trkpt lat="43.5426" lon="3.89861">
        <ele>37</ele>
        <time>2016-04-17T15:41:17.976Z</time>
      </trkpt>
      <trkpt lat="43.54263" lon="3.89857">
        <ele>38</ele>
        <time>2016-04-17T15:41:18.947Z</time>
      </trkpt>
      <trkpt lat="43.54268" lon="3.89849">
        <ele>38</ele>
        <time>2016-04-17T15:41:20.977Z</time>
      </trkpt>
      <trkpt lat="43.54271" lon="3.89844">
        <ele>38</ele>
        <time>2016-04-17T15:41:21.947Z</time>
      </trkpt>
      <trkpt lat="43.54278" lon="3.89842">
        <ele>43</ele>
        <time>2016-04-17T15:41:22.968Z</time>
      </trkpt>
      <trkpt lat="43.54282" lon="3.89838">
        <ele>43</ele>
        <time>2016-04-17T15:41:23.947Z</time>
      </trkpt>
      <trkpt lat="43.5429" lon="3.89831">
        <ele>41</ele>
        <time>2016-04-17T15:41:26.102Z</time>
      </trkpt>
      <trkpt lat="43.54294" lon="3.89829">
        <ele>42</ele>
        <time>2016-04-17T15:41:26.949Z</time>
      </trkpt>
      <trkpt lat="43.54299" lon="3.89823">
        <ele>42</ele>
        <time>2016-04-17T15:41:28.976Z</time>
      </trkpt>
      <trkpt lat="43.54303" lon="3.89821">
        <ele>42</ele>
        <time>2016-04-17T15:41:29.948Z</time>
      </trkpt>
      <trkpt lat="43.54309" lon="3.89815">
        <ele>41</ele>
        <time>2016-04-17T15:41:31.977Z</time>
      </trkpt>
      <trkpt lat="43.54312" lon="3.89812">
        <ele>41</ele>
        <time>2016-04-17T15:41:32.948Z</time>
      </trkpt>
      <trkpt lat="43.54318" lon="3.89804">
        <ele>41</ele>
        <time>2016-04-17T15:41:34.974Z</time>
      </trkpt>
      <trkpt lat="43.54322" lon="3.89801">
        <ele>41</ele>
        <time>2016-04-17T15:41:35.947Z</time>
      </trkpt>
      <trkpt lat="43.54329" lon="3.89796">
        <ele>41</ele>
        <time>2016-04-17T15:41:37.978Z</time>
      </trkpt>
      <trkpt lat="43.54332" lon="3.89794">
        <ele>40</ele>
        <time>2016-04-17T15:41:38.947Z</time>
      </trkpt>
      <trkpt lat="43.54341" lon="3.8979">
        <ele>41</ele>
        <time>2016-04-17T15:41:40.975Z</time>
      </trkpt>
      <trkpt lat="43.54345" lon="3.89788">
        <ele>40</ele>
        <time>2016-04-17T15:41:41.948Z</time>
      </trkpt>
      <trkpt lat="43.54352" lon="3.89781">
        <ele>40</ele>
        <time>2016-04-17T15:41:44.006Z</time>
      </trkpt>
      <trkpt lat="43.54355" lon="3.89778">
        <ele>41</ele>
        <time>2016-04-17T15:41:44.948Z</time>
      </trkpt>
      <trkpt lat="43.54359" lon="3.89775">
        <ele>42</ele>
        <time>2016-04-17T15:41:45.976Z</time>
      </trkpt>
      <trkpt lat="43.54363" lon="3.89772">
        <ele>42</ele>
        <time>2016-04-17T15:41:46.946Z</time>
      </trkpt>
      <trkpt lat="43.54367" lon="3.89769">
        <ele>43</ele>
        <time>2016-04-17T15:41:47.974Z</time>
      </trkpt>
      <trkpt lat="43.54371" lon="3.89767">
        <ele>42</ele>
        <time>2016-04-17T15:41:48.946Z</time>
      </trkpt>
      <trkpt lat="43.5438" lon="3.89765">
        <ele>41</ele>
        <time>2016-04-17T15:41:50.977Z</time>
      </trkpt>
      <trkpt lat="43.54383" lon="3.89763">
        <ele>40</ele>
        <time>2016-04-17T15:41:51.949Z</time>
      </trkpt>
      <trkpt lat="43.54387" lon="3.89762">
        <ele>40</ele>
        <time>2016-04-17T15:41:52.967Z</time>
      </trkpt>
      <trkpt lat="43.54393" lon="3.8976">
        <ele>36</ele>
        <time>2016-04-17T15:41:53.948Z</time>
      </trkpt>
      <trkpt lat="43.54397" lon="3.8976">
        <ele>37</ele>
        <time>2016-04-17T15:41:54.979Z</time>
      </trkpt>
      <trkpt lat="43.54402" lon="3.89758">
        <ele>37</ele>
        <time>2016-04-17T15:41:55.948Z</time>
      </trkpt>
      <trkpt lat="43.54408" lon="3.89758">
        <ele>40</ele>
        <time>2016-04-17T15:41:56.979Z</time>
      </trkpt>
      <trkpt lat="43.54411" lon="3.89757">
        <ele>40</ele>
        <time>2016-04-17T15:41:57.948Z</time>
      </trkpt>
      <trkpt lat="43.54418" lon="3.89755">
        <ele>39</ele>
        <time>2016-04-17T15:41:59.997Z</time>
      </trkpt>
      <trkpt lat="43.54422" lon="3.89755">
        <ele>39</ele>
        <time>2016-04-17T15:42:00.944Z</time>
      </trkpt>
      <trkpt lat="43.54429" lon="3.89754">
        <ele>41</ele>
        <time>2016-04-17T15:42:02.974Z</time>
      </trkpt>
      <trkpt lat="43.54434" lon="3.89754">
        <ele>40</ele>
        <time>2016-04-17T15:42:03.947Z</time>
      </trkpt>
      <trkpt lat="43.54442" lon="3.89752">
        <ele>40</ele>
        <time>2016-04-17T15:42:05.976Z</time>
      </trkpt>
      <trkpt lat="43.54446" lon="3.89751">
        <ele>40</ele>
        <time>2016-04-17T15:42:06.947Z</time>
      </trkpt>
      <trkpt lat="43.54451" lon="3.89752">
        <ele>40</ele>
        <time>2016-04-17T15:42:07.976Z</time>
      </trkpt>
      <trkpt lat="43.54455" lon="3.89752">
        <ele>41</ele>
        <time>2016-04-17T15:42:08.948Z</time>
      </trkpt>
      <trkpt lat="43.54461" lon="3.89751">
        <ele>43</ele>
        <time>2016-04-17T15:42:10.975Z</time>
      </trkpt>
      <trkpt lat="43.54465" lon="3.89751">
        <ele>44</ele>
        <time>2016-04-17T15:42:11.947Z</time>
      </trkpt>
      <trkpt lat="43.54469" lon="3.89751">
        <ele>44</ele>
        <time>2016-04-17T15:42:12.974Z</time>
      </trkpt>
      <trkpt lat="43.54474" lon="3.8975">
        <ele>44</ele>
        <time>2016-04-17T15:42:13.947Z</time>
      </trkpt>
      <trkpt lat="43.54478" lon="3.8975">
        <ele>43</ele>
        <time>2016-04-17T15:42:14.977Z</time>
      </trkpt>
      <trkpt lat="43.54483" lon="3.8975">
        <ele>44</ele>
        <time>2016-04-17T15:42:15.970Z</time>
      </trkpt>
      <trkpt lat="43.54488" lon="3.8975">
        <ele>44</ele>
        <time>2016-04-17T15:42:16.970Z</time>
      </trkpt>
      <trkpt lat="43.54494" lon="3.89749">
        <ele>44</ele>
        <time>2016-04-17T15:42:17.946Z</time>
      </trkpt>
      <trkpt lat="43.54499" lon="3.89749">
        <ele>45</ele>
        <time>2016-04-17T15:42:18.975Z</time>
      </trkpt>
      <trkpt lat="43.54504" lon="3.89748">
        <ele>45</ele>
        <time>2016-04-17T15:42:19.948Z</time>
      </trkpt>
      <trkpt lat="43.54508" lon="3.89745">
        <ele>45</ele>
        <time>2016-04-17T15:42:20.975Z</time>
      </trkpt>
      <trkpt lat="43.54513" lon="3.89745">
        <ele>42</ele>
        <time>2016-04-17T15:42:21.947Z</time>
      </trkpt>
      <trkpt lat="43.54517" lon="3.89741">
        <ele>42</ele>
        <time>2016-04-17T15:42:22.974Z</time>
      </trkpt>
      <trkpt lat="43.54522" lon="3.89738">
        <ele>44</ele>
        <time>2016-04-17T15:42:23.947Z</time>
      </trkpt>
      <trkpt lat="43.54526" lon="3.89737">
        <ele>43</ele>
        <time>2016-04-17T15:42:24.974Z</time>
      </trkpt>
      <trkpt lat="43.54532" lon="3.89736">
        <ele>42</ele>
        <time>2016-04-17T15:42:25.948Z</time>
      </trkpt>
      <trkpt lat="43.54535" lon="3.89735">
        <ele>42</ele>
        <time>2016-04-17T15:42:26.977Z</time>
      </trkpt>
      <trkpt lat="43.54541" lon="3.89735">
        <ele>45</ele>
        <time>2016-04-17T15:42:27.947Z</time>
      </trkpt>
      <trkpt lat="43.54547" lon="3.89736">
        <ele>45</ele>
        <time>2016-04-17T15:42:28.974Z</time>
      </trkpt>
      <trkpt lat="43.5455" lon="3.89737">
        <ele>45</ele>
        <time>2016-04-17T15:42:29.947Z</time>
      </trkpt>
      <trkpt lat="43.54558" lon="3.89737">
        <ele>42</ele>
        <time>2016-04-17T15:42:31.978Z</time>
      </trkpt>
      <trkpt lat="43.54562" lon="3.89737">
        <ele>40</ele>
        <time>2016-04-17T15:42:32.946Z</time>
      </trkpt>
      <trkpt lat="43.54571" lon="3.89737">
        <ele>41</ele>
        <time>2016-04-17T15:42:34.980Z</time>
      </trkpt>
      <trkpt lat="43.54576" lon="3.89737">
        <ele>41</ele>
        <time>2016-04-17T15:42:35.948Z</time>
      </trkpt>
      <trkpt lat="43.54584" lon="3.89736">
        <ele>40</ele>
        <time>2016-04-17T15:42:37.974Z</time>
      </trkpt>
      <trkpt lat="43.54588" lon="3.89736">
        <ele>41</ele>
        <time>2016-04-17T15:42:38.944Z</time>
      </trkpt>
      <trkpt lat="43.54592" lon="3.89735">
        <ele>41</ele>
        <time>2016-04-17T15:42:39.976Z</time>
      </trkpt>
      <trkpt lat="43.54597" lon="3.89735">
        <ele>41</ele>
        <time>2016-04-17T15:42:40.949Z</time>
      </trkpt>
      <trkpt lat="43.54602" lon="3.89735">
        <ele>42</ele>
        <time>2016-04-17T15:42:41.971Z</time>
      </trkpt>
      <trkpt lat="43.54607" lon="3.89735">
        <ele>42</ele>
        <time>2016-04-17T15:42:42.949Z</time>
      </trkpt>
      <trkpt lat="43.54615" lon="3.89736">
        <ele>43</ele>
        <time>2016-04-17T15:42:44.978Z</time>
      </trkpt>
      <trkpt lat="43.5462" lon="3.89735">
        <ele>44</ele>
        <time>2016-04-17T15:42:45.946Z</time>
      </trkpt>
      <trkpt lat="43.54625" lon="3.89733">
        <ele>45</ele>
        <time>2016-04-17T15:42:46.978Z</time>
      </trkpt>
      <trkpt lat="43.5463" lon="3.89736">
        <ele>45</ele>
        <time>2016-04-17T15:42:47.945Z</time>
      </trkpt>
      <trkpt lat="43.54638" lon="3.89735">
        <ele>43</ele>
        <time>2016-04-17T15:42:49.974Z</time>
      </trkpt>
      <trkpt lat="43.54643" lon="3.89735">
        <ele>43</ele>
        <time>2016-04-17T15:42:50.945Z</time>
      </trkpt>
      <trkpt lat="43.5465" lon="3.89734">
        <ele>45</ele>
        <time>2016-04-17T15:42:52.994Z</time>
      </trkpt>
      <trkpt lat="43.54655" lon="3.89733">
        <ele>44</ele>
        <time>2016-04-17T15:42:53.949Z</time>
      </trkpt>
      <trkpt lat="43.54663" lon="3.8973">
        <ele>45</ele>
        <time>2016-04-17T15:42:55.976Z</time>
      </trkpt>
      <trkpt lat="43.54668" lon="3.8973">
        <ele>47</ele>
        <time>2016-04-17T15:42:56.948Z</time>
      </trkpt>
      <trkpt lat="43.54677" lon="3.89731">
        <ele>46</ele>
        <time>2016-04-17T15:42:58.974Z</time>
      </trkpt>
      <trkpt lat="43.5468" lon="3.8973">
        <ele>46</ele>
        <time>2016-04-17T15:42:59.946Z</time>
      </trkpt>
      <trkpt lat="43.54684" lon="3.8973">
        <ele>46</ele>
        <time>2016-04-17T15:43:01.106Z</time>
      </trkpt>
      <trkpt lat="43.5469" lon="3.89731">
        <ele>46</ele>
        <time>2016-04-17T15:43:01.947Z</time>
      </trkpt>
      <trkpt lat="43.54695" lon="3.89732">
        <ele>47</ele>
        <time>2016-04-17T15:43:02.978Z</time>
      </trkpt>
      <trkpt lat="43.54699" lon="3.89731">
        <ele>48</ele>
        <time>2016-04-17T15:43:03.949Z</time>
      </trkpt>
      <trkpt lat="43.54704" lon="3.89731">
        <ele>48</ele>
        <time>2016-04-17T15:43:04.967Z</time>
      </trkpt>
      <trkpt lat="43.5471" lon="3.89731">
        <ele>47</ele>
        <time>2016-04-17T15:43:05.947Z</time>
      </trkpt>
      <trkpt lat="43.54716" lon="3.89732">
        <ele>44</ele>
        <time>2016-04-17T15:43:06.983Z</time>
      </trkpt>
      <trkpt lat="43.54721" lon="3.89733">
        <ele>46</ele>
        <time>2016-04-17T15:43:07.950Z</time>
      </trkpt>
      <trkpt lat="43.54725" lon="3.89732">
        <ele>45</ele>
        <time>2016-04-17T15:43:09.007Z</time>
      </trkpt>
      <trkpt lat="43.5473" lon="3.89731">
        <ele>47</ele>
        <time>2016-04-17T15:43:09.948Z</time>
      </trkpt>
      <trkpt lat="43.54735" lon="3.8973">
        <ele>47</ele>
        <time>2016-04-17T15:43:10.977Z</time>
      </trkpt>
      <trkpt lat="43.54739" lon="3.8973">
        <ele>48</ele>
        <time>2016-04-17T15:43:11.948Z</time>
      </trkpt>
      <trkpt lat="43.54747" lon="3.89729">
        <ele>49</ele>
        <time>2016-04-17T15:43:13.976Z</time>
      </trkpt>
      <trkpt lat="43.54751" lon="3.89728">
        <ele>49</ele>
        <time>2016-04-17T15:43:14.947Z</time>
      </trkpt>
      <trkpt lat="43.54756" lon="3.89727">
        <ele>49</ele>
        <time>2016-04-17T15:43:15.979Z</time>
      </trkpt>
      <trkpt lat="43.5476" lon="3.89726">
        <ele>46</ele>
        <time>2016-04-17T15:43:16.949Z</time>
      </trkpt>
      <trkpt lat="43.54769" lon="3.89725">
        <ele>45</ele>
        <time>2016-04-17T15:43:18.976Z</time>
      </trkpt>
      <trkpt lat="43.54774" lon="3.89726">
        <ele>44</ele>
        <time>2016-04-17T15:43:19.971Z</time>
      </trkpt>
      <trkpt lat="43.54781" lon="3.89726">
        <ele>44</ele>
        <time>2016-04-17T15:43:21.975Z</time>
      </trkpt>
      <trkpt lat="43.54785" lon="3.89726">
        <ele>43</ele>
        <time>2016-04-17T15:43:22.947Z</time>
      </trkpt>
      <trkpt lat="43.54792" lon="3.89727">
        <ele>42</ele>
        <time>2016-04-17T15:43:24.966Z</time>
      </trkpt>
      <trkpt lat="43.54796" lon="3.89726">
        <ele>41</ele>
        <time>2016-04-17T15:43:25.947Z</time>
      </trkpt>
      <trkpt lat="43.54804" lon="3.89725">
        <ele>41</ele>
        <time>2016-04-17T15:43:27.975Z</time>
      </trkpt>
      <trkpt lat="43.54808" lon="3.89725">
        <ele>39</ele>
        <time>2016-04-17T15:43:28.947Z</time>
      </trkpt>
      <trkpt lat="43.54811" lon="3.89726">
        <ele>39</ele>
        <time>2016-04-17T15:43:29.975Z</time>
      </trkpt>
      <trkpt lat="43.54817" lon="3.8973">
        <ele>40</ele>
        <time>2016-04-17T15:43:30.978Z</time>
      </trkpt>
      <trkpt lat="43.54824" lon="3.89732">
        <ele>40</ele>
        <time>2016-04-17T15:43:32.966Z</time>
      </trkpt>
      <trkpt lat="43.54829" lon="3.89732">
        <ele>40</ele>
        <time>2016-04-17T15:43:33.947Z</time>
      </trkpt>
      <trkpt lat="43.54833" lon="3.89734">
        <ele>39</ele>
        <time>2016-04-17T15:43:34.980Z</time>
      </trkpt>
      <trkpt lat="43.54838" lon="3.89736">
        <ele>39</ele>
        <time>2016-04-17T15:43:35.948Z</time>
      </trkpt>
      <trkpt lat="43.54842" lon="3.89737">
        <ele>39</ele>
        <time>2016-04-17T15:43:36.994Z</time>
      </trkpt>
      <trkpt lat="43.54848" lon="3.89736">
        <ele>40</ele>
        <time>2016-04-17T15:43:37.949Z</time>
      </trkpt>
      <trkpt lat="43.54852" lon="3.89736">
        <ele>41</ele>
        <time>2016-04-17T15:43:38.989Z</time>
      </trkpt>
      <trkpt lat="43.54857" lon="3.89738">
        <ele>40</ele>
        <time>2016-04-17T15:43:39.948Z</time>
      </trkpt>
      <trkpt lat="43.54862" lon="3.8974">
        <ele>41</ele>
        <time>2016-04-17T15:43:40.990Z</time>
      </trkpt>
      <trkpt lat="43.54866" lon="3.89736">
        <ele>43</ele>
        <time>2016-04-17T15:43:41.951Z</time>
      </trkpt>
      <trkpt lat="43.54871" lon="3.89738">
        <ele>44</ele>
        <time>2016-04-17T15:43:42.988Z</time>
      </trkpt>
      <trkpt lat="43.54876" lon="3.89738">
        <ele>43</ele>
        <time>2016-04-17T15:43:43.948Z</time>
      </trkpt>
      <trkpt lat="43.54885" lon="3.89737">
        <ele>42</ele>
        <time>2016-04-17T15:43:45.982Z</time>
      </trkpt>
      <trkpt lat="43.54889" lon="3.89737">
        <ele>42</ele>
        <time>2016-04-17T15:43:46.979Z</time>
      </trkpt>
      <trkpt lat="43.54898" lon="3.89737">
        <ele>43</ele>
        <time>2016-04-17T15:43:48.985Z</time>
      </trkpt>
      <trkpt lat="43.54902" lon="3.89737">
        <ele>43</ele>
        <time>2016-04-17T15:43:49.948Z</time>
      </trkpt>
      <trkpt lat="43.5491" lon="3.89738">
        <ele>43</ele>
        <time>2016-04-17T15:43:51.982Z</time>
      </trkpt>
      <trkpt lat="43.54914" lon="3.89739">
        <ele>43</ele>
        <time>2016-04-17T15:43:52.947Z</time>
      </trkpt>
      <trkpt lat="43.54921" lon="3.89738">
        <ele>44</ele>
        <time>2016-04-17T15:43:54.973Z</time>
      </trkpt>
      <trkpt lat="43.54926" lon="3.8974">
        <ele>44</ele>
        <time>2016-04-17T15:43:55.948Z</time>
      </trkpt>
      <trkpt lat="43.54934" lon="3.89741">
        <ele>45</ele>
        <time>2016-04-17T15:43:57.982Z</time>
      </trkpt>
      <trkpt lat="43.54938" lon="3.89743">
        <ele>44</ele>
        <time>2016-04-17T15:43:58.947Z</time>
      </trkpt>
      <trkpt lat="43.54944" lon="3.89743">
        <ele>45</ele>
        <time>2016-04-17T15:43:59.982Z</time>
      </trkpt>
      <trkpt lat="43.54948" lon="3.89744">
        <ele>45</ele>
        <time>2016-04-17T15:44:00.944Z</time>
      </trkpt>
      <trkpt lat="43.54954" lon="3.89747">
        <ele>47</ele>
        <time>2016-04-17T15:44:01.979Z</time>
      </trkpt>
      <trkpt lat="43.5496" lon="3.89747">
        <ele>45</ele>
        <time>2016-04-17T15:44:02.977Z</time>
      </trkpt>
      <trkpt lat="43.54968" lon="3.89748">
        <ele>44</ele>
        <time>2016-04-17T15:44:04.980Z</time>
      </trkpt>
      <trkpt lat="43.54973" lon="3.89748">
        <ele>44</ele>
        <time>2016-04-17T15:44:05.941Z</time>
      </trkpt>
      <trkpt lat="43.5498" lon="3.89754">
        <ele>40</ele>
        <time>2016-04-17T15:44:07.984Z</time>
      </trkpt>
      <trkpt lat="43.54985" lon="3.89755">
        <ele>39</ele>
        <time>2016-04-17T15:44:08.949Z</time>
      </trkpt>
      <trkpt lat="43.54989" lon="3.89755">
        <ele>40</ele>
        <time>2016-04-17T15:44:09.979Z</time>
      </trkpt>
      <trkpt lat="43.54994" lon="3.89756">
        <ele>40</ele>
        <time>2016-04-17T15:44:10.948Z</time>
      </trkpt>
      <trkpt lat="43.54998" lon="3.89756">
        <ele>41</ele>
        <time>2016-04-17T15:44:11.982Z</time>
      </trkpt>
      <trkpt lat="43.55002" lon="3.89762">
        <ele>39</ele>
        <time>2016-04-17T15:44:12.948Z</time>
      </trkpt>
      <trkpt lat="43.55009" lon="3.89762">
        <ele>39</ele>
        <time>2016-04-17T15:44:14.982Z</time>
      </trkpt>
      <trkpt lat="43.55013" lon="3.89759">
        <ele>40</ele>
        <time>2016-04-17T15:44:15.949Z</time>
      </trkpt>
      <trkpt lat="43.55017" lon="3.8976">
        <ele>41</ele>
        <time>2016-04-17T15:44:16.984Z</time>
      </trkpt>
      <trkpt lat="43.55023" lon="3.89761">
        <ele>40</ele>
        <time>2016-04-17T15:44:17.947Z</time>
      </trkpt>
      <trkpt lat="43.55028" lon="3.8976">
        <ele>38</ele>
        <time>2016-04-17T15:44:18.979Z</time>
      </trkpt>
      <trkpt lat="43.55033" lon="3.89761">
        <ele>39</ele>
        <time>2016-04-17T15:44:19.947Z</time>
      </trkpt>
      <trkpt lat="43.55038" lon="3.89762">
        <ele>40</ele>
        <time>2016-04-17T15:44:20.981Z</time>
      </trkpt>
      <trkpt lat="43.55043" lon="3.89764">
        <ele>40</ele>
        <time>2016-04-17T15:44:21.948Z</time>
      </trkpt>
      <trkpt lat="43.55048" lon="3.89766">
        <ele>40</ele>
        <time>2016-04-17T15:44:23.103Z</time>
      </trkpt>
      <trkpt lat="43.55053" lon="3.89768">
        <ele>39</ele>
        <time>2016-04-17T15:44:23.947Z</time>
      </trkpt>
      <trkpt lat="43.55058" lon="3.89769">
        <ele>40</ele>
        <time>2016-04-17T15:44:24.978Z</time>
      </trkpt>
      <trkpt lat="43.55065" lon="3.8977">
        <ele>42</ele>
        <time>2016-04-17T15:44:25.949Z</time>
      </trkpt>
      <trkpt lat="43.5507" lon="3.89778">
        <ele>41</ele>
        <time>2016-04-17T15:44:26.978Z</time>
      </trkpt>
      <trkpt lat="43.55076" lon="3.8978">
        <ele>41</ele>
        <time>2016-04-17T15:44:27.948Z</time>
      </trkpt>
      <trkpt lat="43.55081" lon="3.89782">
        <ele>38</ele>
        <time>2016-04-17T15:44:28.982Z</time>
      </trkpt>
      <trkpt lat="43.55085" lon="3.89782">
        <ele>39</ele>
        <time>2016-04-17T15:44:29.950Z</time>
      </trkpt>
      <trkpt lat="43.5509" lon="3.89783">
        <ele>40</ele>
        <time>2016-04-17T15:44:30.982Z</time>
      </trkpt>
      <trkpt lat="43.55094" lon="3.89787">
        <ele>40</ele>
        <time>2016-04-17T15:44:31.949Z</time>
      </trkpt>
      <trkpt lat="43.55098" lon="3.89788">
        <ele>40</ele>
        <time>2016-04-17T15:44:33.107Z</time>
      </trkpt>
      <trkpt lat="43.55103" lon="3.89788">
        <ele>41</ele>
        <time>2016-04-17T15:44:33.948Z</time>
      </trkpt>
      <trkpt lat="43.5511" lon="3.89789">
        <ele>40</ele>
        <time>2016-04-17T15:44:35.982Z</time>
      </trkpt>
      <trkpt lat="43.55114" lon="3.89791">
        <ele>39</ele>
        <time>2016-04-17T15:44:36.950Z</time>
      </trkpt>
      <trkpt lat="43.55122" lon="3.89792">
        <ele>39</ele>
        <time>2016-04-17T15:44:39.024Z</time>
      </trkpt>
      <trkpt lat="43.55124" lon="3.89793">
        <ele>39</ele>
        <time>2016-04-17T15:44:39.949Z</time>
      </trkpt>
      <trkpt lat="43.55133" lon="3.89795">
        <ele>37</ele>
        <time>2016-04-17T15:44:42.980Z</time>
      </trkpt>
      <trkpt lat="43.55136" lon="3.89796">
        <ele>36</ele>
        <time>2016-04-17T15:44:43.949Z</time>
      </trkpt>
      <trkpt lat="43.55143" lon="3.89798">
        <ele>37</ele>
        <time>2016-04-17T15:44:46.099Z</time>
      </trkpt>
      <trkpt lat="43.55146" lon="3.89798">
        <ele>38</ele>
        <time>2016-04-17T15:44:46.948Z</time>
      </trkpt>
      <trkpt lat="43.55153" lon="3.89801">
        <ele>41</ele>
        <time>2016-04-17T15:44:48.978Z</time>
      </trkpt>
      <trkpt lat="43.55156" lon="3.89802">
        <ele>39</ele>
        <time>2016-04-17T15:44:49.948Z</time>
      </trkpt>
      <trkpt lat="43.55163" lon="3.89803">
        <ele>40</ele>
        <time>2016-04-17T15:44:51.981Z</time>
      </trkpt>
      <trkpt lat="43.55166" lon="3.89804">
        <ele>41</ele>
        <time>2016-04-17T15:44:52.948Z</time>
      </trkpt>
      <trkpt lat="43.55174" lon="3.89804">
        <ele>40</ele>
        <time>2016-04-17T15:44:55.978Z</time>
      </trkpt>
      <trkpt lat="43.55176" lon="3.89804">
        <ele>40</ele>
        <time>2016-04-17T15:44:56.943Z</time>
      </trkpt>
      <trkpt lat="43.55179" lon="3.89793">
        <ele>43</ele>
        <time>2016-04-17T15:44:59.980Z</time>
      </trkpt>
      <trkpt lat="43.55178" lon="3.89789">
        <ele>43</ele>
        <time>2016-04-17T15:45:00.943Z</time>
      </trkpt>
      <trkpt lat="43.55181" lon="3.89778">
        <ele>43</ele>
        <time>2016-04-17T15:45:02.983Z</time>
      </trkpt>
      <trkpt lat="43.5518" lon="3.89774">
        <ele>43</ele>
        <time>2016-04-17T15:45:03.949Z</time>
      </trkpt>
      <trkpt lat="43.55177" lon="3.89765">
        <ele>42</ele>
        <time>2016-04-17T15:45:05.956Z</time>
      </trkpt>
      <trkpt lat="43.55176" lon="3.89761">
        <ele>40</ele>
        <time>2016-04-17T15:45:06.946Z</time>
      </trkpt>
      <trkpt lat="43.55174" lon="3.89752">
        <ele>43</ele>
        <time>2016-04-17T15:45:08.980Z</time>
      </trkpt>
      <trkpt lat="43.55174" lon="3.89746">
        <ele>43</ele>
        <time>2016-04-17T15:45:09.948Z</time>
      </trkpt>
      <trkpt lat="43.55174" lon="3.89737">
        <ele>41</ele>
        <time>2016-04-17T15:45:11.998Z</time>
      </trkpt>
      <trkpt lat="43.55174" lon="3.89733">
        <ele>41</ele>
        <time>2016-04-17T15:45:12.948Z</time>
      </trkpt>
      <trkpt lat="43.55173" lon="3.89722">
        <ele>43</ele>
        <time>2016-04-17T15:45:14.980Z</time>
      </trkpt>
      <trkpt lat="43.55172" lon="3.89717">
        <ele>43</ele>
        <time>2016-04-17T15:45:15.949Z</time>
      </trkpt>
      <trkpt lat="43.55171" lon="3.89708">
        <ele>45</ele>
        <time>2016-04-17T15:45:17.978Z</time>
      </trkpt>
      <trkpt lat="43.5517" lon="3.89703">
        <ele>45</ele>
        <time>2016-04-17T15:45:18.949Z</time>
      </trkpt>
      <trkpt lat="43.55168" lon="3.89696">
        <ele>44</ele>
        <time>2016-04-17T15:45:19.980Z</time>
      </trkpt>
      <trkpt lat="43.55168" lon="3.89691">
        <ele>45</ele>
        <time>2016-04-17T15:45:20.946Z</time>
      </trkpt>
      <trkpt lat="43.5517" lon="3.89679">
        <ele>45</ele>
        <time>2016-04-17T15:45:23.985Z</time>
      </trkpt>
      <trkpt lat="43.55172" lon="3.89677">
        <ele>45</ele>
        <time>2016-04-17T15:45:24.947Z</time>
      </trkpt>
      <trkpt lat="43.55177" lon="3.89671">
        <ele>46</ele>
        <time>2016-04-17T15:45:27.991Z</time>
      </trkpt>
      <trkpt lat="43.55183" lon="3.89676">
        <ele>50</ele>
        <time>2016-04-17T15:45:28.947Z</time>
      </trkpt>
      <trkpt lat="43.55191" lon="3.89679">
        <ele>51</ele>
        <time>2016-04-17T15:45:30.972Z</time>
      </trkpt>
      <trkpt lat="43.55193" lon="3.89679">
        <ele>52</ele>
        <time>2016-04-17T15:45:31.949Z</time>
      </trkpt>
      <trkpt lat="43.55201" lon="3.89679">
        <ele>49</ele>
        <time>2016-04-17T15:45:35.092Z</time>
      </trkpt>
      <trkpt lat="43.55205" lon="3.89681">
        <ele>49</ele>
        <time>2016-04-17T15:45:35.948Z</time>
      </trkpt>
      <trkpt lat="43.55211" lon="3.8968">
        <ele>48</ele>
        <time>2016-04-17T15:45:37.979Z</time>
      </trkpt>
      <trkpt lat="43.55214" lon="3.8968">
        <ele>48</ele>
        <time>2016-04-17T15:45:38.943Z</time>
      </trkpt>
      <trkpt lat="43.55221" lon="3.89684">
        <ele>48</ele>
        <time>2016-04-17T15:45:40.980Z</time>
      </trkpt>
      <trkpt lat="43.55225" lon="3.89685">
        <ele>48</ele>
        <time>2016-04-17T15:45:41.949Z</time>
      </trkpt>
      <trkpt lat="43.55231" lon="3.89687">
        <ele>47</ele>
        <time>2016-04-17T15:45:44.002Z</time>
      </trkpt>
      <trkpt lat="43.55235" lon="3.89688">
        <ele>47</ele>
        <time>2016-04-17T15:45:44.948Z</time>
      </trkpt>
      <trkpt lat="43.55241" lon="3.89689">
        <ele>47</ele>
        <time>2016-04-17T15:45:46.981Z</time>
      </trkpt>
      <trkpt lat="43.55245" lon="3.8969">
        <ele>47</ele>
        <time>2016-04-17T15:45:48.087Z</time>
      </trkpt>
      <trkpt lat="43.55254" lon="3.8969">
        <ele>45</ele>
        <time>2016-04-17T15:45:49.981Z</time>
      </trkpt>
      <trkpt lat="43.55258" lon="3.8969">
        <ele>45</ele>
        <time>2016-04-17T15:45:50.949Z</time>
      </trkpt>
      <trkpt lat="43.55266" lon="3.89689">
        <ele>42</ele>
        <time>2016-04-17T15:45:53.029Z</time>
      </trkpt>
      <trkpt lat="43.55269" lon="3.89692">
        <ele>41</ele>
        <time>2016-04-17T15:45:53.949Z</time>
      </trkpt>
      <trkpt lat="43.55276" lon="3.89693">
        <ele>41</ele>
        <time>2016-04-17T15:45:55.979Z</time>
      </trkpt>
      <trkpt lat="43.5528" lon="3.89694">
        <ele>41</ele>
        <time>2016-04-17T15:45:56.942Z</time>
      </trkpt>
      <trkpt lat="43.55287" lon="3.89696">
        <ele>41</ele>
        <time>2016-04-17T15:45:58.981Z</time>
      </trkpt>
      <trkpt lat="43.55291" lon="3.89697">
        <ele>41</ele>
        <time>2016-04-17T15:45:59.965Z</time>
      </trkpt>
      <trkpt lat="43.55299" lon="3.89699">
        <ele>43</ele>
        <time>2016-04-17T15:46:01.980Z</time>
      </trkpt>
      <trkpt lat="43.55302" lon="3.89699">
        <ele>44</ele>
        <time>2016-04-17T15:46:02.947Z</time>
      </trkpt>
      <trkpt lat="43.55308" lon="3.89701">
        <ele>42</ele>
        <time>2016-04-17T15:46:04.981Z</time>
      </trkpt>
      <trkpt lat="43.55312" lon="3.89703">
        <ele>42</ele>
        <time>2016-04-17T15:46:05.948Z</time>
      </trkpt>
      <trkpt lat="43.5532" lon="3.89705">
        <ele>44</ele>
        <time>2016-04-17T15:46:07.979Z</time>
      </trkpt>
      <trkpt lat="43.55324" lon="3.89705">
        <ele>45</ele>
        <time>2016-04-17T15:46:08.949Z</time>
      </trkpt>
      <trkpt lat="43.55332" lon="3.89705">
        <ele>46</ele>
        <time>2016-04-17T15:46:10.980Z</time>
      </trkpt>
      <trkpt lat="43.55334" lon="3.89705">
        <ele>46</ele>
        <time>2016-04-17T15:46:11.947Z</time>
      </trkpt>
      <trkpt lat="43.5534" lon="3.89707">
        <ele>41</ele>
        <time>2016-04-17T15:46:13.980Z</time>
      </trkpt>
      <trkpt lat="43.55344" lon="3.89707">
        <ele>41</ele>
        <time>2016-04-17T15:46:14.947Z</time>
      </trkpt>
      <trkpt lat="43.55352" lon="3.89709">
        <ele>43</ele>
        <time>2016-04-17T15:46:16.970Z</time>
      </trkpt>
      <trkpt lat="43.55356" lon="3.89709">
        <ele>45</ele>
        <time>2016-04-17T15:46:17.948Z</time>
      </trkpt>
      <trkpt lat="43.55364" lon="3.89711">
        <ele>46</ele>
        <time>2016-04-17T15:46:19.982Z</time>
      </trkpt>
      <trkpt lat="43.55368" lon="3.89712">
        <ele>47</ele>
        <time>2016-04-17T15:46:20.944Z</time>
      </trkpt>
      <trkpt lat="43.55372" lon="3.89715">
        <ele>47</ele>
        <time>2016-04-17T15:46:21.978Z</time>
      </trkpt>
      <trkpt lat="43.55378" lon="3.89716">
        <ele>47</ele>
        <time>2016-04-17T15:46:22.949Z</time>
      </trkpt>
      <trkpt lat="43.55383" lon="3.89717">
        <ele>48</ele>
        <time>2016-04-17T15:46:23.981Z</time>
      </trkpt>
      <trkpt lat="43.55387" lon="3.89718">
        <ele>48</ele>
        <time>2016-04-17T15:46:24.943Z</time>
      </trkpt>
      <trkpt lat="43.55392" lon="3.89719">
        <ele>48</ele>
        <time>2016-04-17T15:46:25.983Z</time>
      </trkpt>
      <trkpt lat="43.55396" lon="3.89718">
        <ele>48</ele>
        <time>2016-04-17T15:46:26.950Z</time>
      </trkpt>
      <trkpt lat="43.55405" lon="3.89719">
        <ele>49</ele>
        <time>2016-04-17T15:46:28.978Z</time>
      </trkpt>
      <trkpt lat="43.55409" lon="3.8972">
        <ele>49</ele>
        <time>2016-04-17T15:46:29.947Z</time>
      </trkpt>
      <trkpt lat="43.55413" lon="3.89723">
        <ele>49</ele>
        <time>2016-04-17T15:46:30.999Z</time>
      </trkpt>
      <trkpt lat="43.55418" lon="3.89724">
        <ele>49</ele>
        <time>2016-04-17T15:46:31.948Z</time>
      </trkpt>
      <trkpt lat="43.55426" lon="3.89726">
        <ele>49</ele>
        <time>2016-04-17T15:46:33.979Z</time>
      </trkpt>
      <trkpt lat="43.55431" lon="3.89728">
        <ele>47</ele>
        <time>2016-04-17T15:46:34.949Z</time>
      </trkpt>
      <trkpt lat="43.55439" lon="3.89727">
        <ele>49</ele>
        <time>2016-04-17T15:46:36.999Z</time>
      </trkpt>
      <trkpt lat="43.55445" lon="3.89728">
        <ele>48</ele>
        <time>2016-04-17T15:46:37.948Z</time>
      </trkpt>
      <trkpt lat="43.55453" lon="3.89732">
        <ele>46</ele>
        <time>2016-04-17T15:46:39.982Z</time>
      </trkpt>
      <trkpt lat="43.55457" lon="3.89733">
        <ele>46</ele>
        <time>2016-04-17T15:46:40.944Z</time>
      </trkpt>
      <trkpt lat="43.5546" lon="3.89734">
        <ele>46</ele>
        <time>2016-04-17T15:46:41.976Z</time>
      </trkpt>
      <trkpt lat="43.55466" lon="3.89733">
        <ele>47</ele>
        <time>2016-04-17T15:46:42.949Z</time>
      </trkpt>
      <trkpt lat="43.55471" lon="3.89734">
        <ele>48</ele>
        <time>2016-04-17T15:46:43.979Z</time>
      </trkpt>
      <trkpt lat="43.55477" lon="3.89738">
        <ele>49</ele>
        <time>2016-04-17T15:46:44.950Z</time>
      </trkpt>
      <trkpt lat="43.55486" lon="3.89739">
        <ele>50</ele>
        <time>2016-04-17T15:46:46.978Z</time>
      </trkpt>
      <trkpt lat="43.55491" lon="3.89745">
        <ele>49</ele>
        <time>2016-04-17T15:46:47.948Z</time>
      </trkpt>
      <trkpt lat="43.55498" lon="3.89748">
        <ele>46</ele>
        <time>2016-04-17T15:46:48.974Z</time>
      </trkpt>
      <trkpt lat="43.55502" lon="3.89748">
        <ele>46</ele>
        <time>2016-04-17T15:46:49.951Z</time>
      </trkpt>
      <trkpt lat="43.5551" lon="3.89752">
        <ele>45</ele>
        <time>2016-04-17T15:46:51.981Z</time>
      </trkpt>
      <trkpt lat="43.55515" lon="3.89754">
        <ele>45</ele>
        <time>2016-04-17T15:46:52.965Z</time>
      </trkpt>
      <trkpt lat="43.55522" lon="3.8975">
        <ele>45</ele>
        <time>2016-04-17T15:46:54.984Z</time>
      </trkpt>
      <trkpt lat="43.55526" lon="3.89752">
        <ele>45</ele>
        <time>2016-04-17T15:46:55.947Z</time>
      </trkpt>
      <trkpt lat="43.55533" lon="3.89752">
        <ele>45</ele>
        <time>2016-04-17T15:46:57.979Z</time>
      </trkpt>
      <trkpt lat="43.55538" lon="3.89752">
        <ele>46</ele>
        <time>2016-04-17T15:46:58.948Z</time>
      </trkpt>
      <trkpt lat="43.55546" lon="3.89751">
        <ele>46</ele>
        <time>2016-04-17T15:47:00.962Z</time>
      </trkpt>
      <trkpt lat="43.5555" lon="3.8975">
        <ele>47</ele>
        <time>2016-04-17T15:47:01.951Z</time>
      </trkpt>
      <trkpt lat="43.55555" lon="3.89751">
        <ele>48</ele>
        <time>2016-04-17T15:47:02.981Z</time>
      </trkpt>
      <trkpt lat="43.55559" lon="3.89751">
        <ele>48</ele>
        <time>2016-04-17T15:47:03.947Z</time>
      </trkpt>
      <trkpt lat="43.55568" lon="3.89749">
        <ele>49</ele>
        <time>2016-04-17T15:47:05.978Z</time>
      </trkpt>
      <trkpt lat="43.55572" lon="3.89745">
        <ele>50</ele>
        <time>2016-04-17T15:47:06.949Z</time>
      </trkpt>
      <trkpt lat="43.5558" lon="3.8974">
        <ele>52</ele>
        <time>2016-04-17T15:47:09.001Z</time>
      </trkpt>
      <trkpt lat="43.55583" lon="3.89739">
        <ele>51</ele>
        <time>2016-04-17T15:47:09.949Z</time>
      </trkpt>
      <trkpt lat="43.55591" lon="3.89736">
        <ele>51</ele>
        <time>2016-04-17T15:47:11.978Z</time>
      </trkpt>
      <trkpt lat="43.55596" lon="3.89735">
        <ele>51</ele>
        <time>2016-04-17T15:47:12.952Z</time>
      </trkpt>
      <trkpt lat="43.55604" lon="3.89733">
        <ele>52</ele>
        <time>2016-04-17T15:47:14.981Z</time>
      </trkpt>
      <trkpt lat="43.55608" lon="3.8973">
        <ele>52</ele>
        <time>2016-04-17T15:47:15.949Z</time>
      </trkpt>
      <trkpt lat="43.55612" lon="3.89728">
        <ele>52</ele>
        <time>2016-04-17T15:47:16.978Z</time>
      </trkpt>
      <trkpt lat="43.55617" lon="3.89727">
        <ele>50</ele>
        <time>2016-04-17T15:47:17.948Z</time>
      </trkpt>
      <trkpt lat="43.55624" lon="3.89724">
        <ele>51</ele>
        <time>2016-04-17T15:47:19.982Z</time>
      </trkpt>
      <trkpt lat="43.55627" lon="3.89719">
        <ele>49</ele>
        <time>2016-04-17T15:47:20.950Z</time>
      </trkpt>
      <trkpt lat="43.55633" lon="3.89713">
        <ele>49</ele>
        <time>2016-04-17T15:47:22.983Z</time>
      </trkpt>
      <trkpt lat="43.55636" lon="3.89711">
        <ele>49</ele>
        <time>2016-04-17T15:47:23.948Z</time>
      </trkpt>
      <trkpt lat="43.55643" lon="3.89708">
        <ele>50</ele>
        <time>2016-04-17T15:47:25.979Z</time>
      </trkpt>
      <trkpt lat="43.5565" lon="3.89709">
        <ele>51</ele>
        <time>2016-04-17T15:47:26.949Z</time>
      </trkpt>
      <trkpt lat="43.55657" lon="3.89704">
        <ele>51</ele>
        <time>2016-04-17T15:47:28.980Z</time>
      </trkpt>
      <trkpt lat="43.55661" lon="3.89703">
        <ele>51</ele>
        <time>2016-04-17T15:47:29.948Z</time>
      </trkpt>
      <trkpt lat="43.55665" lon="3.89699">
        <ele>51</ele>
        <time>2016-04-17T15:47:30.978Z</time>
      </trkpt>
      <trkpt lat="43.55668" lon="3.89693">
        <ele>52</ele>
        <time>2016-04-17T15:47:31.947Z</time>
      </trkpt>
      <trkpt lat="43.55675" lon="3.89686">
        <ele>52</ele>
        <time>2016-04-17T15:47:33.978Z</time>
      </trkpt>
      <trkpt lat="43.55679" lon="3.89683">
        <ele>53</ele>
        <time>2016-04-17T15:47:34.949Z</time>
      </trkpt>
      <trkpt lat="43.55682" lon="3.89678">
        <ele>55</ele>
        <time>2016-04-17T15:47:35.980Z</time>
      </trkpt>
      <trkpt lat="43.55686" lon="3.89674">
        <ele>55</ele>
        <time>2016-04-17T15:47:36.948Z</time>
      </trkpt>
      <trkpt lat="43.55691" lon="3.89667">
        <ele>54</ele>
        <time>2016-04-17T15:47:38.984Z</time>
      </trkpt>
      <trkpt lat="43.55693" lon="3.89663">
        <ele>53</ele>
        <time>2016-04-17T15:47:39.948Z</time>
      </trkpt>
      <trkpt lat="43.55699" lon="3.89655">
        <ele>53</ele>
        <time>2016-04-17T15:47:41.980Z</time>
      </trkpt>
      <trkpt lat="43.55701" lon="3.8965">
        <ele>54</ele>
        <time>2016-04-17T15:47:42.947Z</time>
      </trkpt>
      <trkpt lat="43.55707" lon="3.8964">
        <ele>54</ele>
        <time>2016-04-17T15:47:44.980Z</time>
      </trkpt>
      <trkpt lat="43.5571" lon="3.89636">
        <ele>54</ele>
        <time>2016-04-17T15:47:45.949Z</time>
      </trkpt>
      <trkpt lat="43.55713" lon="3.89631">
        <ele>55</ele>
        <time>2016-04-17T15:47:46.977Z</time>
      </trkpt>
      <trkpt lat="43.55715" lon="3.89625">
        <ele>56</ele>
        <time>2016-04-17T15:47:47.948Z</time>
      </trkpt>
      <trkpt lat="43.55719" lon="3.89615">
        <ele>56</ele>
        <time>2016-04-17T15:47:49.980Z</time>
      </trkpt>
      <trkpt lat="43.55722" lon="3.8961">
        <ele>56</ele>
        <time>2016-04-17T15:47:50.948Z</time>
      </trkpt>
      <trkpt lat="43.55724" lon="3.89604">
        <ele>56</ele>
        <time>2016-04-17T15:47:51.978Z</time>
      </trkpt>
      <trkpt lat="43.55726" lon="3.89599">
        <ele>56</ele>
        <time>2016-04-17T15:47:52.946Z</time>
      </trkpt>
      <trkpt lat="43.55731" lon="3.8959">
        <ele>55</ele>
        <time>2016-04-17T15:47:54.980Z</time>
      </trkpt>
      <trkpt lat="43.55733" lon="3.89585">
        <ele>54</ele>
        <time>2016-04-17T15:47:55.948Z</time>
      </trkpt>
      <trkpt lat="43.55739" lon="3.89576">
        <ele>53</ele>
        <time>2016-04-17T15:47:57.971Z</time>
      </trkpt>
      <trkpt lat="43.55741" lon="3.8957">
        <ele>53</ele>
        <time>2016-04-17T15:47:58.955Z</time>
      </trkpt>
      <trkpt lat="43.55746" lon="3.89567">
        <ele>53</ele>
        <time>2016-04-17T15:47:59.975Z</time>
      </trkpt>
      <trkpt lat="43.55749" lon="3.89563">
        <ele>52</ele>
        <time>2016-04-17T15:48:00.944Z</time>
      </trkpt>
      <trkpt lat="43.55752" lon="3.89554">
        <ele>52</ele>
        <time>2016-04-17T15:48:02.979Z</time>
      </trkpt>
      <trkpt lat="43.55754" lon="3.89551">
        <ele>53</ele>
        <time>2016-04-17T15:48:03.948Z</time>
      </trkpt>
      <trkpt lat="43.55757" lon="3.89542">
        <ele>51</ele>
        <time>2016-04-17T15:48:05.979Z</time>
      </trkpt>
      <trkpt lat="43.55761" lon="3.89538">
        <ele>51</ele>
        <time>2016-04-17T15:48:06.948Z</time>
      </trkpt>
      <trkpt lat="43.55766" lon="3.89529">
        <ele>50</ele>
        <time>2016-04-17T15:48:08.970Z</time>
      </trkpt>
      <trkpt lat="43.55768" lon="3.89524">
        <ele>51</ele>
        <time>2016-04-17T15:48:09.948Z</time>
      </trkpt>
      <trkpt lat="43.55773" lon="3.89513">
        <ele>53</ele>
        <time>2016-04-17T15:48:11.979Z</time>
      </trkpt>
      <trkpt lat="43.55775" lon="3.89508">
        <ele>53</ele>
        <time>2016-04-17T15:48:12.943Z</time>
      </trkpt>
      <trkpt lat="43.55777" lon="3.89496">
        <ele>50</ele>
        <time>2016-04-17T15:48:14.980Z</time>
      </trkpt>
      <trkpt lat="43.55783" lon="3.89496">
        <ele>53</ele>
        <time>2016-04-17T15:48:15.947Z</time>
      </trkpt>
      <trkpt lat="43.55789" lon="3.8949">
        <ele>54</ele>
        <time>2016-04-17T15:48:16.979Z</time>
      </trkpt>
      <trkpt lat="43.55792" lon="3.89485">
        <ele>53</ele>
        <time>2016-04-17T15:48:17.975Z</time>
      </trkpt>
      <trkpt lat="43.55795" lon="3.8948">
        <ele>54</ele>
        <time>2016-04-17T15:48:18.977Z</time>
      </trkpt>
      <trkpt lat="43.558" lon="3.89476">
        <ele>53</ele>
        <time>2016-04-17T15:48:19.949Z</time>
      </trkpt>
      <trkpt lat="43.55801" lon="3.8947">
        <ele>53</ele>
        <time>2016-04-17T15:48:20.985Z</time>
      </trkpt>
      <trkpt lat="43.558" lon="3.89463">
        <ele>52</ele>
        <time>2016-04-17T15:48:21.946Z</time>
      </trkpt>
      <trkpt lat="43.55803" lon="3.8946">
        <ele>53</ele>
        <time>2016-04-17T15:48:22.980Z</time>
      </trkpt>
      <trkpt lat="43.55807" lon="3.89456">
        <ele>53</ele>
        <time>2016-04-17T15:48:23.949Z</time>
      </trkpt>
      <trkpt lat="43.55813" lon="3.89448">
        <ele>52</ele>
        <time>2016-04-17T15:48:25.981Z</time>
      </trkpt>
      <trkpt lat="43.55817" lon="3.89445">
        <ele>54</ele>
        <time>2016-04-17T15:48:26.948Z</time>
      </trkpt>
      <trkpt lat="43.55822" lon="3.89439">
        <ele>54</ele>
        <time>2016-04-17T15:48:29.041Z</time>
      </trkpt>
      <trkpt lat="43.55826" lon="3.89437">
        <ele>55</ele>
        <time>2016-04-17T15:48:29.948Z</time>
      </trkpt>
      <trkpt lat="43.55831" lon="3.89436">
        <ele>56</ele>
        <time>2016-04-17T15:48:30.981Z</time>
      </trkpt>
      <trkpt lat="43.55835" lon="3.89434">
        <ele>57</ele>
        <time>2016-04-17T15:48:31.948Z</time>
      </trkpt>
      <trkpt lat="43.55843" lon="3.89431">
        <ele>57</ele>
        <time>2016-04-17T15:48:33.979Z</time>
      </trkpt>
      <trkpt lat="43.55847" lon="3.8943">
        <ele>56</ele>
        <time>2016-04-17T15:48:34.948Z</time>
      </trkpt>
      <trkpt lat="43.55852" lon="3.89429">
        <ele>56</ele>
        <time>2016-04-17T15:48:35.978Z</time>
      </trkpt>
      <trkpt lat="43.55856" lon="3.89429">
        <ele>56</ele>
        <time>2016-04-17T15:48:36.948Z</time>
      </trkpt>
      <trkpt lat="43.55861" lon="3.8943">
        <ele>56</ele>
        <time>2016-04-17T15:48:37.979Z</time>
      </trkpt>
      <trkpt lat="43.55866" lon="3.89432">
        <ele>56</ele>
        <time>2016-04-17T15:48:38.949Z</time>
      </trkpt>
      <trkpt lat="43.5587" lon="3.89433">
        <ele>55</ele>
        <time>2016-04-17T15:48:40.001Z</time>
      </trkpt>
      <trkpt lat="43.55875" lon="3.89435">
        <ele>55</ele>
        <time>2016-04-17T15:48:40.949Z</time>
      </trkpt>
      <trkpt lat="43.55883" lon="3.89439">
        <ele>55</ele>
        <time>2016-04-17T15:48:42.980Z</time>
      </trkpt>
      <trkpt lat="43.55888" lon="3.89441">
        <ele>54</ele>
        <time>2016-04-17T15:48:43.948Z</time>
      </trkpt>
      <trkpt lat="43.55893" lon="3.89443">
        <ele>54</ele>
        <time>2016-04-17T15:48:44.980Z</time>
      </trkpt>
      <trkpt lat="43.55898" lon="3.89446">
        <ele>53</ele>
        <time>2016-04-17T15:48:45.949Z</time>
      </trkpt>
      <trkpt lat="43.55905" lon="3.89448">
        <ele>55</ele>
        <time>2016-04-17T15:48:47.977Z</time>
      </trkpt>
      <trkpt lat="43.55908" lon="3.8945">
        <ele>56</ele>
        <time>2016-04-17T15:48:48.948Z</time>
      </trkpt>
      <trkpt lat="43.55913" lon="3.89453">
        <ele>56</ele>
        <time>2016-04-17T15:48:50.982Z</time>
      </trkpt>
      <trkpt lat="43.55917" lon="3.89454">
        <ele>56</ele>
        <time>2016-04-17T15:48:51.951Z</time>
      </trkpt>
      <trkpt lat="43.55923" lon="3.8946">
        <ele>54</ele>
        <time>2016-04-17T15:48:53.980Z</time>
      </trkpt>
      <trkpt lat="43.55925" lon="3.89459">
        <ele>55</ele>
        <time>2016-04-17T15:48:54.948Z</time>
      </trkpt>
      <trkpt lat="43.55933" lon="3.8946">
        <ele>55</ele>
        <time>2016-04-17T15:48:56.980Z</time>
      </trkpt>
      <trkpt lat="43.55938" lon="3.89463">
        <ele>55</ele>
        <time>2016-04-17T15:48:57.949Z</time>
      </trkpt>
      <trkpt lat="43.55943" lon="3.89466">
        <ele>56</ele>
        <time>2016-04-17T15:48:58.977Z</time>
      </trkpt>
      <trkpt lat="43.55948" lon="3.8947">
        <ele>55</ele>
        <time>2016-04-17T15:48:59.949Z</time>
      </trkpt>
      <trkpt lat="43.55955" lon="3.89475">
        <ele>56</ele>
        <time>2016-04-17T15:49:02.102Z</time>
      </trkpt>
      <trkpt lat="43.55959" lon="3.89478">
        <ele>57</ele>
        <time>2016-04-17T15:49:02.951Z</time>
      </trkpt>
      <trkpt lat="43.55963" lon="3.89481">
        <ele>57</ele>
        <time>2016-04-17T15:49:03.978Z</time>
      </trkpt>
      <trkpt lat="43.55967" lon="3.89484">
        <ele>55</ele>
        <time>2016-04-17T15:49:04.950Z</time>
      </trkpt>
      <trkpt lat="43.55975" lon="3.89489">
        <ele>55</ele>
        <time>2016-04-17T15:49:06.979Z</time>
      </trkpt>
      <trkpt lat="43.55978" lon="3.89491">
        <ele>55</ele>
        <time>2016-04-17T15:49:07.942Z</time>
      </trkpt>
      <trkpt lat="43.55985" lon="3.89497">
        <ele>56</ele>
        <time>2016-04-17T15:49:09.982Z</time>
      </trkpt>
      <trkpt lat="43.55989" lon="3.895">
        <ele>56</ele>
        <time>2016-04-17T15:49:10.948Z</time>
      </trkpt>
      <trkpt lat="43.55994" lon="3.89502">
        <ele>57</ele>
        <time>2016-04-17T15:49:11.976Z</time>
      </trkpt>
      <trkpt lat="43.55998" lon="3.89504">
        <ele>57</ele>
        <time>2016-04-17T15:49:12.948Z</time>
      </trkpt>
      <trkpt lat="43.56005" lon="3.8951">
        <ele>54</ele>
        <time>2016-04-17T15:49:14.980Z</time>
      </trkpt>
      <trkpt lat="43.56007" lon="3.89512">
        <ele>54</ele>
        <time>2016-04-17T15:49:15.949Z</time>
      </trkpt>
      <trkpt lat="43.56013" lon="3.89514">
        <ele>52</ele>
        <time>2016-04-17T15:49:17.980Z</time>
      </trkpt>
      <trkpt lat="43.56017" lon="3.89516">
        <ele>51</ele>
        <time>2016-04-17T15:49:18.949Z</time>
      </trkpt>
      <trkpt lat="43.56025" lon="3.89518">
        <ele>49</ele>
        <time>2016-04-17T15:49:20.980Z</time>
      </trkpt>
      <trkpt lat="43.56027" lon="3.89517">
        <ele>47</ele>
        <time>2016-04-17T15:49:21.949Z</time>
      </trkpt>
      <trkpt lat="43.56033" lon="3.89517">
        <ele>47</ele>
        <time>2016-04-17T15:49:23.972Z</time>
      </trkpt>
      <trkpt lat="43.56037" lon="3.8952">
        <ele>47</ele>
        <time>2016-04-17T15:49:24.951Z</time>
      </trkpt>
      <trkpt lat="43.56045" lon="3.89521">
        <ele>48</ele>
        <time>2016-04-17T15:49:27.095Z</time>
      </trkpt>
      <trkpt lat="43.56049" lon="3.89521">
        <ele>48</ele>
        <time>2016-04-17T15:49:27.951Z</time>
      </trkpt>
      <trkpt lat="43.56056" lon="3.89523">
        <ele>49</ele>
        <time>2016-04-17T15:49:29.978Z</time>
      </trkpt>
      <trkpt lat="43.56061" lon="3.89523">
        <ele>49</ele>
        <time>2016-04-17T15:49:30.950Z</time>
      </trkpt>
      <trkpt lat="43.56065" lon="3.89525">
        <ele>49</ele>
        <time>2016-04-17T15:49:31.973Z</time>
      </trkpt>
      <trkpt lat="43.56069" lon="3.89527">
        <ele>49</ele>
        <time>2016-04-17T15:49:32.950Z</time>
      </trkpt>
      <trkpt lat="43.56078" lon="3.89529">
        <ele>48</ele>
        <time>2016-04-17T15:49:34.976Z</time>
      </trkpt>
      <trkpt lat="43.56082" lon="3.8953">
        <ele>49</ele>
        <time>2016-04-17T15:49:35.951Z</time>
      </trkpt>
      <trkpt lat="43.5609" lon="3.89531">
        <ele>50</ele>
        <time>2016-04-17T15:49:37.997Z</time>
      </trkpt>
      <trkpt lat="43.56094" lon="3.89533">
        <ele>50</ele>
        <time>2016-04-17T15:49:38.950Z</time>
      </trkpt>
      <trkpt lat="43.56102" lon="3.89535">
        <ele>51</ele>
        <time>2016-04-17T15:49:40.973Z</time>
      </trkpt>
      <trkpt lat="43.56106" lon="3.89537">
        <ele>51</ele>
        <time>2016-04-17T15:49:41.950Z</time>
      </trkpt>
      <trkpt lat="43.56115" lon="3.89539">
        <ele>51</ele>
        <time>2016-04-17T15:49:43.974Z</time>
      </trkpt>
      <trkpt lat="43.56119" lon="3.8954">
        <ele>52</ele>
        <time>2016-04-17T15:49:44.950Z</time>
      </trkpt>
      <trkpt lat="43.56126" lon="3.89542">
        <ele>52</ele>
        <time>2016-04-17T15:49:46.975Z</time>
      </trkpt>
      <trkpt lat="43.5613" lon="3.89542">
        <ele>53</ele>
        <time>2016-04-17T15:49:47.950Z</time>
      </trkpt>
      <trkpt lat="43.56138" lon="3.89543">
        <ele>54</ele>
        <time>2016-04-17T15:49:49.976Z</time>
      </trkpt>
      <trkpt lat="43.56141" lon="3.89544">
        <ele>55</ele>
        <time>2016-04-17T15:49:50.950Z</time>
      </trkpt>
      <trkpt lat="43.56149" lon="3.89546">
        <ele>55</ele>
        <time>2016-04-17T15:49:53.049Z</time>
      </trkpt>
      <trkpt lat="43.56153" lon="3.89547">
        <ele>55</ele>
        <time>2016-04-17T15:49:53.951Z</time>
      </trkpt>
      <trkpt lat="43.56161" lon="3.89549">
        <ele>56</ele>
        <time>2016-04-17T15:49:55.974Z</time>
      </trkpt>
      <trkpt lat="43.56165" lon="3.8955">
        <ele>56</ele>
        <time>2016-04-17T15:49:56.951Z</time>
      </trkpt>
      <trkpt lat="43.56173" lon="3.89551">
        <ele>57</ele>
        <time>2016-04-17T15:49:58.974Z</time>
      </trkpt>
      <trkpt lat="43.56177" lon="3.89552">
        <ele>56</ele>
        <time>2016-04-17T15:49:59.949Z</time>
      </trkpt>
      <trkpt lat="43.56185" lon="3.89555">
        <ele>56</ele>
        <time>2016-04-17T15:50:01.973Z</time>
      </trkpt>
      <trkpt lat="43.56189" lon="3.89556">
        <ele>56</ele>
        <time>2016-04-17T15:50:02.950Z</time>
      </trkpt>
      <trkpt lat="43.56193" lon="3.89561">
        <ele>56</ele>
        <time>2016-04-17T15:50:03.995Z</time>
      </trkpt>
      <trkpt lat="43.56197" lon="3.89562">
        <ele>56</ele>
        <time>2016-04-17T15:50:04.952Z</time>
      </trkpt>
      <trkpt lat="43.56206" lon="3.89565">
        <ele>56</ele>
        <time>2016-04-17T15:50:06.973Z</time>
      </trkpt>
      <trkpt lat="43.5621" lon="3.89566">
        <ele>56</ele>
        <time>2016-04-17T15:50:07.950Z</time>
      </trkpt>
      <trkpt lat="43.56218" lon="3.89568">
        <ele>56</ele>
        <time>2016-04-17T15:50:09.974Z</time>
      </trkpt>
      <trkpt lat="43.56222" lon="3.89568">
        <ele>56</ele>
        <time>2016-04-17T15:50:10.950Z</time>
      </trkpt>
      <trkpt lat="43.56226" lon="3.89573">
        <ele>54</ele>
        <time>2016-04-17T15:50:11.978Z</time>
      </trkpt>
      <trkpt lat="43.5623" lon="3.89574">
        <ele>53</ele>
        <time>2016-04-17T15:50:12.951Z</time>
      </trkpt>
      <trkpt lat="43.56239" lon="3.89576">
        <ele>54</ele>
        <time>2016-04-17T15:50:15.105Z</time>
      </trkpt>
      <trkpt lat="43.56242" lon="3.89576">
        <ele>54</ele>
        <time>2016-04-17T15:50:15.949Z</time>
      </trkpt>
      <trkpt lat="43.56249" lon="3.89575">
        <ele>54</ele>
        <time>2016-04-17T15:50:17.978Z</time>
      </trkpt>
      <trkpt lat="43.56252" lon="3.89575">
        <ele>52</ele>
        <time>2016-04-17T15:50:18.948Z</time>
      </trkpt>
      <trkpt lat="43.56257" lon="3.89574">
        <ele>52</ele>
        <time>2016-04-17T15:50:20.980Z</time>
      </trkpt>
      <trkpt lat="43.56261" lon="3.89574">
        <ele>51</ele>
        <time>2016-04-17T15:50:21.951Z</time>
      </trkpt>
      <trkpt lat="43.56269" lon="3.89578">
        <ele>53</ele>
        <time>2016-04-17T15:50:23.978Z</time>
      </trkpt>
      <trkpt lat="43.56274" lon="3.89581">
        <ele>54</ele>
        <time>2016-04-17T15:50:24.951Z</time>
      </trkpt>
      <trkpt lat="43.56279" lon="3.89582">
        <ele>53</ele>
        <time>2016-04-17T15:50:25.983Z</time>
      </trkpt>
      <trkpt lat="43.56285" lon="3.89584">
        <ele>52</ele>
        <time>2016-04-17T15:50:26.950Z</time>
      </trkpt>
      <trkpt lat="43.56289" lon="3.89585">
        <ele>52</ele>
        <time>2016-04-17T15:50:27.979Z</time>
      </trkpt>
      <trkpt lat="43.56294" lon="3.89587">
        <ele>52</ele>
        <time>2016-04-17T15:50:28.948Z</time>
      </trkpt>
      <trkpt lat="43.563" lon="3.89589">
        <ele>51</ele>
        <time>2016-04-17T15:50:29.986Z</time>
      </trkpt>
      <trkpt lat="43.56305" lon="3.89593">
        <ele>50</ele>
        <time>2016-04-17T15:50:30.948Z</time>
      </trkpt>
      <trkpt lat="43.56314" lon="3.89595">
        <ele>50</ele>
        <time>2016-04-17T15:50:32.983Z</time>
      </trkpt>
      <trkpt lat="43.56318" lon="3.89597">
        <ele>50</ele>
        <time>2016-04-17T15:50:33.950Z</time>
      </trkpt>
      <trkpt lat="43.56322" lon="3.89598">
        <ele>50</ele>
        <time>2016-04-17T15:50:34.980Z</time>
      </trkpt>
      <trkpt lat="43.56327" lon="3.896">
        <ele>51</ele>
        <time>2016-04-17T15:50:35.948Z</time>
      </trkpt>
      <trkpt lat="43.56335" lon="3.896">
        <ele>51</ele>
        <time>2016-04-17T15:50:37.979Z</time>
      </trkpt>
      <trkpt lat="43.56339" lon="3.896">
        <ele>52</ele>
        <time>2016-04-17T15:50:38.952Z</time>
      </trkpt>
      <trkpt lat="43.56346" lon="3.896">
        <ele>52</ele>
        <time>2016-04-17T15:50:41.006Z</time>
      </trkpt>
      <trkpt lat="43.5635" lon="3.89605">
        <ele>53</ele>
        <time>2016-04-17T15:50:41.948Z</time>
      </trkpt>
      <trkpt lat="43.56355" lon="3.89606">
        <ele>53</ele>
        <time>2016-04-17T15:50:42.983Z</time>
      </trkpt>
      <trkpt lat="43.5636" lon="3.89608">
        <ele>52</ele>
        <time>2016-04-17T15:50:43.950Z</time>
      </trkpt>
      <trkpt lat="43.56365" lon="3.89612">
        <ele>51</ele>
        <time>2016-04-17T15:50:44.981Z</time>
      </trkpt>
      <trkpt lat="43.56372" lon="3.89615">
        <ele>49</ele>
        <time>2016-04-17T15:50:45.950Z</time>
      </trkpt>
      <trkpt lat="43.56377" lon="3.89618">
        <ele>48</ele>
        <time>2016-04-17T15:50:46.973Z</time>
      </trkpt>
      <trkpt lat="43.56382" lon="3.89621">
        <ele>48</ele>
        <time>2016-04-17T15:50:47.947Z</time>
      </trkpt>
      <trkpt lat="43.56386" lon="3.89622">
        <ele>49</ele>
        <time>2016-04-17T15:50:49.103Z</time>
      </trkpt>
      <trkpt lat="43.56392" lon="3.89623">
        <ele>50</ele>
        <time>2016-04-17T15:50:49.954Z</time>
      </trkpt>
      <trkpt lat="43.564" lon="3.89625">
        <ele>52</ele>
        <time>2016-04-17T15:50:51.979Z</time>
      </trkpt>
      <trkpt lat="43.56404" lon="3.89627">
        <ele>52</ele>
        <time>2016-04-17T15:50:52.948Z</time>
      </trkpt>
      <trkpt lat="43.5641" lon="3.89629">
        <ele>52</ele>
        <time>2016-04-17T15:50:54.981Z</time>
      </trkpt>
      <trkpt lat="43.56414" lon="3.89628">
        <ele>50</ele>
        <time>2016-04-17T15:50:55.950Z</time>
      </trkpt>
      <trkpt lat="43.56422" lon="3.89632">
        <ele>50</ele>
        <time>2016-04-17T15:50:57.980Z</time>
      </trkpt>
      <trkpt lat="43.56427" lon="3.89634">
        <ele>50</ele>
        <time>2016-04-17T15:50:58.949Z</time>
      </trkpt>
      <trkpt lat="43.56431" lon="3.89635">
        <ele>51</ele>
        <time>2016-04-17T15:50:59.972Z</time>
      </trkpt>
      <trkpt lat="43.56437" lon="3.89639">
        <ele>48</ele>
        <time>2016-04-17T15:51:00.949Z</time>
      </trkpt>
      <trkpt lat="43.56445" lon="3.89642">
        <ele>48</ele>
        <time>2016-04-17T15:51:02.977Z</time>
      </trkpt>
      <trkpt lat="43.56449" lon="3.89644">
        <ele>49</ele>
        <time>2016-04-17T15:51:03.949Z</time>
      </trkpt>
      <trkpt lat="43.56454" lon="3.89645">
        <ele>50</ele>
        <time>2016-04-17T15:51:04.979Z</time>
      </trkpt>
      <trkpt lat="43.56459" lon="3.89645">
        <ele>52</ele>
        <time>2016-04-17T15:51:05.950Z</time>
      </trkpt>
      <trkpt lat="43.56463" lon="3.89646">
        <ele>54</ele>
        <time>2016-04-17T15:51:06.979Z</time>
      </trkpt>
      <trkpt lat="43.56469" lon="3.89648">
        <ele>54</ele>
        <time>2016-04-17T15:51:07.948Z</time>
      </trkpt>
      <trkpt lat="43.56477" lon="3.8965">
        <ele>52</ele>
        <time>2016-04-17T15:51:09.979Z</time>
      </trkpt>
      <trkpt lat="43.56481" lon="3.89654">
        <ele>52</ele>
        <time>2016-04-17T15:51:10.949Z</time>
      </trkpt>
      <trkpt lat="43.56489" lon="3.89658">
        <ele>48</ele>
        <time>2016-04-17T15:51:14.117Z</time>
      </trkpt>
      <trkpt lat="43.56492" lon="3.89657">
        <ele>48</ele>
        <time>2016-04-17T15:51:14.950Z</time>
      </trkpt>
      <trkpt lat="43.56499" lon="3.89658">
        <ele>48</ele>
        <time>2016-04-17T15:51:16.981Z</time>
      </trkpt>
      <trkpt lat="43.56504" lon="3.8966">
        <ele>48</ele>
        <time>2016-04-17T15:51:17.950Z</time>
      </trkpt>
      <trkpt lat="43.56513" lon="3.89661">
        <ele>49</ele>
        <time>2016-04-17T15:51:19.978Z</time>
      </trkpt>
      <trkpt lat="43.56517" lon="3.8966">
        <ele>50</ele>
        <time>2016-04-17T15:51:20.949Z</time>
      </trkpt>
      <trkpt lat="43.56523" lon="3.89659">
        <ele>51</ele>
        <time>2016-04-17T15:51:22.971Z</time>
      </trkpt>
      <trkpt lat="43.56527" lon="3.8966">
        <ele>51</ele>
        <time>2016-04-17T15:51:23.949Z</time>
      </trkpt>
      <trkpt lat="43.5653" lon="3.89661">
        <ele>51</ele>
        <time>2016-04-17T15:51:24.978Z</time>
      </trkpt>
      <trkpt lat="43.56535" lon="3.89666">
        <ele>50</ele>
        <time>2016-04-17T15:51:25.950Z</time>
      </trkpt>
      <trkpt lat="43.56538" lon="3.89668">
        <ele>50</ele>
        <time>2016-04-17T15:51:26.979Z</time>
      </trkpt>
      <trkpt lat="43.56544" lon="3.89669">
        <ele>50</ele>
        <time>2016-04-17T15:51:27.950Z</time>
      </trkpt>
      <trkpt lat="43.56551" lon="3.89669">
        <ele>50</ele>
        <time>2016-04-17T15:51:29.981Z</time>
      </trkpt>
      <trkpt lat="43.56556" lon="3.89672">
        <ele>52</ele>
        <time>2016-04-17T15:51:30.949Z</time>
      </trkpt>
      <trkpt lat="43.56563" lon="3.89676">
        <ele>52</ele>
        <time>2016-04-17T15:51:32.977Z</time>
      </trkpt>
      <trkpt lat="43.56568" lon="3.89678">
        <ele>52</ele>
        <time>2016-04-17T15:51:33.950Z</time>
      </trkpt>
      <trkpt lat="43.56574" lon="3.89681">
        <ele>51</ele>
        <time>2016-04-17T15:51:34.982Z</time>
      </trkpt>
      <trkpt lat="43.56578" lon="3.89682">
        <ele>50</ele>
        <time>2016-04-17T15:51:35.949Z</time>
      </trkpt>
      <trkpt lat="43.56584" lon="3.89686">
        <ele>49</ele>
        <time>2016-04-17T15:51:37.980Z</time>
      </trkpt>
      <trkpt lat="43.56587" lon="3.89687">
        <ele>49</ele>
        <time>2016-04-17T15:51:38.950Z</time>
      </trkpt>
      <trkpt lat="43.56594" lon="3.8969">
        <ele>48</ele>
        <time>2016-04-17T15:51:40.982Z</time>
      </trkpt>
      <trkpt lat="43.56598" lon="3.89693">
        <ele>48</ele>
        <time>2016-04-17T15:51:41.951Z</time>
      </trkpt>
      <trkpt lat="43.56605" lon="3.89697">
        <ele>49</ele>
        <time>2016-04-17T15:51:43.980Z</time>
      </trkpt>
      <trkpt lat="43.56609" lon="3.89699">
        <ele>48</ele>
        <time>2016-04-17T15:51:44.948Z</time>
      </trkpt>
      <trkpt lat="43.56617" lon="3.89703">
        <ele>47</ele>
        <time>2016-04-17T15:51:46.982Z</time>
      </trkpt>
      <trkpt lat="43.5662" lon="3.89704">
        <ele>47</ele>
        <time>2016-04-17T15:51:47.949Z</time>
      </trkpt>
      <trkpt lat="43.56627" lon="3.89707">
        <ele>46</ele>
        <time>2016-04-17T15:51:49.980Z</time>
      </trkpt>
      <trkpt lat="43.5663" lon="3.89708">
        <ele>46</ele>
        <time>2016-04-17T15:51:50.949Z</time>
      </trkpt>
      <trkpt lat="43.56638" lon="3.8971">
        <ele>46</ele>
        <time>2016-04-17T15:51:52.977Z</time>
      </trkpt>
      <trkpt lat="43.56642" lon="3.89712">
        <ele>47</ele>
        <time>2016-04-17T15:51:53.950Z</time>
      </trkpt>
      <trkpt lat="43.5665" lon="3.89715">
        <ele>47</ele>
        <time>2016-04-17T15:51:55.984Z</time>
      </trkpt>
      <trkpt lat="43.56654" lon="3.89718">
        <ele>47</ele>
        <time>2016-04-17T15:51:56.949Z</time>
      </trkpt>
      <trkpt lat="43.56661" lon="3.89719">
        <ele>46</ele>
        <time>2016-04-17T15:51:58.979Z</time>
      </trkpt>
      <trkpt lat="43.56664" lon="3.89719">
        <ele>46</ele>
        <time>2016-04-17T15:51:59.950Z</time>
      </trkpt>
      <trkpt lat="43.56672" lon="3.8972">
        <ele>44</ele>
        <time>2016-04-17T15:52:01.986Z</time>
      </trkpt>
      <trkpt lat="43.56676" lon="3.89721">
        <ele>44</ele>
        <time>2016-04-17T15:52:03.097Z</time>
      </trkpt>
      <trkpt lat="43.56683" lon="3.89723">
        <ele>44</ele>
        <time>2016-04-17T15:52:04.984Z</time>
      </trkpt>
      <trkpt lat="43.56687" lon="3.89724">
        <ele>44</ele>
        <time>2016-04-17T15:52:05.948Z</time>
      </trkpt>
      <trkpt lat="43.56696" lon="3.89725">
        <ele>44</ele>
        <time>2016-04-17T15:52:07.980Z</time>
      </trkpt>
      <trkpt lat="43.567" lon="3.89725">
        <ele>44</ele>
        <time>2016-04-17T15:52:08.951Z</time>
      </trkpt>
      <trkpt lat="43.56707" lon="3.89725">
        <ele>43</ele>
        <time>2016-04-17T15:52:10.978Z</time>
      </trkpt>
      <trkpt lat="43.56712" lon="3.89725">
        <ele>44</ele>
        <time>2016-04-17T15:52:11.950Z</time>
      </trkpt>
      <trkpt lat="43.5672" lon="3.89725">
        <ele>44</ele>
        <time>2016-04-17T15:52:13.978Z</time>
      </trkpt>
      <trkpt lat="43.56723" lon="3.89725">
        <ele>43</ele>
        <time>2016-04-17T15:52:15.084Z</time>
      </trkpt>
      <trkpt lat="43.56729" lon="3.89725">
        <ele>40</ele>
        <time>2016-04-17T15:52:16.978Z</time>
      </trkpt>
      <trkpt lat="43.56733" lon="3.89725">
        <ele>41</ele>
        <time>2016-04-17T15:52:17.948Z</time>
      </trkpt>
      <trkpt lat="43.56739" lon="3.89726">
        <ele>41</ele>
        <time>2016-04-17T15:52:19.975Z</time>
      </trkpt>
      <trkpt lat="43.56743" lon="3.89727">
        <ele>40</ele>
        <time>2016-04-17T15:52:20.949Z</time>
      </trkpt>
      <trkpt lat="43.56748" lon="3.89729">
        <ele>40</ele>
        <time>2016-04-17T15:52:21.977Z</time>
      </trkpt>
      <trkpt lat="43.56752" lon="3.8973">
        <ele>40</ele>
        <time>2016-04-17T15:52:22.949Z</time>
      </trkpt>
      <trkpt lat="43.56757" lon="3.89731">
        <ele>41</ele>
        <time>2016-04-17T15:52:23.979Z</time>
      </trkpt>
      <trkpt lat="43.56762" lon="3.89733">
        <ele>42</ele>
        <time>2016-04-17T15:52:24.950Z</time>
      </trkpt>
      <trkpt lat="43.56767" lon="3.89733">
        <ele>42</ele>
        <time>2016-04-17T15:52:25.979Z</time>
      </trkpt>
      <trkpt lat="43.56771" lon="3.89735">
        <ele>42</ele>
        <time>2016-04-17T15:52:26.950Z</time>
      </trkpt>
      <trkpt lat="43.56776" lon="3.89736">
        <ele>41</ele>
        <time>2016-04-17T15:52:27.976Z</time>
      </trkpt>
      <trkpt lat="43.5678" lon="3.89737">
        <ele>42</ele>
        <time>2016-04-17T15:52:28.949Z</time>
      </trkpt>
      <trkpt lat="43.56786" lon="3.89735">
        <ele>41</ele>
        <time>2016-04-17T15:52:30.042Z</time>
      </trkpt>
      <trkpt lat="43.5679" lon="3.89735">
        <ele>42</ele>
        <time>2016-04-17T15:52:30.950Z</time>
      </trkpt>
      <trkpt lat="43.56797" lon="3.89734">
        <ele>41</ele>
        <time>2016-04-17T15:52:32.980Z</time>
      </trkpt>
      <trkpt lat="43.56802" lon="3.89734">
        <ele>41</ele>
        <time>2016-04-17T15:52:33.949Z</time>
      </trkpt>
      <trkpt lat="43.56809" lon="3.89736">
        <ele>39</ele>
        <time>2016-04-17T15:52:35.977Z</time>
      </trkpt>
      <trkpt lat="43.56812" lon="3.89737">
        <ele>38</ele>
        <time>2016-04-17T15:52:36.948Z</time>
      </trkpt>
      <trkpt lat="43.56819" lon="3.8974">
        <ele>40</ele>
        <time>2016-04-17T15:52:38.976Z</time>
      </trkpt>
      <trkpt lat="43.56823" lon="3.89741">
        <ele>40</ele>
        <time>2016-04-17T15:52:39.949Z</time>
      </trkpt>
      <trkpt lat="43.56827" lon="3.89743">
        <ele>40</ele>
        <time>2016-04-17T15:52:40.978Z</time>
      </trkpt>
      <trkpt lat="43.56832" lon="3.89744">
        <ele>40</ele>
        <time>2016-04-17T15:52:41.949Z</time>
      </trkpt>
      <trkpt lat="43.56838" lon="3.89747">
        <ele>39</ele>
        <time>2016-04-17T15:52:43.979Z</time>
      </trkpt>
      <trkpt lat="43.56841" lon="3.89748">
        <ele>40</ele>
        <time>2016-04-17T15:52:44.949Z</time>
      </trkpt>
      <trkpt lat="43.56847" lon="3.89748">
        <ele>42</ele>
        <time>2016-04-17T15:52:46.979Z</time>
      </trkpt>
      <trkpt lat="43.56851" lon="3.89748">
        <ele>42</ele>
        <time>2016-04-17T15:52:47.977Z</time>
      </trkpt>
      <trkpt lat="43.56859" lon="3.89749">
        <ele>43</ele>
        <time>2016-04-17T15:52:49.975Z</time>
      </trkpt>
      <trkpt lat="43.56864" lon="3.89751">
        <ele>43</ele>
        <time>2016-04-17T15:52:50.947Z</time>
      </trkpt>
      <trkpt lat="43.56868" lon="3.89754">
        <ele>43</ele>
        <time>2016-04-17T15:52:51.974Z</time>
      </trkpt>
      <trkpt lat="43.56873" lon="3.89754">
        <ele>43</ele>
        <time>2016-04-17T15:52:52.947Z</time>
      </trkpt>
      <trkpt lat="43.56881" lon="3.89755">
        <ele>44</ele>
        <time>2016-04-17T15:52:54.968Z</time>
      </trkpt>
      <trkpt lat="43.56885" lon="3.89757">
        <ele>46</ele>
        <time>2016-04-17T15:52:55.947Z</time>
      </trkpt>
      <trkpt lat="43.56889" lon="3.89759">
        <ele>46</ele>
        <time>2016-04-17T15:52:56.980Z</time>
      </trkpt>
      <trkpt lat="43.56894" lon="3.8976">
        <ele>48</ele>
        <time>2016-04-17T15:52:57.949Z</time>
      </trkpt>
      <trkpt lat="43.56897" lon="3.89762">
        <ele>46</ele>
        <time>2016-04-17T15:52:58.980Z</time>
      </trkpt>
      <trkpt lat="43.56902" lon="3.89765">
        <ele>46</ele>
        <time>2016-04-17T15:52:59.948Z</time>
      </trkpt>
      <trkpt lat="43.5691" lon="3.89767">
        <ele>48</ele>
        <time>2016-04-17T15:53:01.982Z</time>
      </trkpt>
      <trkpt lat="43.56914" lon="3.89768">
        <ele>46</ele>
        <time>2016-04-17T15:53:02.951Z</time>
      </trkpt>
      <trkpt lat="43.56922" lon="3.89772">
        <ele>43</ele>
        <time>2016-04-17T15:53:04.979Z</time>
      </trkpt>
      <trkpt lat="43.56925" lon="3.89773">
        <ele>43</ele>
        <time>2016-04-17T15:53:05.947Z</time>
      </trkpt>
      <trkpt lat="43.56934" lon="3.89774">
        <ele>44</ele>
        <time>2016-04-17T15:53:07.975Z</time>
      </trkpt>
      <trkpt lat="43.56938" lon="3.89776">
        <ele>44</ele>
        <time>2016-04-17T15:53:08.949Z</time>
      </trkpt>
      <trkpt lat="43.56945" lon="3.8978">
        <ele>43</ele>
        <time>2016-04-17T15:53:10.980Z</time>
      </trkpt>
      <trkpt lat="43.5695" lon="3.89782">
        <ele>44</ele>
        <time>2016-04-17T15:53:11.948Z</time>
      </trkpt>
      <trkpt lat="43.56957" lon="3.89781">
        <ele>47</ele>
        <time>2016-04-17T15:53:13.998Z</time>
      </trkpt>
      <trkpt lat="43.56961" lon="3.89782">
        <ele>47</ele>
        <time>2016-04-17T15:53:14.948Z</time>
      </trkpt>
      <trkpt lat="43.56967" lon="3.89783">
        <ele>47</ele>
        <time>2016-04-17T15:53:16.980Z</time>
      </trkpt>
      <trkpt lat="43.56971" lon="3.89784">
        <ele>47</ele>
        <time>2016-04-17T15:53:17.949Z</time>
      </trkpt>
      <trkpt lat="43.56979" lon="3.89785">
        <ele>48</ele>
        <time>2016-04-17T15:53:20.026Z</time>
      </trkpt>
      <trkpt lat="43.56982" lon="3.89785">
        <ele>48</ele>
        <time>2016-04-17T15:53:20.948Z</time>
      </trkpt>
      <trkpt lat="43.56988" lon="3.89786">
        <ele>46</ele>
        <time>2016-04-17T15:53:22.979Z</time>
      </trkpt>
      <trkpt lat="43.56991" lon="3.89787">
        <ele>47</ele>
        <time>2016-04-17T15:53:23.949Z</time>
      </trkpt>
      <trkpt lat="43.57" lon="3.89788">
        <ele>45</ele>
        <time>2016-04-17T15:53:26.977Z</time>
      </trkpt>
      <trkpt lat="43.57004" lon="3.8979">
        <ele>45</ele>
        <time>2016-04-17T15:53:27.950Z</time>
      </trkpt>
      <trkpt lat="43.57012" lon="3.89793">
        <ele>46</ele>
        <time>2016-04-17T15:53:30.002Z</time>
      </trkpt>
      <trkpt lat="43.57015" lon="3.89795">
        <ele>44</ele>
        <time>2016-04-17T15:53:30.948Z</time>
      </trkpt>
      <trkpt lat="43.57023" lon="3.89798">
        <ele>43</ele>
        <time>2016-04-17T15:53:32.977Z</time>
      </trkpt>
      <trkpt lat="43.57028" lon="3.89801">
        <ele>42</ele>
        <time>2016-04-17T15:53:33.948Z</time>
      </trkpt>
      <trkpt lat="43.57033" lon="3.89806">
        <ele>39</ele>
        <time>2016-04-17T15:53:34.980Z</time>
      </trkpt>
      <trkpt lat="43.57037" lon="3.89807">
        <ele>40</ele>
        <time>2016-04-17T15:53:35.948Z</time>
      </trkpt>
      <trkpt lat="43.57044" lon="3.89812">
        <ele>41</ele>
        <time>2016-04-17T15:53:37.976Z</time>
      </trkpt>
      <trkpt lat="43.57046" lon="3.89814">
        <ele>42</ele>
        <time>2016-04-17T15:53:38.948Z</time>
      </trkpt>
      <trkpt lat="43.57054" lon="3.89812">
        <ele>46</ele>
        <time>2016-04-17T15:53:44.979Z</time>
      </trkpt>
      <trkpt lat="43.57055" lon="3.89813">
        <ele>47</ele>
        <time>2016-04-17T15:53:45.974Z</time>
      </trkpt>
      <trkpt lat="43.57064" lon="3.89814">
        <ele>47</ele>
        <time>2016-04-17T15:53:56.114Z</time>
      </trkpt>
      <trkpt lat="43.57065" lon="3.89813">
        <ele>48</ele>
        <time>2016-04-17T15:53:56.949Z</time>
      </trkpt>
      <trkpt lat="43.57072" lon="3.89807">
        <ele>51</ele>
        <time>2016-04-17T15:54:07.984Z</time>
      </trkpt>
      <trkpt lat="43.57073" lon="3.89807">
        <ele>52</ele>
        <time>2016-04-17T15:54:08.950Z</time>
      </trkpt>
      <trkpt lat="43.57081" lon="3.89806">
        <ele>52</ele>
        <time>2016-04-17T15:54:17.975Z</time>
      </trkpt>
      <trkpt lat="43.57085" lon="3.89806">
        <ele>51</ele>
        <time>2016-04-17T15:54:18.950Z</time>
      </trkpt>
      <trkpt lat="43.57091" lon="3.89804">
        <ele>49</ele>
        <time>2016-04-17T15:54:20.977Z</time>
      </trkpt>
      <trkpt lat="43.57094" lon="3.89803">
        <ele>50</ele>
        <time>2016-04-17T15:54:21.949Z</time>
      </trkpt>
      <trkpt lat="43.57101" lon="3.89804">
        <ele>50</ele>
        <time>2016-04-17T15:54:23.972Z</time>
      </trkpt>
      <trkpt lat="43.57103" lon="3.89803">
        <ele>49</ele>
        <time>2016-04-17T15:54:24.950Z</time>
      </trkpt>
      <trkpt lat="43.5711" lon="3.89805">
        <ele>49</ele>
        <time>2016-04-17T15:54:26.977Z</time>
      </trkpt>
      <trkpt lat="43.57113" lon="3.89804">
        <ele>50</ele>
        <time>2016-04-17T15:54:27.947Z</time>
      </trkpt>
      <trkpt lat="43.57121" lon="3.89805">
        <ele>49</ele>
        <time>2016-04-17T15:54:29.980Z</time>
      </trkpt>
      <trkpt lat="43.57124" lon="3.89804">
        <ele>50</ele>
        <time>2016-04-17T15:54:30.955Z</time>
      </trkpt>
      <trkpt lat="43.57131" lon="3.89807">
        <ele>51</ele>
        <time>2016-04-17T15:54:32.978Z</time>
      </trkpt>
      <trkpt lat="43.57135" lon="3.89808">
        <ele>52</ele>
        <time>2016-04-17T15:54:33.951Z</time>
      </trkpt>
      <trkpt lat="43.57144" lon="3.89811">
        <ele>52</ele>
        <time>2016-04-17T15:54:36.977Z</time>
      </trkpt>
      <trkpt lat="43.57146" lon="3.89812">
        <ele>53</ele>
        <time>2016-04-17T15:54:37.948Z</time>
      </trkpt>
      <trkpt lat="43.57152" lon="3.89821">
        <ele>52</ele>
        <time>2016-04-17T15:54:40.974Z</time>
      </trkpt>
      <trkpt lat="43.57154" lon="3.89824">
        <ele>52</ele>
        <time>2016-04-17T15:54:41.949Z</time>
      </trkpt>
      <trkpt lat="43.57158" lon="3.89834">
        <ele>51</ele>
        <time>2016-04-17T15:54:44.970Z</time>
      </trkpt>
      <trkpt lat="43.57158" lon="3.89836">
        <ele>51</ele>
        <time>2016-04-17T15:54:45.948Z</time>
      </trkpt>
      <trkpt lat="43.57164" lon="3.89829">
        <ele>51</ele>
        <time>2016-04-17T15:54:47.976Z</time>
      </trkpt>
      <trkpt lat="43.57166" lon="3.89827">
        <ele>52</ele>
        <time>2016-04-17T15:54:48.950Z</time>
      </trkpt>
      <trkpt lat="43.57171" lon="3.89818">
        <ele>51</ele>
        <time>2016-04-17T15:54:51.979Z</time>
      </trkpt>
      <trkpt lat="43.57173" lon="3.89815">
        <ele>52</ele>
        <time>2016-04-17T15:54:52.952Z</time>
      </trkpt>
      <trkpt lat="43.57179" lon="3.8981">
        <ele>48</ele>
        <time>2016-04-17T15:54:57.978Z</time>
      </trkpt>
      <trkpt lat="43.57181" lon="3.89809">
        <ele>49</ele>
        <time>2016-04-17T15:54:58.951Z</time>
      </trkpt>
      <trkpt lat="43.57186" lon="3.89804">
        <ele>50</ele>
        <time>2016-04-17T15:55:00.967Z</time>
      </trkpt>
      <trkpt lat="43.57189" lon="3.89801">
        <ele>49</ele>
        <time>2016-04-17T15:55:01.948Z</time>
      </trkpt>
      <trkpt lat="43.57196" lon="3.89796">
        <ele>46</ele>
        <time>2016-04-17T15:55:03.977Z</time>
      </trkpt>
      <trkpt lat="43.57199" lon="3.89794">
        <ele>46</ele>
        <time>2016-04-17T15:55:04.949Z</time>
      </trkpt>
      <trkpt lat="43.57203" lon="3.89789">
        <ele>46</ele>
        <time>2016-04-17T15:55:06.983Z</time>
      </trkpt>
      <trkpt lat="43.57206" lon="3.89787">
        <ele>46</ele>
        <time>2016-04-17T15:55:07.949Z</time>
      </trkpt>
      <trkpt lat="43.57213" lon="3.89782">
        <ele>45</ele>
        <time>2016-04-17T15:55:10.015Z</time>
      </trkpt>
      <trkpt lat="43.57216" lon="3.8978">
        <ele>44</ele>
        <time>2016-04-17T15:55:10.944Z</time>
      </trkpt>
      <trkpt lat="43.57224" lon="3.89775">
        <ele>45</ele>
        <time>2016-04-17T15:55:13.970Z</time>
      </trkpt>
      <trkpt lat="43.57226" lon="3.89773">
        <ele>49</ele>
        <time>2016-04-17T15:55:14.956Z</time>
      </trkpt>
      <trkpt lat="43.57233" lon="3.89772">
        <ele>49</ele>
        <time>2016-04-17T15:55:17.981Z</time>
      </trkpt>
      <trkpt lat="43.57237" lon="3.89773">
        <ele>49</ele>
        <time>2016-04-17T15:55:18.949Z</time>
      </trkpt>
      <trkpt lat="43.57245" lon="3.89771">
        <ele>49</ele>
        <time>2016-04-17T15:55:21.971Z</time>
      </trkpt>
      <trkpt lat="43.57248" lon="3.89771">
        <ele>49</ele>
        <time>2016-04-17T15:55:22.950Z</time>
      </trkpt>
      <trkpt lat="43.57253" lon="3.89768">
        <ele>49</ele>
        <time>2016-04-17T15:55:24.970Z</time>
      </trkpt>
      <trkpt lat="43.57257" lon="3.89767">
        <ele>49</ele>
        <time>2016-04-17T15:55:25.949Z</time>
      </trkpt>
      <trkpt lat="43.57265" lon="3.89771">
        <ele>52</ele>
        <time>2016-04-17T15:55:27.979Z</time>
      </trkpt>
      <trkpt lat="43.57268" lon="3.8977">
        <ele>51</ele>
        <time>2016-04-17T15:55:28.950Z</time>
      </trkpt>
      <trkpt lat="43.57276" lon="3.89773">
        <ele>48</ele>
        <time>2016-04-17T15:55:31.975Z</time>
      </trkpt>
      <trkpt lat="43.5728" lon="3.89773">
        <ele>49</ele>
        <time>2016-04-17T15:55:32.948Z</time>
      </trkpt>
      <trkpt lat="43.57288" lon="3.89774">
        <ele>50</ele>
        <time>2016-04-17T15:55:35.980Z</time>
      </trkpt>
      <trkpt lat="43.57292" lon="3.89773">
        <ele>51</ele>
        <time>2016-04-17T15:55:36.975Z</time>
      </trkpt>
      <trkpt lat="43.57299" lon="3.89774">
        <ele>50</ele>
        <time>2016-04-17T15:55:38.976Z</time>
      </trkpt>
      <trkpt lat="43.57302" lon="3.89774">
        <ele>48</ele>
        <time>2016-04-17T15:55:39.949Z</time>
      </trkpt>
      <trkpt lat="43.5731" lon="3.89773">
        <ele>49</ele>
        <time>2016-04-17T15:55:41.980Z</time>
      </trkpt>
      <trkpt lat="43.57314" lon="3.89773">
        <ele>50</ele>
        <time>2016-04-17T15:55:42.947Z</time>
      </trkpt>
      <trkpt lat="43.57321" lon="3.89775">
        <ele>51</ele>
        <time>2016-04-17T15:55:44.980Z</time>
      </trkpt>
      <trkpt lat="43.57324" lon="3.89775">
        <ele>51</ele>
        <time>2016-04-17T15:55:45.948Z</time>
      </trkpt>
      <trkpt lat="43.57331" lon="3.89777">
        <ele>52</ele>
        <time>2016-04-17T15:55:47.983Z</time>
      </trkpt>
      <trkpt lat="43.57334" lon="3.89778">
        <ele>53</ele>
        <time>2016-04-17T15:55:48.949Z</time>
      </trkpt>
      <trkpt lat="43.57342" lon="3.89779">
        <ele>53</ele>
        <time>2016-04-17T15:55:50.979Z</time>
      </trkpt>
      <trkpt lat="43.57346" lon="3.89781">
        <ele>54</ele>
        <time>2016-04-17T15:55:51.950Z</time>
      </trkpt>
      <trkpt lat="43.57353" lon="3.89782">
        <ele>53</ele>
        <time>2016-04-17T15:55:53.979Z</time>
      </trkpt>
      <trkpt lat="43.57356" lon="3.89783">
        <ele>52</ele>
        <time>2016-04-17T15:55:54.948Z</time>
      </trkpt>
      <trkpt lat="43.57362" lon="3.89787">
        <ele>51</ele>
        <time>2016-04-17T15:55:56.979Z</time>
      </trkpt>
      <trkpt lat="43.57365" lon="3.89792">
        <ele>50</ele>
        <time>2016-04-17T15:55:57.975Z</time>
      </trkpt>
      <trkpt lat="43.57372" lon="3.89794">
        <ele>50</ele>
        <time>2016-04-17T15:55:59.980Z</time>
      </trkpt>
      <trkpt lat="43.57376" lon="3.89796">
        <ele>49</ele>
        <time>2016-04-17T15:56:00.946Z</time>
      </trkpt>
      <trkpt lat="43.57381" lon="3.89797">
        <ele>49</ele>
        <time>2016-04-17T15:56:01.979Z</time>
      </trkpt>
      <trkpt lat="43.57386" lon="3.89798">
        <ele>49</ele>
        <time>2016-04-17T15:56:02.949Z</time>
      </trkpt>
      <trkpt lat="43.57393" lon="3.89799">
        <ele>49</ele>
        <time>2016-04-17T15:56:04.980Z</time>
      </trkpt>
      <trkpt lat="43.57396" lon="3.898">
        <ele>49</ele>
        <time>2016-04-17T15:56:06.083Z</time>
      </trkpt>
      <trkpt lat="43.57403" lon="3.89804">
        <ele>48</ele>
        <time>2016-04-17T15:56:07.979Z</time>
      </trkpt>
      <trkpt lat="43.57406" lon="3.89806">
        <ele>48</ele>
        <time>2016-04-17T15:56:08.949Z</time>
      </trkpt>
      <trkpt lat="43.5741" lon="3.89809">
        <ele>47</ele>
        <time>2016-04-17T15:56:09.979Z</time>
      </trkpt>
      <trkpt lat="43.57414" lon="3.89813">
        <ele>48</ele>
        <time>2016-04-17T15:56:10.949Z</time>
      </trkpt>
      <trkpt lat="43.5742" lon="3.8982">
        <ele>48</ele>
        <time>2016-04-17T15:56:12.977Z</time>
      </trkpt>
      <trkpt lat="43.57424" lon="3.89826">
        <ele>50</ele>
        <time>2016-04-17T15:56:13.975Z</time>
      </trkpt>
      <trkpt lat="43.57431" lon="3.89832">
        <ele>49</ele>
        <time>2016-04-17T15:56:15.977Z</time>
      </trkpt>
      <trkpt lat="43.57433" lon="3.89835">
        <ele>49</ele>
        <time>2016-04-17T15:56:16.950Z</time>
      </trkpt>
      <trkpt lat="43.57439" lon="3.89841">
        <ele>50</ele>
        <time>2016-04-17T15:56:18.974Z</time>
      </trkpt>
      <trkpt lat="43.57441" lon="3.89844">
        <ele>50</ele>
        <time>2016-04-17T15:56:19.952Z</time>
      </trkpt>
      <trkpt lat="43.57446" lon="3.89851">
        <ele>52</ele>
        <time>2016-04-17T15:56:21.984Z</time>
      </trkpt>
      <trkpt lat="43.57449" lon="3.89855">
        <ele>52</ele>
        <time>2016-04-17T15:56:22.949Z</time>
      </trkpt>
      <trkpt lat="43.57456" lon="3.89861">
        <ele>52</ele>
        <time>2016-04-17T15:56:25.977Z</time>
      </trkpt>
      <trkpt lat="43.57458" lon="3.89864">
        <ele>52</ele>
        <time>2016-04-17T15:56:26.944Z</time>
      </trkpt>
      <trkpt lat="43.57463" lon="3.89872">
        <ele>55</ele>
        <time>2016-04-17T15:56:29.978Z</time>
      </trkpt>
      <trkpt lat="43.57464" lon="3.89876">
        <ele>55</ele>
        <time>2016-04-17T15:56:30.948Z</time>
      </trkpt>
      <trkpt lat="43.57466" lon="3.89886">
        <ele>57</ele>
        <time>2016-04-17T15:56:33.980Z</time>
      </trkpt>
      <trkpt lat="43.57466" lon="3.89888">
        <ele>57</ele>
        <time>2016-04-17T15:56:34.948Z</time>
      </trkpt>
      <trkpt lat="43.57463" lon="3.89895">
        <ele>56</ele>
        <time>2016-04-17T15:56:36.967Z</time>
      </trkpt>
      <trkpt lat="43.5746" lon="3.89899">
        <ele>57</ele>
        <time>2016-04-17T15:56:37.948Z</time>
      </trkpt>
      <trkpt lat="43.57455" lon="3.89906">
        <ele>58</ele>
        <time>2016-04-17T15:56:39.982Z</time>
      </trkpt>
      <trkpt lat="43.57452" lon="3.89908">
        <ele>56</ele>
        <time>2016-04-17T15:56:40.980Z</time>
      </trkpt>
      <trkpt lat="43.57447" lon="3.89911">
        <ele>54</ele>
        <time>2016-04-17T15:56:41.982Z</time>
      </trkpt>
      <trkpt lat="43.57443" lon="3.89914">
        <ele>53</ele>
        <time>2016-04-17T15:56:42.948Z</time>
      </trkpt>
      <trkpt lat="43.57441" lon="3.89925">
        <ele>52</ele>
        <time>2016-04-17T15:56:45.980Z</time>
      </trkpt>
      <trkpt lat="43.57445" lon="3.89929">
        <ele>50</ele>
        <time>2016-04-17T15:56:46.948Z</time>
      </trkpt>
      <trkpt lat="43.57446" lon="3.89938">
        <ele>51</ele>
        <time>2016-04-17T15:56:47.982Z</time>
      </trkpt>
      <trkpt lat="43.57448" lon="3.89942">
        <ele>51</ele>
        <time>2016-04-17T15:56:48.949Z</time>
      </trkpt>
      <trkpt lat="43.57449" lon="3.89945">
        <ele>51</ele>
        <time>2016-04-17T15:56:49.969Z</time>
      </trkpt>
      <trkpt lat="43.57457" lon="3.8994">
        <ele>53</ele>
        <time>2016-04-17T15:56:50.950Z</time>
      </trkpt>
      <trkpt lat="43.57463" lon="3.89947">
        <ele>55</ele>
        <time>2016-04-17T15:56:52.979Z</time>
      </trkpt>
      <trkpt lat="43.57465" lon="3.8995">
        <ele>56</ele>
        <time>2016-04-17T15:56:54.085Z</time>
      </trkpt>
      <trkpt lat="43.5747" lon="3.89957">
        <ele>57</ele>
        <time>2016-04-17T15:56:55.976Z</time>
      </trkpt>
      <trkpt lat="43.57473" lon="3.8996">
        <ele>57</ele>
        <time>2016-04-17T15:56:56.944Z</time>
      </trkpt>
      <trkpt lat="43.57481" lon="3.89967">
        <ele>59</ele>
        <time>2016-04-17T15:56:59.978Z</time>
      </trkpt>
      <trkpt lat="43.5748" lon="3.8997">
        <ele>60</ele>
        <time>2016-04-17T15:57:00.948Z</time>
      </trkpt>
      <trkpt lat="43.57483" lon="3.89981">
        <ele>57</ele>
        <time>2016-04-17T15:57:04.972Z</time>
      </trkpt>
      <trkpt lat="43.57484" lon="3.89983">
        <ele>58</ele>
        <time>2016-04-17T15:57:05.951Z</time>
      </trkpt>
      <trkpt lat="43.5749" lon="3.8999">
        <ele>57</ele>
        <time>2016-04-17T15:57:11.973Z</time>
      </trkpt>
      <trkpt lat="43.57491" lon="3.89991">
        <ele>58</ele>
        <time>2016-04-17T15:57:12.950Z</time>
      </trkpt>
      <trkpt lat="43.57498" lon="3.89994">
        <ele>61</ele>
        <time>2016-04-17T15:57:16.974Z</time>
      </trkpt>
      <trkpt lat="43.575" lon="3.89995">
        <ele>62</ele>
        <time>2016-04-17T15:57:17.950Z</time>
      </trkpt>
      <trkpt lat="43.57507" lon="3.89997">
        <ele>61</ele>
        <time>2016-04-17T15:57:20.972Z</time>
      </trkpt>
      <trkpt lat="43.57509" lon="3.89999">
        <ele>62</ele>
        <time>2016-04-17T15:57:21.949Z</time>
      </trkpt>
      <trkpt lat="43.57516" lon="3.90006">
        <ele>63</ele>
        <time>2016-04-17T15:57:24.973Z</time>
      </trkpt>
      <trkpt lat="43.57518" lon="3.90008">
        <ele>63</ele>
        <time>2016-04-17T15:57:25.951Z</time>
      </trkpt>
      <trkpt lat="43.57526" lon="3.90009">
        <ele>63</ele>
        <time>2016-04-17T15:57:28.976Z</time>
      </trkpt>
      <trkpt lat="43.57528" lon="3.90008">
        <ele>63</ele>
        <time>2016-04-17T15:57:29.951Z</time>
      </trkpt>
      <trkpt lat="43.57536" lon="3.9001">
        <ele>64</ele>
        <time>2016-04-17T15:57:33.976Z</time>
      </trkpt>
      <trkpt lat="43.57536" lon="3.90012">
        <ele>64</ele>
        <time>2016-04-17T15:57:34.952Z</time>
      </trkpt>
      <trkpt lat="43.57537" lon="3.90023">
        <ele>65</ele>
        <time>2016-04-17T15:57:48.979Z</time>
      </trkpt>
      <trkpt lat="43.57538" lon="3.90024">
        <ele>66</ele>
        <time>2016-04-17T15:57:49.949Z</time>
      </trkpt>
      <trkpt lat="43.57546" lon="3.90022">
        <ele>64</ele>
        <time>2016-04-17T15:58:00.976Z</time>
      </trkpt>
      <trkpt lat="43.57549" lon="3.90021">
        <ele>66</ele>
        <time>2016-04-17T15:58:01.949Z</time>
      </trkpt>
      <trkpt lat="43.57555" lon="3.90029">
        <ele>64</ele>
        <time>2016-04-17T15:58:23.974Z</time>
      </trkpt>
      <trkpt lat="43.57555" lon="3.90029">
        <ele>63</ele>
        <time>2016-04-17T15:58:24.947Z</time>
      </trkpt>
      <trkpt lat="43.57555" lon="3.90029">
        <ele>63</ele>
        <time>2016-04-17T15:58:24.984Z</time>
      </trkpt>
      <trkpt lat="43.5756" lon="3.90037">
        <ele>62</ele>
        <time>2016-04-17T15:59:07.979Z</time>
      </trkpt>
      <trkpt lat="43.57559" lon="3.90037">
        <ele>62</ele>
        <time>2016-04-17T15:59:08.949Z</time>
      </trkpt>
      <trkpt lat="43.57556" lon="3.90035">
        <ele>61</ele>
        <time>2016-04-17T15:59:16.982Z</time>
      </trkpt>
      <trkpt lat="43.57556" lon="3.90036">
        <ele>61</ele>
        <time>2016-04-17T15:59:17.951Z</time>
      </trkpt>
      <trkpt lat="43.57552" lon="3.90035">
        <ele>60</ele>
        <time>2016-04-17T15:59:33.980Z</time>
      </trkpt>
      <trkpt lat="43.57551" lon="3.90034">
        <ele>61</ele>
        <time>2016-04-17T15:59:34.949Z</time>
      </trkpt>
      <trkpt lat="43.57552" lon="3.90032">
        <ele>67</ele>
        <time>2016-04-17T15:59:39.976Z</time>
      </trkpt>
      <trkpt lat="43.57552" lon="3.90031">
        <ele>67</ele>
        <time>2016-04-17T15:59:40.948Z</time>
      </trkpt>
      <trkpt lat="43.57552" lon="3.90031">
        <ele>67</ele>
        <time>2016-04-17T15:59:40.983Z</time>
      </trkpt>
      <trkpt lat="43.57552" lon="3.90032">
        <ele>67</ele>
        <time>2016-04-17T15:59:41.951Z</time>
      </trkpt>
      <trkpt lat="43.5755" lon="3.90032">
        <ele>68</ele>
        <time>2016-04-17T15:59:43.980Z</time>
      </trkpt>
      <trkpt lat="43.5755" lon="3.90032">
        <ele>68</ele>
        <time>2016-04-17T15:59:44.950Z</time>
      </trkpt>
      <trkpt lat="43.57551" lon="3.90031">
        <ele>68</ele>
        <time>2016-04-17T15:59:46.977Z</time>
      </trkpt>
      <trkpt lat="43.57551" lon="3.90031">
        <ele>68</ele>
        <time>2016-04-17T15:59:47.951Z</time>
      </trkpt>
      <trkpt lat="43.57547" lon="3.90031">
        <ele>66</ele>
        <time>2016-04-17T15:59:55.978Z</time>
      </trkpt>
      <trkpt lat="43.57546" lon="3.90031">
        <ele>67</ele>
        <time>2016-04-17T15:59:56.949Z</time>
      </trkpt>
      <trkpt lat="43.57548" lon="3.90028">
        <ele>65</ele>
        <time>2016-04-17T16:01:00.969Z</time>
      </trkpt>
      <trkpt lat="43.57548" lon="3.90029">
        <ele>64</ele>
        <time>2016-04-17T16:01:01.948Z</time>
      </trkpt>
      <trkpt lat="43.57547" lon="3.90028">
        <ele>62</ele>
        <time>2016-04-17T16:01:05.976Z</time>
      </trkpt>
      <trkpt lat="43.57545" lon="3.90031">
        <ele>59</ele>
        <time>2016-04-17T16:01:06.949Z</time>
      </trkpt>
      <trkpt lat="43.57544" lon="3.90031">
        <ele>59</ele>
        <time>2016-04-17T16:01:09.003Z</time>
      </trkpt>
      <trkpt lat="43.57543" lon="3.90031">
        <ele>59</ele>
        <time>2016-04-17T16:01:09.948Z</time>
      </trkpt>
      <trkpt lat="43.57541" lon="3.90027">
        <ele>61</ele>
        <time>2016-04-17T16:01:15.979Z</time>
      </trkpt>
      <trkpt lat="43.57541" lon="3.90027">
        <ele>60</ele>
        <time>2016-04-17T16:01:16.948Z</time>
      </trkpt>
      <trkpt lat="43.57541" lon="3.90027">
        <ele>60</ele>
        <time>2016-04-17T16:01:16.983Z</time>
      </trkpt>
      <trkpt lat="43.57541" lon="3.90027">
        <ele>61</ele>
        <time>2016-04-17T16:01:17.949Z</time>
      </trkpt>
      <trkpt lat="43.57534" lon="3.90028">
        <ele>62</ele>
        <time>2016-04-17T16:01:27.979Z</time>
      </trkpt>
      <trkpt lat="43.57531" lon="3.90029">
        <ele>60</ele>
        <time>2016-04-17T16:01:28.950Z</time>
      </trkpt>
      <trkpt lat="43.57523" lon="3.90026">
        <ele>61</ele>
        <time>2016-04-17T16:01:34.979Z</time>
      </trkpt>
      <trkpt lat="43.57521" lon="3.90025">
        <ele>61</ele>
        <time>2016-04-17T16:01:35.952Z</time>
      </trkpt>
      <trkpt lat="43.57516" lon="3.90023">
        <ele>65</ele>
        <time>2016-04-17T16:01:37.979Z</time>
      </trkpt>
      <trkpt lat="43.57512" lon="3.90023">
        <ele>66</ele>
        <time>2016-04-17T16:01:38.951Z</time>
      </trkpt>
      <trkpt lat="43.57507" lon="3.90014">
        <ele>67</ele>
        <time>2016-04-17T16:01:42.980Z</time>
      </trkpt>
      <trkpt lat="43.57505" lon="3.90013">
        <ele>66</ele>
        <time>2016-04-17T16:01:43.951Z</time>
      </trkpt>
      <trkpt lat="43.57497" lon="3.90009">
        <ele>63</ele>
        <time>2016-04-17T16:01:46.979Z</time>
      </trkpt>
      <trkpt lat="43.57495" lon="3.90007">
        <ele>65</ele>
        <time>2016-04-17T16:01:47.949Z</time>
      </trkpt>
      <trkpt lat="43.57488" lon="3.9">
        <ele>66</ele>
        <time>2016-04-17T16:01:50.968Z</time>
      </trkpt>
      <trkpt lat="43.57485" lon="3.89999">
        <ele>65</ele>
        <time>2016-04-17T16:01:51.948Z</time>
      </trkpt>
      <trkpt lat="43.57478" lon="3.89994">
        <ele>64</ele>
        <time>2016-04-17T16:01:55.974Z</time>
      </trkpt>
      <trkpt lat="43.57476" lon="3.89995">
        <ele>63</ele>
        <time>2016-04-17T16:01:56.953Z</time>
      </trkpt>
      <trkpt lat="43.57479" lon="3.90004">
        <ele>58</ele>
        <time>2016-04-17T16:01:59.974Z</time>
      </trkpt>
      <trkpt lat="43.57481" lon="3.90007">
        <ele>59</ele>
        <time>2016-04-17T16:02:00.951Z</time>
      </trkpt>
      <trkpt lat="43.57485" lon="3.90014">
        <ele>58</ele>
        <time>2016-04-17T16:02:03.974Z</time>
      </trkpt>
      <trkpt lat="43.57487" lon="3.90016">
        <ele>58</ele>
        <time>2016-04-17T16:02:04.952Z</time>
      </trkpt>
      <trkpt lat="43.57493" lon="3.90022">
        <ele>59</ele>
        <time>2016-04-17T16:02:07.977Z</time>
      </trkpt>
      <trkpt lat="43.57494" lon="3.90026">
        <ele>58</ele>
        <time>2016-04-17T16:02:08.953Z</time>
      </trkpt>
      <trkpt lat="43.575" lon="3.90029">
        <ele>57</ele>
        <time>2016-04-17T16:02:10.979Z</time>
      </trkpt>
      <trkpt lat="43.57502" lon="3.90032">
        <ele>57</ele>
        <time>2016-04-17T16:02:11.953Z</time>
      </trkpt>
      <trkpt lat="43.57509" lon="3.90036">
        <ele>58</ele>
        <time>2016-04-17T16:02:13.978Z</time>
      </trkpt>
      <trkpt lat="43.57513" lon="3.90037">
        <ele>57</ele>
        <time>2016-04-17T16:02:14.953Z</time>
      </trkpt>
      <trkpt lat="43.57519" lon="3.90039">
        <ele>56</ele>
        <time>2016-04-17T16:02:16.976Z</time>
      </trkpt>
      <trkpt lat="43.57523" lon="3.9004">
        <ele>56</ele>
        <time>2016-04-17T16:02:17.953Z</time>
      </trkpt>
      <trkpt lat="43.57529" lon="3.90043">
        <ele>57</ele>
        <time>2016-04-17T16:02:19.976Z</time>
      </trkpt>
      <trkpt lat="43.57532" lon="3.90044">
        <ele>57</ele>
        <time>2016-04-17T16:02:20.953Z</time>
      </trkpt>
      <trkpt lat="43.57538" lon="3.90046">
        <ele>57</ele>
        <time>2016-04-17T16:02:22.998Z</time>
      </trkpt>
      <trkpt lat="43.57541" lon="3.90049">
        <ele>56</ele>
        <time>2016-04-17T16:02:23.952Z</time>
      </trkpt>
      <trkpt lat="43.57548" lon="3.90055">
        <ele>57</ele>
        <time>2016-04-17T16:02:25.975Z</time>
      </trkpt>
      <trkpt lat="43.57551" lon="3.90058">
        <ele>56</ele>
        <time>2016-04-17T16:02:26.951Z</time>
      </trkpt>
      <trkpt lat="43.57555" lon="3.90066">
        <ele>55</ele>
        <time>2016-04-17T16:02:28.976Z</time>
      </trkpt>
      <trkpt lat="43.57558" lon="3.90069">
        <ele>55</ele>
        <time>2016-04-17T16:02:29.951Z</time>
      </trkpt>
      <trkpt lat="43.57563" lon="3.90076">
        <ele>56</ele>
        <time>2016-04-17T16:02:31.974Z</time>
      </trkpt>
      <trkpt lat="43.57566" lon="3.9008">
        <ele>56</ele>
        <time>2016-04-17T16:02:32.953Z</time>
      </trkpt>
      <trkpt lat="43.57571" lon="3.90087">
        <ele>57</ele>
        <time>2016-04-17T16:02:34.974Z</time>
      </trkpt>
      <trkpt lat="43.57573" lon="3.90092">
        <ele>58</ele>
        <time>2016-04-17T16:02:35.952Z</time>
      </trkpt>
      <trkpt lat="43.57578" lon="3.90097">
        <ele>58</ele>
        <time>2016-04-17T16:02:37.976Z</time>
      </trkpt>
      <trkpt lat="43.57581" lon="3.901">
        <ele>58</ele>
        <time>2016-04-17T16:02:38.953Z</time>
      </trkpt>
      <trkpt lat="43.57589" lon="3.90102">
        <ele>58</ele>
        <time>2016-04-17T16:02:40.972Z</time>
      </trkpt>
      <trkpt lat="43.57593" lon="3.90101">
        <ele>56</ele>
        <time>2016-04-17T16:02:41.951Z</time>
      </trkpt>
      <trkpt lat="43.57598" lon="3.90096">
        <ele>56</ele>
        <time>2016-04-17T16:02:44.001Z</time>
      </trkpt>
      <trkpt lat="43.576" lon="3.90093">
        <ele>56</ele>
        <time>2016-04-17T16:02:44.948Z</time>
      </trkpt>
      <trkpt lat="43.57604" lon="3.90085">
        <ele>57</ele>
        <time>2016-04-17T16:02:46.981Z</time>
      </trkpt>
      <trkpt lat="43.57605" lon="3.90082">
        <ele>57</ele>
        <time>2016-04-17T16:02:47.950Z</time>
      </trkpt>
      <trkpt lat="43.57612" lon="3.90079">
        <ele>59</ele>
        <time>2016-04-17T16:02:51.980Z</time>
      </trkpt>
      <trkpt lat="43.57615" lon="3.90083">
        <ele>59</ele>
        <time>2016-04-17T16:02:52.949Z</time>
      </trkpt>
      <trkpt lat="43.5762" lon="3.90087">
        <ele>58</ele>
        <time>2016-04-17T16:02:55.000Z</time>
      </trkpt>
      <trkpt lat="43.57623" lon="3.90089">
        <ele>56</ele>
        <time>2016-04-17T16:02:55.949Z</time>
      </trkpt>
      <trkpt lat="43.57629" lon="3.90095">
        <ele>57</ele>
        <time>2016-04-17T16:02:57.980Z</time>
      </trkpt>
      <trkpt lat="43.57632" lon="3.90099">
        <ele>56</ele>
        <time>2016-04-17T16:02:58.950Z</time>
      </trkpt>
      <trkpt lat="43.57637" lon="3.90104">
        <ele>57</ele>
        <time>2016-04-17T16:03:00.965Z</time>
      </trkpt>
      <trkpt lat="43.57639" lon="3.90107">
        <ele>57</ele>
        <time>2016-04-17T16:03:01.950Z</time>
      </trkpt>
      <trkpt lat="43.57644" lon="3.90112">
        <ele>57</ele>
        <time>2016-04-17T16:03:03.980Z</time>
      </trkpt>
      <trkpt lat="43.57646" lon="3.90117">
        <ele>56</ele>
        <time>2016-04-17T16:03:04.951Z</time>
      </trkpt>
      <trkpt lat="43.5765" lon="3.90124">
        <ele>57</ele>
        <time>2016-04-17T16:03:06.977Z</time>
      </trkpt>
      <trkpt lat="43.57652" lon="3.90127">
        <ele>58</ele>
        <time>2016-04-17T16:03:07.951Z</time>
      </trkpt>
      <trkpt lat="43.57656" lon="3.90133">
        <ele>58</ele>
        <time>2016-04-17T16:03:09.978Z</time>
      </trkpt>
      <trkpt lat="43.57659" lon="3.90139">
        <ele>57</ele>
        <time>2016-04-17T16:03:10.976Z</time>
      </trkpt>
      <trkpt lat="43.57666" lon="3.90143">
        <ele>57</ele>
        <time>2016-04-17T16:03:12.978Z</time>
      </trkpt>
      <trkpt lat="43.57668" lon="3.90147">
        <ele>56</ele>
        <time>2016-04-17T16:03:13.949Z</time>
      </trkpt>
      <trkpt lat="43.57674" lon="3.90154">
        <ele>54</ele>
        <time>2016-04-17T16:03:15.979Z</time>
      </trkpt>
      <trkpt lat="43.57677" lon="3.90158">
        <ele>54</ele>
        <time>2016-04-17T16:03:16.950Z</time>
      </trkpt>
      <trkpt lat="43.57685" lon="3.90164">
        <ele>54</ele>
        <time>2016-04-17T16:03:18.977Z</time>
      </trkpt>
      <trkpt lat="43.57688" lon="3.90168">
        <ele>56</ele>
        <time>2016-04-17T16:03:19.951Z</time>
      </trkpt>
      <trkpt lat="43.57693" lon="3.90176">
        <ele>54</ele>
        <time>2016-04-17T16:03:21.978Z</time>
      </trkpt>
      <trkpt lat="43.57696" lon="3.90179">
        <ele>55</ele>
        <time>2016-04-17T16:03:22.949Z</time>
      </trkpt>
      <trkpt lat="43.57703" lon="3.90183">
        <ele>55</ele>
        <time>2016-04-17T16:03:24.980Z</time>
      </trkpt>
      <trkpt lat="43.57706" lon="3.90186">
        <ele>55</ele>
        <time>2016-04-17T16:03:25.950Z</time>
      </trkpt>
      <trkpt lat="43.5771" lon="3.90192">
        <ele>55</ele>
        <time>2016-04-17T16:03:27.977Z</time>
      </trkpt>
      <trkpt lat="43.57714" lon="3.90197">
        <ele>56</ele>
        <time>2016-04-17T16:03:28.951Z</time>
      </trkpt>
      <trkpt lat="43.57719" lon="3.90204">
        <ele>56</ele>
        <time>2016-04-17T16:03:30.982Z</time>
      </trkpt>
      <trkpt lat="43.57722" lon="3.90206">
        <ele>57</ele>
        <time>2016-04-17T16:03:31.979Z</time>
      </trkpt>
      <trkpt lat="43.57725" lon="3.90212">
        <ele>56</ele>
        <time>2016-04-17T16:03:32.977Z</time>
      </trkpt>
      <trkpt lat="43.57727" lon="3.90217">
        <ele>54</ele>
        <time>2016-04-17T16:03:33.950Z</time>
      </trkpt>
      <trkpt lat="43.57735" lon="3.90223">
        <ele>54</ele>
        <time>2016-04-17T16:03:35.976Z</time>
      </trkpt>
      <trkpt lat="43.57738" lon="3.90228">
        <ele>52</ele>
        <time>2016-04-17T16:03:36.951Z</time>
      </trkpt>
      <trkpt lat="43.57744" lon="3.90234">
        <ele>53</ele>
        <time>2016-04-17T16:03:38.980Z</time>
      </trkpt>
      <trkpt lat="43.57747" lon="3.90239">
        <ele>53</ele>
        <time>2016-04-17T16:03:39.950Z</time>
      </trkpt>
      <trkpt lat="43.5775" lon="3.90244">
        <ele>51</ele>
        <time>2016-04-17T16:03:40.978Z</time>
      </trkpt>
      <trkpt lat="43.57754" lon="3.90248">
        <ele>50</ele>
        <time>2016-04-17T16:03:41.950Z</time>
      </trkpt>
      <trkpt lat="43.5776" lon="3.90256">
        <ele>52</ele>
        <time>2016-04-17T16:03:43.978Z</time>
      </trkpt>
      <trkpt lat="43.57763" lon="3.9026">
        <ele>53</ele>
        <time>2016-04-17T16:03:44.950Z</time>
      </trkpt>
      <trkpt lat="43.5777" lon="3.90267">
        <ele>51</ele>
        <time>2016-04-17T16:03:46.979Z</time>
      </trkpt>
      <trkpt lat="43.57774" lon="3.9027">
        <ele>52</ele>
        <time>2016-04-17T16:03:47.951Z</time>
      </trkpt>
      <trkpt lat="43.57777" lon="3.90277">
        <ele>53</ele>
        <time>2016-04-17T16:03:48.979Z</time>
      </trkpt>
      <trkpt lat="43.57781" lon="3.90281">
        <ele>52</ele>
        <time>2016-04-17T16:03:49.950Z</time>
      </trkpt>
      <trkpt lat="43.57784" lon="3.90284">
        <ele>51</ele>
        <time>2016-04-17T16:03:50.978Z</time>
      </trkpt>
      <trkpt lat="43.57788" lon="3.90288">
        <ele>52</ele>
        <time>2016-04-17T16:03:51.947Z</time>
      </trkpt>
      <trkpt lat="43.57794" lon="3.90296">
        <ele>53</ele>
        <time>2016-04-17T16:03:53.980Z</time>
      </trkpt>
      <trkpt lat="43.57798" lon="3.90301">
        <ele>51</ele>
        <time>2016-04-17T16:03:54.948Z</time>
      </trkpt>
      <trkpt lat="43.57802" lon="3.90304">
        <ele>52</ele>
        <time>2016-04-17T16:03:55.978Z</time>
      </trkpt>
      <trkpt lat="43.57806" lon="3.90307">
        <ele>52</ele>
        <time>2016-04-17T16:03:56.949Z</time>
      </trkpt>
      <trkpt lat="43.5781" lon="3.90311">
        <ele>53</ele>
        <time>2016-04-17T16:03:57.983Z</time>
      </trkpt>
      <trkpt lat="43.57814" lon="3.90314">
        <ele>53</ele>
        <time>2016-04-17T16:03:58.950Z</time>
      </trkpt>
      <trkpt lat="43.57819" lon="3.90317">
        <ele>50</ele>
        <time>2016-04-17T16:03:59.981Z</time>
      </trkpt>
      <trkpt lat="43.57822" lon="3.90321">
        <ele>51</ele>
        <time>2016-04-17T16:04:00.942Z</time>
      </trkpt>
      <trkpt lat="43.57829" lon="3.90325">
        <ele>49</ele>
        <time>2016-04-17T16:04:02.981Z</time>
      </trkpt>
      <trkpt lat="43.57833" lon="3.90328">
        <ele>49</ele>
        <time>2016-04-17T16:04:03.949Z</time>
      </trkpt>
      <trkpt lat="43.57841" lon="3.90335">
        <ele>48</ele>
        <time>2016-04-17T16:04:05.980Z</time>
      </trkpt>
      <trkpt lat="43.57842" lon="3.90345">
        <ele>46</ele>
        <time>2016-04-17T16:04:06.950Z</time>
      </trkpt>
      <trkpt lat="43.57847" lon="3.9035">
        <ele>45</ele>
        <time>2016-04-17T16:04:09.001Z</time>
      </trkpt>
      <trkpt lat="43.5785" lon="3.90355">
        <ele>45</ele>
        <time>2016-04-17T16:04:09.950Z</time>
      </trkpt>
      <trkpt lat="43.57857" lon="3.90362">
        <ele>47</ele>
        <time>2016-04-17T16:04:11.979Z</time>
      </trkpt>
      <trkpt lat="43.5786" lon="3.90365">
        <ele>47</ele>
        <time>2016-04-17T16:04:12.947Z</time>
      </trkpt>
      <trkpt lat="43.57863" lon="3.90372">
        <ele>47</ele>
        <time>2016-04-17T16:04:13.977Z</time>
      </trkpt>
      <trkpt lat="43.57867" lon="3.90374">
        <ele>48</ele>
        <time>2016-04-17T16:04:14.953Z</time>
      </trkpt>
      <trkpt lat="43.57873" lon="3.90381">
        <ele>49</ele>
        <time>2016-04-17T16:04:16.980Z</time>
      </trkpt>
      <trkpt lat="43.57877" lon="3.90384">
        <ele>47</ele>
        <time>2016-04-17T16:04:17.949Z</time>
      </trkpt>
      <trkpt lat="43.5788" lon="3.90388">
        <ele>48</ele>
        <time>2016-04-17T16:04:18.981Z</time>
      </trkpt>
      <trkpt lat="43.57883" lon="3.90396">
        <ele>52</ele>
        <time>2016-04-17T16:04:19.951Z</time>
      </trkpt>
      <trkpt lat="43.57886" lon="3.90401">
        <ele>53</ele>
        <time>2016-04-17T16:04:20.980Z</time>
      </trkpt>
      <trkpt lat="43.5789" lon="3.90404">
        <ele>55</ele>
        <time>2016-04-17T16:04:22.085Z</time>
      </trkpt>
      <trkpt lat="43.57896" lon="3.90413">
        <ele>55</ele>
        <time>2016-04-17T16:04:23.971Z</time>
      </trkpt>
      <trkpt lat="43.579" lon="3.90416">
        <ele>55</ele>
        <time>2016-04-17T16:04:24.978Z</time>
      </trkpt>
      <trkpt lat="43.57903" lon="3.90421">
        <ele>55</ele>
        <time>2016-04-17T16:04:25.980Z</time>
      </trkpt>
      <trkpt lat="43.57906" lon="3.90427">
        <ele>57</ele>
        <time>2016-04-17T16:04:26.950Z</time>
      </trkpt>
      <trkpt lat="43.57908" lon="3.90433">
        <ele>57</ele>
        <time>2016-04-17T16:04:27.980Z</time>
      </trkpt>
      <trkpt lat="43.5791" lon="3.9044">
        <ele>58</ele>
        <time>2016-04-17T16:04:28.948Z</time>
      </trkpt>
      <trkpt lat="43.57911" lon="3.90448">
        <ele>58</ele>
        <time>2016-04-17T16:04:29.979Z</time>
      </trkpt>
      <trkpt lat="43.57914" lon="3.90451">
        <ele>55</ele>
        <time>2016-04-17T16:04:30.951Z</time>
      </trkpt>
      <trkpt lat="43.57916" lon="3.90457">
        <ele>58</ele>
        <time>2016-04-17T16:04:31.974Z</time>
      </trkpt>
      <trkpt lat="43.57922" lon="3.90457">
        <ele>59</ele>
        <time>2016-04-17T16:04:32.950Z</time>
      </trkpt>
      <trkpt lat="43.57926" lon="3.90468">
        <ele>59</ele>
        <time>2016-04-17T16:04:34.980Z</time>
      </trkpt>
      <trkpt lat="43.5793" lon="3.90472">
        <ele>60</ele>
        <time>2016-04-17T16:04:35.950Z</time>
      </trkpt>
      <trkpt lat="43.57932" lon="3.90478">
        <ele>60</ele>
        <time>2016-04-17T16:04:36.980Z</time>
      </trkpt>
      <trkpt lat="43.57934" lon="3.90484">
        <ele>60</ele>
        <time>2016-04-17T16:04:37.950Z</time>
      </trkpt>
      <trkpt lat="43.57938" lon="3.90495">
        <ele>62</ele>
        <time>2016-04-17T16:04:39.979Z</time>
      </trkpt>
      <trkpt lat="43.57939" lon="3.90502">
        <ele>62</ele>
        <time>2016-04-17T16:04:40.970Z</time>
      </trkpt>
      <trkpt lat="43.57943" lon="3.90508">
        <ele>57</ele>
        <time>2016-04-17T16:04:41.978Z</time>
      </trkpt>
      <trkpt lat="43.57946" lon="3.90514">
        <ele>58</ele>
        <time>2016-04-17T16:04:42.955Z</time>
      </trkpt>
      <trkpt lat="43.57951" lon="3.90523">
        <ele>61</ele>
        <time>2016-04-17T16:04:44.976Z</time>
      </trkpt>
      <trkpt lat="43.57953" lon="3.90528">
        <ele>62</ele>
        <time>2016-04-17T16:04:45.954Z</time>
      </trkpt>
      <trkpt lat="43.57956" lon="3.90533">
        <ele>63</ele>
        <time>2016-04-17T16:04:46.977Z</time>
      </trkpt>
      <trkpt lat="43.57958" lon="3.90541">
        <ele>62</ele>
        <time>2016-04-17T16:04:47.952Z</time>
      </trkpt>
      <trkpt lat="43.57961" lon="3.90548">
        <ele>62</ele>
        <time>2016-04-17T16:04:48.985Z</time>
      </trkpt>
      <trkpt lat="43.57964" lon="3.90552">
        <ele>63</ele>
        <time>2016-04-17T16:04:49.950Z</time>
      </trkpt>
      <trkpt lat="43.57966" lon="3.90558">
        <ele>63</ele>
        <time>2016-04-17T16:04:50.978Z</time>
      </trkpt>
      <trkpt lat="43.57968" lon="3.90564">
        <ele>65</ele>
        <time>2016-04-17T16:04:51.951Z</time>
      </trkpt>
      <trkpt lat="43.57971" lon="3.9057">
        <ele>65</ele>
        <time>2016-04-17T16:04:52.980Z</time>
      </trkpt>
      <trkpt lat="43.57973" lon="3.90576">
        <ele>65</ele>
        <time>2016-04-17T16:04:53.950Z</time>
      </trkpt>
      <trkpt lat="43.57976" lon="3.90581">
        <ele>65</ele>
        <time>2016-04-17T16:04:54.979Z</time>
      </trkpt>
      <trkpt lat="43.57981" lon="3.90585">
        <ele>66</ele>
        <time>2016-04-17T16:04:55.949Z</time>
      </trkpt>
      <trkpt lat="43.57984" lon="3.90592">
        <ele>68</ele>
        <time>2016-04-17T16:04:57.001Z</time>
      </trkpt>
      <trkpt lat="43.57986" lon="3.90597">
        <ele>67</ele>
        <time>2016-04-17T16:04:57.950Z</time>
      </trkpt>
      <trkpt lat="43.57988" lon="3.90603">
        <ele>66</ele>
        <time>2016-04-17T16:04:58.989Z</time>
      </trkpt>
      <trkpt lat="43.57991" lon="3.90608">
        <ele>67</ele>
        <time>2016-04-17T16:04:59.949Z</time>
      </trkpt>
      <trkpt lat="43.57994" lon="3.90614">
        <ele>67</ele>
        <time>2016-04-17T16:05:00.981Z</time>
      </trkpt>
      <trkpt lat="43.57996" lon="3.9062">
        <ele>67</ele>
        <time>2016-04-17T16:05:01.951Z</time>
      </trkpt>
      <trkpt lat="43.57998" lon="3.90626">
        <ele>65</ele>
        <time>2016-04-17T16:05:02.980Z</time>
      </trkpt>
      <trkpt lat="43.58001" lon="3.90631">
        <ele>63</ele>
        <time>2016-04-17T16:05:03.949Z</time>
      </trkpt>
      <trkpt lat="43.58004" lon="3.90636">
        <ele>62</ele>
        <time>2016-04-17T16:05:04.979Z</time>
      </trkpt>
      <trkpt lat="43.58006" lon="3.90644">
        <ele>61</ele>
        <time>2016-04-17T16:05:05.949Z</time>
      </trkpt>
      <trkpt lat="43.58011" lon="3.90649">
        <ele>64</ele>
        <time>2016-04-17T16:05:07.113Z</time>
      </trkpt>
      <trkpt lat="43.58014" lon="3.90655">
        <ele>64</ele>
        <time>2016-04-17T16:05:07.959Z</time>
      </trkpt>
      <trkpt lat="43.58017" lon="3.90661">
        <ele>66</ele>
        <time>2016-04-17T16:05:08.978Z</time>
      </trkpt>
      <trkpt lat="43.5802" lon="3.90667">
        <ele>65</ele>
        <time>2016-04-17T16:05:09.950Z</time>
      </trkpt>
      <trkpt lat="43.58022" lon="3.90673">
        <ele>65</ele>
        <time>2016-04-17T16:05:10.975Z</time>
      </trkpt>
      <trkpt lat="43.58024" lon="3.90679">
        <ele>65</ele>
        <time>2016-04-17T16:05:11.948Z</time>
      </trkpt>
      <trkpt lat="43.58027" lon="3.90684">
        <ele>66</ele>
        <time>2016-04-17T16:05:12.980Z</time>
      </trkpt>
      <trkpt lat="43.58029" lon="3.90689">
        <ele>66</ele>
        <time>2016-04-17T16:05:13.950Z</time>
      </trkpt>
      <trkpt lat="43.58033" lon="3.90693">
        <ele>66</ele>
        <time>2016-04-17T16:05:14.972Z</time>
      </trkpt>
      <trkpt lat="43.58038" lon="3.90699">
        <ele>68</ele>
        <time>2016-04-17T16:05:15.952Z</time>
      </trkpt>
      <trkpt lat="43.58042" lon="3.90705">
        <ele>68</ele>
        <time>2016-04-17T16:05:16.978Z</time>
      </trkpt>
      <trkpt lat="43.58045" lon="3.90712">
        <ele>68</ele>
        <time>2016-04-17T16:05:17.977Z</time>
      </trkpt>
      <trkpt lat="43.5805" lon="3.90721">
        <ele>69</ele>
        <time>2016-04-17T16:05:19.977Z</time>
      </trkpt>
      <trkpt lat="43.58052" lon="3.90727">
        <ele>68</ele>
        <time>2016-04-17T16:05:20.950Z</time>
      </trkpt>
      <trkpt lat="43.58055" lon="3.90734">
        <ele>68</ele>
        <time>2016-04-17T16:05:21.978Z</time>
      </trkpt>
      <trkpt lat="43.58059" lon="3.90739">
        <ele>66</ele>
        <time>2016-04-17T16:05:22.949Z</time>
      </trkpt>
      <trkpt lat="43.58063" lon="3.90746">
        <ele>66</ele>
        <time>2016-04-17T16:05:23.978Z</time>
      </trkpt>
      <trkpt lat="43.58067" lon="3.9075">
        <ele>66</ele>
        <time>2016-04-17T16:05:24.948Z</time>
      </trkpt>
      <trkpt lat="43.58069" lon="3.9076">
        <ele>66</ele>
        <time>2016-04-17T16:05:25.979Z</time>
      </trkpt>
      <trkpt lat="43.58075" lon="3.90762">
        <ele>66</ele>
        <time>2016-04-17T16:05:26.951Z</time>
      </trkpt>
      <trkpt lat="43.5808" lon="3.90766">
        <ele>67</ele>
        <time>2016-04-17T16:05:27.979Z</time>
      </trkpt>
      <trkpt lat="43.58082" lon="3.90773">
        <ele>64</ele>
        <time>2016-04-17T16:05:28.950Z</time>
      </trkpt>
      <trkpt lat="43.58086" lon="3.90777">
        <ele>63</ele>
        <time>2016-04-17T16:05:29.982Z</time>
      </trkpt>
      <trkpt lat="43.58093" lon="3.9078">
        <ele>63</ele>
        <time>2016-04-17T16:05:30.948Z</time>
      </trkpt>
      <trkpt lat="43.58099" lon="3.90782">
        <ele>63</ele>
        <time>2016-04-17T16:05:31.979Z</time>
      </trkpt>
      <trkpt lat="43.58103" lon="3.90785">
        <ele>63</ele>
        <time>2016-04-17T16:05:32.951Z</time>
      </trkpt>
      <trkpt lat="43.58108" lon="3.90787">
        <ele>63</ele>
        <time>2016-04-17T16:05:34.002Z</time>
      </trkpt>
      <trkpt lat="43.58113" lon="3.90789">
        <ele>62</ele>
        <time>2016-04-17T16:05:34.950Z</time>
      </trkpt>
      <trkpt lat="43.58118" lon="3.90793">
        <ele>63</ele>
        <time>2016-04-17T16:05:35.980Z</time>
      </trkpt>
      <trkpt lat="43.58122" lon="3.90795">
        <ele>63</ele>
        <time>2016-04-17T16:05:36.949Z</time>
      </trkpt>
      <trkpt lat="43.58127" lon="3.90797">
        <ele>63</ele>
        <time>2016-04-17T16:05:37.978Z</time>
      </trkpt>
      <trkpt lat="43.58132" lon="3.90799">
        <ele>63</ele>
        <time>2016-04-17T16:05:38.950Z</time>
      </trkpt>
      <trkpt lat="43.58139" lon="3.90802">
        <ele>60</ele>
        <time>2016-04-17T16:05:40.980Z</time>
      </trkpt>
      <trkpt lat="43.58142" lon="3.90803">
        <ele>61</ele>
        <time>2016-04-17T16:05:41.951Z</time>
      </trkpt>
      <trkpt lat="43.58146" lon="3.90802">
        <ele>61</ele>
        <time>2016-04-17T16:05:43.097Z</time>
      </trkpt>
      <trkpt lat="43.58152" lon="3.90798">
        <ele>57</ele>
        <time>2016-04-17T16:05:43.950Z</time>
      </trkpt>
      <trkpt lat="43.58157" lon="3.90799">
        <ele>56</ele>
        <time>2016-04-17T16:05:44.980Z</time>
      </trkpt>
      <trkpt lat="43.58162" lon="3.90799">
        <ele>56</ele>
        <time>2016-04-17T16:05:45.951Z</time>
      </trkpt>
      <trkpt lat="43.58167" lon="3.90798">
        <ele>56</ele>
        <time>2016-04-17T16:05:46.976Z</time>
      </trkpt>
      <trkpt lat="43.58172" lon="3.90802">
        <ele>56</ele>
        <time>2016-04-17T16:05:47.949Z</time>
      </trkpt>
      <trkpt lat="43.58177" lon="3.90803">
        <ele>56</ele>
        <time>2016-04-17T16:05:48.980Z</time>
      </trkpt>
      <trkpt lat="43.58182" lon="3.90805">
        <ele>57</ele>
        <time>2016-04-17T16:05:49.979Z</time>
      </trkpt>
      <trkpt lat="43.58188" lon="3.90806">
        <ele>58</ele>
        <time>2016-04-17T16:05:50.980Z</time>
      </trkpt>
      <trkpt lat="43.58193" lon="3.90805">
        <ele>58</ele>
        <time>2016-04-17T16:05:51.950Z</time>
      </trkpt>
      <trkpt lat="43.58198" lon="3.90805">
        <ele>59</ele>
        <time>2016-04-17T16:05:52.980Z</time>
      </trkpt>
      <trkpt lat="43.58203" lon="3.90806">
        <ele>59</ele>
        <time>2016-04-17T16:05:53.951Z</time>
      </trkpt>
      <trkpt lat="43.58206" lon="3.90809">
        <ele>58</ele>
        <time>2016-04-17T16:05:55.114Z</time>
      </trkpt>
      <trkpt lat="43.58212" lon="3.90812">
        <ele>58</ele>
        <time>2016-04-17T16:05:55.948Z</time>
      </trkpt>
      <trkpt lat="43.58217" lon="3.90814">
        <ele>58</ele>
        <time>2016-04-17T16:05:56.979Z</time>
      </trkpt>
      <trkpt lat="43.58221" lon="3.90814">
        <ele>58</ele>
        <time>2016-04-17T16:05:57.949Z</time>
      </trkpt>
      <trkpt lat="43.58226" lon="3.90813">
        <ele>58</ele>
        <time>2016-04-17T16:05:58.982Z</time>
      </trkpt>
      <trkpt lat="43.58231" lon="3.90813">
        <ele>57</ele>
        <time>2016-04-17T16:05:59.952Z</time>
      </trkpt>
      <trkpt lat="43.58236" lon="3.90813">
        <ele>57</ele>
        <time>2016-04-17T16:06:00.957Z</time>
      </trkpt>
      <trkpt lat="43.5824" lon="3.9081">
        <ele>59</ele>
        <time>2016-04-17T16:06:01.951Z</time>
      </trkpt>
      <trkpt lat="43.58245" lon="3.90809">
        <ele>59</ele>
        <time>2016-04-17T16:06:03.039Z</time>
      </trkpt>
      <trkpt lat="43.5825" lon="3.9081">
        <ele>59</ele>
        <time>2016-04-17T16:06:03.951Z</time>
      </trkpt>
      <trkpt lat="43.58257" lon="3.90812">
        <ele>55</ele>
        <time>2016-04-17T16:06:05.122Z</time>
      </trkpt>
      <trkpt lat="43.58261" lon="3.90812">
        <ele>56</ele>
        <time>2016-04-17T16:06:05.951Z</time>
      </trkpt>
      <trkpt lat="43.58266" lon="3.90815">
        <ele>55</ele>
        <time>2016-04-17T16:06:06.980Z</time>
      </trkpt>
      <trkpt lat="43.58273" lon="3.90815">
        <ele>55</ele>
        <time>2016-04-17T16:06:07.951Z</time>
      </trkpt>
      <trkpt lat="43.58281" lon="3.90815">
        <ele>54</ele>
        <time>2016-04-17T16:06:09.979Z</time>
      </trkpt>
      <trkpt lat="43.58285" lon="3.90814">
        <ele>54</ele>
        <time>2016-04-17T16:06:10.950Z</time>
      </trkpt>
      <trkpt lat="43.58294" lon="3.90815">
        <ele>53</ele>
        <time>2016-04-17T16:06:12.976Z</time>
      </trkpt>
      <trkpt lat="43.583" lon="3.90815">
        <ele>47</ele>
        <time>2016-04-17T16:06:13.951Z</time>
      </trkpt>
      <trkpt lat="43.58308" lon="3.90815">
        <ele>48</ele>
        <time>2016-04-17T16:06:16.000Z</time>
      </trkpt>
      <trkpt lat="43.58311" lon="3.90816">
        <ele>47</ele>
        <time>2016-04-17T16:06:16.951Z</time>
      </trkpt>
      <trkpt lat="43.58318" lon="3.90819">
        <ele>47</ele>
        <time>2016-04-17T16:06:18.970Z</time>
      </trkpt>
      <trkpt lat="43.58324" lon="3.90819">
        <ele>46</ele>
        <time>2016-04-17T16:06:19.951Z</time>
      </trkpt>
      <trkpt lat="43.58333" lon="3.9082">
        <ele>44</ele>
        <time>2016-04-17T16:06:21.978Z</time>
      </trkpt>
      <trkpt lat="43.58337" lon="3.9082">
        <ele>43</ele>
        <time>2016-04-17T16:06:22.944Z</time>
      </trkpt>
      <trkpt lat="43.58343" lon="3.90821">
        <ele>43</ele>
        <time>2016-04-17T16:06:23.982Z</time>
      </trkpt>
      <trkpt lat="43.58348" lon="3.90821">
        <ele>44</ele>
        <time>2016-04-17T16:06:24.952Z</time>
      </trkpt>
      <trkpt lat="43.58355" lon="3.90821">
        <ele>43</ele>
        <time>2016-04-17T16:06:25.977Z</time>
      </trkpt>
      <trkpt lat="43.5836" lon="3.9082">
        <ele>43</ele>
        <time>2016-04-17T16:06:26.945Z</time>
      </trkpt>
      <trkpt lat="43.58364" lon="3.90817">
        <ele>45</ele>
        <time>2016-04-17T16:06:27.977Z</time>
      </trkpt>
      <trkpt lat="43.58369" lon="3.90817">
        <ele>44</ele>
        <time>2016-04-17T16:06:28.952Z</time>
      </trkpt>
      <trkpt lat="43.58374" lon="3.90816">
        <ele>44</ele>
        <time>2016-04-17T16:06:29.979Z</time>
      </trkpt>
      <trkpt lat="43.58379" lon="3.90813">
        <ele>45</ele>
        <time>2016-04-17T16:06:30.949Z</time>
      </trkpt>
      <trkpt lat="43.58385" lon="3.90813">
        <ele>45</ele>
        <time>2016-04-17T16:06:32.001Z</time>
      </trkpt>
      <trkpt lat="43.5839" lon="3.90813">
        <ele>46</ele>
        <time>2016-04-17T16:06:32.949Z</time>
      </trkpt>
      <trkpt lat="43.58395" lon="3.90813">
        <ele>47</ele>
        <time>2016-04-17T16:06:33.979Z</time>
      </trkpt>
      <trkpt lat="43.584" lon="3.90811">
        <ele>47</ele>
        <time>2016-04-17T16:06:34.948Z</time>
      </trkpt>
      <trkpt lat="43.58405" lon="3.9081">
        <ele>48</ele>
        <time>2016-04-17T16:06:35.980Z</time>
      </trkpt>
      <trkpt lat="43.5841" lon="3.90808">
        <ele>48</ele>
        <time>2016-04-17T16:06:36.950Z</time>
      </trkpt>
      <trkpt lat="43.58414" lon="3.90807">
        <ele>49</ele>
        <time>2016-04-17T16:06:37.978Z</time>
      </trkpt>
      <trkpt lat="43.58419" lon="3.90805">
        <ele>49</ele>
        <time>2016-04-17T16:06:38.950Z</time>
      </trkpt>
      <trkpt lat="43.58423" lon="3.90804">
        <ele>49</ele>
        <time>2016-04-17T16:06:39.976Z</time>
      </trkpt>
      <trkpt lat="43.58429" lon="3.90803">
        <ele>51</ele>
        <time>2016-04-17T16:06:40.950Z</time>
      </trkpt>
      <trkpt lat="43.58437" lon="3.90803">
        <ele>50</ele>
        <time>2016-04-17T16:06:43.038Z</time>
      </trkpt>
      <trkpt lat="43.58441" lon="3.90802">
        <ele>50</ele>
        <time>2016-04-17T16:06:43.949Z</time>
      </trkpt>
      <trkpt lat="43.58445" lon="3.908">
        <ele>50</ele>
        <time>2016-04-17T16:06:44.979Z</time>
      </trkpt>
      <trkpt lat="43.5845" lon="3.90798">
        <ele>50</ele>
        <time>2016-04-17T16:06:45.950Z</time>
      </trkpt>
      <trkpt lat="43.58454" lon="3.90796">
        <ele>49</ele>
        <time>2016-04-17T16:06:46.977Z</time>
      </trkpt>
      <trkpt lat="43.58459" lon="3.90795">
        <ele>51</ele>
        <time>2016-04-17T16:06:47.974Z</time>
      </trkpt>
      <trkpt lat="43.58467" lon="3.90793">
        <ele>52</ele>
        <time>2016-04-17T16:06:49.980Z</time>
      </trkpt>
      <trkpt lat="43.58472" lon="3.90792">
        <ele>48</ele>
        <time>2016-04-17T16:06:50.950Z</time>
      </trkpt>
      <trkpt lat="43.58477" lon="3.90789">
        <ele>48</ele>
        <time>2016-04-17T16:06:51.977Z</time>
      </trkpt>
      <trkpt lat="43.5848" lon="3.90788">
        <ele>49</ele>
        <time>2016-04-17T16:06:52.970Z</time>
      </trkpt>
      <trkpt lat="43.58488" lon="3.90783">
        <ele>47</ele>
        <time>2016-04-17T16:06:54.980Z</time>
      </trkpt>
      <trkpt lat="43.58491" lon="3.9078">
        <ele>47</ele>
        <time>2016-04-17T16:06:55.951Z</time>
      </trkpt>
      <trkpt lat="43.58499" lon="3.90778">
        <ele>45</ele>
        <time>2016-04-17T16:06:57.981Z</time>
      </trkpt>
      <trkpt lat="43.58502" lon="3.90775">
        <ele>46</ele>
        <time>2016-04-17T16:06:58.950Z</time>
      </trkpt>
      <trkpt lat="43.5851" lon="3.9077">
        <ele>45</ele>
        <time>2016-04-17T16:07:00.959Z</time>
      </trkpt>
      <trkpt lat="43.58514" lon="3.90769">
        <ele>43</ele>
        <time>2016-04-17T16:07:01.949Z</time>
      </trkpt>
      <trkpt lat="43.58519" lon="3.90767">
        <ele>43</ele>
        <time>2016-04-17T16:07:02.981Z</time>
      </trkpt>
      <trkpt lat="43.58525" lon="3.90764">
        <ele>44</ele>
        <time>2016-04-17T16:07:03.951Z</time>
      </trkpt>
      <trkpt lat="43.58533" lon="3.90761">
        <ele>46</ele>
        <time>2016-04-17T16:07:05.981Z</time>
      </trkpt>
      <trkpt lat="43.58538" lon="3.9076">
        <ele>47</ele>
        <time>2016-04-17T16:07:06.948Z</time>
      </trkpt>
      <trkpt lat="43.58547" lon="3.90758">
        <ele>48</ele>
        <time>2016-04-17T16:07:09.005Z</time>
      </trkpt>
      <trkpt lat="43.58552" lon="3.90756">
        <ele>49</ele>
        <time>2016-04-17T16:07:09.950Z</time>
      </trkpt>
      <trkpt lat="43.58557" lon="3.90755">
        <ele>50</ele>
        <time>2016-04-17T16:07:10.979Z</time>
      </trkpt>
      <trkpt lat="43.58561" lon="3.90753">
        <ele>50</ele>
        <time>2016-04-17T16:07:11.950Z</time>
      </trkpt>
      <trkpt lat="43.58568" lon="3.90752">
        <ele>47</ele>
        <time>2016-04-17T16:07:12.979Z</time>
      </trkpt>
      <trkpt lat="43.58573" lon="3.9075">
        <ele>49</ele>
        <time>2016-04-17T16:07:13.949Z</time>
      </trkpt>
      <trkpt lat="43.58581" lon="3.90747">
        <ele>50</ele>
        <time>2016-04-17T16:07:16.101Z</time>
      </trkpt>
      <trkpt lat="43.58585" lon="3.90747">
        <ele>49</ele>
        <time>2016-04-17T16:07:16.950Z</time>
      </trkpt>
      <trkpt lat="43.58591" lon="3.90746">
        <ele>48</ele>
        <time>2016-04-17T16:07:18.979Z</time>
      </trkpt>
      <trkpt lat="43.58594" lon="3.90745">
        <ele>46</ele>
        <time>2016-04-17T16:07:19.950Z</time>
      </trkpt>
      <trkpt lat="43.58602" lon="3.90745">
        <ele>46</ele>
        <time>2016-04-17T16:07:21.980Z</time>
      </trkpt>
      <trkpt lat="43.58606" lon="3.90745">
        <ele>46</ele>
        <time>2016-04-17T16:07:22.949Z</time>
      </trkpt>
      <trkpt lat="43.58612" lon="3.90746">
        <ele>48</ele>
        <time>2016-04-17T16:07:23.981Z</time>
      </trkpt>
      <trkpt lat="43.58615" lon="3.90748">
        <ele>47</ele>
        <time>2016-04-17T16:07:24.951Z</time>
      </trkpt>
      <trkpt lat="43.58622" lon="3.90747">
        <ele>46</ele>
        <time>2016-04-17T16:07:25.980Z</time>
      </trkpt>
      <trkpt lat="43.58627" lon="3.90748">
        <ele>46</ele>
        <time>2016-04-17T16:07:26.948Z</time>
      </trkpt>
      <trkpt lat="43.58631" lon="3.90749">
        <ele>46</ele>
        <time>2016-04-17T16:07:28.101Z</time>
      </trkpt>
      <trkpt lat="43.58638" lon="3.90752">
        <ele>44</ele>
        <time>2016-04-17T16:07:28.951Z</time>
      </trkpt>
      <trkpt lat="43.58641" lon="3.90754">
        <ele>42</ele>
        <time>2016-04-17T16:07:29.999Z</time>
      </trkpt>
      <trkpt lat="43.58647" lon="3.90754">
        <ele>41</ele>
        <time>2016-04-17T16:07:30.950Z</time>
      </trkpt>
      <trkpt lat="43.58651" lon="3.90757">
        <ele>41</ele>
        <time>2016-04-17T16:07:31.980Z</time>
      </trkpt>
      <trkpt lat="43.58654" lon="3.90761">
        <ele>42</ele>
        <time>2016-04-17T16:07:32.950Z</time>
      </trkpt>
      <trkpt lat="43.58659" lon="3.90771">
        <ele>42</ele>
        <time>2016-04-17T16:07:34.976Z</time>
      </trkpt>
      <trkpt lat="43.58664" lon="3.90774">
        <ele>43</ele>
        <time>2016-04-17T16:07:35.943Z</time>
      </trkpt>
      <trkpt lat="43.58671" lon="3.90778">
        <ele>43</ele>
        <time>2016-04-17T16:07:36.979Z</time>
      </trkpt>
      <trkpt lat="43.58677" lon="3.90781">
        <ele>43</ele>
        <time>2016-04-17T16:07:37.949Z</time>
      </trkpt>
      <trkpt lat="43.58684" lon="3.90784">
        <ele>43</ele>
        <time>2016-04-17T16:07:38.974Z</time>
      </trkpt>
      <trkpt lat="43.58689" lon="3.90786">
        <ele>44</ele>
        <time>2016-04-17T16:07:39.950Z</time>
      </trkpt>
      <trkpt lat="43.58695" lon="3.90787">
        <ele>43</ele>
        <time>2016-04-17T16:07:40.990Z</time>
      </trkpt>
      <trkpt lat="43.58703" lon="3.90789">
        <ele>42</ele>
        <time>2016-04-17T16:07:41.950Z</time>
      </trkpt>
      <trkpt lat="43.5871" lon="3.90789">
        <ele>42</ele>
        <time>2016-04-17T16:07:42.980Z</time>
      </trkpt>
      <trkpt lat="43.58713" lon="3.90793">
        <ele>42</ele>
        <time>2016-04-17T16:07:43.950Z</time>
      </trkpt>
      <trkpt lat="43.58719" lon="3.90796">
        <ele>43</ele>
        <time>2016-04-17T16:07:44.978Z</time>
      </trkpt>
      <trkpt lat="43.58726" lon="3.90797">
        <ele>42</ele>
        <time>2016-04-17T16:07:45.951Z</time>
      </trkpt>
      <trkpt lat="43.58731" lon="3.90798">
        <ele>43</ele>
        <time>2016-04-17T16:07:46.979Z</time>
      </trkpt>
      <trkpt lat="43.58737" lon="3.90798">
        <ele>43</ele>
        <time>2016-04-17T16:07:47.951Z</time>
      </trkpt>
      <trkpt lat="43.58745" lon="3.90799">
        <ele>43</ele>
        <time>2016-04-17T16:07:49.980Z</time>
      </trkpt>
      <trkpt lat="43.58749" lon="3.90802">
        <ele>42</ele>
        <time>2016-04-17T16:07:50.962Z</time>
      </trkpt>
      <trkpt lat="43.58756" lon="3.90801">
        <ele>41</ele>
        <time>2016-04-17T16:07:52.971Z</time>
      </trkpt>
      <trkpt lat="43.58761" lon="3.90802">
        <ele>40</ele>
        <time>2016-04-17T16:07:53.949Z</time>
      </trkpt>
      <trkpt lat="43.58769" lon="3.90807">
        <ele>40</ele>
        <time>2016-04-17T16:07:55.979Z</time>
      </trkpt>
      <trkpt lat="43.58773" lon="3.90808">
        <ele>40</ele>
        <time>2016-04-17T16:07:56.953Z</time>
      </trkpt>
      <trkpt lat="43.58778" lon="3.90809">
        <ele>41</ele>
        <time>2016-04-17T16:07:57.981Z</time>
      </trkpt>
      <trkpt lat="43.58783" lon="3.9081">
        <ele>41</ele>
        <time>2016-04-17T16:07:58.948Z</time>
      </trkpt>
      <trkpt lat="43.58788" lon="3.90812">
        <ele>41</ele>
        <time>2016-04-17T16:07:59.978Z</time>
      </trkpt>
      <trkpt lat="43.58792" lon="3.90813">
        <ele>41</ele>
        <time>2016-04-17T16:08:00.946Z</time>
      </trkpt>
      <trkpt lat="43.588" lon="3.90811">
        <ele>44</ele>
        <time>2016-04-17T16:08:03.019Z</time>
      </trkpt>
      <trkpt lat="43.58802" lon="3.90804">
        <ele>48</ele>
        <time>2016-04-17T16:08:03.950Z</time>
      </trkpt>
      <trkpt lat="43.58805" lon="3.90794">
        <ele>51</ele>
        <time>2016-04-17T16:08:05.980Z</time>
      </trkpt>
      <trkpt lat="43.58808" lon="3.9079">
        <ele>53</ele>
        <time>2016-04-17T16:08:06.976Z</time>
      </trkpt>
      <trkpt lat="43.58815" lon="3.90783">
        <ele>58</ele>
        <time>2016-04-17T16:08:10.965Z</time>
      </trkpt>
      <trkpt lat="43.58816" lon="3.90781">
        <ele>58</ele>
        <time>2016-04-17T16:08:11.969Z</time>
      </trkpt>
      <trkpt lat="43.58824" lon="3.9078">
        <ele>58</ele>
        <time>2016-04-17T16:08:13.973Z</time>
      </trkpt>
      <trkpt lat="43.58829" lon="3.9078">
        <ele>58</ele>
        <time>2016-04-17T16:08:14.964Z</time>
      </trkpt>
      <trkpt lat="43.58835" lon="3.90782">
        <ele>56</ele>
        <time>2016-04-17T16:08:16.973Z</time>
      </trkpt>
      <trkpt lat="43.58838" lon="3.9078">
        <ele>58</ele>
        <time>2016-04-17T16:08:17.974Z</time>
      </trkpt>
      <trkpt lat="43.58846" lon="3.90782">
        <ele>59</ele>
        <time>2016-04-17T16:08:19.984Z</time>
      </trkpt>
      <trkpt lat="43.58849" lon="3.9078">
        <ele>59</ele>
        <time>2016-04-17T16:08:20.952Z</time>
      </trkpt>
      <trkpt lat="43.58853" lon="3.9078">
        <ele>61</ele>
        <time>2016-04-17T16:08:22.003Z</time>
      </trkpt>
      <trkpt lat="43.58858" lon="3.90783">
        <ele>58</ele>
        <time>2016-04-17T16:08:22.949Z</time>
      </trkpt>
      <trkpt lat="43.58862" lon="3.90793">
        <ele>59</ele>
        <time>2016-04-17T16:08:24.978Z</time>
      </trkpt>
      <trkpt lat="43.58863" lon="3.90798">
        <ele>59</ele>
        <time>2016-04-17T16:08:25.950Z</time>
      </trkpt>
      <trkpt lat="43.58867" lon="3.90805">
        <ele>58</ele>
        <time>2016-04-17T16:08:27.979Z</time>
      </trkpt>
      <trkpt lat="43.58868" lon="3.90808">
        <ele>59</ele>
        <time>2016-04-17T16:08:28.950Z</time>
      </trkpt>
      <trkpt lat="43.58875" lon="3.90809">
        <ele>60</ele>
        <time>2016-04-17T16:08:30.979Z</time>
      </trkpt>
      <trkpt lat="43.58878" lon="3.90808">
        <ele>61</ele>
        <time>2016-04-17T16:08:31.949Z</time>
      </trkpt>
      <trkpt lat="43.58887" lon="3.90807">
        <ele>60</ele>
        <time>2016-04-17T16:08:33.980Z</time>
      </trkpt>
      <trkpt lat="43.58889" lon="3.90808">
        <ele>59</ele>
        <time>2016-04-17T16:08:34.950Z</time>
      </trkpt>
      <trkpt lat="43.58896" lon="3.90807">
        <ele>58</ele>
        <time>2016-04-17T16:08:36.977Z</time>
      </trkpt>
      <trkpt lat="43.58899" lon="3.90804">
        <ele>57</ele>
        <time>2016-04-17T16:08:37.950Z</time>
      </trkpt>
      <trkpt lat="43.58906" lon="3.90803">
        <ele>56</ele>
        <time>2016-04-17T16:08:41.974Z</time>
      </trkpt>
      <trkpt lat="43.5891" lon="3.90801">
        <ele>57</ele>
        <time>2016-04-17T16:08:42.952Z</time>
      </trkpt>
      <trkpt lat="43.58911" lon="3.90797">
        <ele>58</ele>
        <time>2016-04-17T16:08:43.973Z</time>
      </trkpt>
      <trkpt lat="43.58919" lon="3.90796">
        <ele>59</ele>
        <time>2016-04-17T16:08:44.951Z</time>
      </trkpt>
      <trkpt lat="43.58926" lon="3.90794">
        <ele>58</ele>
        <time>2016-04-17T16:08:46.009Z</time>
      </trkpt>
      <trkpt lat="43.58931" lon="3.90798">
        <ele>59</ele>
        <time>2016-04-17T16:08:46.951Z</time>
      </trkpt>
      <trkpt lat="43.58938" lon="3.90801">
        <ele>59</ele>
        <time>2016-04-17T16:08:48.976Z</time>
      </trkpt>
      <trkpt lat="43.58943" lon="3.90796">
        <ele>59</ele>
        <time>2016-04-17T16:08:49.961Z</time>
      </trkpt>
      <trkpt lat="43.58948" lon="3.90788">
        <ele>56</ele>
        <time>2016-04-17T16:08:52.977Z</time>
      </trkpt>
      <trkpt lat="43.58947" lon="3.90785">
        <ele>56</ele>
        <time>2016-04-17T16:08:53.953Z</time>
      </trkpt>
      <trkpt lat="43.58946" lon="3.90776">
        <ele>57</ele>
        <time>2016-04-17T16:08:55.975Z</time>
      </trkpt>
      <trkpt lat="43.58947" lon="3.90771">
        <ele>57</ele>
        <time>2016-04-17T16:08:56.952Z</time>
      </trkpt>
      <trkpt lat="43.58954" lon="3.90764">
        <ele>57</ele>
        <time>2016-04-17T16:08:58.976Z</time>
      </trkpt>
      <trkpt lat="43.58958" lon="3.90763">
        <ele>58</ele>
        <time>2016-04-17T16:08:59.952Z</time>
      </trkpt>
      <trkpt lat="43.58962" lon="3.90763">
        <ele>59</ele>
        <time>2016-04-17T16:09:00.969Z</time>
      </trkpt>
      <trkpt lat="43.58968" lon="3.90762">
        <ele>57</ele>
        <time>2016-04-17T16:09:01.951Z</time>
      </trkpt>
      <trkpt lat="43.58976" lon="3.9076">
        <ele>57</ele>
        <time>2016-04-17T16:09:03.981Z</time>
      </trkpt>
      <trkpt lat="43.58981" lon="3.9076">
        <ele>57</ele>
        <time>2016-04-17T16:09:04.954Z</time>
      </trkpt>
      <trkpt lat="43.58985" lon="3.90758">
        <ele>58</ele>
        <time>2016-04-17T16:09:05.980Z</time>
      </trkpt>
      <trkpt lat="43.5899" lon="3.90757">
        <ele>58</ele>
        <time>2016-04-17T16:09:06.949Z</time>
      </trkpt>
      <trkpt lat="43.58995" lon="3.90755">
        <ele>58</ele>
        <time>2016-04-17T16:09:07.978Z</time>
      </trkpt>
      <trkpt lat="43.58999" lon="3.90755">
        <ele>58</ele>
        <time>2016-04-17T16:09:08.950Z</time>
      </trkpt>
      <trkpt lat="43.59005" lon="3.90753">
        <ele>58</ele>
        <time>2016-04-17T16:09:09.980Z</time>
      </trkpt>
      <trkpt lat="43.59009" lon="3.90752">
        <ele>59</ele>
        <time>2016-04-17T16:09:10.981Z</time>
      </trkpt>
      <trkpt lat="43.59018" lon="3.90749">
        <ele>58</ele>
        <time>2016-04-17T16:09:12.980Z</time>
      </trkpt>
      <trkpt lat="43.59023" lon="3.90747">
        <ele>58</ele>
        <time>2016-04-17T16:09:13.955Z</time>
      </trkpt>
      <trkpt lat="43.59027" lon="3.90743">
        <ele>59</ele>
        <time>2016-04-17T16:09:14.983Z</time>
      </trkpt>
      <trkpt lat="43.59031" lon="3.9074">
        <ele>58</ele>
        <time>2016-04-17T16:09:15.950Z</time>
      </trkpt>
      <trkpt lat="43.59038" lon="3.90736">
        <ele>58</ele>
        <time>2016-04-17T16:09:17.981Z</time>
      </trkpt>
      <trkpt lat="43.59041" lon="3.90732">
        <ele>59</ele>
        <time>2016-04-17T16:09:18.951Z</time>
      </trkpt>
      <trkpt lat="43.59048" lon="3.9073">
        <ele>59</ele>
        <time>2016-04-17T16:09:20.981Z</time>
      </trkpt>
      <trkpt lat="43.5905" lon="3.90728">
        <ele>60</ele>
        <time>2016-04-17T16:09:21.952Z</time>
      </trkpt>
      <trkpt lat="43.59056" lon="3.90723">
        <ele>58</ele>
        <time>2016-04-17T16:09:23.978Z</time>
      </trkpt>
      <trkpt lat="43.5906" lon="3.9072">
        <ele>57</ele>
        <time>2016-04-17T16:09:24.950Z</time>
      </trkpt>
      <trkpt lat="43.59066" lon="3.90713">
        <ele>58</ele>
        <time>2016-04-17T16:09:26.990Z</time>
      </trkpt>
      <trkpt lat="43.59069" lon="3.90708">
        <ele>59</ele>
        <time>2016-04-17T16:09:27.951Z</time>
      </trkpt>
      <trkpt lat="43.59075" lon="3.90701">
        <ele>57</ele>
        <time>2016-04-17T16:09:29.980Z</time>
      </trkpt>
      <trkpt lat="43.59077" lon="3.90699">
        <ele>58</ele>
        <time>2016-04-17T16:09:30.949Z</time>
      </trkpt>
      <trkpt lat="43.59081" lon="3.90695">
        <ele>60</ele>
        <time>2016-04-17T16:09:32.001Z</time>
      </trkpt>
      <trkpt lat="43.59085" lon="3.90691">
        <ele>60</ele>
        <time>2016-04-17T16:09:32.947Z</time>
      </trkpt>
      <trkpt lat="43.59088" lon="3.90686">
        <ele>58</ele>
        <time>2016-04-17T16:09:33.978Z</time>
      </trkpt>
      <trkpt lat="43.59092" lon="3.90683">
        <ele>58</ele>
        <time>2016-04-17T16:09:34.949Z</time>
      </trkpt>
      <trkpt lat="43.59096" lon="3.90678">
        <ele>60</ele>
        <time>2016-04-17T16:09:35.990Z</time>
      </trkpt>
      <trkpt lat="43.59099" lon="3.90675">
        <ele>60</ele>
        <time>2016-04-17T16:09:36.948Z</time>
      </trkpt>
      <trkpt lat="43.59105" lon="3.9067">
        <ele>57</ele>
        <time>2016-04-17T16:09:37.982Z</time>
      </trkpt>
      <trkpt lat="43.59108" lon="3.90666">
        <ele>57</ele>
        <time>2016-04-17T16:09:38.951Z</time>
      </trkpt>
      <trkpt lat="43.59112" lon="3.90658">
        <ele>61</ele>
        <time>2016-04-17T16:09:40.974Z</time>
      </trkpt>
      <trkpt lat="43.59116" lon="3.90654">
        <ele>60</ele>
        <time>2016-04-17T16:09:41.951Z</time>
      </trkpt>
      <trkpt lat="43.5912" lon="3.9065">
        <ele>59</ele>
        <time>2016-04-17T16:09:42.982Z</time>
      </trkpt>
      <trkpt lat="43.59123" lon="3.90645">
        <ele>58</ele>
        <time>2016-04-17T16:09:43.951Z</time>
      </trkpt>
      <trkpt lat="43.59128" lon="3.90636">
        <ele>58</ele>
        <time>2016-04-17T16:09:45.982Z</time>
      </trkpt>
      <trkpt lat="43.5913" lon="3.90631">
        <ele>59</ele>
        <time>2016-04-17T16:09:46.949Z</time>
      </trkpt>
      <trkpt lat="43.59133" lon="3.90622">
        <ele>58</ele>
        <time>2016-04-17T16:09:48.980Z</time>
      </trkpt>
      <trkpt lat="43.59136" lon="3.90617">
        <ele>58</ele>
        <time>2016-04-17T16:09:49.949Z</time>
      </trkpt>
      <trkpt lat="43.59138" lon="3.90613">
        <ele>58</ele>
        <time>2016-04-17T16:09:50.969Z</time>
      </trkpt>
      <trkpt lat="43.59142" lon="3.90609">
        <ele>57</ele>
        <time>2016-04-17T16:09:51.950Z</time>
      </trkpt>
      <trkpt lat="43.59147" lon="3.90599">
        <ele>57</ele>
        <time>2016-04-17T16:09:53.978Z</time>
      </trkpt>
      <trkpt lat="43.59152" lon="3.90595">
        <ele>55</ele>
        <time>2016-04-17T16:09:54.953Z</time>
      </trkpt>
      <trkpt lat="43.59157" lon="3.90587">
        <ele>56</ele>
        <time>2016-04-17T16:09:56.979Z</time>
      </trkpt>
      <trkpt lat="43.5916" lon="3.90584">
        <ele>54</ele>
        <time>2016-04-17T16:09:57.951Z</time>
      </trkpt>
      <trkpt lat="43.59166" lon="3.90575">
        <ele>51</ele>
        <time>2016-04-17T16:09:59.979Z</time>
      </trkpt>
      <trkpt lat="43.59169" lon="3.9057">
        <ele>50</ele>
        <time>2016-04-17T16:10:00.949Z</time>
      </trkpt>
      <trkpt lat="43.59172" lon="3.90564">
        <ele>50</ele>
        <time>2016-04-17T16:10:02.976Z</time>
      </trkpt>
      <trkpt lat="43.59176" lon="3.9056">
        <ele>48</ele>
        <time>2016-04-17T16:10:03.950Z</time>
      </trkpt>
      <trkpt lat="43.5918" lon="3.90553">
        <ele>50</ele>
        <time>2016-04-17T16:10:05.993Z</time>
      </trkpt>
      <trkpt lat="43.59183" lon="3.90549">
        <ele>50</ele>
        <time>2016-04-17T16:10:06.945Z</time>
      </trkpt>
      <trkpt lat="43.59184" lon="3.90544">
        <ele>50</ele>
        <time>2016-04-17T16:10:07.978Z</time>
      </trkpt>
      <trkpt lat="43.5919" lon="3.9054">
        <ele>47</ele>
        <time>2016-04-17T16:10:08.953Z</time>
      </trkpt>
      <trkpt lat="43.59194" lon="3.90532">
        <ele>49</ele>
        <time>2016-04-17T16:10:10.969Z</time>
      </trkpt>
      <trkpt lat="43.59199" lon="3.90529">
        <ele>49</ele>
        <time>2016-04-17T16:10:11.948Z</time>
      </trkpt>
      <trkpt lat="43.59204" lon="3.90521">
        <ele>50</ele>
        <time>2016-04-17T16:10:14.033Z</time>
      </trkpt>
      <trkpt lat="43.59209" lon="3.90517">
        <ele>48</ele>
        <time>2016-04-17T16:10:14.948Z</time>
      </trkpt>
      <trkpt lat="43.59216" lon="3.9051">
        <ele>46</ele>
        <time>2016-04-17T16:10:16.978Z</time>
      </trkpt>
      <trkpt lat="43.59219" lon="3.90508">
        <ele>48</ele>
        <time>2016-04-17T16:10:17.950Z</time>
      </trkpt>
      <trkpt lat="43.59224" lon="3.90502">
        <ele>51</ele>
        <time>2016-04-17T16:10:19.978Z</time>
      </trkpt>
      <trkpt lat="43.59226" lon="3.90498">
        <ele>50</ele>
        <time>2016-04-17T16:10:20.950Z</time>
      </trkpt>
      <trkpt lat="43.59233" lon="3.90491">
        <ele>50</ele>
        <time>2016-04-17T16:10:22.979Z</time>
      </trkpt>
      <trkpt lat="43.59237" lon="3.90488">
        <ele>49</ele>
        <time>2016-04-17T16:10:23.952Z</time>
      </trkpt>
      <trkpt lat="43.59244" lon="3.90482">
        <ele>50</ele>
        <time>2016-04-17T16:10:25.980Z</time>
      </trkpt>
      <trkpt lat="43.59247" lon="3.90479">
        <ele>50</ele>
        <time>2016-04-17T16:10:26.947Z</time>
      </trkpt>
      <trkpt lat="43.59254" lon="3.90476">
        <ele>49</ele>
        <time>2016-04-17T16:10:28.971Z</time>
      </trkpt>
      <trkpt lat="43.59257" lon="3.90472">
        <ele>47</ele>
        <time>2016-04-17T16:10:29.951Z</time>
      </trkpt>
      <trkpt lat="43.59263" lon="3.90469">
        <ele>46</ele>
        <time>2016-04-17T16:10:31.978Z</time>
      </trkpt>
      <trkpt lat="43.59267" lon="3.90467">
        <ele>47</ele>
        <time>2016-04-17T16:10:32.948Z</time>
      </trkpt>
      <trkpt lat="43.59275" lon="3.90462">
        <ele>47</ele>
        <time>2016-04-17T16:10:35.978Z</time>
      </trkpt>
      <trkpt lat="43.59279" lon="3.90461">
        <ele>47</ele>
        <time>2016-04-17T16:10:36.952Z</time>
      </trkpt>
      <trkpt lat="43.59287" lon="3.9046">
        <ele>46</ele>
        <time>2016-04-17T16:10:38.970Z</time>
      </trkpt>
      <trkpt lat="43.59288" lon="3.90457">
        <ele>46</ele>
        <time>2016-04-17T16:10:39.949Z</time>
      </trkpt>
      <trkpt lat="43.59295" lon="3.90453">
        <ele>47</ele>
        <time>2016-04-17T16:10:41.976Z</time>
      </trkpt>
      <trkpt lat="43.59299" lon="3.90451">
        <ele>47</ele>
        <time>2016-04-17T16:10:42.946Z</time>
      </trkpt>
      <trkpt lat="43.59304" lon="3.90448">
        <ele>48</ele>
        <time>2016-04-17T16:10:44.971Z</time>
      </trkpt>
      <trkpt lat="43.59307" lon="3.90445">
        <ele>51</ele>
        <time>2016-04-17T16:10:45.950Z</time>
      </trkpt>
      <trkpt lat="43.59315" lon="3.90443">
        <ele>51</ele>
        <time>2016-04-17T16:10:47.979Z</time>
      </trkpt>
      <trkpt lat="43.59319" lon="3.90441">
        <ele>51</ele>
        <time>2016-04-17T16:10:48.976Z</time>
      </trkpt>
      <trkpt lat="43.59324" lon="3.90437">
        <ele>53</ele>
        <time>2016-04-17T16:10:49.980Z</time>
      </trkpt>
      <trkpt lat="43.59328" lon="3.90435">
        <ele>52</ele>
        <time>2016-04-17T16:10:50.994Z</time>
      </trkpt>
      <trkpt lat="43.59335" lon="3.90428">
        <ele>53</ele>
        <time>2016-04-17T16:10:53.098Z</time>
      </trkpt>
      <trkpt lat="43.5934" lon="3.90427">
        <ele>53</ele>
        <time>2016-04-17T16:10:54.010Z</time>
      </trkpt>
      <trkpt lat="43.59346" lon="3.90421">
        <ele>54</ele>
        <time>2016-04-17T16:10:55.972Z</time>
      </trkpt>
      <trkpt lat="43.59349" lon="3.90419">
        <ele>54</ele>
        <time>2016-04-17T16:10:56.950Z</time>
      </trkpt>
      <trkpt lat="43.59355" lon="3.90424">
        <ele>59</ele>
        <time>2016-04-17T16:11:00.043Z</time>
      </trkpt>
      <trkpt lat="43.5936" lon="3.90422">
        <ele>58</ele>
        <time>2016-04-17T16:11:01.256Z</time>
      </trkpt>
      <trkpt lat="43.59364" lon="3.90417">
        <ele>60</ele>
        <time>2016-04-17T16:11:04.003Z</time>
      </trkpt>
      <trkpt lat="43.59367" lon="3.90415">
        <ele>63</ele>
        <time>2016-04-17T16:11:04.953Z</time>
      </trkpt>
      <trkpt lat="43.59375" lon="3.9041">
        <ele>60</ele>
        <time>2016-04-17T16:11:07.049Z</time>
      </trkpt>
      <trkpt lat="43.59379" lon="3.90409">
        <ele>60</ele>
        <time>2016-04-17T16:11:07.955Z</time>
      </trkpt>
      <trkpt lat="43.59388" lon="3.90405">
        <ele>58</ele>
        <time>2016-04-17T16:11:10.976Z</time>
      </trkpt>
      <trkpt lat="43.59391" lon="3.90403">
        <ele>58</ele>
        <time>2016-04-17T16:11:11.974Z</time>
      </trkpt>
      <trkpt lat="43.59397" lon="3.90399">
        <ele>57</ele>
        <time>2016-04-17T16:11:13.977Z</time>
      </trkpt>
      <trkpt lat="43.59401" lon="3.90396">
        <ele>57</ele>
        <time>2016-04-17T16:11:14.955Z</time>
      </trkpt>
      <trkpt lat="43.59407" lon="3.90392">
        <ele>57</ele>
        <time>2016-04-17T16:11:16.980Z</time>
      </trkpt>
      <trkpt lat="43.59411" lon="3.90391">
        <ele>57</ele>
        <time>2016-04-17T16:11:17.956Z</time>
      </trkpt>
      <trkpt lat="43.59416" lon="3.90388">
        <ele>57</ele>
        <time>2016-04-17T16:11:19.982Z</time>
      </trkpt>
      <trkpt lat="43.59419" lon="3.90386">
        <ele>57</ele>
        <time>2016-04-17T16:11:20.947Z</time>
      </trkpt>
      <trkpt lat="43.59424" lon="3.90379">
        <ele>58</ele>
        <time>2016-04-17T16:11:22.980Z</time>
      </trkpt>
      <trkpt lat="43.59426" lon="3.90377">
        <ele>57</ele>
        <time>2016-04-17T16:11:23.952Z</time>
      </trkpt>
      <trkpt lat="43.59431" lon="3.90371">
        <ele>58</ele>
        <time>2016-04-17T16:11:25.980Z</time>
      </trkpt>
      <trkpt lat="43.59434" lon="3.90368">
        <ele>58</ele>
        <time>2016-04-17T16:11:26.949Z</time>
      </trkpt>
      <trkpt lat="43.59439" lon="3.90361">
        <ele>58</ele>
        <time>2016-04-17T16:11:28.980Z</time>
      </trkpt>
      <trkpt lat="43.59443" lon="3.90359">
        <ele>57</ele>
        <time>2016-04-17T16:11:29.951Z</time>
      </trkpt>
      <trkpt lat="43.5945" lon="3.90352">
        <ele>58</ele>
        <time>2016-04-17T16:11:32.997Z</time>
      </trkpt>
      <trkpt lat="43.59452" lon="3.90349">
        <ele>58</ele>
        <time>2016-04-17T16:11:33.952Z</time>
      </trkpt>
      <trkpt lat="43.59459" lon="3.90341">
        <ele>57</ele>
        <time>2016-04-17T16:11:36.970Z</time>
      </trkpt>
      <trkpt lat="43.59461" lon="3.90339">
        <ele>58</ele>
        <time>2016-04-17T16:11:37.951Z</time>
      </trkpt>
      <trkpt lat="43.59467" lon="3.90333">
        <ele>59</ele>
        <time>2016-04-17T16:11:40.973Z</time>
      </trkpt>
      <trkpt lat="43.5947" lon="3.90329">
        <ele>59</ele>
        <time>2016-04-17T16:11:41.954Z</time>
      </trkpt>
      <trkpt lat="43.59476" lon="3.90323">
        <ele>58</ele>
        <time>2016-04-17T16:11:43.980Z</time>
      </trkpt>
      <trkpt lat="43.59478" lon="3.9032">
        <ele>58</ele>
        <time>2016-04-17T16:11:44.949Z</time>
      </trkpt>
      <trkpt lat="43.59484" lon="3.90315">
        <ele>59</ele>
        <time>2016-04-17T16:11:47.097Z</time>
      </trkpt>
      <trkpt lat="43.59487" lon="3.90312">
        <ele>59</ele>
        <time>2016-04-17T16:11:47.950Z</time>
      </trkpt>
      <trkpt lat="43.59492" lon="3.90306">
        <ele>60</ele>
        <time>2016-04-17T16:11:49.981Z</time>
      </trkpt>
      <trkpt lat="43.59495" lon="3.90303">
        <ele>59</ele>
        <time>2016-04-17T16:11:50.954Z</time>
      </trkpt>
      <trkpt lat="43.59501" lon="3.90299">
        <ele>59</ele>
        <time>2016-04-17T16:11:52.976Z</time>
      </trkpt>
      <trkpt lat="43.59504" lon="3.90296">
        <ele>58</ele>
        <time>2016-04-17T16:11:53.954Z</time>
      </trkpt>
      <trkpt lat="43.59509" lon="3.90289">
        <ele>58</ele>
        <time>2016-04-17T16:11:55.981Z</time>
      </trkpt>
      <trkpt lat="43.59511" lon="3.90286">
        <ele>59</ele>
        <time>2016-04-17T16:11:56.954Z</time>
      </trkpt>
      <trkpt lat="43.59516" lon="3.90281">
        <ele>58</ele>
        <time>2016-04-17T16:11:58.971Z</time>
      </trkpt>
      <trkpt lat="43.5952" lon="3.90277">
        <ele>58</ele>
        <time>2016-04-17T16:12:00.088Z</time>
      </trkpt>
      <trkpt lat="43.59525" lon="3.9027">
        <ele>58</ele>
        <time>2016-04-17T16:12:01.971Z</time>
      </trkpt>
      <trkpt lat="43.59529" lon="3.90267">
        <ele>55</ele>
        <time>2016-04-17T16:12:02.951Z</time>
      </trkpt>
      <trkpt lat="43.59534" lon="3.90259">
        <ele>56</ele>
        <time>2016-04-17T16:12:04.979Z</time>
      </trkpt>
      <trkpt lat="43.59536" lon="3.90254">
        <ele>55</ele>
        <time>2016-04-17T16:12:05.950Z</time>
      </trkpt>
      <trkpt lat="43.59541" lon="3.90247">
        <ele>56</ele>
        <time>2016-04-17T16:12:07.981Z</time>
      </trkpt>
      <trkpt lat="43.59543" lon="3.90243">
        <ele>57</ele>
        <time>2016-04-17T16:12:08.954Z</time>
      </trkpt>
      <trkpt lat="43.59547" lon="3.90239">
        <ele>55</ele>
        <time>2016-04-17T16:12:09.984Z</time>
      </trkpt>
      <trkpt lat="43.5955" lon="3.90235">
        <ele>55</ele>
        <time>2016-04-17T16:12:10.968Z</time>
      </trkpt>
      <trkpt lat="43.59554" lon="3.90225">
        <ele>57</ele>
        <time>2016-04-17T16:12:13.989Z</time>
      </trkpt>
      <trkpt lat="43.59556" lon="3.90221">
        <ele>56</ele>
        <time>2016-04-17T16:12:14.951Z</time>
      </trkpt>
      <trkpt lat="43.59562" lon="3.90214">
        <ele>55</ele>
        <time>2016-04-17T16:12:16.984Z</time>
      </trkpt>
      <trkpt lat="43.59564" lon="3.9021">
        <ele>55</ele>
        <time>2016-04-17T16:12:17.953Z</time>
      </trkpt>
      <trkpt lat="43.59569" lon="3.90202">
        <ele>56</ele>
        <time>2016-04-17T16:12:19.980Z</time>
      </trkpt>
      <trkpt lat="43.59571" lon="3.90197">
        <ele>56</ele>
        <time>2016-04-17T16:12:20.949Z</time>
      </trkpt>
      <trkpt lat="43.59575" lon="3.90191">
        <ele>56</ele>
        <time>2016-04-17T16:12:22.982Z</time>
      </trkpt>
      <trkpt lat="43.59577" lon="3.90188">
        <ele>55</ele>
        <time>2016-04-17T16:12:23.950Z</time>
      </trkpt>
      <trkpt lat="43.5958" lon="3.9018">
        <ele>57</ele>
        <time>2016-04-17T16:12:26.040Z</time>
      </trkpt>
      <trkpt lat="43.59583" lon="3.90177">
        <ele>56</ele>
        <time>2016-04-17T16:12:26.979Z</time>
      </trkpt>
      <trkpt lat="43.59586" lon="3.90168">
        <ele>59</ele>
        <time>2016-04-17T16:12:28.980Z</time>
      </trkpt>
      <trkpt lat="43.59588" lon="3.90164">
        <ele>59</ele>
        <time>2016-04-17T16:12:29.954Z</time>
      </trkpt>
      <trkpt lat="43.59591" lon="3.90158">
        <ele>60</ele>
        <time>2016-04-17T16:12:31.977Z</time>
      </trkpt>
      <trkpt lat="43.59594" lon="3.90155">
        <ele>60</ele>
        <time>2016-04-17T16:12:32.949Z</time>
      </trkpt>
      <trkpt lat="43.59598" lon="3.90148">
        <ele>59</ele>
        <time>2016-04-17T16:12:34.982Z</time>
      </trkpt>
      <trkpt lat="43.59602" lon="3.90146">
        <ele>59</ele>
        <time>2016-04-17T16:12:35.950Z</time>
      </trkpt>
      <trkpt lat="43.59608" lon="3.90137">
        <ele>59</ele>
        <time>2016-04-17T16:12:38.979Z</time>
      </trkpt>
      <trkpt lat="43.59614" lon="3.90135">
        <ele>55</ele>
        <time>2016-04-17T16:12:39.952Z</time>
      </trkpt>
      <trkpt lat="43.5962" lon="3.90129">
        <ele>56</ele>
        <time>2016-04-17T16:12:41.980Z</time>
      </trkpt>
      <trkpt lat="43.59622" lon="3.90126">
        <ele>56</ele>
        <time>2016-04-17T16:12:42.982Z</time>
      </trkpt>
      <trkpt lat="43.59626" lon="3.90119">
        <ele>56</ele>
        <time>2016-04-17T16:12:44.970Z</time>
      </trkpt>
      <trkpt lat="43.59628" lon="3.90116">
        <ele>58</ele>
        <time>2016-04-17T16:12:45.950Z</time>
      </trkpt>
      <trkpt lat="43.59631" lon="3.90108">
        <ele>59</ele>
        <time>2016-04-17T16:12:47.976Z</time>
      </trkpt>
      <trkpt lat="43.59634" lon="3.90105">
        <ele>59</ele>
        <time>2016-04-17T16:12:48.945Z</time>
      </trkpt>
      <trkpt lat="43.59638" lon="3.90099">
        <ele>61</ele>
        <time>2016-04-17T16:12:50.972Z</time>
      </trkpt>
      <trkpt lat="43.59641" lon="3.90095">
        <ele>59</ele>
        <time>2016-04-17T16:12:51.951Z</time>
      </trkpt>
      <trkpt lat="43.59645" lon="3.90086">
        <ele>61</ele>
        <time>2016-04-17T16:12:53.980Z</time>
      </trkpt>
      <trkpt lat="43.59648" lon="3.90084">
        <ele>61</ele>
        <time>2016-04-17T16:12:54.951Z</time>
      </trkpt>
      <trkpt lat="43.59652" lon="3.90075">
        <ele>61</ele>
        <time>2016-04-17T16:12:56.972Z</time>
      </trkpt>
      <trkpt lat="43.59654" lon="3.90072">
        <ele>62</ele>
        <time>2016-04-17T16:12:57.952Z</time>
      </trkpt>
      <trkpt lat="43.59658" lon="3.90063">
        <ele>62</ele>
        <time>2016-04-17T16:12:59.979Z</time>
      </trkpt>
      <trkpt lat="43.59661" lon="3.90059">
        <ele>62</ele>
        <time>2016-04-17T16:13:00.945Z</time>
      </trkpt>
      <trkpt lat="43.59668" lon="3.90054">
        <ele>62</ele>
        <time>2016-04-17T16:13:02.982Z</time>
      </trkpt>
      <trkpt lat="43.5967" lon="3.90051">
        <ele>63</ele>
        <time>2016-04-17T16:13:03.951Z</time>
      </trkpt>
      <trkpt lat="43.59675" lon="3.90047">
        <ele>60</ele>
        <time>2016-04-17T16:13:04.980Z</time>
      </trkpt>
      <trkpt lat="43.59678" lon="3.90044">
        <ele>60</ele>
        <time>2016-04-17T16:13:05.950Z</time>
      </trkpt>
      <trkpt lat="43.59684" lon="3.90039">
        <ele>59</ele>
        <time>2016-04-17T16:13:08.034Z</time>
      </trkpt>
      <trkpt lat="43.59686" lon="3.90035">
        <ele>60</ele>
        <time>2016-04-17T16:13:08.951Z</time>
      </trkpt>
      <trkpt lat="43.59691" lon="3.90027">
        <ele>60</ele>
        <time>2016-04-17T16:13:10.971Z</time>
      </trkpt>
      <trkpt lat="43.59693" lon="3.90022">
        <ele>60</ele>
        <time>2016-04-17T16:13:11.951Z</time>
      </trkpt>
      <trkpt lat="43.59697" lon="3.90015">
        <ele>60</ele>
        <time>2016-04-17T16:13:13.984Z</time>
      </trkpt>
      <trkpt lat="43.59698" lon="3.90011">
        <ele>61</ele>
        <time>2016-04-17T16:13:14.982Z</time>
      </trkpt>
      <trkpt lat="43.59703" lon="3.90001">
        <ele>60</ele>
        <time>2016-04-17T16:13:16.970Z</time>
      </trkpt>
      <trkpt lat="43.59706" lon="3.89996">
        <ele>60</ele>
        <time>2016-04-17T16:13:17.949Z</time>
      </trkpt>
      <trkpt lat="43.59708" lon="3.89986">
        <ele>60</ele>
        <time>2016-04-17T16:13:19.968Z</time>
      </trkpt>
      <trkpt lat="43.59709" lon="3.89981">
        <ele>60</ele>
        <time>2016-04-17T16:13:20.966Z</time>
      </trkpt>
      <trkpt lat="43.59714" lon="3.89974">
        <ele>60</ele>
        <time>2016-04-17T16:13:21.974Z</time>
      </trkpt>
      <trkpt lat="43.5972" lon="3.89976">
        <ele>60</ele>
        <time>2016-04-17T16:13:22.950Z</time>
      </trkpt>
      <trkpt lat="43.59725" lon="3.89971">
        <ele>63</ele>
        <time>2016-04-17T16:13:24.980Z</time>
      </trkpt>
      <trkpt lat="43.59728" lon="3.89969">
        <ele>63</ele>
        <time>2016-04-17T16:13:25.969Z</time>
      </trkpt>
      <trkpt lat="43.59733" lon="3.89963">
        <ele>63</ele>
        <time>2016-04-17T16:13:28.980Z</time>
      </trkpt>
      <trkpt lat="43.59735" lon="3.89959">
        <ele>63</ele>
        <time>2016-04-17T16:13:29.953Z</time>
      </trkpt>
      <trkpt lat="43.5974" lon="3.89954">
        <ele>64</ele>
        <time>2016-04-17T16:13:31.980Z</time>
      </trkpt>
      <trkpt lat="43.59743" lon="3.89952">
        <ele>65</ele>
        <time>2016-04-17T16:13:32.950Z</time>
      </trkpt>
      <trkpt lat="43.59749" lon="3.89944">
        <ele>67</ele>
        <time>2016-04-17T16:13:37.107Z</time>
      </trkpt>
      <trkpt lat="43.5975" lon="3.89942">
        <ele>67</ele>
        <time>2016-04-17T16:13:37.953Z</time>
      </trkpt>
      <trkpt lat="43.59757" lon="3.89936">
        <ele>68</ele>
        <time>2016-04-17T16:13:40.969Z</time>
      </trkpt>
      <trkpt lat="43.59759" lon="3.89936">
        <ele>68</ele>
        <time>2016-04-17T16:13:41.951Z</time>
      </trkpt>
      <trkpt lat="43.59766" lon="3.89929">
        <ele>69</ele>
        <time>2016-04-17T16:13:44.981Z</time>
      </trkpt>
      <trkpt lat="43.59771" lon="3.89928">
        <ele>66</ele>
        <time>2016-04-17T16:13:45.951Z</time>
      </trkpt>
      <trkpt lat="43.59778" lon="3.89922">
        <ele>66</ele>
        <time>2016-04-17T16:13:47.981Z</time>
      </trkpt>
      <trkpt lat="43.59781" lon="3.8992">
        <ele>66</ele>
        <time>2016-04-17T16:13:48.951Z</time>
      </trkpt>
      <trkpt lat="43.59788" lon="3.89914">
        <ele>67</ele>
        <time>2016-04-17T16:13:51.998Z</time>
      </trkpt>
      <trkpt lat="43.5979" lon="3.89913">
        <ele>67</ele>
        <time>2016-04-17T16:13:52.948Z</time>
      </trkpt>
      <trkpt lat="43.59797" lon="3.89909">
        <ele>65</ele>
        <time>2016-04-17T16:13:54.983Z</time>
      </trkpt>
      <trkpt lat="43.598" lon="3.89908">
        <ele>65</ele>
        <time>2016-04-17T16:13:55.951Z</time>
      </trkpt>
      <trkpt lat="43.59808" lon="3.89905">
        <ele>66</ele>
        <time>2016-04-17T16:13:57.979Z</time>
      </trkpt>
      <trkpt lat="43.59811" lon="3.89903">
        <ele>66</ele>
        <time>2016-04-17T16:13:58.947Z</time>
      </trkpt>
      <trkpt lat="43.59819" lon="3.89901">
        <ele>65</ele>
        <time>2016-04-17T16:14:00.981Z</time>
      </trkpt>
      <trkpt lat="43.59822" lon="3.89899">
        <ele>65</ele>
        <time>2016-04-17T16:14:01.946Z</time>
      </trkpt>
      <trkpt lat="43.59829" lon="3.89896">
        <ele>65</ele>
        <time>2016-04-17T16:14:03.984Z</time>
      </trkpt>
      <trkpt lat="43.59834" lon="3.89891">
        <ele>66</ele>
        <time>2016-04-17T16:14:04.970Z</time>
      </trkpt>
      <trkpt lat="43.59841" lon="3.89888">
        <ele>65</ele>
        <time>2016-04-17T16:14:06.981Z</time>
      </trkpt>
      <trkpt lat="43.59845" lon="3.89886">
        <ele>66</ele>
        <time>2016-04-17T16:14:07.952Z</time>
      </trkpt>
      <trkpt lat="43.5985" lon="3.89881">
        <ele>68</ele>
        <time>2016-04-17T16:14:09.980Z</time>
      </trkpt>
      <trkpt lat="43.59853" lon="3.89879">
        <ele>69</ele>
        <time>2016-04-17T16:14:10.951Z</time>
      </trkpt>
      <trkpt lat="43.59859" lon="3.89872">
        <ele>69</ele>
        <time>2016-04-17T16:14:13.980Z</time>
      </trkpt>
      <trkpt lat="43.59861" lon="3.8987">
        <ele>68</ele>
        <time>2016-04-17T16:14:14.952Z</time>
      </trkpt>
      <trkpt lat="43.59868" lon="3.89867">
        <ele>66</ele>
        <time>2016-04-17T16:14:17.982Z</time>
      </trkpt>
      <trkpt lat="43.59871" lon="3.89866">
        <ele>66</ele>
        <time>2016-04-17T16:14:18.954Z</time>
      </trkpt>
      <trkpt lat="43.59877" lon="3.89864">
        <ele>66</ele>
        <time>2016-04-17T16:14:20.980Z</time>
      </trkpt>
      <trkpt lat="43.5988" lon="3.89866">
        <ele>63</ele>
        <time>2016-04-17T16:14:21.952Z</time>
      </trkpt>
      <trkpt lat="43.59886" lon="3.89864">
        <ele>62</ele>
        <time>2016-04-17T16:14:23.996Z</time>
      </trkpt>
      <trkpt lat="43.5989" lon="3.89862">
        <ele>62</ele>
        <time>2016-04-17T16:14:24.953Z</time>
      </trkpt>
      <trkpt lat="43.59898" lon="3.89859">
        <ele>63</ele>
        <time>2016-04-17T16:14:27.978Z</time>
      </trkpt>
      <trkpt lat="43.599" lon="3.89856">
        <ele>63</ele>
        <time>2016-04-17T16:14:28.953Z</time>
      </trkpt>
      <trkpt lat="43.59906" lon="3.89853">
        <ele>63</ele>
        <time>2016-04-17T16:14:30.978Z</time>
      </trkpt>
      <trkpt lat="43.5991" lon="3.89851">
        <ele>63</ele>
        <time>2016-04-17T16:14:31.953Z</time>
      </trkpt>
      <trkpt lat="43.59916" lon="3.89846">
        <ele>63</ele>
        <time>2016-04-17T16:14:33.976Z</time>
      </trkpt>
      <trkpt lat="43.5992" lon="3.89843">
        <ele>63</ele>
        <time>2016-04-17T16:14:34.954Z</time>
      </trkpt>
      <trkpt lat="43.59926" lon="3.8984">
        <ele>62</ele>
        <time>2016-04-17T16:14:36.980Z</time>
      </trkpt>
      <trkpt lat="43.59929" lon="3.89838">
        <ele>62</ele>
        <time>2016-04-17T16:14:37.954Z</time>
      </trkpt>
      <trkpt lat="43.59936" lon="3.89833">
        <ele>62</ele>
        <time>2016-04-17T16:14:39.999Z</time>
      </trkpt>
      <trkpt lat="43.5994" lon="3.89831">
        <ele>63</ele>
        <time>2016-04-17T16:14:40.952Z</time>
      </trkpt>
      <trkpt lat="43.59946" lon="3.89826">
        <ele>62</ele>
        <time>2016-04-17T16:14:42.978Z</time>
      </trkpt>
      <trkpt lat="43.59949" lon="3.89824">
        <ele>62</ele>
        <time>2016-04-17T16:14:43.953Z</time>
      </trkpt>
      <trkpt lat="43.59953" lon="3.8982">
        <ele>62</ele>
        <time>2016-04-17T16:14:45.976Z</time>
      </trkpt>
      <trkpt lat="43.59956" lon="3.89818">
        <ele>61</ele>
        <time>2016-04-17T16:14:46.954Z</time>
      </trkpt>
      <trkpt lat="43.59964" lon="3.89811">
        <ele>61</ele>
        <time>2016-04-17T16:14:49.980Z</time>
      </trkpt>
      <trkpt lat="43.59966" lon="3.89808">
        <ele>62</ele>
        <time>2016-04-17T16:14:50.952Z</time>
      </trkpt>
      <trkpt lat="43.59973" lon="3.89804">
        <ele>62</ele>
        <time>2016-04-17T16:14:52.977Z</time>
      </trkpt>
      <trkpt lat="43.59976" lon="3.89802">
        <ele>63</ele>
        <time>2016-04-17T16:14:53.953Z</time>
      </trkpt>
      <trkpt lat="43.59981" lon="3.89799">
        <ele>63</ele>
        <time>2016-04-17T16:14:55.979Z</time>
      </trkpt>
      <trkpt lat="43.59983" lon="3.89795">
        <ele>63</ele>
        <time>2016-04-17T16:14:56.954Z</time>
      </trkpt>
      <trkpt lat="43.59989" lon="3.89791">
        <ele>63</ele>
        <time>2016-04-17T16:14:58.979Z</time>
      </trkpt>
      <trkpt lat="43.59992" lon="3.89789">
        <ele>63</ele>
        <time>2016-04-17T16:14:59.954Z</time>
      </trkpt>
      <trkpt lat="43.59999" lon="3.89783">
        <ele>60</ele>
        <time>2016-04-17T16:15:01.969Z</time>
      </trkpt>
      <trkpt lat="43.6" lon="3.89781">
        <ele>60</ele>
        <time>2016-04-17T16:15:02.953Z</time>
      </trkpt>
      <trkpt lat="43.60007" lon="3.89779">
        <ele>62</ele>
        <time>2016-04-17T16:15:04.978Z</time>
      </trkpt>
      <trkpt lat="43.6001" lon="3.89776">
        <ele>62</ele>
        <time>2016-04-17T16:15:05.954Z</time>
      </trkpt>
      <trkpt lat="43.60015" lon="3.89773">
        <ele>63</ele>
        <time>2016-04-17T16:15:07.977Z</time>
      </trkpt>
      <trkpt lat="43.60018" lon="3.8977">
        <ele>61</ele>
        <time>2016-04-17T16:15:08.953Z</time>
      </trkpt>
      <trkpt lat="43.60021" lon="3.89765">
        <ele>61</ele>
        <time>2016-04-17T16:15:09.976Z</time>
      </trkpt>
      <trkpt lat="43.60024" lon="3.89757">
        <ele>60</ele>
        <time>2016-04-17T16:15:10.953Z</time>
      </trkpt>
      <trkpt lat="43.60029" lon="3.89749">
        <ele>59</ele>
        <time>2016-04-17T16:15:11.976Z</time>
      </trkpt>
      <trkpt lat="43.60033" lon="3.89741">
        <ele>59</ele>
        <time>2016-04-17T16:15:12.949Z</time>
      </trkpt>
      <trkpt lat="43.60038" lon="3.89731">
        <ele>59</ele>
        <time>2016-04-17T16:15:13.981Z</time>
      </trkpt>
      <trkpt lat="43.60043" lon="3.89721">
        <ele>58</ele>
        <time>2016-04-17T16:15:14.951Z</time>
      </trkpt>
      <trkpt lat="43.60048" lon="3.89714">
        <ele>58</ele>
        <time>2016-04-17T16:15:15.981Z</time>
      </trkpt>
      <trkpt lat="43.60053" lon="3.89705">
        <ele>59</ele>
        <time>2016-04-17T16:15:16.975Z</time>
      </trkpt>
      <trkpt lat="43.60058" lon="3.89697">
        <ele>59</ele>
        <time>2016-04-17T16:15:17.966Z</time>
      </trkpt>
      <trkpt lat="43.60063" lon="3.89691">
        <ele>59</ele>
        <time>2016-04-17T16:15:18.969Z</time>
      </trkpt>
      <trkpt lat="43.60068" lon="3.89681">
        <ele>59</ele>
        <time>2016-04-17T16:15:20.975Z</time>
      </trkpt>
      <trkpt lat="43.60073" lon="3.89672">
        <ele>58</ele>
        <time>2016-04-17T16:15:21.990Z</time>
      </trkpt>
      <trkpt lat="43.60079" lon="3.89669">
        <ele>59</ele>
        <time>2016-04-17T16:15:22.977Z</time>
      </trkpt>
      <trkpt lat="43.60083" lon="3.89666">
        <ele>59</ele>
        <time>2016-04-17T16:15:24.089Z</time>
      </trkpt>
      <trkpt lat="43.60088" lon="3.89663">
        <ele>60</ele>
        <time>2016-04-17T16:15:24.979Z</time>
      </trkpt>
      <trkpt lat="43.60093" lon="3.89662">
        <ele>59</ele>
        <time>2016-04-17T16:15:25.952Z</time>
      </trkpt>
      <trkpt lat="43.601" lon="3.89655">
        <ele>61</ele>
        <time>2016-04-17T16:15:31.982Z</time>
      </trkpt>
      <trkpt lat="43.60102" lon="3.89654">
        <ele>62</ele>
        <time>2016-04-17T16:15:32.952Z</time>
      </trkpt>
      <trkpt lat="43.6011" lon="3.89649">
        <ele>65</ele>
        <time>2016-04-17T16:15:36.981Z</time>
      </trkpt>
      <trkpt lat="43.60112" lon="3.89648">
        <ele>64</ele>
        <time>2016-04-17T16:15:37.977Z</time>
      </trkpt>
      <trkpt lat="43.6012" lon="3.89642">
        <ele>65</ele>
        <time>2016-04-17T16:15:43.977Z</time>
      </trkpt>
      <trkpt lat="43.60121" lon="3.8964">
        <ele>65</ele>
        <time>2016-04-17T16:15:44.948Z</time>
      </trkpt>
      <trkpt lat="43.60129" lon="3.89635">
        <ele>62</ele>
        <time>2016-04-17T16:15:48.969Z</time>
      </trkpt>
      <trkpt lat="43.60132" lon="3.89633">
        <ele>58</ele>
        <time>2016-04-17T16:15:49.951Z</time>
      </trkpt>
      <trkpt lat="43.60139" lon="3.89631">
        <ele>57</ele>
        <time>2016-04-17T16:15:53.980Z</time>
      </trkpt>
      <trkpt lat="43.60142" lon="3.8963">
        <ele>57</ele>
        <time>2016-04-17T16:15:54.950Z</time>
      </trkpt>
      <trkpt lat="43.60148" lon="3.89627">
        <ele>58</ele>
        <time>2016-04-17T16:15:57.970Z</time>
      </trkpt>
      <trkpt lat="43.60152" lon="3.89626">
        <ele>58</ele>
        <time>2016-04-17T16:15:58.945Z</time>
      </trkpt>
      <trkpt lat="43.60159" lon="3.89621">
        <ele>58</ele>
        <time>2016-04-17T16:16:02.963Z</time>
      </trkpt>
      <trkpt lat="43.60161" lon="3.89622">
        <ele>57</ele>
        <time>2016-04-17T16:16:03.973Z</time>
      </trkpt>
      <trkpt lat="43.60169" lon="3.89622">
        <ele>56</ele>
        <time>2016-04-17T16:16:05.984Z</time>
      </trkpt>
      <trkpt lat="43.60171" lon="3.89622">
        <ele>57</ele>
        <time>2016-04-17T16:16:06.954Z</time>
      </trkpt>
      <trkpt lat="43.60177" lon="3.89625">
        <ele>58</ele>
        <time>2016-04-17T16:16:09.980Z</time>
      </trkpt>
      <trkpt lat="43.6018" lon="3.89627">
        <ele>58</ele>
        <time>2016-04-17T16:16:10.944Z</time>
      </trkpt>
      <trkpt lat="43.60188" lon="3.89631">
        <ele>55</ele>
        <time>2016-04-17T16:16:13.971Z</time>
      </trkpt>
      <trkpt lat="43.60191" lon="3.89633">
        <ele>54</ele>
        <time>2016-04-17T16:16:14.952Z</time>
      </trkpt>
      <trkpt lat="43.60199" lon="3.89634">
        <ele>53</ele>
        <time>2016-04-17T16:16:18.045Z</time>
      </trkpt>
      <trkpt lat="43.60201" lon="3.89635">
        <ele>54</ele>
        <time>2016-04-17T16:16:18.947Z</time>
      </trkpt>
      <trkpt lat="43.60209" lon="3.89637">
        <ele>54</ele>
        <time>2016-04-17T16:16:22.046Z</time>
      </trkpt>
      <trkpt lat="43.60212" lon="3.89637">
        <ele>54</ele>
        <time>2016-04-17T16:16:22.950Z</time>
      </trkpt>
      <trkpt lat="43.60218" lon="3.89637">
        <ele>54</ele>
        <time>2016-04-17T16:16:24.998Z</time>
      </trkpt>
      <trkpt lat="43.60221" lon="3.89641">
        <ele>53</ele>
        <time>2016-04-17T16:16:25.950Z</time>
      </trkpt>
      <trkpt lat="43.60229" lon="3.89643">
        <ele>53</ele>
        <time>2016-04-17T16:16:29.981Z</time>
      </trkpt>
      <trkpt lat="43.60231" lon="3.89643">
        <ele>53</ele>
        <time>2016-04-17T16:16:31.106Z</time>
      </trkpt>
      <trkpt lat="43.60238" lon="3.89647">
        <ele>51</ele>
        <time>2016-04-17T16:16:33.984Z</time>
      </trkpt>
      <trkpt lat="43.60242" lon="3.89652">
        <ele>49</ele>
        <time>2016-04-17T16:16:34.947Z</time>
      </trkpt>
      <trkpt lat="43.60249" lon="3.89657">
        <ele>51</ele>
        <time>2016-04-17T16:16:37.967Z</time>
      </trkpt>
      <trkpt lat="43.60252" lon="3.89658">
        <ele>52</ele>
        <time>2016-04-17T16:16:38.950Z</time>
      </trkpt>
      <trkpt lat="43.60259" lon="3.8966">
        <ele>50</ele>
        <time>2016-04-17T16:16:41.009Z</time>
      </trkpt>
      <trkpt lat="43.60263" lon="3.8966">
        <ele>50</ele>
        <time>2016-04-17T16:16:41.954Z</time>
      </trkpt>
      <trkpt lat="43.60269" lon="3.89662">
        <ele>49</ele>
        <time>2016-04-17T16:16:43.980Z</time>
      </trkpt>
      <trkpt lat="43.60272" lon="3.89663">
        <ele>49</ele>
        <time>2016-04-17T16:16:44.953Z</time>
      </trkpt>
      <trkpt lat="43.6028" lon="3.89667">
        <ele>48</ele>
        <time>2016-04-17T16:16:49.149Z</time>
      </trkpt>
      <trkpt lat="43.60285" lon="3.89668">
        <ele>48</ele>
        <time>2016-04-17T16:16:49.952Z</time>
      </trkpt>
      <trkpt lat="43.60291" lon="3.89667">
        <ele>49</ele>
        <time>2016-04-17T16:16:51.981Z</time>
      </trkpt>
      <trkpt lat="43.60295" lon="3.89667">
        <ele>49</ele>
        <time>2016-04-17T16:16:52.965Z</time>
      </trkpt>
      <trkpt lat="43.60301" lon="3.89674">
        <ele>47</ele>
        <time>2016-04-17T16:16:55.982Z</time>
      </trkpt>
      <trkpt lat="43.60302" lon="3.89676">
        <ele>47</ele>
        <time>2016-04-17T16:16:56.978Z</time>
      </trkpt>
      <trkpt lat="43.60309" lon="3.89682">
        <ele>46</ele>
        <time>2016-04-17T16:17:00.007Z</time>
      </trkpt>
      <trkpt lat="43.60311" lon="3.89683">
        <ele>46</ele>
        <time>2016-04-17T16:17:00.947Z</time>
      </trkpt>
      <trkpt lat="43.60317" lon="3.8969">
        <ele>45</ele>
        <time>2016-04-17T16:17:03.977Z</time>
      </trkpt>
      <trkpt lat="43.60319" lon="3.89692">
        <ele>45</ele>
        <time>2016-04-17T16:17:04.949Z</time>
      </trkpt>
      <trkpt lat="43.60326" lon="3.89694">
        <ele>46</ele>
        <time>2016-04-17T16:17:06.982Z</time>
      </trkpt>
      <trkpt lat="43.60328" lon="3.89695">
        <ele>51</ele>
        <time>2016-04-17T16:17:07.948Z</time>
      </trkpt>
      <trkpt lat="43.60334" lon="3.89698">
        <ele>50</ele>
        <time>2016-04-17T16:17:09.982Z</time>
      </trkpt>
      <trkpt lat="43.60337" lon="3.897">
        <ele>48</ele>
        <time>2016-04-17T16:17:10.951Z</time>
      </trkpt>
      <trkpt lat="43.60343" lon="3.89707">
        <ele>49</ele>
        <time>2016-04-17T16:17:13.984Z</time>
      </trkpt>
      <trkpt lat="43.60345" lon="3.89709">
        <ele>49</ele>
        <time>2016-04-17T16:17:15.088Z</time>
      </trkpt>
      <trkpt lat="43.60353" lon="3.89716">
        <ele>49</ele>
        <time>2016-04-17T16:17:17.981Z</time>
      </trkpt>
      <trkpt lat="43.60356" lon="3.89717">
        <ele>49</ele>
        <time>2016-04-17T16:17:18.954Z</time>
      </trkpt>
      <trkpt lat="43.60364" lon="3.89723">
        <ele>49</ele>
        <time>2016-04-17T16:17:21.980Z</time>
      </trkpt>
      <trkpt lat="43.60365" lon="3.89729">
        <ele>50</ele>
        <time>2016-04-17T16:17:22.950Z</time>
      </trkpt>
      <trkpt lat="43.60372" lon="3.89736">
        <ele>51</ele>
        <time>2016-04-17T16:17:27.003Z</time>
      </trkpt>
      <trkpt lat="43.60373" lon="3.8974">
        <ele>51</ele>
        <time>2016-04-17T16:17:27.951Z</time>
      </trkpt>
      <trkpt lat="43.60379" lon="3.89744">
        <ele>49</ele>
        <time>2016-04-17T16:17:29.979Z</time>
      </trkpt>
      <trkpt lat="43.60383" lon="3.89744">
        <ele>49</ele>
        <time>2016-04-17T16:17:30.968Z</time>
      </trkpt>
      <trkpt lat="43.6039" lon="3.89746">
        <ele>48</ele>
        <time>2016-04-17T16:17:33.983Z</time>
      </trkpt>
      <trkpt lat="43.60393" lon="3.89746">
        <ele>47</ele>
        <time>2016-04-17T16:17:34.946Z</time>
      </trkpt>
      <trkpt lat="43.60398" lon="3.89751">
        <ele>50</ele>
        <time>2016-04-17T16:17:37.969Z</time>
      </trkpt>
      <trkpt lat="43.60401" lon="3.89753">
        <ele>48</ele>
        <time>2016-04-17T16:17:38.976Z</time>
      </trkpt>
      <trkpt lat="43.6041" lon="3.89753">
        <ele>48</ele>
        <time>2016-04-17T16:17:42.974Z</time>
      </trkpt>
      <trkpt lat="43.60411" lon="3.89754">
        <ele>48</ele>
        <time>2016-04-17T16:17:43.951Z</time>
      </trkpt>
      <trkpt lat="43.60409" lon="3.89743">
        <ele>54</ele>
        <time>2016-04-17T16:17:48.989Z</time>
      </trkpt>
      <trkpt lat="43.60408" lon="3.8974">
        <ele>53</ele>
        <time>2016-04-17T16:17:49.952Z</time>
      </trkpt>
      <trkpt lat="43.60409" lon="3.8973">
        <ele>55</ele>
        <time>2016-04-17T16:17:53.980Z</time>
      </trkpt>
      <trkpt lat="43.60408" lon="3.89727">
        <ele>55</ele>
        <time>2016-04-17T16:17:54.980Z</time>
      </trkpt>
      <trkpt lat="43.60406" lon="3.89716">
        <ele>55</ele>
        <time>2016-04-17T16:17:58.985Z</time>
      </trkpt>
      <trkpt lat="43.60404" lon="3.89714">
        <ele>55</ele>
        <time>2016-04-17T16:17:59.973Z</time>
      </trkpt>
      <trkpt lat="43.60402" lon="3.89702">
        <ele>57</ele>
        <time>2016-04-17T16:18:02.981Z</time>
      </trkpt>
      <trkpt lat="43.60402" lon="3.89698">
        <ele>57</ele>
        <time>2016-04-17T16:18:03.951Z</time>
      </trkpt>
      <trkpt lat="43.60403" lon="3.89687">
        <ele>59</ele>
        <time>2016-04-17T16:18:06.981Z</time>
      </trkpt>
      <trkpt lat="43.60404" lon="3.89682">
        <ele>59</ele>
        <time>2016-04-17T16:18:07.952Z</time>
      </trkpt>
      <trkpt lat="43.60404" lon="3.89671">
        <ele>61</ele>
        <time>2016-04-17T16:18:11.982Z</time>
      </trkpt>
      <trkpt lat="43.60405" lon="3.89669">
        <ele>61</ele>
        <time>2016-04-17T16:18:12.952Z</time>
      </trkpt>
      <trkpt lat="43.60404" lon="3.89659">
        <ele>64</ele>
        <time>2016-04-17T16:18:16.984Z</time>
      </trkpt>
      <trkpt lat="43.60404" lon="3.89656">
        <ele>64</ele>
        <time>2016-04-17T16:18:17.947Z</time>
      </trkpt>
      <trkpt lat="43.60405" lon="3.89646">
        <ele>64</ele>
        <time>2016-04-17T16:18:20.971Z</time>
      </trkpt>
      <trkpt lat="43.60406" lon="3.89643">
        <ele>65</ele>
        <time>2016-04-17T16:18:21.951Z</time>
      </trkpt>
      <trkpt lat="43.60406" lon="3.89631">
        <ele>65</ele>
        <time>2016-04-17T16:18:26.996Z</time>
      </trkpt>
      <trkpt lat="43.60407" lon="3.89629">
        <ele>65</ele>
        <time>2016-04-17T16:18:27.954Z</time>
      </trkpt>
      <trkpt lat="43.60414" lon="3.8963">
        <ele>65</ele>
        <time>2016-04-17T16:18:30.991Z</time>
      </trkpt>
      <trkpt lat="43.60416" lon="3.89631">
        <ele>66</ele>
        <time>2016-04-17T16:18:31.953Z</time>
      </trkpt>
      <trkpt lat="43.60424" lon="3.89636">
        <ele>66</ele>
        <time>2016-04-17T16:18:34.976Z</time>
      </trkpt>
      <trkpt lat="43.60427" lon="3.89635">
        <ele>66</ele>
        <time>2016-04-17T16:18:35.954Z</time>
      </trkpt>
      <trkpt lat="43.6042" lon="3.8963">
        <ele>68</ele>
        <time>2016-04-17T16:18:41.978Z</time>
      </trkpt>
      <trkpt lat="43.60418" lon="3.8963">
        <ele>69</ele>
        <time>2016-04-17T16:18:42.952Z</time>
      </trkpt>
      <trkpt lat="43.60414" lon="3.8962">
        <ele>70</ele>
        <time>2016-04-17T16:18:48.003Z</time>
      </trkpt>
      <trkpt lat="43.60414" lon="3.89617">
        <ele>70</ele>
        <time>2016-04-17T16:18:48.952Z</time>
      </trkpt>
      <trkpt lat="43.60415" lon="3.89606">
        <ele>69</ele>
        <time>2016-04-17T16:18:51.978Z</time>
      </trkpt>
      <trkpt lat="43.60416" lon="3.89603">
        <ele>69</ele>
        <time>2016-04-17T16:18:52.953Z</time>
      </trkpt>
      <trkpt lat="43.60414" lon="3.89592">
        <ele>70</ele>
        <time>2016-04-17T16:18:56.974Z</time>
      </trkpt>
      <trkpt lat="43.60414" lon="3.89588">
        <ele>71</ele>
        <time>2016-04-17T16:18:57.954Z</time>
      </trkpt>
      <trkpt lat="43.60413" lon="3.89581">
        <ele>72</ele>
        <time>2016-04-17T16:19:00.026Z</time>
      </trkpt>
      <trkpt lat="43.60413" lon="3.89575">
        <ele>72</ele>
        <time>2016-04-17T16:19:00.952Z</time>
      </trkpt>
      <trkpt lat="43.60414" lon="3.89569">
        <ele>71</ele>
        <time>2016-04-17T16:19:01.976Z</time>
      </trkpt>
      <trkpt lat="43.60416" lon="3.89563">
        <ele>70</ele>
        <time>2016-04-17T16:19:02.952Z</time>
      </trkpt>
      <trkpt lat="43.60415" lon="3.89552">
        <ele>70</ele>
        <time>2016-04-17T16:19:04.982Z</time>
      </trkpt>
      <trkpt lat="43.60417" lon="3.89549">
        <ele>66</ele>
        <time>2016-04-17T16:19:05.955Z</time>
      </trkpt>
      <trkpt lat="43.60421" lon="3.89539">
        <ele>70</ele>
        <time>2016-04-17T16:19:14.979Z</time>
      </trkpt>
      <trkpt lat="43.60425" lon="3.89535">
        <ele>70</ele>
        <time>2016-04-17T16:19:15.955Z</time>
      </trkpt>
      <trkpt lat="43.60429" lon="3.89529">
        <ele>70</ele>
        <time>2016-04-17T16:19:17.979Z</time>
      </trkpt>
      <trkpt lat="43.60431" lon="3.89526">
        <ele>70</ele>
        <time>2016-04-17T16:19:18.953Z</time>
      </trkpt>
      <trkpt lat="43.6043" lon="3.89516">
        <ele>69</ele>
        <time>2016-04-17T16:19:22.033Z</time>
      </trkpt>
      <trkpt lat="43.6043" lon="3.89513">
        <ele>68</ele>
        <time>2016-04-17T16:19:22.955Z</time>
      </trkpt>
      <trkpt lat="43.60429" lon="3.89504">
        <ele>70</ele>
        <time>2016-04-17T16:19:26.974Z</time>
      </trkpt>
      <trkpt lat="43.60431" lon="3.89499">
        <ele>65</ele>
        <time>2016-04-17T16:19:27.953Z</time>
      </trkpt>
      <trkpt lat="43.6043" lon="3.89488">
        <ele>67</ele>
        <time>2016-04-17T16:19:31.989Z</time>
      </trkpt>
      <trkpt lat="43.6043" lon="3.89484">
        <ele>67</ele>
        <time>2016-04-17T16:19:32.952Z</time>
      </trkpt>
      <trkpt lat="43.60429" lon="3.89472">
        <ele>68</ele>
        <time>2016-04-17T16:19:37.973Z</time>
      </trkpt>
      <trkpt lat="43.60431" lon="3.89466">
        <ele>68</ele>
        <time>2016-04-17T16:19:38.950Z</time>
      </trkpt>
      <trkpt lat="43.60431" lon="3.89457">
        <ele>67</ele>
        <time>2016-04-17T16:19:40.999Z</time>
      </trkpt>
      <trkpt lat="43.60433" lon="3.89452">
        <ele>68</ele>
        <time>2016-04-17T16:19:41.951Z</time>
      </trkpt>
      <trkpt lat="43.60437" lon="3.89442">
        <ele>69</ele>
        <time>2016-04-17T16:19:43.980Z</time>
      </trkpt>
      <trkpt lat="43.60439" lon="3.89438">
        <ele>70</ele>
        <time>2016-04-17T16:19:44.953Z</time>
      </trkpt>
      <trkpt lat="43.60441" lon="3.89429">
        <ele>70</ele>
        <time>2016-04-17T16:19:46.982Z</time>
      </trkpt>
      <trkpt lat="43.60445" lon="3.89424">
        <ele>71</ele>
        <time>2016-04-17T16:19:47.954Z</time>
      </trkpt>
      <trkpt lat="43.60445" lon="3.89413">
        <ele>71</ele>
        <time>2016-04-17T16:19:49.978Z</time>
      </trkpt>
      <trkpt lat="43.60443" lon="3.89409">
        <ele>72</ele>
        <time>2016-04-17T16:19:50.954Z</time>
      </trkpt>
      <trkpt lat="43.60446" lon="3.89403">
        <ele>72</ele>
        <time>2016-04-17T16:19:51.981Z</time>
      </trkpt>
      <trkpt lat="43.60458" lon="3.89394">
        <ele>70</ele>
        <time>2016-04-17T16:19:52.954Z</time>
      </trkpt>
      <trkpt lat="43.60464" lon="3.89387">
        <ele>71</ele>
        <time>2016-04-17T16:19:53.977Z</time>
      </trkpt>
      <trkpt lat="43.60466" lon="3.89381">
        <ele>71</ele>
        <time>2016-04-17T16:19:54.954Z</time>
      </trkpt>
      <trkpt lat="43.60469" lon="3.8937">
        <ele>70</ele>
        <time>2016-04-17T16:19:57.980Z</time>
      </trkpt>
      <trkpt lat="43.60469" lon="3.89367">
        <ele>71</ele>
        <time>2016-04-17T16:19:58.956Z</time>
      </trkpt>
      <trkpt lat="43.60468" lon="3.89357">
        <ele>73</ele>
        <time>2016-04-17T16:20:03.979Z</time>
      </trkpt>
      <trkpt lat="43.60469" lon="3.89354">
        <ele>74</ele>
        <time>2016-04-17T16:20:04.954Z</time>
      </trkpt>
      <trkpt lat="43.60471" lon="3.8935">
        <ele>74</ele>
        <time>2016-04-17T16:20:05.999Z</time>
      </trkpt>
      <trkpt lat="43.60474" lon="3.89325">
        <ele>65</ele>
        <time>2016-04-17T16:20:10.970Z</time>
      </trkpt>
      <trkpt lat="43.60474" lon="3.89317">
        <ele>65</ele>
        <time>2016-04-17T16:20:12.978Z</time>
      </trkpt>
      <trkpt lat="43.60476" lon="3.89311">
        <ele>64</ele>
        <time>2016-04-17T16:20:13.954Z</time>
      </trkpt>
      <trkpt lat="43.60479" lon="3.89302">
        <ele>65</ele>
        <time>2016-04-17T16:20:16.980Z</time>
      </trkpt>
      <trkpt lat="43.60481" lon="3.89297">
        <ele>65</ele>
        <time>2016-04-17T16:20:17.954Z</time>
      </trkpt>
      <trkpt lat="43.60484" lon="3.89289">
        <ele>66</ele>
        <time>2016-04-17T16:20:19.977Z</time>
      </trkpt>
      <trkpt lat="43.60486" lon="3.89285">
        <ele>66</ele>
        <time>2016-04-17T16:20:20.953Z</time>
      </trkpt>
      <trkpt lat="43.6049" lon="3.89274">
        <ele>69</ele>
        <time>2016-04-17T16:20:24.977Z</time>
      </trkpt>
      <trkpt lat="43.60491" lon="3.8927">
        <ele>70</ele>
        <time>2016-04-17T16:20:25.968Z</time>
      </trkpt>
      <trkpt lat="43.60496" lon="3.89261">
        <ele>70</ele>
        <time>2016-04-17T16:20:27.976Z</time>
      </trkpt>
      <trkpt lat="43.60497" lon="3.89257">
        <ele>70</ele>
        <time>2016-04-17T16:20:28.954Z</time>
      </trkpt>
      <trkpt lat="43.60498" lon="3.89248">
        <ele>69</ele>
        <time>2016-04-17T16:20:31.978Z</time>
      </trkpt>
      <trkpt lat="43.60501" lon="3.89244">
        <ele>70</ele>
        <time>2016-04-17T16:20:33.085Z</time>
      </trkpt>
      <trkpt lat="43.60506" lon="3.89235">
        <ele>71</ele>
        <time>2016-04-17T16:20:35.981Z</time>
      </trkpt>
      <trkpt lat="43.60507" lon="3.89232">
        <ele>71</ele>
        <time>2016-04-17T16:20:36.951Z</time>
      </trkpt>
      <trkpt lat="43.60515" lon="3.89226">
        <ele>70</ele>
        <time>2016-04-17T16:20:38.982Z</time>
      </trkpt>
      <trkpt lat="43.60517" lon="3.89224">
        <ele>70</ele>
        <time>2016-04-17T16:20:39.976Z</time>
      </trkpt>
      <trkpt lat="43.60526" lon="3.89223">
        <ele>71</ele>
        <time>2016-04-17T16:20:42.976Z</time>
      </trkpt>
      <trkpt lat="43.60528" lon="3.89225">
        <ele>70</ele>
        <time>2016-04-17T16:20:44.011Z</time>
      </trkpt>
      <trkpt lat="43.60535" lon="3.89228">
        <ele>70</ele>
        <time>2016-04-17T16:20:45.971Z</time>
      </trkpt>
      <trkpt lat="43.60538" lon="3.89229">
        <ele>70</ele>
        <time>2016-04-17T16:20:46.947Z</time>
      </trkpt>
      <trkpt lat="43.60546" lon="3.89225">
        <ele>66</ele>
        <time>2016-04-17T16:20:51.984Z</time>
      </trkpt>
      <trkpt lat="43.60548" lon="3.89223">
        <ele>65</ele>
        <time>2016-04-17T16:20:52.959Z</time>
      </trkpt>
      <trkpt lat="43.60554" lon="3.89214">
        <ele>65</ele>
        <time>2016-04-17T16:20:56.031Z</time>
      </trkpt>
      <trkpt lat="43.60556" lon="3.89212">
        <ele>66</ele>
        <time>2016-04-17T16:20:56.955Z</time>
      </trkpt>
      <trkpt lat="43.60551" lon="3.89202">
        <ele>69</ele>
        <time>2016-04-17T16:21:02.976Z</time>
      </trkpt>
      <trkpt lat="43.60549" lon="3.89199">
        <ele>70</ele>
        <time>2016-04-17T16:21:03.957Z</time>
      </trkpt>
      <trkpt lat="43.60549" lon="3.89187">
        <ele>74</ele>
        <time>2016-04-17T16:21:07.980Z</time>
      </trkpt>
      <trkpt lat="43.60546" lon="3.89182">
        <ele>77</ele>
        <time>2016-04-17T16:21:08.954Z</time>
      </trkpt>
      <trkpt lat="43.60549" lon="3.89172">
        <ele>78</ele>
        <time>2016-04-17T16:21:10.980Z</time>
      </trkpt>
      <trkpt lat="43.60548" lon="3.89167">
        <ele>80</ele>
        <time>2016-04-17T16:21:11.957Z</time>
      </trkpt>
      <trkpt lat="43.60552" lon="3.89159">
        <ele>79</ele>
        <time>2016-04-17T16:21:14.017Z</time>
      </trkpt>
      <trkpt lat="43.60556" lon="3.89156">
        <ele>78</ele>
        <time>2016-04-17T16:21:14.954Z</time>
      </trkpt>
      <trkpt lat="43.6056" lon="3.89147">
        <ele>83</ele>
        <time>2016-04-17T16:21:17.985Z</time>
      </trkpt>
      <trkpt lat="43.60561" lon="3.89144">
        <ele>83</ele>
        <time>2016-04-17T16:21:18.954Z</time>
      </trkpt>
      <trkpt lat="43.60568" lon="3.89139">
        <ele>81</ele>
        <time>2016-04-17T16:21:21.980Z</time>
      </trkpt>
      <trkpt lat="43.60573" lon="3.89135">
        <ele>79</ele>
        <time>2016-04-17T16:21:22.977Z</time>
      </trkpt>
      <trkpt lat="43.60581" lon="3.8913">
        <ele>77</ele>
        <time>2016-04-17T16:21:24.979Z</time>
      </trkpt>
      <trkpt lat="43.60588" lon="3.89127">
        <ele>75</ele>
        <time>2016-04-17T16:21:25.954Z</time>
      </trkpt>
      <trkpt lat="43.60596" lon="3.89124">
        <ele>75</ele>
        <time>2016-04-17T16:21:27.978Z</time>
      </trkpt>
      <trkpt lat="43.60599" lon="3.89123">
        <ele>75</ele>
        <time>2016-04-17T16:21:28.954Z</time>
      </trkpt>
      <trkpt lat="43.60606" lon="3.89118">
        <ele>75</ele>
        <time>2016-04-17T16:21:30.996Z</time>
      </trkpt>
      <trkpt lat="43.60609" lon="3.89114">
        <ele>74</ele>
        <time>2016-04-17T16:21:31.953Z</time>
      </trkpt>
      <trkpt lat="43.60615" lon="3.89108">
        <ele>73</ele>
        <time>2016-04-17T16:21:33.978Z</time>
      </trkpt>
      <trkpt lat="43.60618" lon="3.89109">
        <ele>70</ele>
        <time>2016-04-17T16:21:34.953Z</time>
      </trkpt>
      <trkpt lat="43.60625" lon="3.89105">
        <ele>74</ele>
        <time>2016-04-17T16:21:39.979Z</time>
      </trkpt>
      <trkpt lat="43.60627" lon="3.89103">
        <ele>74</ele>
        <time>2016-04-17T16:21:40.954Z</time>
      </trkpt>
      <trkpt lat="43.60632" lon="3.89095">
        <ele>76</ele>
        <time>2016-04-17T16:21:45.978Z</time>
      </trkpt>
      <trkpt lat="43.6063" lon="3.89088">
        <ele>74</ele>
        <time>2016-04-17T16:21:46.953Z</time>
      </trkpt>
      <trkpt lat="43.60629" lon="3.8909">
        <ele>75</ele>
        <time>2016-04-17T16:21:49.981Z</time>
      </trkpt>
      <trkpt lat="43.6063" lon="3.89089">
        <ele>76</ele>
        <time>2016-04-17T16:21:50.954Z</time>
      </trkpt>
      <trkpt lat="43.6063" lon="3.8909">
        <ele>76</ele>
        <time>2016-04-17T16:21:52.979Z</time>
      </trkpt>
      <trkpt lat="43.60631" lon="3.89092">
        <ele>75</ele>
        <time>2016-04-17T16:21:53.954Z</time>
      </trkpt>
      <trkpt lat="43.60636" lon="3.89087">
        <ele>77</ele>
        <time>2016-04-17T16:21:58.978Z</time>
      </trkpt>
      <trkpt lat="43.6064" lon="3.89086">
        <ele>78</ele>
        <time>2016-04-17T16:21:59.976Z</time>
      </trkpt>
      <trkpt lat="43.60644" lon="3.89084">
        <ele>80</ele>
        <time>2016-04-17T16:22:01.979Z</time>
      </trkpt>
      <trkpt lat="43.6065" lon="3.89084">
        <ele>79</ele>
        <time>2016-04-17T16:22:02.952Z</time>
      </trkpt>
      <trkpt lat="43.60659" lon="3.89085">
        <ele>78</ele>
        <time>2016-04-17T16:22:03.977Z</time>
      </trkpt>
      <trkpt lat="43.60663" lon="3.89086">
        <ele>78</ele>
        <time>2016-04-17T16:22:04.958Z</time>
      </trkpt>
      <trkpt lat="43.60668" lon="3.89082">
        <ele>72</ele>
        <time>2016-04-17T16:22:05.963Z</time>
      </trkpt>
      <trkpt lat="43.60674" lon="3.89076">
        <ele>72</ele>
        <time>2016-04-17T16:22:06.959Z</time>
      </trkpt>
      <trkpt lat="43.60677" lon="3.89072">
        <ele>72</ele>
        <time>2016-04-17T16:22:07.979Z</time>
      </trkpt>
      <trkpt lat="43.60685" lon="3.89067">
        <ele>71</ele>
        <time>2016-04-17T16:22:08.953Z</time>
      </trkpt>
      <trkpt lat="43.60681" lon="3.89056">
        <ele>71</ele>
        <time>2016-04-17T16:22:12.978Z</time>
      </trkpt>
      <trkpt lat="43.60684" lon="3.89054">
        <ele>72</ele>
        <time>2016-04-17T16:22:13.955Z</time>
      </trkpt>
      <trkpt lat="43.60687" lon="3.89044">
        <ele>74</ele>
        <time>2016-04-17T16:22:16.983Z</time>
      </trkpt>
      <trkpt lat="43.60689" lon="3.89041">
        <ele>75</ele>
        <time>2016-04-17T16:22:17.954Z</time>
      </trkpt>
      <trkpt lat="43.60695" lon="3.89035">
        <ele>75</ele>
        <time>2016-04-17T16:22:19.978Z</time>
      </trkpt>
      <trkpt lat="43.60698" lon="3.89033">
        <ele>75</ele>
        <time>2016-04-17T16:22:20.956Z</time>
      </trkpt>
      <trkpt lat="43.60707" lon="3.89032">
        <ele>78</ele>
        <time>2016-04-17T16:22:26.976Z</time>
      </trkpt>
      <trkpt lat="43.60709" lon="3.8903">
        <ele>78</ele>
        <time>2016-04-17T16:22:27.954Z</time>
      </trkpt>
      <trkpt lat="43.60717" lon="3.89032">
        <ele>84</ele>
        <time>2016-04-17T16:22:33.112Z</time>
      </trkpt>
      <trkpt lat="43.60721" lon="3.89033">
        <ele>85</ele>
        <time>2016-04-17T16:22:33.952Z</time>
      </trkpt>
      <trkpt lat="43.60727" lon="3.89037">
        <ele>86</ele>
        <time>2016-04-17T16:22:36.999Z</time>
      </trkpt>
      <trkpt lat="43.60736" lon="3.89029">
        <ele>86</ele>
        <time>2016-04-17T16:22:37.952Z</time>
      </trkpt>
      <trkpt lat="43.60738" lon="3.89041">
        <ele>87</ele>
        <time>2016-04-17T16:22:40.978Z</time>
      </trkpt>
      <trkpt lat="43.60739" lon="3.89043">
        <ele>87</ele>
        <time>2016-04-17T16:22:41.953Z</time>
      </trkpt>
      <trkpt lat="43.60743" lon="3.89048">
        <ele>87</ele>
        <time>2016-04-17T16:22:43.974Z</time>
      </trkpt>
      <trkpt lat="43.60747" lon="3.8905">
        <ele>87</ele>
        <time>2016-04-17T16:22:45.091Z</time>
      </trkpt>
      <trkpt lat="43.60752" lon="3.8906">
        <ele>86</ele>
        <time>2016-04-17T16:22:51.979Z</time>
      </trkpt>
      <trkpt lat="43.60752" lon="3.89061">
        <ele>86</ele>
        <time>2016-04-17T16:22:52.977Z</time>
      </trkpt>
      <trkpt lat="43.60743" lon="3.8906">
        <ele>100</ele>
        <time>2016-04-17T16:24:54.979Z</time>
      </trkpt>
      <trkpt lat="43.60741" lon="3.89063">
        <ele>99</ele>
        <time>2016-04-17T16:24:55.955Z</time>
      </trkpt>
      <trkpt lat="43.60741" lon="3.89064">
        <ele>97</ele>
        <time>2016-04-17T16:25:10.584Z</time>
      </trkpt>
    </trkseg>
  </trk>
</gpx>